<?xml version="1.0" encoding="UTF-8" standalone="no" ?>
<gpx xmlns="http://www.topografix.com/GPX/1/1" xmlns:xsi="http://www.w3.org/2001/XMLSchema-instance" xsi:schemaLocation="http://www.topografix.com/GPX/1/1 http://www.topografix.com/GPX/1/1/gpx.xsd" version="1.1" creator="VisuGPX - https://www.visugpx.com">
  <metadata>
    <name>O-SO-Rouans Chéméré St Hilaire Chaléons St Lumine Coutais La Chevrolière Pont St Martin</name>
    <desc><![CDATA[O-SO-Rouans Chéméré St Hilaire Chaléons St Lumine Coutais La Chevrolière Pont St Martin]]></desc>
  </metadata>
  <trk>
    <name><![CDATA[2021-04-05 09:30 +02:00]]></name>
    <trkseg>
      <trkpt lat="47.16785" lon="-1.6267">
        <ele>67</ele>
        <time>2021-04-05T07:31:50.000Z</time>
      </trkpt>
      <trkpt lat="47.16774" lon="-1.62675">
        <ele>70</ele>
        <time>2021-04-05T07:31:52.000Z</time>
      </trkpt>
      <trkpt lat="47.16763" lon="-1.62674">
        <ele>70</ele>
        <time>2021-04-05T07:31:54.000Z</time>
      </trkpt>
      <trkpt lat="47.16753" lon="-1.62671">
        <ele>70</ele>
        <time>2021-04-05T07:31:56.000Z</time>
      </trkpt>
      <trkpt lat="47.16742" lon="-1.62678">
        <ele>69</ele>
        <time>2021-04-05T07:31:58.000Z</time>
      </trkpt>
      <trkpt lat="47.16731" lon="-1.62683">
        <ele>69</ele>
        <time>2021-04-05T07:32:00.000Z</time>
      </trkpt>
      <trkpt lat="47.16722" lon="-1.6269">
        <ele>68</ele>
        <time>2021-04-05T07:32:02.000Z</time>
      </trkpt>
      <trkpt lat="47.1672" lon="-1.62705">
        <ele>68</ele>
        <time>2021-04-05T07:32:04.000Z</time>
      </trkpt>
      <trkpt lat="47.16726" lon="-1.62719">
        <ele>69</ele>
        <time>2021-04-05T07:32:06.000Z</time>
      </trkpt>
      <trkpt lat="47.16734" lon="-1.62733">
        <ele>70</ele>
        <time>2021-04-05T07:32:08.000Z</time>
      </trkpt>
      <trkpt lat="47.16743" lon="-1.62745">
        <ele>70</ele>
        <time>2021-04-05T07:32:10.000Z</time>
      </trkpt>
      <trkpt lat="47.16752" lon="-1.62757">
        <ele>70</ele>
        <time>2021-04-05T07:32:12.000Z</time>
      </trkpt>
      <trkpt lat="47.16762" lon="-1.62768">
        <ele>70</ele>
        <time>2021-04-05T07:32:14.000Z</time>
      </trkpt>
      <trkpt lat="47.16772" lon="-1.62778">
        <ele>69</ele>
        <time>2021-04-05T07:32:16.000Z</time>
      </trkpt>
      <trkpt lat="47.16783" lon="-1.62788">
        <ele>69</ele>
        <time>2021-04-05T07:32:18.000Z</time>
      </trkpt>
      <trkpt lat="47.16792" lon="-1.62799">
        <ele>69</ele>
        <time>2021-04-05T07:32:20.000Z</time>
      </trkpt>
      <trkpt lat="47.16802" lon="-1.62809">
        <ele>70</ele>
        <time>2021-04-05T07:32:22.000Z</time>
      </trkpt>
      <trkpt lat="47.16811" lon="-1.62818">
        <ele>70</ele>
        <time>2021-04-05T07:32:24.000Z</time>
      </trkpt>
      <trkpt lat="47.1682" lon="-1.62828">
        <ele>70</ele>
        <time>2021-04-05T07:32:26.000Z</time>
      </trkpt>
      <trkpt lat="47.1683" lon="-1.62837">
        <ele>70</ele>
        <time>2021-04-05T07:32:28.000Z</time>
      </trkpt>
      <trkpt lat="47.16839" lon="-1.62846">
        <ele>71</ele>
        <time>2021-04-05T07:32:30.000Z</time>
      </trkpt>
      <trkpt lat="47.16849" lon="-1.62855">
        <ele>72</ele>
        <time>2021-04-05T07:32:32.000Z</time>
      </trkpt>
      <trkpt lat="47.16859" lon="-1.62865">
        <ele>73</ele>
        <time>2021-04-05T07:32:34.000Z</time>
      </trkpt>
      <trkpt lat="47.16868" lon="-1.62875">
        <ele>74</ele>
        <time>2021-04-05T07:32:36.000Z</time>
      </trkpt>
      <trkpt lat="47.16877" lon="-1.62887">
        <ele>74</ele>
        <time>2021-04-05T07:32:38.000Z</time>
      </trkpt>
      <trkpt lat="47.16883" lon="-1.62901">
        <ele>74</ele>
        <time>2021-04-05T07:32:40.000Z</time>
      </trkpt>
      <trkpt lat="47.16887" lon="-1.62916">
        <ele>73</ele>
        <time>2021-04-05T07:32:42.000Z</time>
      </trkpt>
      <trkpt lat="47.16889" lon="-1.62932">
        <ele>73</ele>
        <time>2021-04-05T07:32:44.000Z</time>
      </trkpt>
      <trkpt lat="47.16891" lon="-1.62949">
        <ele>73</ele>
        <time>2021-04-05T07:32:46.000Z</time>
      </trkpt>
      <trkpt lat="47.16891" lon="-1.62965">
        <ele>73</ele>
        <time>2021-04-05T07:32:48.000Z</time>
      </trkpt>
      <trkpt lat="47.1689" lon="-1.62982">
        <ele>73</ele>
        <time>2021-04-05T07:32:50.000Z</time>
      </trkpt>
      <trkpt lat="47.16889" lon="-1.62999">
        <ele>73</ele>
        <time>2021-04-05T07:32:52.000Z</time>
      </trkpt>
      <trkpt lat="47.16887" lon="-1.63016">
        <ele>73</ele>
        <time>2021-04-05T07:32:54.000Z</time>
      </trkpt>
      <trkpt lat="47.16886" lon="-1.63033">
        <ele>73</ele>
        <time>2021-04-05T07:32:56.000Z</time>
      </trkpt>
      <trkpt lat="47.16885" lon="-1.6305">
        <ele>73</ele>
        <time>2021-04-05T07:32:58.000Z</time>
      </trkpt>
      <trkpt lat="47.16886" lon="-1.63067">
        <ele>74</ele>
        <time>2021-04-05T07:33:00.000Z</time>
      </trkpt>
      <trkpt lat="47.16888" lon="-1.63083">
        <ele>74</ele>
        <time>2021-04-05T07:33:02.000Z</time>
      </trkpt>
      <trkpt lat="47.16892" lon="-1.63098">
        <ele>73</ele>
        <time>2021-04-05T07:33:04.000Z</time>
      </trkpt>
      <trkpt lat="47.16896" lon="-1.63114">
        <ele>73</ele>
        <time>2021-04-05T07:33:06.000Z</time>
      </trkpt>
      <trkpt lat="47.169" lon="-1.63129">
        <ele>73</ele>
        <time>2021-04-05T07:33:08.000Z</time>
      </trkpt>
      <trkpt lat="47.16904" lon="-1.63144">
        <ele>72</ele>
        <time>2021-04-05T07:33:10.000Z</time>
      </trkpt>
      <trkpt lat="47.16909" lon="-1.63158">
        <ele>73</ele>
        <time>2021-04-05T07:33:12.000Z</time>
      </trkpt>
      <trkpt lat="47.16916" lon="-1.63171">
        <ele>73</ele>
        <time>2021-04-05T07:33:14.000Z</time>
      </trkpt>
      <trkpt lat="47.16922" lon="-1.63185">
        <ele>73</ele>
        <time>2021-04-05T07:33:16.000Z</time>
      </trkpt>
      <trkpt lat="47.16929" lon="-1.63197">
        <ele>73</ele>
        <time>2021-04-05T07:33:18.000Z</time>
      </trkpt>
      <trkpt lat="47.16935" lon="-1.63208">
        <ele>73</ele>
        <time>2021-04-05T07:33:20.000Z</time>
      </trkpt>
      <trkpt lat="47.16943" lon="-1.63219">
        <ele>74</ele>
        <time>2021-04-05T07:33:22.000Z</time>
      </trkpt>
      <trkpt lat="47.16951" lon="-1.63229">
        <ele>74</ele>
        <time>2021-04-05T07:33:24.000Z</time>
      </trkpt>
      <trkpt lat="47.16958" lon="-1.63238">
        <ele>75</ele>
        <time>2021-04-05T07:33:26.000Z</time>
      </trkpt>
      <trkpt lat="47.16967" lon="-1.63249">
        <ele>75</ele>
        <time>2021-04-05T07:33:29.000Z</time>
      </trkpt>
      <trkpt lat="47.16965" lon="-1.63265">
        <ele>75</ele>
        <time>2021-04-05T07:33:32.000Z</time>
      </trkpt>
      <trkpt lat="47.16957" lon="-1.63277">
        <ele>75</ele>
        <time>2021-04-05T07:33:34.000Z</time>
      </trkpt>
      <trkpt lat="47.1695" lon="-1.6329">
        <ele>75</ele>
        <time>2021-04-05T07:33:36.000Z</time>
      </trkpt>
      <trkpt lat="47.16942" lon="-1.63303">
        <ele>75</ele>
        <time>2021-04-05T07:33:38.000Z</time>
      </trkpt>
      <trkpt lat="47.16933" lon="-1.63316">
        <ele>75</ele>
        <time>2021-04-05T07:33:40.000Z</time>
      </trkpt>
      <trkpt lat="47.16924" lon="-1.63329">
        <ele>75</ele>
        <time>2021-04-05T07:33:42.000Z</time>
      </trkpt>
      <trkpt lat="47.16915" lon="-1.63343">
        <ele>75</ele>
        <time>2021-04-05T07:33:44.000Z</time>
      </trkpt>
      <trkpt lat="47.16906" lon="-1.63356">
        <ele>75</ele>
        <time>2021-04-05T07:33:46.000Z</time>
      </trkpt>
      <trkpt lat="47.16898" lon="-1.63368">
        <ele>75</ele>
        <time>2021-04-05T07:33:48.000Z</time>
      </trkpt>
      <trkpt lat="47.16889" lon="-1.63382">
        <ele>74</ele>
        <time>2021-04-05T07:33:50.000Z</time>
      </trkpt>
      <trkpt lat="47.16881" lon="-1.63395">
        <ele>74</ele>
        <time>2021-04-05T07:33:52.000Z</time>
      </trkpt>
      <trkpt lat="47.16872" lon="-1.6341">
        <ele>75</ele>
        <time>2021-04-05T07:33:54.000Z</time>
      </trkpt>
      <trkpt lat="47.16864" lon="-1.63425">
        <ele>75</ele>
        <time>2021-04-05T07:33:56.000Z</time>
      </trkpt>
      <trkpt lat="47.16856" lon="-1.63439">
        <ele>75</ele>
        <time>2021-04-05T07:33:58.000Z</time>
      </trkpt>
      <trkpt lat="47.16847" lon="-1.63453">
        <ele>75</ele>
        <time>2021-04-05T07:34:00.000Z</time>
      </trkpt>
      <trkpt lat="47.16838" lon="-1.63468">
        <ele>75</ele>
        <time>2021-04-05T07:34:02.000Z</time>
      </trkpt>
      <trkpt lat="47.16829" lon="-1.63484">
        <ele>75</ele>
        <time>2021-04-05T07:34:04.000Z</time>
      </trkpt>
      <trkpt lat="47.16821" lon="-1.63497">
        <ele>75</ele>
        <time>2021-04-05T07:34:06.000Z</time>
      </trkpt>
      <trkpt lat="47.16813" lon="-1.63511">
        <ele>75</ele>
        <time>2021-04-05T07:34:08.000Z</time>
      </trkpt>
      <trkpt lat="47.16805" lon="-1.63525">
        <ele>76</ele>
        <time>2021-04-05T07:34:10.000Z</time>
      </trkpt>
      <trkpt lat="47.16797" lon="-1.63538">
        <ele>76</ele>
        <time>2021-04-05T07:34:12.000Z</time>
      </trkpt>
      <trkpt lat="47.16789" lon="-1.63552">
        <ele>76</ele>
        <time>2021-04-05T07:34:14.000Z</time>
      </trkpt>
      <trkpt lat="47.16781" lon="-1.63567">
        <ele>76</ele>
        <time>2021-04-05T07:34:16.000Z</time>
      </trkpt>
      <trkpt lat="47.16772" lon="-1.63581">
        <ele>76</ele>
        <time>2021-04-05T07:34:18.000Z</time>
      </trkpt>
      <trkpt lat="47.16764" lon="-1.63594">
        <ele>76</ele>
        <time>2021-04-05T07:34:20.000Z</time>
      </trkpt>
      <trkpt lat="47.16756" lon="-1.63609">
        <ele>76</ele>
        <time>2021-04-05T07:34:22.000Z</time>
      </trkpt>
      <trkpt lat="47.16748" lon="-1.63622">
        <ele>76</ele>
        <time>2021-04-05T07:34:24.000Z</time>
      </trkpt>
      <trkpt lat="47.16745" lon="-1.63637">
        <ele>76</ele>
        <time>2021-04-05T07:34:26.000Z</time>
      </trkpt>
      <trkpt lat="47.16755" lon="-1.63648">
        <ele>75</ele>
        <time>2021-04-05T07:34:28.000Z</time>
      </trkpt>
      <trkpt lat="47.16766" lon="-1.63652">
        <ele>75</ele>
        <time>2021-04-05T07:34:30.000Z</time>
      </trkpt>
      <trkpt lat="47.16778" lon="-1.63657">
        <ele>75</ele>
        <time>2021-04-05T07:34:32.000Z</time>
      </trkpt>
      <trkpt lat="47.16791" lon="-1.63661">
        <ele>76</ele>
        <time>2021-04-05T07:34:34.000Z</time>
      </trkpt>
      <trkpt lat="47.16804" lon="-1.63665">
        <ele>76</ele>
        <time>2021-04-05T07:34:36.000Z</time>
      </trkpt>
      <trkpt lat="47.16816" lon="-1.63669">
        <ele>77</ele>
        <time>2021-04-05T07:34:38.000Z</time>
      </trkpt>
      <trkpt lat="47.16829" lon="-1.63674">
        <ele>77</ele>
        <time>2021-04-05T07:34:40.000Z</time>
      </trkpt>
      <trkpt lat="47.16841" lon="-1.63679">
        <ele>77</ele>
        <time>2021-04-05T07:34:42.000Z</time>
      </trkpt>
      <trkpt lat="47.16854" lon="-1.63684">
        <ele>77</ele>
        <time>2021-04-05T07:34:44.000Z</time>
      </trkpt>
      <trkpt lat="47.16866" lon="-1.63688">
        <ele>77</ele>
        <time>2021-04-05T07:34:46.000Z</time>
      </trkpt>
      <trkpt lat="47.16879" lon="-1.63693">
        <ele>77</ele>
        <time>2021-04-05T07:34:48.000Z</time>
      </trkpt>
      <trkpt lat="47.16892" lon="-1.63698">
        <ele>77</ele>
        <time>2021-04-05T07:34:50.000Z</time>
      </trkpt>
      <trkpt lat="47.16905" lon="-1.63703">
        <ele>77</ele>
        <time>2021-04-05T07:34:52.000Z</time>
      </trkpt>
      <trkpt lat="47.16917" lon="-1.63707">
        <ele>77</ele>
        <time>2021-04-05T07:34:54.000Z</time>
      </trkpt>
      <trkpt lat="47.1693" lon="-1.63712">
        <ele>77</ele>
        <time>2021-04-05T07:34:56.000Z</time>
      </trkpt>
      <trkpt lat="47.16942" lon="-1.63717">
        <ele>77</ele>
        <time>2021-04-05T07:34:58.000Z</time>
      </trkpt>
      <trkpt lat="47.16955" lon="-1.63721">
        <ele>77</ele>
        <time>2021-04-05T07:35:00.000Z</time>
      </trkpt>
      <trkpt lat="47.16968" lon="-1.63726">
        <ele>78</ele>
        <time>2021-04-05T07:35:02.000Z</time>
      </trkpt>
      <trkpt lat="47.16981" lon="-1.6373">
        <ele>77</ele>
        <time>2021-04-05T07:35:04.000Z</time>
      </trkpt>
      <trkpt lat="47.16993" lon="-1.63735">
        <ele>78</ele>
        <time>2021-04-05T07:35:06.000Z</time>
      </trkpt>
      <trkpt lat="47.17006" lon="-1.6374">
        <ele>78</ele>
        <time>2021-04-05T07:35:08.000Z</time>
      </trkpt>
      <trkpt lat="47.17018" lon="-1.63746">
        <ele>77</ele>
        <time>2021-04-05T07:35:10.000Z</time>
      </trkpt>
      <trkpt lat="47.17031" lon="-1.6375">
        <ele>77</ele>
        <time>2021-04-05T07:35:12.000Z</time>
      </trkpt>
      <trkpt lat="47.17043" lon="-1.63755">
        <ele>78</ele>
        <time>2021-04-05T07:35:14.000Z</time>
      </trkpt>
      <trkpt lat="47.17054" lon="-1.63764">
        <ele>78</ele>
        <time>2021-04-05T07:35:16.000Z</time>
      </trkpt>
      <trkpt lat="47.17063" lon="-1.63778">
        <ele>78</ele>
        <time>2021-04-05T07:35:18.000Z</time>
      </trkpt>
      <trkpt lat="47.17069" lon="-1.63794">
        <ele>77</ele>
        <time>2021-04-05T07:35:20.000Z</time>
      </trkpt>
      <trkpt lat="47.17075" lon="-1.63811">
        <ele>78</ele>
        <time>2021-04-05T07:35:22.000Z</time>
      </trkpt>
      <trkpt lat="47.1708" lon="-1.63827">
        <ele>78</ele>
        <time>2021-04-05T07:35:24.000Z</time>
      </trkpt>
      <trkpt lat="47.17085" lon="-1.63843">
        <ele>78</ele>
        <time>2021-04-05T07:35:26.000Z</time>
      </trkpt>
      <trkpt lat="47.17091" lon="-1.63859">
        <ele>78</ele>
        <time>2021-04-05T07:35:28.000Z</time>
      </trkpt>
      <trkpt lat="47.17097" lon="-1.63876">
        <ele>78</ele>
        <time>2021-04-05T07:35:30.000Z</time>
      </trkpt>
      <trkpt lat="47.17103" lon="-1.63893">
        <ele>78</ele>
        <time>2021-04-05T07:35:32.000Z</time>
      </trkpt>
      <trkpt lat="47.17109" lon="-1.6391">
        <ele>77</ele>
        <time>2021-04-05T07:35:34.000Z</time>
      </trkpt>
      <trkpt lat="47.17114" lon="-1.63923">
        <ele>77</ele>
        <time>2021-04-05T07:35:36.000Z</time>
      </trkpt>
      <trkpt lat="47.17121" lon="-1.63935">
        <ele>77</ele>
        <time>2021-04-05T07:35:38.000Z</time>
      </trkpt>
      <trkpt lat="47.17132" lon="-1.63943">
        <ele>77</ele>
        <time>2021-04-05T07:35:41.000Z</time>
      </trkpt>
      <trkpt lat="47.17138" lon="-1.63952">
        <ele>77</ele>
        <time>2021-04-05T07:35:43.000Z</time>
      </trkpt>
      <trkpt lat="47.17139" lon="-1.63968">
        <ele>77</ele>
        <time>2021-04-05T07:35:45.000Z</time>
      </trkpt>
      <trkpt lat="47.17139" lon="-1.63986">
        <ele>77</ele>
        <time>2021-04-05T07:35:47.000Z</time>
      </trkpt>
      <trkpt lat="47.17137" lon="-1.64004">
        <ele>77</ele>
        <time>2021-04-05T07:35:49.000Z</time>
      </trkpt>
      <trkpt lat="47.17135" lon="-1.64022">
        <ele>77</ele>
        <time>2021-04-05T07:35:51.000Z</time>
      </trkpt>
      <trkpt lat="47.17133" lon="-1.6404">
        <ele>78</ele>
        <time>2021-04-05T07:35:53.000Z</time>
      </trkpt>
      <trkpt lat="47.17131" lon="-1.64057">
        <ele>78</ele>
        <time>2021-04-05T07:35:55.000Z</time>
      </trkpt>
      <trkpt lat="47.1713" lon="-1.64076">
        <ele>78</ele>
        <time>2021-04-05T07:35:57.000Z</time>
      </trkpt>
      <trkpt lat="47.17128" lon="-1.64094">
        <ele>78</ele>
        <time>2021-04-05T07:35:59.000Z</time>
      </trkpt>
      <trkpt lat="47.17126" lon="-1.64113">
        <ele>79</ele>
        <time>2021-04-05T07:36:01.000Z</time>
      </trkpt>
      <trkpt lat="47.17124" lon="-1.64132">
        <ele>79</ele>
        <time>2021-04-05T07:36:03.000Z</time>
      </trkpt>
      <trkpt lat="47.17122" lon="-1.6415">
        <ele>79</ele>
        <time>2021-04-05T07:36:05.000Z</time>
      </trkpt>
      <trkpt lat="47.1712" lon="-1.6417">
        <ele>78</ele>
        <time>2021-04-05T07:36:07.000Z</time>
      </trkpt>
      <trkpt lat="47.17118" lon="-1.64188">
        <ele>78</ele>
        <time>2021-04-05T07:36:09.000Z</time>
      </trkpt>
      <trkpt lat="47.17116" lon="-1.64207">
        <ele>78</ele>
        <time>2021-04-05T07:36:11.000Z</time>
      </trkpt>
      <trkpt lat="47.17114" lon="-1.64226">
        <ele>79</ele>
        <time>2021-04-05T07:36:13.000Z</time>
      </trkpt>
      <trkpt lat="47.17112" lon="-1.64245">
        <ele>79</ele>
        <time>2021-04-05T07:36:15.000Z</time>
      </trkpt>
      <trkpt lat="47.1711" lon="-1.64263">
        <ele>78</ele>
        <time>2021-04-05T07:36:17.000Z</time>
      </trkpt>
      <trkpt lat="47.17108" lon="-1.64281">
        <ele>78</ele>
        <time>2021-04-05T07:36:19.000Z</time>
      </trkpt>
      <trkpt lat="47.17106" lon="-1.643">
        <ele>78</ele>
        <time>2021-04-05T07:36:21.000Z</time>
      </trkpt>
      <trkpt lat="47.17104" lon="-1.64318">
        <ele>78</ele>
        <time>2021-04-05T07:36:23.000Z</time>
      </trkpt>
      <trkpt lat="47.17102" lon="-1.64336">
        <ele>77</ele>
        <time>2021-04-05T07:36:25.000Z</time>
      </trkpt>
      <trkpt lat="47.17101" lon="-1.64354">
        <ele>77</ele>
        <time>2021-04-05T07:36:27.000Z</time>
      </trkpt>
      <trkpt lat="47.17099" lon="-1.64372">
        <ele>77</ele>
        <time>2021-04-05T07:36:29.000Z</time>
      </trkpt>
      <trkpt lat="47.17097" lon="-1.64392">
        <ele>77</ele>
        <time>2021-04-05T07:36:31.000Z</time>
      </trkpt>
      <trkpt lat="47.17095" lon="-1.64411">
        <ele>77</ele>
        <time>2021-04-05T07:36:33.000Z</time>
      </trkpt>
      <trkpt lat="47.17094" lon="-1.64431">
        <ele>77</ele>
        <time>2021-04-05T07:36:35.000Z</time>
      </trkpt>
      <trkpt lat="47.17092" lon="-1.64451">
        <ele>78</ele>
        <time>2021-04-05T07:36:37.000Z</time>
      </trkpt>
      <trkpt lat="47.17092" lon="-1.6447">
        <ele>77</ele>
        <time>2021-04-05T07:36:39.000Z</time>
      </trkpt>
      <trkpt lat="47.17091" lon="-1.6449">
        <ele>77</ele>
        <time>2021-04-05T07:36:41.000Z</time>
      </trkpt>
      <trkpt lat="47.1709" lon="-1.64509">
        <ele>77</ele>
        <time>2021-04-05T07:36:43.000Z</time>
      </trkpt>
      <trkpt lat="47.17089" lon="-1.64529">
        <ele>76</ele>
        <time>2021-04-05T07:36:45.000Z</time>
      </trkpt>
      <trkpt lat="47.17088" lon="-1.64549">
        <ele>76</ele>
        <time>2021-04-05T07:36:47.000Z</time>
      </trkpt>
      <trkpt lat="47.17087" lon="-1.64569">
        <ele>76</ele>
        <time>2021-04-05T07:36:49.000Z</time>
      </trkpt>
      <trkpt lat="47.17087" lon="-1.64589">
        <ele>76</ele>
        <time>2021-04-05T07:36:51.000Z</time>
      </trkpt>
      <trkpt lat="47.17087" lon="-1.64608">
        <ele>76</ele>
        <time>2021-04-05T07:36:53.000Z</time>
      </trkpt>
      <trkpt lat="47.17087" lon="-1.64628">
        <ele>76</ele>
        <time>2021-04-05T07:36:55.000Z</time>
      </trkpt>
      <trkpt lat="47.17087" lon="-1.64648">
        <ele>76</ele>
        <time>2021-04-05T07:36:57.000Z</time>
      </trkpt>
      <trkpt lat="47.17088" lon="-1.64667">
        <ele>76</ele>
        <time>2021-04-05T07:36:59.000Z</time>
      </trkpt>
      <trkpt lat="47.17089" lon="-1.64688">
        <ele>76</ele>
        <time>2021-04-05T07:37:01.000Z</time>
      </trkpt>
      <trkpt lat="47.1709" lon="-1.64708">
        <ele>76</ele>
        <time>2021-04-05T07:37:03.000Z</time>
      </trkpt>
      <trkpt lat="47.17091" lon="-1.64728">
        <ele>76</ele>
        <time>2021-04-05T07:37:05.000Z</time>
      </trkpt>
      <trkpt lat="47.17092" lon="-1.64748">
        <ele>76</ele>
        <time>2021-04-05T07:37:07.000Z</time>
      </trkpt>
      <trkpt lat="47.17093" lon="-1.64767">
        <ele>77</ele>
        <time>2021-04-05T07:37:09.000Z</time>
      </trkpt>
      <trkpt lat="47.17094" lon="-1.64786">
        <ele>77</ele>
        <time>2021-04-05T07:37:11.000Z</time>
      </trkpt>
      <trkpt lat="47.17095" lon="-1.64805">
        <ele>78</ele>
        <time>2021-04-05T07:37:13.000Z</time>
      </trkpt>
      <trkpt lat="47.17097" lon="-1.64826">
        <ele>78</ele>
        <time>2021-04-05T07:37:15.000Z</time>
      </trkpt>
      <trkpt lat="47.17098" lon="-1.64847">
        <ele>77</ele>
        <time>2021-04-05T07:37:17.000Z</time>
      </trkpt>
      <trkpt lat="47.17099" lon="-1.64867">
        <ele>77</ele>
        <time>2021-04-05T07:37:19.000Z</time>
      </trkpt>
      <trkpt lat="47.171" lon="-1.64886">
        <ele>77</ele>
        <time>2021-04-05T07:37:21.000Z</time>
      </trkpt>
      <trkpt lat="47.17101" lon="-1.64905">
        <ele>77</ele>
        <time>2021-04-05T07:37:23.000Z</time>
      </trkpt>
      <trkpt lat="47.17102" lon="-1.64925">
        <ele>77</ele>
        <time>2021-04-05T07:37:25.000Z</time>
      </trkpt>
      <trkpt lat="47.17104" lon="-1.64945">
        <ele>77</ele>
        <time>2021-04-05T07:37:27.000Z</time>
      </trkpt>
      <trkpt lat="47.17105" lon="-1.64965">
        <ele>76</ele>
        <time>2021-04-05T07:37:29.000Z</time>
      </trkpt>
      <trkpt lat="47.17107" lon="-1.64984">
        <ele>77</ele>
        <time>2021-04-05T07:37:31.000Z</time>
      </trkpt>
      <trkpt lat="47.17108" lon="-1.65003">
        <ele>76</ele>
        <time>2021-04-05T07:37:33.000Z</time>
      </trkpt>
      <trkpt lat="47.17109" lon="-1.65022">
        <ele>76</ele>
        <time>2021-04-05T07:37:35.000Z</time>
      </trkpt>
      <trkpt lat="47.17111" lon="-1.6504">
        <ele>76</ele>
        <time>2021-04-05T07:37:37.000Z</time>
      </trkpt>
      <trkpt lat="47.17112" lon="-1.65059">
        <ele>76</ele>
        <time>2021-04-05T07:37:39.000Z</time>
      </trkpt>
      <trkpt lat="47.17114" lon="-1.65077">
        <ele>76</ele>
        <time>2021-04-05T07:37:41.000Z</time>
      </trkpt>
      <trkpt lat="47.17115" lon="-1.65096">
        <ele>76</ele>
        <time>2021-04-05T07:37:43.000Z</time>
      </trkpt>
      <trkpt lat="47.17116" lon="-1.65116">
        <ele>76</ele>
        <time>2021-04-05T07:37:45.000Z</time>
      </trkpt>
      <trkpt lat="47.17117" lon="-1.65134">
        <ele>76</ele>
        <time>2021-04-05T07:37:47.000Z</time>
      </trkpt>
      <trkpt lat="47.17118" lon="-1.65152">
        <ele>76</ele>
        <time>2021-04-05T07:37:49.000Z</time>
      </trkpt>
      <trkpt lat="47.17119" lon="-1.65169">
        <ele>76</ele>
        <time>2021-04-05T07:37:51.000Z</time>
      </trkpt>
      <trkpt lat="47.1712" lon="-1.65186">
        <ele>76</ele>
        <time>2021-04-05T07:37:53.000Z</time>
      </trkpt>
      <trkpt lat="47.17121" lon="-1.65202">
        <ele>76</ele>
        <time>2021-04-05T07:37:55.000Z</time>
      </trkpt>
      <trkpt lat="47.17122" lon="-1.65219">
        <ele>76</ele>
        <time>2021-04-05T07:37:57.000Z</time>
      </trkpt>
      <trkpt lat="47.17123" lon="-1.65236">
        <ele>77</ele>
        <time>2021-04-05T07:37:59.000Z</time>
      </trkpt>
      <trkpt lat="47.17125" lon="-1.65252">
        <ele>78</ele>
        <time>2021-04-05T07:38:01.000Z</time>
      </trkpt>
      <trkpt lat="47.17129" lon="-1.65268">
        <ele>78</ele>
        <time>2021-04-05T07:38:03.000Z</time>
      </trkpt>
      <trkpt lat="47.17136" lon="-1.65282">
        <ele>78</ele>
        <time>2021-04-05T07:38:05.000Z</time>
      </trkpt>
      <trkpt lat="47.17139" lon="-1.65298">
        <ele>79</ele>
        <time>2021-04-05T07:38:07.000Z</time>
      </trkpt>
      <trkpt lat="47.17139" lon="-1.65314">
        <ele>78</ele>
        <time>2021-04-05T07:38:09.000Z</time>
      </trkpt>
      <trkpt lat="47.17133" lon="-1.65329">
        <ele>79</ele>
        <time>2021-04-05T07:38:11.000Z</time>
      </trkpt>
      <trkpt lat="47.17125" lon="-1.6534">
        <ele>79</ele>
        <time>2021-04-05T07:38:13.000Z</time>
      </trkpt>
      <trkpt lat="47.1712" lon="-1.65355">
        <ele>79</ele>
        <time>2021-04-05T07:38:15.000Z</time>
      </trkpt>
      <trkpt lat="47.17119" lon="-1.65372">
        <ele>79</ele>
        <time>2021-04-05T07:38:17.000Z</time>
      </trkpt>
      <trkpt lat="47.1712" lon="-1.65389">
        <ele>79</ele>
        <time>2021-04-05T07:38:19.000Z</time>
      </trkpt>
      <trkpt lat="47.1712" lon="-1.65405">
        <ele>79</ele>
        <time>2021-04-05T07:38:21.000Z</time>
      </trkpt>
      <trkpt lat="47.17119" lon="-1.65422">
        <ele>80</ele>
        <time>2021-04-05T07:38:23.000Z</time>
      </trkpt>
      <trkpt lat="47.1712" lon="-1.65438">
        <ele>81</ele>
        <time>2021-04-05T07:38:25.000Z</time>
      </trkpt>
      <trkpt lat="47.17119" lon="-1.65454">
        <ele>82</ele>
        <time>2021-04-05T07:38:27.000Z</time>
      </trkpt>
      <trkpt lat="47.17118" lon="-1.65469">
        <ele>82</ele>
        <time>2021-04-05T07:38:29.000Z</time>
      </trkpt>
      <trkpt lat="47.17116" lon="-1.65484">
        <ele>83</ele>
        <time>2021-04-05T07:38:31.000Z</time>
      </trkpt>
      <trkpt lat="47.17113" lon="-1.65499">
        <ele>83</ele>
        <time>2021-04-05T07:38:33.000Z</time>
      </trkpt>
      <trkpt lat="47.17109" lon="-1.65513">
        <ele>84</ele>
        <time>2021-04-05T07:38:35.000Z</time>
      </trkpt>
      <trkpt lat="47.17104" lon="-1.65527">
        <ele>84</ele>
        <time>2021-04-05T07:38:37.000Z</time>
      </trkpt>
      <trkpt lat="47.17099" lon="-1.65541">
        <ele>85</ele>
        <time>2021-04-05T07:38:39.000Z</time>
      </trkpt>
      <trkpt lat="47.17092" lon="-1.65554">
        <ele>85</ele>
        <time>2021-04-05T07:38:41.000Z</time>
      </trkpt>
      <trkpt lat="47.17085" lon="-1.65566">
        <ele>85</ele>
        <time>2021-04-05T07:38:43.000Z</time>
      </trkpt>
      <trkpt lat="47.17078" lon="-1.65579">
        <ele>85</ele>
        <time>2021-04-05T07:38:45.000Z</time>
      </trkpt>
      <trkpt lat="47.17071" lon="-1.6559">
        <ele>85</ele>
        <time>2021-04-05T07:38:47.000Z</time>
      </trkpt>
      <trkpt lat="47.17064" lon="-1.65603">
        <ele>85</ele>
        <time>2021-04-05T07:38:49.000Z</time>
      </trkpt>
      <trkpt lat="47.17057" lon="-1.65616">
        <ele>85</ele>
        <time>2021-04-05T07:38:51.000Z</time>
      </trkpt>
      <trkpt lat="47.17049" lon="-1.65629">
        <ele>85</ele>
        <time>2021-04-05T07:38:53.000Z</time>
      </trkpt>
      <trkpt lat="47.17042" lon="-1.65644">
        <ele>84</ele>
        <time>2021-04-05T07:38:55.000Z</time>
      </trkpt>
      <trkpt lat="47.17033" lon="-1.65659">
        <ele>83</ele>
        <time>2021-04-05T07:38:57.000Z</time>
      </trkpt>
      <trkpt lat="47.17025" lon="-1.65676">
        <ele>83</ele>
        <time>2021-04-05T07:38:59.000Z</time>
      </trkpt>
      <trkpt lat="47.17017" lon="-1.65692">
        <ele>83</ele>
        <time>2021-04-05T07:39:01.000Z</time>
      </trkpt>
      <trkpt lat="47.17011" lon="-1.65709">
        <ele>83</ele>
        <time>2021-04-05T07:39:03.000Z</time>
      </trkpt>
      <trkpt lat="47.17006" lon="-1.65727">
        <ele>83</ele>
        <time>2021-04-05T07:39:05.000Z</time>
      </trkpt>
      <trkpt lat="47.17003" lon="-1.65747">
        <ele>83</ele>
        <time>2021-04-05T07:39:07.000Z</time>
      </trkpt>
      <trkpt lat="47.16997" lon="-1.65763">
        <ele>83</ele>
        <time>2021-04-05T07:39:09.000Z</time>
      </trkpt>
      <trkpt lat="47.16986" lon="-1.65772">
        <ele>83</ele>
        <time>2021-04-05T07:39:11.000Z</time>
      </trkpt>
      <trkpt lat="47.16973" lon="-1.65779">
        <ele>83</ele>
        <time>2021-04-05T07:39:13.000Z</time>
      </trkpt>
      <trkpt lat="47.16962" lon="-1.6579">
        <ele>83</ele>
        <time>2021-04-05T07:39:15.000Z</time>
      </trkpt>
      <trkpt lat="47.16953" lon="-1.65806">
        <ele>82</ele>
        <time>2021-04-05T07:39:17.000Z</time>
      </trkpt>
      <trkpt lat="47.16945" lon="-1.65823">
        <ele>82</ele>
        <time>2021-04-05T07:39:19.000Z</time>
      </trkpt>
      <trkpt lat="47.16937" lon="-1.6584">
        <ele>82</ele>
        <time>2021-04-05T07:39:21.000Z</time>
      </trkpt>
      <trkpt lat="47.16928" lon="-1.65856">
        <ele>82</ele>
        <time>2021-04-05T07:39:23.000Z</time>
      </trkpt>
      <trkpt lat="47.1692" lon="-1.65873">
        <ele>81</ele>
        <time>2021-04-05T07:39:25.000Z</time>
      </trkpt>
      <trkpt lat="47.16911" lon="-1.6589">
        <ele>81</ele>
        <time>2021-04-05T07:39:27.000Z</time>
      </trkpt>
      <trkpt lat="47.16903" lon="-1.65907">
        <ele>81</ele>
        <time>2021-04-05T07:39:29.000Z</time>
      </trkpt>
      <trkpt lat="47.16895" lon="-1.65924">
        <ele>80</ele>
        <time>2021-04-05T07:39:31.000Z</time>
      </trkpt>
      <trkpt lat="47.16888" lon="-1.65941">
        <ele>80</ele>
        <time>2021-04-05T07:39:33.000Z</time>
      </trkpt>
      <trkpt lat="47.1688" lon="-1.65959">
        <ele>80</ele>
        <time>2021-04-05T07:39:35.000Z</time>
      </trkpt>
      <trkpt lat="47.16873" lon="-1.65977">
        <ele>80</ele>
        <time>2021-04-05T07:39:37.000Z</time>
      </trkpt>
      <trkpt lat="47.16867" lon="-1.65996">
        <ele>79</ele>
        <time>2021-04-05T07:39:39.000Z</time>
      </trkpt>
      <trkpt lat="47.16862" lon="-1.66014">
        <ele>79</ele>
        <time>2021-04-05T07:39:41.000Z</time>
      </trkpt>
      <trkpt lat="47.16857" lon="-1.66033">
        <ele>79</ele>
        <time>2021-04-05T07:39:43.000Z</time>
      </trkpt>
      <trkpt lat="47.16854" lon="-1.66051">
        <ele>78</ele>
        <time>2021-04-05T07:39:45.000Z</time>
      </trkpt>
      <trkpt lat="47.16851" lon="-1.6607">
        <ele>78</ele>
        <time>2021-04-05T07:39:47.000Z</time>
      </trkpt>
      <trkpt lat="47.16849" lon="-1.6609">
        <ele>78</ele>
        <time>2021-04-05T07:39:49.000Z</time>
      </trkpt>
      <trkpt lat="47.16847" lon="-1.66108">
        <ele>78</ele>
        <time>2021-04-05T07:39:51.000Z</time>
      </trkpt>
      <trkpt lat="47.16846" lon="-1.66127">
        <ele>78</ele>
        <time>2021-04-05T07:39:53.000Z</time>
      </trkpt>
      <trkpt lat="47.16846" lon="-1.66145">
        <ele>78</ele>
        <time>2021-04-05T07:39:55.000Z</time>
      </trkpt>
      <trkpt lat="47.16847" lon="-1.66164">
        <ele>78</ele>
        <time>2021-04-05T07:39:57.000Z</time>
      </trkpt>
      <trkpt lat="47.16847" lon="-1.66182">
        <ele>79</ele>
        <time>2021-04-05T07:39:59.000Z</time>
      </trkpt>
      <trkpt lat="47.16849" lon="-1.66202">
        <ele>78</ele>
        <time>2021-04-05T07:40:01.000Z</time>
      </trkpt>
      <trkpt lat="47.1685" lon="-1.6622">
        <ele>78</ele>
        <time>2021-04-05T07:40:03.000Z</time>
      </trkpt>
      <trkpt lat="47.16851" lon="-1.66238">
        <ele>78</ele>
        <time>2021-04-05T07:40:05.000Z</time>
      </trkpt>
      <trkpt lat="47.16853" lon="-1.66256">
        <ele>78</ele>
        <time>2021-04-05T07:40:07.000Z</time>
      </trkpt>
      <trkpt lat="47.16854" lon="-1.66274">
        <ele>78</ele>
        <time>2021-04-05T07:40:09.000Z</time>
      </trkpt>
      <trkpt lat="47.16855" lon="-1.66292">
        <ele>78</ele>
        <time>2021-04-05T07:40:11.000Z</time>
      </trkpt>
      <trkpt lat="47.16856" lon="-1.6631">
        <ele>78</ele>
        <time>2021-04-05T07:40:13.000Z</time>
      </trkpt>
      <trkpt lat="47.16857" lon="-1.66327">
        <ele>79</ele>
        <time>2021-04-05T07:40:15.000Z</time>
      </trkpt>
      <trkpt lat="47.16858" lon="-1.66346">
        <ele>79</ele>
        <time>2021-04-05T07:40:17.000Z</time>
      </trkpt>
      <trkpt lat="47.1686" lon="-1.66363">
        <ele>79</ele>
        <time>2021-04-05T07:40:19.000Z</time>
      </trkpt>
      <trkpt lat="47.16862" lon="-1.66381">
        <ele>79</ele>
        <time>2021-04-05T07:40:21.000Z</time>
      </trkpt>
      <trkpt lat="47.16864" lon="-1.66399">
        <ele>79</ele>
        <time>2021-04-05T07:40:23.000Z</time>
      </trkpt>
      <trkpt lat="47.16866" lon="-1.66417">
        <ele>79</ele>
        <time>2021-04-05T07:40:25.000Z</time>
      </trkpt>
      <trkpt lat="47.16868" lon="-1.66435">
        <ele>79</ele>
        <time>2021-04-05T07:40:27.000Z</time>
      </trkpt>
      <trkpt lat="47.1687" lon="-1.66453">
        <ele>79</ele>
        <time>2021-04-05T07:40:29.000Z</time>
      </trkpt>
      <trkpt lat="47.16872" lon="-1.66471">
        <ele>79</ele>
        <time>2021-04-05T07:40:31.000Z</time>
      </trkpt>
      <trkpt lat="47.16875" lon="-1.66489">
        <ele>79</ele>
        <time>2021-04-05T07:40:33.000Z</time>
      </trkpt>
      <trkpt lat="47.16877" lon="-1.66506">
        <ele>80</ele>
        <time>2021-04-05T07:40:35.000Z</time>
      </trkpt>
      <trkpt lat="47.16879" lon="-1.66524">
        <ele>80</ele>
        <time>2021-04-05T07:40:37.000Z</time>
      </trkpt>
      <trkpt lat="47.16881" lon="-1.66543">
        <ele>80</ele>
        <time>2021-04-05T07:40:39.000Z</time>
      </trkpt>
      <trkpt lat="47.16884" lon="-1.66561">
        <ele>80</ele>
        <time>2021-04-05T07:40:41.000Z</time>
      </trkpt>
      <trkpt lat="47.16886" lon="-1.66579">
        <ele>80</ele>
        <time>2021-04-05T07:40:43.000Z</time>
      </trkpt>
      <trkpt lat="47.16887" lon="-1.66597">
        <ele>80</ele>
        <time>2021-04-05T07:40:45.000Z</time>
      </trkpt>
      <trkpt lat="47.16889" lon="-1.66615">
        <ele>80</ele>
        <time>2021-04-05T07:40:47.000Z</time>
      </trkpt>
      <trkpt lat="47.16891" lon="-1.66633">
        <ele>80</ele>
        <time>2021-04-05T07:40:49.000Z</time>
      </trkpt>
      <trkpt lat="47.16892" lon="-1.66652">
        <ele>80</ele>
        <time>2021-04-05T07:40:51.000Z</time>
      </trkpt>
      <trkpt lat="47.16892" lon="-1.66671">
        <ele>80</ele>
        <time>2021-04-05T07:40:53.000Z</time>
      </trkpt>
      <trkpt lat="47.1689" lon="-1.66689">
        <ele>80</ele>
        <time>2021-04-05T07:40:55.000Z</time>
      </trkpt>
      <trkpt lat="47.16887" lon="-1.66707">
        <ele>80</ele>
        <time>2021-04-05T07:40:57.000Z</time>
      </trkpt>
      <trkpt lat="47.16882" lon="-1.66724">
        <ele>80</ele>
        <time>2021-04-05T07:40:59.000Z</time>
      </trkpt>
      <trkpt lat="47.16876" lon="-1.66741">
        <ele>80</ele>
        <time>2021-04-05T07:41:01.000Z</time>
      </trkpt>
      <trkpt lat="47.16868" lon="-1.66756">
        <ele>80</ele>
        <time>2021-04-05T07:41:03.000Z</time>
      </trkpt>
      <trkpt lat="47.1686" lon="-1.66771">
        <ele>80</ele>
        <time>2021-04-05T07:41:05.000Z</time>
      </trkpt>
      <trkpt lat="47.16852" lon="-1.66787">
        <ele>80</ele>
        <time>2021-04-05T07:41:07.000Z</time>
      </trkpt>
      <trkpt lat="47.16844" lon="-1.66802">
        <ele>80</ele>
        <time>2021-04-05T07:41:09.000Z</time>
      </trkpt>
      <trkpt lat="47.16837" lon="-1.66818">
        <ele>80</ele>
        <time>2021-04-05T07:41:11.000Z</time>
      </trkpt>
      <trkpt lat="47.16829" lon="-1.66834">
        <ele>81</ele>
        <time>2021-04-05T07:41:13.000Z</time>
      </trkpt>
      <trkpt lat="47.16821" lon="-1.66849">
        <ele>80</ele>
        <time>2021-04-05T07:41:15.000Z</time>
      </trkpt>
      <trkpt lat="47.16812" lon="-1.66865">
        <ele>80</ele>
        <time>2021-04-05T07:41:17.000Z</time>
      </trkpt>
      <trkpt lat="47.16803" lon="-1.66879">
        <ele>80</ele>
        <time>2021-04-05T07:41:19.000Z</time>
      </trkpt>
      <trkpt lat="47.16794" lon="-1.66892">
        <ele>80</ele>
        <time>2021-04-05T07:41:21.000Z</time>
      </trkpt>
      <trkpt lat="47.16784" lon="-1.66901">
        <ele>80</ele>
        <time>2021-04-05T07:41:23.000Z</time>
      </trkpt>
      <trkpt lat="47.16772" lon="-1.66908">
        <ele>81</ele>
        <time>2021-04-05T07:41:25.000Z</time>
      </trkpt>
      <trkpt lat="47.16761" lon="-1.66912">
        <ele>81</ele>
        <time>2021-04-05T07:41:27.000Z</time>
      </trkpt>
      <trkpt lat="47.1675" lon="-1.66917">
        <ele>81</ele>
        <time>2021-04-05T07:41:29.000Z</time>
      </trkpt>
      <trkpt lat="47.16737" lon="-1.66922">
        <ele>81</ele>
        <time>2021-04-05T07:41:31.000Z</time>
      </trkpt>
      <trkpt lat="47.16724" lon="-1.66926">
        <ele>81</ele>
        <time>2021-04-05T07:41:33.000Z</time>
      </trkpt>
      <trkpt lat="47.16711" lon="-1.66931">
        <ele>81</ele>
        <time>2021-04-05T07:41:35.000Z</time>
      </trkpt>
      <trkpt lat="47.16698" lon="-1.66937">
        <ele>81</ele>
        <time>2021-04-05T07:41:37.000Z</time>
      </trkpt>
      <trkpt lat="47.16687" lon="-1.66943">
        <ele>81</ele>
        <time>2021-04-05T07:41:39.000Z</time>
      </trkpt>
      <trkpt lat="47.16677" lon="-1.66954">
        <ele>80</ele>
        <time>2021-04-05T07:41:41.000Z</time>
      </trkpt>
      <trkpt lat="47.1667" lon="-1.66971">
        <ele>81</ele>
        <time>2021-04-05T07:41:43.000Z</time>
      </trkpt>
      <trkpt lat="47.16664" lon="-1.6699">
        <ele>80</ele>
        <time>2021-04-05T07:41:45.000Z</time>
      </trkpt>
      <trkpt lat="47.1666" lon="-1.67009">
        <ele>79</ele>
        <time>2021-04-05T07:41:47.000Z</time>
      </trkpt>
      <trkpt lat="47.16656" lon="-1.67028">
        <ele>79</ele>
        <time>2021-04-05T07:41:49.000Z</time>
      </trkpt>
      <trkpt lat="47.16653" lon="-1.67047">
        <ele>79</ele>
        <time>2021-04-05T07:41:51.000Z</time>
      </trkpt>
      <trkpt lat="47.16649" lon="-1.67065">
        <ele>79</ele>
        <time>2021-04-05T07:41:53.000Z</time>
      </trkpt>
      <trkpt lat="47.16644" lon="-1.67084">
        <ele>79</ele>
        <time>2021-04-05T07:41:55.000Z</time>
      </trkpt>
      <trkpt lat="47.16641" lon="-1.67102">
        <ele>78</ele>
        <time>2021-04-05T07:41:57.000Z</time>
      </trkpt>
      <trkpt lat="47.16637" lon="-1.6712">
        <ele>77</ele>
        <time>2021-04-05T07:41:59.000Z</time>
      </trkpt>
      <trkpt lat="47.16634" lon="-1.67138">
        <ele>77</ele>
        <time>2021-04-05T07:42:01.000Z</time>
      </trkpt>
      <trkpt lat="47.16631" lon="-1.67156">
        <ele>78</ele>
        <time>2021-04-05T07:42:03.000Z</time>
      </trkpt>
      <trkpt lat="47.16627" lon="-1.67174">
        <ele>78</ele>
        <time>2021-04-05T07:42:05.000Z</time>
      </trkpt>
      <trkpt lat="47.16623" lon="-1.67192">
        <ele>77</ele>
        <time>2021-04-05T07:42:07.000Z</time>
      </trkpt>
      <trkpt lat="47.1662" lon="-1.67209">
        <ele>77</ele>
        <time>2021-04-05T07:42:09.000Z</time>
      </trkpt>
      <trkpt lat="47.16616" lon="-1.67226">
        <ele>77</ele>
        <time>2021-04-05T07:42:11.000Z</time>
      </trkpt>
      <trkpt lat="47.16612" lon="-1.67243">
        <ele>77</ele>
        <time>2021-04-05T07:42:13.000Z</time>
      </trkpt>
      <trkpt lat="47.16612" lon="-1.67258">
        <ele>77</ele>
        <time>2021-04-05T07:42:15.000Z</time>
      </trkpt>
      <trkpt lat="47.16621" lon="-1.67267">
        <ele>77</ele>
        <time>2021-04-05T07:42:17.000Z</time>
      </trkpt>
      <trkpt lat="47.16632" lon="-1.6727">
        <ele>77</ele>
        <time>2021-04-05T07:42:19.000Z</time>
      </trkpt>
      <trkpt lat="47.16644" lon="-1.67273">
        <ele>78</ele>
        <time>2021-04-05T07:42:21.000Z</time>
      </trkpt>
      <trkpt lat="47.16655" lon="-1.67277">
        <ele>79</ele>
        <time>2021-04-05T07:42:23.000Z</time>
      </trkpt>
      <trkpt lat="47.16667" lon="-1.67281">
        <ele>79</ele>
        <time>2021-04-05T07:42:25.000Z</time>
      </trkpt>
      <trkpt lat="47.16678" lon="-1.67285">
        <ele>79</ele>
        <time>2021-04-05T07:42:27.000Z</time>
      </trkpt>
      <trkpt lat="47.16689" lon="-1.6729">
        <ele>79</ele>
        <time>2021-04-05T07:42:29.000Z</time>
      </trkpt>
      <trkpt lat="47.16701" lon="-1.67296">
        <ele>79</ele>
        <time>2021-04-05T07:42:31.000Z</time>
      </trkpt>
      <trkpt lat="47.16712" lon="-1.67301">
        <ele>80</ele>
        <time>2021-04-05T07:42:33.000Z</time>
      </trkpt>
      <trkpt lat="47.16724" lon="-1.67308">
        <ele>80</ele>
        <time>2021-04-05T07:42:35.000Z</time>
      </trkpt>
      <trkpt lat="47.16734" lon="-1.67316">
        <ele>80</ele>
        <time>2021-04-05T07:42:37.000Z</time>
      </trkpt>
      <trkpt lat="47.16745" lon="-1.67324">
        <ele>80</ele>
        <time>2021-04-05T07:42:39.000Z</time>
      </trkpt>
      <trkpt lat="47.16755" lon="-1.67332">
        <ele>80</ele>
        <time>2021-04-05T07:42:41.000Z</time>
      </trkpt>
      <trkpt lat="47.16765" lon="-1.67342">
        <ele>80</ele>
        <time>2021-04-05T07:42:43.000Z</time>
      </trkpt>
      <trkpt lat="47.16775" lon="-1.67352">
        <ele>81</ele>
        <time>2021-04-05T07:42:45.000Z</time>
      </trkpt>
      <trkpt lat="47.16784" lon="-1.67362">
        <ele>81</ele>
        <time>2021-04-05T07:42:47.000Z</time>
      </trkpt>
      <trkpt lat="47.16794" lon="-1.67372">
        <ele>81</ele>
        <time>2021-04-05T07:42:49.000Z</time>
      </trkpt>
      <trkpt lat="47.16803" lon="-1.67383">
        <ele>81</ele>
        <time>2021-04-05T07:42:51.000Z</time>
      </trkpt>
      <trkpt lat="47.16812" lon="-1.67393">
        <ele>81</ele>
        <time>2021-04-05T07:42:53.000Z</time>
      </trkpt>
      <trkpt lat="47.16822" lon="-1.67404">
        <ele>81</ele>
        <time>2021-04-05T07:42:55.000Z</time>
      </trkpt>
      <trkpt lat="47.16832" lon="-1.67415">
        <ele>81</ele>
        <time>2021-04-05T07:42:57.000Z</time>
      </trkpt>
      <trkpt lat="47.16842" lon="-1.67427">
        <ele>82</ele>
        <time>2021-04-05T07:42:59.000Z</time>
      </trkpt>
      <trkpt lat="47.16852" lon="-1.67438">
        <ele>82</ele>
        <time>2021-04-05T07:43:01.000Z</time>
      </trkpt>
      <trkpt lat="47.16861" lon="-1.67449">
        <ele>82</ele>
        <time>2021-04-05T07:43:03.000Z</time>
      </trkpt>
      <trkpt lat="47.16871" lon="-1.67461">
        <ele>81</ele>
        <time>2021-04-05T07:43:05.000Z</time>
      </trkpt>
      <trkpt lat="47.1688" lon="-1.67472">
        <ele>82</ele>
        <time>2021-04-05T07:43:07.000Z</time>
      </trkpt>
      <trkpt lat="47.1689" lon="-1.67482">
        <ele>81</ele>
        <time>2021-04-05T07:43:09.000Z</time>
      </trkpt>
      <trkpt lat="47.16899" lon="-1.67493">
        <ele>81</ele>
        <time>2021-04-05T07:43:11.000Z</time>
      </trkpt>
      <trkpt lat="47.16908" lon="-1.67504">
        <ele>81</ele>
        <time>2021-04-05T07:43:13.000Z</time>
      </trkpt>
      <trkpt lat="47.16918" lon="-1.67516">
        <ele>81</ele>
        <time>2021-04-05T07:43:15.000Z</time>
      </trkpt>
      <trkpt lat="47.16928" lon="-1.67528">
        <ele>81</ele>
        <time>2021-04-05T07:43:17.000Z</time>
      </trkpt>
      <trkpt lat="47.16937" lon="-1.67539">
        <ele>81</ele>
        <time>2021-04-05T07:43:19.000Z</time>
      </trkpt>
      <trkpt lat="47.16947" lon="-1.6755">
        <ele>82</ele>
        <time>2021-04-05T07:43:21.000Z</time>
      </trkpt>
      <trkpt lat="47.16955" lon="-1.67561">
        <ele>81</ele>
        <time>2021-04-05T07:43:23.000Z</time>
      </trkpt>
      <trkpt lat="47.16965" lon="-1.67571">
        <ele>81</ele>
        <time>2021-04-05T07:43:25.000Z</time>
      </trkpt>
      <trkpt lat="47.16975" lon="-1.67583">
        <ele>81</ele>
        <time>2021-04-05T07:43:27.000Z</time>
      </trkpt>
      <trkpt lat="47.16985" lon="-1.67594">
        <ele>81</ele>
        <time>2021-04-05T07:43:29.000Z</time>
      </trkpt>
      <trkpt lat="47.16994" lon="-1.67605">
        <ele>80</ele>
        <time>2021-04-05T07:43:31.000Z</time>
      </trkpt>
      <trkpt lat="47.17004" lon="-1.67616">
        <ele>80</ele>
        <time>2021-04-05T07:43:33.000Z</time>
      </trkpt>
      <trkpt lat="47.17013" lon="-1.67628">
        <ele>80</ele>
        <time>2021-04-05T07:43:35.000Z</time>
      </trkpt>
      <trkpt lat="47.1702" lon="-1.67644">
        <ele>80</ele>
        <time>2021-04-05T07:43:37.000Z</time>
      </trkpt>
      <trkpt lat="47.1703" lon="-1.67652">
        <ele>79</ele>
        <time>2021-04-05T07:43:39.000Z</time>
      </trkpt>
      <trkpt lat="47.1704" lon="-1.6766">
        <ele>79</ele>
        <time>2021-04-05T07:43:41.000Z</time>
      </trkpt>
      <trkpt lat="47.1705" lon="-1.67672">
        <ele>80</ele>
        <time>2021-04-05T07:43:43.000Z</time>
      </trkpt>
      <trkpt lat="47.1706" lon="-1.67683">
        <ele>80</ele>
        <time>2021-04-05T07:43:45.000Z</time>
      </trkpt>
      <trkpt lat="47.1707" lon="-1.67694">
        <ele>80</ele>
        <time>2021-04-05T07:43:47.000Z</time>
      </trkpt>
      <trkpt lat="47.17079" lon="-1.67706">
        <ele>80</ele>
        <time>2021-04-05T07:43:49.000Z</time>
      </trkpt>
      <trkpt lat="47.17089" lon="-1.67717">
        <ele>80</ele>
        <time>2021-04-05T07:43:51.000Z</time>
      </trkpt>
      <trkpt lat="47.17099" lon="-1.67728">
        <ele>79</ele>
        <time>2021-04-05T07:43:53.000Z</time>
      </trkpt>
      <trkpt lat="47.17108" lon="-1.67739">
        <ele>80</ele>
        <time>2021-04-05T07:43:55.000Z</time>
      </trkpt>
      <trkpt lat="47.17118" lon="-1.6775">
        <ele>80</ele>
        <time>2021-04-05T07:43:57.000Z</time>
      </trkpt>
      <trkpt lat="47.17128" lon="-1.67761">
        <ele>80</ele>
        <time>2021-04-05T07:43:59.000Z</time>
      </trkpt>
      <trkpt lat="47.17137" lon="-1.67772">
        <ele>81</ele>
        <time>2021-04-05T07:44:01.000Z</time>
      </trkpt>
      <trkpt lat="47.17147" lon="-1.67783">
        <ele>81</ele>
        <time>2021-04-05T07:44:03.000Z</time>
      </trkpt>
      <trkpt lat="47.17156" lon="-1.67794">
        <ele>81</ele>
        <time>2021-04-05T07:44:05.000Z</time>
      </trkpt>
      <trkpt lat="47.17165" lon="-1.67804">
        <ele>81</ele>
        <time>2021-04-05T07:44:07.000Z</time>
      </trkpt>
      <trkpt lat="47.17175" lon="-1.67815">
        <ele>81</ele>
        <time>2021-04-05T07:44:09.000Z</time>
      </trkpt>
      <trkpt lat="47.17184" lon="-1.67827">
        <ele>81</ele>
        <time>2021-04-05T07:44:11.000Z</time>
      </trkpt>
      <trkpt lat="47.17194" lon="-1.67838">
        <ele>80</ele>
        <time>2021-04-05T07:44:13.000Z</time>
      </trkpt>
      <trkpt lat="47.17204" lon="-1.6785">
        <ele>81</ele>
        <time>2021-04-05T07:44:15.000Z</time>
      </trkpt>
      <trkpt lat="47.17213" lon="-1.67861">
        <ele>81</ele>
        <time>2021-04-05T07:44:17.000Z</time>
      </trkpt>
      <trkpt lat="47.17223" lon="-1.67871">
        <ele>82</ele>
        <time>2021-04-05T07:44:19.000Z</time>
      </trkpt>
      <trkpt lat="47.17232" lon="-1.67882">
        <ele>82</ele>
        <time>2021-04-05T07:44:21.000Z</time>
      </trkpt>
      <trkpt lat="47.17242" lon="-1.67894">
        <ele>82</ele>
        <time>2021-04-05T07:44:23.000Z</time>
      </trkpt>
      <trkpt lat="47.17252" lon="-1.67905">
        <ele>82</ele>
        <time>2021-04-05T07:44:25.000Z</time>
      </trkpt>
      <trkpt lat="47.17261" lon="-1.67917">
        <ele>82</ele>
        <time>2021-04-05T07:44:27.000Z</time>
      </trkpt>
      <trkpt lat="47.17271" lon="-1.67928">
        <ele>82</ele>
        <time>2021-04-05T07:44:29.000Z</time>
      </trkpt>
      <trkpt lat="47.17281" lon="-1.67939">
        <ele>82</ele>
        <time>2021-04-05T07:44:31.000Z</time>
      </trkpt>
      <trkpt lat="47.1729" lon="-1.6795">
        <ele>83</ele>
        <time>2021-04-05T07:44:33.000Z</time>
      </trkpt>
      <trkpt lat="47.17298" lon="-1.67961">
        <ele>83</ele>
        <time>2021-04-05T07:44:35.000Z</time>
      </trkpt>
      <trkpt lat="47.17307" lon="-1.67972">
        <ele>83</ele>
        <time>2021-04-05T07:44:37.000Z</time>
      </trkpt>
      <trkpt lat="47.17316" lon="-1.67983">
        <ele>84</ele>
        <time>2021-04-05T07:44:39.000Z</time>
      </trkpt>
      <trkpt lat="47.17324" lon="-1.67996">
        <ele>84</ele>
        <time>2021-04-05T07:44:41.000Z</time>
      </trkpt>
      <trkpt lat="47.1733" lon="-1.6801">
        <ele>83</ele>
        <time>2021-04-05T07:44:43.000Z</time>
      </trkpt>
      <trkpt lat="47.17336" lon="-1.68026">
        <ele>82</ele>
        <time>2021-04-05T07:44:45.000Z</time>
      </trkpt>
      <trkpt lat="47.1734" lon="-1.68043">
        <ele>82</ele>
        <time>2021-04-05T07:44:47.000Z</time>
      </trkpt>
      <trkpt lat="47.17345" lon="-1.6806">
        <ele>81</ele>
        <time>2021-04-05T07:44:49.000Z</time>
      </trkpt>
      <trkpt lat="47.17348" lon="-1.68078">
        <ele>81</ele>
        <time>2021-04-05T07:44:51.000Z</time>
      </trkpt>
      <trkpt lat="47.17352" lon="-1.68095">
        <ele>81</ele>
        <time>2021-04-05T07:44:53.000Z</time>
      </trkpt>
      <trkpt lat="47.17355" lon="-1.68112">
        <ele>81</ele>
        <time>2021-04-05T07:44:55.000Z</time>
      </trkpt>
      <trkpt lat="47.17358" lon="-1.6813">
        <ele>80</ele>
        <time>2021-04-05T07:44:57.000Z</time>
      </trkpt>
      <trkpt lat="47.1736" lon="-1.68148">
        <ele>81</ele>
        <time>2021-04-05T07:44:59.000Z</time>
      </trkpt>
      <trkpt lat="47.1736" lon="-1.68165">
        <ele>80</ele>
        <time>2021-04-05T07:45:01.000Z</time>
      </trkpt>
      <trkpt lat="47.17359" lon="-1.68183">
        <ele>80</ele>
        <time>2021-04-05T07:45:03.000Z</time>
      </trkpt>
      <trkpt lat="47.17357" lon="-1.68201">
        <ele>81</ele>
        <time>2021-04-05T07:45:05.000Z</time>
      </trkpt>
      <trkpt lat="47.17355" lon="-1.68217">
        <ele>81</ele>
        <time>2021-04-05T07:45:07.000Z</time>
      </trkpt>
      <trkpt lat="47.17351" lon="-1.68233">
        <ele>81</ele>
        <time>2021-04-05T07:45:09.000Z</time>
      </trkpt>
      <trkpt lat="47.17348" lon="-1.68249">
        <ele>82</ele>
        <time>2021-04-05T07:45:11.000Z</time>
      </trkpt>
      <trkpt lat="47.17345" lon="-1.68265">
        <ele>82</ele>
        <time>2021-04-05T07:45:13.000Z</time>
      </trkpt>
      <trkpt lat="47.17342" lon="-1.6828">
        <ele>82</ele>
        <time>2021-04-05T07:45:15.000Z</time>
      </trkpt>
      <trkpt lat="47.17339" lon="-1.68294">
        <ele>83</ele>
        <time>2021-04-05T07:45:17.000Z</time>
      </trkpt>
      <trkpt lat="47.17336" lon="-1.68309">
        <ele>83</ele>
        <time>2021-04-05T07:45:19.000Z</time>
      </trkpt>
      <trkpt lat="47.17332" lon="-1.68324">
        <ele>84</ele>
        <time>2021-04-05T07:45:21.000Z</time>
      </trkpt>
      <trkpt lat="47.17329" lon="-1.68338">
        <ele>84</ele>
        <time>2021-04-05T07:45:23.000Z</time>
      </trkpt>
      <trkpt lat="47.17328" lon="-1.68352">
        <ele>84</ele>
        <time>2021-04-05T07:45:25.000Z</time>
      </trkpt>
      <trkpt lat="47.17332" lon="-1.68365">
        <ele>84</ele>
        <time>2021-04-05T07:45:27.000Z</time>
      </trkpt>
      <trkpt lat="47.1734" lon="-1.68374">
        <ele>84</ele>
        <time>2021-04-05T07:45:29.000Z</time>
      </trkpt>
      <trkpt lat="47.1735" lon="-1.68378">
        <ele>84</ele>
        <time>2021-04-05T07:45:31.000Z</time>
      </trkpt>
      <trkpt lat="47.17361" lon="-1.68378">
        <ele>85</ele>
        <time>2021-04-05T07:45:33.000Z</time>
      </trkpt>
      <trkpt lat="47.17371" lon="-1.68381">
        <ele>86</ele>
        <time>2021-04-05T07:45:35.000Z</time>
      </trkpt>
      <trkpt lat="47.17377" lon="-1.68393">
        <ele>86</ele>
        <time>2021-04-05T07:45:37.000Z</time>
      </trkpt>
      <trkpt lat="47.17378" lon="-1.68408">
        <ele>87</ele>
        <time>2021-04-05T07:45:39.000Z</time>
      </trkpt>
      <trkpt lat="47.17373" lon="-1.68421">
        <ele>87</ele>
        <time>2021-04-05T07:45:41.000Z</time>
      </trkpt>
      <trkpt lat="47.17363" lon="-1.68429">
        <ele>87</ele>
        <time>2021-04-05T07:45:43.000Z</time>
      </trkpt>
      <trkpt lat="47.17357" lon="-1.68442">
        <ele>86</ele>
        <time>2021-04-05T07:45:45.000Z</time>
      </trkpt>
      <trkpt lat="47.17361" lon="-1.68459">
        <ele>86</ele>
        <time>2021-04-05T07:45:47.000Z</time>
      </trkpt>
      <trkpt lat="47.1737" lon="-1.68473">
        <ele>85</ele>
        <time>2021-04-05T07:45:49.000Z</time>
      </trkpt>
      <trkpt lat="47.1738" lon="-1.68486">
        <ele>84</ele>
        <time>2021-04-05T07:45:51.000Z</time>
      </trkpt>
      <trkpt lat="47.17389" lon="-1.68499">
        <ele>84</ele>
        <time>2021-04-05T07:45:53.000Z</time>
      </trkpt>
      <trkpt lat="47.17399" lon="-1.68513">
        <ele>83</ele>
        <time>2021-04-05T07:45:55.000Z</time>
      </trkpt>
      <trkpt lat="47.17408" lon="-1.68529">
        <ele>82</ele>
        <time>2021-04-05T07:45:57.000Z</time>
      </trkpt>
      <trkpt lat="47.17418" lon="-1.68546">
        <ele>82</ele>
        <time>2021-04-05T07:45:59.000Z</time>
      </trkpt>
      <trkpt lat="47.17427" lon="-1.68562">
        <ele>82</ele>
        <time>2021-04-05T07:46:01.000Z</time>
      </trkpt>
      <trkpt lat="47.17436" lon="-1.68579">
        <ele>82</ele>
        <time>2021-04-05T07:46:03.000Z</time>
      </trkpt>
      <trkpt lat="47.17443" lon="-1.68597">
        <ele>82</ele>
        <time>2021-04-05T07:46:05.000Z</time>
      </trkpt>
      <trkpt lat="47.1745" lon="-1.68614">
        <ele>81</ele>
        <time>2021-04-05T07:46:07.000Z</time>
      </trkpt>
      <trkpt lat="47.17457" lon="-1.68631">
        <ele>81</ele>
        <time>2021-04-05T07:46:09.000Z</time>
      </trkpt>
      <trkpt lat="47.17462" lon="-1.68648">
        <ele>81</ele>
        <time>2021-04-05T07:46:11.000Z</time>
      </trkpt>
      <trkpt lat="47.17468" lon="-1.68665">
        <ele>81</ele>
        <time>2021-04-05T07:46:13.000Z</time>
      </trkpt>
      <trkpt lat="47.17473" lon="-1.68683">
        <ele>81</ele>
        <time>2021-04-05T07:46:15.000Z</time>
      </trkpt>
      <trkpt lat="47.17478" lon="-1.687">
        <ele>81</ele>
        <time>2021-04-05T07:46:17.000Z</time>
      </trkpt>
      <trkpt lat="47.17482" lon="-1.68718">
        <ele>81</ele>
        <time>2021-04-05T07:46:19.000Z</time>
      </trkpt>
      <trkpt lat="47.17486" lon="-1.68736">
        <ele>81</ele>
        <time>2021-04-05T07:46:21.000Z</time>
      </trkpt>
      <trkpt lat="47.1749" lon="-1.68754">
        <ele>81</ele>
        <time>2021-04-05T07:46:23.000Z</time>
      </trkpt>
      <trkpt lat="47.17494" lon="-1.68772">
        <ele>82</ele>
        <time>2021-04-05T07:46:25.000Z</time>
      </trkpt>
      <trkpt lat="47.17497" lon="-1.68789">
        <ele>82</ele>
        <time>2021-04-05T07:46:27.000Z</time>
      </trkpt>
      <trkpt lat="47.17501" lon="-1.68807">
        <ele>82</ele>
        <time>2021-04-05T07:46:29.000Z</time>
      </trkpt>
      <trkpt lat="47.17504" lon="-1.68824">
        <ele>81</ele>
        <time>2021-04-05T07:46:31.000Z</time>
      </trkpt>
      <trkpt lat="47.17508" lon="-1.68842">
        <ele>82</ele>
        <time>2021-04-05T07:46:33.000Z</time>
      </trkpt>
      <trkpt lat="47.1751" lon="-1.68859">
        <ele>82</ele>
        <time>2021-04-05T07:46:35.000Z</time>
      </trkpt>
      <trkpt lat="47.1751" lon="-1.68879">
        <ele>81</ele>
        <time>2021-04-05T07:46:37.000Z</time>
      </trkpt>
      <trkpt lat="47.17508" lon="-1.68898">
        <ele>81</ele>
        <time>2021-04-05T07:46:39.000Z</time>
      </trkpt>
      <trkpt lat="47.17505" lon="-1.68917">
        <ele>80</ele>
        <time>2021-04-05T07:46:41.000Z</time>
      </trkpt>
      <trkpt lat="47.17504" lon="-1.68936">
        <ele>79</ele>
        <time>2021-04-05T07:46:43.000Z</time>
      </trkpt>
      <trkpt lat="47.17504" lon="-1.68955">
        <ele>79</ele>
        <time>2021-04-05T07:46:45.000Z</time>
      </trkpt>
      <trkpt lat="47.17505" lon="-1.68975">
        <ele>79</ele>
        <time>2021-04-05T07:46:47.000Z</time>
      </trkpt>
      <trkpt lat="47.17505" lon="-1.68994">
        <ele>78</ele>
        <time>2021-04-05T07:46:49.000Z</time>
      </trkpt>
      <trkpt lat="47.17506" lon="-1.69012">
        <ele>78</ele>
        <time>2021-04-05T07:46:51.000Z</time>
      </trkpt>
      <trkpt lat="47.17507" lon="-1.69031">
        <ele>79</ele>
        <time>2021-04-05T07:46:53.000Z</time>
      </trkpt>
      <trkpt lat="47.17508" lon="-1.6905">
        <ele>78</ele>
        <time>2021-04-05T07:46:55.000Z</time>
      </trkpt>
      <trkpt lat="47.17508" lon="-1.69067">
        <ele>78</ele>
        <time>2021-04-05T07:46:57.000Z</time>
      </trkpt>
      <trkpt lat="47.17507" lon="-1.69086">
        <ele>78</ele>
        <time>2021-04-05T07:46:59.000Z</time>
      </trkpt>
      <trkpt lat="47.17507" lon="-1.69104">
        <ele>78</ele>
        <time>2021-04-05T07:47:01.000Z</time>
      </trkpt>
      <trkpt lat="47.17506" lon="-1.69122">
        <ele>78</ele>
        <time>2021-04-05T07:47:03.000Z</time>
      </trkpt>
      <trkpt lat="47.17506" lon="-1.6914">
        <ele>78</ele>
        <time>2021-04-05T07:47:05.000Z</time>
      </trkpt>
      <trkpt lat="47.17505" lon="-1.69158">
        <ele>78</ele>
        <time>2021-04-05T07:47:07.000Z</time>
      </trkpt>
      <trkpt lat="47.17504" lon="-1.69176">
        <ele>78</ele>
        <time>2021-04-05T07:47:09.000Z</time>
      </trkpt>
      <trkpt lat="47.17503" lon="-1.69194">
        <ele>78</ele>
        <time>2021-04-05T07:47:11.000Z</time>
      </trkpt>
      <trkpt lat="47.17502" lon="-1.69212">
        <ele>78</ele>
        <time>2021-04-05T07:47:13.000Z</time>
      </trkpt>
      <trkpt lat="47.17502" lon="-1.6923">
        <ele>78</ele>
        <time>2021-04-05T07:47:15.000Z</time>
      </trkpt>
      <trkpt lat="47.17501" lon="-1.69248">
        <ele>78</ele>
        <time>2021-04-05T07:47:17.000Z</time>
      </trkpt>
      <trkpt lat="47.175" lon="-1.69266">
        <ele>78</ele>
        <time>2021-04-05T07:47:19.000Z</time>
      </trkpt>
      <trkpt lat="47.17499" lon="-1.69284">
        <ele>78</ele>
        <time>2021-04-05T07:47:21.000Z</time>
      </trkpt>
      <trkpt lat="47.17499" lon="-1.69302">
        <ele>78</ele>
        <time>2021-04-05T07:47:23.000Z</time>
      </trkpt>
      <trkpt lat="47.17498" lon="-1.6932">
        <ele>78</ele>
        <time>2021-04-05T07:47:25.000Z</time>
      </trkpt>
      <trkpt lat="47.17497" lon="-1.69338">
        <ele>78</ele>
        <time>2021-04-05T07:47:27.000Z</time>
      </trkpt>
      <trkpt lat="47.17497" lon="-1.69357">
        <ele>78</ele>
        <time>2021-04-05T07:47:29.000Z</time>
      </trkpt>
      <trkpt lat="47.17497" lon="-1.69375">
        <ele>78</ele>
        <time>2021-04-05T07:47:31.000Z</time>
      </trkpt>
      <trkpt lat="47.17497" lon="-1.69393">
        <ele>78</ele>
        <time>2021-04-05T07:47:33.000Z</time>
      </trkpt>
      <trkpt lat="47.17497" lon="-1.69411">
        <ele>78</ele>
        <time>2021-04-05T07:47:35.000Z</time>
      </trkpt>
      <trkpt lat="47.17497" lon="-1.69429">
        <ele>78</ele>
        <time>2021-04-05T07:47:37.000Z</time>
      </trkpt>
      <trkpt lat="47.17497" lon="-1.69448">
        <ele>78</ele>
        <time>2021-04-05T07:47:39.000Z</time>
      </trkpt>
      <trkpt lat="47.17498" lon="-1.69466">
        <ele>77</ele>
        <time>2021-04-05T07:47:41.000Z</time>
      </trkpt>
      <trkpt lat="47.17498" lon="-1.69485">
        <ele>77</ele>
        <time>2021-04-05T07:47:43.000Z</time>
      </trkpt>
      <trkpt lat="47.17499" lon="-1.69503">
        <ele>78</ele>
        <time>2021-04-05T07:47:45.000Z</time>
      </trkpt>
      <trkpt lat="47.175" lon="-1.69521">
        <ele>78</ele>
        <time>2021-04-05T07:47:47.000Z</time>
      </trkpt>
      <trkpt lat="47.17501" lon="-1.69539">
        <ele>78</ele>
        <time>2021-04-05T07:47:49.000Z</time>
      </trkpt>
      <trkpt lat="47.17502" lon="-1.69558">
        <ele>78</ele>
        <time>2021-04-05T07:47:51.000Z</time>
      </trkpt>
      <trkpt lat="47.17503" lon="-1.69576">
        <ele>78</ele>
        <time>2021-04-05T07:47:53.000Z</time>
      </trkpt>
      <trkpt lat="47.17504" lon="-1.69594">
        <ele>79</ele>
        <time>2021-04-05T07:47:55.000Z</time>
      </trkpt>
      <trkpt lat="47.17506" lon="-1.69612">
        <ele>79</ele>
        <time>2021-04-05T07:47:57.000Z</time>
      </trkpt>
      <trkpt lat="47.17507" lon="-1.69631">
        <ele>79</ele>
        <time>2021-04-05T07:47:59.000Z</time>
      </trkpt>
      <trkpt lat="47.17509" lon="-1.69649">
        <ele>79</ele>
        <time>2021-04-05T07:48:01.000Z</time>
      </trkpt>
      <trkpt lat="47.1751" lon="-1.69667">
        <ele>79</ele>
        <time>2021-04-05T07:48:03.000Z</time>
      </trkpt>
      <trkpt lat="47.17512" lon="-1.69686">
        <ele>79</ele>
        <time>2021-04-05T07:48:05.000Z</time>
      </trkpt>
      <trkpt lat="47.17513" lon="-1.69703">
        <ele>79</ele>
        <time>2021-04-05T07:48:07.000Z</time>
      </trkpt>
      <trkpt lat="47.17515" lon="-1.6972">
        <ele>79</ele>
        <time>2021-04-05T07:48:09.000Z</time>
      </trkpt>
      <trkpt lat="47.17517" lon="-1.69738">
        <ele>79</ele>
        <time>2021-04-05T07:48:11.000Z</time>
      </trkpt>
      <trkpt lat="47.17519" lon="-1.69756">
        <ele>79</ele>
        <time>2021-04-05T07:48:13.000Z</time>
      </trkpt>
      <trkpt lat="47.1752" lon="-1.69773">
        <ele>79</ele>
        <time>2021-04-05T07:48:15.000Z</time>
      </trkpt>
      <trkpt lat="47.17522" lon="-1.69791">
        <ele>79</ele>
        <time>2021-04-05T07:48:17.000Z</time>
      </trkpt>
      <trkpt lat="47.17524" lon="-1.69809">
        <ele>79</ele>
        <time>2021-04-05T07:48:19.000Z</time>
      </trkpt>
      <trkpt lat="47.17526" lon="-1.69827">
        <ele>79</ele>
        <time>2021-04-05T07:48:21.000Z</time>
      </trkpt>
      <trkpt lat="47.17528" lon="-1.69845">
        <ele>78</ele>
        <time>2021-04-05T07:48:23.000Z</time>
      </trkpt>
      <trkpt lat="47.1753" lon="-1.69863">
        <ele>79</ele>
        <time>2021-04-05T07:48:25.000Z</time>
      </trkpt>
      <trkpt lat="47.17533" lon="-1.69881">
        <ele>79</ele>
        <time>2021-04-05T07:48:27.000Z</time>
      </trkpt>
      <trkpt lat="47.17536" lon="-1.69899">
        <ele>79</ele>
        <time>2021-04-05T07:48:29.000Z</time>
      </trkpt>
      <trkpt lat="47.17538" lon="-1.69915">
        <ele>79</ele>
        <time>2021-04-05T07:48:31.000Z</time>
      </trkpt>
      <trkpt lat="47.17542" lon="-1.69933">
        <ele>79</ele>
        <time>2021-04-05T07:48:33.000Z</time>
      </trkpt>
      <trkpt lat="47.17545" lon="-1.69951">
        <ele>79</ele>
        <time>2021-04-05T07:48:35.000Z</time>
      </trkpt>
      <trkpt lat="47.17549" lon="-1.69969">
        <ele>79</ele>
        <time>2021-04-05T07:48:37.000Z</time>
      </trkpt>
      <trkpt lat="47.17552" lon="-1.69986">
        <ele>79</ele>
        <time>2021-04-05T07:48:39.000Z</time>
      </trkpt>
      <trkpt lat="47.17556" lon="-1.70004">
        <ele>79</ele>
        <time>2021-04-05T07:48:41.000Z</time>
      </trkpt>
      <trkpt lat="47.17559" lon="-1.70021">
        <ele>79</ele>
        <time>2021-04-05T07:48:43.000Z</time>
      </trkpt>
      <trkpt lat="47.17563" lon="-1.70039">
        <ele>79</ele>
        <time>2021-04-05T07:48:45.000Z</time>
      </trkpt>
      <trkpt lat="47.17567" lon="-1.70056">
        <ele>78</ele>
        <time>2021-04-05T07:48:47.000Z</time>
      </trkpt>
      <trkpt lat="47.17571" lon="-1.70073">
        <ele>78</ele>
        <time>2021-04-05T07:48:49.000Z</time>
      </trkpt>
      <trkpt lat="47.17574" lon="-1.70091">
        <ele>78</ele>
        <time>2021-04-05T07:48:51.000Z</time>
      </trkpt>
      <trkpt lat="47.17578" lon="-1.70109">
        <ele>79</ele>
        <time>2021-04-05T07:48:53.000Z</time>
      </trkpt>
      <trkpt lat="47.17581" lon="-1.70126">
        <ele>79</ele>
        <time>2021-04-05T07:48:55.000Z</time>
      </trkpt>
      <trkpt lat="47.17585" lon="-1.70144">
        <ele>78</ele>
        <time>2021-04-05T07:48:57.000Z</time>
      </trkpt>
      <trkpt lat="47.17588" lon="-1.70161">
        <ele>78</ele>
        <time>2021-04-05T07:48:59.000Z</time>
      </trkpt>
      <trkpt lat="47.17591" lon="-1.70179">
        <ele>78</ele>
        <time>2021-04-05T07:49:01.000Z</time>
      </trkpt>
      <trkpt lat="47.17594" lon="-1.70197">
        <ele>78</ele>
        <time>2021-04-05T07:49:03.000Z</time>
      </trkpt>
      <trkpt lat="47.17597" lon="-1.70215">
        <ele>78</ele>
        <time>2021-04-05T07:49:05.000Z</time>
      </trkpt>
      <trkpt lat="47.17597" lon="-1.70233">
        <ele>78</ele>
        <time>2021-04-05T07:49:07.000Z</time>
      </trkpt>
      <trkpt lat="47.17597" lon="-1.70251">
        <ele>78</ele>
        <time>2021-04-05T07:49:09.000Z</time>
      </trkpt>
      <trkpt lat="47.17596" lon="-1.7027">
        <ele>78</ele>
        <time>2021-04-05T07:49:11.000Z</time>
      </trkpt>
      <trkpt lat="47.17593" lon="-1.70287">
        <ele>78</ele>
        <time>2021-04-05T07:49:13.000Z</time>
      </trkpt>
      <trkpt lat="47.17588" lon="-1.70303">
        <ele>78</ele>
        <time>2021-04-05T07:49:15.000Z</time>
      </trkpt>
      <trkpt lat="47.17582" lon="-1.70318">
        <ele>78</ele>
        <time>2021-04-05T07:49:17.000Z</time>
      </trkpt>
      <trkpt lat="47.17577" lon="-1.70333">
        <ele>79</ele>
        <time>2021-04-05T07:49:19.000Z</time>
      </trkpt>
      <trkpt lat="47.17572" lon="-1.70349">
        <ele>79</ele>
        <time>2021-04-05T07:49:21.000Z</time>
      </trkpt>
      <trkpt lat="47.1757" lon="-1.70365">
        <ele>80</ele>
        <time>2021-04-05T07:49:23.000Z</time>
      </trkpt>
      <trkpt lat="47.17575" lon="-1.70379">
        <ele>80</ele>
        <time>2021-04-05T07:49:25.000Z</time>
      </trkpt>
      <trkpt lat="47.17585" lon="-1.70385">
        <ele>80</ele>
        <time>2021-04-05T07:49:27.000Z</time>
      </trkpt>
      <trkpt lat="47.17597" lon="-1.70385">
        <ele>81</ele>
        <time>2021-04-05T07:49:29.000Z</time>
      </trkpt>
      <trkpt lat="47.17608" lon="-1.70388">
        <ele>81</ele>
        <time>2021-04-05T07:49:31.000Z</time>
      </trkpt>
      <trkpt lat="47.17616" lon="-1.704">
        <ele>81</ele>
        <time>2021-04-05T07:49:33.000Z</time>
      </trkpt>
      <trkpt lat="47.17619" lon="-1.70415">
        <ele>81</ele>
        <time>2021-04-05T07:49:35.000Z</time>
      </trkpt>
      <trkpt lat="47.17617" lon="-1.70431">
        <ele>81</ele>
        <time>2021-04-05T07:49:37.000Z</time>
      </trkpt>
      <trkpt lat="47.17613" lon="-1.70447">
        <ele>80</ele>
        <time>2021-04-05T07:49:39.000Z</time>
      </trkpt>
      <trkpt lat="47.17612" lon="-1.70463">
        <ele>80</ele>
        <time>2021-04-05T07:49:41.000Z</time>
      </trkpt>
      <trkpt lat="47.17619" lon="-1.70479">
        <ele>80</ele>
        <time>2021-04-05T07:49:43.000Z</time>
      </trkpt>
      <trkpt lat="47.17627" lon="-1.70493">
        <ele>79</ele>
        <time>2021-04-05T07:49:45.000Z</time>
      </trkpt>
      <trkpt lat="47.17637" lon="-1.70506">
        <ele>79</ele>
        <time>2021-04-05T07:49:47.000Z</time>
      </trkpt>
      <trkpt lat="47.17648" lon="-1.70518">
        <ele>78</ele>
        <time>2021-04-05T07:49:49.000Z</time>
      </trkpt>
      <trkpt lat="47.17659" lon="-1.70529">
        <ele>77</ele>
        <time>2021-04-05T07:49:51.000Z</time>
      </trkpt>
      <trkpt lat="47.17671" lon="-1.7054">
        <ele>77</ele>
        <time>2021-04-05T07:49:53.000Z</time>
      </trkpt>
      <trkpt lat="47.17682" lon="-1.7055">
        <ele>77</ele>
        <time>2021-04-05T07:49:55.000Z</time>
      </trkpt>
      <trkpt lat="47.17694" lon="-1.70561">
        <ele>77</ele>
        <time>2021-04-05T07:49:57.000Z</time>
      </trkpt>
      <trkpt lat="47.17704" lon="-1.70571">
        <ele>77</ele>
        <time>2021-04-05T07:49:59.000Z</time>
      </trkpt>
      <trkpt lat="47.17713" lon="-1.70583">
        <ele>77</ele>
        <time>2021-04-05T07:50:01.000Z</time>
      </trkpt>
      <trkpt lat="47.17722" lon="-1.70596">
        <ele>77</ele>
        <time>2021-04-05T07:50:03.000Z</time>
      </trkpt>
      <trkpt lat="47.1773" lon="-1.7061">
        <ele>77</ele>
        <time>2021-04-05T07:50:05.000Z</time>
      </trkpt>
      <trkpt lat="47.17736" lon="-1.70626">
        <ele>77</ele>
        <time>2021-04-05T07:50:07.000Z</time>
      </trkpt>
      <trkpt lat="47.17742" lon="-1.70642">
        <ele>77</ele>
        <time>2021-04-05T07:50:09.000Z</time>
      </trkpt>
      <trkpt lat="47.17748" lon="-1.70658">
        <ele>77</ele>
        <time>2021-04-05T07:50:11.000Z</time>
      </trkpt>
      <trkpt lat="47.17753" lon="-1.70674">
        <ele>77</ele>
        <time>2021-04-05T07:50:13.000Z</time>
      </trkpt>
      <trkpt lat="47.17758" lon="-1.7069">
        <ele>77</ele>
        <time>2021-04-05T07:50:15.000Z</time>
      </trkpt>
      <trkpt lat="47.17764" lon="-1.70706">
        <ele>77</ele>
        <time>2021-04-05T07:50:17.000Z</time>
      </trkpt>
      <trkpt lat="47.17769" lon="-1.70722">
        <ele>77</ele>
        <time>2021-04-05T07:50:19.000Z</time>
      </trkpt>
      <trkpt lat="47.17774" lon="-1.70737">
        <ele>77</ele>
        <time>2021-04-05T07:50:21.000Z</time>
      </trkpt>
      <trkpt lat="47.17779" lon="-1.70752">
        <ele>77</ele>
        <time>2021-04-05T07:50:23.000Z</time>
      </trkpt>
      <trkpt lat="47.17785" lon="-1.70768">
        <ele>77</ele>
        <time>2021-04-05T07:50:25.000Z</time>
      </trkpt>
      <trkpt lat="47.1779" lon="-1.70783">
        <ele>77</ele>
        <time>2021-04-05T07:50:27.000Z</time>
      </trkpt>
      <trkpt lat="47.17795" lon="-1.70799">
        <ele>77</ele>
        <time>2021-04-05T07:50:29.000Z</time>
      </trkpt>
      <trkpt lat="47.178" lon="-1.70814">
        <ele>78</ele>
        <time>2021-04-05T07:50:31.000Z</time>
      </trkpt>
      <trkpt lat="47.17806" lon="-1.7083">
        <ele>78</ele>
        <time>2021-04-05T07:50:33.000Z</time>
      </trkpt>
      <trkpt lat="47.17811" lon="-1.70846">
        <ele>78</ele>
        <time>2021-04-05T07:50:35.000Z</time>
      </trkpt>
      <trkpt lat="47.17816" lon="-1.70861">
        <ele>78</ele>
        <time>2021-04-05T07:50:37.000Z</time>
      </trkpt>
      <trkpt lat="47.17821" lon="-1.70877">
        <ele>77</ele>
        <time>2021-04-05T07:50:39.000Z</time>
      </trkpt>
      <trkpt lat="47.17826" lon="-1.70892">
        <ele>77</ele>
        <time>2021-04-05T07:50:41.000Z</time>
      </trkpt>
      <trkpt lat="47.17832" lon="-1.70907">
        <ele>77</ele>
        <time>2021-04-05T07:50:43.000Z</time>
      </trkpt>
      <trkpt lat="47.17837" lon="-1.70923">
        <ele>77</ele>
        <time>2021-04-05T07:50:45.000Z</time>
      </trkpt>
      <trkpt lat="47.17842" lon="-1.70938">
        <ele>78</ele>
        <time>2021-04-05T07:50:47.000Z</time>
      </trkpt>
      <trkpt lat="47.17848" lon="-1.70953">
        <ele>78</ele>
        <time>2021-04-05T07:50:49.000Z</time>
      </trkpt>
      <trkpt lat="47.17854" lon="-1.70967">
        <ele>78</ele>
        <time>2021-04-05T07:50:51.000Z</time>
      </trkpt>
      <trkpt lat="47.17861" lon="-1.70981">
        <ele>78</ele>
        <time>2021-04-05T07:50:53.000Z</time>
      </trkpt>
      <trkpt lat="47.17868" lon="-1.70994">
        <ele>78</ele>
        <time>2021-04-05T07:50:55.000Z</time>
      </trkpt>
      <trkpt lat="47.17876" lon="-1.71007">
        <ele>78</ele>
        <time>2021-04-05T07:50:57.000Z</time>
      </trkpt>
      <trkpt lat="47.17881" lon="-1.71022">
        <ele>78</ele>
        <time>2021-04-05T07:50:59.000Z</time>
      </trkpt>
      <trkpt lat="47.17886" lon="-1.71038">
        <ele>77</ele>
        <time>2021-04-05T07:51:01.000Z</time>
      </trkpt>
      <trkpt lat="47.17891" lon="-1.71054">
        <ele>78</ele>
        <time>2021-04-05T07:51:03.000Z</time>
      </trkpt>
      <trkpt lat="47.17897" lon="-1.7107">
        <ele>78</ele>
        <time>2021-04-05T07:51:05.000Z</time>
      </trkpt>
      <trkpt lat="47.17902" lon="-1.71086">
        <ele>78</ele>
        <time>2021-04-05T07:51:07.000Z</time>
      </trkpt>
      <trkpt lat="47.17907" lon="-1.71101">
        <ele>77</ele>
        <time>2021-04-05T07:51:09.000Z</time>
      </trkpt>
      <trkpt lat="47.17912" lon="-1.71118">
        <ele>78</ele>
        <time>2021-04-05T07:51:11.000Z</time>
      </trkpt>
      <trkpt lat="47.17917" lon="-1.71135">
        <ele>77</ele>
        <time>2021-04-05T07:51:13.000Z</time>
      </trkpt>
      <trkpt lat="47.1792" lon="-1.71152">
        <ele>78</ele>
        <time>2021-04-05T07:51:15.000Z</time>
      </trkpt>
      <trkpt lat="47.17923" lon="-1.71169">
        <ele>77</ele>
        <time>2021-04-05T07:51:17.000Z</time>
      </trkpt>
      <trkpt lat="47.17926" lon="-1.71186">
        <ele>77</ele>
        <time>2021-04-05T07:51:19.000Z</time>
      </trkpt>
      <trkpt lat="47.17929" lon="-1.71204">
        <ele>77</ele>
        <time>2021-04-05T07:51:21.000Z</time>
      </trkpt>
      <trkpt lat="47.17934" lon="-1.71221">
        <ele>77</ele>
        <time>2021-04-05T07:51:23.000Z</time>
      </trkpt>
      <trkpt lat="47.17938" lon="-1.71236">
        <ele>77</ele>
        <time>2021-04-05T07:51:25.000Z</time>
      </trkpt>
      <trkpt lat="47.17944" lon="-1.71253">
        <ele>78</ele>
        <time>2021-04-05T07:51:27.000Z</time>
      </trkpt>
      <trkpt lat="47.17948" lon="-1.71269">
        <ele>78</ele>
        <time>2021-04-05T07:51:29.000Z</time>
      </trkpt>
      <trkpt lat="47.17954" lon="-1.71285">
        <ele>78</ele>
        <time>2021-04-05T07:51:31.000Z</time>
      </trkpt>
      <trkpt lat="47.1796" lon="-1.71301">
        <ele>77</ele>
        <time>2021-04-05T07:51:33.000Z</time>
      </trkpt>
      <trkpt lat="47.17965" lon="-1.71317">
        <ele>77</ele>
        <time>2021-04-05T07:51:35.000Z</time>
      </trkpt>
      <trkpt lat="47.1797" lon="-1.71333">
        <ele>77</ele>
        <time>2021-04-05T07:51:37.000Z</time>
      </trkpt>
      <trkpt lat="47.17975" lon="-1.71349">
        <ele>77</ele>
        <time>2021-04-05T07:51:39.000Z</time>
      </trkpt>
      <trkpt lat="47.1798" lon="-1.71364">
        <ele>77</ele>
        <time>2021-04-05T07:51:41.000Z</time>
      </trkpt>
      <trkpt lat="47.17985" lon="-1.7138">
        <ele>77</ele>
        <time>2021-04-05T07:51:43.000Z</time>
      </trkpt>
      <trkpt lat="47.1799" lon="-1.71396">
        <ele>77</ele>
        <time>2021-04-05T07:51:45.000Z</time>
      </trkpt>
      <trkpt lat="47.17995" lon="-1.71412">
        <ele>77</ele>
        <time>2021-04-05T07:51:47.000Z</time>
      </trkpt>
      <trkpt lat="47.18" lon="-1.71429">
        <ele>76</ele>
        <time>2021-04-05T07:51:49.000Z</time>
      </trkpt>
      <trkpt lat="47.18005" lon="-1.71444">
        <ele>77</ele>
        <time>2021-04-05T07:51:51.000Z</time>
      </trkpt>
      <trkpt lat="47.18011" lon="-1.7146">
        <ele>77</ele>
        <time>2021-04-05T07:51:53.000Z</time>
      </trkpt>
      <trkpt lat="47.18016" lon="-1.71476">
        <ele>77</ele>
        <time>2021-04-05T07:51:55.000Z</time>
      </trkpt>
      <trkpt lat="47.18021" lon="-1.71492">
        <ele>77</ele>
        <time>2021-04-05T07:51:57.000Z</time>
      </trkpt>
      <trkpt lat="47.18026" lon="-1.71508">
        <ele>77</ele>
        <time>2021-04-05T07:51:59.000Z</time>
      </trkpt>
      <trkpt lat="47.18031" lon="-1.71524">
        <ele>77</ele>
        <time>2021-04-05T07:52:01.000Z</time>
      </trkpt>
      <trkpt lat="47.18037" lon="-1.71541">
        <ele>77</ele>
        <time>2021-04-05T07:52:03.000Z</time>
      </trkpt>
      <trkpt lat="47.18042" lon="-1.71557">
        <ele>77</ele>
        <time>2021-04-05T07:52:05.000Z</time>
      </trkpt>
      <trkpt lat="47.18047" lon="-1.71572">
        <ele>76</ele>
        <time>2021-04-05T07:52:07.000Z</time>
      </trkpt>
      <trkpt lat="47.18052" lon="-1.71588">
        <ele>76</ele>
        <time>2021-04-05T07:52:09.000Z</time>
      </trkpt>
      <trkpt lat="47.18057" lon="-1.71604">
        <ele>77</ele>
        <time>2021-04-05T07:52:11.000Z</time>
      </trkpt>
      <trkpt lat="47.18063" lon="-1.7162">
        <ele>76</ele>
        <time>2021-04-05T07:52:13.000Z</time>
      </trkpt>
      <trkpt lat="47.18068" lon="-1.71636">
        <ele>76</ele>
        <time>2021-04-05T07:52:15.000Z</time>
      </trkpt>
      <trkpt lat="47.18073" lon="-1.71652">
        <ele>76</ele>
        <time>2021-04-05T07:52:17.000Z</time>
      </trkpt>
      <trkpt lat="47.18078" lon="-1.71668">
        <ele>76</ele>
        <time>2021-04-05T07:52:19.000Z</time>
      </trkpt>
      <trkpt lat="47.18084" lon="-1.71684">
        <ele>76</ele>
        <time>2021-04-05T07:52:21.000Z</time>
      </trkpt>
      <trkpt lat="47.18089" lon="-1.717">
        <ele>76</ele>
        <time>2021-04-05T07:52:23.000Z</time>
      </trkpt>
      <trkpt lat="47.18094" lon="-1.71716">
        <ele>76</ele>
        <time>2021-04-05T07:52:25.000Z</time>
      </trkpt>
      <trkpt lat="47.181" lon="-1.71732">
        <ele>76</ele>
        <time>2021-04-05T07:52:27.000Z</time>
      </trkpt>
      <trkpt lat="47.18106" lon="-1.71747">
        <ele>76</ele>
        <time>2021-04-05T07:52:29.000Z</time>
      </trkpt>
      <trkpt lat="47.18112" lon="-1.71762">
        <ele>76</ele>
        <time>2021-04-05T07:52:31.000Z</time>
      </trkpt>
      <trkpt lat="47.18118" lon="-1.71778">
        <ele>76</ele>
        <time>2021-04-05T07:52:33.000Z</time>
      </trkpt>
      <trkpt lat="47.18124" lon="-1.71793">
        <ele>77</ele>
        <time>2021-04-05T07:52:35.000Z</time>
      </trkpt>
      <trkpt lat="47.18129" lon="-1.71809">
        <ele>76</ele>
        <time>2021-04-05T07:52:37.000Z</time>
      </trkpt>
      <trkpt lat="47.18134" lon="-1.71824">
        <ele>76</ele>
        <time>2021-04-05T07:52:39.000Z</time>
      </trkpt>
      <trkpt lat="47.1814" lon="-1.7184">
        <ele>76</ele>
        <time>2021-04-05T07:52:41.000Z</time>
      </trkpt>
      <trkpt lat="47.18145" lon="-1.71856">
        <ele>76</ele>
        <time>2021-04-05T07:52:43.000Z</time>
      </trkpt>
      <trkpt lat="47.1815" lon="-1.71872">
        <ele>76</ele>
        <time>2021-04-05T07:52:45.000Z</time>
      </trkpt>
      <trkpt lat="47.18155" lon="-1.71888">
        <ele>76</ele>
        <time>2021-04-05T07:52:47.000Z</time>
      </trkpt>
      <trkpt lat="47.1816" lon="-1.71904">
        <ele>76</ele>
        <time>2021-04-05T07:52:49.000Z</time>
      </trkpt>
      <trkpt lat="47.18165" lon="-1.7192">
        <ele>76</ele>
        <time>2021-04-05T07:52:51.000Z</time>
      </trkpt>
      <trkpt lat="47.1817" lon="-1.71935">
        <ele>76</ele>
        <time>2021-04-05T07:52:53.000Z</time>
      </trkpt>
      <trkpt lat="47.18175" lon="-1.71951">
        <ele>76</ele>
        <time>2021-04-05T07:52:55.000Z</time>
      </trkpt>
      <trkpt lat="47.1818" lon="-1.71968">
        <ele>76</ele>
        <time>2021-04-05T07:52:57.000Z</time>
      </trkpt>
      <trkpt lat="47.18185" lon="-1.71984">
        <ele>76</ele>
        <time>2021-04-05T07:52:59.000Z</time>
      </trkpt>
      <trkpt lat="47.1819" lon="-1.72">
        <ele>76</ele>
        <time>2021-04-05T07:53:01.000Z</time>
      </trkpt>
      <trkpt lat="47.18195" lon="-1.72015">
        <ele>75</ele>
        <time>2021-04-05T07:53:03.000Z</time>
      </trkpt>
      <trkpt lat="47.182" lon="-1.72031">
        <ele>75</ele>
        <time>2021-04-05T07:53:05.000Z</time>
      </trkpt>
      <trkpt lat="47.18205" lon="-1.72047">
        <ele>76</ele>
        <time>2021-04-05T07:53:07.000Z</time>
      </trkpt>
      <trkpt lat="47.1821" lon="-1.72063">
        <ele>76</ele>
        <time>2021-04-05T07:53:09.000Z</time>
      </trkpt>
      <trkpt lat="47.18215" lon="-1.72078">
        <ele>76</ele>
        <time>2021-04-05T07:53:11.000Z</time>
      </trkpt>
      <trkpt lat="47.18221" lon="-1.72094">
        <ele>76</ele>
        <time>2021-04-05T07:53:13.000Z</time>
      </trkpt>
      <trkpt lat="47.18225" lon="-1.72109">
        <ele>76</ele>
        <time>2021-04-05T07:53:15.000Z</time>
      </trkpt>
      <trkpt lat="47.1823" lon="-1.72125">
        <ele>76</ele>
        <time>2021-04-05T07:53:17.000Z</time>
      </trkpt>
      <trkpt lat="47.18236" lon="-1.72141">
        <ele>76</ele>
        <time>2021-04-05T07:53:19.000Z</time>
      </trkpt>
      <trkpt lat="47.1824" lon="-1.72157">
        <ele>76</ele>
        <time>2021-04-05T07:53:21.000Z</time>
      </trkpt>
      <trkpt lat="47.18245" lon="-1.72173">
        <ele>75</ele>
        <time>2021-04-05T07:53:23.000Z</time>
      </trkpt>
      <trkpt lat="47.1825" lon="-1.72189">
        <ele>75</ele>
        <time>2021-04-05T07:53:25.000Z</time>
      </trkpt>
      <trkpt lat="47.18254" lon="-1.72206">
        <ele>75</ele>
        <time>2021-04-05T07:53:27.000Z</time>
      </trkpt>
      <trkpt lat="47.18258" lon="-1.72222">
        <ele>75</ele>
        <time>2021-04-05T07:53:29.000Z</time>
      </trkpt>
      <trkpt lat="47.1826" lon="-1.72239">
        <ele>75</ele>
        <time>2021-04-05T07:53:31.000Z</time>
      </trkpt>
      <trkpt lat="47.18262" lon="-1.72257">
        <ele>75</ele>
        <time>2021-04-05T07:53:33.000Z</time>
      </trkpt>
      <trkpt lat="47.18265" lon="-1.72275">
        <ele>75</ele>
        <time>2021-04-05T07:53:35.000Z</time>
      </trkpt>
      <trkpt lat="47.18267" lon="-1.72294">
        <ele>75</ele>
        <time>2021-04-05T07:53:37.000Z</time>
      </trkpt>
      <trkpt lat="47.18268" lon="-1.72311">
        <ele>75</ele>
        <time>2021-04-05T07:53:39.000Z</time>
      </trkpt>
      <trkpt lat="47.1827" lon="-1.72329">
        <ele>75</ele>
        <time>2021-04-05T07:53:41.000Z</time>
      </trkpt>
      <trkpt lat="47.18272" lon="-1.72346">
        <ele>74</ele>
        <time>2021-04-05T07:53:43.000Z</time>
      </trkpt>
      <trkpt lat="47.18273" lon="-1.72364">
        <ele>75</ele>
        <time>2021-04-05T07:53:45.000Z</time>
      </trkpt>
      <trkpt lat="47.18275" lon="-1.72381">
        <ele>75</ele>
        <time>2021-04-05T07:53:47.000Z</time>
      </trkpt>
      <trkpt lat="47.18275" lon="-1.72398">
        <ele>75</ele>
        <time>2021-04-05T07:53:49.000Z</time>
      </trkpt>
      <trkpt lat="47.18276" lon="-1.72414">
        <ele>76</ele>
        <time>2021-04-05T07:53:51.000Z</time>
      </trkpt>
      <trkpt lat="47.18275" lon="-1.7243">
        <ele>76</ele>
        <time>2021-04-05T07:53:53.000Z</time>
      </trkpt>
      <trkpt lat="47.18273" lon="-1.72447">
        <ele>76</ele>
        <time>2021-04-05T07:53:55.000Z</time>
      </trkpt>
      <trkpt lat="47.1827" lon="-1.72464">
        <ele>76</ele>
        <time>2021-04-05T07:53:57.000Z</time>
      </trkpt>
      <trkpt lat="47.18267" lon="-1.72481">
        <ele>76</ele>
        <time>2021-04-05T07:53:59.000Z</time>
      </trkpt>
      <trkpt lat="47.18264" lon="-1.72497">
        <ele>77</ele>
        <time>2021-04-05T07:54:01.000Z</time>
      </trkpt>
      <trkpt lat="47.18262" lon="-1.72514">
        <ele>77</ele>
        <time>2021-04-05T07:54:03.000Z</time>
      </trkpt>
      <trkpt lat="47.18263" lon="-1.7253">
        <ele>78</ele>
        <time>2021-04-05T07:54:05.000Z</time>
      </trkpt>
      <trkpt lat="47.18268" lon="-1.72544">
        <ele>78</ele>
        <time>2021-04-05T07:54:07.000Z</time>
      </trkpt>
      <trkpt lat="47.18277" lon="-1.72551">
        <ele>78</ele>
        <time>2021-04-05T07:54:09.000Z</time>
      </trkpt>
      <trkpt lat="47.18288" lon="-1.72551">
        <ele>78</ele>
        <time>2021-04-05T07:54:11.000Z</time>
      </trkpt>
      <trkpt lat="47.18299" lon="-1.7255">
        <ele>80</ele>
        <time>2021-04-05T07:54:13.000Z</time>
      </trkpt>
      <trkpt lat="47.18309" lon="-1.72556">
        <ele>80</ele>
        <time>2021-04-05T07:54:15.000Z</time>
      </trkpt>
      <trkpt lat="47.18316" lon="-1.72568">
        <ele>80</ele>
        <time>2021-04-05T07:54:17.000Z</time>
      </trkpt>
      <trkpt lat="47.18318" lon="-1.72584">
        <ele>80</ele>
        <time>2021-04-05T07:54:19.000Z</time>
      </trkpt>
      <trkpt lat="47.18316" lon="-1.72599">
        <ele>80</ele>
        <time>2021-04-05T07:54:21.000Z</time>
      </trkpt>
      <trkpt lat="47.18313" lon="-1.72615">
        <ele>79</ele>
        <time>2021-04-05T07:54:23.000Z</time>
      </trkpt>
      <trkpt lat="47.18316" lon="-1.72633">
        <ele>78</ele>
        <time>2021-04-05T07:54:25.000Z</time>
      </trkpt>
      <trkpt lat="47.18321" lon="-1.72649">
        <ele>79</ele>
        <time>2021-04-05T07:54:27.000Z</time>
      </trkpt>
      <trkpt lat="47.18326" lon="-1.72666">
        <ele>78</ele>
        <time>2021-04-05T07:54:29.000Z</time>
      </trkpt>
      <trkpt lat="47.18332" lon="-1.72684">
        <ele>77</ele>
        <time>2021-04-05T07:54:31.000Z</time>
      </trkpt>
      <trkpt lat="47.18338" lon="-1.72701">
        <ele>77</ele>
        <time>2021-04-05T07:54:33.000Z</time>
      </trkpt>
      <trkpt lat="47.18344" lon="-1.72719">
        <ele>76</ele>
        <time>2021-04-05T07:54:35.000Z</time>
      </trkpt>
      <trkpt lat="47.18351" lon="-1.72738">
        <ele>76</ele>
        <time>2021-04-05T07:54:37.000Z</time>
      </trkpt>
      <trkpt lat="47.18357" lon="-1.72756">
        <ele>76</ele>
        <time>2021-04-05T07:54:39.000Z</time>
      </trkpt>
      <trkpt lat="47.18363" lon="-1.72773">
        <ele>76</ele>
        <time>2021-04-05T07:54:41.000Z</time>
      </trkpt>
      <trkpt lat="47.18369" lon="-1.7279">
        <ele>76</ele>
        <time>2021-04-05T07:54:43.000Z</time>
      </trkpt>
      <trkpt lat="47.18374" lon="-1.72807">
        <ele>76</ele>
        <time>2021-04-05T07:54:45.000Z</time>
      </trkpt>
      <trkpt lat="47.1838" lon="-1.72823">
        <ele>76</ele>
        <time>2021-04-05T07:54:47.000Z</time>
      </trkpt>
      <trkpt lat="47.18386" lon="-1.7284">
        <ele>75</ele>
        <time>2021-04-05T07:54:49.000Z</time>
      </trkpt>
      <trkpt lat="47.18391" lon="-1.72855">
        <ele>76</ele>
        <time>2021-04-05T07:54:51.000Z</time>
      </trkpt>
      <trkpt lat="47.18396" lon="-1.72871">
        <ele>76</ele>
        <time>2021-04-05T07:54:53.000Z</time>
      </trkpt>
      <trkpt lat="47.18402" lon="-1.72887">
        <ele>76</ele>
        <time>2021-04-05T07:54:55.000Z</time>
      </trkpt>
      <trkpt lat="47.18406" lon="-1.72903">
        <ele>76</ele>
        <time>2021-04-05T07:54:57.000Z</time>
      </trkpt>
      <trkpt lat="47.18411" lon="-1.7292">
        <ele>76</ele>
        <time>2021-04-05T07:54:59.000Z</time>
      </trkpt>
      <trkpt lat="47.18415" lon="-1.72936">
        <ele>76</ele>
        <time>2021-04-05T07:55:01.000Z</time>
      </trkpt>
      <trkpt lat="47.18417" lon="-1.72953">
        <ele>76</ele>
        <time>2021-04-05T07:55:03.000Z</time>
      </trkpt>
      <trkpt lat="47.1842" lon="-1.7297">
        <ele>76</ele>
        <time>2021-04-05T07:55:05.000Z</time>
      </trkpt>
      <trkpt lat="47.18422" lon="-1.72988">
        <ele>76</ele>
        <time>2021-04-05T07:55:07.000Z</time>
      </trkpt>
      <trkpt lat="47.18425" lon="-1.73005">
        <ele>76</ele>
        <time>2021-04-05T07:55:09.000Z</time>
      </trkpt>
      <trkpt lat="47.18427" lon="-1.73023">
        <ele>76</ele>
        <time>2021-04-05T07:55:11.000Z</time>
      </trkpt>
      <trkpt lat="47.18429" lon="-1.7304">
        <ele>76</ele>
        <time>2021-04-05T07:55:13.000Z</time>
      </trkpt>
      <trkpt lat="47.18431" lon="-1.73058">
        <ele>76</ele>
        <time>2021-04-05T07:55:15.000Z</time>
      </trkpt>
      <trkpt lat="47.18433" lon="-1.73075">
        <ele>76</ele>
        <time>2021-04-05T07:55:17.000Z</time>
      </trkpt>
      <trkpt lat="47.18436" lon="-1.73093">
        <ele>76</ele>
        <time>2021-04-05T07:55:19.000Z</time>
      </trkpt>
      <trkpt lat="47.18438" lon="-1.73111">
        <ele>76</ele>
        <time>2021-04-05T07:55:21.000Z</time>
      </trkpt>
      <trkpt lat="47.18441" lon="-1.73128">
        <ele>76</ele>
        <time>2021-04-05T07:55:23.000Z</time>
      </trkpt>
      <trkpt lat="47.18443" lon="-1.73146">
        <ele>75</ele>
        <time>2021-04-05T07:55:25.000Z</time>
      </trkpt>
      <trkpt lat="47.18445" lon="-1.73164">
        <ele>75</ele>
        <time>2021-04-05T07:55:27.000Z</time>
      </trkpt>
      <trkpt lat="47.18448" lon="-1.73183">
        <ele>75</ele>
        <time>2021-04-05T07:55:29.000Z</time>
      </trkpt>
      <trkpt lat="47.1845" lon="-1.73201">
        <ele>75</ele>
        <time>2021-04-05T07:55:31.000Z</time>
      </trkpt>
      <trkpt lat="47.18453" lon="-1.73219">
        <ele>75</ele>
        <time>2021-04-05T07:55:33.000Z</time>
      </trkpt>
      <trkpt lat="47.18455" lon="-1.73238">
        <ele>75</ele>
        <time>2021-04-05T07:55:35.000Z</time>
      </trkpt>
      <trkpt lat="47.18457" lon="-1.73257">
        <ele>75</ele>
        <time>2021-04-05T07:55:37.000Z</time>
      </trkpt>
      <trkpt lat="47.18459" lon="-1.73276">
        <ele>75</ele>
        <time>2021-04-05T07:55:39.000Z</time>
      </trkpt>
      <trkpt lat="47.18461" lon="-1.73294">
        <ele>75</ele>
        <time>2021-04-05T07:55:41.000Z</time>
      </trkpt>
      <trkpt lat="47.18464" lon="-1.73312">
        <ele>75</ele>
        <time>2021-04-05T07:55:43.000Z</time>
      </trkpt>
      <trkpt lat="47.18465" lon="-1.7333">
        <ele>75</ele>
        <time>2021-04-05T07:55:45.000Z</time>
      </trkpt>
      <trkpt lat="47.18467" lon="-1.73349">
        <ele>74</ele>
        <time>2021-04-05T07:55:47.000Z</time>
      </trkpt>
      <trkpt lat="47.1847" lon="-1.73367">
        <ele>74</ele>
        <time>2021-04-05T07:55:49.000Z</time>
      </trkpt>
      <trkpt lat="47.18472" lon="-1.73385">
        <ele>74</ele>
        <time>2021-04-05T07:55:51.000Z</time>
      </trkpt>
      <trkpt lat="47.18473" lon="-1.73403">
        <ele>74</ele>
        <time>2021-04-05T07:55:53.000Z</time>
      </trkpt>
      <trkpt lat="47.18475" lon="-1.73422">
        <ele>74</ele>
        <time>2021-04-05T07:55:55.000Z</time>
      </trkpt>
      <trkpt lat="47.18477" lon="-1.7344">
        <ele>74</ele>
        <time>2021-04-05T07:55:57.000Z</time>
      </trkpt>
      <trkpt lat="47.18479" lon="-1.73458">
        <ele>74</ele>
        <time>2021-04-05T07:55:59.000Z</time>
      </trkpt>
      <trkpt lat="47.1848" lon="-1.73476">
        <ele>73</ele>
        <time>2021-04-05T07:56:01.000Z</time>
      </trkpt>
      <trkpt lat="47.18482" lon="-1.73494">
        <ele>73</ele>
        <time>2021-04-05T07:56:03.000Z</time>
      </trkpt>
      <trkpt lat="47.18483" lon="-1.73511">
        <ele>74</ele>
        <time>2021-04-05T07:56:05.000Z</time>
      </trkpt>
      <trkpt lat="47.18485" lon="-1.73529">
        <ele>74</ele>
        <time>2021-04-05T07:56:07.000Z</time>
      </trkpt>
      <trkpt lat="47.18487" lon="-1.73548">
        <ele>74</ele>
        <time>2021-04-05T07:56:09.000Z</time>
      </trkpt>
      <trkpt lat="47.18489" lon="-1.73566">
        <ele>74</ele>
        <time>2021-04-05T07:56:11.000Z</time>
      </trkpt>
      <trkpt lat="47.18491" lon="-1.73584">
        <ele>74</ele>
        <time>2021-04-05T07:56:13.000Z</time>
      </trkpt>
      <trkpt lat="47.18492" lon="-1.73602">
        <ele>73</ele>
        <time>2021-04-05T07:56:15.000Z</time>
      </trkpt>
      <trkpt lat="47.18494" lon="-1.7362">
        <ele>73</ele>
        <time>2021-04-05T07:56:17.000Z</time>
      </trkpt>
      <trkpt lat="47.18496" lon="-1.73638">
        <ele>73</ele>
        <time>2021-04-05T07:56:19.000Z</time>
      </trkpt>
      <trkpt lat="47.18498" lon="-1.73656">
        <ele>74</ele>
        <time>2021-04-05T07:56:21.000Z</time>
      </trkpt>
      <trkpt lat="47.18499" lon="-1.73674">
        <ele>74</ele>
        <time>2021-04-05T07:56:23.000Z</time>
      </trkpt>
      <trkpt lat="47.18501" lon="-1.73692">
        <ele>74</ele>
        <time>2021-04-05T07:56:25.000Z</time>
      </trkpt>
      <trkpt lat="47.18503" lon="-1.7371">
        <ele>74</ele>
        <time>2021-04-05T07:56:27.000Z</time>
      </trkpt>
      <trkpt lat="47.18505" lon="-1.73728">
        <ele>74</ele>
        <time>2021-04-05T07:56:29.000Z</time>
      </trkpt>
      <trkpt lat="47.18507" lon="-1.73745">
        <ele>74</ele>
        <time>2021-04-05T07:56:31.000Z</time>
      </trkpt>
      <trkpt lat="47.18509" lon="-1.73763">
        <ele>74</ele>
        <time>2021-04-05T07:56:33.000Z</time>
      </trkpt>
      <trkpt lat="47.1851" lon="-1.73781">
        <ele>74</ele>
        <time>2021-04-05T07:56:35.000Z</time>
      </trkpt>
      <trkpt lat="47.18512" lon="-1.73799">
        <ele>74</ele>
        <time>2021-04-05T07:56:37.000Z</time>
      </trkpt>
      <trkpt lat="47.18514" lon="-1.73817">
        <ele>74</ele>
        <time>2021-04-05T07:56:39.000Z</time>
      </trkpt>
      <trkpt lat="47.18516" lon="-1.73834">
        <ele>74</ele>
        <time>2021-04-05T07:56:41.000Z</time>
      </trkpt>
      <trkpt lat="47.18517" lon="-1.73852">
        <ele>74</ele>
        <time>2021-04-05T07:56:43.000Z</time>
      </trkpt>
      <trkpt lat="47.18518" lon="-1.7387">
        <ele>74</ele>
        <time>2021-04-05T07:56:45.000Z</time>
      </trkpt>
      <trkpt lat="47.18519" lon="-1.73888">
        <ele>74</ele>
        <time>2021-04-05T07:56:47.000Z</time>
      </trkpt>
      <trkpt lat="47.1852" lon="-1.73906">
        <ele>74</ele>
        <time>2021-04-05T07:56:49.000Z</time>
      </trkpt>
      <trkpt lat="47.18521" lon="-1.73923">
        <ele>74</ele>
        <time>2021-04-05T07:56:51.000Z</time>
      </trkpt>
      <trkpt lat="47.18522" lon="-1.7394">
        <ele>73</ele>
        <time>2021-04-05T07:56:53.000Z</time>
      </trkpt>
      <trkpt lat="47.18523" lon="-1.73958">
        <ele>74</ele>
        <time>2021-04-05T07:56:55.000Z</time>
      </trkpt>
      <trkpt lat="47.18523" lon="-1.73976">
        <ele>73</ele>
        <time>2021-04-05T07:56:57.000Z</time>
      </trkpt>
      <trkpt lat="47.18523" lon="-1.73994">
        <ele>73</ele>
        <time>2021-04-05T07:56:59.000Z</time>
      </trkpt>
      <trkpt lat="47.18522" lon="-1.74013">
        <ele>73</ele>
        <time>2021-04-05T07:57:01.000Z</time>
      </trkpt>
      <trkpt lat="47.18521" lon="-1.74031">
        <ele>73</ele>
        <time>2021-04-05T07:57:03.000Z</time>
      </trkpt>
      <trkpt lat="47.1852" lon="-1.7405">
        <ele>73</ele>
        <time>2021-04-05T07:57:05.000Z</time>
      </trkpt>
      <trkpt lat="47.18519" lon="-1.74068">
        <ele>72</ele>
        <time>2021-04-05T07:57:07.000Z</time>
      </trkpt>
      <trkpt lat="47.18518" lon="-1.74086">
        <ele>72</ele>
        <time>2021-04-05T07:57:09.000Z</time>
      </trkpt>
      <trkpt lat="47.18518" lon="-1.74105">
        <ele>72</ele>
        <time>2021-04-05T07:57:11.000Z</time>
      </trkpt>
      <trkpt lat="47.18521" lon="-1.74122">
        <ele>72</ele>
        <time>2021-04-05T07:57:13.000Z</time>
      </trkpt>
      <trkpt lat="47.18522" lon="-1.74141">
        <ele>71</ele>
        <time>2021-04-05T07:57:15.000Z</time>
      </trkpt>
      <trkpt lat="47.18519" lon="-1.74159">
        <ele>71</ele>
        <time>2021-04-05T07:57:17.000Z</time>
      </trkpt>
      <trkpt lat="47.18517" lon="-1.74176">
        <ele>71</ele>
        <time>2021-04-05T07:57:19.000Z</time>
      </trkpt>
      <trkpt lat="47.18517" lon="-1.74195">
        <ele>71</ele>
        <time>2021-04-05T07:57:21.000Z</time>
      </trkpt>
      <trkpt lat="47.18517" lon="-1.74213">
        <ele>71</ele>
        <time>2021-04-05T07:57:23.000Z</time>
      </trkpt>
      <trkpt lat="47.18518" lon="-1.7423">
        <ele>72</ele>
        <time>2021-04-05T07:57:25.000Z</time>
      </trkpt>
      <trkpt lat="47.18519" lon="-1.74247">
        <ele>72</ele>
        <time>2021-04-05T07:57:27.000Z</time>
      </trkpt>
      <trkpt lat="47.18521" lon="-1.74265">
        <ele>72</ele>
        <time>2021-04-05T07:57:29.000Z</time>
      </trkpt>
      <trkpt lat="47.18522" lon="-1.74282">
        <ele>73</ele>
        <time>2021-04-05T07:57:31.000Z</time>
      </trkpt>
      <trkpt lat="47.18523" lon="-1.743">
        <ele>73</ele>
        <time>2021-04-05T07:57:33.000Z</time>
      </trkpt>
      <trkpt lat="47.18524" lon="-1.74317">
        <ele>73</ele>
        <time>2021-04-05T07:57:35.000Z</time>
      </trkpt>
      <trkpt lat="47.18525" lon="-1.74334">
        <ele>74</ele>
        <time>2021-04-05T07:57:37.000Z</time>
      </trkpt>
      <trkpt lat="47.18526" lon="-1.74353">
        <ele>73</ele>
        <time>2021-04-05T07:57:39.000Z</time>
      </trkpt>
      <trkpt lat="47.18526" lon="-1.7437">
        <ele>73</ele>
        <time>2021-04-05T07:57:41.000Z</time>
      </trkpt>
      <trkpt lat="47.18526" lon="-1.74388">
        <ele>73</ele>
        <time>2021-04-05T07:57:43.000Z</time>
      </trkpt>
      <trkpt lat="47.18527" lon="-1.74406">
        <ele>73</ele>
        <time>2021-04-05T07:57:45.000Z</time>
      </trkpt>
      <trkpt lat="47.18527" lon="-1.74423">
        <ele>73</ele>
        <time>2021-04-05T07:57:47.000Z</time>
      </trkpt>
      <trkpt lat="47.18526" lon="-1.74441">
        <ele>74</ele>
        <time>2021-04-05T07:57:49.000Z</time>
      </trkpt>
      <trkpt lat="47.18525" lon="-1.74458">
        <ele>74</ele>
        <time>2021-04-05T07:57:51.000Z</time>
      </trkpt>
      <trkpt lat="47.18524" lon="-1.74476">
        <ele>74</ele>
        <time>2021-04-05T07:57:53.000Z</time>
      </trkpt>
      <trkpt lat="47.18523" lon="-1.74493">
        <ele>74</ele>
        <time>2021-04-05T07:57:55.000Z</time>
      </trkpt>
      <trkpt lat="47.18522" lon="-1.7451">
        <ele>74</ele>
        <time>2021-04-05T07:57:57.000Z</time>
      </trkpt>
      <trkpt lat="47.1852" lon="-1.74527">
        <ele>74</ele>
        <time>2021-04-05T07:57:59.000Z</time>
      </trkpt>
      <trkpt lat="47.18519" lon="-1.74545">
        <ele>74</ele>
        <time>2021-04-05T07:58:01.000Z</time>
      </trkpt>
      <trkpt lat="47.18517" lon="-1.74562">
        <ele>74</ele>
        <time>2021-04-05T07:58:03.000Z</time>
      </trkpt>
      <trkpt lat="47.18516" lon="-1.74579">
        <ele>74</ele>
        <time>2021-04-05T07:58:05.000Z</time>
      </trkpt>
      <trkpt lat="47.18513" lon="-1.74597">
        <ele>74</ele>
        <time>2021-04-05T07:58:07.000Z</time>
      </trkpt>
      <trkpt lat="47.18511" lon="-1.74615">
        <ele>74</ele>
        <time>2021-04-05T07:58:09.000Z</time>
      </trkpt>
      <trkpt lat="47.18509" lon="-1.74632">
        <ele>74</ele>
        <time>2021-04-05T07:58:11.000Z</time>
      </trkpt>
      <trkpt lat="47.18508" lon="-1.74649">
        <ele>74</ele>
        <time>2021-04-05T07:58:13.000Z</time>
      </trkpt>
      <trkpt lat="47.18506" lon="-1.74666">
        <ele>73</ele>
        <time>2021-04-05T07:58:15.000Z</time>
      </trkpt>
      <trkpt lat="47.18504" lon="-1.74683">
        <ele>73</ele>
        <time>2021-04-05T07:58:17.000Z</time>
      </trkpt>
      <trkpt lat="47.18502" lon="-1.74701">
        <ele>73</ele>
        <time>2021-04-05T07:58:19.000Z</time>
      </trkpt>
      <trkpt lat="47.185" lon="-1.74719">
        <ele>73</ele>
        <time>2021-04-05T07:58:21.000Z</time>
      </trkpt>
      <trkpt lat="47.18498" lon="-1.74737">
        <ele>73</ele>
        <time>2021-04-05T07:58:23.000Z</time>
      </trkpt>
      <trkpt lat="47.18496" lon="-1.74755">
        <ele>73</ele>
        <time>2021-04-05T07:58:25.000Z</time>
      </trkpt>
      <trkpt lat="47.18494" lon="-1.74772">
        <ele>73</ele>
        <time>2021-04-05T07:58:27.000Z</time>
      </trkpt>
      <trkpt lat="47.18491" lon="-1.74789">
        <ele>73</ele>
        <time>2021-04-05T07:58:29.000Z</time>
      </trkpt>
      <trkpt lat="47.18488" lon="-1.74806">
        <ele>73</ele>
        <time>2021-04-05T07:58:31.000Z</time>
      </trkpt>
      <trkpt lat="47.18485" lon="-1.74824">
        <ele>73</ele>
        <time>2021-04-05T07:58:33.000Z</time>
      </trkpt>
      <trkpt lat="47.18482" lon="-1.74841">
        <ele>73</ele>
        <time>2021-04-05T07:58:35.000Z</time>
      </trkpt>
      <trkpt lat="47.18478" lon="-1.74859">
        <ele>72</ele>
        <time>2021-04-05T07:58:37.000Z</time>
      </trkpt>
      <trkpt lat="47.18475" lon="-1.74878">
        <ele>72</ele>
        <time>2021-04-05T07:58:39.000Z</time>
      </trkpt>
      <trkpt lat="47.18471" lon="-1.74895">
        <ele>72</ele>
        <time>2021-04-05T07:58:41.000Z</time>
      </trkpt>
      <trkpt lat="47.18467" lon="-1.74915">
        <ele>71</ele>
        <time>2021-04-05T07:58:43.000Z</time>
      </trkpt>
      <trkpt lat="47.18463" lon="-1.74935">
        <ele>71</ele>
        <time>2021-04-05T07:58:45.000Z</time>
      </trkpt>
      <trkpt lat="47.1846" lon="-1.74954">
        <ele>71</ele>
        <time>2021-04-05T07:58:47.000Z</time>
      </trkpt>
      <trkpt lat="47.18456" lon="-1.74973">
        <ele>70</ele>
        <time>2021-04-05T07:58:49.000Z</time>
      </trkpt>
      <trkpt lat="47.18453" lon="-1.74993">
        <ele>70</ele>
        <time>2021-04-05T07:58:51.000Z</time>
      </trkpt>
      <trkpt lat="47.18449" lon="-1.75012">
        <ele>69</ele>
        <time>2021-04-05T07:58:53.000Z</time>
      </trkpt>
      <trkpt lat="47.18446" lon="-1.7503">
        <ele>69</ele>
        <time>2021-04-05T07:58:55.000Z</time>
      </trkpt>
      <trkpt lat="47.18442" lon="-1.7505">
        <ele>68</ele>
        <time>2021-04-05T07:58:57.000Z</time>
      </trkpt>
      <trkpt lat="47.18438" lon="-1.75069">
        <ele>68</ele>
        <time>2021-04-05T07:58:59.000Z</time>
      </trkpt>
      <trkpt lat="47.18434" lon="-1.75089">
        <ele>68</ele>
        <time>2021-04-05T07:59:01.000Z</time>
      </trkpt>
      <trkpt lat="47.18431" lon="-1.75108">
        <ele>68</ele>
        <time>2021-04-05T07:59:03.000Z</time>
      </trkpt>
      <trkpt lat="47.18427" lon="-1.75128">
        <ele>68</ele>
        <time>2021-04-05T07:59:05.000Z</time>
      </trkpt>
      <trkpt lat="47.18423" lon="-1.75147">
        <ele>68</ele>
        <time>2021-04-05T07:59:07.000Z</time>
      </trkpt>
      <trkpt lat="47.1842" lon="-1.75165">
        <ele>68</ele>
        <time>2021-04-05T07:59:09.000Z</time>
      </trkpt>
      <trkpt lat="47.18417" lon="-1.75184">
        <ele>68</ele>
        <time>2021-04-05T07:59:11.000Z</time>
      </trkpt>
      <trkpt lat="47.18414" lon="-1.75202">
        <ele>68</ele>
        <time>2021-04-05T07:59:13.000Z</time>
      </trkpt>
      <trkpt lat="47.18411" lon="-1.7522">
        <ele>67</ele>
        <time>2021-04-05T07:59:15.000Z</time>
      </trkpt>
      <trkpt lat="47.18408" lon="-1.75239">
        <ele>67</ele>
        <time>2021-04-05T07:59:17.000Z</time>
      </trkpt>
      <trkpt lat="47.18406" lon="-1.75257">
        <ele>67</ele>
        <time>2021-04-05T07:59:19.000Z</time>
      </trkpt>
      <trkpt lat="47.18404" lon="-1.75275">
        <ele>67</ele>
        <time>2021-04-05T07:59:21.000Z</time>
      </trkpt>
      <trkpt lat="47.18403" lon="-1.75293">
        <ele>67</ele>
        <time>2021-04-05T07:59:23.000Z</time>
      </trkpt>
      <trkpt lat="47.18401" lon="-1.75311">
        <ele>67</ele>
        <time>2021-04-05T07:59:25.000Z</time>
      </trkpt>
      <trkpt lat="47.184" lon="-1.75328">
        <ele>68</ele>
        <time>2021-04-05T07:59:27.000Z</time>
      </trkpt>
      <trkpt lat="47.18399" lon="-1.75347">
        <ele>68</ele>
        <time>2021-04-05T07:59:29.000Z</time>
      </trkpt>
      <trkpt lat="47.18398" lon="-1.75365">
        <ele>67</ele>
        <time>2021-04-05T07:59:31.000Z</time>
      </trkpt>
      <trkpt lat="47.18399" lon="-1.75383">
        <ele>67</ele>
        <time>2021-04-05T07:59:33.000Z</time>
      </trkpt>
      <trkpt lat="47.18402" lon="-1.754">
        <ele>67</ele>
        <time>2021-04-05T07:59:35.000Z</time>
      </trkpt>
      <trkpt lat="47.18403" lon="-1.75419">
        <ele>67</ele>
        <time>2021-04-05T07:59:37.000Z</time>
      </trkpt>
      <trkpt lat="47.18402" lon="-1.75437">
        <ele>67</ele>
        <time>2021-04-05T07:59:39.000Z</time>
      </trkpt>
      <trkpt lat="47.18399" lon="-1.75454">
        <ele>67</ele>
        <time>2021-04-05T07:59:41.000Z</time>
      </trkpt>
      <trkpt lat="47.18398" lon="-1.75471">
        <ele>68</ele>
        <time>2021-04-05T07:59:43.000Z</time>
      </trkpt>
      <trkpt lat="47.18398" lon="-1.75488">
        <ele>68</ele>
        <time>2021-04-05T07:59:45.000Z</time>
      </trkpt>
      <trkpt lat="47.18399" lon="-1.75505">
        <ele>68</ele>
        <time>2021-04-05T07:59:47.000Z</time>
      </trkpt>
      <trkpt lat="47.184" lon="-1.75522">
        <ele>68</ele>
        <time>2021-04-05T07:59:49.000Z</time>
      </trkpt>
      <trkpt lat="47.18401" lon="-1.7554">
        <ele>69</ele>
        <time>2021-04-05T07:59:51.000Z</time>
      </trkpt>
      <trkpt lat="47.18403" lon="-1.75558">
        <ele>69</ele>
        <time>2021-04-05T07:59:53.000Z</time>
      </trkpt>
      <trkpt lat="47.18404" lon="-1.75577">
        <ele>70</ele>
        <time>2021-04-05T07:59:55.000Z</time>
      </trkpt>
      <trkpt lat="47.18406" lon="-1.75596">
        <ele>70</ele>
        <time>2021-04-05T07:59:57.000Z</time>
      </trkpt>
      <trkpt lat="47.18407" lon="-1.75614">
        <ele>70</ele>
        <time>2021-04-05T07:59:59.000Z</time>
      </trkpt>
      <trkpt lat="47.18408" lon="-1.75632">
        <ele>70</ele>
        <time>2021-04-05T08:00:01.000Z</time>
      </trkpt>
      <trkpt lat="47.18408" lon="-1.7565">
        <ele>70</ele>
        <time>2021-04-05T08:00:03.000Z</time>
      </trkpt>
      <trkpt lat="47.18409" lon="-1.75668">
        <ele>69</ele>
        <time>2021-04-05T08:00:05.000Z</time>
      </trkpt>
      <trkpt lat="47.18409" lon="-1.75687">
        <ele>69</ele>
        <time>2021-04-05T08:00:07.000Z</time>
      </trkpt>
      <trkpt lat="47.18409" lon="-1.75705">
        <ele>69</ele>
        <time>2021-04-05T08:00:09.000Z</time>
      </trkpt>
      <trkpt lat="47.18408" lon="-1.75723">
        <ele>69</ele>
        <time>2021-04-05T08:00:11.000Z</time>
      </trkpt>
      <trkpt lat="47.18408" lon="-1.75742">
        <ele>69</ele>
        <time>2021-04-05T08:00:13.000Z</time>
      </trkpt>
      <trkpt lat="47.18406" lon="-1.75759">
        <ele>69</ele>
        <time>2021-04-05T08:00:15.000Z</time>
      </trkpt>
      <trkpt lat="47.18405" lon="-1.75777">
        <ele>70</ele>
        <time>2021-04-05T08:00:17.000Z</time>
      </trkpt>
      <trkpt lat="47.18404" lon="-1.75795">
        <ele>69</ele>
        <time>2021-04-05T08:00:19.000Z</time>
      </trkpt>
      <trkpt lat="47.18402" lon="-1.75812">
        <ele>69</ele>
        <time>2021-04-05T08:00:21.000Z</time>
      </trkpt>
      <trkpt lat="47.18398" lon="-1.7584">
        <ele>68</ele>
        <time>2021-04-05T08:00:24.000Z</time>
      </trkpt>
      <trkpt lat="47.18396" lon="-1.75858">
        <ele>68</ele>
        <time>2021-04-05T08:00:26.000Z</time>
      </trkpt>
      <trkpt lat="47.18394" lon="-1.75877">
        <ele>68</ele>
        <time>2021-04-05T08:00:28.000Z</time>
      </trkpt>
      <trkpt lat="47.18392" lon="-1.75897">
        <ele>67</ele>
        <time>2021-04-05T08:00:30.000Z</time>
      </trkpt>
      <trkpt lat="47.1839" lon="-1.75915">
        <ele>67</ele>
        <time>2021-04-05T08:00:32.000Z</time>
      </trkpt>
      <trkpt lat="47.18388" lon="-1.75934">
        <ele>67</ele>
        <time>2021-04-05T08:00:34.000Z</time>
      </trkpt>
      <trkpt lat="47.18385" lon="-1.75953">
        <ele>67</ele>
        <time>2021-04-05T08:00:36.000Z</time>
      </trkpt>
      <trkpt lat="47.18384" lon="-1.75972">
        <ele>67</ele>
        <time>2021-04-05T08:00:38.000Z</time>
      </trkpt>
      <trkpt lat="47.18381" lon="-1.75991">
        <ele>66</ele>
        <time>2021-04-05T08:00:40.000Z</time>
      </trkpt>
      <trkpt lat="47.18379" lon="-1.7601">
        <ele>66</ele>
        <time>2021-04-05T08:00:42.000Z</time>
      </trkpt>
      <trkpt lat="47.18376" lon="-1.76029">
        <ele>65</ele>
        <time>2021-04-05T08:00:44.000Z</time>
      </trkpt>
      <trkpt lat="47.18373" lon="-1.76048">
        <ele>65</ele>
        <time>2021-04-05T08:00:46.000Z</time>
      </trkpt>
      <trkpt lat="47.18371" lon="-1.76068">
        <ele>65</ele>
        <time>2021-04-05T08:00:48.000Z</time>
      </trkpt>
      <trkpt lat="47.18369" lon="-1.76087">
        <ele>65</ele>
        <time>2021-04-05T08:00:50.000Z</time>
      </trkpt>
      <trkpt lat="47.18366" lon="-1.76116">
        <ele>64</ele>
        <time>2021-04-05T08:00:53.000Z</time>
      </trkpt>
      <trkpt lat="47.18363" lon="-1.76144">
        <ele>63</ele>
        <time>2021-04-05T08:00:56.000Z</time>
      </trkpt>
      <trkpt lat="47.1836" lon="-1.76173">
        <ele>62</ele>
        <time>2021-04-05T08:00:59.000Z</time>
      </trkpt>
      <trkpt lat="47.18357" lon="-1.76192">
        <ele>62</ele>
        <time>2021-04-05T08:01:01.000Z</time>
      </trkpt>
      <trkpt lat="47.18355" lon="-1.76211">
        <ele>62</ele>
        <time>2021-04-05T08:01:03.000Z</time>
      </trkpt>
      <trkpt lat="47.18351" lon="-1.76241">
        <ele>61</ele>
        <time>2021-04-05T08:01:06.000Z</time>
      </trkpt>
      <trkpt lat="47.1835" lon="-1.76261">
        <ele>61</ele>
        <time>2021-04-05T08:01:08.000Z</time>
      </trkpt>
      <trkpt lat="47.18349" lon="-1.7628">
        <ele>61</ele>
        <time>2021-04-05T08:01:10.000Z</time>
      </trkpt>
      <trkpt lat="47.18347" lon="-1.76309">
        <ele>61</ele>
        <time>2021-04-05T08:01:13.000Z</time>
      </trkpt>
      <trkpt lat="47.18345" lon="-1.76336">
        <ele>61</ele>
        <time>2021-04-05T08:01:16.000Z</time>
      </trkpt>
      <trkpt lat="47.18345" lon="-1.76353">
        <ele>62</ele>
        <time>2021-04-05T08:01:18.000Z</time>
      </trkpt>
      <trkpt lat="47.18344" lon="-1.7637">
        <ele>62</ele>
        <time>2021-04-05T08:01:20.000Z</time>
      </trkpt>
      <trkpt lat="47.18343" lon="-1.76396">
        <ele>62</ele>
        <time>2021-04-05T08:01:23.000Z</time>
      </trkpt>
      <trkpt lat="47.18341" lon="-1.76412">
        <ele>62</ele>
        <time>2021-04-05T08:01:25.000Z</time>
      </trkpt>
      <trkpt lat="47.18341" lon="-1.76429">
        <ele>62</ele>
        <time>2021-04-05T08:01:27.000Z</time>
      </trkpt>
      <trkpt lat="47.1834" lon="-1.76446">
        <ele>63</ele>
        <time>2021-04-05T08:01:29.000Z</time>
      </trkpt>
      <trkpt lat="47.18339" lon="-1.76462">
        <ele>63</ele>
        <time>2021-04-05T08:01:31.000Z</time>
      </trkpt>
      <trkpt lat="47.18338" lon="-1.76487">
        <ele>63</ele>
        <time>2021-04-05T08:01:34.000Z</time>
      </trkpt>
      <trkpt lat="47.18337" lon="-1.76505">
        <ele>63</ele>
        <time>2021-04-05T08:01:36.000Z</time>
      </trkpt>
      <trkpt lat="47.18337" lon="-1.76521">
        <ele>63</ele>
        <time>2021-04-05T08:01:38.000Z</time>
      </trkpt>
      <trkpt lat="47.18337" lon="-1.76538">
        <ele>63</ele>
        <time>2021-04-05T08:01:40.000Z</time>
      </trkpt>
      <trkpt lat="47.18336" lon="-1.76555">
        <ele>63</ele>
        <time>2021-04-05T08:01:42.000Z</time>
      </trkpt>
      <trkpt lat="47.18337" lon="-1.76571">
        <ele>63</ele>
        <time>2021-04-05T08:01:44.000Z</time>
      </trkpt>
      <trkpt lat="47.18337" lon="-1.76587">
        <ele>64</ele>
        <time>2021-04-05T08:01:46.000Z</time>
      </trkpt>
      <trkpt lat="47.18339" lon="-1.76603">
        <ele>64</ele>
        <time>2021-04-05T08:01:48.000Z</time>
      </trkpt>
      <trkpt lat="47.1834" lon="-1.76618">
        <ele>64</ele>
        <time>2021-04-05T08:01:50.000Z</time>
      </trkpt>
      <trkpt lat="47.18341" lon="-1.76634">
        <ele>64</ele>
        <time>2021-04-05T08:01:52.000Z</time>
      </trkpt>
      <trkpt lat="47.18342" lon="-1.76651">
        <ele>65</ele>
        <time>2021-04-05T08:01:54.000Z</time>
      </trkpt>
      <trkpt lat="47.18344" lon="-1.76667">
        <ele>65</ele>
        <time>2021-04-05T08:01:56.000Z</time>
      </trkpt>
      <trkpt lat="47.18346" lon="-1.76682">
        <ele>65</ele>
        <time>2021-04-05T08:01:58.000Z</time>
      </trkpt>
      <trkpt lat="47.18348" lon="-1.76698">
        <ele>66</ele>
        <time>2021-04-05T08:02:00.000Z</time>
      </trkpt>
      <trkpt lat="47.1835" lon="-1.76722">
        <ele>67</ele>
        <time>2021-04-05T08:02:03.000Z</time>
      </trkpt>
      <trkpt lat="47.18352" lon="-1.76738">
        <ele>67</ele>
        <time>2021-04-05T08:02:05.000Z</time>
      </trkpt>
      <trkpt lat="47.18354" lon="-1.76754">
        <ele>68</ele>
        <time>2021-04-05T08:02:07.000Z</time>
      </trkpt>
      <trkpt lat="47.18356" lon="-1.76769">
        <ele>68</ele>
        <time>2021-04-05T08:02:09.000Z</time>
      </trkpt>
      <trkpt lat="47.18357" lon="-1.76785">
        <ele>68</ele>
        <time>2021-04-05T08:02:11.000Z</time>
      </trkpt>
      <trkpt lat="47.18358" lon="-1.76801">
        <ele>69</ele>
        <time>2021-04-05T08:02:13.000Z</time>
      </trkpt>
      <trkpt lat="47.1836" lon="-1.76816">
        <ele>69</ele>
        <time>2021-04-05T08:02:15.000Z</time>
      </trkpt>
      <trkpt lat="47.18361" lon="-1.76832">
        <ele>69</ele>
        <time>2021-04-05T08:02:17.000Z</time>
      </trkpt>
      <trkpt lat="47.18363" lon="-1.76847">
        <ele>69</ele>
        <time>2021-04-05T08:02:19.000Z</time>
      </trkpt>
      <trkpt lat="47.18365" lon="-1.76862">
        <ele>69</ele>
        <time>2021-04-05T08:02:21.000Z</time>
      </trkpt>
      <trkpt lat="47.18366" lon="-1.76878">
        <ele>69</ele>
        <time>2021-04-05T08:02:23.000Z</time>
      </trkpt>
      <trkpt lat="47.18369" lon="-1.76901">
        <ele>69</ele>
        <time>2021-04-05T08:02:26.000Z</time>
      </trkpt>
      <trkpt lat="47.1837" lon="-1.76917">
        <ele>69</ele>
        <time>2021-04-05T08:02:28.000Z</time>
      </trkpt>
      <trkpt lat="47.18372" lon="-1.76932">
        <ele>69</ele>
        <time>2021-04-05T08:02:30.000Z</time>
      </trkpt>
      <trkpt lat="47.18373" lon="-1.76947">
        <ele>70</ele>
        <time>2021-04-05T08:02:32.000Z</time>
      </trkpt>
      <trkpt lat="47.18374" lon="-1.76962">
        <ele>70</ele>
        <time>2021-04-05T08:02:34.000Z</time>
      </trkpt>
      <trkpt lat="47.18376" lon="-1.76977">
        <ele>70</ele>
        <time>2021-04-05T08:02:36.000Z</time>
      </trkpt>
      <trkpt lat="47.18377" lon="-1.76992">
        <ele>71</ele>
        <time>2021-04-05T08:02:38.000Z</time>
      </trkpt>
      <trkpt lat="47.18378" lon="-1.77007">
        <ele>71</ele>
        <time>2021-04-05T08:02:40.000Z</time>
      </trkpt>
      <trkpt lat="47.18378" lon="-1.77023">
        <ele>71</ele>
        <time>2021-04-05T08:02:42.000Z</time>
      </trkpt>
      <trkpt lat="47.18378" lon="-1.77039">
        <ele>72</ele>
        <time>2021-04-05T08:02:44.000Z</time>
      </trkpt>
      <trkpt lat="47.18378" lon="-1.77054">
        <ele>72</ele>
        <time>2021-04-05T08:02:46.000Z</time>
      </trkpt>
      <trkpt lat="47.18377" lon="-1.77077">
        <ele>71</ele>
        <time>2021-04-05T08:02:49.000Z</time>
      </trkpt>
      <trkpt lat="47.18375" lon="-1.77092">
        <ele>71</ele>
        <time>2021-04-05T08:02:51.000Z</time>
      </trkpt>
      <trkpt lat="47.18373" lon="-1.77108">
        <ele>71</ele>
        <time>2021-04-05T08:02:53.000Z</time>
      </trkpt>
      <trkpt lat="47.18372" lon="-1.77124">
        <ele>71</ele>
        <time>2021-04-05T08:02:55.000Z</time>
      </trkpt>
      <trkpt lat="47.18369" lon="-1.7714">
        <ele>72</ele>
        <time>2021-04-05T08:02:57.000Z</time>
      </trkpt>
      <trkpt lat="47.18367" lon="-1.77156">
        <ele>72</ele>
        <time>2021-04-05T08:02:59.000Z</time>
      </trkpt>
      <trkpt lat="47.18366" lon="-1.77172">
        <ele>72</ele>
        <time>2021-04-05T08:03:01.000Z</time>
      </trkpt>
      <trkpt lat="47.18364" lon="-1.77187">
        <ele>72</ele>
        <time>2021-04-05T08:03:03.000Z</time>
      </trkpt>
      <trkpt lat="47.18363" lon="-1.77212">
        <ele>71</ele>
        <time>2021-04-05T08:03:06.000Z</time>
      </trkpt>
      <trkpt lat="47.18363" lon="-1.77228">
        <ele>71</ele>
        <time>2021-04-05T08:03:08.000Z</time>
      </trkpt>
      <trkpt lat="47.18363" lon="-1.77244">
        <ele>71</ele>
        <time>2021-04-05T08:03:10.000Z</time>
      </trkpt>
      <trkpt lat="47.18363" lon="-1.7726">
        <ele>71</ele>
        <time>2021-04-05T08:03:12.000Z</time>
      </trkpt>
      <trkpt lat="47.18364" lon="-1.77276">
        <ele>71</ele>
        <time>2021-04-05T08:03:14.000Z</time>
      </trkpt>
      <trkpt lat="47.18365" lon="-1.77292">
        <ele>71</ele>
        <time>2021-04-05T08:03:16.000Z</time>
      </trkpt>
      <trkpt lat="47.18365" lon="-1.77309">
        <ele>71</ele>
        <time>2021-04-05T08:03:18.000Z</time>
      </trkpt>
      <trkpt lat="47.18366" lon="-1.77326">
        <ele>72</ele>
        <time>2021-04-05T08:03:20.000Z</time>
      </trkpt>
      <trkpt lat="47.18367" lon="-1.77343">
        <ele>72</ele>
        <time>2021-04-05T08:03:22.000Z</time>
      </trkpt>
      <trkpt lat="47.18368" lon="-1.77359">
        <ele>72</ele>
        <time>2021-04-05T08:03:24.000Z</time>
      </trkpt>
      <trkpt lat="47.18369" lon="-1.77376">
        <ele>72</ele>
        <time>2021-04-05T08:03:26.000Z</time>
      </trkpt>
      <trkpt lat="47.18369" lon="-1.77393">
        <ele>72</ele>
        <time>2021-04-05T08:03:28.000Z</time>
      </trkpt>
      <trkpt lat="47.1837" lon="-1.7741">
        <ele>72</ele>
        <time>2021-04-05T08:03:30.000Z</time>
      </trkpt>
      <trkpt lat="47.18372" lon="-1.77427">
        <ele>71</ele>
        <time>2021-04-05T08:03:32.000Z</time>
      </trkpt>
      <trkpt lat="47.18372" lon="-1.77444">
        <ele>72</ele>
        <time>2021-04-05T08:03:34.000Z</time>
      </trkpt>
      <trkpt lat="47.18373" lon="-1.77461">
        <ele>72</ele>
        <time>2021-04-05T08:03:36.000Z</time>
      </trkpt>
      <trkpt lat="47.18373" lon="-1.77477">
        <ele>72</ele>
        <time>2021-04-05T08:03:38.000Z</time>
      </trkpt>
      <trkpt lat="47.18373" lon="-1.77494">
        <ele>72</ele>
        <time>2021-04-05T08:03:40.000Z</time>
      </trkpt>
      <trkpt lat="47.18373" lon="-1.77511">
        <ele>72</ele>
        <time>2021-04-05T08:03:42.000Z</time>
      </trkpt>
      <trkpt lat="47.18371" lon="-1.77527">
        <ele>72</ele>
        <time>2021-04-05T08:03:44.000Z</time>
      </trkpt>
      <trkpt lat="47.18369" lon="-1.77544">
        <ele>72</ele>
        <time>2021-04-05T08:03:46.000Z</time>
      </trkpt>
      <trkpt lat="47.18366" lon="-1.77561">
        <ele>71</ele>
        <time>2021-04-05T08:03:48.000Z</time>
      </trkpt>
      <trkpt lat="47.18363" lon="-1.77577">
        <ele>71</ele>
        <time>2021-04-05T08:03:50.000Z</time>
      </trkpt>
      <trkpt lat="47.18359" lon="-1.77593">
        <ele>71</ele>
        <time>2021-04-05T08:03:52.000Z</time>
      </trkpt>
      <trkpt lat="47.18355" lon="-1.77609">
        <ele>71</ele>
        <time>2021-04-05T08:03:54.000Z</time>
      </trkpt>
      <trkpt lat="47.1835" lon="-1.77625">
        <ele>71</ele>
        <time>2021-04-05T08:03:56.000Z</time>
      </trkpt>
      <trkpt lat="47.18345" lon="-1.77641">
        <ele>71</ele>
        <time>2021-04-05T08:03:58.000Z</time>
      </trkpt>
      <trkpt lat="47.1834" lon="-1.77657">
        <ele>71</ele>
        <time>2021-04-05T08:04:00.000Z</time>
      </trkpt>
      <trkpt lat="47.18335" lon="-1.77672">
        <ele>71</ele>
        <time>2021-04-05T08:04:02.000Z</time>
      </trkpt>
      <trkpt lat="47.1833" lon="-1.77688">
        <ele>71</ele>
        <time>2021-04-05T08:04:04.000Z</time>
      </trkpt>
      <trkpt lat="47.18325" lon="-1.77703">
        <ele>71</ele>
        <time>2021-04-05T08:04:06.000Z</time>
      </trkpt>
      <trkpt lat="47.18319" lon="-1.77719">
        <ele>72</ele>
        <time>2021-04-05T08:04:08.000Z</time>
      </trkpt>
      <trkpt lat="47.18315" lon="-1.77735">
        <ele>72</ele>
        <time>2021-04-05T08:04:10.000Z</time>
      </trkpt>
      <trkpt lat="47.18309" lon="-1.77751">
        <ele>72</ele>
        <time>2021-04-05T08:04:12.000Z</time>
      </trkpt>
      <trkpt lat="47.18304" lon="-1.77767">
        <ele>72</ele>
        <time>2021-04-05T08:04:14.000Z</time>
      </trkpt>
      <trkpt lat="47.18299" lon="-1.77782">
        <ele>72</ele>
        <time>2021-04-05T08:04:16.000Z</time>
      </trkpt>
      <trkpt lat="47.18294" lon="-1.77798">
        <ele>72</ele>
        <time>2021-04-05T08:04:18.000Z</time>
      </trkpt>
      <trkpt lat="47.18289" lon="-1.77814">
        <ele>72</ele>
        <time>2021-04-05T08:04:20.000Z</time>
      </trkpt>
      <trkpt lat="47.18284" lon="-1.77829">
        <ele>72</ele>
        <time>2021-04-05T08:04:22.000Z</time>
      </trkpt>
      <trkpt lat="47.18279" lon="-1.77843">
        <ele>72</ele>
        <time>2021-04-05T08:04:24.000Z</time>
      </trkpt>
      <trkpt lat="47.18277" lon="-1.77859">
        <ele>72</ele>
        <time>2021-04-05T08:04:26.000Z</time>
      </trkpt>
      <trkpt lat="47.18281" lon="-1.77873">
        <ele>72</ele>
        <time>2021-04-05T08:04:28.000Z</time>
      </trkpt>
      <trkpt lat="47.1829" lon="-1.77883">
        <ele>72</ele>
        <time>2021-04-05T08:04:30.000Z</time>
      </trkpt>
      <trkpt lat="47.183" lon="-1.77891">
        <ele>73</ele>
        <time>2021-04-05T08:04:32.000Z</time>
      </trkpt>
      <trkpt lat="47.1831" lon="-1.77899">
        <ele>73</ele>
        <time>2021-04-05T08:04:34.000Z</time>
      </trkpt>
      <trkpt lat="47.18321" lon="-1.77903">
        <ele>73</ele>
        <time>2021-04-05T08:04:36.000Z</time>
      </trkpt>
      <trkpt lat="47.18332" lon="-1.77904">
        <ele>74</ele>
        <time>2021-04-05T08:04:38.000Z</time>
      </trkpt>
      <trkpt lat="47.18342" lon="-1.77905">
        <ele>74</ele>
        <time>2021-04-05T08:04:40.000Z</time>
      </trkpt>
      <trkpt lat="47.18354" lon="-1.77904">
        <ele>74</ele>
        <time>2021-04-05T08:04:42.000Z</time>
      </trkpt>
      <trkpt lat="47.18365" lon="-1.77904">
        <ele>74</ele>
        <time>2021-04-05T08:04:44.000Z</time>
      </trkpt>
      <trkpt lat="47.18377" lon="-1.77903">
        <ele>75</ele>
        <time>2021-04-05T08:04:46.000Z</time>
      </trkpt>
      <trkpt lat="47.18389" lon="-1.77903">
        <ele>75</ele>
        <time>2021-04-05T08:04:48.000Z</time>
      </trkpt>
      <trkpt lat="47.18401" lon="-1.77902">
        <ele>76</ele>
        <time>2021-04-05T08:04:50.000Z</time>
      </trkpt>
      <trkpt lat="47.18411" lon="-1.77902">
        <ele>76</ele>
        <time>2021-04-05T08:04:52.000Z</time>
      </trkpt>
      <trkpt lat="47.18422" lon="-1.77901">
        <ele>76</ele>
        <time>2021-04-05T08:04:54.000Z</time>
      </trkpt>
      <trkpt lat="47.18433" lon="-1.779">
        <ele>76</ele>
        <time>2021-04-05T08:04:56.000Z</time>
      </trkpt>
      <trkpt lat="47.18444" lon="-1.779">
        <ele>76</ele>
        <time>2021-04-05T08:04:58.000Z</time>
      </trkpt>
      <trkpt lat="47.18455" lon="-1.77899">
        <ele>77</ele>
        <time>2021-04-05T08:05:00.000Z</time>
      </trkpt>
      <trkpt lat="47.18466" lon="-1.77899">
        <ele>77</ele>
        <time>2021-04-05T08:05:02.000Z</time>
      </trkpt>
      <trkpt lat="47.18477" lon="-1.77898">
        <ele>77</ele>
        <time>2021-04-05T08:05:04.000Z</time>
      </trkpt>
      <trkpt lat="47.18489" lon="-1.77897">
        <ele>77</ele>
        <time>2021-04-05T08:05:06.000Z</time>
      </trkpt>
      <trkpt lat="47.185" lon="-1.77893">
        <ele>77</ele>
        <time>2021-04-05T08:05:08.000Z</time>
      </trkpt>
      <trkpt lat="47.18511" lon="-1.77887">
        <ele>77</ele>
        <time>2021-04-05T08:05:10.000Z</time>
      </trkpt>
      <trkpt lat="47.18522" lon="-1.77881">
        <ele>76</ele>
        <time>2021-04-05T08:05:12.000Z</time>
      </trkpt>
      <trkpt lat="47.18534" lon="-1.77886">
        <ele>76</ele>
        <time>2021-04-05T08:05:14.000Z</time>
      </trkpt>
      <trkpt lat="47.18542" lon="-1.77897">
        <ele>76</ele>
        <time>2021-04-05T08:05:16.000Z</time>
      </trkpt>
      <trkpt lat="47.18547" lon="-1.77912">
        <ele>77</ele>
        <time>2021-04-05T08:05:18.000Z</time>
      </trkpt>
      <trkpt lat="47.18553" lon="-1.77926">
        <ele>76</ele>
        <time>2021-04-05T08:05:20.000Z</time>
      </trkpt>
      <trkpt lat="47.18559" lon="-1.77941">
        <ele>76</ele>
        <time>2021-04-05T08:05:22.000Z</time>
      </trkpt>
      <trkpt lat="47.1856" lon="-1.77959">
        <ele>76</ele>
        <time>2021-04-05T08:05:24.000Z</time>
      </trkpt>
      <trkpt lat="47.18555" lon="-1.77975">
        <ele>76</ele>
        <time>2021-04-05T08:05:26.000Z</time>
      </trkpt>
      <trkpt lat="47.18548" lon="-1.77989">
        <ele>76</ele>
        <time>2021-04-05T08:05:28.000Z</time>
      </trkpt>
      <trkpt lat="47.1854" lon="-1.78002">
        <ele>76</ele>
        <time>2021-04-05T08:05:30.000Z</time>
      </trkpt>
      <trkpt lat="47.18533" lon="-1.78019">
        <ele>75</ele>
        <time>2021-04-05T08:05:32.000Z</time>
      </trkpt>
      <trkpt lat="47.1853" lon="-1.78038">
        <ele>75</ele>
        <time>2021-04-05T08:05:34.000Z</time>
      </trkpt>
      <trkpt lat="47.18527" lon="-1.78057">
        <ele>74</ele>
        <time>2021-04-05T08:05:36.000Z</time>
      </trkpt>
      <trkpt lat="47.18524" lon="-1.78076">
        <ele>73</ele>
        <time>2021-04-05T08:05:38.000Z</time>
      </trkpt>
      <trkpt lat="47.18522" lon="-1.78096">
        <ele>73</ele>
        <time>2021-04-05T08:05:40.000Z</time>
      </trkpt>
      <trkpt lat="47.1852" lon="-1.78115">
        <ele>73</ele>
        <time>2021-04-05T08:05:42.000Z</time>
      </trkpt>
      <trkpt lat="47.18517" lon="-1.78134">
        <ele>73</ele>
        <time>2021-04-05T08:05:44.000Z</time>
      </trkpt>
      <trkpt lat="47.18516" lon="-1.78153">
        <ele>72</ele>
        <time>2021-04-05T08:05:46.000Z</time>
      </trkpt>
      <trkpt lat="47.18516" lon="-1.78172">
        <ele>72</ele>
        <time>2021-04-05T08:05:48.000Z</time>
      </trkpt>
      <trkpt lat="47.18516" lon="-1.78191">
        <ele>72</ele>
        <time>2021-04-05T08:05:50.000Z</time>
      </trkpt>
      <trkpt lat="47.18517" lon="-1.7821">
        <ele>72</ele>
        <time>2021-04-05T08:05:52.000Z</time>
      </trkpt>
      <trkpt lat="47.18517" lon="-1.78228">
        <ele>72</ele>
        <time>2021-04-05T08:05:54.000Z</time>
      </trkpt>
      <trkpt lat="47.18518" lon="-1.78248">
        <ele>71</ele>
        <time>2021-04-05T08:05:56.000Z</time>
      </trkpt>
      <trkpt lat="47.1852" lon="-1.78266">
        <ele>71</ele>
        <time>2021-04-05T08:05:58.000Z</time>
      </trkpt>
      <trkpt lat="47.18522" lon="-1.78285">
        <ele>71</ele>
        <time>2021-04-05T08:06:00.000Z</time>
      </trkpt>
      <trkpt lat="47.18524" lon="-1.78304">
        <ele>70</ele>
        <time>2021-04-05T08:06:02.000Z</time>
      </trkpt>
      <trkpt lat="47.18527" lon="-1.78322">
        <ele>70</ele>
        <time>2021-04-05T08:06:04.000Z</time>
      </trkpt>
      <trkpt lat="47.18528" lon="-1.78342">
        <ele>70</ele>
        <time>2021-04-05T08:06:06.000Z</time>
      </trkpt>
      <trkpt lat="47.18531" lon="-1.78361">
        <ele>70</ele>
        <time>2021-04-05T08:06:08.000Z</time>
      </trkpt>
      <trkpt lat="47.18533" lon="-1.78379">
        <ele>69</ele>
        <time>2021-04-05T08:06:10.000Z</time>
      </trkpt>
      <trkpt lat="47.18535" lon="-1.78399">
        <ele>69</ele>
        <time>2021-04-05T08:06:12.000Z</time>
      </trkpt>
      <trkpt lat="47.18537" lon="-1.78419">
        <ele>69</ele>
        <time>2021-04-05T08:06:14.000Z</time>
      </trkpt>
      <trkpt lat="47.18539" lon="-1.78438">
        <ele>68</ele>
        <time>2021-04-05T08:06:16.000Z</time>
      </trkpt>
      <trkpt lat="47.18541" lon="-1.78457">
        <ele>68</ele>
        <time>2021-04-05T08:06:18.000Z</time>
      </trkpt>
      <trkpt lat="47.18543" lon="-1.78476">
        <ele>68</ele>
        <time>2021-04-05T08:06:20.000Z</time>
      </trkpt>
      <trkpt lat="47.18545" lon="-1.78495">
        <ele>67</ele>
        <time>2021-04-05T08:06:22.000Z</time>
      </trkpt>
      <trkpt lat="47.18547" lon="-1.78513">
        <ele>67</ele>
        <time>2021-04-05T08:06:24.000Z</time>
      </trkpt>
      <trkpt lat="47.1855" lon="-1.78531">
        <ele>68</ele>
        <time>2021-04-05T08:06:26.000Z</time>
      </trkpt>
      <trkpt lat="47.18555" lon="-1.78549">
        <ele>68</ele>
        <time>2021-04-05T08:06:28.000Z</time>
      </trkpt>
      <trkpt lat="47.18559" lon="-1.78567">
        <ele>67</ele>
        <time>2021-04-05T08:06:30.000Z</time>
      </trkpt>
      <trkpt lat="47.18565" lon="-1.78583">
        <ele>68</ele>
        <time>2021-04-05T08:06:32.000Z</time>
      </trkpt>
      <trkpt lat="47.18571" lon="-1.78599">
        <ele>68</ele>
        <time>2021-04-05T08:06:34.000Z</time>
      </trkpt>
      <trkpt lat="47.18578" lon="-1.78615">
        <ele>68</ele>
        <time>2021-04-05T08:06:36.000Z</time>
      </trkpt>
      <trkpt lat="47.18584" lon="-1.78631">
        <ele>69</ele>
        <time>2021-04-05T08:06:38.000Z</time>
      </trkpt>
      <trkpt lat="47.1859" lon="-1.78647">
        <ele>69</ele>
        <time>2021-04-05T08:06:40.000Z</time>
      </trkpt>
      <trkpt lat="47.18595" lon="-1.78664">
        <ele>69</ele>
        <time>2021-04-05T08:06:42.000Z</time>
      </trkpt>
      <trkpt lat="47.18599" lon="-1.78681">
        <ele>70</ele>
        <time>2021-04-05T08:06:44.000Z</time>
      </trkpt>
      <trkpt lat="47.18604" lon="-1.78698">
        <ele>70</ele>
        <time>2021-04-05T08:06:46.000Z</time>
      </trkpt>
      <trkpt lat="47.18608" lon="-1.78715">
        <ele>70</ele>
        <time>2021-04-05T08:06:48.000Z</time>
      </trkpt>
      <trkpt lat="47.18612" lon="-1.78732">
        <ele>70</ele>
        <time>2021-04-05T08:06:50.000Z</time>
      </trkpt>
      <trkpt lat="47.18616" lon="-1.7875">
        <ele>70</ele>
        <time>2021-04-05T08:06:52.000Z</time>
      </trkpt>
      <trkpt lat="47.1862" lon="-1.78766">
        <ele>70</ele>
        <time>2021-04-05T08:06:54.000Z</time>
      </trkpt>
      <trkpt lat="47.18624" lon="-1.78784">
        <ele>71</ele>
        <time>2021-04-05T08:06:56.000Z</time>
      </trkpt>
      <trkpt lat="47.18629" lon="-1.78801">
        <ele>71</ele>
        <time>2021-04-05T08:06:58.000Z</time>
      </trkpt>
      <trkpt lat="47.18634" lon="-1.78817">
        <ele>70</ele>
        <time>2021-04-05T08:07:00.000Z</time>
      </trkpt>
      <trkpt lat="47.18641" lon="-1.78832">
        <ele>71</ele>
        <time>2021-04-05T08:07:02.000Z</time>
      </trkpt>
      <trkpt lat="47.18651" lon="-1.78845">
        <ele>71</ele>
        <time>2021-04-05T08:07:04.000Z</time>
      </trkpt>
      <trkpt lat="47.18661" lon="-1.78856">
        <ele>71</ele>
        <time>2021-04-05T08:07:06.000Z</time>
      </trkpt>
      <trkpt lat="47.18672" lon="-1.78864">
        <ele>71</ele>
        <time>2021-04-05T08:07:08.000Z</time>
      </trkpt>
      <trkpt lat="47.18683" lon="-1.78871">
        <ele>70</ele>
        <time>2021-04-05T08:07:10.000Z</time>
      </trkpt>
      <trkpt lat="47.18693" lon="-1.78879">
        <ele>70</ele>
        <time>2021-04-05T08:07:12.000Z</time>
      </trkpt>
      <trkpt lat="47.18703" lon="-1.78886">
        <ele>70</ele>
        <time>2021-04-05T08:07:14.000Z</time>
      </trkpt>
      <trkpt lat="47.18713" lon="-1.78889">
        <ele>70</ele>
        <time>2021-04-05T08:07:16.000Z</time>
      </trkpt>
      <trkpt lat="47.18722" lon="-1.78878">
        <ele>70</ele>
        <time>2021-04-05T08:07:18.000Z</time>
      </trkpt>
      <trkpt lat="47.18727" lon="-1.78861">
        <ele>70</ele>
        <time>2021-04-05T08:07:20.000Z</time>
      </trkpt>
      <trkpt lat="47.18733" lon="-1.78844">
        <ele>70</ele>
        <time>2021-04-05T08:07:22.000Z</time>
      </trkpt>
      <trkpt lat="47.18739" lon="-1.78828">
        <ele>69</ele>
        <time>2021-04-05T08:07:24.000Z</time>
      </trkpt>
      <trkpt lat="47.18745" lon="-1.78811">
        <ele>69</ele>
        <time>2021-04-05T08:07:26.000Z</time>
      </trkpt>
      <trkpt lat="47.18751" lon="-1.78793">
        <ele>69</ele>
        <time>2021-04-05T08:07:28.000Z</time>
      </trkpt>
      <trkpt lat="47.18758" lon="-1.78776">
        <ele>69</ele>
        <time>2021-04-05T08:07:30.000Z</time>
      </trkpt>
      <trkpt lat="47.18765" lon="-1.78761">
        <ele>69</ele>
        <time>2021-04-05T08:07:32.000Z</time>
      </trkpt>
      <trkpt lat="47.18774" lon="-1.78747">
        <ele>69</ele>
        <time>2021-04-05T08:07:34.000Z</time>
      </trkpt>
      <trkpt lat="47.18784" lon="-1.78733">
        <ele>69</ele>
        <time>2021-04-05T08:07:36.000Z</time>
      </trkpt>
      <trkpt lat="47.18794" lon="-1.7872">
        <ele>70</ele>
        <time>2021-04-05T08:07:38.000Z</time>
      </trkpt>
      <trkpt lat="47.18804" lon="-1.78709">
        <ele>70</ele>
        <time>2021-04-05T08:07:40.000Z</time>
      </trkpt>
      <trkpt lat="47.18815" lon="-1.78696">
        <ele>70</ele>
        <time>2021-04-05T08:07:42.000Z</time>
      </trkpt>
      <trkpt lat="47.18826" lon="-1.78685">
        <ele>70</ele>
        <time>2021-04-05T08:07:44.000Z</time>
      </trkpt>
      <trkpt lat="47.18836" lon="-1.78674">
        <ele>71</ele>
        <time>2021-04-05T08:07:46.000Z</time>
      </trkpt>
      <trkpt lat="47.18847" lon="-1.78664">
        <ele>71</ele>
        <time>2021-04-05T08:07:48.000Z</time>
      </trkpt>
      <trkpt lat="47.18859" lon="-1.7866">
        <ele>71</ele>
        <time>2021-04-05T08:07:50.000Z</time>
      </trkpt>
      <trkpt lat="47.18868" lon="-1.78671">
        <ele>71</ele>
        <time>2021-04-05T08:07:52.000Z</time>
      </trkpt>
      <trkpt lat="47.18869" lon="-1.78692">
        <ele>71</ele>
        <time>2021-04-05T08:07:54.000Z</time>
      </trkpt>
      <trkpt lat="47.1887" lon="-1.78711">
        <ele>70</ele>
        <time>2021-04-05T08:07:56.000Z</time>
      </trkpt>
      <trkpt lat="47.18873" lon="-1.78731">
        <ele>70</ele>
        <time>2021-04-05T08:07:58.000Z</time>
      </trkpt>
      <trkpt lat="47.18875" lon="-1.7875">
        <ele>70</ele>
        <time>2021-04-05T08:08:00.000Z</time>
      </trkpt>
      <trkpt lat="47.18876" lon="-1.78769">
        <ele>69</ele>
        <time>2021-04-05T08:08:02.000Z</time>
      </trkpt>
      <trkpt lat="47.18878" lon="-1.78789">
        <ele>69</ele>
        <time>2021-04-05T08:08:04.000Z</time>
      </trkpt>
      <trkpt lat="47.1888" lon="-1.78808">
        <ele>69</ele>
        <time>2021-04-05T08:08:06.000Z</time>
      </trkpt>
      <trkpt lat="47.18882" lon="-1.78828">
        <ele>69</ele>
        <time>2021-04-05T08:08:08.000Z</time>
      </trkpt>
      <trkpt lat="47.18884" lon="-1.78847">
        <ele>69</ele>
        <time>2021-04-05T08:08:10.000Z</time>
      </trkpt>
      <trkpt lat="47.18886" lon="-1.78867">
        <ele>69</ele>
        <time>2021-04-05T08:08:12.000Z</time>
      </trkpt>
      <trkpt lat="47.18888" lon="-1.78886">
        <ele>69</ele>
        <time>2021-04-05T08:08:14.000Z</time>
      </trkpt>
      <trkpt lat="47.1889" lon="-1.78905">
        <ele>68</ele>
        <time>2021-04-05T08:08:16.000Z</time>
      </trkpt>
      <trkpt lat="47.18892" lon="-1.78924">
        <ele>68</ele>
        <time>2021-04-05T08:08:18.000Z</time>
      </trkpt>
      <trkpt lat="47.18893" lon="-1.78943">
        <ele>67</ele>
        <time>2021-04-05T08:08:20.000Z</time>
      </trkpt>
      <trkpt lat="47.18896" lon="-1.78963">
        <ele>66</ele>
        <time>2021-04-05T08:08:22.000Z</time>
      </trkpt>
      <trkpt lat="47.18897" lon="-1.78983">
        <ele>66</ele>
        <time>2021-04-05T08:08:24.000Z</time>
      </trkpt>
      <trkpt lat="47.18899" lon="-1.79002">
        <ele>66</ele>
        <time>2021-04-05T08:08:26.000Z</time>
      </trkpt>
      <trkpt lat="47.18901" lon="-1.79022">
        <ele>66</ele>
        <time>2021-04-05T08:08:28.000Z</time>
      </trkpt>
      <trkpt lat="47.18903" lon="-1.79042">
        <ele>65</ele>
        <time>2021-04-05T08:08:30.000Z</time>
      </trkpt>
      <trkpt lat="47.18905" lon="-1.79061">
        <ele>65</ele>
        <time>2021-04-05T08:08:32.000Z</time>
      </trkpt>
      <trkpt lat="47.18906" lon="-1.79081">
        <ele>65</ele>
        <time>2021-04-05T08:08:34.000Z</time>
      </trkpt>
      <trkpt lat="47.18908" lon="-1.79101">
        <ele>64</ele>
        <time>2021-04-05T08:08:36.000Z</time>
      </trkpt>
      <trkpt lat="47.18911" lon="-1.79122">
        <ele>64</ele>
        <time>2021-04-05T08:08:38.000Z</time>
      </trkpt>
      <trkpt lat="47.18912" lon="-1.79142">
        <ele>64</ele>
        <time>2021-04-05T08:08:40.000Z</time>
      </trkpt>
      <trkpt lat="47.18915" lon="-1.79162">
        <ele>64</ele>
        <time>2021-04-05T08:08:42.000Z</time>
      </trkpt>
      <trkpt lat="47.18918" lon="-1.79181">
        <ele>63</ele>
        <time>2021-04-05T08:08:44.000Z</time>
      </trkpt>
      <trkpt lat="47.18922" lon="-1.79201">
        <ele>64</ele>
        <time>2021-04-05T08:08:46.000Z</time>
      </trkpt>
      <trkpt lat="47.18927" lon="-1.7922">
        <ele>64</ele>
        <time>2021-04-05T08:08:48.000Z</time>
      </trkpt>
      <trkpt lat="47.18931" lon="-1.79239">
        <ele>65</ele>
        <time>2021-04-05T08:08:50.000Z</time>
      </trkpt>
      <trkpt lat="47.18936" lon="-1.79258">
        <ele>65</ele>
        <time>2021-04-05T08:08:52.000Z</time>
      </trkpt>
      <trkpt lat="47.18939" lon="-1.79277">
        <ele>64</ele>
        <time>2021-04-05T08:08:54.000Z</time>
      </trkpt>
      <trkpt lat="47.18943" lon="-1.79298">
        <ele>64</ele>
        <time>2021-04-05T08:08:56.000Z</time>
      </trkpt>
      <trkpt lat="47.18947" lon="-1.79318">
        <ele>64</ele>
        <time>2021-04-05T08:08:58.000Z</time>
      </trkpt>
      <trkpt lat="47.18949" lon="-1.79338">
        <ele>64</ele>
        <time>2021-04-05T08:09:00.000Z</time>
      </trkpt>
      <trkpt lat="47.18952" lon="-1.79358">
        <ele>64</ele>
        <time>2021-04-05T08:09:02.000Z</time>
      </trkpt>
      <trkpt lat="47.18956" lon="-1.79377">
        <ele>65</ele>
        <time>2021-04-05T08:09:04.000Z</time>
      </trkpt>
      <trkpt lat="47.18959" lon="-1.79396">
        <ele>64</ele>
        <time>2021-04-05T08:09:06.000Z</time>
      </trkpt>
      <trkpt lat="47.18962" lon="-1.79415">
        <ele>65</ele>
        <time>2021-04-05T08:09:08.000Z</time>
      </trkpt>
      <trkpt lat="47.18965" lon="-1.79433">
        <ele>64</ele>
        <time>2021-04-05T08:09:10.000Z</time>
      </trkpt>
      <trkpt lat="47.18969" lon="-1.79452">
        <ele>65</ele>
        <time>2021-04-05T08:09:12.000Z</time>
      </trkpt>
      <trkpt lat="47.18972" lon="-1.79471">
        <ele>65</ele>
        <time>2021-04-05T08:09:14.000Z</time>
      </trkpt>
      <trkpt lat="47.18976" lon="-1.79491">
        <ele>66</ele>
        <time>2021-04-05T08:09:16.000Z</time>
      </trkpt>
      <trkpt lat="47.18979" lon="-1.79509">
        <ele>66</ele>
        <time>2021-04-05T08:09:18.000Z</time>
      </trkpt>
      <trkpt lat="47.18983" lon="-1.79529">
        <ele>66</ele>
        <time>2021-04-05T08:09:20.000Z</time>
      </trkpt>
      <trkpt lat="47.18987" lon="-1.79547">
        <ele>66</ele>
        <time>2021-04-05T08:09:22.000Z</time>
      </trkpt>
      <trkpt lat="47.18991" lon="-1.79566">
        <ele>66</ele>
        <time>2021-04-05T08:09:24.000Z</time>
      </trkpt>
      <trkpt lat="47.18994" lon="-1.79583">
        <ele>65</ele>
        <time>2021-04-05T08:09:26.000Z</time>
      </trkpt>
      <trkpt lat="47.18999" lon="-1.796">
        <ele>65</ele>
        <time>2021-04-05T08:09:28.000Z</time>
      </trkpt>
      <trkpt lat="47.19004" lon="-1.79618">
        <ele>64</ele>
        <time>2021-04-05T08:09:30.000Z</time>
      </trkpt>
      <trkpt lat="47.19007" lon="-1.79637">
        <ele>65</ele>
        <time>2021-04-05T08:09:32.000Z</time>
      </trkpt>
      <trkpt lat="47.19011" lon="-1.79654">
        <ele>65</ele>
        <time>2021-04-05T08:09:34.000Z</time>
      </trkpt>
      <trkpt lat="47.19015" lon="-1.79672">
        <ele>65</ele>
        <time>2021-04-05T08:09:36.000Z</time>
      </trkpt>
      <trkpt lat="47.19019" lon="-1.7969">
        <ele>64</ele>
        <time>2021-04-05T08:09:38.000Z</time>
      </trkpt>
      <trkpt lat="47.19024" lon="-1.79707">
        <ele>64</ele>
        <time>2021-04-05T08:09:40.000Z</time>
      </trkpt>
      <trkpt lat="47.19028" lon="-1.79724">
        <ele>64</ele>
        <time>2021-04-05T08:09:42.000Z</time>
      </trkpt>
      <trkpt lat="47.19033" lon="-1.7974">
        <ele>64</ele>
        <time>2021-04-05T08:09:44.000Z</time>
      </trkpt>
      <trkpt lat="47.19039" lon="-1.79756">
        <ele>64</ele>
        <time>2021-04-05T08:09:46.000Z</time>
      </trkpt>
      <trkpt lat="47.19045" lon="-1.79771">
        <ele>64</ele>
        <time>2021-04-05T08:09:48.000Z</time>
      </trkpt>
      <trkpt lat="47.19052" lon="-1.79787">
        <ele>65</ele>
        <time>2021-04-05T08:09:50.000Z</time>
      </trkpt>
      <trkpt lat="47.19059" lon="-1.79802">
        <ele>65</ele>
        <time>2021-04-05T08:09:52.000Z</time>
      </trkpt>
      <trkpt lat="47.19066" lon="-1.79819">
        <ele>65</ele>
        <time>2021-04-05T08:09:54.000Z</time>
      </trkpt>
      <trkpt lat="47.19072" lon="-1.79835">
        <ele>65</ele>
        <time>2021-04-05T08:09:56.000Z</time>
      </trkpt>
      <trkpt lat="47.19079" lon="-1.79851">
        <ele>65</ele>
        <time>2021-04-05T08:09:58.000Z</time>
      </trkpt>
      <trkpt lat="47.19086" lon="-1.79867">
        <ele>65</ele>
        <time>2021-04-05T08:10:00.000Z</time>
      </trkpt>
      <trkpt lat="47.19093" lon="-1.79883">
        <ele>65</ele>
        <time>2021-04-05T08:10:02.000Z</time>
      </trkpt>
      <trkpt lat="47.191" lon="-1.79898">
        <ele>65</ele>
        <time>2021-04-05T08:10:04.000Z</time>
      </trkpt>
      <trkpt lat="47.19106" lon="-1.79914">
        <ele>66</ele>
        <time>2021-04-05T08:10:06.000Z</time>
      </trkpt>
      <trkpt lat="47.19113" lon="-1.7993">
        <ele>67</ele>
        <time>2021-04-05T08:10:08.000Z</time>
      </trkpt>
      <trkpt lat="47.19119" lon="-1.79945">
        <ele>67</ele>
        <time>2021-04-05T08:10:10.000Z</time>
      </trkpt>
      <trkpt lat="47.19126" lon="-1.79961">
        <ele>67</ele>
        <time>2021-04-05T08:10:12.000Z</time>
      </trkpt>
      <trkpt lat="47.19133" lon="-1.79976">
        <ele>66</ele>
        <time>2021-04-05T08:10:14.000Z</time>
      </trkpt>
      <trkpt lat="47.19139" lon="-1.79991">
        <ele>66</ele>
        <time>2021-04-05T08:10:16.000Z</time>
      </trkpt>
      <trkpt lat="47.19145" lon="-1.80005">
        <ele>65</ele>
        <time>2021-04-05T08:10:18.000Z</time>
      </trkpt>
      <trkpt lat="47.19152" lon="-1.80019">
        <ele>65</ele>
        <time>2021-04-05T08:10:20.000Z</time>
      </trkpt>
      <trkpt lat="47.19159" lon="-1.80034">
        <ele>65</ele>
        <time>2021-04-05T08:10:22.000Z</time>
      </trkpt>
      <trkpt lat="47.19167" lon="-1.80049">
        <ele>65</ele>
        <time>2021-04-05T08:10:24.000Z</time>
      </trkpt>
      <trkpt lat="47.19175" lon="-1.80065">
        <ele>65</ele>
        <time>2021-04-05T08:10:26.000Z</time>
      </trkpt>
      <trkpt lat="47.19182" lon="-1.8008">
        <ele>65</ele>
        <time>2021-04-05T08:10:28.000Z</time>
      </trkpt>
      <trkpt lat="47.19189" lon="-1.80096">
        <ele>65</ele>
        <time>2021-04-05T08:10:30.000Z</time>
      </trkpt>
      <trkpt lat="47.19197" lon="-1.80111">
        <ele>65</ele>
        <time>2021-04-05T08:10:32.000Z</time>
      </trkpt>
      <trkpt lat="47.19204" lon="-1.80126">
        <ele>65</ele>
        <time>2021-04-05T08:10:34.000Z</time>
      </trkpt>
      <trkpt lat="47.19212" lon="-1.80142">
        <ele>65</ele>
        <time>2021-04-05T08:10:36.000Z</time>
      </trkpt>
      <trkpt lat="47.19218" lon="-1.80158">
        <ele>65</ele>
        <time>2021-04-05T08:10:38.000Z</time>
      </trkpt>
      <trkpt lat="47.19226" lon="-1.80177">
        <ele>65</ele>
        <time>2021-04-05T08:10:40.000Z</time>
      </trkpt>
      <trkpt lat="47.19232" lon="-1.80196">
        <ele>65</ele>
        <time>2021-04-05T08:10:42.000Z</time>
      </trkpt>
      <trkpt lat="47.19238" lon="-1.80215">
        <ele>65</ele>
        <time>2021-04-05T08:10:44.000Z</time>
      </trkpt>
      <trkpt lat="47.19244" lon="-1.80234">
        <ele>65</ele>
        <time>2021-04-05T08:10:46.000Z</time>
      </trkpt>
      <trkpt lat="47.19249" lon="-1.80253">
        <ele>65</ele>
        <time>2021-04-05T08:10:48.000Z</time>
      </trkpt>
      <trkpt lat="47.19254" lon="-1.80272">
        <ele>64</ele>
        <time>2021-04-05T08:10:50.000Z</time>
      </trkpt>
      <trkpt lat="47.19259" lon="-1.80291">
        <ele>64</ele>
        <time>2021-04-05T08:10:52.000Z</time>
      </trkpt>
      <trkpt lat="47.19264" lon="-1.8031">
        <ele>63</ele>
        <time>2021-04-05T08:10:54.000Z</time>
      </trkpt>
      <trkpt lat="47.1927" lon="-1.80328">
        <ele>64</ele>
        <time>2021-04-05T08:10:56.000Z</time>
      </trkpt>
      <trkpt lat="47.19275" lon="-1.80346">
        <ele>64</ele>
        <time>2021-04-05T08:10:58.000Z</time>
      </trkpt>
      <trkpt lat="47.19281" lon="-1.80364">
        <ele>63</ele>
        <time>2021-04-05T08:11:00.000Z</time>
      </trkpt>
      <trkpt lat="47.19287" lon="-1.80382">
        <ele>63</ele>
        <time>2021-04-05T08:11:02.000Z</time>
      </trkpt>
      <trkpt lat="47.19293" lon="-1.804">
        <ele>63</ele>
        <time>2021-04-05T08:11:04.000Z</time>
      </trkpt>
      <trkpt lat="47.19298" lon="-1.80418">
        <ele>63</ele>
        <time>2021-04-05T08:11:06.000Z</time>
      </trkpt>
      <trkpt lat="47.19304" lon="-1.80436">
        <ele>62</ele>
        <time>2021-04-05T08:11:08.000Z</time>
      </trkpt>
      <trkpt lat="47.19311" lon="-1.80454">
        <ele>62</ele>
        <time>2021-04-05T08:11:10.000Z</time>
      </trkpt>
      <trkpt lat="47.19317" lon="-1.80473">
        <ele>61</ele>
        <time>2021-04-05T08:11:12.000Z</time>
      </trkpt>
      <trkpt lat="47.19323" lon="-1.80491">
        <ele>61</ele>
        <time>2021-04-05T08:11:14.000Z</time>
      </trkpt>
      <trkpt lat="47.1933" lon="-1.80509">
        <ele>60</ele>
        <time>2021-04-05T08:11:16.000Z</time>
      </trkpt>
      <trkpt lat="47.19336" lon="-1.80528">
        <ele>60</ele>
        <time>2021-04-05T08:11:18.000Z</time>
      </trkpt>
      <trkpt lat="47.19341" lon="-1.80548">
        <ele>60</ele>
        <time>2021-04-05T08:11:20.000Z</time>
      </trkpt>
      <trkpt lat="47.19345" lon="-1.80567">
        <ele>60</ele>
        <time>2021-04-05T08:11:22.000Z</time>
      </trkpt>
      <trkpt lat="47.19348" lon="-1.80586">
        <ele>59</ele>
        <time>2021-04-05T08:11:24.000Z</time>
      </trkpt>
      <trkpt lat="47.1935" lon="-1.80604">
        <ele>60</ele>
        <time>2021-04-05T08:11:26.000Z</time>
      </trkpt>
      <trkpt lat="47.19351" lon="-1.80622">
        <ele>60</ele>
        <time>2021-04-05T08:11:28.000Z</time>
      </trkpt>
      <trkpt lat="47.19353" lon="-1.8064">
        <ele>60</ele>
        <time>2021-04-05T08:11:30.000Z</time>
      </trkpt>
      <trkpt lat="47.19354" lon="-1.80658">
        <ele>60</ele>
        <time>2021-04-05T08:11:32.000Z</time>
      </trkpt>
      <trkpt lat="47.19353" lon="-1.80675">
        <ele>60</ele>
        <time>2021-04-05T08:11:34.000Z</time>
      </trkpt>
      <trkpt lat="47.19352" lon="-1.80692">
        <ele>60</ele>
        <time>2021-04-05T08:11:36.000Z</time>
      </trkpt>
      <trkpt lat="47.1935" lon="-1.80709">
        <ele>60</ele>
        <time>2021-04-05T08:11:38.000Z</time>
      </trkpt>
      <trkpt lat="47.19347" lon="-1.80726">
        <ele>60</ele>
        <time>2021-04-05T08:11:40.000Z</time>
      </trkpt>
      <trkpt lat="47.19346" lon="-1.80745">
        <ele>61</ele>
        <time>2021-04-05T08:11:42.000Z</time>
      </trkpt>
      <trkpt lat="47.19351" lon="-1.80766">
        <ele>60</ele>
        <time>2021-04-05T08:11:44.000Z</time>
      </trkpt>
      <trkpt lat="47.19355" lon="-1.80787">
        <ele>60</ele>
        <time>2021-04-05T08:11:46.000Z</time>
      </trkpt>
      <trkpt lat="47.1936" lon="-1.80809">
        <ele>59</ele>
        <time>2021-04-05T08:11:48.000Z</time>
      </trkpt>
      <trkpt lat="47.19364" lon="-1.80828">
        <ele>59</ele>
        <time>2021-04-05T08:11:50.000Z</time>
      </trkpt>
      <trkpt lat="47.19367" lon="-1.80847">
        <ele>59</ele>
        <time>2021-04-05T08:11:52.000Z</time>
      </trkpt>
      <trkpt lat="47.1937" lon="-1.80867">
        <ele>59</ele>
        <time>2021-04-05T08:11:54.000Z</time>
      </trkpt>
      <trkpt lat="47.19373" lon="-1.80886">
        <ele>59</ele>
        <time>2021-04-05T08:11:56.000Z</time>
      </trkpt>
      <trkpt lat="47.19376" lon="-1.80906">
        <ele>60</ele>
        <time>2021-04-05T08:11:58.000Z</time>
      </trkpt>
      <trkpt lat="47.19378" lon="-1.80925">
        <ele>59</ele>
        <time>2021-04-05T08:12:00.000Z</time>
      </trkpt>
      <trkpt lat="47.1938" lon="-1.80944">
        <ele>59</ele>
        <time>2021-04-05T08:12:02.000Z</time>
      </trkpt>
      <trkpt lat="47.19382" lon="-1.80963">
        <ele>59</ele>
        <time>2021-04-05T08:12:04.000Z</time>
      </trkpt>
      <trkpt lat="47.19383" lon="-1.80983">
        <ele>59</ele>
        <time>2021-04-05T08:12:06.000Z</time>
      </trkpt>
      <trkpt lat="47.19385" lon="-1.81003">
        <ele>58</ele>
        <time>2021-04-05T08:12:08.000Z</time>
      </trkpt>
      <trkpt lat="47.19389" lon="-1.81021">
        <ele>58</ele>
        <time>2021-04-05T08:12:10.000Z</time>
      </trkpt>
      <trkpt lat="47.1939" lon="-1.81039">
        <ele>59</ele>
        <time>2021-04-05T08:12:12.000Z</time>
      </trkpt>
      <trkpt lat="47.19392" lon="-1.81058">
        <ele>59</ele>
        <time>2021-04-05T08:12:14.000Z</time>
      </trkpt>
      <trkpt lat="47.19395" lon="-1.81077">
        <ele>58</ele>
        <time>2021-04-05T08:12:16.000Z</time>
      </trkpt>
      <trkpt lat="47.19397" lon="-1.81094">
        <ele>58</ele>
        <time>2021-04-05T08:12:18.000Z</time>
      </trkpt>
      <trkpt lat="47.194" lon="-1.81109">
        <ele>58</ele>
        <time>2021-04-05T08:12:20.000Z</time>
      </trkpt>
      <trkpt lat="47.19408" lon="-1.81121">
        <ele>57</ele>
        <time>2021-04-05T08:12:22.000Z</time>
      </trkpt>
      <trkpt lat="47.1942" lon="-1.81124">
        <ele>56</ele>
        <time>2021-04-05T08:12:24.000Z</time>
      </trkpt>
      <trkpt lat="47.19434" lon="-1.81123">
        <ele>56</ele>
        <time>2021-04-05T08:12:26.000Z</time>
      </trkpt>
      <trkpt lat="47.19446" lon="-1.81124">
        <ele>56</ele>
        <time>2021-04-05T08:12:28.000Z</time>
      </trkpt>
      <trkpt lat="47.19459" lon="-1.81124">
        <ele>56</ele>
        <time>2021-04-05T08:12:30.000Z</time>
      </trkpt>
      <trkpt lat="47.19473" lon="-1.81123">
        <ele>56</ele>
        <time>2021-04-05T08:12:32.000Z</time>
      </trkpt>
      <trkpt lat="47.19487" lon="-1.81124">
        <ele>56</ele>
        <time>2021-04-05T08:12:34.000Z</time>
      </trkpt>
      <trkpt lat="47.195" lon="-1.81124">
        <ele>56</ele>
        <time>2021-04-05T08:12:36.000Z</time>
      </trkpt>
      <trkpt lat="47.19513" lon="-1.81123">
        <ele>56</ele>
        <time>2021-04-05T08:12:38.000Z</time>
      </trkpt>
      <trkpt lat="47.19526" lon="-1.81123">
        <ele>57</ele>
        <time>2021-04-05T08:12:40.000Z</time>
      </trkpt>
      <trkpt lat="47.1954" lon="-1.81121">
        <ele>56</ele>
        <time>2021-04-05T08:12:42.000Z</time>
      </trkpt>
      <trkpt lat="47.19553" lon="-1.81122">
        <ele>55</ele>
        <time>2021-04-05T08:12:44.000Z</time>
      </trkpt>
      <trkpt lat="47.19566" lon="-1.81121">
        <ele>55</ele>
        <time>2021-04-05T08:12:46.000Z</time>
      </trkpt>
      <trkpt lat="47.19579" lon="-1.8112">
        <ele>55</ele>
        <time>2021-04-05T08:12:48.000Z</time>
      </trkpt>
      <trkpt lat="47.19593" lon="-1.81119">
        <ele>56</ele>
        <time>2021-04-05T08:12:50.000Z</time>
      </trkpt>
      <trkpt lat="47.19606" lon="-1.81118">
        <ele>56</ele>
        <time>2021-04-05T08:12:52.000Z</time>
      </trkpt>
      <trkpt lat="47.1962" lon="-1.81119">
        <ele>56</ele>
        <time>2021-04-05T08:12:54.000Z</time>
      </trkpt>
      <trkpt lat="47.19634" lon="-1.81119">
        <ele>56</ele>
        <time>2021-04-05T08:12:56.000Z</time>
      </trkpt>
      <trkpt lat="47.19647" lon="-1.8112">
        <ele>56</ele>
        <time>2021-04-05T08:12:58.000Z</time>
      </trkpt>
      <trkpt lat="47.1966" lon="-1.8112">
        <ele>55</ele>
        <time>2021-04-05T08:13:00.000Z</time>
      </trkpt>
      <trkpt lat="47.19673" lon="-1.8112">
        <ele>55</ele>
        <time>2021-04-05T08:13:02.000Z</time>
      </trkpt>
      <trkpt lat="47.19684" lon="-1.81119">
        <ele>55</ele>
        <time>2021-04-05T08:13:04.000Z</time>
      </trkpt>
      <trkpt lat="47.19694" lon="-1.81119">
        <ele>55</ele>
        <time>2021-04-05T08:13:06.000Z</time>
      </trkpt>
      <trkpt lat="47.19705" lon="-1.81132">
        <ele>54</ele>
        <time>2021-04-05T08:13:09.000Z</time>
      </trkpt>
      <trkpt lat="47.19709" lon="-1.8115">
        <ele>54</ele>
        <time>2021-04-05T08:13:11.000Z</time>
      </trkpt>
      <trkpt lat="47.19712" lon="-1.81169">
        <ele>54</ele>
        <time>2021-04-05T08:13:13.000Z</time>
      </trkpt>
      <trkpt lat="47.19716" lon="-1.81186">
        <ele>53</ele>
        <time>2021-04-05T08:13:15.000Z</time>
      </trkpt>
      <trkpt lat="47.19721" lon="-1.81204">
        <ele>53</ele>
        <time>2021-04-05T08:13:17.000Z</time>
      </trkpt>
      <trkpt lat="47.19729" lon="-1.8122">
        <ele>53</ele>
        <time>2021-04-05T08:13:19.000Z</time>
      </trkpt>
      <trkpt lat="47.19737" lon="-1.81235">
        <ele>53</ele>
        <time>2021-04-05T08:13:21.000Z</time>
      </trkpt>
      <trkpt lat="47.19746" lon="-1.81249">
        <ele>53</ele>
        <time>2021-04-05T08:13:23.000Z</time>
      </trkpt>
      <trkpt lat="47.19754" lon="-1.81261">
        <ele>53</ele>
        <time>2021-04-05T08:13:25.000Z</time>
      </trkpt>
      <trkpt lat="47.19762" lon="-1.81275">
        <ele>52</ele>
        <time>2021-04-05T08:13:27.000Z</time>
      </trkpt>
      <trkpt lat="47.19768" lon="-1.8129">
        <ele>52</ele>
        <time>2021-04-05T08:13:29.000Z</time>
      </trkpt>
      <trkpt lat="47.19774" lon="-1.81305">
        <ele>53</ele>
        <time>2021-04-05T08:13:31.000Z</time>
      </trkpt>
      <trkpt lat="47.19778" lon="-1.81319">
        <ele>54</ele>
        <time>2021-04-05T08:13:33.000Z</time>
      </trkpt>
      <trkpt lat="47.19783" lon="-1.81334">
        <ele>54</ele>
        <time>2021-04-05T08:13:35.000Z</time>
      </trkpt>
      <trkpt lat="47.19787" lon="-1.81348">
        <ele>55</ele>
        <time>2021-04-05T08:13:37.000Z</time>
      </trkpt>
      <trkpt lat="47.19792" lon="-1.81364">
        <ele>55</ele>
        <time>2021-04-05T08:13:39.000Z</time>
      </trkpt>
      <trkpt lat="47.19796" lon="-1.81379">
        <ele>56</ele>
        <time>2021-04-05T08:13:41.000Z</time>
      </trkpt>
      <trkpt lat="47.19801" lon="-1.81394">
        <ele>56</ele>
        <time>2021-04-05T08:13:43.000Z</time>
      </trkpt>
      <trkpt lat="47.19805" lon="-1.81408">
        <ele>57</ele>
        <time>2021-04-05T08:13:45.000Z</time>
      </trkpt>
      <trkpt lat="47.1981" lon="-1.81423">
        <ele>57</ele>
        <time>2021-04-05T08:13:47.000Z</time>
      </trkpt>
      <trkpt lat="47.19814" lon="-1.81437">
        <ele>57</ele>
        <time>2021-04-05T08:13:49.000Z</time>
      </trkpt>
      <trkpt lat="47.19819" lon="-1.81452">
        <ele>58</ele>
        <time>2021-04-05T08:13:51.000Z</time>
      </trkpt>
      <trkpt lat="47.19824" lon="-1.81466">
        <ele>58</ele>
        <time>2021-04-05T08:13:53.000Z</time>
      </trkpt>
      <trkpt lat="47.1983" lon="-1.8148">
        <ele>58</ele>
        <time>2021-04-05T08:13:55.000Z</time>
      </trkpt>
      <trkpt lat="47.19835" lon="-1.81494">
        <ele>58</ele>
        <time>2021-04-05T08:13:57.000Z</time>
      </trkpt>
      <trkpt lat="47.19841" lon="-1.81508">
        <ele>59</ele>
        <time>2021-04-05T08:13:59.000Z</time>
      </trkpt>
      <trkpt lat="47.19846" lon="-1.81523">
        <ele>59</ele>
        <time>2021-04-05T08:14:01.000Z</time>
      </trkpt>
      <trkpt lat="47.19851" lon="-1.81537">
        <ele>59</ele>
        <time>2021-04-05T08:14:03.000Z</time>
      </trkpt>
      <trkpt lat="47.19856" lon="-1.81551">
        <ele>59</ele>
        <time>2021-04-05T08:14:05.000Z</time>
      </trkpt>
      <trkpt lat="47.19862" lon="-1.81566">
        <ele>59</ele>
        <time>2021-04-05T08:14:07.000Z</time>
      </trkpt>
      <trkpt lat="47.19867" lon="-1.81581">
        <ele>59</ele>
        <time>2021-04-05T08:14:09.000Z</time>
      </trkpt>
      <trkpt lat="47.1987" lon="-1.81597">
        <ele>59</ele>
        <time>2021-04-05T08:14:11.000Z</time>
      </trkpt>
      <trkpt lat="47.19873" lon="-1.81613">
        <ele>59</ele>
        <time>2021-04-05T08:14:13.000Z</time>
      </trkpt>
      <trkpt lat="47.19876" lon="-1.81629">
        <ele>58</ele>
        <time>2021-04-05T08:14:15.000Z</time>
      </trkpt>
      <trkpt lat="47.19879" lon="-1.81646">
        <ele>58</ele>
        <time>2021-04-05T08:14:17.000Z</time>
      </trkpt>
      <trkpt lat="47.19881" lon="-1.81661">
        <ele>58</ele>
        <time>2021-04-05T08:14:19.000Z</time>
      </trkpt>
      <trkpt lat="47.19883" lon="-1.81679">
        <ele>59</ele>
        <time>2021-04-05T08:14:21.000Z</time>
      </trkpt>
      <trkpt lat="47.19885" lon="-1.81695">
        <ele>59</ele>
        <time>2021-04-05T08:14:23.000Z</time>
      </trkpt>
      <trkpt lat="47.19888" lon="-1.8171">
        <ele>59</ele>
        <time>2021-04-05T08:14:25.000Z</time>
      </trkpt>
      <trkpt lat="47.19891" lon="-1.81727">
        <ele>59</ele>
        <time>2021-04-05T08:14:27.000Z</time>
      </trkpt>
      <trkpt lat="47.19893" lon="-1.81744">
        <ele>59</ele>
        <time>2021-04-05T08:14:29.000Z</time>
      </trkpt>
      <trkpt lat="47.19897" lon="-1.8176">
        <ele>59</ele>
        <time>2021-04-05T08:14:31.000Z</time>
      </trkpt>
      <trkpt lat="47.199" lon="-1.81776">
        <ele>59</ele>
        <time>2021-04-05T08:14:33.000Z</time>
      </trkpt>
      <trkpt lat="47.19904" lon="-1.8179">
        <ele>59</ele>
        <time>2021-04-05T08:14:35.000Z</time>
      </trkpt>
      <trkpt lat="47.19908" lon="-1.81805">
        <ele>59</ele>
        <time>2021-04-05T08:14:37.000Z</time>
      </trkpt>
      <trkpt lat="47.19911" lon="-1.81821">
        <ele>60</ele>
        <time>2021-04-05T08:14:39.000Z</time>
      </trkpt>
      <trkpt lat="47.19915" lon="-1.81837">
        <ele>60</ele>
        <time>2021-04-05T08:14:41.000Z</time>
      </trkpt>
      <trkpt lat="47.19918" lon="-1.81852">
        <ele>61</ele>
        <time>2021-04-05T08:14:43.000Z</time>
      </trkpt>
      <trkpt lat="47.1992" lon="-1.81868">
        <ele>61</ele>
        <time>2021-04-05T08:14:45.000Z</time>
      </trkpt>
      <trkpt lat="47.19923" lon="-1.81884">
        <ele>61</ele>
        <time>2021-04-05T08:14:47.000Z</time>
      </trkpt>
      <trkpt lat="47.19925" lon="-1.819">
        <ele>61</ele>
        <time>2021-04-05T08:14:49.000Z</time>
      </trkpt>
      <trkpt lat="47.19928" lon="-1.81915">
        <ele>61</ele>
        <time>2021-04-05T08:14:51.000Z</time>
      </trkpt>
      <trkpt lat="47.19931" lon="-1.81931">
        <ele>61</ele>
        <time>2021-04-05T08:14:53.000Z</time>
      </trkpt>
      <trkpt lat="47.19933" lon="-1.81947">
        <ele>62</ele>
        <time>2021-04-05T08:14:55.000Z</time>
      </trkpt>
      <trkpt lat="47.19936" lon="-1.81962">
        <ele>61</ele>
        <time>2021-04-05T08:14:57.000Z</time>
      </trkpt>
      <trkpt lat="47.19938" lon="-1.81978">
        <ele>62</ele>
        <time>2021-04-05T08:14:59.000Z</time>
      </trkpt>
      <trkpt lat="47.19941" lon="-1.81994">
        <ele>62</ele>
        <time>2021-04-05T08:15:01.000Z</time>
      </trkpt>
      <trkpt lat="47.19944" lon="-1.8201">
        <ele>62</ele>
        <time>2021-04-05T08:15:03.000Z</time>
      </trkpt>
      <trkpt lat="47.19947" lon="-1.82026">
        <ele>63</ele>
        <time>2021-04-05T08:15:05.000Z</time>
      </trkpt>
      <trkpt lat="47.1995" lon="-1.82042">
        <ele>63</ele>
        <time>2021-04-05T08:15:07.000Z</time>
      </trkpt>
      <trkpt lat="47.19953" lon="-1.82058">
        <ele>63</ele>
        <time>2021-04-05T08:15:09.000Z</time>
      </trkpt>
      <trkpt lat="47.19955" lon="-1.82075">
        <ele>64</ele>
        <time>2021-04-05T08:15:11.000Z</time>
      </trkpt>
      <trkpt lat="47.19958" lon="-1.8209">
        <ele>64</ele>
        <time>2021-04-05T08:15:13.000Z</time>
      </trkpt>
      <trkpt lat="47.19959" lon="-1.82106">
        <ele>64</ele>
        <time>2021-04-05T08:15:15.000Z</time>
      </trkpt>
      <trkpt lat="47.19959" lon="-1.82122">
        <ele>64</ele>
        <time>2021-04-05T08:15:17.000Z</time>
      </trkpt>
      <trkpt lat="47.19957" lon="-1.82138">
        <ele>64</ele>
        <time>2021-04-05T08:15:19.000Z</time>
      </trkpt>
      <trkpt lat="47.19953" lon="-1.82154">
        <ele>64</ele>
        <time>2021-04-05T08:15:21.000Z</time>
      </trkpt>
      <trkpt lat="47.19947" lon="-1.82169">
        <ele>64</ele>
        <time>2021-04-05T08:15:23.000Z</time>
      </trkpt>
      <trkpt lat="47.19942" lon="-1.82183">
        <ele>64</ele>
        <time>2021-04-05T08:15:25.000Z</time>
      </trkpt>
      <trkpt lat="47.19937" lon="-1.82196">
        <ele>65</ele>
        <time>2021-04-05T08:15:27.000Z</time>
      </trkpt>
      <trkpt lat="47.19931" lon="-1.8221">
        <ele>65</ele>
        <time>2021-04-05T08:15:29.000Z</time>
      </trkpt>
      <trkpt lat="47.19925" lon="-1.82224">
        <ele>65</ele>
        <time>2021-04-05T08:15:31.000Z</time>
      </trkpt>
      <trkpt lat="47.19919" lon="-1.82238">
        <ele>65</ele>
        <time>2021-04-05T08:15:33.000Z</time>
      </trkpt>
      <trkpt lat="47.19913" lon="-1.82252">
        <ele>65</ele>
        <time>2021-04-05T08:15:35.000Z</time>
      </trkpt>
      <trkpt lat="47.19907" lon="-1.82266">
        <ele>65</ele>
        <time>2021-04-05T08:15:37.000Z</time>
      </trkpt>
      <trkpt lat="47.19901" lon="-1.8228">
        <ele>65</ele>
        <time>2021-04-05T08:15:39.000Z</time>
      </trkpt>
      <trkpt lat="47.19895" lon="-1.82295">
        <ele>65</ele>
        <time>2021-04-05T08:15:41.000Z</time>
      </trkpt>
      <trkpt lat="47.19889" lon="-1.82309">
        <ele>65</ele>
        <time>2021-04-05T08:15:43.000Z</time>
      </trkpt>
      <trkpt lat="47.19884" lon="-1.82323">
        <ele>65</ele>
        <time>2021-04-05T08:15:45.000Z</time>
      </trkpt>
      <trkpt lat="47.19878" lon="-1.82338">
        <ele>65</ele>
        <time>2021-04-05T08:15:47.000Z</time>
      </trkpt>
      <trkpt lat="47.19872" lon="-1.82352">
        <ele>66</ele>
        <time>2021-04-05T08:15:49.000Z</time>
      </trkpt>
      <trkpt lat="47.19867" lon="-1.82368">
        <ele>66</ele>
        <time>2021-04-05T08:15:51.000Z</time>
      </trkpt>
      <trkpt lat="47.19861" lon="-1.82384">
        <ele>66</ele>
        <time>2021-04-05T08:15:53.000Z</time>
      </trkpt>
      <trkpt lat="47.19856" lon="-1.824">
        <ele>66</ele>
        <time>2021-04-05T08:15:55.000Z</time>
      </trkpt>
      <trkpt lat="47.19851" lon="-1.82415">
        <ele>67</ele>
        <time>2021-04-05T08:15:57.000Z</time>
      </trkpt>
      <trkpt lat="47.19846" lon="-1.8243">
        <ele>67</ele>
        <time>2021-04-05T08:15:59.000Z</time>
      </trkpt>
      <trkpt lat="47.1984" lon="-1.82444">
        <ele>67</ele>
        <time>2021-04-05T08:16:01.000Z</time>
      </trkpt>
      <trkpt lat="47.19833" lon="-1.82456">
        <ele>67</ele>
        <time>2021-04-05T08:16:03.000Z</time>
      </trkpt>
      <trkpt lat="47.19826" lon="-1.82469">
        <ele>67</ele>
        <time>2021-04-05T08:16:05.000Z</time>
      </trkpt>
      <trkpt lat="47.19818" lon="-1.82481">
        <ele>67</ele>
        <time>2021-04-05T08:16:07.000Z</time>
      </trkpt>
      <trkpt lat="47.1981" lon="-1.82494">
        <ele>67</ele>
        <time>2021-04-05T08:16:09.000Z</time>
      </trkpt>
      <trkpt lat="47.19802" lon="-1.82507">
        <ele>67</ele>
        <time>2021-04-05T08:16:11.000Z</time>
      </trkpt>
      <trkpt lat="47.19794" lon="-1.8252">
        <ele>67</ele>
        <time>2021-04-05T08:16:13.000Z</time>
      </trkpt>
      <trkpt lat="47.19785" lon="-1.82533">
        <ele>67</ele>
        <time>2021-04-05T08:16:15.000Z</time>
      </trkpt>
      <trkpt lat="47.19777" lon="-1.82546">
        <ele>67</ele>
        <time>2021-04-05T08:16:17.000Z</time>
      </trkpt>
      <trkpt lat="47.19769" lon="-1.8256">
        <ele>67</ele>
        <time>2021-04-05T08:16:19.000Z</time>
      </trkpt>
      <trkpt lat="47.1976" lon="-1.82574">
        <ele>67</ele>
        <time>2021-04-05T08:16:21.000Z</time>
      </trkpt>
      <trkpt lat="47.19752" lon="-1.82588">
        <ele>67</ele>
        <time>2021-04-05T08:16:23.000Z</time>
      </trkpt>
      <trkpt lat="47.19744" lon="-1.82601">
        <ele>67</ele>
        <time>2021-04-05T08:16:25.000Z</time>
      </trkpt>
      <trkpt lat="47.19736" lon="-1.82615">
        <ele>67</ele>
        <time>2021-04-05T08:16:27.000Z</time>
      </trkpt>
      <trkpt lat="47.1973" lon="-1.82631">
        <ele>66</ele>
        <time>2021-04-05T08:16:29.000Z</time>
      </trkpt>
      <trkpt lat="47.19725" lon="-1.82648">
        <ele>66</ele>
        <time>2021-04-05T08:16:31.000Z</time>
      </trkpt>
      <trkpt lat="47.1972" lon="-1.82665">
        <ele>66</ele>
        <time>2021-04-05T08:16:33.000Z</time>
      </trkpt>
      <trkpt lat="47.19717" lon="-1.82683">
        <ele>67</ele>
        <time>2021-04-05T08:16:35.000Z</time>
      </trkpt>
      <trkpt lat="47.19712" lon="-1.827">
        <ele>66</ele>
        <time>2021-04-05T08:16:37.000Z</time>
      </trkpt>
      <trkpt lat="47.19708" lon="-1.82717">
        <ele>66</ele>
        <time>2021-04-05T08:16:39.000Z</time>
      </trkpt>
      <trkpt lat="47.19704" lon="-1.82734">
        <ele>66</ele>
        <time>2021-04-05T08:16:41.000Z</time>
      </trkpt>
      <trkpt lat="47.197" lon="-1.82752">
        <ele>66</ele>
        <time>2021-04-05T08:16:43.000Z</time>
      </trkpt>
      <trkpt lat="47.19697" lon="-1.82769">
        <ele>65</ele>
        <time>2021-04-05T08:16:45.000Z</time>
      </trkpt>
      <trkpt lat="47.19693" lon="-1.82787">
        <ele>65</ele>
        <time>2021-04-05T08:16:47.000Z</time>
      </trkpt>
      <trkpt lat="47.1969" lon="-1.82804">
        <ele>65</ele>
        <time>2021-04-05T08:16:49.000Z</time>
      </trkpt>
      <trkpt lat="47.19686" lon="-1.82822">
        <ele>65</ele>
        <time>2021-04-05T08:16:51.000Z</time>
      </trkpt>
      <trkpt lat="47.19683" lon="-1.82839">
        <ele>66</ele>
        <time>2021-04-05T08:16:53.000Z</time>
      </trkpt>
      <trkpt lat="47.19679" lon="-1.82856">
        <ele>66</ele>
        <time>2021-04-05T08:16:55.000Z</time>
      </trkpt>
      <trkpt lat="47.19676" lon="-1.82873">
        <ele>66</ele>
        <time>2021-04-05T08:16:57.000Z</time>
      </trkpt>
      <trkpt lat="47.19672" lon="-1.8289">
        <ele>66</ele>
        <time>2021-04-05T08:16:59.000Z</time>
      </trkpt>
      <trkpt lat="47.19669" lon="-1.82907">
        <ele>65</ele>
        <time>2021-04-05T08:17:01.000Z</time>
      </trkpt>
      <trkpt lat="47.19665" lon="-1.82925">
        <ele>66</ele>
        <time>2021-04-05T08:17:03.000Z</time>
      </trkpt>
      <trkpt lat="47.19662" lon="-1.82943">
        <ele>66</ele>
        <time>2021-04-05T08:17:05.000Z</time>
      </trkpt>
      <trkpt lat="47.19659" lon="-1.82961">
        <ele>66</ele>
        <time>2021-04-05T08:17:07.000Z</time>
      </trkpt>
      <trkpt lat="47.19656" lon="-1.82979">
        <ele>66</ele>
        <time>2021-04-05T08:17:09.000Z</time>
      </trkpt>
      <trkpt lat="47.19653" lon="-1.82997">
        <ele>65</ele>
        <time>2021-04-05T08:17:11.000Z</time>
      </trkpt>
      <trkpt lat="47.19649" lon="-1.83014">
        <ele>66</ele>
        <time>2021-04-05T08:17:13.000Z</time>
      </trkpt>
      <trkpt lat="47.19645" lon="-1.83032">
        <ele>65</ele>
        <time>2021-04-05T08:17:15.000Z</time>
      </trkpt>
      <trkpt lat="47.19642" lon="-1.83049">
        <ele>66</ele>
        <time>2021-04-05T08:17:17.000Z</time>
      </trkpt>
      <trkpt lat="47.19639" lon="-1.83066">
        <ele>66</ele>
        <time>2021-04-05T08:17:19.000Z</time>
      </trkpt>
      <trkpt lat="47.19636" lon="-1.83083">
        <ele>66</ele>
        <time>2021-04-05T08:17:21.000Z</time>
      </trkpt>
      <trkpt lat="47.19632" lon="-1.831">
        <ele>66</ele>
        <time>2021-04-05T08:17:23.000Z</time>
      </trkpt>
      <trkpt lat="47.1963" lon="-1.83117">
        <ele>66</ele>
        <time>2021-04-05T08:17:25.000Z</time>
      </trkpt>
      <trkpt lat="47.19627" lon="-1.83134">
        <ele>66</ele>
        <time>2021-04-05T08:17:27.000Z</time>
      </trkpt>
      <trkpt lat="47.19626" lon="-1.83152">
        <ele>66</ele>
        <time>2021-04-05T08:17:29.000Z</time>
      </trkpt>
      <trkpt lat="47.19624" lon="-1.8317">
        <ele>65</ele>
        <time>2021-04-05T08:17:31.000Z</time>
      </trkpt>
      <trkpt lat="47.19623" lon="-1.83188">
        <ele>65</ele>
        <time>2021-04-05T08:17:33.000Z</time>
      </trkpt>
      <trkpt lat="47.19623" lon="-1.83206">
        <ele>65</ele>
        <time>2021-04-05T08:17:35.000Z</time>
      </trkpt>
      <trkpt lat="47.19624" lon="-1.83224">
        <ele>65</ele>
        <time>2021-04-05T08:17:37.000Z</time>
      </trkpt>
      <trkpt lat="47.19624" lon="-1.83242">
        <ele>65</ele>
        <time>2021-04-05T08:17:39.000Z</time>
      </trkpt>
      <trkpt lat="47.19625" lon="-1.8326">
        <ele>64</ele>
        <time>2021-04-05T08:17:41.000Z</time>
      </trkpt>
      <trkpt lat="47.19626" lon="-1.83279">
        <ele>64</ele>
        <time>2021-04-05T08:17:43.000Z</time>
      </trkpt>
      <trkpt lat="47.19626" lon="-1.83297">
        <ele>64</ele>
        <time>2021-04-05T08:17:45.000Z</time>
      </trkpt>
      <trkpt lat="47.19627" lon="-1.83314">
        <ele>64</ele>
        <time>2021-04-05T08:17:47.000Z</time>
      </trkpt>
      <trkpt lat="47.19628" lon="-1.83331">
        <ele>64</ele>
        <time>2021-04-05T08:17:49.000Z</time>
      </trkpt>
      <trkpt lat="47.19629" lon="-1.8335">
        <ele>64</ele>
        <time>2021-04-05T08:17:51.000Z</time>
      </trkpt>
      <trkpt lat="47.1963" lon="-1.83367">
        <ele>64</ele>
        <time>2021-04-05T08:17:53.000Z</time>
      </trkpt>
      <trkpt lat="47.1963" lon="-1.83386">
        <ele>64</ele>
        <time>2021-04-05T08:17:55.000Z</time>
      </trkpt>
      <trkpt lat="47.19631" lon="-1.83403">
        <ele>64</ele>
        <time>2021-04-05T08:17:57.000Z</time>
      </trkpt>
      <trkpt lat="47.19632" lon="-1.83422">
        <ele>64</ele>
        <time>2021-04-05T08:17:59.000Z</time>
      </trkpt>
      <trkpt lat="47.19633" lon="-1.8344">
        <ele>64</ele>
        <time>2021-04-05T08:18:01.000Z</time>
      </trkpt>
      <trkpt lat="47.19634" lon="-1.83459">
        <ele>64</ele>
        <time>2021-04-05T08:18:03.000Z</time>
      </trkpt>
      <trkpt lat="47.19635" lon="-1.83477">
        <ele>64</ele>
        <time>2021-04-05T08:18:05.000Z</time>
      </trkpt>
      <trkpt lat="47.19636" lon="-1.83495">
        <ele>64</ele>
        <time>2021-04-05T08:18:07.000Z</time>
      </trkpt>
      <trkpt lat="47.19637" lon="-1.83513">
        <ele>64</ele>
        <time>2021-04-05T08:18:09.000Z</time>
      </trkpt>
      <trkpt lat="47.19637" lon="-1.8353">
        <ele>64</ele>
        <time>2021-04-05T08:18:11.000Z</time>
      </trkpt>
      <trkpt lat="47.19637" lon="-1.83548">
        <ele>64</ele>
        <time>2021-04-05T08:18:13.000Z</time>
      </trkpt>
      <trkpt lat="47.19635" lon="-1.83565">
        <ele>64</ele>
        <time>2021-04-05T08:18:15.000Z</time>
      </trkpt>
      <trkpt lat="47.19632" lon="-1.83583">
        <ele>63</ele>
        <time>2021-04-05T08:18:17.000Z</time>
      </trkpt>
      <trkpt lat="47.19628" lon="-1.836">
        <ele>62</ele>
        <time>2021-04-05T08:18:19.000Z</time>
      </trkpt>
      <trkpt lat="47.19623" lon="-1.83619">
        <ele>61</ele>
        <time>2021-04-05T08:18:21.000Z</time>
      </trkpt>
      <trkpt lat="47.19618" lon="-1.83637">
        <ele>61</ele>
        <time>2021-04-05T08:18:23.000Z</time>
      </trkpt>
      <trkpt lat="47.19615" lon="-1.83655">
        <ele>61</ele>
        <time>2021-04-05T08:18:25.000Z</time>
      </trkpt>
      <trkpt lat="47.19612" lon="-1.83674">
        <ele>61</ele>
        <time>2021-04-05T08:18:27.000Z</time>
      </trkpt>
      <trkpt lat="47.19612" lon="-1.83693">
        <ele>62</ele>
        <time>2021-04-05T08:18:29.000Z</time>
      </trkpt>
      <trkpt lat="47.19612" lon="-1.83711">
        <ele>62</ele>
        <time>2021-04-05T08:18:31.000Z</time>
      </trkpt>
      <trkpt lat="47.19615" lon="-1.83729">
        <ele>62</ele>
        <time>2021-04-05T08:18:33.000Z</time>
      </trkpt>
      <trkpt lat="47.19618" lon="-1.83747">
        <ele>62</ele>
        <time>2021-04-05T08:18:35.000Z</time>
      </trkpt>
      <trkpt lat="47.19621" lon="-1.83765">
        <ele>63</ele>
        <time>2021-04-05T08:18:37.000Z</time>
      </trkpt>
      <trkpt lat="47.19625" lon="-1.83782">
        <ele>63</ele>
        <time>2021-04-05T08:18:39.000Z</time>
      </trkpt>
      <trkpt lat="47.19628" lon="-1.83799">
        <ele>62</ele>
        <time>2021-04-05T08:18:41.000Z</time>
      </trkpt>
      <trkpt lat="47.1963" lon="-1.83818">
        <ele>62</ele>
        <time>2021-04-05T08:18:43.000Z</time>
      </trkpt>
      <trkpt lat="47.19634" lon="-1.83836">
        <ele>62</ele>
        <time>2021-04-05T08:18:45.000Z</time>
      </trkpt>
      <trkpt lat="47.19638" lon="-1.83853">
        <ele>63</ele>
        <time>2021-04-05T08:18:47.000Z</time>
      </trkpt>
      <trkpt lat="47.19641" lon="-1.83871">
        <ele>63</ele>
        <time>2021-04-05T08:18:49.000Z</time>
      </trkpt>
      <trkpt lat="47.19644" lon="-1.83889">
        <ele>63</ele>
        <time>2021-04-05T08:18:51.000Z</time>
      </trkpt>
      <trkpt lat="47.19647" lon="-1.83907">
        <ele>62</ele>
        <time>2021-04-05T08:18:53.000Z</time>
      </trkpt>
      <trkpt lat="47.1965" lon="-1.83924">
        <ele>62</ele>
        <time>2021-04-05T08:18:55.000Z</time>
      </trkpt>
      <trkpt lat="47.19654" lon="-1.83941">
        <ele>63</ele>
        <time>2021-04-05T08:18:57.000Z</time>
      </trkpt>
      <trkpt lat="47.19657" lon="-1.83959">
        <ele>63</ele>
        <time>2021-04-05T08:18:59.000Z</time>
      </trkpt>
      <trkpt lat="47.1966" lon="-1.83976">
        <ele>63</ele>
        <time>2021-04-05T08:19:01.000Z</time>
      </trkpt>
      <trkpt lat="47.19662" lon="-1.83993">
        <ele>63</ele>
        <time>2021-04-05T08:19:03.000Z</time>
      </trkpt>
      <trkpt lat="47.19664" lon="-1.8401">
        <ele>63</ele>
        <time>2021-04-05T08:19:05.000Z</time>
      </trkpt>
      <trkpt lat="47.19665" lon="-1.84028">
        <ele>63</ele>
        <time>2021-04-05T08:19:07.000Z</time>
      </trkpt>
      <trkpt lat="47.19665" lon="-1.84046">
        <ele>63</ele>
        <time>2021-04-05T08:19:09.000Z</time>
      </trkpt>
      <trkpt lat="47.19664" lon="-1.84063">
        <ele>63</ele>
        <time>2021-04-05T08:19:11.000Z</time>
      </trkpt>
      <trkpt lat="47.1966" lon="-1.84082">
        <ele>64</ele>
        <time>2021-04-05T08:19:13.000Z</time>
      </trkpt>
      <trkpt lat="47.19655" lon="-1.84098">
        <ele>64</ele>
        <time>2021-04-05T08:19:15.000Z</time>
      </trkpt>
      <trkpt lat="47.19649" lon="-1.84113">
        <ele>64</ele>
        <time>2021-04-05T08:19:17.000Z</time>
      </trkpt>
      <trkpt lat="47.19642" lon="-1.84126">
        <ele>64</ele>
        <time>2021-04-05T08:19:19.000Z</time>
      </trkpt>
      <trkpt lat="47.19634" lon="-1.8414">
        <ele>64</ele>
        <time>2021-04-05T08:19:21.000Z</time>
      </trkpt>
      <trkpt lat="47.19626" lon="-1.84154">
        <ele>64</ele>
        <time>2021-04-05T08:19:23.000Z</time>
      </trkpt>
      <trkpt lat="47.19617" lon="-1.84169">
        <ele>64</ele>
        <time>2021-04-05T08:19:25.000Z</time>
      </trkpt>
      <trkpt lat="47.19609" lon="-1.84183">
        <ele>63</ele>
        <time>2021-04-05T08:19:27.000Z</time>
      </trkpt>
      <trkpt lat="47.19601" lon="-1.84198">
        <ele>63</ele>
        <time>2021-04-05T08:19:29.000Z</time>
      </trkpt>
      <trkpt lat="47.19594" lon="-1.84212">
        <ele>63</ele>
        <time>2021-04-05T08:19:31.000Z</time>
      </trkpt>
      <trkpt lat="47.19586" lon="-1.84226">
        <ele>63</ele>
        <time>2021-04-05T08:19:33.000Z</time>
      </trkpt>
      <trkpt lat="47.19578" lon="-1.84239">
        <ele>63</ele>
        <time>2021-04-05T08:19:35.000Z</time>
      </trkpt>
      <trkpt lat="47.19571" lon="-1.84253">
        <ele>63</ele>
        <time>2021-04-05T08:19:37.000Z</time>
      </trkpt>
      <trkpt lat="47.19563" lon="-1.84267">
        <ele>63</ele>
        <time>2021-04-05T08:19:39.000Z</time>
      </trkpt>
      <trkpt lat="47.19555" lon="-1.84281">
        <ele>63</ele>
        <time>2021-04-05T08:19:41.000Z</time>
      </trkpt>
      <trkpt lat="47.19547" lon="-1.84295">
        <ele>63</ele>
        <time>2021-04-05T08:19:43.000Z</time>
      </trkpt>
      <trkpt lat="47.19539" lon="-1.84308">
        <ele>62</ele>
        <time>2021-04-05T08:19:45.000Z</time>
      </trkpt>
      <trkpt lat="47.19531" lon="-1.84322">
        <ele>62</ele>
        <time>2021-04-05T08:19:47.000Z</time>
      </trkpt>
      <trkpt lat="47.19522" lon="-1.84337">
        <ele>62</ele>
        <time>2021-04-05T08:19:49.000Z</time>
      </trkpt>
      <trkpt lat="47.19514" lon="-1.84352">
        <ele>62</ele>
        <time>2021-04-05T08:19:51.000Z</time>
      </trkpt>
      <trkpt lat="47.19506" lon="-1.84366">
        <ele>61</ele>
        <time>2021-04-05T08:19:53.000Z</time>
      </trkpt>
      <trkpt lat="47.19497" lon="-1.84381">
        <ele>61</ele>
        <time>2021-04-05T08:19:55.000Z</time>
      </trkpt>
      <trkpt lat="47.19489" lon="-1.84395">
        <ele>61</ele>
        <time>2021-04-05T08:19:57.000Z</time>
      </trkpt>
      <trkpt lat="47.19481" lon="-1.84408">
        <ele>61</ele>
        <time>2021-04-05T08:19:59.000Z</time>
      </trkpt>
      <trkpt lat="47.19473" lon="-1.84422">
        <ele>61</ele>
        <time>2021-04-05T08:20:01.000Z</time>
      </trkpt>
      <trkpt lat="47.19465" lon="-1.84436">
        <ele>60</ele>
        <time>2021-04-05T08:20:03.000Z</time>
      </trkpt>
      <trkpt lat="47.19458" lon="-1.8445">
        <ele>60</ele>
        <time>2021-04-05T08:20:05.000Z</time>
      </trkpt>
      <trkpt lat="47.1945" lon="-1.84464">
        <ele>60</ele>
        <time>2021-04-05T08:20:07.000Z</time>
      </trkpt>
      <trkpt lat="47.19442" lon="-1.84479">
        <ele>60</ele>
        <time>2021-04-05T08:20:09.000Z</time>
      </trkpt>
      <trkpt lat="47.19434" lon="-1.84493">
        <ele>60</ele>
        <time>2021-04-05T08:20:11.000Z</time>
      </trkpt>
      <trkpt lat="47.19426" lon="-1.84508">
        <ele>60</ele>
        <time>2021-04-05T08:20:13.000Z</time>
      </trkpt>
      <trkpt lat="47.19419" lon="-1.84521">
        <ele>61</ele>
        <time>2021-04-05T08:20:15.000Z</time>
      </trkpt>
      <trkpt lat="47.1941" lon="-1.84535">
        <ele>61</ele>
        <time>2021-04-05T08:20:17.000Z</time>
      </trkpt>
      <trkpt lat="47.19401" lon="-1.84546">
        <ele>61</ele>
        <time>2021-04-05T08:20:19.000Z</time>
      </trkpt>
      <trkpt lat="47.19392" lon="-1.84557">
        <ele>61</ele>
        <time>2021-04-05T08:20:21.000Z</time>
      </trkpt>
      <trkpt lat="47.19383" lon="-1.84566">
        <ele>61</ele>
        <time>2021-04-05T08:20:23.000Z</time>
      </trkpt>
      <trkpt lat="47.19372" lon="-1.84573">
        <ele>61</ele>
        <time>2021-04-05T08:20:25.000Z</time>
      </trkpt>
      <trkpt lat="47.19359" lon="-1.84575">
        <ele>61</ele>
        <time>2021-04-05T08:20:27.000Z</time>
      </trkpt>
      <trkpt lat="47.19346" lon="-1.8458">
        <ele>61</ele>
        <time>2021-04-05T08:20:29.000Z</time>
      </trkpt>
      <trkpt lat="47.19337" lon="-1.84595">
        <ele>60</ele>
        <time>2021-04-05T08:20:31.000Z</time>
      </trkpt>
      <trkpt lat="47.19334" lon="-1.84614">
        <ele>60</ele>
        <time>2021-04-05T08:20:33.000Z</time>
      </trkpt>
      <trkpt lat="47.19334" lon="-1.84635">
        <ele>60</ele>
        <time>2021-04-05T08:20:35.000Z</time>
      </trkpt>
      <trkpt lat="47.19333" lon="-1.84655">
        <ele>59</ele>
        <time>2021-04-05T08:20:37.000Z</time>
      </trkpt>
      <trkpt lat="47.19333" lon="-1.84675">
        <ele>59</ele>
        <time>2021-04-05T08:20:39.000Z</time>
      </trkpt>
      <trkpt lat="47.19332" lon="-1.84694">
        <ele>59</ele>
        <time>2021-04-05T08:20:41.000Z</time>
      </trkpt>
      <trkpt lat="47.19332" lon="-1.84714">
        <ele>58</ele>
        <time>2021-04-05T08:20:43.000Z</time>
      </trkpt>
      <trkpt lat="47.19331" lon="-1.84733">
        <ele>58</ele>
        <time>2021-04-05T08:20:45.000Z</time>
      </trkpt>
      <trkpt lat="47.1933" lon="-1.84751">
        <ele>58</ele>
        <time>2021-04-05T08:20:47.000Z</time>
      </trkpt>
      <trkpt lat="47.19329" lon="-1.8477">
        <ele>58</ele>
        <time>2021-04-05T08:20:49.000Z</time>
      </trkpt>
      <trkpt lat="47.19328" lon="-1.8479">
        <ele>58</ele>
        <time>2021-04-05T08:20:51.000Z</time>
      </trkpt>
      <trkpt lat="47.19326" lon="-1.84809">
        <ele>58</ele>
        <time>2021-04-05T08:20:53.000Z</time>
      </trkpt>
      <trkpt lat="47.19323" lon="-1.84829">
        <ele>58</ele>
        <time>2021-04-05T08:20:55.000Z</time>
      </trkpt>
      <trkpt lat="47.1932" lon="-1.84847">
        <ele>57</ele>
        <time>2021-04-05T08:20:57.000Z</time>
      </trkpt>
      <trkpt lat="47.19316" lon="-1.84866">
        <ele>58</ele>
        <time>2021-04-05T08:20:59.000Z</time>
      </trkpt>
      <trkpt lat="47.1931" lon="-1.84885">
        <ele>58</ele>
        <time>2021-04-05T08:21:01.000Z</time>
      </trkpt>
      <trkpt lat="47.19304" lon="-1.84902">
        <ele>58</ele>
        <time>2021-04-05T08:21:03.000Z</time>
      </trkpt>
      <trkpt lat="47.19298" lon="-1.8492">
        <ele>58</ele>
        <time>2021-04-05T08:21:05.000Z</time>
      </trkpt>
      <trkpt lat="47.19293" lon="-1.84936">
        <ele>58</ele>
        <time>2021-04-05T08:21:07.000Z</time>
      </trkpt>
      <trkpt lat="47.19287" lon="-1.84952">
        <ele>58</ele>
        <time>2021-04-05T08:21:09.000Z</time>
      </trkpt>
      <trkpt lat="47.19282" lon="-1.84968">
        <ele>57</ele>
        <time>2021-04-05T08:21:11.000Z</time>
      </trkpt>
      <trkpt lat="47.19277" lon="-1.84986">
        <ele>57</ele>
        <time>2021-04-05T08:21:13.000Z</time>
      </trkpt>
      <trkpt lat="47.19272" lon="-1.85003">
        <ele>57</ele>
        <time>2021-04-05T08:21:15.000Z</time>
      </trkpt>
      <trkpt lat="47.19269" lon="-1.85021">
        <ele>58</ele>
        <time>2021-04-05T08:21:17.000Z</time>
      </trkpt>
      <trkpt lat="47.19267" lon="-1.85039">
        <ele>58</ele>
        <time>2021-04-05T08:21:19.000Z</time>
      </trkpt>
      <trkpt lat="47.19265" lon="-1.85056">
        <ele>57</ele>
        <time>2021-04-05T08:21:21.000Z</time>
      </trkpt>
      <trkpt lat="47.19264" lon="-1.85073">
        <ele>57</ele>
        <time>2021-04-05T08:21:23.000Z</time>
      </trkpt>
      <trkpt lat="47.19264" lon="-1.8509">
        <ele>57</ele>
        <time>2021-04-05T08:21:25.000Z</time>
      </trkpt>
      <trkpt lat="47.19266" lon="-1.85108">
        <ele>57</ele>
        <time>2021-04-05T08:21:27.000Z</time>
      </trkpt>
      <trkpt lat="47.19268" lon="-1.85127">
        <ele>56</ele>
        <time>2021-04-05T08:21:29.000Z</time>
      </trkpt>
      <trkpt lat="47.1927" lon="-1.85145">
        <ele>55</ele>
        <time>2021-04-05T08:21:31.000Z</time>
      </trkpt>
      <trkpt lat="47.19272" lon="-1.85166">
        <ele>54</ele>
        <time>2021-04-05T08:21:33.000Z</time>
      </trkpt>
      <trkpt lat="47.19273" lon="-1.85187">
        <ele>54</ele>
        <time>2021-04-05T08:21:35.000Z</time>
      </trkpt>
      <trkpt lat="47.19273" lon="-1.85206">
        <ele>54</ele>
        <time>2021-04-05T08:21:37.000Z</time>
      </trkpt>
      <trkpt lat="47.19275" lon="-1.85222">
        <ele>54</ele>
        <time>2021-04-05T08:21:39.000Z</time>
      </trkpt>
      <trkpt lat="47.19278" lon="-1.85235">
        <ele>54</ele>
        <time>2021-04-05T08:21:41.000Z</time>
      </trkpt>
      <trkpt lat="47.19278" lon="-1.85255">
        <ele>54</ele>
        <time>2021-04-05T08:21:44.000Z</time>
      </trkpt>
      <trkpt lat="47.19273" lon="-1.8527">
        <ele>53</ele>
        <time>2021-04-05T08:21:46.000Z</time>
      </trkpt>
      <trkpt lat="47.19268" lon="-1.85287">
        <ele>54</ele>
        <time>2021-04-05T08:21:48.000Z</time>
      </trkpt>
      <trkpt lat="47.19264" lon="-1.85304">
        <ele>54</ele>
        <time>2021-04-05T08:21:50.000Z</time>
      </trkpt>
      <trkpt lat="47.19259" lon="-1.85322">
        <ele>54</ele>
        <time>2021-04-05T08:21:52.000Z</time>
      </trkpt>
      <trkpt lat="47.19251" lon="-1.85338">
        <ele>54</ele>
        <time>2021-04-05T08:21:54.000Z</time>
      </trkpt>
      <trkpt lat="47.19243" lon="-1.85353">
        <ele>54</ele>
        <time>2021-04-05T08:21:56.000Z</time>
      </trkpt>
      <trkpt lat="47.19236" lon="-1.85368">
        <ele>53</ele>
        <time>2021-04-05T08:21:58.000Z</time>
      </trkpt>
      <trkpt lat="47.19229" lon="-1.85384">
        <ele>53</ele>
        <time>2021-04-05T08:22:00.000Z</time>
      </trkpt>
      <trkpt lat="47.19219" lon="-1.85398">
        <ele>53</ele>
        <time>2021-04-05T08:22:02.000Z</time>
      </trkpt>
      <trkpt lat="47.19208" lon="-1.85412">
        <ele>53</ele>
        <time>2021-04-05T08:22:04.000Z</time>
      </trkpt>
      <trkpt lat="47.19198" lon="-1.85424">
        <ele>53</ele>
        <time>2021-04-05T08:22:06.000Z</time>
      </trkpt>
      <trkpt lat="47.19188" lon="-1.85435">
        <ele>53</ele>
        <time>2021-04-05T08:22:08.000Z</time>
      </trkpt>
      <trkpt lat="47.19178" lon="-1.85447">
        <ele>53</ele>
        <time>2021-04-05T08:22:10.000Z</time>
      </trkpt>
      <trkpt lat="47.19169" lon="-1.85459">
        <ele>52</ele>
        <time>2021-04-05T08:22:12.000Z</time>
      </trkpt>
      <trkpt lat="47.1916" lon="-1.85472">
        <ele>52</ele>
        <time>2021-04-05T08:22:14.000Z</time>
      </trkpt>
      <trkpt lat="47.19151" lon="-1.85485">
        <ele>52</ele>
        <time>2021-04-05T08:22:16.000Z</time>
      </trkpt>
      <trkpt lat="47.19142" lon="-1.85498">
        <ele>53</ele>
        <time>2021-04-05T08:22:18.000Z</time>
      </trkpt>
      <trkpt lat="47.19132" lon="-1.85509">
        <ele>53</ele>
        <time>2021-04-05T08:22:20.000Z</time>
      </trkpt>
      <trkpt lat="47.19123" lon="-1.85522">
        <ele>54</ele>
        <time>2021-04-05T08:22:22.000Z</time>
      </trkpt>
      <trkpt lat="47.19114" lon="-1.85533">
        <ele>54</ele>
        <time>2021-04-05T08:22:24.000Z</time>
      </trkpt>
      <trkpt lat="47.19105" lon="-1.85543">
        <ele>54</ele>
        <time>2021-04-05T08:22:26.000Z</time>
      </trkpt>
      <trkpt lat="47.19095" lon="-1.85553">
        <ele>53</ele>
        <time>2021-04-05T08:22:28.000Z</time>
      </trkpt>
      <trkpt lat="47.19085" lon="-1.85561">
        <ele>53</ele>
        <time>2021-04-05T08:22:30.000Z</time>
      </trkpt>
      <trkpt lat="47.19075" lon="-1.8557">
        <ele>53</ele>
        <time>2021-04-05T08:22:32.000Z</time>
      </trkpt>
      <trkpt lat="47.19064" lon="-1.85579">
        <ele>52</ele>
        <time>2021-04-05T08:22:34.000Z</time>
      </trkpt>
      <trkpt lat="47.19054" lon="-1.85588">
        <ele>52</ele>
        <time>2021-04-05T08:22:36.000Z</time>
      </trkpt>
      <trkpt lat="47.19043" lon="-1.85598">
        <ele>52</ele>
        <time>2021-04-05T08:22:38.000Z</time>
      </trkpt>
      <trkpt lat="47.19032" lon="-1.85608">
        <ele>52</ele>
        <time>2021-04-05T08:22:40.000Z</time>
      </trkpt>
      <trkpt lat="47.19022" lon="-1.85617">
        <ele>52</ele>
        <time>2021-04-05T08:22:42.000Z</time>
      </trkpt>
      <trkpt lat="47.19011" lon="-1.85627">
        <ele>52</ele>
        <time>2021-04-05T08:22:44.000Z</time>
      </trkpt>
      <trkpt lat="47.19" lon="-1.85637">
        <ele>52</ele>
        <time>2021-04-05T08:22:46.000Z</time>
      </trkpt>
      <trkpt lat="47.18988" lon="-1.85645">
        <ele>52</ele>
        <time>2021-04-05T08:22:48.000Z</time>
      </trkpt>
      <trkpt lat="47.18977" lon="-1.85652">
        <ele>52</ele>
        <time>2021-04-05T08:22:50.000Z</time>
      </trkpt>
      <trkpt lat="47.18966" lon="-1.8566">
        <ele>52</ele>
        <time>2021-04-05T08:22:52.000Z</time>
      </trkpt>
      <trkpt lat="47.18954" lon="-1.85669">
        <ele>52</ele>
        <time>2021-04-05T08:22:54.000Z</time>
      </trkpt>
      <trkpt lat="47.18943" lon="-1.85678">
        <ele>52</ele>
        <time>2021-04-05T08:22:56.000Z</time>
      </trkpt>
      <trkpt lat="47.18931" lon="-1.85687">
        <ele>52</ele>
        <time>2021-04-05T08:22:58.000Z</time>
      </trkpt>
      <trkpt lat="47.18919" lon="-1.85696">
        <ele>52</ele>
        <time>2021-04-05T08:23:00.000Z</time>
      </trkpt>
      <trkpt lat="47.18907" lon="-1.85703">
        <ele>51</ele>
        <time>2021-04-05T08:23:02.000Z</time>
      </trkpt>
      <trkpt lat="47.18895" lon="-1.85711">
        <ele>51</ele>
        <time>2021-04-05T08:23:04.000Z</time>
      </trkpt>
      <trkpt lat="47.18883" lon="-1.85719">
        <ele>51</ele>
        <time>2021-04-05T08:23:06.000Z</time>
      </trkpt>
      <trkpt lat="47.18872" lon="-1.85728">
        <ele>50</ele>
        <time>2021-04-05T08:23:08.000Z</time>
      </trkpt>
      <trkpt lat="47.1886" lon="-1.85737">
        <ele>50</ele>
        <time>2021-04-05T08:23:10.000Z</time>
      </trkpt>
      <trkpt lat="47.18849" lon="-1.85745">
        <ele>50</ele>
        <time>2021-04-05T08:23:12.000Z</time>
      </trkpt>
      <trkpt lat="47.18837" lon="-1.85753">
        <ele>50</ele>
        <time>2021-04-05T08:23:14.000Z</time>
      </trkpt>
      <trkpt lat="47.18826" lon="-1.85761">
        <ele>50</ele>
        <time>2021-04-05T08:23:16.000Z</time>
      </trkpt>
      <trkpt lat="47.18814" lon="-1.85769">
        <ele>50</ele>
        <time>2021-04-05T08:23:18.000Z</time>
      </trkpt>
      <trkpt lat="47.18803" lon="-1.85778">
        <ele>50</ele>
        <time>2021-04-05T08:23:20.000Z</time>
      </trkpt>
      <trkpt lat="47.18791" lon="-1.85786">
        <ele>50</ele>
        <time>2021-04-05T08:23:22.000Z</time>
      </trkpt>
      <trkpt lat="47.1878" lon="-1.85794">
        <ele>50</ele>
        <time>2021-04-05T08:23:24.000Z</time>
      </trkpt>
      <trkpt lat="47.18768" lon="-1.85802">
        <ele>49</ele>
        <time>2021-04-05T08:23:26.000Z</time>
      </trkpt>
      <trkpt lat="47.18757" lon="-1.85811">
        <ele>49</ele>
        <time>2021-04-05T08:23:28.000Z</time>
      </trkpt>
      <trkpt lat="47.18746" lon="-1.85818">
        <ele>49</ele>
        <time>2021-04-05T08:23:30.000Z</time>
      </trkpt>
      <trkpt lat="47.18734" lon="-1.85826">
        <ele>48</ele>
        <time>2021-04-05T08:23:32.000Z</time>
      </trkpt>
      <trkpt lat="47.18723" lon="-1.85834">
        <ele>48</ele>
        <time>2021-04-05T08:23:34.000Z</time>
      </trkpt>
      <trkpt lat="47.18711" lon="-1.85842">
        <ele>48</ele>
        <time>2021-04-05T08:23:36.000Z</time>
      </trkpt>
      <trkpt lat="47.18699" lon="-1.8585">
        <ele>48</ele>
        <time>2021-04-05T08:23:38.000Z</time>
      </trkpt>
      <trkpt lat="47.18689" lon="-1.85858">
        <ele>48</ele>
        <time>2021-04-05T08:23:40.000Z</time>
      </trkpt>
      <trkpt lat="47.18679" lon="-1.85866">
        <ele>48</ele>
        <time>2021-04-05T08:23:42.000Z</time>
      </trkpt>
      <trkpt lat="47.18668" lon="-1.85873">
        <ele>48</ele>
        <time>2021-04-05T08:23:44.000Z</time>
      </trkpt>
      <trkpt lat="47.18658" lon="-1.85881">
        <ele>48</ele>
        <time>2021-04-05T08:23:46.000Z</time>
      </trkpt>
      <trkpt lat="47.18648" lon="-1.85889">
        <ele>49</ele>
        <time>2021-04-05T08:23:48.000Z</time>
      </trkpt>
      <trkpt lat="47.18639" lon="-1.85897">
        <ele>49</ele>
        <time>2021-04-05T08:23:50.000Z</time>
      </trkpt>
      <trkpt lat="47.18629" lon="-1.8591">
        <ele>50</ele>
        <time>2021-04-05T08:23:53.000Z</time>
      </trkpt>
      <trkpt lat="47.18622" lon="-1.85921">
        <ele>52</ele>
        <time>2021-04-05T08:23:55.000Z</time>
      </trkpt>
      <trkpt lat="47.18616" lon="-1.8593">
        <ele>53</ele>
        <time>2021-04-05T08:23:57.000Z</time>
      </trkpt>
      <trkpt lat="47.18608" lon="-1.85938">
        <ele>54</ele>
        <time>2021-04-05T08:23:59.000Z</time>
      </trkpt>
      <trkpt lat="47.18599" lon="-1.85952">
        <ele>54</ele>
        <time>2021-04-05T08:24:02.000Z</time>
      </trkpt>
      <trkpt lat="47.18592" lon="-1.85968">
        <ele>55</ele>
        <time>2021-04-05T08:24:05.000Z</time>
      </trkpt>
      <trkpt lat="47.18587" lon="-1.8598">
        <ele>56</ele>
        <time>2021-04-05T08:24:07.000Z</time>
      </trkpt>
      <trkpt lat="47.18581" lon="-1.85993">
        <ele>57</ele>
        <time>2021-04-05T08:24:09.000Z</time>
      </trkpt>
      <trkpt lat="47.18575" lon="-1.86004">
        <ele>58</ele>
        <time>2021-04-05T08:24:11.000Z</time>
      </trkpt>
      <trkpt lat="47.18566" lon="-1.86019">
        <ele>58</ele>
        <time>2021-04-05T08:24:14.000Z</time>
      </trkpt>
      <trkpt lat="47.1856" lon="-1.8603">
        <ele>59</ele>
        <time>2021-04-05T08:24:16.000Z</time>
      </trkpt>
      <trkpt lat="47.18555" lon="-1.86043">
        <ele>60</ele>
        <time>2021-04-05T08:24:18.000Z</time>
      </trkpt>
      <trkpt lat="47.18549" lon="-1.86056">
        <ele>60</ele>
        <time>2021-04-05T08:24:20.000Z</time>
      </trkpt>
      <trkpt lat="47.18544" lon="-1.86067">
        <ele>61</ele>
        <time>2021-04-05T08:24:22.000Z</time>
      </trkpt>
      <trkpt lat="47.1854" lon="-1.86079">
        <ele>61</ele>
        <time>2021-04-05T08:24:24.000Z</time>
      </trkpt>
      <trkpt lat="47.18534" lon="-1.8609">
        <ele>62</ele>
        <time>2021-04-05T08:24:26.000Z</time>
      </trkpt>
      <trkpt lat="47.18529" lon="-1.86101">
        <ele>62</ele>
        <time>2021-04-05T08:24:28.000Z</time>
      </trkpt>
      <trkpt lat="47.18519" lon="-1.86114">
        <ele>62</ele>
        <time>2021-04-05T08:24:31.000Z</time>
      </trkpt>
      <trkpt lat="47.18513" lon="-1.86131">
        <ele>62</ele>
        <time>2021-04-05T08:24:34.000Z</time>
      </trkpt>
      <trkpt lat="47.18511" lon="-1.86145">
        <ele>63</ele>
        <time>2021-04-05T08:24:36.000Z</time>
      </trkpt>
      <trkpt lat="47.18508" lon="-1.86159">
        <ele>62</ele>
        <time>2021-04-05T08:24:38.000Z</time>
      </trkpt>
      <trkpt lat="47.18504" lon="-1.86172">
        <ele>62</ele>
        <time>2021-04-05T08:24:40.000Z</time>
      </trkpt>
      <trkpt lat="47.18499" lon="-1.86185">
        <ele>62</ele>
        <time>2021-04-05T08:24:42.000Z</time>
      </trkpt>
      <trkpt lat="47.18495" lon="-1.862">
        <ele>62</ele>
        <time>2021-04-05T08:24:44.000Z</time>
      </trkpt>
      <trkpt lat="47.1849" lon="-1.86214">
        <ele>63</ele>
        <time>2021-04-05T08:24:46.000Z</time>
      </trkpt>
      <trkpt lat="47.18486" lon="-1.86228">
        <ele>62</ele>
        <time>2021-04-05T08:24:48.000Z</time>
      </trkpt>
      <trkpt lat="47.18482" lon="-1.86242">
        <ele>62</ele>
        <time>2021-04-05T08:24:50.000Z</time>
      </trkpt>
      <trkpt lat="47.18478" lon="-1.86258">
        <ele>62</ele>
        <time>2021-04-05T08:24:52.000Z</time>
      </trkpt>
      <trkpt lat="47.18477" lon="-1.86275">
        <ele>62</ele>
        <time>2021-04-05T08:24:54.000Z</time>
      </trkpt>
      <trkpt lat="47.18478" lon="-1.86295">
        <ele>62</ele>
        <time>2021-04-05T08:24:56.000Z</time>
      </trkpt>
      <trkpt lat="47.18476" lon="-1.86316">
        <ele>60</ele>
        <time>2021-04-05T08:24:58.000Z</time>
      </trkpt>
      <trkpt lat="47.18472" lon="-1.8634">
        <ele>58</ele>
        <time>2021-04-05T08:25:00.000Z</time>
      </trkpt>
      <trkpt lat="47.18466" lon="-1.86365">
        <ele>57</ele>
        <time>2021-04-05T08:25:02.000Z</time>
      </trkpt>
      <trkpt lat="47.18462" lon="-1.86377">
        <ele>57</ele>
        <time>2021-04-05T08:25:03.000Z</time>
      </trkpt>
      <trkpt lat="47.18451" lon="-1.86398">
        <ele>56</ele>
        <time>2021-04-05T08:25:05.000Z</time>
      </trkpt>
      <trkpt lat="47.18439" lon="-1.86413">
        <ele>56</ele>
        <time>2021-04-05T08:25:07.000Z</time>
      </trkpt>
      <trkpt lat="47.18426" lon="-1.86424">
        <ele>56</ele>
        <time>2021-04-05T08:25:09.000Z</time>
      </trkpt>
      <trkpt lat="47.18414" lon="-1.86437">
        <ele>54</ele>
        <time>2021-04-05T08:25:11.000Z</time>
      </trkpt>
      <trkpt lat="47.18407" lon="-1.86456">
        <ele>53</ele>
        <time>2021-04-05T08:25:13.000Z</time>
      </trkpt>
      <trkpt lat="47.18408" lon="-1.86475">
        <ele>53</ele>
        <time>2021-04-05T08:25:15.000Z</time>
      </trkpt>
      <trkpt lat="47.18411" lon="-1.86497">
        <ele>54</ele>
        <time>2021-04-05T08:25:17.000Z</time>
      </trkpt>
      <trkpt lat="47.18415" lon="-1.86515">
        <ele>54</ele>
        <time>2021-04-05T08:25:19.000Z</time>
      </trkpt>
      <trkpt lat="47.18418" lon="-1.86533">
        <ele>55</ele>
        <time>2021-04-05T08:25:21.000Z</time>
      </trkpt>
      <trkpt lat="47.18421" lon="-1.8655">
        <ele>55</ele>
        <time>2021-04-05T08:25:23.000Z</time>
      </trkpt>
      <trkpt lat="47.18423" lon="-1.86567">
        <ele>56</ele>
        <time>2021-04-05T08:25:25.000Z</time>
      </trkpt>
      <trkpt lat="47.18425" lon="-1.86584">
        <ele>56</ele>
        <time>2021-04-05T08:25:27.000Z</time>
      </trkpt>
      <trkpt lat="47.18427" lon="-1.866">
        <ele>56</ele>
        <time>2021-04-05T08:25:29.000Z</time>
      </trkpt>
      <trkpt lat="47.18428" lon="-1.86615">
        <ele>57</ele>
        <time>2021-04-05T08:25:31.000Z</time>
      </trkpt>
      <trkpt lat="47.18428" lon="-1.86628">
        <ele>57</ele>
        <time>2021-04-05T08:25:33.000Z</time>
      </trkpt>
      <trkpt lat="47.18428" lon="-1.86642">
        <ele>57</ele>
        <time>2021-04-05T08:25:35.000Z</time>
      </trkpt>
      <trkpt lat="47.18426" lon="-1.86655">
        <ele>57</ele>
        <time>2021-04-05T08:25:37.000Z</time>
      </trkpt>
      <trkpt lat="47.18425" lon="-1.86669">
        <ele>58</ele>
        <time>2021-04-05T08:25:39.000Z</time>
      </trkpt>
      <trkpt lat="47.18424" lon="-1.86686">
        <ele>58</ele>
        <time>2021-04-05T08:25:42.000Z</time>
      </trkpt>
      <trkpt lat="47.1842" lon="-1.86705">
        <ele>59</ele>
        <time>2021-04-05T08:25:45.000Z</time>
      </trkpt>
      <trkpt lat="47.18417" lon="-1.86723">
        <ele>59</ele>
        <time>2021-04-05T08:25:48.000Z</time>
      </trkpt>
      <trkpt lat="47.18415" lon="-1.86736">
        <ele>60</ele>
        <time>2021-04-05T08:25:50.000Z</time>
      </trkpt>
      <trkpt lat="47.18413" lon="-1.86754">
        <ele>61</ele>
        <time>2021-04-05T08:25:53.000Z</time>
      </trkpt>
      <trkpt lat="47.1841" lon="-1.86773">
        <ele>62</ele>
        <time>2021-04-05T08:25:56.000Z</time>
      </trkpt>
      <trkpt lat="47.18407" lon="-1.86786">
        <ele>62</ele>
        <time>2021-04-05T08:25:58.000Z</time>
      </trkpt>
      <trkpt lat="47.18404" lon="-1.86799">
        <ele>62</ele>
        <time>2021-04-05T08:26:00.000Z</time>
      </trkpt>
      <trkpt lat="47.18402" lon="-1.86812">
        <ele>62</ele>
        <time>2021-04-05T08:26:02.000Z</time>
      </trkpt>
      <trkpt lat="47.18402" lon="-1.86826">
        <ele>63</ele>
        <time>2021-04-05T08:26:04.000Z</time>
      </trkpt>
      <trkpt lat="47.18402" lon="-1.86844">
        <ele>63</ele>
        <time>2021-04-05T08:26:07.000Z</time>
      </trkpt>
      <trkpt lat="47.18402" lon="-1.86863">
        <ele>63</ele>
        <time>2021-04-05T08:26:10.000Z</time>
      </trkpt>
      <trkpt lat="47.18404" lon="-1.86882">
        <ele>64</ele>
        <time>2021-04-05T08:26:13.000Z</time>
      </trkpt>
      <trkpt lat="47.18404" lon="-1.86895">
        <ele>65</ele>
        <time>2021-04-05T08:26:15.000Z</time>
      </trkpt>
      <trkpt lat="47.18406" lon="-1.86909">
        <ele>66</ele>
        <time>2021-04-05T08:26:17.000Z</time>
      </trkpt>
      <trkpt lat="47.18406" lon="-1.86922">
        <ele>66</ele>
        <time>2021-04-05T08:26:19.000Z</time>
      </trkpt>
      <trkpt lat="47.18407" lon="-1.86936">
        <ele>67</ele>
        <time>2021-04-05T08:26:21.000Z</time>
      </trkpt>
      <trkpt lat="47.18409" lon="-1.86949">
        <ele>68</ele>
        <time>2021-04-05T08:26:23.000Z</time>
      </trkpt>
      <trkpt lat="47.1841" lon="-1.86969">
        <ele>68</ele>
        <time>2021-04-05T08:26:26.000Z</time>
      </trkpt>
      <trkpt lat="47.18411" lon="-1.86987">
        <ele>68</ele>
        <time>2021-04-05T08:26:29.000Z</time>
      </trkpt>
      <trkpt lat="47.18414" lon="-1.87006">
        <ele>68</ele>
        <time>2021-04-05T08:26:32.000Z</time>
      </trkpt>
      <trkpt lat="47.18416" lon="-1.87022">
        <ele>68</ele>
        <time>2021-04-05T08:26:34.000Z</time>
      </trkpt>
      <trkpt lat="47.18418" lon="-1.87041">
        <ele>67</ele>
        <time>2021-04-05T08:26:36.000Z</time>
      </trkpt>
      <trkpt lat="47.18422" lon="-1.87063">
        <ele>67</ele>
        <time>2021-04-05T08:26:38.000Z</time>
      </trkpt>
      <trkpt lat="47.18426" lon="-1.87085">
        <ele>66</ele>
        <time>2021-04-05T08:26:40.000Z</time>
      </trkpt>
      <trkpt lat="47.18432" lon="-1.87106">
        <ele>65</ele>
        <time>2021-04-05T08:26:42.000Z</time>
      </trkpt>
      <trkpt lat="47.18439" lon="-1.87128">
        <ele>64</ele>
        <time>2021-04-05T08:26:44.000Z</time>
      </trkpt>
      <trkpt lat="47.18445" lon="-1.8715">
        <ele>63</ele>
        <time>2021-04-05T08:26:46.000Z</time>
      </trkpt>
      <trkpt lat="47.18453" lon="-1.87173">
        <ele>62</ele>
        <time>2021-04-05T08:26:48.000Z</time>
      </trkpt>
      <trkpt lat="47.18459" lon="-1.87196">
        <ele>61</ele>
        <time>2021-04-05T08:26:50.000Z</time>
      </trkpt>
      <trkpt lat="47.18465" lon="-1.8722">
        <ele>61</ele>
        <time>2021-04-05T08:26:52.000Z</time>
      </trkpt>
      <trkpt lat="47.1847" lon="-1.87241">
        <ele>62</ele>
        <time>2021-04-05T08:26:54.000Z</time>
      </trkpt>
      <trkpt lat="47.18473" lon="-1.8726">
        <ele>63</ele>
        <time>2021-04-05T08:26:56.000Z</time>
      </trkpt>
      <trkpt lat="47.18476" lon="-1.87278">
        <ele>64</ele>
        <time>2021-04-05T08:26:58.000Z</time>
      </trkpt>
      <trkpt lat="47.18478" lon="-1.87293">
        <ele>65</ele>
        <time>2021-04-05T08:27:00.000Z</time>
      </trkpt>
      <trkpt lat="47.1848" lon="-1.87309">
        <ele>66</ele>
        <time>2021-04-05T08:27:02.000Z</time>
      </trkpt>
      <trkpt lat="47.18482" lon="-1.87325">
        <ele>66</ele>
        <time>2021-04-05T08:27:04.000Z</time>
      </trkpt>
      <trkpt lat="47.18483" lon="-1.87342">
        <ele>66</ele>
        <time>2021-04-05T08:27:06.000Z</time>
      </trkpt>
      <trkpt lat="47.18486" lon="-1.87357">
        <ele>67</ele>
        <time>2021-04-05T08:27:08.000Z</time>
      </trkpt>
      <trkpt lat="47.18488" lon="-1.87374">
        <ele>68</ele>
        <time>2021-04-05T08:27:10.000Z</time>
      </trkpt>
      <trkpt lat="47.1849" lon="-1.87389">
        <ele>68</ele>
        <time>2021-04-05T08:27:12.000Z</time>
      </trkpt>
      <trkpt lat="47.18492" lon="-1.87406">
        <ele>69</ele>
        <time>2021-04-05T08:27:14.000Z</time>
      </trkpt>
      <trkpt lat="47.18494" lon="-1.8742">
        <ele>70</ele>
        <time>2021-04-05T08:27:16.000Z</time>
      </trkpt>
      <trkpt lat="47.18496" lon="-1.87435">
        <ele>70</ele>
        <time>2021-04-05T08:27:18.000Z</time>
      </trkpt>
      <trkpt lat="47.18493" lon="-1.87448">
        <ele>71</ele>
        <time>2021-04-05T08:27:20.000Z</time>
      </trkpt>
      <trkpt lat="47.18486" lon="-1.87456">
        <ele>72</ele>
        <time>2021-04-05T08:27:22.000Z</time>
      </trkpt>
      <trkpt lat="47.18477" lon="-1.87462">
        <ele>72</ele>
        <time>2021-04-05T08:27:24.000Z</time>
      </trkpt>
      <trkpt lat="47.18469" lon="-1.8747">
        <ele>72</ele>
        <time>2021-04-05T08:27:26.000Z</time>
      </trkpt>
      <trkpt lat="47.18459" lon="-1.87478">
        <ele>73</ele>
        <time>2021-04-05T08:27:28.000Z</time>
      </trkpt>
      <trkpt lat="47.18451" lon="-1.87485">
        <ele>73</ele>
        <time>2021-04-05T08:27:30.000Z</time>
      </trkpt>
      <trkpt lat="47.18442" lon="-1.87491">
        <ele>74</ele>
        <time>2021-04-05T08:27:32.000Z</time>
      </trkpt>
      <trkpt lat="47.18434" lon="-1.87497">
        <ele>74</ele>
        <time>2021-04-05T08:27:34.000Z</time>
      </trkpt>
      <trkpt lat="47.18424" lon="-1.87502">
        <ele>75</ele>
        <time>2021-04-05T08:27:36.000Z</time>
      </trkpt>
      <trkpt lat="47.18413" lon="-1.87507">
        <ele>75</ele>
        <time>2021-04-05T08:27:38.000Z</time>
      </trkpt>
      <trkpt lat="47.18403" lon="-1.87511">
        <ele>76</ele>
        <time>2021-04-05T08:27:40.000Z</time>
      </trkpt>
      <trkpt lat="47.18393" lon="-1.87514">
        <ele>77</ele>
        <time>2021-04-05T08:27:42.000Z</time>
      </trkpt>
      <trkpt lat="47.18382" lon="-1.87516">
        <ele>78</ele>
        <time>2021-04-05T08:27:44.000Z</time>
      </trkpt>
      <trkpt lat="47.18372" lon="-1.87518">
        <ele>78</ele>
        <time>2021-04-05T08:27:46.000Z</time>
      </trkpt>
      <trkpt lat="47.18362" lon="-1.8752">
        <ele>79</ele>
        <time>2021-04-05T08:27:48.000Z</time>
      </trkpt>
      <trkpt lat="47.18352" lon="-1.87521">
        <ele>79</ele>
        <time>2021-04-05T08:27:50.000Z</time>
      </trkpt>
      <trkpt lat="47.18342" lon="-1.87523">
        <ele>79</ele>
        <time>2021-04-05T08:27:52.000Z</time>
      </trkpt>
      <trkpt lat="47.18332" lon="-1.87525">
        <ele>79</ele>
        <time>2021-04-05T08:27:54.000Z</time>
      </trkpt>
      <trkpt lat="47.18322" lon="-1.87527">
        <ele>80</ele>
        <time>2021-04-05T08:27:56.000Z</time>
      </trkpt>
      <trkpt lat="47.18313" lon="-1.87529">
        <ele>80</ele>
        <time>2021-04-05T08:27:58.000Z</time>
      </trkpt>
      <trkpt lat="47.18303" lon="-1.87531">
        <ele>80</ele>
        <time>2021-04-05T08:28:00.000Z</time>
      </trkpt>
      <trkpt lat="47.18294" lon="-1.87533">
        <ele>80</ele>
        <time>2021-04-05T08:28:02.000Z</time>
      </trkpt>
      <trkpt lat="47.18284" lon="-1.87536">
        <ele>79</ele>
        <time>2021-04-05T08:28:04.000Z</time>
      </trkpt>
      <trkpt lat="47.18275" lon="-1.87539">
        <ele>79</ele>
        <time>2021-04-05T08:28:06.000Z</time>
      </trkpt>
      <trkpt lat="47.18266" lon="-1.87544">
        <ele>79</ele>
        <time>2021-04-05T08:28:08.000Z</time>
      </trkpt>
      <trkpt lat="47.18257" lon="-1.8755">
        <ele>78</ele>
        <time>2021-04-05T08:28:10.000Z</time>
      </trkpt>
      <trkpt lat="47.18247" lon="-1.87557">
        <ele>77</ele>
        <time>2021-04-05T08:28:12.000Z</time>
      </trkpt>
      <trkpt lat="47.18238" lon="-1.87564">
        <ele>77</ele>
        <time>2021-04-05T08:28:14.000Z</time>
      </trkpt>
      <trkpt lat="47.18229" lon="-1.87572">
        <ele>77</ele>
        <time>2021-04-05T08:28:16.000Z</time>
      </trkpt>
      <trkpt lat="47.18219" lon="-1.87581">
        <ele>77</ele>
        <time>2021-04-05T08:28:18.000Z</time>
      </trkpt>
      <trkpt lat="47.1821" lon="-1.8759">
        <ele>77</ele>
        <time>2021-04-05T08:28:20.000Z</time>
      </trkpt>
      <trkpt lat="47.182" lon="-1.87599">
        <ele>76</ele>
        <time>2021-04-05T08:28:22.000Z</time>
      </trkpt>
      <trkpt lat="47.18191" lon="-1.87608">
        <ele>76</ele>
        <time>2021-04-05T08:28:24.000Z</time>
      </trkpt>
      <trkpt lat="47.18181" lon="-1.87618">
        <ele>76</ele>
        <time>2021-04-05T08:28:26.000Z</time>
      </trkpt>
      <trkpt lat="47.18172" lon="-1.87626">
        <ele>77</ele>
        <time>2021-04-05T08:28:28.000Z</time>
      </trkpt>
      <trkpt lat="47.18162" lon="-1.87634">
        <ele>78</ele>
        <time>2021-04-05T08:28:30.000Z</time>
      </trkpt>
      <trkpt lat="47.18153" lon="-1.87641">
        <ele>78</ele>
        <time>2021-04-05T08:28:32.000Z</time>
      </trkpt>
      <trkpt lat="47.18143" lon="-1.87648">
        <ele>79</ele>
        <time>2021-04-05T08:28:34.000Z</time>
      </trkpt>
      <trkpt lat="47.18133" lon="-1.87654">
        <ele>79</ele>
        <time>2021-04-05T08:28:36.000Z</time>
      </trkpt>
      <trkpt lat="47.18123" lon="-1.8766">
        <ele>80</ele>
        <time>2021-04-05T08:28:38.000Z</time>
      </trkpt>
      <trkpt lat="47.18113" lon="-1.87666">
        <ele>80</ele>
        <time>2021-04-05T08:28:40.000Z</time>
      </trkpt>
      <trkpt lat="47.18103" lon="-1.87672">
        <ele>81</ele>
        <time>2021-04-05T08:28:42.000Z</time>
      </trkpt>
      <trkpt lat="47.18093" lon="-1.87678">
        <ele>81</ele>
        <time>2021-04-05T08:28:44.000Z</time>
      </trkpt>
      <trkpt lat="47.18083" lon="-1.87684">
        <ele>81</ele>
        <time>2021-04-05T08:28:46.000Z</time>
      </trkpt>
      <trkpt lat="47.18074" lon="-1.87692">
        <ele>81</ele>
        <time>2021-04-05T08:28:48.000Z</time>
      </trkpt>
      <trkpt lat="47.18065" lon="-1.87699">
        <ele>82</ele>
        <time>2021-04-05T08:28:50.000Z</time>
      </trkpt>
      <trkpt lat="47.18056" lon="-1.87707">
        <ele>82</ele>
        <time>2021-04-05T08:28:52.000Z</time>
      </trkpt>
      <trkpt lat="47.18048" lon="-1.87715">
        <ele>82</ele>
        <time>2021-04-05T08:28:54.000Z</time>
      </trkpt>
      <trkpt lat="47.18039" lon="-1.87724">
        <ele>82</ele>
        <time>2021-04-05T08:28:56.000Z</time>
      </trkpt>
      <trkpt lat="47.18031" lon="-1.87732">
        <ele>82</ele>
        <time>2021-04-05T08:28:58.000Z</time>
      </trkpt>
      <trkpt lat="47.18021" lon="-1.87741">
        <ele>83</ele>
        <time>2021-04-05T08:29:00.000Z</time>
      </trkpt>
      <trkpt lat="47.18012" lon="-1.87747">
        <ele>83</ele>
        <time>2021-04-05T08:29:02.000Z</time>
      </trkpt>
      <trkpt lat="47.18002" lon="-1.87753">
        <ele>84</ele>
        <time>2021-04-05T08:29:04.000Z</time>
      </trkpt>
      <trkpt lat="47.17994" lon="-1.87759">
        <ele>85</ele>
        <time>2021-04-05T08:29:06.000Z</time>
      </trkpt>
      <trkpt lat="47.17986" lon="-1.87764">
        <ele>85</ele>
        <time>2021-04-05T08:29:08.000Z</time>
      </trkpt>
      <trkpt lat="47.17977" lon="-1.87769">
        <ele>86</ele>
        <time>2021-04-05T08:29:10.000Z</time>
      </trkpt>
      <trkpt lat="47.17965" lon="-1.87775">
        <ele>86</ele>
        <time>2021-04-05T08:29:13.000Z</time>
      </trkpt>
      <trkpt lat="47.17952" lon="-1.87782">
        <ele>86</ele>
        <time>2021-04-05T08:29:16.000Z</time>
      </trkpt>
      <trkpt lat="47.17943" lon="-1.87787">
        <ele>87</ele>
        <time>2021-04-05T08:29:18.000Z</time>
      </trkpt>
      <trkpt lat="47.17935" lon="-1.87792">
        <ele>87</ele>
        <time>2021-04-05T08:29:20.000Z</time>
      </trkpt>
      <trkpt lat="47.17926" lon="-1.87797">
        <ele>87</ele>
        <time>2021-04-05T08:29:22.000Z</time>
      </trkpt>
      <trkpt lat="47.17917" lon="-1.87802">
        <ele>87</ele>
        <time>2021-04-05T08:29:24.000Z</time>
      </trkpt>
      <trkpt lat="47.17908" lon="-1.87806">
        <ele>87</ele>
        <time>2021-04-05T08:29:26.000Z</time>
      </trkpt>
      <trkpt lat="47.17896" lon="-1.87813">
        <ele>88</ele>
        <time>2021-04-05T08:29:29.000Z</time>
      </trkpt>
      <trkpt lat="47.17887" lon="-1.87818">
        <ele>88</ele>
        <time>2021-04-05T08:29:31.000Z</time>
      </trkpt>
      <trkpt lat="47.17874" lon="-1.87824">
        <ele>88</ele>
        <time>2021-04-05T08:29:34.000Z</time>
      </trkpt>
      <trkpt lat="47.17862" lon="-1.87831">
        <ele>88</ele>
        <time>2021-04-05T08:29:37.000Z</time>
      </trkpt>
      <trkpt lat="47.17849" lon="-1.87838">
        <ele>89</ele>
        <time>2021-04-05T08:29:40.000Z</time>
      </trkpt>
      <trkpt lat="47.17841" lon="-1.87842">
        <ele>90</ele>
        <time>2021-04-05T08:29:42.000Z</time>
      </trkpt>
      <trkpt lat="47.17832" lon="-1.87846">
        <ele>91</ele>
        <time>2021-04-05T08:29:44.000Z</time>
      </trkpt>
      <trkpt lat="47.1782" lon="-1.87851">
        <ele>91</ele>
        <time>2021-04-05T08:29:47.000Z</time>
      </trkpt>
      <trkpt lat="47.17807" lon="-1.87857">
        <ele>92</ele>
        <time>2021-04-05T08:29:50.000Z</time>
      </trkpt>
      <trkpt lat="47.17795" lon="-1.87861">
        <ele>92</ele>
        <time>2021-04-05T08:29:53.000Z</time>
      </trkpt>
      <trkpt lat="47.17787" lon="-1.87865">
        <ele>92</ele>
        <time>2021-04-05T08:29:55.000Z</time>
      </trkpt>
      <trkpt lat="47.17774" lon="-1.87873">
        <ele>93</ele>
        <time>2021-04-05T08:29:58.000Z</time>
      </trkpt>
      <trkpt lat="47.17765" lon="-1.87878">
        <ele>94</ele>
        <time>2021-04-05T08:30:00.000Z</time>
      </trkpt>
      <trkpt lat="47.17757" lon="-1.87883">
        <ele>94</ele>
        <time>2021-04-05T08:30:02.000Z</time>
      </trkpt>
      <trkpt lat="47.17748" lon="-1.87888">
        <ele>94</ele>
        <time>2021-04-05T08:30:04.000Z</time>
      </trkpt>
      <trkpt lat="47.17739" lon="-1.87894">
        <ele>94</ele>
        <time>2021-04-05T08:30:06.000Z</time>
      </trkpt>
      <trkpt lat="47.17731" lon="-1.879">
        <ele>94</ele>
        <time>2021-04-05T08:30:08.000Z</time>
      </trkpt>
      <trkpt lat="47.17722" lon="-1.87906">
        <ele>94</ele>
        <time>2021-04-05T08:30:10.000Z</time>
      </trkpt>
      <trkpt lat="47.1771" lon="-1.87914">
        <ele>95</ele>
        <time>2021-04-05T08:30:13.000Z</time>
      </trkpt>
      <trkpt lat="47.177" lon="-1.87919">
        <ele>95</ele>
        <time>2021-04-05T08:30:15.000Z</time>
      </trkpt>
      <trkpt lat="47.17691" lon="-1.87921">
        <ele>95</ele>
        <time>2021-04-05T08:30:17.000Z</time>
      </trkpt>
      <trkpt lat="47.1768" lon="-1.87921">
        <ele>95</ele>
        <time>2021-04-05T08:30:19.000Z</time>
      </trkpt>
      <trkpt lat="47.1767" lon="-1.87923">
        <ele>96</ele>
        <time>2021-04-05T08:30:21.000Z</time>
      </trkpt>
      <trkpt lat="47.1766" lon="-1.87926">
        <ele>97</ele>
        <time>2021-04-05T08:30:23.000Z</time>
      </trkpt>
      <trkpt lat="47.17651" lon="-1.87928">
        <ele>97</ele>
        <time>2021-04-05T08:30:25.000Z</time>
      </trkpt>
      <trkpt lat="47.17642" lon="-1.87932">
        <ele>97</ele>
        <time>2021-04-05T08:30:27.000Z</time>
      </trkpt>
      <trkpt lat="47.17633" lon="-1.87936">
        <ele>97</ele>
        <time>2021-04-05T08:30:29.000Z</time>
      </trkpt>
      <trkpt lat="47.17625" lon="-1.87941">
        <ele>97</ele>
        <time>2021-04-05T08:30:31.000Z</time>
      </trkpt>
      <trkpt lat="47.17613" lon="-1.87948">
        <ele>98</ele>
        <time>2021-04-05T08:30:34.000Z</time>
      </trkpt>
      <trkpt lat="47.176" lon="-1.87954">
        <ele>99</ele>
        <time>2021-04-05T08:30:37.000Z</time>
      </trkpt>
      <trkpt lat="47.17588" lon="-1.87962">
        <ele>99</ele>
        <time>2021-04-05T08:30:40.000Z</time>
      </trkpt>
      <trkpt lat="47.17575" lon="-1.8797">
        <ele>99</ele>
        <time>2021-04-05T08:30:43.000Z</time>
      </trkpt>
      <trkpt lat="47.17564" lon="-1.87977">
        <ele>100</ele>
        <time>2021-04-05T08:30:46.000Z</time>
      </trkpt>
      <trkpt lat="47.17552" lon="-1.87985">
        <ele>101</ele>
        <time>2021-04-05T08:30:49.000Z</time>
      </trkpt>
      <trkpt lat="47.17541" lon="-1.87992">
        <ele>102</ele>
        <time>2021-04-05T08:30:52.000Z</time>
      </trkpt>
      <trkpt lat="47.1753" lon="-1.88">
        <ele>103</ele>
        <time>2021-04-05T08:30:55.000Z</time>
      </trkpt>
      <trkpt lat="47.17519" lon="-1.88007">
        <ele>103</ele>
        <time>2021-04-05T08:30:58.000Z</time>
      </trkpt>
      <trkpt lat="47.17509" lon="-1.88014">
        <ele>104</ele>
        <time>2021-04-05T08:31:01.000Z</time>
      </trkpt>
      <trkpt lat="47.17497" lon="-1.88022">
        <ele>105</ele>
        <time>2021-04-05T08:31:04.000Z</time>
      </trkpt>
      <trkpt lat="47.17485" lon="-1.88029">
        <ele>105</ele>
        <time>2021-04-05T08:31:07.000Z</time>
      </trkpt>
      <trkpt lat="47.17474" lon="-1.88037">
        <ele>105</ele>
        <time>2021-04-05T08:31:10.000Z</time>
      </trkpt>
      <trkpt lat="47.17462" lon="-1.88043">
        <ele>106</ele>
        <time>2021-04-05T08:31:13.000Z</time>
      </trkpt>
      <trkpt lat="47.17451" lon="-1.8805">
        <ele>106</ele>
        <time>2021-04-05T08:31:16.000Z</time>
      </trkpt>
      <trkpt lat="47.1744" lon="-1.88057">
        <ele>107</ele>
        <time>2021-04-05T08:31:19.000Z</time>
      </trkpt>
      <trkpt lat="47.17428" lon="-1.88062">
        <ele>108</ele>
        <time>2021-04-05T08:31:22.000Z</time>
      </trkpt>
      <trkpt lat="47.17416" lon="-1.88067">
        <ele>108</ele>
        <time>2021-04-05T08:31:25.000Z</time>
      </trkpt>
      <trkpt lat="47.17403" lon="-1.88073">
        <ele>108</ele>
        <time>2021-04-05T08:31:28.000Z</time>
      </trkpt>
      <trkpt lat="47.17392" lon="-1.88081">
        <ele>109</ele>
        <time>2021-04-05T08:31:31.000Z</time>
      </trkpt>
      <trkpt lat="47.1738" lon="-1.88088">
        <ele>109</ele>
        <time>2021-04-05T08:31:34.000Z</time>
      </trkpt>
      <trkpt lat="47.17371" lon="-1.88094">
        <ele>109</ele>
        <time>2021-04-05T08:31:36.000Z</time>
      </trkpt>
      <trkpt lat="47.17363" lon="-1.88099">
        <ele>109</ele>
        <time>2021-04-05T08:31:38.000Z</time>
      </trkpt>
      <trkpt lat="47.17354" lon="-1.88106">
        <ele>108</ele>
        <time>2021-04-05T08:31:40.000Z</time>
      </trkpt>
      <trkpt lat="47.17347" lon="-1.88116">
        <ele>108</ele>
        <time>2021-04-05T08:31:42.000Z</time>
      </trkpt>
      <trkpt lat="47.17344" lon="-1.8813">
        <ele>108</ele>
        <time>2021-04-05T08:31:44.000Z</time>
      </trkpt>
      <trkpt lat="47.17344" lon="-1.88146">
        <ele>107</ele>
        <time>2021-04-05T08:31:46.000Z</time>
      </trkpt>
      <trkpt lat="47.17347" lon="-1.8816">
        <ele>107</ele>
        <time>2021-04-05T08:31:48.000Z</time>
      </trkpt>
      <trkpt lat="47.1735" lon="-1.88174">
        <ele>107</ele>
        <time>2021-04-05T08:31:50.000Z</time>
      </trkpt>
      <trkpt lat="47.17354" lon="-1.88189">
        <ele>107</ele>
        <time>2021-04-05T08:31:52.000Z</time>
      </trkpt>
      <trkpt lat="47.17358" lon="-1.88203">
        <ele>106</ele>
        <time>2021-04-05T08:31:54.000Z</time>
      </trkpt>
      <trkpt lat="47.17362" lon="-1.88218">
        <ele>106</ele>
        <time>2021-04-05T08:31:56.000Z</time>
      </trkpt>
      <trkpt lat="47.17365" lon="-1.88232">
        <ele>106</ele>
        <time>2021-04-05T08:31:58.000Z</time>
      </trkpt>
      <trkpt lat="47.17367" lon="-1.8825">
        <ele>106</ele>
        <time>2021-04-05T08:32:00.000Z</time>
      </trkpt>
      <trkpt lat="47.17368" lon="-1.88268">
        <ele>106</ele>
        <time>2021-04-05T08:32:02.000Z</time>
      </trkpt>
      <trkpt lat="47.1737" lon="-1.88286">
        <ele>106</ele>
        <time>2021-04-05T08:32:04.000Z</time>
      </trkpt>
      <trkpt lat="47.17371" lon="-1.88304">
        <ele>105</ele>
        <time>2021-04-05T08:32:06.000Z</time>
      </trkpt>
      <trkpt lat="47.17371" lon="-1.88322">
        <ele>105</ele>
        <time>2021-04-05T08:32:08.000Z</time>
      </trkpt>
      <trkpt lat="47.17372" lon="-1.8834">
        <ele>105</ele>
        <time>2021-04-05T08:32:10.000Z</time>
      </trkpt>
      <trkpt lat="47.17373" lon="-1.88358">
        <ele>105</ele>
        <time>2021-04-05T08:32:12.000Z</time>
      </trkpt>
      <trkpt lat="47.17374" lon="-1.88376">
        <ele>105</ele>
        <time>2021-04-05T08:32:14.000Z</time>
      </trkpt>
      <trkpt lat="47.17376" lon="-1.88394">
        <ele>105</ele>
        <time>2021-04-05T08:32:16.000Z</time>
      </trkpt>
      <trkpt lat="47.17376" lon="-1.88411">
        <ele>105</ele>
        <time>2021-04-05T08:32:18.000Z</time>
      </trkpt>
      <trkpt lat="47.17377" lon="-1.88429">
        <ele>105</ele>
        <time>2021-04-05T08:32:20.000Z</time>
      </trkpt>
      <trkpt lat="47.17378" lon="-1.88447">
        <ele>105</ele>
        <time>2021-04-05T08:32:22.000Z</time>
      </trkpt>
      <trkpt lat="47.1738" lon="-1.88465">
        <ele>105</ele>
        <time>2021-04-05T08:32:24.000Z</time>
      </trkpt>
      <trkpt lat="47.17381" lon="-1.88482">
        <ele>105</ele>
        <time>2021-04-05T08:32:26.000Z</time>
      </trkpt>
      <trkpt lat="47.17382" lon="-1.885">
        <ele>105</ele>
        <time>2021-04-05T08:32:28.000Z</time>
      </trkpt>
      <trkpt lat="47.17383" lon="-1.88517">
        <ele>105</ele>
        <time>2021-04-05T08:32:30.000Z</time>
      </trkpt>
      <trkpt lat="47.17384" lon="-1.88535">
        <ele>105</ele>
        <time>2021-04-05T08:32:32.000Z</time>
      </trkpt>
      <trkpt lat="47.17385" lon="-1.88552">
        <ele>105</ele>
        <time>2021-04-05T08:32:34.000Z</time>
      </trkpt>
      <trkpt lat="47.17385" lon="-1.88569">
        <ele>105</ele>
        <time>2021-04-05T08:32:36.000Z</time>
      </trkpt>
      <trkpt lat="47.17386" lon="-1.88586">
        <ele>105</ele>
        <time>2021-04-05T08:32:38.000Z</time>
      </trkpt>
      <trkpt lat="47.17387" lon="-1.88603">
        <ele>105</ele>
        <time>2021-04-05T08:32:40.000Z</time>
      </trkpt>
      <trkpt lat="47.17388" lon="-1.88619">
        <ele>105</ele>
        <time>2021-04-05T08:32:42.000Z</time>
      </trkpt>
      <trkpt lat="47.17389" lon="-1.88636">
        <ele>105</ele>
        <time>2021-04-05T08:32:44.000Z</time>
      </trkpt>
      <trkpt lat="47.1739" lon="-1.88653">
        <ele>105</ele>
        <time>2021-04-05T08:32:46.000Z</time>
      </trkpt>
      <trkpt lat="47.17391" lon="-1.8867">
        <ele>105</ele>
        <time>2021-04-05T08:32:48.000Z</time>
      </trkpt>
      <trkpt lat="47.17392" lon="-1.88687">
        <ele>105</ele>
        <time>2021-04-05T08:32:50.000Z</time>
      </trkpt>
      <trkpt lat="47.17393" lon="-1.88703">
        <ele>105</ele>
        <time>2021-04-05T08:32:52.000Z</time>
      </trkpt>
      <trkpt lat="47.17394" lon="-1.8872">
        <ele>105</ele>
        <time>2021-04-05T08:32:54.000Z</time>
      </trkpt>
      <trkpt lat="47.17395" lon="-1.88736">
        <ele>105</ele>
        <time>2021-04-05T08:32:56.000Z</time>
      </trkpt>
      <trkpt lat="47.17396" lon="-1.88753">
        <ele>106</ele>
        <time>2021-04-05T08:32:58.000Z</time>
      </trkpt>
      <trkpt lat="47.17397" lon="-1.8877">
        <ele>106</ele>
        <time>2021-04-05T08:33:00.000Z</time>
      </trkpt>
      <trkpt lat="47.17398" lon="-1.88786">
        <ele>106</ele>
        <time>2021-04-05T08:33:02.000Z</time>
      </trkpt>
      <trkpt lat="47.174" lon="-1.88804">
        <ele>106</ele>
        <time>2021-04-05T08:33:04.000Z</time>
      </trkpt>
      <trkpt lat="47.17402" lon="-1.8882">
        <ele>106</ele>
        <time>2021-04-05T08:33:06.000Z</time>
      </trkpt>
      <trkpt lat="47.17406" lon="-1.88837">
        <ele>106</ele>
        <time>2021-04-05T08:33:08.000Z</time>
      </trkpt>
      <trkpt lat="47.17409" lon="-1.88854">
        <ele>106</ele>
        <time>2021-04-05T08:33:10.000Z</time>
      </trkpt>
      <trkpt lat="47.17413" lon="-1.8887">
        <ele>106</ele>
        <time>2021-04-05T08:33:12.000Z</time>
      </trkpt>
      <trkpt lat="47.17417" lon="-1.88887">
        <ele>105</ele>
        <time>2021-04-05T08:33:14.000Z</time>
      </trkpt>
      <trkpt lat="47.1742" lon="-1.88903">
        <ele>106</ele>
        <time>2021-04-05T08:33:16.000Z</time>
      </trkpt>
      <trkpt lat="47.17424" lon="-1.8892">
        <ele>105</ele>
        <time>2021-04-05T08:33:18.000Z</time>
      </trkpt>
      <trkpt lat="47.17427" lon="-1.88936">
        <ele>106</ele>
        <time>2021-04-05T08:33:20.000Z</time>
      </trkpt>
      <trkpt lat="47.17431" lon="-1.88952">
        <ele>105</ele>
        <time>2021-04-05T08:33:22.000Z</time>
      </trkpt>
      <trkpt lat="47.17434" lon="-1.88967">
        <ele>105</ele>
        <time>2021-04-05T08:33:24.000Z</time>
      </trkpt>
      <trkpt lat="47.17437" lon="-1.88983">
        <ele>105</ele>
        <time>2021-04-05T08:33:26.000Z</time>
      </trkpt>
      <trkpt lat="47.17441" lon="-1.88998">
        <ele>105</ele>
        <time>2021-04-05T08:33:28.000Z</time>
      </trkpt>
      <trkpt lat="47.17444" lon="-1.89013">
        <ele>105</ele>
        <time>2021-04-05T08:33:30.000Z</time>
      </trkpt>
      <trkpt lat="47.17448" lon="-1.89029">
        <ele>106</ele>
        <time>2021-04-05T08:33:32.000Z</time>
      </trkpt>
      <trkpt lat="47.17451" lon="-1.89045">
        <ele>106</ele>
        <time>2021-04-05T08:33:34.000Z</time>
      </trkpt>
      <trkpt lat="47.17454" lon="-1.89061">
        <ele>106</ele>
        <time>2021-04-05T08:33:36.000Z</time>
      </trkpt>
      <trkpt lat="47.17458" lon="-1.89077">
        <ele>106</ele>
        <time>2021-04-05T08:33:38.000Z</time>
      </trkpt>
      <trkpt lat="47.17462" lon="-1.89092">
        <ele>106</ele>
        <time>2021-04-05T08:33:40.000Z</time>
      </trkpt>
      <trkpt lat="47.17465" lon="-1.89108">
        <ele>106</ele>
        <time>2021-04-05T08:33:42.000Z</time>
      </trkpt>
      <trkpt lat="47.17468" lon="-1.89123">
        <ele>106</ele>
        <time>2021-04-05T08:33:44.000Z</time>
      </trkpt>
      <trkpt lat="47.17472" lon="-1.89139">
        <ele>106</ele>
        <time>2021-04-05T08:33:46.000Z</time>
      </trkpt>
      <trkpt lat="47.17475" lon="-1.89155">
        <ele>106</ele>
        <time>2021-04-05T08:33:48.000Z</time>
      </trkpt>
      <trkpt lat="47.17478" lon="-1.89171">
        <ele>106</ele>
        <time>2021-04-05T08:33:50.000Z</time>
      </trkpt>
      <trkpt lat="47.1748" lon="-1.89188">
        <ele>106</ele>
        <time>2021-04-05T08:33:52.000Z</time>
      </trkpt>
      <trkpt lat="47.17481" lon="-1.89205">
        <ele>106</ele>
        <time>2021-04-05T08:33:54.000Z</time>
      </trkpt>
      <trkpt lat="47.17482" lon="-1.89221">
        <ele>107</ele>
        <time>2021-04-05T08:33:56.000Z</time>
      </trkpt>
      <trkpt lat="47.17481" lon="-1.89237">
        <ele>107</ele>
        <time>2021-04-05T08:33:58.000Z</time>
      </trkpt>
      <trkpt lat="47.1748" lon="-1.89255">
        <ele>106</ele>
        <time>2021-04-05T08:34:00.000Z</time>
      </trkpt>
      <trkpt lat="47.17479" lon="-1.89272">
        <ele>106</ele>
        <time>2021-04-05T08:34:02.000Z</time>
      </trkpt>
      <trkpt lat="47.17477" lon="-1.8929">
        <ele>106</ele>
        <time>2021-04-05T08:34:04.000Z</time>
      </trkpt>
      <trkpt lat="47.17476" lon="-1.89306">
        <ele>106</ele>
        <time>2021-04-05T08:34:06.000Z</time>
      </trkpt>
      <trkpt lat="47.17475" lon="-1.89323">
        <ele>106</ele>
        <time>2021-04-05T08:34:08.000Z</time>
      </trkpt>
      <trkpt lat="47.17474" lon="-1.8934">
        <ele>106</ele>
        <time>2021-04-05T08:34:10.000Z</time>
      </trkpt>
      <trkpt lat="47.17474" lon="-1.89357">
        <ele>106</ele>
        <time>2021-04-05T08:34:12.000Z</time>
      </trkpt>
      <trkpt lat="47.17474" lon="-1.89374">
        <ele>107</ele>
        <time>2021-04-05T08:34:14.000Z</time>
      </trkpt>
      <trkpt lat="47.17476" lon="-1.89391">
        <ele>107</ele>
        <time>2021-04-05T08:34:16.000Z</time>
      </trkpt>
      <trkpt lat="47.17478" lon="-1.89408">
        <ele>106</ele>
        <time>2021-04-05T08:34:18.000Z</time>
      </trkpt>
      <trkpt lat="47.17478" lon="-1.89425">
        <ele>107</ele>
        <time>2021-04-05T08:34:20.000Z</time>
      </trkpt>
      <trkpt lat="47.1748" lon="-1.89443">
        <ele>107</ele>
        <time>2021-04-05T08:34:22.000Z</time>
      </trkpt>
      <trkpt lat="47.17482" lon="-1.8946">
        <ele>107</ele>
        <time>2021-04-05T08:34:24.000Z</time>
      </trkpt>
      <trkpt lat="47.17483" lon="-1.89477">
        <ele>106</ele>
        <time>2021-04-05T08:34:26.000Z</time>
      </trkpt>
      <trkpt lat="47.17485" lon="-1.89494">
        <ele>106</ele>
        <time>2021-04-05T08:34:28.000Z</time>
      </trkpt>
      <trkpt lat="47.17486" lon="-1.89512">
        <ele>106</ele>
        <time>2021-04-05T08:34:30.000Z</time>
      </trkpt>
      <trkpt lat="47.17487" lon="-1.89529">
        <ele>106</ele>
        <time>2021-04-05T08:34:32.000Z</time>
      </trkpt>
      <trkpt lat="47.17488" lon="-1.89547">
        <ele>107</ele>
        <time>2021-04-05T08:34:34.000Z</time>
      </trkpt>
      <trkpt lat="47.17489" lon="-1.89565">
        <ele>106</ele>
        <time>2021-04-05T08:34:36.000Z</time>
      </trkpt>
      <trkpt lat="47.17488" lon="-1.89583">
        <ele>107</ele>
        <time>2021-04-05T08:34:38.000Z</time>
      </trkpt>
      <trkpt lat="47.17487" lon="-1.896">
        <ele>107</ele>
        <time>2021-04-05T08:34:40.000Z</time>
      </trkpt>
      <trkpt lat="47.17484" lon="-1.89617">
        <ele>106</ele>
        <time>2021-04-05T08:34:42.000Z</time>
      </trkpt>
      <trkpt lat="47.17481" lon="-1.89634">
        <ele>106</ele>
        <time>2021-04-05T08:34:44.000Z</time>
      </trkpt>
      <trkpt lat="47.17478" lon="-1.89651">
        <ele>106</ele>
        <time>2021-04-05T08:34:46.000Z</time>
      </trkpt>
      <trkpt lat="47.17475" lon="-1.89667">
        <ele>106</ele>
        <time>2021-04-05T08:34:48.000Z</time>
      </trkpt>
      <trkpt lat="47.17471" lon="-1.89684">
        <ele>106</ele>
        <time>2021-04-05T08:34:50.000Z</time>
      </trkpt>
      <trkpt lat="47.17468" lon="-1.89701">
        <ele>106</ele>
        <time>2021-04-05T08:34:52.000Z</time>
      </trkpt>
      <trkpt lat="47.17464" lon="-1.89717">
        <ele>106</ele>
        <time>2021-04-05T08:34:54.000Z</time>
      </trkpt>
      <trkpt lat="47.1746" lon="-1.89734">
        <ele>106</ele>
        <time>2021-04-05T08:34:56.000Z</time>
      </trkpt>
      <trkpt lat="47.17456" lon="-1.89751">
        <ele>106</ele>
        <time>2021-04-05T08:34:58.000Z</time>
      </trkpt>
      <trkpt lat="47.17452" lon="-1.89768">
        <ele>106</ele>
        <time>2021-04-05T08:35:00.000Z</time>
      </trkpt>
      <trkpt lat="47.17449" lon="-1.89786">
        <ele>106</ele>
        <time>2021-04-05T08:35:02.000Z</time>
      </trkpt>
      <trkpt lat="47.17445" lon="-1.89803">
        <ele>107</ele>
        <time>2021-04-05T08:35:04.000Z</time>
      </trkpt>
      <trkpt lat="47.17441" lon="-1.8982">
        <ele>107</ele>
        <time>2021-04-05T08:35:06.000Z</time>
      </trkpt>
      <trkpt lat="47.17437" lon="-1.89837">
        <ele>107</ele>
        <time>2021-04-05T08:35:08.000Z</time>
      </trkpt>
      <trkpt lat="47.17433" lon="-1.89854">
        <ele>107</ele>
        <time>2021-04-05T08:35:10.000Z</time>
      </trkpt>
      <trkpt lat="47.1743" lon="-1.89871">
        <ele>107</ele>
        <time>2021-04-05T08:35:12.000Z</time>
      </trkpt>
      <trkpt lat="47.17426" lon="-1.89888">
        <ele>107</ele>
        <time>2021-04-05T08:35:14.000Z</time>
      </trkpt>
      <trkpt lat="47.17422" lon="-1.89904">
        <ele>107</ele>
        <time>2021-04-05T08:35:16.000Z</time>
      </trkpt>
      <trkpt lat="47.17419" lon="-1.89919">
        <ele>107</ele>
        <time>2021-04-05T08:35:18.000Z</time>
      </trkpt>
      <trkpt lat="47.17415" lon="-1.89933">
        <ele>107</ele>
        <time>2021-04-05T08:35:20.000Z</time>
      </trkpt>
      <trkpt lat="47.17413" lon="-1.89946">
        <ele>107</ele>
        <time>2021-04-05T08:35:22.000Z</time>
      </trkpt>
      <trkpt lat="47.1741" lon="-1.89958">
        <ele>108</ele>
        <time>2021-04-05T08:35:24.000Z</time>
      </trkpt>
      <trkpt lat="47.17404" lon="-1.89968">
        <ele>108</ele>
        <time>2021-04-05T08:35:26.000Z</time>
      </trkpt>
      <trkpt lat="47.17393" lon="-1.8997">
        <ele>108</ele>
        <time>2021-04-05T08:35:28.000Z</time>
      </trkpt>
      <trkpt lat="47.1738" lon="-1.89971">
        <ele>107</ele>
        <time>2021-04-05T08:35:30.000Z</time>
      </trkpt>
      <trkpt lat="47.17367" lon="-1.89971">
        <ele>107</ele>
        <time>2021-04-05T08:35:32.000Z</time>
      </trkpt>
      <trkpt lat="47.17355" lon="-1.89972">
        <ele>108</ele>
        <time>2021-04-05T08:35:34.000Z</time>
      </trkpt>
      <trkpt lat="47.17343" lon="-1.89972">
        <ele>108</ele>
        <time>2021-04-05T08:35:36.000Z</time>
      </trkpt>
      <trkpt lat="47.1733" lon="-1.89973">
        <ele>108</ele>
        <time>2021-04-05T08:35:38.000Z</time>
      </trkpt>
      <trkpt lat="47.17317" lon="-1.89973">
        <ele>108</ele>
        <time>2021-04-05T08:35:40.000Z</time>
      </trkpt>
      <trkpt lat="47.17304" lon="-1.89972">
        <ele>108</ele>
        <time>2021-04-05T08:35:42.000Z</time>
      </trkpt>
      <trkpt lat="47.17292" lon="-1.89972">
        <ele>107</ele>
        <time>2021-04-05T08:35:44.000Z</time>
      </trkpt>
      <trkpt lat="47.17279" lon="-1.89972">
        <ele>107</ele>
        <time>2021-04-05T08:35:46.000Z</time>
      </trkpt>
      <trkpt lat="47.17266" lon="-1.89973">
        <ele>107</ele>
        <time>2021-04-05T08:35:48.000Z</time>
      </trkpt>
      <trkpt lat="47.17253" lon="-1.89973">
        <ele>106</ele>
        <time>2021-04-05T08:35:50.000Z</time>
      </trkpt>
      <trkpt lat="47.1724" lon="-1.89973">
        <ele>106</ele>
        <time>2021-04-05T08:35:52.000Z</time>
      </trkpt>
      <trkpt lat="47.17227" lon="-1.89973">
        <ele>106</ele>
        <time>2021-04-05T08:35:54.000Z</time>
      </trkpt>
      <trkpt lat="47.17214" lon="-1.89974">
        <ele>107</ele>
        <time>2021-04-05T08:35:56.000Z</time>
      </trkpt>
      <trkpt lat="47.17201" lon="-1.89975">
        <ele>107</ele>
        <time>2021-04-05T08:35:58.000Z</time>
      </trkpt>
      <trkpt lat="47.17188" lon="-1.89975">
        <ele>106</ele>
        <time>2021-04-05T08:36:00.000Z</time>
      </trkpt>
      <trkpt lat="47.17176" lon="-1.89975">
        <ele>107</ele>
        <time>2021-04-05T08:36:02.000Z</time>
      </trkpt>
      <trkpt lat="47.17163" lon="-1.89975">
        <ele>106</ele>
        <time>2021-04-05T08:36:04.000Z</time>
      </trkpt>
      <trkpt lat="47.17143" lon="-1.89974">
        <ele>106</ele>
        <time>2021-04-05T08:36:07.000Z</time>
      </trkpt>
      <trkpt lat="47.1713" lon="-1.89975">
        <ele>106</ele>
        <time>2021-04-05T08:36:09.000Z</time>
      </trkpt>
      <trkpt lat="47.17118" lon="-1.89975">
        <ele>106</ele>
        <time>2021-04-05T08:36:11.000Z</time>
      </trkpt>
      <trkpt lat="47.17105" lon="-1.89976">
        <ele>106</ele>
        <time>2021-04-05T08:36:13.000Z</time>
      </trkpt>
      <trkpt lat="47.17092" lon="-1.89976">
        <ele>106</ele>
        <time>2021-04-05T08:36:15.000Z</time>
      </trkpt>
      <trkpt lat="47.17079" lon="-1.89977">
        <ele>106</ele>
        <time>2021-04-05T08:36:17.000Z</time>
      </trkpt>
      <trkpt lat="47.17066" lon="-1.89977">
        <ele>105</ele>
        <time>2021-04-05T08:36:19.000Z</time>
      </trkpt>
      <trkpt lat="47.17053" lon="-1.89977">
        <ele>105</ele>
        <time>2021-04-05T08:36:21.000Z</time>
      </trkpt>
      <trkpt lat="47.17041" lon="-1.89977">
        <ele>105</ele>
        <time>2021-04-05T08:36:23.000Z</time>
      </trkpt>
      <trkpt lat="47.17028" lon="-1.89978">
        <ele>105</ele>
        <time>2021-04-05T08:36:25.000Z</time>
      </trkpt>
      <trkpt lat="47.17009" lon="-1.8998">
        <ele>104</ele>
        <time>2021-04-05T08:36:28.000Z</time>
      </trkpt>
      <trkpt lat="47.1699" lon="-1.89984">
        <ele>105</ele>
        <time>2021-04-05T08:36:31.000Z</time>
      </trkpt>
      <trkpt lat="47.16978" lon="-1.89986">
        <ele>105</ele>
        <time>2021-04-05T08:36:33.000Z</time>
      </trkpt>
      <trkpt lat="47.16966" lon="-1.89989">
        <ele>105</ele>
        <time>2021-04-05T08:36:35.000Z</time>
      </trkpt>
      <trkpt lat="47.16953" lon="-1.89992">
        <ele>105</ele>
        <time>2021-04-05T08:36:37.000Z</time>
      </trkpt>
      <trkpt lat="47.16941" lon="-1.89996">
        <ele>105</ele>
        <time>2021-04-05T08:36:39.000Z</time>
      </trkpt>
      <trkpt lat="47.16929" lon="-1.89997">
        <ele>105</ele>
        <time>2021-04-05T08:36:41.000Z</time>
      </trkpt>
      <trkpt lat="47.16917" lon="-1.9">
        <ele>104</ele>
        <time>2021-04-05T08:36:43.000Z</time>
      </trkpt>
      <trkpt lat="47.16905" lon="-1.90002">
        <ele>105</ele>
        <time>2021-04-05T08:36:45.000Z</time>
      </trkpt>
      <trkpt lat="47.16893" lon="-1.90005">
        <ele>105</ele>
        <time>2021-04-05T08:36:47.000Z</time>
      </trkpt>
      <trkpt lat="47.1688" lon="-1.90007">
        <ele>104</ele>
        <time>2021-04-05T08:36:49.000Z</time>
      </trkpt>
      <trkpt lat="47.16869" lon="-1.9001">
        <ele>104</ele>
        <time>2021-04-05T08:36:51.000Z</time>
      </trkpt>
      <trkpt lat="47.16856" lon="-1.90012">
        <ele>104</ele>
        <time>2021-04-05T08:36:53.000Z</time>
      </trkpt>
      <trkpt lat="47.16838" lon="-1.90016">
        <ele>104</ele>
        <time>2021-04-05T08:36:56.000Z</time>
      </trkpt>
      <trkpt lat="47.16819" lon="-1.9002">
        <ele>105</ele>
        <time>2021-04-05T08:36:59.000Z</time>
      </trkpt>
      <trkpt lat="47.16802" lon="-1.90024">
        <ele>105</ele>
        <time>2021-04-05T08:37:02.000Z</time>
      </trkpt>
      <trkpt lat="47.16783" lon="-1.90028">
        <ele>105</ele>
        <time>2021-04-05T08:37:05.000Z</time>
      </trkpt>
      <trkpt lat="47.1677" lon="-1.9003">
        <ele>105</ele>
        <time>2021-04-05T08:37:07.000Z</time>
      </trkpt>
      <trkpt lat="47.16759" lon="-1.90032">
        <ele>105</ele>
        <time>2021-04-05T08:37:09.000Z</time>
      </trkpt>
      <trkpt lat="47.16747" lon="-1.90035">
        <ele>105</ele>
        <time>2021-04-05T08:37:11.000Z</time>
      </trkpt>
      <trkpt lat="47.16728" lon="-1.90039">
        <ele>106</ele>
        <time>2021-04-05T08:37:14.000Z</time>
      </trkpt>
      <trkpt lat="47.16716" lon="-1.90042">
        <ele>106</ele>
        <time>2021-04-05T08:37:16.000Z</time>
      </trkpt>
      <trkpt lat="47.16704" lon="-1.90044">
        <ele>105</ele>
        <time>2021-04-05T08:37:18.000Z</time>
      </trkpt>
      <trkpt lat="47.16685" lon="-1.90048">
        <ele>105</ele>
        <time>2021-04-05T08:37:21.000Z</time>
      </trkpt>
      <trkpt lat="47.16672" lon="-1.9005">
        <ele>105</ele>
        <time>2021-04-05T08:37:23.000Z</time>
      </trkpt>
      <trkpt lat="47.16659" lon="-1.90052">
        <ele>105</ele>
        <time>2021-04-05T08:37:25.000Z</time>
      </trkpt>
      <trkpt lat="47.16647" lon="-1.90055">
        <ele>104</ele>
        <time>2021-04-05T08:37:27.000Z</time>
      </trkpt>
      <trkpt lat="47.16634" lon="-1.90059">
        <ele>104</ele>
        <time>2021-04-05T08:37:29.000Z</time>
      </trkpt>
      <trkpt lat="47.16621" lon="-1.90062">
        <ele>104</ele>
        <time>2021-04-05T08:37:31.000Z</time>
      </trkpt>
      <trkpt lat="47.16609" lon="-1.90065">
        <ele>105</ele>
        <time>2021-04-05T08:37:33.000Z</time>
      </trkpt>
      <trkpt lat="47.1659" lon="-1.90069">
        <ele>105</ele>
        <time>2021-04-05T08:37:36.000Z</time>
      </trkpt>
      <trkpt lat="47.16577" lon="-1.90072">
        <ele>105</ele>
        <time>2021-04-05T08:37:38.000Z</time>
      </trkpt>
      <trkpt lat="47.16564" lon="-1.90074">
        <ele>105</ele>
        <time>2021-04-05T08:37:40.000Z</time>
      </trkpt>
      <trkpt lat="47.16551" lon="-1.90076">
        <ele>105</ele>
        <time>2021-04-05T08:37:42.000Z</time>
      </trkpt>
      <trkpt lat="47.16538" lon="-1.90079">
        <ele>104</ele>
        <time>2021-04-05T08:37:44.000Z</time>
      </trkpt>
      <trkpt lat="47.16526" lon="-1.90081">
        <ele>105</ele>
        <time>2021-04-05T08:37:46.000Z</time>
      </trkpt>
      <trkpt lat="47.16515" lon="-1.90083">
        <ele>105</ele>
        <time>2021-04-05T08:37:48.000Z</time>
      </trkpt>
      <trkpt lat="47.16503" lon="-1.90086">
        <ele>105</ele>
        <time>2021-04-05T08:37:50.000Z</time>
      </trkpt>
      <trkpt lat="47.16491" lon="-1.90089">
        <ele>104</ele>
        <time>2021-04-05T08:37:52.000Z</time>
      </trkpt>
      <trkpt lat="47.16473" lon="-1.90093">
        <ele>104</ele>
        <time>2021-04-05T08:37:55.000Z</time>
      </trkpt>
      <trkpt lat="47.16453" lon="-1.90097">
        <ele>104</ele>
        <time>2021-04-05T08:37:58.000Z</time>
      </trkpt>
      <trkpt lat="47.16441" lon="-1.90099">
        <ele>104</ele>
        <time>2021-04-05T08:38:00.000Z</time>
      </trkpt>
      <trkpt lat="47.16428" lon="-1.90101">
        <ele>104</ele>
        <time>2021-04-05T08:38:02.000Z</time>
      </trkpt>
      <trkpt lat="47.16415" lon="-1.90104">
        <ele>103</ele>
        <time>2021-04-05T08:38:04.000Z</time>
      </trkpt>
      <trkpt lat="47.16402" lon="-1.90107">
        <ele>103</ele>
        <time>2021-04-05T08:38:06.000Z</time>
      </trkpt>
      <trkpt lat="47.16389" lon="-1.9011">
        <ele>103</ele>
        <time>2021-04-05T08:38:08.000Z</time>
      </trkpt>
      <trkpt lat="47.16376" lon="-1.90113">
        <ele>103</ele>
        <time>2021-04-05T08:38:10.000Z</time>
      </trkpt>
      <trkpt lat="47.16362" lon="-1.90115">
        <ele>103</ele>
        <time>2021-04-05T08:38:12.000Z</time>
      </trkpt>
      <trkpt lat="47.16349" lon="-1.90117">
        <ele>103</ele>
        <time>2021-04-05T08:38:14.000Z</time>
      </trkpt>
      <trkpt lat="47.16337" lon="-1.9012">
        <ele>103</ele>
        <time>2021-04-05T08:38:16.000Z</time>
      </trkpt>
      <trkpt lat="47.16324" lon="-1.90123">
        <ele>103</ele>
        <time>2021-04-05T08:38:18.000Z</time>
      </trkpt>
      <trkpt lat="47.16312" lon="-1.90127">
        <ele>103</ele>
        <time>2021-04-05T08:38:20.000Z</time>
      </trkpt>
      <trkpt lat="47.163" lon="-1.90129">
        <ele>103</ele>
        <time>2021-04-05T08:38:22.000Z</time>
      </trkpt>
      <trkpt lat="47.16288" lon="-1.90131">
        <ele>103</ele>
        <time>2021-04-05T08:38:24.000Z</time>
      </trkpt>
      <trkpt lat="47.16276" lon="-1.90134">
        <ele>103</ele>
        <time>2021-04-05T08:38:26.000Z</time>
      </trkpt>
      <trkpt lat="47.16262" lon="-1.90136">
        <ele>102</ele>
        <time>2021-04-05T08:38:28.000Z</time>
      </trkpt>
      <trkpt lat="47.1625" lon="-1.90138">
        <ele>101</ele>
        <time>2021-04-05T08:38:30.000Z</time>
      </trkpt>
      <trkpt lat="47.16238" lon="-1.9014">
        <ele>101</ele>
        <time>2021-04-05T08:38:32.000Z</time>
      </trkpt>
      <trkpt lat="47.16219" lon="-1.90144">
        <ele>100</ele>
        <time>2021-04-05T08:38:35.000Z</time>
      </trkpt>
      <trkpt lat="47.16205" lon="-1.90147">
        <ele>100</ele>
        <time>2021-04-05T08:38:37.000Z</time>
      </trkpt>
      <trkpt lat="47.16191" lon="-1.9015">
        <ele>100</ele>
        <time>2021-04-05T08:38:39.000Z</time>
      </trkpt>
      <trkpt lat="47.16177" lon="-1.90153">
        <ele>99</ele>
        <time>2021-04-05T08:38:41.000Z</time>
      </trkpt>
      <trkpt lat="47.16164" lon="-1.90155">
        <ele>99</ele>
        <time>2021-04-05T08:38:43.000Z</time>
      </trkpt>
      <trkpt lat="47.16151" lon="-1.90158">
        <ele>98</ele>
        <time>2021-04-05T08:38:45.000Z</time>
      </trkpt>
      <trkpt lat="47.16137" lon="-1.90162">
        <ele>98</ele>
        <time>2021-04-05T08:38:47.000Z</time>
      </trkpt>
      <trkpt lat="47.16124" lon="-1.90164">
        <ele>98</ele>
        <time>2021-04-05T08:38:49.000Z</time>
      </trkpt>
      <trkpt lat="47.16112" lon="-1.90167">
        <ele>97</ele>
        <time>2021-04-05T08:38:51.000Z</time>
      </trkpt>
      <trkpt lat="47.16099" lon="-1.9017">
        <ele>97</ele>
        <time>2021-04-05T08:38:53.000Z</time>
      </trkpt>
      <trkpt lat="47.16086" lon="-1.90172">
        <ele>97</ele>
        <time>2021-04-05T08:38:55.000Z</time>
      </trkpt>
      <trkpt lat="47.16066" lon="-1.90177">
        <ele>97</ele>
        <time>2021-04-05T08:38:58.000Z</time>
      </trkpt>
      <trkpt lat="47.16053" lon="-1.90179">
        <ele>97</ele>
        <time>2021-04-05T08:39:00.000Z</time>
      </trkpt>
      <trkpt lat="47.1604" lon="-1.90182">
        <ele>97</ele>
        <time>2021-04-05T08:39:02.000Z</time>
      </trkpt>
      <trkpt lat="47.16025" lon="-1.90185">
        <ele>97</ele>
        <time>2021-04-05T08:39:04.000Z</time>
      </trkpt>
      <trkpt lat="47.16011" lon="-1.90188">
        <ele>97</ele>
        <time>2021-04-05T08:39:06.000Z</time>
      </trkpt>
      <trkpt lat="47.15997" lon="-1.90191">
        <ele>97</ele>
        <time>2021-04-05T08:39:08.000Z</time>
      </trkpt>
      <trkpt lat="47.15984" lon="-1.90194">
        <ele>97</ele>
        <time>2021-04-05T08:39:10.000Z</time>
      </trkpt>
      <trkpt lat="47.15969" lon="-1.90197">
        <ele>97</ele>
        <time>2021-04-05T08:39:12.000Z</time>
      </trkpt>
      <trkpt lat="47.15948" lon="-1.90202">
        <ele>97</ele>
        <time>2021-04-05T08:39:15.000Z</time>
      </trkpt>
      <trkpt lat="47.15933" lon="-1.90205">
        <ele>97</ele>
        <time>2021-04-05T08:39:17.000Z</time>
      </trkpt>
      <trkpt lat="47.15917" lon="-1.90207">
        <ele>97</ele>
        <time>2021-04-05T08:39:19.000Z</time>
      </trkpt>
      <trkpt lat="47.15903" lon="-1.90208">
        <ele>96</ele>
        <time>2021-04-05T08:39:21.000Z</time>
      </trkpt>
      <trkpt lat="47.1589" lon="-1.90207">
        <ele>96</ele>
        <time>2021-04-05T08:39:23.000Z</time>
      </trkpt>
      <trkpt lat="47.15869" lon="-1.90202">
        <ele>96</ele>
        <time>2021-04-05T08:39:26.000Z</time>
      </trkpt>
      <trkpt lat="47.15857" lon="-1.90199">
        <ele>95</ele>
        <time>2021-04-05T08:39:28.000Z</time>
      </trkpt>
      <trkpt lat="47.15843" lon="-1.90198">
        <ele>95</ele>
        <time>2021-04-05T08:39:30.000Z</time>
      </trkpt>
      <trkpt lat="47.1583" lon="-1.90198">
        <ele>95</ele>
        <time>2021-04-05T08:39:32.000Z</time>
      </trkpt>
      <trkpt lat="47.15817" lon="-1.90202">
        <ele>94</ele>
        <time>2021-04-05T08:39:34.000Z</time>
      </trkpt>
      <trkpt lat="47.15804" lon="-1.90208">
        <ele>93</ele>
        <time>2021-04-05T08:39:36.000Z</time>
      </trkpt>
      <trkpt lat="47.15791" lon="-1.90216">
        <ele>92</ele>
        <time>2021-04-05T08:39:38.000Z</time>
      </trkpt>
      <trkpt lat="47.15778" lon="-1.90227">
        <ele>92</ele>
        <time>2021-04-05T08:39:40.000Z</time>
      </trkpt>
      <trkpt lat="47.15764" lon="-1.90235">
        <ele>93</ele>
        <time>2021-04-05T08:39:42.000Z</time>
      </trkpt>
      <trkpt lat="47.1575" lon="-1.90242">
        <ele>93</ele>
        <time>2021-04-05T08:39:44.000Z</time>
      </trkpt>
      <trkpt lat="47.15736" lon="-1.90247">
        <ele>93</ele>
        <time>2021-04-05T08:39:46.000Z</time>
      </trkpt>
      <trkpt lat="47.15721" lon="-1.90251">
        <ele>92</ele>
        <time>2021-04-05T08:39:48.000Z</time>
      </trkpt>
      <trkpt lat="47.15707" lon="-1.90254">
        <ele>92</ele>
        <time>2021-04-05T08:39:50.000Z</time>
      </trkpt>
      <trkpt lat="47.15693" lon="-1.90257">
        <ele>91</ele>
        <time>2021-04-05T08:39:52.000Z</time>
      </trkpt>
      <trkpt lat="47.15679" lon="-1.9026">
        <ele>91</ele>
        <time>2021-04-05T08:39:54.000Z</time>
      </trkpt>
      <trkpt lat="47.15663" lon="-1.90263">
        <ele>91</ele>
        <time>2021-04-05T08:39:56.000Z</time>
      </trkpt>
      <trkpt lat="47.15648" lon="-1.90266">
        <ele>90</ele>
        <time>2021-04-05T08:39:58.000Z</time>
      </trkpt>
      <trkpt lat="47.15632" lon="-1.9027">
        <ele>90</ele>
        <time>2021-04-05T08:40:00.000Z</time>
      </trkpt>
      <trkpt lat="47.15616" lon="-1.90274">
        <ele>90</ele>
        <time>2021-04-05T08:40:02.000Z</time>
      </trkpt>
      <trkpt lat="47.156" lon="-1.90277">
        <ele>90</ele>
        <time>2021-04-05T08:40:04.000Z</time>
      </trkpt>
      <trkpt lat="47.15584" lon="-1.9028">
        <ele>89</ele>
        <time>2021-04-05T08:40:06.000Z</time>
      </trkpt>
      <trkpt lat="47.15569" lon="-1.90284">
        <ele>89</ele>
        <time>2021-04-05T08:40:08.000Z</time>
      </trkpt>
      <trkpt lat="47.15554" lon="-1.90287">
        <ele>89</ele>
        <time>2021-04-05T08:40:10.000Z</time>
      </trkpt>
      <trkpt lat="47.15539" lon="-1.90289">
        <ele>88</ele>
        <time>2021-04-05T08:40:12.000Z</time>
      </trkpt>
      <trkpt lat="47.15523" lon="-1.90292">
        <ele>87</ele>
        <time>2021-04-05T08:40:14.000Z</time>
      </trkpt>
      <trkpt lat="47.15509" lon="-1.90296">
        <ele>86</ele>
        <time>2021-04-05T08:40:16.000Z</time>
      </trkpt>
      <trkpt lat="47.15494" lon="-1.90299">
        <ele>85</ele>
        <time>2021-04-05T08:40:18.000Z</time>
      </trkpt>
      <trkpt lat="47.15478" lon="-1.90302">
        <ele>85</ele>
        <time>2021-04-05T08:40:20.000Z</time>
      </trkpt>
      <trkpt lat="47.15464" lon="-1.90306">
        <ele>85</ele>
        <time>2021-04-05T08:40:22.000Z</time>
      </trkpt>
      <trkpt lat="47.15449" lon="-1.90313">
        <ele>85</ele>
        <time>2021-04-05T08:40:24.000Z</time>
      </trkpt>
      <trkpt lat="47.15435" lon="-1.9032">
        <ele>84</ele>
        <time>2021-04-05T08:40:26.000Z</time>
      </trkpt>
      <trkpt lat="47.15421" lon="-1.90328">
        <ele>84</ele>
        <time>2021-04-05T08:40:28.000Z</time>
      </trkpt>
      <trkpt lat="47.15407" lon="-1.90332">
        <ele>83</ele>
        <time>2021-04-05T08:40:30.000Z</time>
      </trkpt>
      <trkpt lat="47.15392" lon="-1.90336">
        <ele>84</ele>
        <time>2021-04-05T08:40:32.000Z</time>
      </trkpt>
      <trkpt lat="47.15377" lon="-1.90339">
        <ele>84</ele>
        <time>2021-04-05T08:40:34.000Z</time>
      </trkpt>
      <trkpt lat="47.15355" lon="-1.90344">
        <ele>84</ele>
        <time>2021-04-05T08:40:37.000Z</time>
      </trkpt>
      <trkpt lat="47.1534" lon="-1.90348">
        <ele>84</ele>
        <time>2021-04-05T08:40:39.000Z</time>
      </trkpt>
      <trkpt lat="47.15326" lon="-1.90351">
        <ele>84</ele>
        <time>2021-04-05T08:40:41.000Z</time>
      </trkpt>
      <trkpt lat="47.15311" lon="-1.90355">
        <ele>84</ele>
        <time>2021-04-05T08:40:43.000Z</time>
      </trkpt>
      <trkpt lat="47.15297" lon="-1.90359">
        <ele>83</ele>
        <time>2021-04-05T08:40:45.000Z</time>
      </trkpt>
      <trkpt lat="47.15282" lon="-1.90362">
        <ele>83</ele>
        <time>2021-04-05T08:40:47.000Z</time>
      </trkpt>
      <trkpt lat="47.15267" lon="-1.90366">
        <ele>83</ele>
        <time>2021-04-05T08:40:49.000Z</time>
      </trkpt>
      <trkpt lat="47.15253" lon="-1.90369">
        <ele>83</ele>
        <time>2021-04-05T08:40:51.000Z</time>
      </trkpt>
      <trkpt lat="47.15238" lon="-1.90372">
        <ele>83</ele>
        <time>2021-04-05T08:40:53.000Z</time>
      </trkpt>
      <trkpt lat="47.15223" lon="-1.90375">
        <ele>83</ele>
        <time>2021-04-05T08:40:55.000Z</time>
      </trkpt>
      <trkpt lat="47.15208" lon="-1.90378">
        <ele>83</ele>
        <time>2021-04-05T08:40:57.000Z</time>
      </trkpt>
      <trkpt lat="47.15194" lon="-1.90382">
        <ele>82</ele>
        <time>2021-04-05T08:40:59.000Z</time>
      </trkpt>
      <trkpt lat="47.15179" lon="-1.90386">
        <ele>82</ele>
        <time>2021-04-05T08:41:01.000Z</time>
      </trkpt>
      <trkpt lat="47.15165" lon="-1.90389">
        <ele>82</ele>
        <time>2021-04-05T08:41:03.000Z</time>
      </trkpt>
      <trkpt lat="47.1515" lon="-1.90392">
        <ele>82</ele>
        <time>2021-04-05T08:41:05.000Z</time>
      </trkpt>
      <trkpt lat="47.15136" lon="-1.90395">
        <ele>81</ele>
        <time>2021-04-05T08:41:07.000Z</time>
      </trkpt>
      <trkpt lat="47.15121" lon="-1.90399">
        <ele>81</ele>
        <time>2021-04-05T08:41:09.000Z</time>
      </trkpt>
      <trkpt lat="47.15107" lon="-1.90402">
        <ele>80</ele>
        <time>2021-04-05T08:41:11.000Z</time>
      </trkpt>
      <trkpt lat="47.15092" lon="-1.90405">
        <ele>80</ele>
        <time>2021-04-05T08:41:13.000Z</time>
      </trkpt>
      <trkpt lat="47.15078" lon="-1.90409">
        <ele>80</ele>
        <time>2021-04-05T08:41:15.000Z</time>
      </trkpt>
      <trkpt lat="47.15063" lon="-1.90412">
        <ele>80</ele>
        <time>2021-04-05T08:41:17.000Z</time>
      </trkpt>
      <trkpt lat="47.15049" lon="-1.90415">
        <ele>80</ele>
        <time>2021-04-05T08:41:19.000Z</time>
      </trkpt>
      <trkpt lat="47.15035" lon="-1.90419">
        <ele>80</ele>
        <time>2021-04-05T08:41:21.000Z</time>
      </trkpt>
      <trkpt lat="47.1502" lon="-1.90421">
        <ele>80</ele>
        <time>2021-04-05T08:41:23.000Z</time>
      </trkpt>
      <trkpt lat="47.15006" lon="-1.90425">
        <ele>80</ele>
        <time>2021-04-05T08:41:25.000Z</time>
      </trkpt>
      <trkpt lat="47.14993" lon="-1.90428">
        <ele>80</ele>
        <time>2021-04-05T08:41:27.000Z</time>
      </trkpt>
      <trkpt lat="47.14978" lon="-1.90432">
        <ele>80</ele>
        <time>2021-04-05T08:41:29.000Z</time>
      </trkpt>
      <trkpt lat="47.14964" lon="-1.90435">
        <ele>80</ele>
        <time>2021-04-05T08:41:31.000Z</time>
      </trkpt>
      <trkpt lat="47.1495" lon="-1.90438">
        <ele>80</ele>
        <time>2021-04-05T08:41:33.000Z</time>
      </trkpt>
      <trkpt lat="47.14936" lon="-1.90441">
        <ele>80</ele>
        <time>2021-04-05T08:41:35.000Z</time>
      </trkpt>
      <trkpt lat="47.14922" lon="-1.90444">
        <ele>80</ele>
        <time>2021-04-05T08:41:37.000Z</time>
      </trkpt>
      <trkpt lat="47.14909" lon="-1.90447">
        <ele>80</ele>
        <time>2021-04-05T08:41:39.000Z</time>
      </trkpt>
      <trkpt lat="47.14895" lon="-1.9045">
        <ele>80</ele>
        <time>2021-04-05T08:41:41.000Z</time>
      </trkpt>
      <trkpt lat="47.14881" lon="-1.90453">
        <ele>79</ele>
        <time>2021-04-05T08:41:43.000Z</time>
      </trkpt>
      <trkpt lat="47.14867" lon="-1.90456">
        <ele>79</ele>
        <time>2021-04-05T08:41:45.000Z</time>
      </trkpt>
      <trkpt lat="47.14853" lon="-1.90459">
        <ele>78</ele>
        <time>2021-04-05T08:41:47.000Z</time>
      </trkpt>
      <trkpt lat="47.14839" lon="-1.90463">
        <ele>78</ele>
        <time>2021-04-05T08:41:49.000Z</time>
      </trkpt>
      <trkpt lat="47.14825" lon="-1.90465">
        <ele>78</ele>
        <time>2021-04-05T08:41:51.000Z</time>
      </trkpt>
      <trkpt lat="47.14811" lon="-1.90468">
        <ele>78</ele>
        <time>2021-04-05T08:41:53.000Z</time>
      </trkpt>
      <trkpt lat="47.14798" lon="-1.90472">
        <ele>78</ele>
        <time>2021-04-05T08:41:55.000Z</time>
      </trkpt>
      <trkpt lat="47.14784" lon="-1.90475">
        <ele>78</ele>
        <time>2021-04-05T08:41:57.000Z</time>
      </trkpt>
      <trkpt lat="47.14771" lon="-1.90478">
        <ele>77</ele>
        <time>2021-04-05T08:41:59.000Z</time>
      </trkpt>
      <trkpt lat="47.14757" lon="-1.90481">
        <ele>77</ele>
        <time>2021-04-05T08:42:01.000Z</time>
      </trkpt>
      <trkpt lat="47.14744" lon="-1.90484">
        <ele>78</ele>
        <time>2021-04-05T08:42:03.000Z</time>
      </trkpt>
      <trkpt lat="47.1473" lon="-1.90487">
        <ele>78</ele>
        <time>2021-04-05T08:42:05.000Z</time>
      </trkpt>
      <trkpt lat="47.14716" lon="-1.9049">
        <ele>78</ele>
        <time>2021-04-05T08:42:07.000Z</time>
      </trkpt>
      <trkpt lat="47.14702" lon="-1.90493">
        <ele>78</ele>
        <time>2021-04-05T08:42:09.000Z</time>
      </trkpt>
      <trkpt lat="47.14689" lon="-1.90496">
        <ele>78</ele>
        <time>2021-04-05T08:42:11.000Z</time>
      </trkpt>
      <trkpt lat="47.14676" lon="-1.90499">
        <ele>77</ele>
        <time>2021-04-05T08:42:13.000Z</time>
      </trkpt>
      <trkpt lat="47.14663" lon="-1.90502">
        <ele>77</ele>
        <time>2021-04-05T08:42:15.000Z</time>
      </trkpt>
      <trkpt lat="47.14649" lon="-1.90505">
        <ele>77</ele>
        <time>2021-04-05T08:42:17.000Z</time>
      </trkpt>
      <trkpt lat="47.14636" lon="-1.90508">
        <ele>77</ele>
        <time>2021-04-05T08:42:19.000Z</time>
      </trkpt>
      <trkpt lat="47.14622" lon="-1.9051">
        <ele>77</ele>
        <time>2021-04-05T08:42:21.000Z</time>
      </trkpt>
      <trkpt lat="47.14608" lon="-1.90514">
        <ele>76</ele>
        <time>2021-04-05T08:42:23.000Z</time>
      </trkpt>
      <trkpt lat="47.14594" lon="-1.90518">
        <ele>77</ele>
        <time>2021-04-05T08:42:25.000Z</time>
      </trkpt>
      <trkpt lat="47.1458" lon="-1.90521">
        <ele>77</ele>
        <time>2021-04-05T08:42:27.000Z</time>
      </trkpt>
      <trkpt lat="47.14567" lon="-1.90524">
        <ele>76</ele>
        <time>2021-04-05T08:42:29.000Z</time>
      </trkpt>
      <trkpt lat="47.14554" lon="-1.90527">
        <ele>76</ele>
        <time>2021-04-05T08:42:31.000Z</time>
      </trkpt>
      <trkpt lat="47.1454" lon="-1.9053">
        <ele>76</ele>
        <time>2021-04-05T08:42:33.000Z</time>
      </trkpt>
      <trkpt lat="47.14526" lon="-1.90533">
        <ele>76</ele>
        <time>2021-04-05T08:42:35.000Z</time>
      </trkpt>
      <trkpt lat="47.14512" lon="-1.90536">
        <ele>77</ele>
        <time>2021-04-05T08:42:37.000Z</time>
      </trkpt>
      <trkpt lat="47.14499" lon="-1.90539">
        <ele>77</ele>
        <time>2021-04-05T08:42:39.000Z</time>
      </trkpt>
      <trkpt lat="47.14485" lon="-1.90543">
        <ele>76</ele>
        <time>2021-04-05T08:42:41.000Z</time>
      </trkpt>
      <trkpt lat="47.14471" lon="-1.90546">
        <ele>76</ele>
        <time>2021-04-05T08:42:43.000Z</time>
      </trkpt>
      <trkpt lat="47.14457" lon="-1.90549">
        <ele>77</ele>
        <time>2021-04-05T08:42:45.000Z</time>
      </trkpt>
      <trkpt lat="47.14443" lon="-1.90552">
        <ele>76</ele>
        <time>2021-04-05T08:42:47.000Z</time>
      </trkpt>
      <trkpt lat="47.1443" lon="-1.90556">
        <ele>76</ele>
        <time>2021-04-05T08:42:49.000Z</time>
      </trkpt>
      <trkpt lat="47.14416" lon="-1.90559">
        <ele>76</ele>
        <time>2021-04-05T08:42:51.000Z</time>
      </trkpt>
      <trkpt lat="47.14402" lon="-1.90562">
        <ele>75</ele>
        <time>2021-04-05T08:42:53.000Z</time>
      </trkpt>
      <trkpt lat="47.14389" lon="-1.90565">
        <ele>75</ele>
        <time>2021-04-05T08:42:55.000Z</time>
      </trkpt>
      <trkpt lat="47.14376" lon="-1.90568">
        <ele>75</ele>
        <time>2021-04-05T08:42:57.000Z</time>
      </trkpt>
      <trkpt lat="47.14361" lon="-1.90571">
        <ele>75</ele>
        <time>2021-04-05T08:42:59.000Z</time>
      </trkpt>
      <trkpt lat="47.14348" lon="-1.90574">
        <ele>74</ele>
        <time>2021-04-05T08:43:01.000Z</time>
      </trkpt>
      <trkpt lat="47.14334" lon="-1.90577">
        <ele>74</ele>
        <time>2021-04-05T08:43:03.000Z</time>
      </trkpt>
      <trkpt lat="47.14321" lon="-1.9058">
        <ele>74</ele>
        <time>2021-04-05T08:43:05.000Z</time>
      </trkpt>
      <trkpt lat="47.14307" lon="-1.90583">
        <ele>74</ele>
        <time>2021-04-05T08:43:07.000Z</time>
      </trkpt>
      <trkpt lat="47.14294" lon="-1.90586">
        <ele>74</ele>
        <time>2021-04-05T08:43:09.000Z</time>
      </trkpt>
      <trkpt lat="47.1428" lon="-1.90589">
        <ele>73</ele>
        <time>2021-04-05T08:43:11.000Z</time>
      </trkpt>
      <trkpt lat="47.14267" lon="-1.90592">
        <ele>73</ele>
        <time>2021-04-05T08:43:13.000Z</time>
      </trkpt>
      <trkpt lat="47.14253" lon="-1.90595">
        <ele>73</ele>
        <time>2021-04-05T08:43:15.000Z</time>
      </trkpt>
      <trkpt lat="47.1424" lon="-1.90598">
        <ele>73</ele>
        <time>2021-04-05T08:43:17.000Z</time>
      </trkpt>
      <trkpt lat="47.14227" lon="-1.90601">
        <ele>73</ele>
        <time>2021-04-05T08:43:19.000Z</time>
      </trkpt>
      <trkpt lat="47.14214" lon="-1.90604">
        <ele>73</ele>
        <time>2021-04-05T08:43:21.000Z</time>
      </trkpt>
      <trkpt lat="47.142" lon="-1.90606">
        <ele>72</ele>
        <time>2021-04-05T08:43:23.000Z</time>
      </trkpt>
      <trkpt lat="47.14187" lon="-1.9061">
        <ele>72</ele>
        <time>2021-04-05T08:43:25.000Z</time>
      </trkpt>
      <trkpt lat="47.14175" lon="-1.90611">
        <ele>72</ele>
        <time>2021-04-05T08:43:27.000Z</time>
      </trkpt>
      <trkpt lat="47.14163" lon="-1.90614">
        <ele>72</ele>
        <time>2021-04-05T08:43:29.000Z</time>
      </trkpt>
      <trkpt lat="47.1415" lon="-1.90619">
        <ele>72</ele>
        <time>2021-04-05T08:43:31.000Z</time>
      </trkpt>
      <trkpt lat="47.14135" lon="-1.90622">
        <ele>72</ele>
        <time>2021-04-05T08:43:33.000Z</time>
      </trkpt>
      <trkpt lat="47.14121" lon="-1.90622">
        <ele>72</ele>
        <time>2021-04-05T08:43:35.000Z</time>
      </trkpt>
      <trkpt lat="47.14107" lon="-1.90624">
        <ele>72</ele>
        <time>2021-04-05T08:43:37.000Z</time>
      </trkpt>
      <trkpt lat="47.14094" lon="-1.90624">
        <ele>71</ele>
        <time>2021-04-05T08:43:39.000Z</time>
      </trkpt>
      <trkpt lat="47.1408" lon="-1.90625">
        <ele>71</ele>
        <time>2021-04-05T08:43:41.000Z</time>
      </trkpt>
      <trkpt lat="47.14067" lon="-1.90625">
        <ele>71</ele>
        <time>2021-04-05T08:43:43.000Z</time>
      </trkpt>
      <trkpt lat="47.14053" lon="-1.90627">
        <ele>71</ele>
        <time>2021-04-05T08:43:45.000Z</time>
      </trkpt>
      <trkpt lat="47.1404" lon="-1.90629">
        <ele>71</ele>
        <time>2021-04-05T08:43:47.000Z</time>
      </trkpt>
      <trkpt lat="47.14026" lon="-1.90631">
        <ele>71</ele>
        <time>2021-04-05T08:43:49.000Z</time>
      </trkpt>
      <trkpt lat="47.14013" lon="-1.90634">
        <ele>71</ele>
        <time>2021-04-05T08:43:51.000Z</time>
      </trkpt>
      <trkpt lat="47.14" lon="-1.90636">
        <ele>71</ele>
        <time>2021-04-05T08:43:53.000Z</time>
      </trkpt>
      <trkpt lat="47.13986" lon="-1.90639">
        <ele>71</ele>
        <time>2021-04-05T08:43:55.000Z</time>
      </trkpt>
      <trkpt lat="47.13973" lon="-1.90642">
        <ele>71</ele>
        <time>2021-04-05T08:43:57.000Z</time>
      </trkpt>
      <trkpt lat="47.1396" lon="-1.90645">
        <ele>71</ele>
        <time>2021-04-05T08:43:59.000Z</time>
      </trkpt>
      <trkpt lat="47.13946" lon="-1.90648">
        <ele>70</ele>
        <time>2021-04-05T08:44:01.000Z</time>
      </trkpt>
      <trkpt lat="47.13933" lon="-1.90651">
        <ele>70</ele>
        <time>2021-04-05T08:44:03.000Z</time>
      </trkpt>
      <trkpt lat="47.1392" lon="-1.90655">
        <ele>70</ele>
        <time>2021-04-05T08:44:05.000Z</time>
      </trkpt>
      <trkpt lat="47.13906" lon="-1.90658">
        <ele>69</ele>
        <time>2021-04-05T08:44:07.000Z</time>
      </trkpt>
      <trkpt lat="47.13894" lon="-1.90662">
        <ele>70</ele>
        <time>2021-04-05T08:44:09.000Z</time>
      </trkpt>
      <trkpt lat="47.1388" lon="-1.90665">
        <ele>69</ele>
        <time>2021-04-05T08:44:11.000Z</time>
      </trkpt>
      <trkpt lat="47.13868" lon="-1.90669">
        <ele>69</ele>
        <time>2021-04-05T08:44:13.000Z</time>
      </trkpt>
      <trkpt lat="47.13855" lon="-1.90672">
        <ele>69</ele>
        <time>2021-04-05T08:44:15.000Z</time>
      </trkpt>
      <trkpt lat="47.13842" lon="-1.90675">
        <ele>69</ele>
        <time>2021-04-05T08:44:17.000Z</time>
      </trkpt>
      <trkpt lat="47.13828" lon="-1.90677">
        <ele>69</ele>
        <time>2021-04-05T08:44:19.000Z</time>
      </trkpt>
      <trkpt lat="47.13815" lon="-1.90681">
        <ele>68</ele>
        <time>2021-04-05T08:44:21.000Z</time>
      </trkpt>
      <trkpt lat="47.138" lon="-1.90684">
        <ele>68</ele>
        <time>2021-04-05T08:44:23.000Z</time>
      </trkpt>
      <trkpt lat="47.13786" lon="-1.90689">
        <ele>67</ele>
        <time>2021-04-05T08:44:25.000Z</time>
      </trkpt>
      <trkpt lat="47.13771" lon="-1.90697">
        <ele>67</ele>
        <time>2021-04-05T08:44:27.000Z</time>
      </trkpt>
      <trkpt lat="47.13757" lon="-1.90708">
        <ele>65</ele>
        <time>2021-04-05T08:44:29.000Z</time>
      </trkpt>
      <trkpt lat="47.13746" lon="-1.90723">
        <ele>65</ele>
        <time>2021-04-05T08:44:31.000Z</time>
      </trkpt>
      <trkpt lat="47.13737" lon="-1.90741">
        <ele>64</ele>
        <time>2021-04-05T08:44:33.000Z</time>
      </trkpt>
      <trkpt lat="47.1373" lon="-1.90759">
        <ele>64</ele>
        <time>2021-04-05T08:44:35.000Z</time>
      </trkpt>
      <trkpt lat="47.13722" lon="-1.90777">
        <ele>63</ele>
        <time>2021-04-05T08:44:37.000Z</time>
      </trkpt>
      <trkpt lat="47.13715" lon="-1.90796">
        <ele>63</ele>
        <time>2021-04-05T08:44:39.000Z</time>
      </trkpt>
      <trkpt lat="47.13707" lon="-1.90814">
        <ele>63</ele>
        <time>2021-04-05T08:44:41.000Z</time>
      </trkpt>
      <trkpt lat="47.13699" lon="-1.90831">
        <ele>63</ele>
        <time>2021-04-05T08:44:43.000Z</time>
      </trkpt>
      <trkpt lat="47.13691" lon="-1.90849">
        <ele>63</ele>
        <time>2021-04-05T08:44:45.000Z</time>
      </trkpt>
      <trkpt lat="47.13684" lon="-1.90866">
        <ele>62</ele>
        <time>2021-04-05T08:44:47.000Z</time>
      </trkpt>
      <trkpt lat="47.13676" lon="-1.90884">
        <ele>62</ele>
        <time>2021-04-05T08:44:49.000Z</time>
      </trkpt>
      <trkpt lat="47.13669" lon="-1.90902">
        <ele>62</ele>
        <time>2021-04-05T08:44:51.000Z</time>
      </trkpt>
      <trkpt lat="47.13661" lon="-1.90919">
        <ele>61</ele>
        <time>2021-04-05T08:44:53.000Z</time>
      </trkpt>
      <trkpt lat="47.13654" lon="-1.90936">
        <ele>62</ele>
        <time>2021-04-05T08:44:55.000Z</time>
      </trkpt>
      <trkpt lat="47.13647" lon="-1.90954">
        <ele>61</ele>
        <time>2021-04-05T08:44:57.000Z</time>
      </trkpt>
      <trkpt lat="47.1364" lon="-1.90971">
        <ele>61</ele>
        <time>2021-04-05T08:44:59.000Z</time>
      </trkpt>
      <trkpt lat="47.13632" lon="-1.90987">
        <ele>60</ele>
        <time>2021-04-05T08:45:01.000Z</time>
      </trkpt>
      <trkpt lat="47.13625" lon="-1.91004">
        <ele>60</ele>
        <time>2021-04-05T08:45:03.000Z</time>
      </trkpt>
      <trkpt lat="47.13617" lon="-1.91019">
        <ele>60</ele>
        <time>2021-04-05T08:45:05.000Z</time>
      </trkpt>
      <trkpt lat="47.13607" lon="-1.91033">
        <ele>61</ele>
        <time>2021-04-05T08:45:07.000Z</time>
      </trkpt>
      <trkpt lat="47.13595" lon="-1.91043">
        <ele>61</ele>
        <time>2021-04-05T08:45:09.000Z</time>
      </trkpt>
      <trkpt lat="47.13582" lon="-1.91048">
        <ele>61</ele>
        <time>2021-04-05T08:45:11.000Z</time>
      </trkpt>
      <trkpt lat="47.13568" lon="-1.9105">
        <ele>61</ele>
        <time>2021-04-05T08:45:13.000Z</time>
      </trkpt>
      <trkpt lat="47.13555" lon="-1.91052">
        <ele>61</ele>
        <time>2021-04-05T08:45:15.000Z</time>
      </trkpt>
      <trkpt lat="47.13541" lon="-1.91054">
        <ele>60</ele>
        <time>2021-04-05T08:45:17.000Z</time>
      </trkpt>
      <trkpt lat="47.13528" lon="-1.91056">
        <ele>61</ele>
        <time>2021-04-05T08:45:19.000Z</time>
      </trkpt>
      <trkpt lat="47.13514" lon="-1.91057">
        <ele>61</ele>
        <time>2021-04-05T08:45:21.000Z</time>
      </trkpt>
      <trkpt lat="47.135" lon="-1.91058">
        <ele>61</ele>
        <time>2021-04-05T08:45:23.000Z</time>
      </trkpt>
      <trkpt lat="47.13485" lon="-1.9106">
        <ele>61</ele>
        <time>2021-04-05T08:45:25.000Z</time>
      </trkpt>
      <trkpt lat="47.13472" lon="-1.91061">
        <ele>61</ele>
        <time>2021-04-05T08:45:27.000Z</time>
      </trkpt>
      <trkpt lat="47.13458" lon="-1.91062">
        <ele>61</ele>
        <time>2021-04-05T08:45:29.000Z</time>
      </trkpt>
      <trkpt lat="47.13444" lon="-1.91063">
        <ele>61</ele>
        <time>2021-04-05T08:45:31.000Z</time>
      </trkpt>
      <trkpt lat="47.1343" lon="-1.91061">
        <ele>61</ele>
        <time>2021-04-05T08:45:33.000Z</time>
      </trkpt>
      <trkpt lat="47.13416" lon="-1.91058">
        <ele>61</ele>
        <time>2021-04-05T08:45:35.000Z</time>
      </trkpt>
      <trkpt lat="47.13403" lon="-1.91052">
        <ele>61</ele>
        <time>2021-04-05T08:45:37.000Z</time>
      </trkpt>
      <trkpt lat="47.13392" lon="-1.91041">
        <ele>61</ele>
        <time>2021-04-05T08:45:39.000Z</time>
      </trkpt>
      <trkpt lat="47.1338" lon="-1.9103">
        <ele>61</ele>
        <time>2021-04-05T08:45:41.000Z</time>
      </trkpt>
      <trkpt lat="47.13369" lon="-1.91019">
        <ele>61</ele>
        <time>2021-04-05T08:45:43.000Z</time>
      </trkpt>
      <trkpt lat="47.13357" lon="-1.91009">
        <ele>61</ele>
        <time>2021-04-05T08:45:45.000Z</time>
      </trkpt>
      <trkpt lat="47.13344" lon="-1.91003">
        <ele>60</ele>
        <time>2021-04-05T08:45:47.000Z</time>
      </trkpt>
      <trkpt lat="47.1333" lon="-1.91001">
        <ele>61</ele>
        <time>2021-04-05T08:45:49.000Z</time>
      </trkpt>
      <trkpt lat="47.13316" lon="-1.91003">
        <ele>61</ele>
        <time>2021-04-05T08:45:51.000Z</time>
      </trkpt>
      <trkpt lat="47.13303" lon="-1.91006">
        <ele>60</ele>
        <time>2021-04-05T08:45:53.000Z</time>
      </trkpt>
      <trkpt lat="47.1329" lon="-1.9101">
        <ele>61</ele>
        <time>2021-04-05T08:45:55.000Z</time>
      </trkpt>
      <trkpt lat="47.13276" lon="-1.91014">
        <ele>61</ele>
        <time>2021-04-05T08:45:57.000Z</time>
      </trkpt>
      <trkpt lat="47.13263" lon="-1.91018">
        <ele>61</ele>
        <time>2021-04-05T08:45:59.000Z</time>
      </trkpt>
      <trkpt lat="47.1325" lon="-1.91022">
        <ele>61</ele>
        <time>2021-04-05T08:46:01.000Z</time>
      </trkpt>
      <trkpt lat="47.13237" lon="-1.91025">
        <ele>61</ele>
        <time>2021-04-05T08:46:03.000Z</time>
      </trkpt>
      <trkpt lat="47.13224" lon="-1.91029">
        <ele>61</ele>
        <time>2021-04-05T08:46:05.000Z</time>
      </trkpt>
      <trkpt lat="47.1321" lon="-1.91032">
        <ele>61</ele>
        <time>2021-04-05T08:46:07.000Z</time>
      </trkpt>
      <trkpt lat="47.13198" lon="-1.91036">
        <ele>61</ele>
        <time>2021-04-05T08:46:09.000Z</time>
      </trkpt>
      <trkpt lat="47.13185" lon="-1.91039">
        <ele>61</ele>
        <time>2021-04-05T08:46:11.000Z</time>
      </trkpt>
      <trkpt lat="47.13172" lon="-1.91042">
        <ele>61</ele>
        <time>2021-04-05T08:46:13.000Z</time>
      </trkpt>
      <trkpt lat="47.13159" lon="-1.91046">
        <ele>61</ele>
        <time>2021-04-05T08:46:15.000Z</time>
      </trkpt>
      <trkpt lat="47.13145" lon="-1.91049">
        <ele>60</ele>
        <time>2021-04-05T08:46:17.000Z</time>
      </trkpt>
      <trkpt lat="47.13132" lon="-1.91052">
        <ele>60</ele>
        <time>2021-04-05T08:46:19.000Z</time>
      </trkpt>
      <trkpt lat="47.13118" lon="-1.91056">
        <ele>60</ele>
        <time>2021-04-05T08:46:21.000Z</time>
      </trkpt>
      <trkpt lat="47.13105" lon="-1.91058">
        <ele>61</ele>
        <time>2021-04-05T08:46:23.000Z</time>
      </trkpt>
      <trkpt lat="47.13092" lon="-1.91059">
        <ele>61</ele>
        <time>2021-04-05T08:46:25.000Z</time>
      </trkpt>
      <trkpt lat="47.13079" lon="-1.9106">
        <ele>61</ele>
        <time>2021-04-05T08:46:27.000Z</time>
      </trkpt>
      <trkpt lat="47.13066" lon="-1.9106">
        <ele>60</ele>
        <time>2021-04-05T08:46:29.000Z</time>
      </trkpt>
      <trkpt lat="47.13052" lon="-1.9106">
        <ele>60</ele>
        <time>2021-04-05T08:46:31.000Z</time>
      </trkpt>
      <trkpt lat="47.13039" lon="-1.91059">
        <ele>60</ele>
        <time>2021-04-05T08:46:33.000Z</time>
      </trkpt>
      <trkpt lat="47.13026" lon="-1.91059">
        <ele>59</ele>
        <time>2021-04-05T08:46:35.000Z</time>
      </trkpt>
      <trkpt lat="47.13013" lon="-1.9106">
        <ele>59</ele>
        <time>2021-04-05T08:46:37.000Z</time>
      </trkpt>
      <trkpt lat="47.13" lon="-1.9106">
        <ele>60</ele>
        <time>2021-04-05T08:46:39.000Z</time>
      </trkpt>
      <trkpt lat="47.12987" lon="-1.9106">
        <ele>60</ele>
        <time>2021-04-05T08:46:41.000Z</time>
      </trkpt>
      <trkpt lat="47.12974" lon="-1.9106">
        <ele>60</ele>
        <time>2021-04-05T08:46:43.000Z</time>
      </trkpt>
      <trkpt lat="47.1296" lon="-1.91059">
        <ele>61</ele>
        <time>2021-04-05T08:46:45.000Z</time>
      </trkpt>
      <trkpt lat="47.12947" lon="-1.91059">
        <ele>61</ele>
        <time>2021-04-05T08:46:47.000Z</time>
      </trkpt>
      <trkpt lat="47.12935" lon="-1.91059">
        <ele>61</ele>
        <time>2021-04-05T08:46:49.000Z</time>
      </trkpt>
      <trkpt lat="47.12922" lon="-1.91059">
        <ele>61</ele>
        <time>2021-04-05T08:46:51.000Z</time>
      </trkpt>
      <trkpt lat="47.12909" lon="-1.91059">
        <ele>61</ele>
        <time>2021-04-05T08:46:53.000Z</time>
      </trkpt>
      <trkpt lat="47.12896" lon="-1.9106">
        <ele>61</ele>
        <time>2021-04-05T08:46:55.000Z</time>
      </trkpt>
      <trkpt lat="47.12882" lon="-1.91059">
        <ele>61</ele>
        <time>2021-04-05T08:46:57.000Z</time>
      </trkpt>
      <trkpt lat="47.12869" lon="-1.91059">
        <ele>61</ele>
        <time>2021-04-05T08:46:59.000Z</time>
      </trkpt>
      <trkpt lat="47.12855" lon="-1.9106">
        <ele>61</ele>
        <time>2021-04-05T08:47:01.000Z</time>
      </trkpt>
      <trkpt lat="47.12842" lon="-1.9106">
        <ele>61</ele>
        <time>2021-04-05T08:47:03.000Z</time>
      </trkpt>
      <trkpt lat="47.12829" lon="-1.91065">
        <ele>60</ele>
        <time>2021-04-05T08:47:05.000Z</time>
      </trkpt>
      <trkpt lat="47.12819" lon="-1.91075">
        <ele>60</ele>
        <time>2021-04-05T08:47:07.000Z</time>
      </trkpt>
      <trkpt lat="47.12807" lon="-1.91085">
        <ele>60</ele>
        <time>2021-04-05T08:47:09.000Z</time>
      </trkpt>
      <trkpt lat="47.12796" lon="-1.91093">
        <ele>60</ele>
        <time>2021-04-05T08:47:11.000Z</time>
      </trkpt>
      <trkpt lat="47.12785" lon="-1.9109">
        <ele>60</ele>
        <time>2021-04-05T08:47:13.000Z</time>
      </trkpt>
      <trkpt lat="47.12775" lon="-1.9108">
        <ele>59</ele>
        <time>2021-04-05T08:47:15.000Z</time>
      </trkpt>
      <trkpt lat="47.12764" lon="-1.9107">
        <ele>59</ele>
        <time>2021-04-05T08:47:17.000Z</time>
      </trkpt>
      <trkpt lat="47.12752" lon="-1.91063">
        <ele>59</ele>
        <time>2021-04-05T08:47:19.000Z</time>
      </trkpt>
      <trkpt lat="47.12738" lon="-1.91061">
        <ele>58</ele>
        <time>2021-04-05T08:47:21.000Z</time>
      </trkpt>
      <trkpt lat="47.12725" lon="-1.91059">
        <ele>58</ele>
        <time>2021-04-05T08:47:23.000Z</time>
      </trkpt>
      <trkpt lat="47.12711" lon="-1.91059">
        <ele>58</ele>
        <time>2021-04-05T08:47:25.000Z</time>
      </trkpt>
      <trkpt lat="47.12698" lon="-1.9106">
        <ele>58</ele>
        <time>2021-04-05T08:47:27.000Z</time>
      </trkpt>
      <trkpt lat="47.12686" lon="-1.91064">
        <ele>58</ele>
        <time>2021-04-05T08:47:29.000Z</time>
      </trkpt>
      <trkpt lat="47.12672" lon="-1.91069">
        <ele>58</ele>
        <time>2021-04-05T08:47:31.000Z</time>
      </trkpt>
      <trkpt lat="47.12659" lon="-1.91069">
        <ele>59</ele>
        <time>2021-04-05T08:47:33.000Z</time>
      </trkpt>
      <trkpt lat="47.12644" lon="-1.91069">
        <ele>58</ele>
        <time>2021-04-05T08:47:35.000Z</time>
      </trkpt>
      <trkpt lat="47.1263" lon="-1.91068">
        <ele>58</ele>
        <time>2021-04-05T08:47:37.000Z</time>
      </trkpt>
      <trkpt lat="47.12616" lon="-1.91067">
        <ele>58</ele>
        <time>2021-04-05T08:47:39.000Z</time>
      </trkpt>
      <trkpt lat="47.12602" lon="-1.91066">
        <ele>58</ele>
        <time>2021-04-05T08:47:41.000Z</time>
      </trkpt>
      <trkpt lat="47.12588" lon="-1.91066">
        <ele>58</ele>
        <time>2021-04-05T08:47:43.000Z</time>
      </trkpt>
      <trkpt lat="47.12574" lon="-1.91067">
        <ele>58</ele>
        <time>2021-04-05T08:47:45.000Z</time>
      </trkpt>
      <trkpt lat="47.1256" lon="-1.91068">
        <ele>59</ele>
        <time>2021-04-05T08:47:47.000Z</time>
      </trkpt>
      <trkpt lat="47.12546" lon="-1.9107">
        <ele>59</ele>
        <time>2021-04-05T08:47:49.000Z</time>
      </trkpt>
      <trkpt lat="47.12532" lon="-1.91071">
        <ele>61</ele>
        <time>2021-04-05T08:47:51.000Z</time>
      </trkpt>
      <trkpt lat="47.12518" lon="-1.91067">
        <ele>60</ele>
        <time>2021-04-05T08:47:53.000Z</time>
      </trkpt>
      <trkpt lat="47.12504" lon="-1.91069">
        <ele>60</ele>
        <time>2021-04-05T08:47:55.000Z</time>
      </trkpt>
      <trkpt lat="47.12492" lon="-1.91073">
        <ele>59</ele>
        <time>2021-04-05T08:47:57.000Z</time>
      </trkpt>
      <trkpt lat="47.1248" lon="-1.91077">
        <ele>59</ele>
        <time>2021-04-05T08:47:59.000Z</time>
      </trkpt>
      <trkpt lat="47.12468" lon="-1.91081">
        <ele>59</ele>
        <time>2021-04-05T08:48:01.000Z</time>
      </trkpt>
      <trkpt lat="47.12455" lon="-1.91081">
        <ele>58</ele>
        <time>2021-04-05T08:48:03.000Z</time>
      </trkpt>
      <trkpt lat="47.12442" lon="-1.91087">
        <ele>58</ele>
        <time>2021-04-05T08:48:05.000Z</time>
      </trkpt>
      <trkpt lat="47.12429" lon="-1.91092">
        <ele>58</ele>
        <time>2021-04-05T08:48:07.000Z</time>
      </trkpt>
      <trkpt lat="47.12417" lon="-1.91098">
        <ele>58</ele>
        <time>2021-04-05T08:48:09.000Z</time>
      </trkpt>
      <trkpt lat="47.12406" lon="-1.91107">
        <ele>59</ele>
        <time>2021-04-05T08:48:11.000Z</time>
      </trkpt>
      <trkpt lat="47.12395" lon="-1.91119">
        <ele>59</ele>
        <time>2021-04-05T08:48:13.000Z</time>
      </trkpt>
      <trkpt lat="47.12384" lon="-1.91132">
        <ele>59</ele>
        <time>2021-04-05T08:48:15.000Z</time>
      </trkpt>
      <trkpt lat="47.12376" lon="-1.91146">
        <ele>58</ele>
        <time>2021-04-05T08:48:17.000Z</time>
      </trkpt>
      <trkpt lat="47.12369" lon="-1.91161">
        <ele>57</ele>
        <time>2021-04-05T08:48:19.000Z</time>
      </trkpt>
      <trkpt lat="47.12361" lon="-1.91177">
        <ele>56</ele>
        <time>2021-04-05T08:48:21.000Z</time>
      </trkpt>
      <trkpt lat="47.12354" lon="-1.91193">
        <ele>56</ele>
        <time>2021-04-05T08:48:23.000Z</time>
      </trkpt>
      <trkpt lat="47.12346" lon="-1.91208">
        <ele>56</ele>
        <time>2021-04-05T08:48:25.000Z</time>
      </trkpt>
      <trkpt lat="47.12339" lon="-1.91223">
        <ele>57</ele>
        <time>2021-04-05T08:48:27.000Z</time>
      </trkpt>
      <trkpt lat="47.12332" lon="-1.91237">
        <ele>57</ele>
        <time>2021-04-05T08:48:29.000Z</time>
      </trkpt>
      <trkpt lat="47.12325" lon="-1.91252">
        <ele>56</ele>
        <time>2021-04-05T08:48:31.000Z</time>
      </trkpt>
      <trkpt lat="47.12318" lon="-1.91267">
        <ele>56</ele>
        <time>2021-04-05T08:48:33.000Z</time>
      </trkpt>
      <trkpt lat="47.12311" lon="-1.91282">
        <ele>56</ele>
        <time>2021-04-05T08:48:35.000Z</time>
      </trkpt>
      <trkpt lat="47.12304" lon="-1.91296">
        <ele>56</ele>
        <time>2021-04-05T08:48:37.000Z</time>
      </trkpt>
      <trkpt lat="47.12297" lon="-1.91311">
        <ele>57</ele>
        <time>2021-04-05T08:48:39.000Z</time>
      </trkpt>
      <trkpt lat="47.12289" lon="-1.91326">
        <ele>57</ele>
        <time>2021-04-05T08:48:41.000Z</time>
      </trkpt>
      <trkpt lat="47.12281" lon="-1.91342">
        <ele>57</ele>
        <time>2021-04-05T08:48:43.000Z</time>
      </trkpt>
      <trkpt lat="47.12273" lon="-1.91356">
        <ele>57</ele>
        <time>2021-04-05T08:48:45.000Z</time>
      </trkpt>
      <trkpt lat="47.12265" lon="-1.9137">
        <ele>57</ele>
        <time>2021-04-05T08:48:47.000Z</time>
      </trkpt>
      <trkpt lat="47.12257" lon="-1.91384">
        <ele>57</ele>
        <time>2021-04-05T08:48:49.000Z</time>
      </trkpt>
      <trkpt lat="47.12248" lon="-1.91397">
        <ele>58</ele>
        <time>2021-04-05T08:48:51.000Z</time>
      </trkpt>
      <trkpt lat="47.12242" lon="-1.91411">
        <ele>58</ele>
        <time>2021-04-05T08:48:53.000Z</time>
      </trkpt>
      <trkpt lat="47.12234" lon="-1.9142">
        <ele>59</ele>
        <time>2021-04-05T08:48:55.000Z</time>
      </trkpt>
      <trkpt lat="47.12227" lon="-1.91409">
        <ele>59</ele>
        <time>2021-04-05T08:49:05.000Z</time>
      </trkpt>
      <trkpt lat="47.12218" lon="-1.91401">
        <ele>59</ele>
        <time>2021-04-05T08:49:07.000Z</time>
      </trkpt>
      <trkpt lat="47.12207" lon="-1.91389">
        <ele>59</ele>
        <time>2021-04-05T08:49:09.000Z</time>
      </trkpt>
      <trkpt lat="47.12195" lon="-1.91376">
        <ele>59</ele>
        <time>2021-04-05T08:49:11.000Z</time>
      </trkpt>
      <trkpt lat="47.12183" lon="-1.9136">
        <ele>59</ele>
        <time>2021-04-05T08:49:13.000Z</time>
      </trkpt>
      <trkpt lat="47.12172" lon="-1.91347">
        <ele>59</ele>
        <time>2021-04-05T08:49:15.000Z</time>
      </trkpt>
      <trkpt lat="47.1216" lon="-1.91333">
        <ele>59</ele>
        <time>2021-04-05T08:49:17.000Z</time>
      </trkpt>
      <trkpt lat="47.12149" lon="-1.91319">
        <ele>59</ele>
        <time>2021-04-05T08:49:19.000Z</time>
      </trkpt>
      <trkpt lat="47.12139" lon="-1.91305">
        <ele>59</ele>
        <time>2021-04-05T08:49:21.000Z</time>
      </trkpt>
      <trkpt lat="47.12129" lon="-1.91292">
        <ele>59</ele>
        <time>2021-04-05T08:49:23.000Z</time>
      </trkpt>
      <trkpt lat="47.12118" lon="-1.91279">
        <ele>59</ele>
        <time>2021-04-05T08:49:25.000Z</time>
      </trkpt>
      <trkpt lat="47.12107" lon="-1.91266">
        <ele>59</ele>
        <time>2021-04-05T08:49:27.000Z</time>
      </trkpt>
      <trkpt lat="47.12095" lon="-1.91252">
        <ele>58</ele>
        <time>2021-04-05T08:49:29.000Z</time>
      </trkpt>
      <trkpt lat="47.12085" lon="-1.91241">
        <ele>58</ele>
        <time>2021-04-05T08:49:31.000Z</time>
      </trkpt>
      <trkpt lat="47.12073" lon="-1.91229">
        <ele>58</ele>
        <time>2021-04-05T08:49:33.000Z</time>
      </trkpt>
      <trkpt lat="47.12061" lon="-1.91219">
        <ele>57</ele>
        <time>2021-04-05T08:49:35.000Z</time>
      </trkpt>
      <trkpt lat="47.12049" lon="-1.91208">
        <ele>57</ele>
        <time>2021-04-05T08:49:37.000Z</time>
      </trkpt>
      <trkpt lat="47.12037" lon="-1.91196">
        <ele>57</ele>
        <time>2021-04-05T08:49:39.000Z</time>
      </trkpt>
      <trkpt lat="47.12026" lon="-1.91183">
        <ele>57</ele>
        <time>2021-04-05T08:49:41.000Z</time>
      </trkpt>
      <trkpt lat="47.12016" lon="-1.91168">
        <ele>57</ele>
        <time>2021-04-05T08:49:43.000Z</time>
      </trkpt>
      <trkpt lat="47.12007" lon="-1.91151">
        <ele>56</ele>
        <time>2021-04-05T08:49:45.000Z</time>
      </trkpt>
      <trkpt lat="47.11998" lon="-1.91134">
        <ele>56</ele>
        <time>2021-04-05T08:49:47.000Z</time>
      </trkpt>
      <trkpt lat="47.1199" lon="-1.91118">
        <ele>56</ele>
        <time>2021-04-05T08:49:49.000Z</time>
      </trkpt>
      <trkpt lat="47.11981" lon="-1.91101">
        <ele>55</ele>
        <time>2021-04-05T08:49:51.000Z</time>
      </trkpt>
      <trkpt lat="47.11973" lon="-1.91085">
        <ele>55</ele>
        <time>2021-04-05T08:49:53.000Z</time>
      </trkpt>
      <trkpt lat="47.11965" lon="-1.91069">
        <ele>55</ele>
        <time>2021-04-05T08:49:55.000Z</time>
      </trkpt>
      <trkpt lat="47.11956" lon="-1.91053">
        <ele>55</ele>
        <time>2021-04-05T08:49:57.000Z</time>
      </trkpt>
      <trkpt lat="47.11948" lon="-1.91037">
        <ele>55</ele>
        <time>2021-04-05T08:49:59.000Z</time>
      </trkpt>
      <trkpt lat="47.11939" lon="-1.9102">
        <ele>55</ele>
        <time>2021-04-05T08:50:01.000Z</time>
      </trkpt>
      <trkpt lat="47.11931" lon="-1.91004">
        <ele>55</ele>
        <time>2021-04-05T08:50:03.000Z</time>
      </trkpt>
      <trkpt lat="47.11922" lon="-1.90987">
        <ele>55</ele>
        <time>2021-04-05T08:50:05.000Z</time>
      </trkpt>
      <trkpt lat="47.11913" lon="-1.90971">
        <ele>55</ele>
        <time>2021-04-05T08:50:07.000Z</time>
      </trkpt>
      <trkpt lat="47.11904" lon="-1.90954">
        <ele>55</ele>
        <time>2021-04-05T08:50:09.000Z</time>
      </trkpt>
      <trkpt lat="47.11895" lon="-1.90937">
        <ele>55</ele>
        <time>2021-04-05T08:50:11.000Z</time>
      </trkpt>
      <trkpt lat="47.11886" lon="-1.9092">
        <ele>55</ele>
        <time>2021-04-05T08:50:13.000Z</time>
      </trkpt>
      <trkpt lat="47.11878" lon="-1.90904">
        <ele>55</ele>
        <time>2021-04-05T08:50:15.000Z</time>
      </trkpt>
      <trkpt lat="47.11869" lon="-1.90888">
        <ele>55</ele>
        <time>2021-04-05T08:50:17.000Z</time>
      </trkpt>
      <trkpt lat="47.1186" lon="-1.90871">
        <ele>55</ele>
        <time>2021-04-05T08:50:19.000Z</time>
      </trkpt>
      <trkpt lat="47.11852" lon="-1.90854">
        <ele>55</ele>
        <time>2021-04-05T08:50:21.000Z</time>
      </trkpt>
      <trkpt lat="47.11844" lon="-1.90837">
        <ele>54</ele>
        <time>2021-04-05T08:50:23.000Z</time>
      </trkpt>
      <trkpt lat="47.11835" lon="-1.90821">
        <ele>54</ele>
        <time>2021-04-05T08:50:25.000Z</time>
      </trkpt>
      <trkpt lat="47.11827" lon="-1.90804">
        <ele>54</ele>
        <time>2021-04-05T08:50:27.000Z</time>
      </trkpt>
      <trkpt lat="47.11818" lon="-1.90788">
        <ele>54</ele>
        <time>2021-04-05T08:50:29.000Z</time>
      </trkpt>
      <trkpt lat="47.1181" lon="-1.90772">
        <ele>54</ele>
        <time>2021-04-05T08:50:31.000Z</time>
      </trkpt>
      <trkpt lat="47.11801" lon="-1.90756">
        <ele>54</ele>
        <time>2021-04-05T08:50:33.000Z</time>
      </trkpt>
      <trkpt lat="47.11792" lon="-1.90738">
        <ele>54</ele>
        <time>2021-04-05T08:50:35.000Z</time>
      </trkpt>
      <trkpt lat="47.11784" lon="-1.90721">
        <ele>53</ele>
        <time>2021-04-05T08:50:37.000Z</time>
      </trkpt>
      <trkpt lat="47.11775" lon="-1.90705">
        <ele>53</ele>
        <time>2021-04-05T08:50:39.000Z</time>
      </trkpt>
      <trkpt lat="47.11766" lon="-1.90688">
        <ele>53</ele>
        <time>2021-04-05T08:50:41.000Z</time>
      </trkpt>
      <trkpt lat="47.11758" lon="-1.90672">
        <ele>53</ele>
        <time>2021-04-05T08:50:43.000Z</time>
      </trkpt>
      <trkpt lat="47.11749" lon="-1.90656">
        <ele>53</ele>
        <time>2021-04-05T08:50:45.000Z</time>
      </trkpt>
      <trkpt lat="47.11741" lon="-1.9064">
        <ele>54</ele>
        <time>2021-04-05T08:50:47.000Z</time>
      </trkpt>
      <trkpt lat="47.11731" lon="-1.90623">
        <ele>54</ele>
        <time>2021-04-05T08:50:49.000Z</time>
      </trkpt>
      <trkpt lat="47.11723" lon="-1.90607">
        <ele>55</ele>
        <time>2021-04-05T08:50:51.000Z</time>
      </trkpt>
      <trkpt lat="47.11715" lon="-1.90591">
        <ele>55</ele>
        <time>2021-04-05T08:50:53.000Z</time>
      </trkpt>
      <trkpt lat="47.11707" lon="-1.90573">
        <ele>54</ele>
        <time>2021-04-05T08:50:55.000Z</time>
      </trkpt>
      <trkpt lat="47.11701" lon="-1.90556">
        <ele>54</ele>
        <time>2021-04-05T08:50:57.000Z</time>
      </trkpt>
      <trkpt lat="47.11695" lon="-1.90538">
        <ele>54</ele>
        <time>2021-04-05T08:50:59.000Z</time>
      </trkpt>
      <trkpt lat="47.11689" lon="-1.90519">
        <ele>53</ele>
        <time>2021-04-05T08:51:01.000Z</time>
      </trkpt>
      <trkpt lat="47.11684" lon="-1.90501">
        <ele>54</ele>
        <time>2021-04-05T08:51:03.000Z</time>
      </trkpt>
      <trkpt lat="47.11678" lon="-1.90483">
        <ele>54</ele>
        <time>2021-04-05T08:51:05.000Z</time>
      </trkpt>
      <trkpt lat="47.11673" lon="-1.90466">
        <ele>54</ele>
        <time>2021-04-05T08:51:07.000Z</time>
      </trkpt>
      <trkpt lat="47.11667" lon="-1.90448">
        <ele>55</ele>
        <time>2021-04-05T08:51:09.000Z</time>
      </trkpt>
      <trkpt lat="47.11661" lon="-1.9043">
        <ele>55</ele>
        <time>2021-04-05T08:51:11.000Z</time>
      </trkpt>
      <trkpt lat="47.11655" lon="-1.90409">
        <ele>55</ele>
        <time>2021-04-05T08:51:13.000Z</time>
      </trkpt>
      <trkpt lat="47.11649" lon="-1.9039">
        <ele>54</ele>
        <time>2021-04-05T08:51:15.000Z</time>
      </trkpt>
      <trkpt lat="47.11643" lon="-1.90371">
        <ele>55</ele>
        <time>2021-04-05T08:51:17.000Z</time>
      </trkpt>
      <trkpt lat="47.11637" lon="-1.90353">
        <ele>55</ele>
        <time>2021-04-05T08:51:19.000Z</time>
      </trkpt>
      <trkpt lat="47.11632" lon="-1.90335">
        <ele>56</ele>
        <time>2021-04-05T08:51:21.000Z</time>
      </trkpt>
      <trkpt lat="47.11626" lon="-1.90317">
        <ele>56</ele>
        <time>2021-04-05T08:51:23.000Z</time>
      </trkpt>
      <trkpt lat="47.1162" lon="-1.90298">
        <ele>56</ele>
        <time>2021-04-05T08:51:25.000Z</time>
      </trkpt>
      <trkpt lat="47.11614" lon="-1.90279">
        <ele>55</ele>
        <time>2021-04-05T08:51:27.000Z</time>
      </trkpt>
      <trkpt lat="47.11608" lon="-1.9026">
        <ele>55</ele>
        <time>2021-04-05T08:51:29.000Z</time>
      </trkpt>
      <trkpt lat="47.11602" lon="-1.90241">
        <ele>55</ele>
        <time>2021-04-05T08:51:31.000Z</time>
      </trkpt>
      <trkpt lat="47.11596" lon="-1.90223">
        <ele>55</ele>
        <time>2021-04-05T08:51:33.000Z</time>
      </trkpt>
      <trkpt lat="47.1159" lon="-1.90204">
        <ele>54</ele>
        <time>2021-04-05T08:51:35.000Z</time>
      </trkpt>
      <trkpt lat="47.11585" lon="-1.90186">
        <ele>54</ele>
        <time>2021-04-05T08:51:37.000Z</time>
      </trkpt>
      <trkpt lat="47.11579" lon="-1.90167">
        <ele>54</ele>
        <time>2021-04-05T08:51:39.000Z</time>
      </trkpt>
      <trkpt lat="47.11573" lon="-1.90149">
        <ele>54</ele>
        <time>2021-04-05T08:51:41.000Z</time>
      </trkpt>
      <trkpt lat="47.11567" lon="-1.9013">
        <ele>54</ele>
        <time>2021-04-05T08:51:43.000Z</time>
      </trkpt>
      <trkpt lat="47.11562" lon="-1.90112">
        <ele>55</ele>
        <time>2021-04-05T08:51:45.000Z</time>
      </trkpt>
      <trkpt lat="47.11556" lon="-1.90094">
        <ele>55</ele>
        <time>2021-04-05T08:51:47.000Z</time>
      </trkpt>
      <trkpt lat="47.11551" lon="-1.90077">
        <ele>55</ele>
        <time>2021-04-05T08:51:49.000Z</time>
      </trkpt>
      <trkpt lat="47.11545" lon="-1.90059">
        <ele>55</ele>
        <time>2021-04-05T08:51:51.000Z</time>
      </trkpt>
      <trkpt lat="47.11538" lon="-1.9004">
        <ele>55</ele>
        <time>2021-04-05T08:51:53.000Z</time>
      </trkpt>
      <trkpt lat="47.11533" lon="-1.90022">
        <ele>55</ele>
        <time>2021-04-05T08:51:55.000Z</time>
      </trkpt>
      <trkpt lat="47.11527" lon="-1.90004">
        <ele>55</ele>
        <time>2021-04-05T08:51:57.000Z</time>
      </trkpt>
      <trkpt lat="47.11522" lon="-1.89986">
        <ele>54</ele>
        <time>2021-04-05T08:51:59.000Z</time>
      </trkpt>
      <trkpt lat="47.11516" lon="-1.89968">
        <ele>53</ele>
        <time>2021-04-05T08:52:01.000Z</time>
      </trkpt>
      <trkpt lat="47.11509" lon="-1.89949">
        <ele>52</ele>
        <time>2021-04-05T08:52:03.000Z</time>
      </trkpt>
      <trkpt lat="47.11501" lon="-1.89933">
        <ele>51</ele>
        <time>2021-04-05T08:52:05.000Z</time>
      </trkpt>
      <trkpt lat="47.11492" lon="-1.89917">
        <ele>51</ele>
        <time>2021-04-05T08:52:07.000Z</time>
      </trkpt>
      <trkpt lat="47.11482" lon="-1.89904">
        <ele>52</ele>
        <time>2021-04-05T08:52:09.000Z</time>
      </trkpt>
      <trkpt lat="47.11472" lon="-1.89891">
        <ele>52</ele>
        <time>2021-04-05T08:52:11.000Z</time>
      </trkpt>
      <trkpt lat="47.11462" lon="-1.89878">
        <ele>52</ele>
        <time>2021-04-05T08:52:13.000Z</time>
      </trkpt>
      <trkpt lat="47.11452" lon="-1.89866">
        <ele>53</ele>
        <time>2021-04-05T08:52:15.000Z</time>
      </trkpt>
      <trkpt lat="47.11442" lon="-1.89853">
        <ele>53</ele>
        <time>2021-04-05T08:52:17.000Z</time>
      </trkpt>
      <trkpt lat="47.11432" lon="-1.89841">
        <ele>54</ele>
        <time>2021-04-05T08:52:19.000Z</time>
      </trkpt>
      <trkpt lat="47.11423" lon="-1.89829">
        <ele>54</ele>
        <time>2021-04-05T08:52:21.000Z</time>
      </trkpt>
      <trkpt lat="47.11413" lon="-1.89817">
        <ele>55</ele>
        <time>2021-04-05T08:52:23.000Z</time>
      </trkpt>
      <trkpt lat="47.11404" lon="-1.89805">
        <ele>56</ele>
        <time>2021-04-05T08:52:25.000Z</time>
      </trkpt>
      <trkpt lat="47.11395" lon="-1.89794">
        <ele>55</ele>
        <time>2021-04-05T08:52:27.000Z</time>
      </trkpt>
      <trkpt lat="47.11386" lon="-1.89782">
        <ele>55</ele>
        <time>2021-04-05T08:52:29.000Z</time>
      </trkpt>
      <trkpt lat="47.11377" lon="-1.8977">
        <ele>56</ele>
        <time>2021-04-05T08:52:31.000Z</time>
      </trkpt>
      <trkpt lat="47.11368" lon="-1.89757">
        <ele>56</ele>
        <time>2021-04-05T08:52:33.000Z</time>
      </trkpt>
      <trkpt lat="47.11358" lon="-1.89745">
        <ele>56</ele>
        <time>2021-04-05T08:52:35.000Z</time>
      </trkpt>
      <trkpt lat="47.11349" lon="-1.89733">
        <ele>56</ele>
        <time>2021-04-05T08:52:37.000Z</time>
      </trkpt>
      <trkpt lat="47.11339" lon="-1.8972">
        <ele>56</ele>
        <time>2021-04-05T08:52:39.000Z</time>
      </trkpt>
      <trkpt lat="47.11329" lon="-1.89708">
        <ele>57</ele>
        <time>2021-04-05T08:52:41.000Z</time>
      </trkpt>
      <trkpt lat="47.1132" lon="-1.89696">
        <ele>57</ele>
        <time>2021-04-05T08:52:43.000Z</time>
      </trkpt>
      <trkpt lat="47.11311" lon="-1.89684">
        <ele>57</ele>
        <time>2021-04-05T08:52:45.000Z</time>
      </trkpt>
      <trkpt lat="47.11302" lon="-1.89672">
        <ele>57</ele>
        <time>2021-04-05T08:52:47.000Z</time>
      </trkpt>
      <trkpt lat="47.11292" lon="-1.8966">
        <ele>57</ele>
        <time>2021-04-05T08:52:49.000Z</time>
      </trkpt>
      <trkpt lat="47.11283" lon="-1.89648">
        <ele>57</ele>
        <time>2021-04-05T08:52:51.000Z</time>
      </trkpt>
      <trkpt lat="47.11273" lon="-1.89636">
        <ele>57</ele>
        <time>2021-04-05T08:52:53.000Z</time>
      </trkpt>
      <trkpt lat="47.11265" lon="-1.89624">
        <ele>57</ele>
        <time>2021-04-05T08:52:55.000Z</time>
      </trkpt>
      <trkpt lat="47.11256" lon="-1.89612">
        <ele>56</ele>
        <time>2021-04-05T08:52:57.000Z</time>
      </trkpt>
      <trkpt lat="47.11246" lon="-1.896">
        <ele>56</ele>
        <time>2021-04-05T08:52:59.000Z</time>
      </trkpt>
      <trkpt lat="47.11237" lon="-1.89589">
        <ele>56</ele>
        <time>2021-04-05T08:53:01.000Z</time>
      </trkpt>
      <trkpt lat="47.11228" lon="-1.89577">
        <ele>56</ele>
        <time>2021-04-05T08:53:03.000Z</time>
      </trkpt>
      <trkpt lat="47.1122" lon="-1.89565">
        <ele>56</ele>
        <time>2021-04-05T08:53:05.000Z</time>
      </trkpt>
      <trkpt lat="47.11211" lon="-1.89554">
        <ele>56</ele>
        <time>2021-04-05T08:53:07.000Z</time>
      </trkpt>
      <trkpt lat="47.11202" lon="-1.89543">
        <ele>57</ele>
        <time>2021-04-05T08:53:09.000Z</time>
      </trkpt>
      <trkpt lat="47.11193" lon="-1.89531">
        <ele>57</ele>
        <time>2021-04-05T08:53:11.000Z</time>
      </trkpt>
      <trkpt lat="47.11183" lon="-1.89519">
        <ele>57</ele>
        <time>2021-04-05T08:53:13.000Z</time>
      </trkpt>
      <trkpt lat="47.11174" lon="-1.89507">
        <ele>57</ele>
        <time>2021-04-05T08:53:15.000Z</time>
      </trkpt>
      <trkpt lat="47.11165" lon="-1.89496">
        <ele>58</ele>
        <time>2021-04-05T08:53:17.000Z</time>
      </trkpt>
      <trkpt lat="47.11155" lon="-1.89484">
        <ele>58</ele>
        <time>2021-04-05T08:53:19.000Z</time>
      </trkpt>
      <trkpt lat="47.11146" lon="-1.89472">
        <ele>58</ele>
        <time>2021-04-05T08:53:21.000Z</time>
      </trkpt>
      <trkpt lat="47.11137" lon="-1.8946">
        <ele>59</ele>
        <time>2021-04-05T08:53:23.000Z</time>
      </trkpt>
      <trkpt lat="47.11128" lon="-1.89448">
        <ele>59</ele>
        <time>2021-04-05T08:53:25.000Z</time>
      </trkpt>
      <trkpt lat="47.11119" lon="-1.89437">
        <ele>60</ele>
        <time>2021-04-05T08:53:27.000Z</time>
      </trkpt>
      <trkpt lat="47.11111" lon="-1.89425">
        <ele>60</ele>
        <time>2021-04-05T08:53:29.000Z</time>
      </trkpt>
      <trkpt lat="47.11103" lon="-1.89413">
        <ele>61</ele>
        <time>2021-04-05T08:53:31.000Z</time>
      </trkpt>
      <trkpt lat="47.11094" lon="-1.89399">
        <ele>61</ele>
        <time>2021-04-05T08:53:33.000Z</time>
      </trkpt>
      <trkpt lat="47.11086" lon="-1.89386">
        <ele>62</ele>
        <time>2021-04-05T08:53:35.000Z</time>
      </trkpt>
      <trkpt lat="47.11079" lon="-1.89372">
        <ele>62</ele>
        <time>2021-04-05T08:53:37.000Z</time>
      </trkpt>
      <trkpt lat="47.11072" lon="-1.89357">
        <ele>63</ele>
        <time>2021-04-05T08:53:39.000Z</time>
      </trkpt>
      <trkpt lat="47.11066" lon="-1.89341">
        <ele>62</ele>
        <time>2021-04-05T08:53:41.000Z</time>
      </trkpt>
      <trkpt lat="47.1106" lon="-1.89324">
        <ele>62</ele>
        <time>2021-04-05T08:53:43.000Z</time>
      </trkpt>
      <trkpt lat="47.11055" lon="-1.89307">
        <ele>61</ele>
        <time>2021-04-05T08:53:45.000Z</time>
      </trkpt>
      <trkpt lat="47.1105" lon="-1.89291">
        <ele>61</ele>
        <time>2021-04-05T08:53:47.000Z</time>
      </trkpt>
      <trkpt lat="47.11046" lon="-1.89274">
        <ele>61</ele>
        <time>2021-04-05T08:53:49.000Z</time>
      </trkpt>
      <trkpt lat="47.11041" lon="-1.89257">
        <ele>61</ele>
        <time>2021-04-05T08:53:51.000Z</time>
      </trkpt>
      <trkpt lat="47.11036" lon="-1.89241">
        <ele>61</ele>
        <time>2021-04-05T08:53:53.000Z</time>
      </trkpt>
      <trkpt lat="47.11031" lon="-1.89224">
        <ele>61</ele>
        <time>2021-04-05T08:53:55.000Z</time>
      </trkpt>
      <trkpt lat="47.11026" lon="-1.89209">
        <ele>61</ele>
        <time>2021-04-05T08:53:57.000Z</time>
      </trkpt>
      <trkpt lat="47.11021" lon="-1.89192">
        <ele>61</ele>
        <time>2021-04-05T08:53:59.000Z</time>
      </trkpt>
      <trkpt lat="47.11016" lon="-1.89175">
        <ele>61</ele>
        <time>2021-04-05T08:54:01.000Z</time>
      </trkpt>
      <trkpt lat="47.11011" lon="-1.89158">
        <ele>61</ele>
        <time>2021-04-05T08:54:03.000Z</time>
      </trkpt>
      <trkpt lat="47.11006" lon="-1.89142">
        <ele>61</ele>
        <time>2021-04-05T08:54:05.000Z</time>
      </trkpt>
      <trkpt lat="47.11" lon="-1.89125">
        <ele>61</ele>
        <time>2021-04-05T08:54:07.000Z</time>
      </trkpt>
      <trkpt lat="47.10995" lon="-1.89108">
        <ele>60</ele>
        <time>2021-04-05T08:54:09.000Z</time>
      </trkpt>
      <trkpt lat="47.1099" lon="-1.8909">
        <ele>60</ele>
        <time>2021-04-05T08:54:11.000Z</time>
      </trkpt>
      <trkpt lat="47.10985" lon="-1.89073">
        <ele>60</ele>
        <time>2021-04-05T08:54:13.000Z</time>
      </trkpt>
      <trkpt lat="47.10979" lon="-1.89055">
        <ele>60</ele>
        <time>2021-04-05T08:54:15.000Z</time>
      </trkpt>
      <trkpt lat="47.10974" lon="-1.89036">
        <ele>60</ele>
        <time>2021-04-05T08:54:17.000Z</time>
      </trkpt>
      <trkpt lat="47.10969" lon="-1.89017">
        <ele>60</ele>
        <time>2021-04-05T08:54:19.000Z</time>
      </trkpt>
      <trkpt lat="47.10963" lon="-1.88999">
        <ele>60</ele>
        <time>2021-04-05T08:54:21.000Z</time>
      </trkpt>
      <trkpt lat="47.10958" lon="-1.8898">
        <ele>59</ele>
        <time>2021-04-05T08:54:23.000Z</time>
      </trkpt>
      <trkpt lat="47.10952" lon="-1.8896">
        <ele>59</ele>
        <time>2021-04-05T08:54:25.000Z</time>
      </trkpt>
      <trkpt lat="47.10946" lon="-1.8894">
        <ele>59</ele>
        <time>2021-04-05T08:54:27.000Z</time>
      </trkpt>
      <trkpt lat="47.10941" lon="-1.88921">
        <ele>59</ele>
        <time>2021-04-05T08:54:29.000Z</time>
      </trkpt>
      <trkpt lat="47.10934" lon="-1.88902">
        <ele>59</ele>
        <time>2021-04-05T08:54:31.000Z</time>
      </trkpt>
      <trkpt lat="47.10928" lon="-1.88883">
        <ele>59</ele>
        <time>2021-04-05T08:54:33.000Z</time>
      </trkpt>
      <trkpt lat="47.10922" lon="-1.88863">
        <ele>59</ele>
        <time>2021-04-05T08:54:35.000Z</time>
      </trkpt>
      <trkpt lat="47.10916" lon="-1.88843">
        <ele>58</ele>
        <time>2021-04-05T08:54:37.000Z</time>
      </trkpt>
      <trkpt lat="47.10908" lon="-1.88825">
        <ele>58</ele>
        <time>2021-04-05T08:54:39.000Z</time>
      </trkpt>
      <trkpt lat="47.10901" lon="-1.88806">
        <ele>58</ele>
        <time>2021-04-05T08:54:41.000Z</time>
      </trkpt>
      <trkpt lat="47.10894" lon="-1.88788">
        <ele>57</ele>
        <time>2021-04-05T08:54:43.000Z</time>
      </trkpt>
      <trkpt lat="47.10886" lon="-1.8877">
        <ele>57</ele>
        <time>2021-04-05T08:54:45.000Z</time>
      </trkpt>
      <trkpt lat="47.10878" lon="-1.88751">
        <ele>57</ele>
        <time>2021-04-05T08:54:47.000Z</time>
      </trkpt>
      <trkpt lat="47.1087" lon="-1.88733">
        <ele>57</ele>
        <time>2021-04-05T08:54:49.000Z</time>
      </trkpt>
      <trkpt lat="47.10862" lon="-1.88715">
        <ele>56</ele>
        <time>2021-04-05T08:54:51.000Z</time>
      </trkpt>
      <trkpt lat="47.10854" lon="-1.88696">
        <ele>56</ele>
        <time>2021-04-05T08:54:53.000Z</time>
      </trkpt>
      <trkpt lat="47.10846" lon="-1.88678">
        <ele>56</ele>
        <time>2021-04-05T08:54:55.000Z</time>
      </trkpt>
      <trkpt lat="47.10838" lon="-1.88658">
        <ele>56</ele>
        <time>2021-04-05T08:54:57.000Z</time>
      </trkpt>
      <trkpt lat="47.1083" lon="-1.88639">
        <ele>56</ele>
        <time>2021-04-05T08:54:59.000Z</time>
      </trkpt>
      <trkpt lat="47.10822" lon="-1.8862">
        <ele>56</ele>
        <time>2021-04-05T08:55:01.000Z</time>
      </trkpt>
      <trkpt lat="47.10814" lon="-1.88601">
        <ele>56</ele>
        <time>2021-04-05T08:55:03.000Z</time>
      </trkpt>
      <trkpt lat="47.10807" lon="-1.88582">
        <ele>56</ele>
        <time>2021-04-05T08:55:05.000Z</time>
      </trkpt>
      <trkpt lat="47.10799" lon="-1.88563">
        <ele>56</ele>
        <time>2021-04-05T08:55:07.000Z</time>
      </trkpt>
      <trkpt lat="47.10791" lon="-1.88544">
        <ele>56</ele>
        <time>2021-04-05T08:55:09.000Z</time>
      </trkpt>
      <trkpt lat="47.10784" lon="-1.88526">
        <ele>56</ele>
        <time>2021-04-05T08:55:11.000Z</time>
      </trkpt>
      <trkpt lat="47.10776" lon="-1.88507">
        <ele>56</ele>
        <time>2021-04-05T08:55:13.000Z</time>
      </trkpt>
      <trkpt lat="47.1077" lon="-1.88489">
        <ele>56</ele>
        <time>2021-04-05T08:55:15.000Z</time>
      </trkpt>
      <trkpt lat="47.10763" lon="-1.8847">
        <ele>56</ele>
        <time>2021-04-05T08:55:17.000Z</time>
      </trkpt>
      <trkpt lat="47.10758" lon="-1.88451">
        <ele>56</ele>
        <time>2021-04-05T08:55:19.000Z</time>
      </trkpt>
      <trkpt lat="47.10753" lon="-1.88432">
        <ele>56</ele>
        <time>2021-04-05T08:55:21.000Z</time>
      </trkpt>
      <trkpt lat="47.10748" lon="-1.88412">
        <ele>56</ele>
        <time>2021-04-05T08:55:23.000Z</time>
      </trkpt>
      <trkpt lat="47.10744" lon="-1.88393">
        <ele>56</ele>
        <time>2021-04-05T08:55:25.000Z</time>
      </trkpt>
      <trkpt lat="47.1074" lon="-1.88374">
        <ele>55</ele>
        <time>2021-04-05T08:55:27.000Z</time>
      </trkpt>
      <trkpt lat="47.10737" lon="-1.88355">
        <ele>55</ele>
        <time>2021-04-05T08:55:29.000Z</time>
      </trkpt>
      <trkpt lat="47.10733" lon="-1.88335">
        <ele>55</ele>
        <time>2021-04-05T08:55:31.000Z</time>
      </trkpt>
      <trkpt lat="47.10731" lon="-1.88316">
        <ele>56</ele>
        <time>2021-04-05T08:55:33.000Z</time>
      </trkpt>
      <trkpt lat="47.10728" lon="-1.88296">
        <ele>56</ele>
        <time>2021-04-05T08:55:35.000Z</time>
      </trkpt>
      <trkpt lat="47.10726" lon="-1.88277">
        <ele>56</ele>
        <time>2021-04-05T08:55:37.000Z</time>
      </trkpt>
      <trkpt lat="47.10724" lon="-1.88257">
        <ele>56</ele>
        <time>2021-04-05T08:55:39.000Z</time>
      </trkpt>
      <trkpt lat="47.10722" lon="-1.88237">
        <ele>56</ele>
        <time>2021-04-05T08:55:41.000Z</time>
      </trkpt>
      <trkpt lat="47.1072" lon="-1.88217">
        <ele>56</ele>
        <time>2021-04-05T08:55:43.000Z</time>
      </trkpt>
      <trkpt lat="47.10718" lon="-1.88198">
        <ele>56</ele>
        <time>2021-04-05T08:55:45.000Z</time>
      </trkpt>
      <trkpt lat="47.10716" lon="-1.88178">
        <ele>56</ele>
        <time>2021-04-05T08:55:47.000Z</time>
      </trkpt>
      <trkpt lat="47.10714" lon="-1.88158">
        <ele>56</ele>
        <time>2021-04-05T08:55:49.000Z</time>
      </trkpt>
      <trkpt lat="47.10712" lon="-1.88138">
        <ele>56</ele>
        <time>2021-04-05T08:55:51.000Z</time>
      </trkpt>
      <trkpt lat="47.1071" lon="-1.88118">
        <ele>55</ele>
        <time>2021-04-05T08:55:53.000Z</time>
      </trkpt>
      <trkpt lat="47.10707" lon="-1.88099">
        <ele>56</ele>
        <time>2021-04-05T08:55:55.000Z</time>
      </trkpt>
      <trkpt lat="47.10705" lon="-1.88079">
        <ele>56</ele>
        <time>2021-04-05T08:55:57.000Z</time>
      </trkpt>
      <trkpt lat="47.10704" lon="-1.88059">
        <ele>56</ele>
        <time>2021-04-05T08:55:59.000Z</time>
      </trkpt>
      <trkpt lat="47.10702" lon="-1.8804">
        <ele>56</ele>
        <time>2021-04-05T08:56:01.000Z</time>
      </trkpt>
      <trkpt lat="47.107" lon="-1.88022">
        <ele>56</ele>
        <time>2021-04-05T08:56:03.000Z</time>
      </trkpt>
      <trkpt lat="47.10698" lon="-1.88003">
        <ele>56</ele>
        <time>2021-04-05T08:56:05.000Z</time>
      </trkpt>
      <trkpt lat="47.10696" lon="-1.87983">
        <ele>56</ele>
        <time>2021-04-05T08:56:07.000Z</time>
      </trkpt>
      <trkpt lat="47.10693" lon="-1.87964">
        <ele>55</ele>
        <time>2021-04-05T08:56:09.000Z</time>
      </trkpt>
      <trkpt lat="47.1069" lon="-1.87945">
        <ele>55</ele>
        <time>2021-04-05T08:56:11.000Z</time>
      </trkpt>
      <trkpt lat="47.10685" lon="-1.87927">
        <ele>55</ele>
        <time>2021-04-05T08:56:13.000Z</time>
      </trkpt>
      <trkpt lat="47.10679" lon="-1.8791">
        <ele>55</ele>
        <time>2021-04-05T08:56:15.000Z</time>
      </trkpt>
      <trkpt lat="47.10673" lon="-1.87892">
        <ele>55</ele>
        <time>2021-04-05T08:56:17.000Z</time>
      </trkpt>
      <trkpt lat="47.10667" lon="-1.87876">
        <ele>55</ele>
        <time>2021-04-05T08:56:19.000Z</time>
      </trkpt>
      <trkpt lat="47.10661" lon="-1.87859">
        <ele>56</ele>
        <time>2021-04-05T08:56:21.000Z</time>
      </trkpt>
      <trkpt lat="47.10655" lon="-1.87841">
        <ele>56</ele>
        <time>2021-04-05T08:56:23.000Z</time>
      </trkpt>
      <trkpt lat="47.10649" lon="-1.87824">
        <ele>56</ele>
        <time>2021-04-05T08:56:25.000Z</time>
      </trkpt>
      <trkpt lat="47.10643" lon="-1.87808">
        <ele>57</ele>
        <time>2021-04-05T08:56:27.000Z</time>
      </trkpt>
      <trkpt lat="47.10637" lon="-1.8779">
        <ele>57</ele>
        <time>2021-04-05T08:56:29.000Z</time>
      </trkpt>
      <trkpt lat="47.10631" lon="-1.87773">
        <ele>56</ele>
        <time>2021-04-05T08:56:31.000Z</time>
      </trkpt>
      <trkpt lat="47.10625" lon="-1.87755">
        <ele>56</ele>
        <time>2021-04-05T08:56:33.000Z</time>
      </trkpt>
      <trkpt lat="47.10619" lon="-1.87739">
        <ele>57</ele>
        <time>2021-04-05T08:56:35.000Z</time>
      </trkpt>
      <trkpt lat="47.10613" lon="-1.87721">
        <ele>56</ele>
        <time>2021-04-05T08:56:37.000Z</time>
      </trkpt>
      <trkpt lat="47.10607" lon="-1.87705">
        <ele>56</ele>
        <time>2021-04-05T08:56:39.000Z</time>
      </trkpt>
      <trkpt lat="47.10601" lon="-1.87688">
        <ele>56</ele>
        <time>2021-04-05T08:56:41.000Z</time>
      </trkpt>
      <trkpt lat="47.10596" lon="-1.87671">
        <ele>56</ele>
        <time>2021-04-05T08:56:43.000Z</time>
      </trkpt>
      <trkpt lat="47.1059" lon="-1.87655">
        <ele>56</ele>
        <time>2021-04-05T08:56:45.000Z</time>
      </trkpt>
      <trkpt lat="47.10585" lon="-1.87638">
        <ele>56</ele>
        <time>2021-04-05T08:56:47.000Z</time>
      </trkpt>
      <trkpt lat="47.10581" lon="-1.87621">
        <ele>57</ele>
        <time>2021-04-05T08:56:49.000Z</time>
      </trkpt>
      <trkpt lat="47.10576" lon="-1.87604">
        <ele>57</ele>
        <time>2021-04-05T08:56:51.000Z</time>
      </trkpt>
      <trkpt lat="47.10572" lon="-1.87587">
        <ele>57</ele>
        <time>2021-04-05T08:56:53.000Z</time>
      </trkpt>
      <trkpt lat="47.10569" lon="-1.8757">
        <ele>57</ele>
        <time>2021-04-05T08:56:55.000Z</time>
      </trkpt>
      <trkpt lat="47.10565" lon="-1.87552">
        <ele>57</ele>
        <time>2021-04-05T08:56:57.000Z</time>
      </trkpt>
      <trkpt lat="47.10561" lon="-1.87533">
        <ele>58</ele>
        <time>2021-04-05T08:56:59.000Z</time>
      </trkpt>
      <trkpt lat="47.10558" lon="-1.87515">
        <ele>58</ele>
        <time>2021-04-05T08:57:01.000Z</time>
      </trkpt>
      <trkpt lat="47.10555" lon="-1.87497">
        <ele>58</ele>
        <time>2021-04-05T08:57:03.000Z</time>
      </trkpt>
      <trkpt lat="47.10551" lon="-1.8748">
        <ele>58</ele>
        <time>2021-04-05T08:57:05.000Z</time>
      </trkpt>
      <trkpt lat="47.10548" lon="-1.87462">
        <ele>58</ele>
        <time>2021-04-05T08:57:07.000Z</time>
      </trkpt>
      <trkpt lat="47.10545" lon="-1.87444">
        <ele>58</ele>
        <time>2021-04-05T08:57:09.000Z</time>
      </trkpt>
      <trkpt lat="47.10541" lon="-1.87427">
        <ele>58</ele>
        <time>2021-04-05T08:57:11.000Z</time>
      </trkpt>
      <trkpt lat="47.10538" lon="-1.87409">
        <ele>58</ele>
        <time>2021-04-05T08:57:13.000Z</time>
      </trkpt>
      <trkpt lat="47.10534" lon="-1.87392">
        <ele>58</ele>
        <time>2021-04-05T08:57:15.000Z</time>
      </trkpt>
      <trkpt lat="47.10531" lon="-1.87375">
        <ele>59</ele>
        <time>2021-04-05T08:57:17.000Z</time>
      </trkpt>
      <trkpt lat="47.10527" lon="-1.87357">
        <ele>58</ele>
        <time>2021-04-05T08:57:19.000Z</time>
      </trkpt>
      <trkpt lat="47.10523" lon="-1.8734">
        <ele>59</ele>
        <time>2021-04-05T08:57:21.000Z</time>
      </trkpt>
      <trkpt lat="47.10519" lon="-1.87323">
        <ele>58</ele>
        <time>2021-04-05T08:57:23.000Z</time>
      </trkpt>
      <trkpt lat="47.10515" lon="-1.87306">
        <ele>58</ele>
        <time>2021-04-05T08:57:25.000Z</time>
      </trkpt>
      <trkpt lat="47.10511" lon="-1.87289">
        <ele>59</ele>
        <time>2021-04-05T08:57:27.000Z</time>
      </trkpt>
      <trkpt lat="47.10506" lon="-1.87273">
        <ele>59</ele>
        <time>2021-04-05T08:57:29.000Z</time>
      </trkpt>
      <trkpt lat="47.10501" lon="-1.87257">
        <ele>59</ele>
        <time>2021-04-05T08:57:31.000Z</time>
      </trkpt>
      <trkpt lat="47.10494" lon="-1.87242">
        <ele>59</ele>
        <time>2021-04-05T08:57:33.000Z</time>
      </trkpt>
      <trkpt lat="47.10485" lon="-1.87229">
        <ele>60</ele>
        <time>2021-04-05T08:57:35.000Z</time>
      </trkpt>
      <trkpt lat="47.10481" lon="-1.87212">
        <ele>60</ele>
        <time>2021-04-05T08:57:37.000Z</time>
      </trkpt>
      <trkpt lat="47.1048" lon="-1.87193">
        <ele>61</ele>
        <time>2021-04-05T08:57:39.000Z</time>
      </trkpt>
      <trkpt lat="47.10476" lon="-1.87175">
        <ele>61</ele>
        <time>2021-04-05T08:57:41.000Z</time>
      </trkpt>
      <trkpt lat="47.10472" lon="-1.87158">
        <ele>61</ele>
        <time>2021-04-05T08:57:43.000Z</time>
      </trkpt>
      <trkpt lat="47.10468" lon="-1.8714">
        <ele>60</ele>
        <time>2021-04-05T08:57:45.000Z</time>
      </trkpt>
      <trkpt lat="47.10464" lon="-1.87122">
        <ele>61</ele>
        <time>2021-04-05T08:57:47.000Z</time>
      </trkpt>
      <trkpt lat="47.10461" lon="-1.87104">
        <ele>61</ele>
        <time>2021-04-05T08:57:49.000Z</time>
      </trkpt>
      <trkpt lat="47.10457" lon="-1.87085">
        <ele>62</ele>
        <time>2021-04-05T08:57:51.000Z</time>
      </trkpt>
      <trkpt lat="47.10454" lon="-1.87067">
        <ele>62</ele>
        <time>2021-04-05T08:57:53.000Z</time>
      </trkpt>
      <trkpt lat="47.1045" lon="-1.87049">
        <ele>63</ele>
        <time>2021-04-05T08:57:55.000Z</time>
      </trkpt>
      <trkpt lat="47.10447" lon="-1.87032">
        <ele>62</ele>
        <time>2021-04-05T08:57:57.000Z</time>
      </trkpt>
      <trkpt lat="47.10443" lon="-1.87015">
        <ele>62</ele>
        <time>2021-04-05T08:57:59.000Z</time>
      </trkpt>
      <trkpt lat="47.1044" lon="-1.86998">
        <ele>62</ele>
        <time>2021-04-05T08:58:01.000Z</time>
      </trkpt>
      <trkpt lat="47.10437" lon="-1.86981">
        <ele>62</ele>
        <time>2021-04-05T08:58:03.000Z</time>
      </trkpt>
      <trkpt lat="47.10433" lon="-1.86964">
        <ele>62</ele>
        <time>2021-04-05T08:58:05.000Z</time>
      </trkpt>
      <trkpt lat="47.1043" lon="-1.86946">
        <ele>61</ele>
        <time>2021-04-05T08:58:07.000Z</time>
      </trkpt>
      <trkpt lat="47.10426" lon="-1.86929">
        <ele>61</ele>
        <time>2021-04-05T08:58:09.000Z</time>
      </trkpt>
      <trkpt lat="47.10423" lon="-1.86913">
        <ele>62</ele>
        <time>2021-04-05T08:58:11.000Z</time>
      </trkpt>
      <trkpt lat="47.10419" lon="-1.86896">
        <ele>62</ele>
        <time>2021-04-05T08:58:13.000Z</time>
      </trkpt>
      <trkpt lat="47.10416" lon="-1.8688">
        <ele>62</ele>
        <time>2021-04-05T08:58:15.000Z</time>
      </trkpt>
      <trkpt lat="47.10411" lon="-1.86863">
        <ele>62</ele>
        <time>2021-04-05T08:58:18.000Z</time>
      </trkpt>
      <trkpt lat="47.10408" lon="-1.86848">
        <ele>65</ele>
        <time>2021-04-05T08:59:19.000Z</time>
      </trkpt>
      <trkpt lat="47.10406" lon="-1.86831">
        <ele>64</ele>
        <time>2021-04-05T08:59:22.000Z</time>
      </trkpt>
      <trkpt lat="47.10402" lon="-1.86812">
        <ele>64</ele>
        <time>2021-04-05T08:59:24.000Z</time>
      </trkpt>
      <trkpt lat="47.10399" lon="-1.86793">
        <ele>64</ele>
        <time>2021-04-05T08:59:26.000Z</time>
      </trkpt>
      <trkpt lat="47.10395" lon="-1.86774">
        <ele>63</ele>
        <time>2021-04-05T08:59:28.000Z</time>
      </trkpt>
      <trkpt lat="47.10391" lon="-1.86756">
        <ele>64</ele>
        <time>2021-04-05T08:59:30.000Z</time>
      </trkpt>
      <trkpt lat="47.10388" lon="-1.86737">
        <ele>63</ele>
        <time>2021-04-05T08:59:32.000Z</time>
      </trkpt>
      <trkpt lat="47.10384" lon="-1.86717">
        <ele>63</ele>
        <time>2021-04-05T08:59:34.000Z</time>
      </trkpt>
      <trkpt lat="47.1038" lon="-1.86698">
        <ele>64</ele>
        <time>2021-04-05T08:59:36.000Z</time>
      </trkpt>
      <trkpt lat="47.10376" lon="-1.86677">
        <ele>64</ele>
        <time>2021-04-05T08:59:38.000Z</time>
      </trkpt>
      <trkpt lat="47.10372" lon="-1.86656">
        <ele>64</ele>
        <time>2021-04-05T08:59:40.000Z</time>
      </trkpt>
      <trkpt lat="47.1037" lon="-1.86635">
        <ele>64</ele>
        <time>2021-04-05T08:59:42.000Z</time>
      </trkpt>
      <trkpt lat="47.1037" lon="-1.86613">
        <ele>64</ele>
        <time>2021-04-05T08:59:44.000Z</time>
      </trkpt>
      <trkpt lat="47.1037" lon="-1.86592">
        <ele>64</ele>
        <time>2021-04-05T08:59:46.000Z</time>
      </trkpt>
      <trkpt lat="47.10367" lon="-1.8657">
        <ele>63</ele>
        <time>2021-04-05T08:59:48.000Z</time>
      </trkpt>
      <trkpt lat="47.10362" lon="-1.86549">
        <ele>63</ele>
        <time>2021-04-05T08:59:50.000Z</time>
      </trkpt>
      <trkpt lat="47.10355" lon="-1.86529">
        <ele>62</ele>
        <time>2021-04-05T08:59:52.000Z</time>
      </trkpt>
      <trkpt lat="47.10347" lon="-1.86509">
        <ele>62</ele>
        <time>2021-04-05T08:59:54.000Z</time>
      </trkpt>
      <trkpt lat="47.10338" lon="-1.86491">
        <ele>61</ele>
        <time>2021-04-05T08:59:56.000Z</time>
      </trkpt>
      <trkpt lat="47.1033" lon="-1.86474">
        <ele>61</ele>
        <time>2021-04-05T08:59:58.000Z</time>
      </trkpt>
      <trkpt lat="47.10322" lon="-1.86454">
        <ele>61</ele>
        <time>2021-04-05T09:00:00.000Z</time>
      </trkpt>
      <trkpt lat="47.10313" lon="-1.86435">
        <ele>60</ele>
        <time>2021-04-05T09:00:02.000Z</time>
      </trkpt>
      <trkpt lat="47.10307" lon="-1.86414">
        <ele>60</ele>
        <time>2021-04-05T09:00:04.000Z</time>
      </trkpt>
      <trkpt lat="47.10305" lon="-1.86391">
        <ele>60</ele>
        <time>2021-04-05T09:00:06.000Z</time>
      </trkpt>
      <trkpt lat="47.10302" lon="-1.8637">
        <ele>60</ele>
        <time>2021-04-05T09:00:08.000Z</time>
      </trkpt>
      <trkpt lat="47.10299" lon="-1.86348">
        <ele>59</ele>
        <time>2021-04-05T09:00:10.000Z</time>
      </trkpt>
      <trkpt lat="47.10294" lon="-1.86327">
        <ele>59</ele>
        <time>2021-04-05T09:00:12.000Z</time>
      </trkpt>
      <trkpt lat="47.1029" lon="-1.86305">
        <ele>59</ele>
        <time>2021-04-05T09:00:14.000Z</time>
      </trkpt>
      <trkpt lat="47.10285" lon="-1.86285">
        <ele>60</ele>
        <time>2021-04-05T09:00:16.000Z</time>
      </trkpt>
      <trkpt lat="47.10278" lon="-1.86266">
        <ele>59</ele>
        <time>2021-04-05T09:00:18.000Z</time>
      </trkpt>
      <trkpt lat="47.1027" lon="-1.86249">
        <ele>59</ele>
        <time>2021-04-05T09:00:20.000Z</time>
      </trkpt>
      <trkpt lat="47.10262" lon="-1.86232">
        <ele>59</ele>
        <time>2021-04-05T09:00:22.000Z</time>
      </trkpt>
      <trkpt lat="47.10255" lon="-1.86215">
        <ele>59</ele>
        <time>2021-04-05T09:00:24.000Z</time>
      </trkpt>
      <trkpt lat="47.10247" lon="-1.86197">
        <ele>59</ele>
        <time>2021-04-05T09:00:26.000Z</time>
      </trkpt>
      <trkpt lat="47.1024" lon="-1.8618">
        <ele>59</ele>
        <time>2021-04-05T09:00:28.000Z</time>
      </trkpt>
      <trkpt lat="47.10234" lon="-1.86161">
        <ele>60</ele>
        <time>2021-04-05T09:00:30.000Z</time>
      </trkpt>
      <trkpt lat="47.10228" lon="-1.86143">
        <ele>60</ele>
        <time>2021-04-05T09:00:32.000Z</time>
      </trkpt>
      <trkpt lat="47.10221" lon="-1.86124">
        <ele>60</ele>
        <time>2021-04-05T09:00:34.000Z</time>
      </trkpt>
      <trkpt lat="47.10214" lon="-1.86105">
        <ele>60</ele>
        <time>2021-04-05T09:00:36.000Z</time>
      </trkpt>
      <trkpt lat="47.10207" lon="-1.86086">
        <ele>61</ele>
        <time>2021-04-05T09:00:38.000Z</time>
      </trkpt>
      <trkpt lat="47.102" lon="-1.86068">
        <ele>61</ele>
        <time>2021-04-05T09:00:40.000Z</time>
      </trkpt>
      <trkpt lat="47.10194" lon="-1.8605">
        <ele>61</ele>
        <time>2021-04-05T09:00:42.000Z</time>
      </trkpt>
      <trkpt lat="47.10187" lon="-1.86032">
        <ele>61</ele>
        <time>2021-04-05T09:00:44.000Z</time>
      </trkpt>
      <trkpt lat="47.10181" lon="-1.86014">
        <ele>62</ele>
        <time>2021-04-05T09:00:46.000Z</time>
      </trkpt>
      <trkpt lat="47.10174" lon="-1.85996">
        <ele>63</ele>
        <time>2021-04-05T09:00:48.000Z</time>
      </trkpt>
      <trkpt lat="47.10168" lon="-1.85978">
        <ele>63</ele>
        <time>2021-04-05T09:00:50.000Z</time>
      </trkpt>
      <trkpt lat="47.10161" lon="-1.8596">
        <ele>64</ele>
        <time>2021-04-05T09:00:52.000Z</time>
      </trkpt>
      <trkpt lat="47.10155" lon="-1.85944">
        <ele>64</ele>
        <time>2021-04-05T09:00:54.000Z</time>
      </trkpt>
      <trkpt lat="47.10147" lon="-1.85927">
        <ele>64</ele>
        <time>2021-04-05T09:00:56.000Z</time>
      </trkpt>
      <trkpt lat="47.1014" lon="-1.85911">
        <ele>64</ele>
        <time>2021-04-05T09:00:58.000Z</time>
      </trkpt>
      <trkpt lat="47.10133" lon="-1.85895">
        <ele>64</ele>
        <time>2021-04-05T09:01:00.000Z</time>
      </trkpt>
      <trkpt lat="47.10125" lon="-1.8588">
        <ele>65</ele>
        <time>2021-04-05T09:01:02.000Z</time>
      </trkpt>
      <trkpt lat="47.10119" lon="-1.85864">
        <ele>65</ele>
        <time>2021-04-05T09:01:04.000Z</time>
      </trkpt>
      <trkpt lat="47.1011" lon="-1.85851">
        <ele>65</ele>
        <time>2021-04-05T09:01:06.000Z</time>
      </trkpt>
      <trkpt lat="47.10099" lon="-1.85844">
        <ele>65</ele>
        <time>2021-04-05T09:01:08.000Z</time>
      </trkpt>
      <trkpt lat="47.10093" lon="-1.85828">
        <ele>65</ele>
        <time>2021-04-05T09:01:10.000Z</time>
      </trkpt>
      <trkpt lat="47.10098" lon="-1.85811">
        <ele>64</ele>
        <time>2021-04-05T09:01:12.000Z</time>
      </trkpt>
      <trkpt lat="47.10098" lon="-1.8579">
        <ele>64</ele>
        <time>2021-04-05T09:01:14.000Z</time>
      </trkpt>
      <trkpt lat="47.10095" lon="-1.85771">
        <ele>64</ele>
        <time>2021-04-05T09:01:16.000Z</time>
      </trkpt>
      <trkpt lat="47.10092" lon="-1.8575">
        <ele>64</ele>
        <time>2021-04-05T09:01:18.000Z</time>
      </trkpt>
      <trkpt lat="47.1009" lon="-1.8573">
        <ele>63</ele>
        <time>2021-04-05T09:01:20.000Z</time>
      </trkpt>
      <trkpt lat="47.10088" lon="-1.8571">
        <ele>63</ele>
        <time>2021-04-05T09:01:22.000Z</time>
      </trkpt>
      <trkpt lat="47.10086" lon="-1.85689">
        <ele>63</ele>
        <time>2021-04-05T09:01:24.000Z</time>
      </trkpt>
      <trkpt lat="47.10084" lon="-1.85668">
        <ele>63</ele>
        <time>2021-04-05T09:01:26.000Z</time>
      </trkpt>
      <trkpt lat="47.10082" lon="-1.85649">
        <ele>64</ele>
        <time>2021-04-05T09:01:28.000Z</time>
      </trkpt>
      <trkpt lat="47.10081" lon="-1.85628">
        <ele>64</ele>
        <time>2021-04-05T09:01:30.000Z</time>
      </trkpt>
      <trkpt lat="47.10079" lon="-1.85607">
        <ele>63</ele>
        <time>2021-04-05T09:01:32.000Z</time>
      </trkpt>
      <trkpt lat="47.10077" lon="-1.85586">
        <ele>63</ele>
        <time>2021-04-05T09:01:34.000Z</time>
      </trkpt>
      <trkpt lat="47.10072" lon="-1.85566">
        <ele>61</ele>
        <time>2021-04-05T09:01:36.000Z</time>
      </trkpt>
      <trkpt lat="47.10064" lon="-1.85545">
        <ele>61</ele>
        <time>2021-04-05T09:01:38.000Z</time>
      </trkpt>
      <trkpt lat="47.10055" lon="-1.85526">
        <ele>61</ele>
        <time>2021-04-05T09:01:40.000Z</time>
      </trkpt>
      <trkpt lat="47.10043" lon="-1.85509">
        <ele>60</ele>
        <time>2021-04-05T09:01:42.000Z</time>
      </trkpt>
      <trkpt lat="47.1003" lon="-1.85492">
        <ele>59</ele>
        <time>2021-04-05T09:01:44.000Z</time>
      </trkpt>
      <trkpt lat="47.10017" lon="-1.85475">
        <ele>58</ele>
        <time>2021-04-05T09:01:46.000Z</time>
      </trkpt>
      <trkpt lat="47.10004" lon="-1.85457">
        <ele>58</ele>
        <time>2021-04-05T09:01:48.000Z</time>
      </trkpt>
      <trkpt lat="47.09993" lon="-1.8544">
        <ele>58</ele>
        <time>2021-04-05T09:01:50.000Z</time>
      </trkpt>
      <trkpt lat="47.0998" lon="-1.85425">
        <ele>58</ele>
        <time>2021-04-05T09:01:52.000Z</time>
      </trkpt>
      <trkpt lat="47.09969" lon="-1.85409">
        <ele>57</ele>
        <time>2021-04-05T09:01:54.000Z</time>
      </trkpt>
      <trkpt lat="47.09958" lon="-1.85393">
        <ele>57</ele>
        <time>2021-04-05T09:01:56.000Z</time>
      </trkpt>
      <trkpt lat="47.09948" lon="-1.85376">
        <ele>57</ele>
        <time>2021-04-05T09:01:58.000Z</time>
      </trkpt>
      <trkpt lat="47.0994" lon="-1.85358">
        <ele>58</ele>
        <time>2021-04-05T09:02:00.000Z</time>
      </trkpt>
      <trkpt lat="47.09935" lon="-1.85339">
        <ele>58</ele>
        <time>2021-04-05T09:02:02.000Z</time>
      </trkpt>
      <trkpt lat="47.09932" lon="-1.85319">
        <ele>59</ele>
        <time>2021-04-05T09:02:04.000Z</time>
      </trkpt>
      <trkpt lat="47.09931" lon="-1.85299">
        <ele>60</ele>
        <time>2021-04-05T09:02:06.000Z</time>
      </trkpt>
      <trkpt lat="47.0993" lon="-1.8528">
        <ele>60</ele>
        <time>2021-04-05T09:02:08.000Z</time>
      </trkpt>
      <trkpt lat="47.09929" lon="-1.8526">
        <ele>60</ele>
        <time>2021-04-05T09:02:10.000Z</time>
      </trkpt>
      <trkpt lat="47.09928" lon="-1.85242">
        <ele>60</ele>
        <time>2021-04-05T09:02:12.000Z</time>
      </trkpt>
      <trkpt lat="47.09926" lon="-1.85225">
        <ele>60</ele>
        <time>2021-04-05T09:02:14.000Z</time>
      </trkpt>
      <trkpt lat="47.09923" lon="-1.85207">
        <ele>61</ele>
        <time>2021-04-05T09:02:16.000Z</time>
      </trkpt>
      <trkpt lat="47.09921" lon="-1.8519">
        <ele>61</ele>
        <time>2021-04-05T09:02:18.000Z</time>
      </trkpt>
      <trkpt lat="47.09919" lon="-1.85172">
        <ele>61</ele>
        <time>2021-04-05T09:02:20.000Z</time>
      </trkpt>
      <trkpt lat="47.09917" lon="-1.85155">
        <ele>62</ele>
        <time>2021-04-05T09:02:22.000Z</time>
      </trkpt>
      <trkpt lat="47.09917" lon="-1.85137">
        <ele>62</ele>
        <time>2021-04-05T09:02:24.000Z</time>
      </trkpt>
      <trkpt lat="47.09917" lon="-1.85118">
        <ele>63</ele>
        <time>2021-04-05T09:02:26.000Z</time>
      </trkpt>
      <trkpt lat="47.09918" lon="-1.851">
        <ele>62</ele>
        <time>2021-04-05T09:02:28.000Z</time>
      </trkpt>
      <trkpt lat="47.09919" lon="-1.85081">
        <ele>62</ele>
        <time>2021-04-05T09:02:30.000Z</time>
      </trkpt>
      <trkpt lat="47.09919" lon="-1.85062">
        <ele>62</ele>
        <time>2021-04-05T09:02:32.000Z</time>
      </trkpt>
      <trkpt lat="47.0992" lon="-1.85043">
        <ele>63</ele>
        <time>2021-04-05T09:02:34.000Z</time>
      </trkpt>
      <trkpt lat="47.09921" lon="-1.85024">
        <ele>63</ele>
        <time>2021-04-05T09:02:36.000Z</time>
      </trkpt>
      <trkpt lat="47.09921" lon="-1.85006">
        <ele>63</ele>
        <time>2021-04-05T09:02:38.000Z</time>
      </trkpt>
      <trkpt lat="47.09922" lon="-1.84988">
        <ele>63</ele>
        <time>2021-04-05T09:02:40.000Z</time>
      </trkpt>
      <trkpt lat="47.09922" lon="-1.8497">
        <ele>62</ele>
        <time>2021-04-05T09:02:42.000Z</time>
      </trkpt>
      <trkpt lat="47.09922" lon="-1.84952">
        <ele>62</ele>
        <time>2021-04-05T09:02:44.000Z</time>
      </trkpt>
      <trkpt lat="47.09922" lon="-1.84933">
        <ele>63</ele>
        <time>2021-04-05T09:02:46.000Z</time>
      </trkpt>
      <trkpt lat="47.09921" lon="-1.84914">
        <ele>63</ele>
        <time>2021-04-05T09:02:48.000Z</time>
      </trkpt>
      <trkpt lat="47.0992" lon="-1.84896">
        <ele>63</ele>
        <time>2021-04-05T09:02:50.000Z</time>
      </trkpt>
      <trkpt lat="47.09918" lon="-1.84878">
        <ele>64</ele>
        <time>2021-04-05T09:02:52.000Z</time>
      </trkpt>
      <trkpt lat="47.09917" lon="-1.8486">
        <ele>64</ele>
        <time>2021-04-05T09:02:54.000Z</time>
      </trkpt>
      <trkpt lat="47.09916" lon="-1.84842">
        <ele>64</ele>
        <time>2021-04-05T09:02:56.000Z</time>
      </trkpt>
      <trkpt lat="47.09915" lon="-1.84826">
        <ele>65</ele>
        <time>2021-04-05T09:02:58.000Z</time>
      </trkpt>
      <trkpt lat="47.09914" lon="-1.84808">
        <ele>65</ele>
        <time>2021-04-05T09:03:00.000Z</time>
      </trkpt>
      <trkpt lat="47.09913" lon="-1.8479">
        <ele>65</ele>
        <time>2021-04-05T09:03:02.000Z</time>
      </trkpt>
      <trkpt lat="47.09911" lon="-1.84773">
        <ele>66</ele>
        <time>2021-04-05T09:03:04.000Z</time>
      </trkpt>
      <trkpt lat="47.09909" lon="-1.84757">
        <ele>66</ele>
        <time>2021-04-05T09:03:06.000Z</time>
      </trkpt>
      <trkpt lat="47.09909" lon="-1.8474">
        <ele>66</ele>
        <time>2021-04-05T09:03:08.000Z</time>
      </trkpt>
      <trkpt lat="47.09908" lon="-1.84724">
        <ele>67</ele>
        <time>2021-04-05T09:03:10.000Z</time>
      </trkpt>
      <trkpt lat="47.09907" lon="-1.84706">
        <ele>67</ele>
        <time>2021-04-05T09:03:12.000Z</time>
      </trkpt>
      <trkpt lat="47.09906" lon="-1.84689">
        <ele>67</ele>
        <time>2021-04-05T09:03:14.000Z</time>
      </trkpt>
      <trkpt lat="47.09905" lon="-1.84672">
        <ele>68</ele>
        <time>2021-04-05T09:03:16.000Z</time>
      </trkpt>
      <trkpt lat="47.09903" lon="-1.84654">
        <ele>68</ele>
        <time>2021-04-05T09:03:18.000Z</time>
      </trkpt>
      <trkpt lat="47.09903" lon="-1.84636">
        <ele>67</ele>
        <time>2021-04-05T09:03:20.000Z</time>
      </trkpt>
      <trkpt lat="47.09902" lon="-1.84617">
        <ele>67</ele>
        <time>2021-04-05T09:03:22.000Z</time>
      </trkpt>
      <trkpt lat="47.09901" lon="-1.84599">
        <ele>68</ele>
        <time>2021-04-05T09:03:24.000Z</time>
      </trkpt>
      <trkpt lat="47.099" lon="-1.84581">
        <ele>69</ele>
        <time>2021-04-05T09:03:26.000Z</time>
      </trkpt>
      <trkpt lat="47.09899" lon="-1.84563">
        <ele>68</ele>
        <time>2021-04-05T09:03:28.000Z</time>
      </trkpt>
      <trkpt lat="47.09897" lon="-1.84545">
        <ele>68</ele>
        <time>2021-04-05T09:03:30.000Z</time>
      </trkpt>
      <trkpt lat="47.09896" lon="-1.84527">
        <ele>68</ele>
        <time>2021-04-05T09:03:32.000Z</time>
      </trkpt>
      <trkpt lat="47.09894" lon="-1.84509">
        <ele>68</ele>
        <time>2021-04-05T09:03:34.000Z</time>
      </trkpt>
      <trkpt lat="47.09891" lon="-1.84491">
        <ele>68</ele>
        <time>2021-04-05T09:03:36.000Z</time>
      </trkpt>
      <trkpt lat="47.09889" lon="-1.84472">
        <ele>67</ele>
        <time>2021-04-05T09:03:38.000Z</time>
      </trkpt>
      <trkpt lat="47.09888" lon="-1.84454">
        <ele>67</ele>
        <time>2021-04-05T09:03:40.000Z</time>
      </trkpt>
      <trkpt lat="47.09887" lon="-1.84435">
        <ele>67</ele>
        <time>2021-04-05T09:03:42.000Z</time>
      </trkpt>
      <trkpt lat="47.09887" lon="-1.84416">
        <ele>67</ele>
        <time>2021-04-05T09:03:44.000Z</time>
      </trkpt>
      <trkpt lat="47.09887" lon="-1.84398">
        <ele>67</ele>
        <time>2021-04-05T09:03:46.000Z</time>
      </trkpt>
      <trkpt lat="47.09888" lon="-1.84379">
        <ele>67</ele>
        <time>2021-04-05T09:03:48.000Z</time>
      </trkpt>
      <trkpt lat="47.09888" lon="-1.8436">
        <ele>66</ele>
        <time>2021-04-05T09:03:50.000Z</time>
      </trkpt>
      <trkpt lat="47.09889" lon="-1.8434">
        <ele>67</ele>
        <time>2021-04-05T09:03:52.000Z</time>
      </trkpt>
      <trkpt lat="47.09889" lon="-1.84321">
        <ele>66</ele>
        <time>2021-04-05T09:03:54.000Z</time>
      </trkpt>
      <trkpt lat="47.09889" lon="-1.84301">
        <ele>65</ele>
        <time>2021-04-05T09:03:56.000Z</time>
      </trkpt>
      <trkpt lat="47.09889" lon="-1.84281">
        <ele>65</ele>
        <time>2021-04-05T09:03:58.000Z</time>
      </trkpt>
      <trkpt lat="47.09888" lon="-1.84262">
        <ele>66</ele>
        <time>2021-04-05T09:04:00.000Z</time>
      </trkpt>
      <trkpt lat="47.09887" lon="-1.84242">
        <ele>66</ele>
        <time>2021-04-05T09:04:02.000Z</time>
      </trkpt>
      <trkpt lat="47.09886" lon="-1.84222">
        <ele>65</ele>
        <time>2021-04-05T09:04:04.000Z</time>
      </trkpt>
      <trkpt lat="47.09883" lon="-1.84202">
        <ele>65</ele>
        <time>2021-04-05T09:04:06.000Z</time>
      </trkpt>
      <trkpt lat="47.09881" lon="-1.84183">
        <ele>65</ele>
        <time>2021-04-05T09:04:08.000Z</time>
      </trkpt>
      <trkpt lat="47.09877" lon="-1.84164">
        <ele>64</ele>
        <time>2021-04-05T09:04:10.000Z</time>
      </trkpt>
      <trkpt lat="47.09874" lon="-1.84144">
        <ele>64</ele>
        <time>2021-04-05T09:04:12.000Z</time>
      </trkpt>
      <trkpt lat="47.09871" lon="-1.84124">
        <ele>64</ele>
        <time>2021-04-05T09:04:14.000Z</time>
      </trkpt>
      <trkpt lat="47.09867" lon="-1.84104">
        <ele>63</ele>
        <time>2021-04-05T09:04:16.000Z</time>
      </trkpt>
      <trkpt lat="47.09865" lon="-1.84083">
        <ele>63</ele>
        <time>2021-04-05T09:04:18.000Z</time>
      </trkpt>
      <trkpt lat="47.09861" lon="-1.84062">
        <ele>62</ele>
        <time>2021-04-05T09:04:20.000Z</time>
      </trkpt>
      <trkpt lat="47.09858" lon="-1.84041">
        <ele>62</ele>
        <time>2021-04-05T09:04:22.000Z</time>
      </trkpt>
      <trkpt lat="47.09855" lon="-1.8402">
        <ele>62</ele>
        <time>2021-04-05T09:04:24.000Z</time>
      </trkpt>
      <trkpt lat="47.09852" lon="-1.83999">
        <ele>61</ele>
        <time>2021-04-05T09:04:26.000Z</time>
      </trkpt>
      <trkpt lat="47.09851" lon="-1.83978">
        <ele>61</ele>
        <time>2021-04-05T09:04:28.000Z</time>
      </trkpt>
      <trkpt lat="47.0985" lon="-1.83957">
        <ele>62</ele>
        <time>2021-04-05T09:04:30.000Z</time>
      </trkpt>
      <trkpt lat="47.0985" lon="-1.83936">
        <ele>62</ele>
        <time>2021-04-05T09:04:32.000Z</time>
      </trkpt>
      <trkpt lat="47.09851" lon="-1.83914">
        <ele>61</ele>
        <time>2021-04-05T09:04:34.000Z</time>
      </trkpt>
      <trkpt lat="47.09853" lon="-1.83892">
        <ele>61</ele>
        <time>2021-04-05T09:04:36.000Z</time>
      </trkpt>
      <trkpt lat="47.09855" lon="-1.8387">
        <ele>61</ele>
        <time>2021-04-05T09:04:38.000Z</time>
      </trkpt>
      <trkpt lat="47.09857" lon="-1.83849">
        <ele>61</ele>
        <time>2021-04-05T09:04:40.000Z</time>
      </trkpt>
      <trkpt lat="47.09858" lon="-1.83828">
        <ele>61</ele>
        <time>2021-04-05T09:04:42.000Z</time>
      </trkpt>
      <trkpt lat="47.09858" lon="-1.83808">
        <ele>61</ele>
        <time>2021-04-05T09:04:44.000Z</time>
      </trkpt>
      <trkpt lat="47.09858" lon="-1.83787">
        <ele>61</ele>
        <time>2021-04-05T09:04:46.000Z</time>
      </trkpt>
      <trkpt lat="47.09859" lon="-1.83765">
        <ele>60</ele>
        <time>2021-04-05T09:04:48.000Z</time>
      </trkpt>
      <trkpt lat="47.0986" lon="-1.83745">
        <ele>60</ele>
        <time>2021-04-05T09:04:50.000Z</time>
      </trkpt>
      <trkpt lat="47.0986" lon="-1.83724">
        <ele>60</ele>
        <time>2021-04-05T09:04:52.000Z</time>
      </trkpt>
      <trkpt lat="47.09861" lon="-1.83703">
        <ele>60</ele>
        <time>2021-04-05T09:04:54.000Z</time>
      </trkpt>
      <trkpt lat="47.09861" lon="-1.83683">
        <ele>60</ele>
        <time>2021-04-05T09:04:56.000Z</time>
      </trkpt>
      <trkpt lat="47.09861" lon="-1.83661">
        <ele>60</ele>
        <time>2021-04-05T09:04:58.000Z</time>
      </trkpt>
      <trkpt lat="47.09861" lon="-1.8364">
        <ele>60</ele>
        <time>2021-04-05T09:05:00.000Z</time>
      </trkpt>
      <trkpt lat="47.09861" lon="-1.83619">
        <ele>60</ele>
        <time>2021-04-05T09:05:02.000Z</time>
      </trkpt>
      <trkpt lat="47.0986" lon="-1.83597">
        <ele>60</ele>
        <time>2021-04-05T09:05:04.000Z</time>
      </trkpt>
      <trkpt lat="47.09858" lon="-1.83576">
        <ele>60</ele>
        <time>2021-04-05T09:05:06.000Z</time>
      </trkpt>
      <trkpt lat="47.09856" lon="-1.83555">
        <ele>60</ele>
        <time>2021-04-05T09:05:08.000Z</time>
      </trkpt>
      <trkpt lat="47.09854" lon="-1.83535">
        <ele>60</ele>
        <time>2021-04-05T09:05:10.000Z</time>
      </trkpt>
      <trkpt lat="47.09852" lon="-1.83516">
        <ele>60</ele>
        <time>2021-04-05T09:05:12.000Z</time>
      </trkpt>
      <trkpt lat="47.09852" lon="-1.83496">
        <ele>60</ele>
        <time>2021-04-05T09:05:14.000Z</time>
      </trkpt>
      <trkpt lat="47.09852" lon="-1.83477">
        <ele>60</ele>
        <time>2021-04-05T09:05:16.000Z</time>
      </trkpt>
      <trkpt lat="47.09852" lon="-1.83457">
        <ele>61</ele>
        <time>2021-04-05T09:05:18.000Z</time>
      </trkpt>
      <trkpt lat="47.09853" lon="-1.83438">
        <ele>61</ele>
        <time>2021-04-05T09:05:20.000Z</time>
      </trkpt>
      <trkpt lat="47.09856" lon="-1.83419">
        <ele>61</ele>
        <time>2021-04-05T09:05:22.000Z</time>
      </trkpt>
      <trkpt lat="47.09859" lon="-1.834">
        <ele>60</ele>
        <time>2021-04-05T09:05:24.000Z</time>
      </trkpt>
      <trkpt lat="47.09864" lon="-1.83381">
        <ele>60</ele>
        <time>2021-04-05T09:05:26.000Z</time>
      </trkpt>
      <trkpt lat="47.09868" lon="-1.83362">
        <ele>59</ele>
        <time>2021-04-05T09:05:28.000Z</time>
      </trkpt>
      <trkpt lat="47.09872" lon="-1.83342">
        <ele>59</ele>
        <time>2021-04-05T09:05:30.000Z</time>
      </trkpt>
      <trkpt lat="47.09876" lon="-1.83322">
        <ele>59</ele>
        <time>2021-04-05T09:05:32.000Z</time>
      </trkpt>
      <trkpt lat="47.09879" lon="-1.83303">
        <ele>59</ele>
        <time>2021-04-05T09:05:34.000Z</time>
      </trkpt>
      <trkpt lat="47.09881" lon="-1.83282">
        <ele>59</ele>
        <time>2021-04-05T09:05:36.000Z</time>
      </trkpt>
      <trkpt lat="47.09882" lon="-1.83262">
        <ele>59</ele>
        <time>2021-04-05T09:05:38.000Z</time>
      </trkpt>
      <trkpt lat="47.09882" lon="-1.83242">
        <ele>60</ele>
        <time>2021-04-05T09:05:40.000Z</time>
      </trkpt>
      <trkpt lat="47.09881" lon="-1.83223">
        <ele>60</ele>
        <time>2021-04-05T09:05:42.000Z</time>
      </trkpt>
      <trkpt lat="47.0988" lon="-1.83204">
        <ele>60</ele>
        <time>2021-04-05T09:05:44.000Z</time>
      </trkpt>
      <trkpt lat="47.09878" lon="-1.83185">
        <ele>61</ele>
        <time>2021-04-05T09:05:46.000Z</time>
      </trkpt>
      <trkpt lat="47.09876" lon="-1.83166">
        <ele>61</ele>
        <time>2021-04-05T09:05:48.000Z</time>
      </trkpt>
      <trkpt lat="47.09874" lon="-1.83148">
        <ele>62</ele>
        <time>2021-04-05T09:05:50.000Z</time>
      </trkpt>
      <trkpt lat="47.09872" lon="-1.83129">
        <ele>62</ele>
        <time>2021-04-05T09:05:52.000Z</time>
      </trkpt>
      <trkpt lat="47.09871" lon="-1.83111">
        <ele>62</ele>
        <time>2021-04-05T09:05:54.000Z</time>
      </trkpt>
      <trkpt lat="47.09869" lon="-1.83093">
        <ele>62</ele>
        <time>2021-04-05T09:05:56.000Z</time>
      </trkpt>
      <trkpt lat="47.09868" lon="-1.83072">
        <ele>62</ele>
        <time>2021-04-05T09:05:58.000Z</time>
      </trkpt>
      <trkpt lat="47.09866" lon="-1.83053">
        <ele>62</ele>
        <time>2021-04-05T09:06:00.000Z</time>
      </trkpt>
      <trkpt lat="47.09864" lon="-1.83035">
        <ele>63</ele>
        <time>2021-04-05T09:06:02.000Z</time>
      </trkpt>
      <trkpt lat="47.09863" lon="-1.83016">
        <ele>63</ele>
        <time>2021-04-05T09:06:04.000Z</time>
      </trkpt>
      <trkpt lat="47.09861" lon="-1.82999">
        <ele>63</ele>
        <time>2021-04-05T09:06:06.000Z</time>
      </trkpt>
      <trkpt lat="47.09859" lon="-1.82981">
        <ele>63</ele>
        <time>2021-04-05T09:06:08.000Z</time>
      </trkpt>
      <trkpt lat="47.09857" lon="-1.82962">
        <ele>63</ele>
        <time>2021-04-05T09:06:10.000Z</time>
      </trkpt>
      <trkpt lat="47.09856" lon="-1.82944">
        <ele>63</ele>
        <time>2021-04-05T09:06:12.000Z</time>
      </trkpt>
      <trkpt lat="47.09854" lon="-1.82925">
        <ele>64</ele>
        <time>2021-04-05T09:06:14.000Z</time>
      </trkpt>
      <trkpt lat="47.09852" lon="-1.82906">
        <ele>64</ele>
        <time>2021-04-05T09:06:16.000Z</time>
      </trkpt>
      <trkpt lat="47.09851" lon="-1.82887">
        <ele>64</ele>
        <time>2021-04-05T09:06:18.000Z</time>
      </trkpt>
      <trkpt lat="47.09849" lon="-1.82869">
        <ele>65</ele>
        <time>2021-04-05T09:06:20.000Z</time>
      </trkpt>
      <trkpt lat="47.09848" lon="-1.8285">
        <ele>65</ele>
        <time>2021-04-05T09:06:22.000Z</time>
      </trkpt>
      <trkpt lat="47.09848" lon="-1.82833">
        <ele>65</ele>
        <time>2021-04-05T09:06:24.000Z</time>
      </trkpt>
      <trkpt lat="47.09849" lon="-1.82814">
        <ele>66</ele>
        <time>2021-04-05T09:06:26.000Z</time>
      </trkpt>
      <trkpt lat="47.09849" lon="-1.82796">
        <ele>66</ele>
        <time>2021-04-05T09:06:28.000Z</time>
      </trkpt>
      <trkpt lat="47.0985" lon="-1.82777">
        <ele>65</ele>
        <time>2021-04-05T09:06:30.000Z</time>
      </trkpt>
      <trkpt lat="47.09848" lon="-1.82759">
        <ele>66</ele>
        <time>2021-04-05T09:06:32.000Z</time>
      </trkpt>
      <trkpt lat="47.09845" lon="-1.8274">
        <ele>66</ele>
        <time>2021-04-05T09:06:34.000Z</time>
      </trkpt>
      <trkpt lat="47.09841" lon="-1.82722">
        <ele>67</ele>
        <time>2021-04-05T09:06:36.000Z</time>
      </trkpt>
      <trkpt lat="47.09836" lon="-1.82704">
        <ele>66</ele>
        <time>2021-04-05T09:06:38.000Z</time>
      </trkpt>
      <trkpt lat="47.09832" lon="-1.82686">
        <ele>66</ele>
        <time>2021-04-05T09:06:40.000Z</time>
      </trkpt>
      <trkpt lat="47.09828" lon="-1.82667">
        <ele>66</ele>
        <time>2021-04-05T09:06:42.000Z</time>
      </trkpt>
      <trkpt lat="47.09824" lon="-1.82648">
        <ele>66</ele>
        <time>2021-04-05T09:06:44.000Z</time>
      </trkpt>
      <trkpt lat="47.0982" lon="-1.82629">
        <ele>66</ele>
        <time>2021-04-05T09:06:46.000Z</time>
      </trkpt>
      <trkpt lat="47.09817" lon="-1.8261">
        <ele>66</ele>
        <time>2021-04-05T09:06:48.000Z</time>
      </trkpt>
      <trkpt lat="47.09814" lon="-1.82591">
        <ele>65</ele>
        <time>2021-04-05T09:06:50.000Z</time>
      </trkpt>
      <trkpt lat="47.09811" lon="-1.82572">
        <ele>65</ele>
        <time>2021-04-05T09:06:52.000Z</time>
      </trkpt>
      <trkpt lat="47.09808" lon="-1.82553">
        <ele>65</ele>
        <time>2021-04-05T09:06:54.000Z</time>
      </trkpt>
      <trkpt lat="47.09805" lon="-1.82534">
        <ele>65</ele>
        <time>2021-04-05T09:06:56.000Z</time>
      </trkpt>
      <trkpt lat="47.09803" lon="-1.82515">
        <ele>65</ele>
        <time>2021-04-05T09:06:58.000Z</time>
      </trkpt>
      <trkpt lat="47.09801" lon="-1.82495">
        <ele>65</ele>
        <time>2021-04-05T09:07:00.000Z</time>
      </trkpt>
      <trkpt lat="47.09799" lon="-1.82475">
        <ele>65</ele>
        <time>2021-04-05T09:07:02.000Z</time>
      </trkpt>
      <trkpt lat="47.09797" lon="-1.82457">
        <ele>65</ele>
        <time>2021-04-05T09:07:04.000Z</time>
      </trkpt>
      <trkpt lat="47.09794" lon="-1.82437">
        <ele>65</ele>
        <time>2021-04-05T09:07:06.000Z</time>
      </trkpt>
      <trkpt lat="47.09791" lon="-1.82418">
        <ele>65</ele>
        <time>2021-04-05T09:07:08.000Z</time>
      </trkpt>
      <trkpt lat="47.09788" lon="-1.82398">
        <ele>65</ele>
        <time>2021-04-05T09:07:10.000Z</time>
      </trkpt>
      <trkpt lat="47.09784" lon="-1.8238">
        <ele>65</ele>
        <time>2021-04-05T09:07:12.000Z</time>
      </trkpt>
      <trkpt lat="47.09779" lon="-1.82363">
        <ele>65</ele>
        <time>2021-04-05T09:07:14.000Z</time>
      </trkpt>
      <trkpt lat="47.09773" lon="-1.82345">
        <ele>65</ele>
        <time>2021-04-05T09:07:16.000Z</time>
      </trkpt>
      <trkpt lat="47.09767" lon="-1.82329">
        <ele>65</ele>
        <time>2021-04-05T09:07:18.000Z</time>
      </trkpt>
      <trkpt lat="47.0976" lon="-1.82312">
        <ele>64</ele>
        <time>2021-04-05T09:07:20.000Z</time>
      </trkpt>
      <trkpt lat="47.09754" lon="-1.82296">
        <ele>64</ele>
        <time>2021-04-05T09:07:22.000Z</time>
      </trkpt>
      <trkpt lat="47.09748" lon="-1.8228">
        <ele>65</ele>
        <time>2021-04-05T09:07:24.000Z</time>
      </trkpt>
      <trkpt lat="47.09741" lon="-1.82264">
        <ele>65</ele>
        <time>2021-04-05T09:07:26.000Z</time>
      </trkpt>
      <trkpt lat="47.09734" lon="-1.82248">
        <ele>65</ele>
        <time>2021-04-05T09:07:28.000Z</time>
      </trkpt>
      <trkpt lat="47.09727" lon="-1.82232">
        <ele>65</ele>
        <time>2021-04-05T09:07:30.000Z</time>
      </trkpt>
      <trkpt lat="47.0972" lon="-1.82217">
        <ele>65</ele>
        <time>2021-04-05T09:07:32.000Z</time>
      </trkpt>
      <trkpt lat="47.09713" lon="-1.82202">
        <ele>65</ele>
        <time>2021-04-05T09:07:34.000Z</time>
      </trkpt>
      <trkpt lat="47.09707" lon="-1.82188">
        <ele>65</ele>
        <time>2021-04-05T09:07:36.000Z</time>
      </trkpt>
      <trkpt lat="47.09702" lon="-1.82176">
        <ele>65</ele>
        <time>2021-04-05T09:07:38.000Z</time>
      </trkpt>
      <trkpt lat="47.09698" lon="-1.82164">
        <ele>65</ele>
        <time>2021-04-05T09:07:44.000Z</time>
      </trkpt>
      <trkpt lat="47.09695" lon="-1.82148">
        <ele>65</ele>
        <time>2021-04-05T09:07:53.000Z</time>
      </trkpt>
      <trkpt lat="47.09697" lon="-1.8213">
        <ele>64</ele>
        <time>2021-04-05T09:07:55.000Z</time>
      </trkpt>
      <trkpt lat="47.09702" lon="-1.82113">
        <ele>64</ele>
        <time>2021-04-05T09:07:57.000Z</time>
      </trkpt>
      <trkpt lat="47.09707" lon="-1.82096">
        <ele>64</ele>
        <time>2021-04-05T09:07:59.000Z</time>
      </trkpt>
      <trkpt lat="47.09712" lon="-1.82079">
        <ele>64</ele>
        <time>2021-04-05T09:08:01.000Z</time>
      </trkpt>
      <trkpt lat="47.09718" lon="-1.8206">
        <ele>64</ele>
        <time>2021-04-05T09:08:03.000Z</time>
      </trkpt>
      <trkpt lat="47.09723" lon="-1.82042">
        <ele>64</ele>
        <time>2021-04-05T09:08:05.000Z</time>
      </trkpt>
      <trkpt lat="47.09729" lon="-1.82024">
        <ele>64</ele>
        <time>2021-04-05T09:08:07.000Z</time>
      </trkpt>
      <trkpt lat="47.09734" lon="-1.82007">
        <ele>64</ele>
        <time>2021-04-05T09:08:09.000Z</time>
      </trkpt>
      <trkpt lat="47.09739" lon="-1.81991">
        <ele>63</ele>
        <time>2021-04-05T09:08:11.000Z</time>
      </trkpt>
      <trkpt lat="47.09732" lon="-1.81981">
        <ele>63</ele>
        <time>2021-04-05T09:08:13.000Z</time>
      </trkpt>
      <trkpt lat="47.09721" lon="-1.81991">
        <ele>64</ele>
        <time>2021-04-05T09:08:15.000Z</time>
      </trkpt>
      <trkpt lat="47.09711" lon="-1.82004">
        <ele>65</ele>
        <time>2021-04-05T09:08:17.000Z</time>
      </trkpt>
      <trkpt lat="47.097" lon="-1.82015">
        <ele>67</ele>
        <time>2021-04-05T09:08:19.000Z</time>
      </trkpt>
      <trkpt lat="47.09689" lon="-1.82026">
        <ele>67</ele>
        <time>2021-04-05T09:08:21.000Z</time>
      </trkpt>
      <trkpt lat="47.09677" lon="-1.82037">
        <ele>67</ele>
        <time>2021-04-05T09:08:23.000Z</time>
      </trkpt>
      <trkpt lat="47.09665" lon="-1.82045">
        <ele>67</ele>
        <time>2021-04-05T09:08:25.000Z</time>
      </trkpt>
      <trkpt lat="47.09652" lon="-1.82042">
        <ele>67</ele>
        <time>2021-04-05T09:08:27.000Z</time>
      </trkpt>
      <trkpt lat="47.09641" lon="-1.82026">
        <ele>67</ele>
        <time>2021-04-05T09:08:29.000Z</time>
      </trkpt>
      <trkpt lat="47.09632" lon="-1.82008">
        <ele>67</ele>
        <time>2021-04-05T09:08:31.000Z</time>
      </trkpt>
      <trkpt lat="47.09623" lon="-1.8199">
        <ele>66</ele>
        <time>2021-04-05T09:08:33.000Z</time>
      </trkpt>
      <trkpt lat="47.09614" lon="-1.81974">
        <ele>66</ele>
        <time>2021-04-05T09:08:35.000Z</time>
      </trkpt>
      <trkpt lat="47.09606" lon="-1.81957">
        <ele>66</ele>
        <time>2021-04-05T09:08:37.000Z</time>
      </trkpt>
      <trkpt lat="47.09597" lon="-1.81942">
        <ele>66</ele>
        <time>2021-04-05T09:08:39.000Z</time>
      </trkpt>
      <trkpt lat="47.09588" lon="-1.81927">
        <ele>66</ele>
        <time>2021-04-05T09:08:41.000Z</time>
      </trkpt>
      <trkpt lat="47.09579" lon="-1.81911">
        <ele>66</ele>
        <time>2021-04-05T09:08:43.000Z</time>
      </trkpt>
      <trkpt lat="47.0957" lon="-1.81896">
        <ele>67</ele>
        <time>2021-04-05T09:08:45.000Z</time>
      </trkpt>
      <trkpt lat="47.09561" lon="-1.81881">
        <ele>66</ele>
        <time>2021-04-05T09:08:47.000Z</time>
      </trkpt>
      <trkpt lat="47.09552" lon="-1.81866">
        <ele>66</ele>
        <time>2021-04-05T09:08:49.000Z</time>
      </trkpt>
      <trkpt lat="47.09543" lon="-1.81851">
        <ele>67</ele>
        <time>2021-04-05T09:08:51.000Z</time>
      </trkpt>
      <trkpt lat="47.09535" lon="-1.81836">
        <ele>67</ele>
        <time>2021-04-05T09:08:53.000Z</time>
      </trkpt>
      <trkpt lat="47.09527" lon="-1.8182">
        <ele>67</ele>
        <time>2021-04-05T09:08:55.000Z</time>
      </trkpt>
      <trkpt lat="47.0952" lon="-1.81804">
        <ele>67</ele>
        <time>2021-04-05T09:08:57.000Z</time>
      </trkpt>
      <trkpt lat="47.09513" lon="-1.81787">
        <ele>66</ele>
        <time>2021-04-05T09:08:59.000Z</time>
      </trkpt>
      <trkpt lat="47.09507" lon="-1.81767">
        <ele>66</ele>
        <time>2021-04-05T09:09:01.000Z</time>
      </trkpt>
      <trkpt lat="47.09502" lon="-1.8175">
        <ele>66</ele>
        <time>2021-04-05T09:09:03.000Z</time>
      </trkpt>
      <trkpt lat="47.09497" lon="-1.81731">
        <ele>65</ele>
        <time>2021-04-05T09:09:05.000Z</time>
      </trkpt>
      <trkpt lat="47.09491" lon="-1.81713">
        <ele>65</ele>
        <time>2021-04-05T09:09:07.000Z</time>
      </trkpt>
      <trkpt lat="47.09487" lon="-1.81695">
        <ele>65</ele>
        <time>2021-04-05T09:09:09.000Z</time>
      </trkpt>
      <trkpt lat="47.09483" lon="-1.81677">
        <ele>66</ele>
        <time>2021-04-05T09:09:11.000Z</time>
      </trkpt>
      <trkpt lat="47.09478" lon="-1.81659">
        <ele>66</ele>
        <time>2021-04-05T09:09:13.000Z</time>
      </trkpt>
      <trkpt lat="47.09474" lon="-1.81641">
        <ele>66</ele>
        <time>2021-04-05T09:09:15.000Z</time>
      </trkpt>
      <trkpt lat="47.0947" lon="-1.81622">
        <ele>67</ele>
        <time>2021-04-05T09:09:17.000Z</time>
      </trkpt>
      <trkpt lat="47.09466" lon="-1.81604">
        <ele>66</ele>
        <time>2021-04-05T09:09:19.000Z</time>
      </trkpt>
      <trkpt lat="47.09462" lon="-1.81585">
        <ele>66</ele>
        <time>2021-04-05T09:09:21.000Z</time>
      </trkpt>
      <trkpt lat="47.09458" lon="-1.81566">
        <ele>66</ele>
        <time>2021-04-05T09:09:23.000Z</time>
      </trkpt>
      <trkpt lat="47.09453" lon="-1.81548">
        <ele>66</ele>
        <time>2021-04-05T09:09:25.000Z</time>
      </trkpt>
      <trkpt lat="47.09447" lon="-1.81529">
        <ele>65</ele>
        <time>2021-04-05T09:09:27.000Z</time>
      </trkpt>
      <trkpt lat="47.0944" lon="-1.81511">
        <ele>65</ele>
        <time>2021-04-05T09:09:29.000Z</time>
      </trkpt>
      <trkpt lat="47.09434" lon="-1.81491">
        <ele>65</ele>
        <time>2021-04-05T09:09:31.000Z</time>
      </trkpt>
      <trkpt lat="47.09428" lon="-1.81472">
        <ele>64</ele>
        <time>2021-04-05T09:09:33.000Z</time>
      </trkpt>
      <trkpt lat="47.09422" lon="-1.81452">
        <ele>64</ele>
        <time>2021-04-05T09:09:35.000Z</time>
      </trkpt>
      <trkpt lat="47.09416" lon="-1.81432">
        <ele>64</ele>
        <time>2021-04-05T09:09:37.000Z</time>
      </trkpt>
      <trkpt lat="47.09409" lon="-1.81412">
        <ele>63</ele>
        <time>2021-04-05T09:09:39.000Z</time>
      </trkpt>
      <trkpt lat="47.09402" lon="-1.81391">
        <ele>63</ele>
        <time>2021-04-05T09:09:41.000Z</time>
      </trkpt>
      <trkpt lat="47.09395" lon="-1.81371">
        <ele>62</ele>
        <time>2021-04-05T09:09:43.000Z</time>
      </trkpt>
      <trkpt lat="47.09387" lon="-1.81352">
        <ele>62</ele>
        <time>2021-04-05T09:09:45.000Z</time>
      </trkpt>
      <trkpt lat="47.09377" lon="-1.81333">
        <ele>61</ele>
        <time>2021-04-05T09:09:47.000Z</time>
      </trkpt>
      <trkpt lat="47.09367" lon="-1.81315">
        <ele>61</ele>
        <time>2021-04-05T09:09:49.000Z</time>
      </trkpt>
      <trkpt lat="47.09357" lon="-1.81298">
        <ele>61</ele>
        <time>2021-04-05T09:09:51.000Z</time>
      </trkpt>
      <trkpt lat="47.09346" lon="-1.81281">
        <ele>60</ele>
        <time>2021-04-05T09:09:53.000Z</time>
      </trkpt>
      <trkpt lat="47.09335" lon="-1.81265">
        <ele>60</ele>
        <time>2021-04-05T09:09:55.000Z</time>
      </trkpt>
      <trkpt lat="47.09323" lon="-1.81249">
        <ele>60</ele>
        <time>2021-04-05T09:09:57.000Z</time>
      </trkpt>
      <trkpt lat="47.09312" lon="-1.81232">
        <ele>60</ele>
        <time>2021-04-05T09:09:59.000Z</time>
      </trkpt>
      <trkpt lat="47.09301" lon="-1.81216">
        <ele>60</ele>
        <time>2021-04-05T09:10:01.000Z</time>
      </trkpt>
      <trkpt lat="47.09291" lon="-1.812">
        <ele>60</ele>
        <time>2021-04-05T09:10:03.000Z</time>
      </trkpt>
      <trkpt lat="47.0928" lon="-1.81183">
        <ele>60</ele>
        <time>2021-04-05T09:10:05.000Z</time>
      </trkpt>
      <trkpt lat="47.09269" lon="-1.81166">
        <ele>59</ele>
        <time>2021-04-05T09:10:07.000Z</time>
      </trkpt>
      <trkpt lat="47.09259" lon="-1.81149">
        <ele>59</ele>
        <time>2021-04-05T09:10:09.000Z</time>
      </trkpt>
      <trkpt lat="47.09248" lon="-1.81132">
        <ele>58</ele>
        <time>2021-04-05T09:10:11.000Z</time>
      </trkpt>
      <trkpt lat="47.09237" lon="-1.81115">
        <ele>57</ele>
        <time>2021-04-05T09:10:13.000Z</time>
      </trkpt>
      <trkpt lat="47.09225" lon="-1.81098">
        <ele>57</ele>
        <time>2021-04-05T09:10:15.000Z</time>
      </trkpt>
      <trkpt lat="47.09212" lon="-1.81084">
        <ele>56</ele>
        <time>2021-04-05T09:10:17.000Z</time>
      </trkpt>
      <trkpt lat="47.09199" lon="-1.81072">
        <ele>56</ele>
        <time>2021-04-05T09:10:19.000Z</time>
      </trkpt>
      <trkpt lat="47.09186" lon="-1.81061">
        <ele>56</ele>
        <time>2021-04-05T09:10:21.000Z</time>
      </trkpt>
      <trkpt lat="47.09172" lon="-1.8105">
        <ele>56</ele>
        <time>2021-04-05T09:10:23.000Z</time>
      </trkpt>
      <trkpt lat="47.0916" lon="-1.8104">
        <ele>56</ele>
        <time>2021-04-05T09:10:25.000Z</time>
      </trkpt>
      <trkpt lat="47.09147" lon="-1.8103">
        <ele>56</ele>
        <time>2021-04-05T09:10:27.000Z</time>
      </trkpt>
      <trkpt lat="47.09135" lon="-1.81021">
        <ele>57</ele>
        <time>2021-04-05T09:10:29.000Z</time>
      </trkpt>
      <trkpt lat="47.09123" lon="-1.81013">
        <ele>57</ele>
        <time>2021-04-05T09:10:31.000Z</time>
      </trkpt>
      <trkpt lat="47.09111" lon="-1.81003">
        <ele>58</ele>
        <time>2021-04-05T09:10:33.000Z</time>
      </trkpt>
      <trkpt lat="47.09099" lon="-1.80994">
        <ele>58</ele>
        <time>2021-04-05T09:10:35.000Z</time>
      </trkpt>
      <trkpt lat="47.09087" lon="-1.80985">
        <ele>58</ele>
        <time>2021-04-05T09:10:37.000Z</time>
      </trkpt>
      <trkpt lat="47.09075" lon="-1.80976">
        <ele>59</ele>
        <time>2021-04-05T09:10:39.000Z</time>
      </trkpt>
      <trkpt lat="47.09063" lon="-1.80968">
        <ele>59</ele>
        <time>2021-04-05T09:10:41.000Z</time>
      </trkpt>
      <trkpt lat="47.0905" lon="-1.80959">
        <ele>59</ele>
        <time>2021-04-05T09:10:43.000Z</time>
      </trkpt>
      <trkpt lat="47.09038" lon="-1.80951">
        <ele>59</ele>
        <time>2021-04-05T09:10:45.000Z</time>
      </trkpt>
      <trkpt lat="47.09026" lon="-1.80942">
        <ele>59</ele>
        <time>2021-04-05T09:10:47.000Z</time>
      </trkpt>
      <trkpt lat="47.09015" lon="-1.80933">
        <ele>59</ele>
        <time>2021-04-05T09:10:49.000Z</time>
      </trkpt>
      <trkpt lat="47.09003" lon="-1.80924">
        <ele>59</ele>
        <time>2021-04-05T09:10:51.000Z</time>
      </trkpt>
      <trkpt lat="47.08991" lon="-1.80916">
        <ele>58</ele>
        <time>2021-04-05T09:10:53.000Z</time>
      </trkpt>
      <trkpt lat="47.08979" lon="-1.80907">
        <ele>58</ele>
        <time>2021-04-05T09:10:55.000Z</time>
      </trkpt>
      <trkpt lat="47.08968" lon="-1.80898">
        <ele>58</ele>
        <time>2021-04-05T09:10:57.000Z</time>
      </trkpt>
      <trkpt lat="47.08956" lon="-1.80889">
        <ele>59</ele>
        <time>2021-04-05T09:10:59.000Z</time>
      </trkpt>
      <trkpt lat="47.08945" lon="-1.8088">
        <ele>59</ele>
        <time>2021-04-05T09:11:01.000Z</time>
      </trkpt>
      <trkpt lat="47.08935" lon="-1.8087">
        <ele>59</ele>
        <time>2021-04-05T09:11:03.000Z</time>
      </trkpt>
      <trkpt lat="47.08925" lon="-1.80859">
        <ele>60</ele>
        <time>2021-04-05T09:11:05.000Z</time>
      </trkpt>
      <trkpt lat="47.08916" lon="-1.80845">
        <ele>60</ele>
        <time>2021-04-05T09:11:07.000Z</time>
      </trkpt>
      <trkpt lat="47.08908" lon="-1.80832">
        <ele>60</ele>
        <time>2021-04-05T09:11:09.000Z</time>
      </trkpt>
      <trkpt lat="47.08899" lon="-1.80818">
        <ele>60</ele>
        <time>2021-04-05T09:11:11.000Z</time>
      </trkpt>
      <trkpt lat="47.08892" lon="-1.80805">
        <ele>60</ele>
        <time>2021-04-05T09:11:13.000Z</time>
      </trkpt>
      <trkpt lat="47.08884" lon="-1.80791">
        <ele>61</ele>
        <time>2021-04-05T09:11:15.000Z</time>
      </trkpt>
      <trkpt lat="47.08876" lon="-1.80777">
        <ele>61</ele>
        <time>2021-04-05T09:11:17.000Z</time>
      </trkpt>
      <trkpt lat="47.08868" lon="-1.80763">
        <ele>61</ele>
        <time>2021-04-05T09:11:19.000Z</time>
      </trkpt>
      <trkpt lat="47.08861" lon="-1.8075">
        <ele>60</ele>
        <time>2021-04-05T09:11:21.000Z</time>
      </trkpt>
      <trkpt lat="47.08852" lon="-1.80736">
        <ele>61</ele>
        <time>2021-04-05T09:11:23.000Z</time>
      </trkpt>
      <trkpt lat="47.08844" lon="-1.80722">
        <ele>61</ele>
        <time>2021-04-05T09:11:25.000Z</time>
      </trkpt>
      <trkpt lat="47.08836" lon="-1.80707">
        <ele>61</ele>
        <time>2021-04-05T09:11:27.000Z</time>
      </trkpt>
      <trkpt lat="47.08827" lon="-1.80691">
        <ele>61</ele>
        <time>2021-04-05T09:11:29.000Z</time>
      </trkpt>
      <trkpt lat="47.08819" lon="-1.80676">
        <ele>62</ele>
        <time>2021-04-05T09:11:31.000Z</time>
      </trkpt>
      <trkpt lat="47.08811" lon="-1.80662">
        <ele>61</ele>
        <time>2021-04-05T09:11:33.000Z</time>
      </trkpt>
      <trkpt lat="47.08803" lon="-1.80648">
        <ele>61</ele>
        <time>2021-04-05T09:11:35.000Z</time>
      </trkpt>
      <trkpt lat="47.08795" lon="-1.80634">
        <ele>61</ele>
        <time>2021-04-05T09:11:37.000Z</time>
      </trkpt>
      <trkpt lat="47.08787" lon="-1.80621">
        <ele>62</ele>
        <time>2021-04-05T09:11:39.000Z</time>
      </trkpt>
      <trkpt lat="47.08778" lon="-1.80609">
        <ele>62</ele>
        <time>2021-04-05T09:11:41.000Z</time>
      </trkpt>
      <trkpt lat="47.08768" lon="-1.80597">
        <ele>62</ele>
        <time>2021-04-05T09:11:43.000Z</time>
      </trkpt>
      <trkpt lat="47.08758" lon="-1.80587">
        <ele>63</ele>
        <time>2021-04-05T09:11:45.000Z</time>
      </trkpt>
      <trkpt lat="47.08747" lon="-1.80577">
        <ele>62</ele>
        <time>2021-04-05T09:11:47.000Z</time>
      </trkpt>
      <trkpt lat="47.08735" lon="-1.80569">
        <ele>63</ele>
        <time>2021-04-05T09:11:49.000Z</time>
      </trkpt>
      <trkpt lat="47.08724" lon="-1.80561">
        <ele>63</ele>
        <time>2021-04-05T09:11:51.000Z</time>
      </trkpt>
      <trkpt lat="47.08713" lon="-1.80552">
        <ele>64</ele>
        <time>2021-04-05T09:11:53.000Z</time>
      </trkpt>
      <trkpt lat="47.08702" lon="-1.80544">
        <ele>64</ele>
        <time>2021-04-05T09:11:55.000Z</time>
      </trkpt>
      <trkpt lat="47.0869" lon="-1.80536">
        <ele>65</ele>
        <time>2021-04-05T09:11:57.000Z</time>
      </trkpt>
      <trkpt lat="47.08678" lon="-1.80528">
        <ele>65</ele>
        <time>2021-04-05T09:11:59.000Z</time>
      </trkpt>
      <trkpt lat="47.08666" lon="-1.80521">
        <ele>65</ele>
        <time>2021-04-05T09:12:01.000Z</time>
      </trkpt>
      <trkpt lat="47.08654" lon="-1.80516">
        <ele>66</ele>
        <time>2021-04-05T09:12:03.000Z</time>
      </trkpt>
      <trkpt lat="47.08641" lon="-1.80512">
        <ele>67</ele>
        <time>2021-04-05T09:12:05.000Z</time>
      </trkpt>
      <trkpt lat="47.08629" lon="-1.80508">
        <ele>67</ele>
        <time>2021-04-05T09:12:07.000Z</time>
      </trkpt>
      <trkpt lat="47.08617" lon="-1.80506">
        <ele>68</ele>
        <time>2021-04-05T09:12:09.000Z</time>
      </trkpt>
      <trkpt lat="47.08604" lon="-1.80502">
        <ele>68</ele>
        <time>2021-04-05T09:12:11.000Z</time>
      </trkpt>
      <trkpt lat="47.08591" lon="-1.80499">
        <ele>69</ele>
        <time>2021-04-05T09:12:13.000Z</time>
      </trkpt>
      <trkpt lat="47.08579" lon="-1.80496">
        <ele>69</ele>
        <time>2021-04-05T09:12:15.000Z</time>
      </trkpt>
      <trkpt lat="47.08567" lon="-1.80493">
        <ele>69</ele>
        <time>2021-04-05T09:12:17.000Z</time>
      </trkpt>
      <trkpt lat="47.08555" lon="-1.8049">
        <ele>69</ele>
        <time>2021-04-05T09:12:19.000Z</time>
      </trkpt>
      <trkpt lat="47.08542" lon="-1.80486">
        <ele>70</ele>
        <time>2021-04-05T09:12:21.000Z</time>
      </trkpt>
      <trkpt lat="47.08529" lon="-1.80483">
        <ele>70</ele>
        <time>2021-04-05T09:12:23.000Z</time>
      </trkpt>
      <trkpt lat="47.08515" lon="-1.8048">
        <ele>70</ele>
        <time>2021-04-05T09:12:25.000Z</time>
      </trkpt>
      <trkpt lat="47.08502" lon="-1.80477">
        <ele>70</ele>
        <time>2021-04-05T09:12:27.000Z</time>
      </trkpt>
      <trkpt lat="47.08488" lon="-1.80474">
        <ele>70</ele>
        <time>2021-04-05T09:12:29.000Z</time>
      </trkpt>
      <trkpt lat="47.08475" lon="-1.80472">
        <ele>71</ele>
        <time>2021-04-05T09:12:31.000Z</time>
      </trkpt>
      <trkpt lat="47.08462" lon="-1.80471">
        <ele>71</ele>
        <time>2021-04-05T09:12:33.000Z</time>
      </trkpt>
      <trkpt lat="47.0845" lon="-1.8047">
        <ele>71</ele>
        <time>2021-04-05T09:12:35.000Z</time>
      </trkpt>
      <trkpt lat="47.08437" lon="-1.8047">
        <ele>72</ele>
        <time>2021-04-05T09:12:37.000Z</time>
      </trkpt>
      <trkpt lat="47.08424" lon="-1.8047">
        <ele>72</ele>
        <time>2021-04-05T09:12:39.000Z</time>
      </trkpt>
      <trkpt lat="47.08411" lon="-1.8047">
        <ele>72</ele>
        <time>2021-04-05T09:12:41.000Z</time>
      </trkpt>
      <trkpt lat="47.08398" lon="-1.8047">
        <ele>72</ele>
        <time>2021-04-05T09:12:43.000Z</time>
      </trkpt>
      <trkpt lat="47.08386" lon="-1.8047">
        <ele>72</ele>
        <time>2021-04-05T09:12:45.000Z</time>
      </trkpt>
      <trkpt lat="47.08373" lon="-1.80471">
        <ele>72</ele>
        <time>2021-04-05T09:12:47.000Z</time>
      </trkpt>
      <trkpt lat="47.0836" lon="-1.80471">
        <ele>72</ele>
        <time>2021-04-05T09:12:49.000Z</time>
      </trkpt>
      <trkpt lat="47.08347" lon="-1.80472">
        <ele>72</ele>
        <time>2021-04-05T09:12:51.000Z</time>
      </trkpt>
      <trkpt lat="47.08335" lon="-1.80474">
        <ele>72</ele>
        <time>2021-04-05T09:12:53.000Z</time>
      </trkpt>
      <trkpt lat="47.08322" lon="-1.80477">
        <ele>72</ele>
        <time>2021-04-05T09:12:55.000Z</time>
      </trkpt>
      <trkpt lat="47.08309" lon="-1.8048">
        <ele>72</ele>
        <time>2021-04-05T09:12:57.000Z</time>
      </trkpt>
      <trkpt lat="47.08296" lon="-1.80484">
        <ele>72</ele>
        <time>2021-04-05T09:12:59.000Z</time>
      </trkpt>
      <trkpt lat="47.08283" lon="-1.8049">
        <ele>72</ele>
        <time>2021-04-05T09:13:01.000Z</time>
      </trkpt>
      <trkpt lat="47.0827" lon="-1.80496">
        <ele>72</ele>
        <time>2021-04-05T09:13:03.000Z</time>
      </trkpt>
      <trkpt lat="47.08256" lon="-1.805">
        <ele>71</ele>
        <time>2021-04-05T09:13:05.000Z</time>
      </trkpt>
      <trkpt lat="47.08242" lon="-1.80504">
        <ele>71</ele>
        <time>2021-04-05T09:13:07.000Z</time>
      </trkpt>
      <trkpt lat="47.08228" lon="-1.8051">
        <ele>70</ele>
        <time>2021-04-05T09:13:09.000Z</time>
      </trkpt>
      <trkpt lat="47.08214" lon="-1.80515">
        <ele>70</ele>
        <time>2021-04-05T09:13:11.000Z</time>
      </trkpt>
      <trkpt lat="47.082" lon="-1.80521">
        <ele>70</ele>
        <time>2021-04-05T09:13:13.000Z</time>
      </trkpt>
      <trkpt lat="47.08186" lon="-1.80527">
        <ele>69</ele>
        <time>2021-04-05T09:13:15.000Z</time>
      </trkpt>
      <trkpt lat="47.08172" lon="-1.80534">
        <ele>69</ele>
        <time>2021-04-05T09:13:17.000Z</time>
      </trkpt>
      <trkpt lat="47.08158" lon="-1.8054">
        <ele>69</ele>
        <time>2021-04-05T09:13:19.000Z</time>
      </trkpt>
      <trkpt lat="47.08143" lon="-1.80545">
        <ele>68</ele>
        <time>2021-04-05T09:13:21.000Z</time>
      </trkpt>
      <trkpt lat="47.08128" lon="-1.8055">
        <ele>68</ele>
        <time>2021-04-05T09:13:23.000Z</time>
      </trkpt>
      <trkpt lat="47.08113" lon="-1.80555">
        <ele>67</ele>
        <time>2021-04-05T09:13:25.000Z</time>
      </trkpt>
      <trkpt lat="47.08097" lon="-1.80559">
        <ele>66</ele>
        <time>2021-04-05T09:13:27.000Z</time>
      </trkpt>
      <trkpt lat="47.08082" lon="-1.80564">
        <ele>66</ele>
        <time>2021-04-05T09:13:29.000Z</time>
      </trkpt>
      <trkpt lat="47.08066" lon="-1.80568">
        <ele>65</ele>
        <time>2021-04-05T09:13:31.000Z</time>
      </trkpt>
      <trkpt lat="47.08052" lon="-1.80571">
        <ele>65</ele>
        <time>2021-04-05T09:13:33.000Z</time>
      </trkpt>
      <trkpt lat="47.08037" lon="-1.80576">
        <ele>65</ele>
        <time>2021-04-05T09:13:35.000Z</time>
      </trkpt>
      <trkpt lat="47.08023" lon="-1.80579">
        <ele>64</ele>
        <time>2021-04-05T09:13:37.000Z</time>
      </trkpt>
      <trkpt lat="47.08009" lon="-1.80581">
        <ele>64</ele>
        <time>2021-04-05T09:13:39.000Z</time>
      </trkpt>
      <trkpt lat="47.07996" lon="-1.80582">
        <ele>64</ele>
        <time>2021-04-05T09:13:41.000Z</time>
      </trkpt>
      <trkpt lat="47.07982" lon="-1.80582">
        <ele>65</ele>
        <time>2021-04-05T09:13:43.000Z</time>
      </trkpt>
      <trkpt lat="47.07968" lon="-1.8058">
        <ele>65</ele>
        <time>2021-04-05T09:13:45.000Z</time>
      </trkpt>
      <trkpt lat="47.07956" lon="-1.80575">
        <ele>64</ele>
        <time>2021-04-05T09:13:47.000Z</time>
      </trkpt>
      <trkpt lat="47.07944" lon="-1.80565">
        <ele>64</ele>
        <time>2021-04-05T09:13:49.000Z</time>
      </trkpt>
      <trkpt lat="47.07934" lon="-1.80551">
        <ele>64</ele>
        <time>2021-04-05T09:13:51.000Z</time>
      </trkpt>
      <trkpt lat="47.07926" lon="-1.80534">
        <ele>65</ele>
        <time>2021-04-05T09:13:53.000Z</time>
      </trkpt>
      <trkpt lat="47.07919" lon="-1.80517">
        <ele>65</ele>
        <time>2021-04-05T09:13:55.000Z</time>
      </trkpt>
      <trkpt lat="47.07913" lon="-1.80499">
        <ele>66</ele>
        <time>2021-04-05T09:13:57.000Z</time>
      </trkpt>
      <trkpt lat="47.07908" lon="-1.80481">
        <ele>65</ele>
        <time>2021-04-05T09:13:59.000Z</time>
      </trkpt>
      <trkpt lat="47.07904" lon="-1.80461">
        <ele>65</ele>
        <time>2021-04-05T09:14:01.000Z</time>
      </trkpt>
      <trkpt lat="47.07903" lon="-1.80441">
        <ele>65</ele>
        <time>2021-04-05T09:14:03.000Z</time>
      </trkpt>
      <trkpt lat="47.07902" lon="-1.8042">
        <ele>64</ele>
        <time>2021-04-05T09:14:05.000Z</time>
      </trkpt>
      <trkpt lat="47.07903" lon="-1.80389">
        <ele>63</ele>
        <time>2021-04-05T09:14:08.000Z</time>
      </trkpt>
      <trkpt lat="47.07903" lon="-1.80369">
        <ele>62</ele>
        <time>2021-04-05T09:14:10.000Z</time>
      </trkpt>
      <trkpt lat="47.07903" lon="-1.80351">
        <ele>62</ele>
        <time>2021-04-05T09:14:12.000Z</time>
      </trkpt>
      <trkpt lat="47.07903" lon="-1.80332">
        <ele>62</ele>
        <time>2021-04-05T09:14:14.000Z</time>
      </trkpt>
      <trkpt lat="47.07904" lon="-1.80313">
        <ele>62</ele>
        <time>2021-04-05T09:14:16.000Z</time>
      </trkpt>
      <trkpt lat="47.07903" lon="-1.80294">
        <ele>62</ele>
        <time>2021-04-05T09:14:18.000Z</time>
      </trkpt>
      <trkpt lat="47.07903" lon="-1.80275">
        <ele>62</ele>
        <time>2021-04-05T09:14:20.000Z</time>
      </trkpt>
      <trkpt lat="47.07903" lon="-1.80256">
        <ele>62</ele>
        <time>2021-04-05T09:14:22.000Z</time>
      </trkpt>
      <trkpt lat="47.07903" lon="-1.80239">
        <ele>62</ele>
        <time>2021-04-05T09:14:24.000Z</time>
      </trkpt>
      <trkpt lat="47.07903" lon="-1.80221">
        <ele>62</ele>
        <time>2021-04-05T09:14:26.000Z</time>
      </trkpt>
      <trkpt lat="47.07902" lon="-1.80202">
        <ele>63</ele>
        <time>2021-04-05T09:14:28.000Z</time>
      </trkpt>
      <trkpt lat="47.07902" lon="-1.80183">
        <ele>63</ele>
        <time>2021-04-05T09:14:30.000Z</time>
      </trkpt>
      <trkpt lat="47.07901" lon="-1.80165">
        <ele>62</ele>
        <time>2021-04-05T09:14:32.000Z</time>
      </trkpt>
      <trkpt lat="47.07901" lon="-1.80146">
        <ele>61</ele>
        <time>2021-04-05T09:14:34.000Z</time>
      </trkpt>
      <trkpt lat="47.079" lon="-1.80127">
        <ele>61</ele>
        <time>2021-04-05T09:14:36.000Z</time>
      </trkpt>
      <trkpt lat="47.07901" lon="-1.80108">
        <ele>61</ele>
        <time>2021-04-05T09:14:38.000Z</time>
      </trkpt>
      <trkpt lat="47.079" lon="-1.80089">
        <ele>60</ele>
        <time>2021-04-05T09:14:40.000Z</time>
      </trkpt>
      <trkpt lat="47.07901" lon="-1.8007">
        <ele>60</ele>
        <time>2021-04-05T09:14:42.000Z</time>
      </trkpt>
      <trkpt lat="47.079" lon="-1.80042">
        <ele>60</ele>
        <time>2021-04-05T09:14:45.000Z</time>
      </trkpt>
      <trkpt lat="47.07898" lon="-1.80024">
        <ele>60</ele>
        <time>2021-04-05T09:14:47.000Z</time>
      </trkpt>
      <trkpt lat="47.07892" lon="-1.80009">
        <ele>61</ele>
        <time>2021-04-05T09:14:49.000Z</time>
      </trkpt>
      <trkpt lat="47.0789" lon="-1.7999">
        <ele>60</ele>
        <time>2021-04-05T09:14:51.000Z</time>
      </trkpt>
      <trkpt lat="47.07897" lon="-1.79971">
        <ele>59</ele>
        <time>2021-04-05T09:14:53.000Z</time>
      </trkpt>
      <trkpt lat="47.07903" lon="-1.79953">
        <ele>59</ele>
        <time>2021-04-05T09:14:55.000Z</time>
      </trkpt>
      <trkpt lat="47.07907" lon="-1.79932">
        <ele>59</ele>
        <time>2021-04-05T09:14:57.000Z</time>
      </trkpt>
      <trkpt lat="47.07916" lon="-1.79906">
        <ele>59</ele>
        <time>2021-04-05T09:15:00.000Z</time>
      </trkpt>
      <trkpt lat="47.07922" lon="-1.79888">
        <ele>59</ele>
        <time>2021-04-05T09:15:02.000Z</time>
      </trkpt>
      <trkpt lat="47.07928" lon="-1.79872">
        <ele>59</ele>
        <time>2021-04-05T09:15:04.000Z</time>
      </trkpt>
      <trkpt lat="47.07938" lon="-1.79845">
        <ele>59</ele>
        <time>2021-04-05T09:15:07.000Z</time>
      </trkpt>
      <trkpt lat="47.07944" lon="-1.79828">
        <ele>59</ele>
        <time>2021-04-05T09:15:09.000Z</time>
      </trkpt>
      <trkpt lat="47.0795" lon="-1.79811">
        <ele>59</ele>
        <time>2021-04-05T09:15:11.000Z</time>
      </trkpt>
      <trkpt lat="47.07955" lon="-1.79793">
        <ele>59</ele>
        <time>2021-04-05T09:15:13.000Z</time>
      </trkpt>
      <trkpt lat="47.07959" lon="-1.79775">
        <ele>59</ele>
        <time>2021-04-05T09:15:15.000Z</time>
      </trkpt>
      <trkpt lat="47.07961" lon="-1.79757">
        <ele>59</ele>
        <time>2021-04-05T09:15:17.000Z</time>
      </trkpt>
      <trkpt lat="47.07963" lon="-1.79738">
        <ele>59</ele>
        <time>2021-04-05T09:15:19.000Z</time>
      </trkpt>
      <trkpt lat="47.07965" lon="-1.7971">
        <ele>60</ele>
        <time>2021-04-05T09:15:22.000Z</time>
      </trkpt>
      <trkpt lat="47.07967" lon="-1.7969">
        <ele>60</ele>
        <time>2021-04-05T09:15:24.000Z</time>
      </trkpt>
      <trkpt lat="47.07969" lon="-1.79671">
        <ele>60</ele>
        <time>2021-04-05T09:15:26.000Z</time>
      </trkpt>
      <trkpt lat="47.07969" lon="-1.79653">
        <ele>60</ele>
        <time>2021-04-05T09:15:28.000Z</time>
      </trkpt>
      <trkpt lat="47.07969" lon="-1.79634">
        <ele>60</ele>
        <time>2021-04-05T09:15:30.000Z</time>
      </trkpt>
      <trkpt lat="47.07968" lon="-1.79615">
        <ele>60</ele>
        <time>2021-04-05T09:15:32.000Z</time>
      </trkpt>
      <trkpt lat="47.07968" lon="-1.79597">
        <ele>60</ele>
        <time>2021-04-05T09:15:34.000Z</time>
      </trkpt>
      <trkpt lat="47.07967" lon="-1.79578">
        <ele>60</ele>
        <time>2021-04-05T09:15:36.000Z</time>
      </trkpt>
      <trkpt lat="47.07964" lon="-1.79551">
        <ele>60</ele>
        <time>2021-04-05T09:15:39.000Z</time>
      </trkpt>
      <trkpt lat="47.0796" lon="-1.79533">
        <ele>60</ele>
        <time>2021-04-05T09:15:41.000Z</time>
      </trkpt>
      <trkpt lat="47.07956" lon="-1.79516">
        <ele>60</ele>
        <time>2021-04-05T09:15:43.000Z</time>
      </trkpt>
      <trkpt lat="47.0795" lon="-1.79488">
        <ele>60</ele>
        <time>2021-04-05T09:15:46.000Z</time>
      </trkpt>
      <trkpt lat="47.07945" lon="-1.7947">
        <ele>60</ele>
        <time>2021-04-05T09:15:48.000Z</time>
      </trkpt>
      <trkpt lat="47.07941" lon="-1.79451">
        <ele>59</ele>
        <time>2021-04-05T09:15:50.000Z</time>
      </trkpt>
      <trkpt lat="47.07936" lon="-1.79432">
        <ele>59</ele>
        <time>2021-04-05T09:15:52.000Z</time>
      </trkpt>
      <trkpt lat="47.07932" lon="-1.79414">
        <ele>59</ele>
        <time>2021-04-05T09:15:54.000Z</time>
      </trkpt>
      <trkpt lat="47.07924" lon="-1.79385">
        <ele>58</ele>
        <time>2021-04-05T09:15:57.000Z</time>
      </trkpt>
      <trkpt lat="47.07919" lon="-1.79364">
        <ele>58</ele>
        <time>2021-04-05T09:15:59.000Z</time>
      </trkpt>
      <trkpt lat="47.07913" lon="-1.79344">
        <ele>57</ele>
        <time>2021-04-05T09:16:01.000Z</time>
      </trkpt>
      <trkpt lat="47.07905" lon="-1.79314">
        <ele>57</ele>
        <time>2021-04-05T09:16:04.000Z</time>
      </trkpt>
      <trkpt lat="47.07899" lon="-1.79294">
        <ele>57</ele>
        <time>2021-04-05T09:16:06.000Z</time>
      </trkpt>
      <trkpt lat="47.07894" lon="-1.79273">
        <ele>57</ele>
        <time>2021-04-05T09:16:08.000Z</time>
      </trkpt>
      <trkpt lat="47.07889" lon="-1.79252">
        <ele>56</ele>
        <time>2021-04-05T09:16:10.000Z</time>
      </trkpt>
      <trkpt lat="47.07884" lon="-1.7923">
        <ele>56</ele>
        <time>2021-04-05T09:16:12.000Z</time>
      </trkpt>
      <trkpt lat="47.07878" lon="-1.79208">
        <ele>55</ele>
        <time>2021-04-05T09:16:14.000Z</time>
      </trkpt>
      <trkpt lat="47.07871" lon="-1.79185">
        <ele>54</ele>
        <time>2021-04-05T09:16:16.000Z</time>
      </trkpt>
      <trkpt lat="47.07865" lon="-1.79162">
        <ele>53</ele>
        <time>2021-04-05T09:16:18.000Z</time>
      </trkpt>
      <trkpt lat="47.07859" lon="-1.79138">
        <ele>53</ele>
        <time>2021-04-05T09:16:20.000Z</time>
      </trkpt>
      <trkpt lat="47.07853" lon="-1.79115">
        <ele>52</ele>
        <time>2021-04-05T09:16:22.000Z</time>
      </trkpt>
      <trkpt lat="47.07847" lon="-1.79093">
        <ele>52</ele>
        <time>2021-04-05T09:16:24.000Z</time>
      </trkpt>
      <trkpt lat="47.07841" lon="-1.79071">
        <ele>52</ele>
        <time>2021-04-05T09:16:26.000Z</time>
      </trkpt>
      <trkpt lat="47.07835" lon="-1.7905">
        <ele>52</ele>
        <time>2021-04-05T09:16:28.000Z</time>
      </trkpt>
      <trkpt lat="47.0783" lon="-1.7903">
        <ele>52</ele>
        <time>2021-04-05T09:16:30.000Z</time>
      </trkpt>
      <trkpt lat="47.07825" lon="-1.7901">
        <ele>53</ele>
        <time>2021-04-05T09:16:32.000Z</time>
      </trkpt>
      <trkpt lat="47.0782" lon="-1.7899">
        <ele>52</ele>
        <time>2021-04-05T09:16:34.000Z</time>
      </trkpt>
      <trkpt lat="47.07814" lon="-1.7897">
        <ele>52</ele>
        <time>2021-04-05T09:16:36.000Z</time>
      </trkpt>
      <trkpt lat="47.0781" lon="-1.78952">
        <ele>52</ele>
        <time>2021-04-05T09:16:38.000Z</time>
      </trkpt>
      <trkpt lat="47.07805" lon="-1.78934">
        <ele>53</ele>
        <time>2021-04-05T09:16:40.000Z</time>
      </trkpt>
      <trkpt lat="47.07801" lon="-1.7892">
        <ele>55</ele>
        <time>2021-04-05T09:16:42.000Z</time>
      </trkpt>
      <trkpt lat="47.07797" lon="-1.78904">
        <ele>56</ele>
        <time>2021-04-05T09:16:44.000Z</time>
      </trkpt>
      <trkpt lat="47.07793" lon="-1.78889">
        <ele>57</ele>
        <time>2021-04-05T09:16:46.000Z</time>
      </trkpt>
      <trkpt lat="47.07789" lon="-1.78873">
        <ele>57</ele>
        <time>2021-04-05T09:16:48.000Z</time>
      </trkpt>
      <trkpt lat="47.07785" lon="-1.78857">
        <ele>58</ele>
        <time>2021-04-05T09:16:50.000Z</time>
      </trkpt>
      <trkpt lat="47.0778" lon="-1.7884">
        <ele>58</ele>
        <time>2021-04-05T09:16:52.000Z</time>
      </trkpt>
      <trkpt lat="47.07776" lon="-1.78823">
        <ele>57</ele>
        <time>2021-04-05T09:16:54.000Z</time>
      </trkpt>
      <trkpt lat="47.07772" lon="-1.78806">
        <ele>58</ele>
        <time>2021-04-05T09:16:56.000Z</time>
      </trkpt>
      <trkpt lat="47.07767" lon="-1.78789">
        <ele>58</ele>
        <time>2021-04-05T09:16:58.000Z</time>
      </trkpt>
      <trkpt lat="47.07761" lon="-1.78772">
        <ele>60</ele>
        <time>2021-04-05T09:17:00.000Z</time>
      </trkpt>
      <trkpt lat="47.07756" lon="-1.78755">
        <ele>60</ele>
        <time>2021-04-05T09:17:02.000Z</time>
      </trkpt>
      <trkpt lat="47.0775" lon="-1.7874">
        <ele>61</ele>
        <time>2021-04-05T09:17:04.000Z</time>
      </trkpt>
      <trkpt lat="47.07744" lon="-1.78726">
        <ele>62</ele>
        <time>2021-04-05T09:17:06.000Z</time>
      </trkpt>
      <trkpt lat="47.07737" lon="-1.78713">
        <ele>62</ele>
        <time>2021-04-05T09:17:08.000Z</time>
      </trkpt>
      <trkpt lat="47.07731" lon="-1.78699">
        <ele>62</ele>
        <time>2021-04-05T09:17:10.000Z</time>
      </trkpt>
      <trkpt lat="47.07724" lon="-1.78686">
        <ele>63</ele>
        <time>2021-04-05T09:17:12.000Z</time>
      </trkpt>
      <trkpt lat="47.07717" lon="-1.78672">
        <ele>63</ele>
        <time>2021-04-05T09:17:14.000Z</time>
      </trkpt>
      <trkpt lat="47.0771" lon="-1.78659">
        <ele>63</ele>
        <time>2021-04-05T09:17:16.000Z</time>
      </trkpt>
      <trkpt lat="47.07704" lon="-1.78645">
        <ele>64</ele>
        <time>2021-04-05T09:17:18.000Z</time>
      </trkpt>
      <trkpt lat="47.07698" lon="-1.78632">
        <ele>64</ele>
        <time>2021-04-05T09:17:20.000Z</time>
      </trkpt>
      <trkpt lat="47.07691" lon="-1.78619">
        <ele>65</ele>
        <time>2021-04-05T09:17:22.000Z</time>
      </trkpt>
      <trkpt lat="47.07685" lon="-1.78605">
        <ele>65</ele>
        <time>2021-04-05T09:17:24.000Z</time>
      </trkpt>
      <trkpt lat="47.07678" lon="-1.78591">
        <ele>66</ele>
        <time>2021-04-05T09:17:26.000Z</time>
      </trkpt>
      <trkpt lat="47.07671" lon="-1.78576">
        <ele>66</ele>
        <time>2021-04-05T09:17:28.000Z</time>
      </trkpt>
      <trkpt lat="47.07666" lon="-1.78561">
        <ele>67</ele>
        <time>2021-04-05T09:17:30.000Z</time>
      </trkpt>
      <trkpt lat="47.0766" lon="-1.78545">
        <ele>67</ele>
        <time>2021-04-05T09:17:32.000Z</time>
      </trkpt>
      <trkpt lat="47.07655" lon="-1.78528">
        <ele>67</ele>
        <time>2021-04-05T09:17:34.000Z</time>
      </trkpt>
      <trkpt lat="47.07651" lon="-1.78512">
        <ele>66</ele>
        <time>2021-04-05T09:17:36.000Z</time>
      </trkpt>
      <trkpt lat="47.07646" lon="-1.78495">
        <ele>66</ele>
        <time>2021-04-05T09:17:38.000Z</time>
      </trkpt>
      <trkpt lat="47.07641" lon="-1.78478">
        <ele>66</ele>
        <time>2021-04-05T09:17:40.000Z</time>
      </trkpt>
      <trkpt lat="47.07633" lon="-1.78453">
        <ele>66</ele>
        <time>2021-04-05T09:17:43.000Z</time>
      </trkpt>
      <trkpt lat="47.07627" lon="-1.78437">
        <ele>66</ele>
        <time>2021-04-05T09:17:45.000Z</time>
      </trkpt>
      <trkpt lat="47.07621" lon="-1.78422">
        <ele>66</ele>
        <time>2021-04-05T09:17:47.000Z</time>
      </trkpt>
      <trkpt lat="47.07614" lon="-1.78406">
        <ele>66</ele>
        <time>2021-04-05T09:17:49.000Z</time>
      </trkpt>
      <trkpt lat="47.07606" lon="-1.78391">
        <ele>66</ele>
        <time>2021-04-05T09:17:51.000Z</time>
      </trkpt>
      <trkpt lat="47.07598" lon="-1.78376">
        <ele>66</ele>
        <time>2021-04-05T09:17:53.000Z</time>
      </trkpt>
      <trkpt lat="47.07589" lon="-1.78361">
        <ele>66</ele>
        <time>2021-04-05T09:17:55.000Z</time>
      </trkpt>
      <trkpt lat="47.07581" lon="-1.78346">
        <ele>67</ele>
        <time>2021-04-05T09:17:57.000Z</time>
      </trkpt>
      <trkpt lat="47.07573" lon="-1.78332">
        <ele>67</ele>
        <time>2021-04-05T09:17:59.000Z</time>
      </trkpt>
      <trkpt lat="47.07565" lon="-1.78317">
        <ele>67</ele>
        <time>2021-04-05T09:18:01.000Z</time>
      </trkpt>
      <trkpt lat="47.07558" lon="-1.78304">
        <ele>67</ele>
        <time>2021-04-05T09:18:03.000Z</time>
      </trkpt>
      <trkpt lat="47.0755" lon="-1.78289">
        <ele>67</ele>
        <time>2021-04-05T09:18:05.000Z</time>
      </trkpt>
      <trkpt lat="47.07542" lon="-1.78275">
        <ele>68</ele>
        <time>2021-04-05T09:18:07.000Z</time>
      </trkpt>
      <trkpt lat="47.07535" lon="-1.78261">
        <ele>68</ele>
        <time>2021-04-05T09:18:09.000Z</time>
      </trkpt>
      <trkpt lat="47.07527" lon="-1.78246">
        <ele>69</ele>
        <time>2021-04-05T09:18:11.000Z</time>
      </trkpt>
      <trkpt lat="47.07519" lon="-1.78231">
        <ele>69</ele>
        <time>2021-04-05T09:18:13.000Z</time>
      </trkpt>
      <trkpt lat="47.07511" lon="-1.78218">
        <ele>69</ele>
        <time>2021-04-05T09:18:15.000Z</time>
      </trkpt>
      <trkpt lat="47.07503" lon="-1.78205">
        <ele>69</ele>
        <time>2021-04-05T09:18:17.000Z</time>
      </trkpt>
      <trkpt lat="47.07494" lon="-1.78192">
        <ele>69</ele>
        <time>2021-04-05T09:18:19.000Z</time>
      </trkpt>
      <trkpt lat="47.07485" lon="-1.7818">
        <ele>69</ele>
        <time>2021-04-05T09:18:21.000Z</time>
      </trkpt>
      <trkpt lat="47.07476" lon="-1.78168">
        <ele>69</ele>
        <time>2021-04-05T09:18:23.000Z</time>
      </trkpt>
      <trkpt lat="47.07467" lon="-1.78158">
        <ele>69</ele>
        <time>2021-04-05T09:18:25.000Z</time>
      </trkpt>
      <trkpt lat="47.07457" lon="-1.78149">
        <ele>69</ele>
        <time>2021-04-05T09:18:27.000Z</time>
      </trkpt>
      <trkpt lat="47.07448" lon="-1.78139">
        <ele>69</ele>
        <time>2021-04-05T09:18:29.000Z</time>
      </trkpt>
      <trkpt lat="47.07438" lon="-1.7813">
        <ele>68</ele>
        <time>2021-04-05T09:18:31.000Z</time>
      </trkpt>
      <trkpt lat="47.07427" lon="-1.78121">
        <ele>68</ele>
        <time>2021-04-05T09:18:33.000Z</time>
      </trkpt>
      <trkpt lat="47.07417" lon="-1.78112">
        <ele>69</ele>
        <time>2021-04-05T09:18:35.000Z</time>
      </trkpt>
      <trkpt lat="47.07407" lon="-1.78102">
        <ele>69</ele>
        <time>2021-04-05T09:18:37.000Z</time>
      </trkpt>
      <trkpt lat="47.07397" lon="-1.78091">
        <ele>69</ele>
        <time>2021-04-05T09:18:39.000Z</time>
      </trkpt>
      <trkpt lat="47.07388" lon="-1.78081">
        <ele>69</ele>
        <time>2021-04-05T09:18:41.000Z</time>
      </trkpt>
      <trkpt lat="47.07379" lon="-1.7807">
        <ele>69</ele>
        <time>2021-04-05T09:18:43.000Z</time>
      </trkpt>
      <trkpt lat="47.0737" lon="-1.78059">
        <ele>70</ele>
        <time>2021-04-05T09:18:45.000Z</time>
      </trkpt>
      <trkpt lat="47.07361" lon="-1.78048">
        <ele>70</ele>
        <time>2021-04-05T09:18:47.000Z</time>
      </trkpt>
      <trkpt lat="47.07352" lon="-1.78036">
        <ele>70</ele>
        <time>2021-04-05T09:18:49.000Z</time>
      </trkpt>
      <trkpt lat="47.07343" lon="-1.78025">
        <ele>70</ele>
        <time>2021-04-05T09:18:51.000Z</time>
      </trkpt>
      <trkpt lat="47.07334" lon="-1.78014">
        <ele>71</ele>
        <time>2021-04-05T09:18:53.000Z</time>
      </trkpt>
      <trkpt lat="47.07325" lon="-1.78003">
        <ele>71</ele>
        <time>2021-04-05T09:18:55.000Z</time>
      </trkpt>
      <trkpt lat="47.07316" lon="-1.77992">
        <ele>71</ele>
        <time>2021-04-05T09:18:57.000Z</time>
      </trkpt>
      <trkpt lat="47.07306" lon="-1.77981">
        <ele>70</ele>
        <time>2021-04-05T09:18:59.000Z</time>
      </trkpt>
      <trkpt lat="47.07296" lon="-1.77969">
        <ele>71</ele>
        <time>2021-04-05T09:19:01.000Z</time>
      </trkpt>
      <trkpt lat="47.07287" lon="-1.77959">
        <ele>71</ele>
        <time>2021-04-05T09:19:03.000Z</time>
      </trkpt>
      <trkpt lat="47.07277" lon="-1.77949">
        <ele>71</ele>
        <time>2021-04-05T09:19:05.000Z</time>
      </trkpt>
      <trkpt lat="47.07268" lon="-1.77937">
        <ele>72</ele>
        <time>2021-04-05T09:19:07.000Z</time>
      </trkpt>
      <trkpt lat="47.07259" lon="-1.77926">
        <ele>72</ele>
        <time>2021-04-05T09:19:09.000Z</time>
      </trkpt>
      <trkpt lat="47.07251" lon="-1.77914">
        <ele>72</ele>
        <time>2021-04-05T09:19:11.000Z</time>
      </trkpt>
      <trkpt lat="47.07242" lon="-1.77904">
        <ele>73</ele>
        <time>2021-04-05T09:19:13.000Z</time>
      </trkpt>
      <trkpt lat="47.07233" lon="-1.77894">
        <ele>74</ele>
        <time>2021-04-05T09:19:15.000Z</time>
      </trkpt>
      <trkpt lat="47.07225" lon="-1.77883">
        <ele>74</ele>
        <time>2021-04-05T09:19:17.000Z</time>
      </trkpt>
      <trkpt lat="47.07215" lon="-1.77872">
        <ele>74</ele>
        <time>2021-04-05T09:19:19.000Z</time>
      </trkpt>
      <trkpt lat="47.07206" lon="-1.77861">
        <ele>75</ele>
        <time>2021-04-05T09:19:21.000Z</time>
      </trkpt>
      <trkpt lat="47.07196" lon="-1.77849">
        <ele>74</ele>
        <time>2021-04-05T09:19:23.000Z</time>
      </trkpt>
      <trkpt lat="47.07186" lon="-1.77836">
        <ele>73</ele>
        <time>2021-04-05T09:19:25.000Z</time>
      </trkpt>
      <trkpt lat="47.07176" lon="-1.77824">
        <ele>74</ele>
        <time>2021-04-05T09:19:27.000Z</time>
      </trkpt>
      <trkpt lat="47.07165" lon="-1.77811">
        <ele>73</ele>
        <time>2021-04-05T09:19:29.000Z</time>
      </trkpt>
      <trkpt lat="47.07156" lon="-1.77798">
        <ele>73</ele>
        <time>2021-04-05T09:19:31.000Z</time>
      </trkpt>
      <trkpt lat="47.07146" lon="-1.77784">
        <ele>73</ele>
        <time>2021-04-05T09:19:33.000Z</time>
      </trkpt>
      <trkpt lat="47.07138" lon="-1.77771">
        <ele>73</ele>
        <time>2021-04-05T09:19:35.000Z</time>
      </trkpt>
      <trkpt lat="47.0713" lon="-1.77756">
        <ele>72</ele>
        <time>2021-04-05T09:19:37.000Z</time>
      </trkpt>
      <trkpt lat="47.07123" lon="-1.77742">
        <ele>72</ele>
        <time>2021-04-05T09:19:39.000Z</time>
      </trkpt>
      <trkpt lat="47.07117" lon="-1.77727">
        <ele>72</ele>
        <time>2021-04-05T09:19:41.000Z</time>
      </trkpt>
      <trkpt lat="47.07111" lon="-1.77712">
        <ele>72</ele>
        <time>2021-04-05T09:19:43.000Z</time>
      </trkpt>
      <trkpt lat="47.07105" lon="-1.77697">
        <ele>72</ele>
        <time>2021-04-05T09:19:45.000Z</time>
      </trkpt>
      <trkpt lat="47.07099" lon="-1.77681">
        <ele>72</ele>
        <time>2021-04-05T09:19:47.000Z</time>
      </trkpt>
      <trkpt lat="47.07093" lon="-1.77665">
        <ele>71</ele>
        <time>2021-04-05T09:19:49.000Z</time>
      </trkpt>
      <trkpt lat="47.07086" lon="-1.77648">
        <ele>71</ele>
        <time>2021-04-05T09:19:51.000Z</time>
      </trkpt>
      <trkpt lat="47.0708" lon="-1.77633">
        <ele>71</ele>
        <time>2021-04-05T09:19:53.000Z</time>
      </trkpt>
      <trkpt lat="47.07073" lon="-1.77616">
        <ele>71</ele>
        <time>2021-04-05T09:19:55.000Z</time>
      </trkpt>
      <trkpt lat="47.07067" lon="-1.776">
        <ele>71</ele>
        <time>2021-04-05T09:19:57.000Z</time>
      </trkpt>
      <trkpt lat="47.07061" lon="-1.77584">
        <ele>71</ele>
        <time>2021-04-05T09:19:59.000Z</time>
      </trkpt>
      <trkpt lat="47.07054" lon="-1.77568">
        <ele>71</ele>
        <time>2021-04-05T09:20:01.000Z</time>
      </trkpt>
      <trkpt lat="47.07049" lon="-1.77552">
        <ele>71</ele>
        <time>2021-04-05T09:20:03.000Z</time>
      </trkpt>
      <trkpt lat="47.07043" lon="-1.77537">
        <ele>72</ele>
        <time>2021-04-05T09:20:05.000Z</time>
      </trkpt>
      <trkpt lat="47.07037" lon="-1.77522">
        <ele>72</ele>
        <time>2021-04-05T09:20:07.000Z</time>
      </trkpt>
      <trkpt lat="47.07031" lon="-1.77506">
        <ele>73</ele>
        <time>2021-04-05T09:20:09.000Z</time>
      </trkpt>
      <trkpt lat="47.07024" lon="-1.77491">
        <ele>73</ele>
        <time>2021-04-05T09:20:11.000Z</time>
      </trkpt>
      <trkpt lat="47.07018" lon="-1.77475">
        <ele>73</ele>
        <time>2021-04-05T09:20:13.000Z</time>
      </trkpt>
      <trkpt lat="47.07011" lon="-1.7746">
        <ele>72</ele>
        <time>2021-04-05T09:20:15.000Z</time>
      </trkpt>
      <trkpt lat="47.07003" lon="-1.77445">
        <ele>72</ele>
        <time>2021-04-05T09:20:17.000Z</time>
      </trkpt>
      <trkpt lat="47.06995" lon="-1.77431">
        <ele>72</ele>
        <time>2021-04-05T09:20:19.000Z</time>
      </trkpt>
      <trkpt lat="47.06987" lon="-1.77418">
        <ele>72</ele>
        <time>2021-04-05T09:20:21.000Z</time>
      </trkpt>
      <trkpt lat="47.06978" lon="-1.77406">
        <ele>73</ele>
        <time>2021-04-05T09:20:23.000Z</time>
      </trkpt>
      <trkpt lat="47.0697" lon="-1.77394">
        <ele>73</ele>
        <time>2021-04-05T09:20:25.000Z</time>
      </trkpt>
      <trkpt lat="47.06962" lon="-1.77381">
        <ele>73</ele>
        <time>2021-04-05T09:20:27.000Z</time>
      </trkpt>
      <trkpt lat="47.06953" lon="-1.77368">
        <ele>73</ele>
        <time>2021-04-05T09:20:29.000Z</time>
      </trkpt>
      <trkpt lat="47.06944" lon="-1.77355">
        <ele>73</ele>
        <time>2021-04-05T09:20:31.000Z</time>
      </trkpt>
      <trkpt lat="47.06935" lon="-1.77343">
        <ele>74</ele>
        <time>2021-04-05T09:20:33.000Z</time>
      </trkpt>
      <trkpt lat="47.06926" lon="-1.77331">
        <ele>74</ele>
        <time>2021-04-05T09:20:35.000Z</time>
      </trkpt>
      <trkpt lat="47.06917" lon="-1.77318">
        <ele>74</ele>
        <time>2021-04-05T09:20:37.000Z</time>
      </trkpt>
      <trkpt lat="47.06908" lon="-1.77306">
        <ele>74</ele>
        <time>2021-04-05T09:20:39.000Z</time>
      </trkpt>
      <trkpt lat="47.06899" lon="-1.77293">
        <ele>74</ele>
        <time>2021-04-05T09:20:41.000Z</time>
      </trkpt>
      <trkpt lat="47.06891" lon="-1.77281">
        <ele>74</ele>
        <time>2021-04-05T09:20:43.000Z</time>
      </trkpt>
      <trkpt lat="47.06882" lon="-1.77269">
        <ele>75</ele>
        <time>2021-04-05T09:20:45.000Z</time>
      </trkpt>
      <trkpt lat="47.06873" lon="-1.77256">
        <ele>75</ele>
        <time>2021-04-05T09:20:47.000Z</time>
      </trkpt>
      <trkpt lat="47.06863" lon="-1.77244">
        <ele>75</ele>
        <time>2021-04-05T09:20:49.000Z</time>
      </trkpt>
      <trkpt lat="47.06855" lon="-1.77231">
        <ele>75</ele>
        <time>2021-04-05T09:20:51.000Z</time>
      </trkpt>
      <trkpt lat="47.06846" lon="-1.77219">
        <ele>75</ele>
        <time>2021-04-05T09:20:53.000Z</time>
      </trkpt>
      <trkpt lat="47.06837" lon="-1.77206">
        <ele>75</ele>
        <time>2021-04-05T09:20:55.000Z</time>
      </trkpt>
      <trkpt lat="47.06827" lon="-1.77192">
        <ele>75</ele>
        <time>2021-04-05T09:20:57.000Z</time>
      </trkpt>
      <trkpt lat="47.06818" lon="-1.7718">
        <ele>76</ele>
        <time>2021-04-05T09:20:59.000Z</time>
      </trkpt>
      <trkpt lat="47.06809" lon="-1.77167">
        <ele>76</ele>
        <time>2021-04-05T09:21:01.000Z</time>
      </trkpt>
      <trkpt lat="47.06801" lon="-1.77153">
        <ele>76</ele>
        <time>2021-04-05T09:21:03.000Z</time>
      </trkpt>
      <trkpt lat="47.06792" lon="-1.77139">
        <ele>76</ele>
        <time>2021-04-05T09:21:05.000Z</time>
      </trkpt>
      <trkpt lat="47.06783" lon="-1.77124">
        <ele>76</ele>
        <time>2021-04-05T09:21:07.000Z</time>
      </trkpt>
      <trkpt lat="47.06775" lon="-1.77109">
        <ele>76</ele>
        <time>2021-04-05T09:21:09.000Z</time>
      </trkpt>
      <trkpt lat="47.06767" lon="-1.77095">
        <ele>76</ele>
        <time>2021-04-05T09:21:11.000Z</time>
      </trkpt>
      <trkpt lat="47.06759" lon="-1.77081">
        <ele>75</ele>
        <time>2021-04-05T09:21:13.000Z</time>
      </trkpt>
      <trkpt lat="47.06751" lon="-1.77067">
        <ele>75</ele>
        <time>2021-04-05T09:21:15.000Z</time>
      </trkpt>
      <trkpt lat="47.06743" lon="-1.77055">
        <ele>75</ele>
        <time>2021-04-05T09:21:17.000Z</time>
      </trkpt>
      <trkpt lat="47.06735" lon="-1.77041">
        <ele>76</ele>
        <time>2021-04-05T09:21:19.000Z</time>
      </trkpt>
      <trkpt lat="47.06727" lon="-1.77028">
        <ele>76</ele>
        <time>2021-04-05T09:21:21.000Z</time>
      </trkpt>
      <trkpt lat="47.06719" lon="-1.77016">
        <ele>76</ele>
        <time>2021-04-05T09:21:23.000Z</time>
      </trkpt>
      <trkpt lat="47.06712" lon="-1.77002">
        <ele>77</ele>
        <time>2021-04-05T09:21:25.000Z</time>
      </trkpt>
      <trkpt lat="47.06704" lon="-1.76988">
        <ele>77</ele>
        <time>2021-04-05T09:21:27.000Z</time>
      </trkpt>
      <trkpt lat="47.06695" lon="-1.76975">
        <ele>77</ele>
        <time>2021-04-05T09:21:29.000Z</time>
      </trkpt>
      <trkpt lat="47.06688" lon="-1.76961">
        <ele>77</ele>
        <time>2021-04-05T09:21:31.000Z</time>
      </trkpt>
      <trkpt lat="47.0668" lon="-1.76949">
        <ele>77</ele>
        <time>2021-04-05T09:21:33.000Z</time>
      </trkpt>
      <trkpt lat="47.06673" lon="-1.76936">
        <ele>77</ele>
        <time>2021-04-05T09:21:35.000Z</time>
      </trkpt>
      <trkpt lat="47.06665" lon="-1.76921">
        <ele>78</ele>
        <time>2021-04-05T09:21:37.000Z</time>
      </trkpt>
      <trkpt lat="47.06656" lon="-1.76907">
        <ele>78</ele>
        <time>2021-04-05T09:21:39.000Z</time>
      </trkpt>
      <trkpt lat="47.06648" lon="-1.76894">
        <ele>78</ele>
        <time>2021-04-05T09:21:41.000Z</time>
      </trkpt>
      <trkpt lat="47.0664" lon="-1.76881">
        <ele>78</ele>
        <time>2021-04-05T09:21:43.000Z</time>
      </trkpt>
      <trkpt lat="47.06632" lon="-1.76867">
        <ele>78</ele>
        <time>2021-04-05T09:21:45.000Z</time>
      </trkpt>
      <trkpt lat="47.06623" lon="-1.76853">
        <ele>78</ele>
        <time>2021-04-05T09:21:47.000Z</time>
      </trkpt>
      <trkpt lat="47.06615" lon="-1.76839">
        <ele>78</ele>
        <time>2021-04-05T09:21:49.000Z</time>
      </trkpt>
      <trkpt lat="47.06608" lon="-1.76827">
        <ele>78</ele>
        <time>2021-04-05T09:21:51.000Z</time>
      </trkpt>
      <trkpt lat="47.06599" lon="-1.76812">
        <ele>78</ele>
        <time>2021-04-05T09:21:53.000Z</time>
      </trkpt>
      <trkpt lat="47.06591" lon="-1.76799">
        <ele>78</ele>
        <time>2021-04-05T09:21:55.000Z</time>
      </trkpt>
      <trkpt lat="47.06583" lon="-1.76785">
        <ele>79</ele>
        <time>2021-04-05T09:21:57.000Z</time>
      </trkpt>
      <trkpt lat="47.06574" lon="-1.76772">
        <ele>79</ele>
        <time>2021-04-05T09:21:59.000Z</time>
      </trkpt>
      <trkpt lat="47.06567" lon="-1.76759">
        <ele>80</ele>
        <time>2021-04-05T09:22:01.000Z</time>
      </trkpt>
      <trkpt lat="47.06559" lon="-1.76745">
        <ele>80</ele>
        <time>2021-04-05T09:22:03.000Z</time>
      </trkpt>
      <trkpt lat="47.06551" lon="-1.76732">
        <ele>80</ele>
        <time>2021-04-05T09:22:05.000Z</time>
      </trkpt>
      <trkpt lat="47.06544" lon="-1.76719">
        <ele>80</ele>
        <time>2021-04-05T09:22:07.000Z</time>
      </trkpt>
      <trkpt lat="47.06536" lon="-1.76706">
        <ele>80</ele>
        <time>2021-04-05T09:22:09.000Z</time>
      </trkpt>
      <trkpt lat="47.06528" lon="-1.76693">
        <ele>80</ele>
        <time>2021-04-05T09:22:11.000Z</time>
      </trkpt>
      <trkpt lat="47.0652" lon="-1.7668">
        <ele>80</ele>
        <time>2021-04-05T09:22:13.000Z</time>
      </trkpt>
      <trkpt lat="47.06513" lon="-1.76666">
        <ele>80</ele>
        <time>2021-04-05T09:22:15.000Z</time>
      </trkpt>
      <trkpt lat="47.06505" lon="-1.76652">
        <ele>80</ele>
        <time>2021-04-05T09:22:17.000Z</time>
      </trkpt>
      <trkpt lat="47.06496" lon="-1.76638">
        <ele>79</ele>
        <time>2021-04-05T09:22:19.000Z</time>
      </trkpt>
      <trkpt lat="47.06487" lon="-1.76623">
        <ele>79</ele>
        <time>2021-04-05T09:22:21.000Z</time>
      </trkpt>
      <trkpt lat="47.06479" lon="-1.76608">
        <ele>79</ele>
        <time>2021-04-05T09:22:23.000Z</time>
      </trkpt>
      <trkpt lat="47.06471" lon="-1.76591">
        <ele>79</ele>
        <time>2021-04-05T09:22:25.000Z</time>
      </trkpt>
      <trkpt lat="47.06464" lon="-1.76574">
        <ele>79</ele>
        <time>2021-04-05T09:22:27.000Z</time>
      </trkpt>
      <trkpt lat="47.06456" lon="-1.76557">
        <ele>79</ele>
        <time>2021-04-05T09:22:29.000Z</time>
      </trkpt>
      <trkpt lat="47.06449" lon="-1.7654">
        <ele>78</ele>
        <time>2021-04-05T09:22:31.000Z</time>
      </trkpt>
      <trkpt lat="47.06443" lon="-1.76523">
        <ele>78</ele>
        <time>2021-04-05T09:22:33.000Z</time>
      </trkpt>
      <trkpt lat="47.06435" lon="-1.76504">
        <ele>78</ele>
        <time>2021-04-05T09:22:35.000Z</time>
      </trkpt>
      <trkpt lat="47.06428" lon="-1.76487">
        <ele>78</ele>
        <time>2021-04-05T09:22:37.000Z</time>
      </trkpt>
      <trkpt lat="47.06421" lon="-1.76468">
        <ele>78</ele>
        <time>2021-04-05T09:22:39.000Z</time>
      </trkpt>
      <trkpt lat="47.06413" lon="-1.76452">
        <ele>78</ele>
        <time>2021-04-05T09:22:41.000Z</time>
      </trkpt>
      <trkpt lat="47.06404" lon="-1.76436">
        <ele>77</ele>
        <time>2021-04-05T09:22:43.000Z</time>
      </trkpt>
      <trkpt lat="47.06394" lon="-1.76422">
        <ele>76</ele>
        <time>2021-04-05T09:22:45.000Z</time>
      </trkpt>
      <trkpt lat="47.06383" lon="-1.76412">
        <ele>76</ele>
        <time>2021-04-05T09:22:47.000Z</time>
      </trkpt>
      <trkpt lat="47.06372" lon="-1.76402">
        <ele>76</ele>
        <time>2021-04-05T09:22:49.000Z</time>
      </trkpt>
      <trkpt lat="47.06359" lon="-1.76395">
        <ele>76</ele>
        <time>2021-04-05T09:22:51.000Z</time>
      </trkpt>
      <trkpt lat="47.06345" lon="-1.76389">
        <ele>76</ele>
        <time>2021-04-05T09:22:53.000Z</time>
      </trkpt>
      <trkpt lat="47.06333" lon="-1.76385">
        <ele>76</ele>
        <time>2021-04-05T09:22:55.000Z</time>
      </trkpt>
      <trkpt lat="47.06321" lon="-1.76378">
        <ele>77</ele>
        <time>2021-04-05T09:22:57.000Z</time>
      </trkpt>
      <trkpt lat="47.06311" lon="-1.76368">
        <ele>77</ele>
        <time>2021-04-05T09:22:59.000Z</time>
      </trkpt>
      <trkpt lat="47.06305" lon="-1.76355">
        <ele>77</ele>
        <time>2021-04-05T09:23:01.000Z</time>
      </trkpt>
      <trkpt lat="47.063" lon="-1.76341">
        <ele>77</ele>
        <time>2021-04-05T09:23:08.000Z</time>
      </trkpt>
      <trkpt lat="47.06296" lon="-1.76322">
        <ele>77</ele>
        <time>2021-04-05T09:23:11.000Z</time>
      </trkpt>
      <trkpt lat="47.06296" lon="-1.76305">
        <ele>77</ele>
        <time>2021-04-05T09:23:13.000Z</time>
      </trkpt>
      <trkpt lat="47.06299" lon="-1.76286">
        <ele>76</ele>
        <time>2021-04-05T09:23:15.000Z</time>
      </trkpt>
      <trkpt lat="47.06302" lon="-1.76266">
        <ele>76</ele>
        <time>2021-04-05T09:23:17.000Z</time>
      </trkpt>
      <trkpt lat="47.06302" lon="-1.76245">
        <ele>76</ele>
        <time>2021-04-05T09:23:19.000Z</time>
      </trkpt>
      <trkpt lat="47.06301" lon="-1.76225">
        <ele>76</ele>
        <time>2021-04-05T09:23:21.000Z</time>
      </trkpt>
      <trkpt lat="47.06297" lon="-1.76205">
        <ele>76</ele>
        <time>2021-04-05T09:23:23.000Z</time>
      </trkpt>
      <trkpt lat="47.06292" lon="-1.76186">
        <ele>76</ele>
        <time>2021-04-05T09:23:25.000Z</time>
      </trkpt>
      <trkpt lat="47.06285" lon="-1.76169">
        <ele>77</ele>
        <time>2021-04-05T09:23:27.000Z</time>
      </trkpt>
      <trkpt lat="47.06276" lon="-1.76153">
        <ele>77</ele>
        <time>2021-04-05T09:23:29.000Z</time>
      </trkpt>
      <trkpt lat="47.06267" lon="-1.76139">
        <ele>77</ele>
        <time>2021-04-05T09:23:31.000Z</time>
      </trkpt>
      <trkpt lat="47.06258" lon="-1.76126">
        <ele>78</ele>
        <time>2021-04-05T09:23:33.000Z</time>
      </trkpt>
      <trkpt lat="47.06247" lon="-1.76115">
        <ele>79</ele>
        <time>2021-04-05T09:23:35.000Z</time>
      </trkpt>
      <trkpt lat="47.06238" lon="-1.76104">
        <ele>79</ele>
        <time>2021-04-05T09:23:37.000Z</time>
      </trkpt>
      <trkpt lat="47.06227" lon="-1.76091">
        <ele>80</ele>
        <time>2021-04-05T09:23:39.000Z</time>
      </trkpt>
      <trkpt lat="47.06216" lon="-1.76078">
        <ele>80</ele>
        <time>2021-04-05T09:23:41.000Z</time>
      </trkpt>
      <trkpt lat="47.06205" lon="-1.76065">
        <ele>79</ele>
        <time>2021-04-05T09:23:43.000Z</time>
      </trkpt>
      <trkpt lat="47.06193" lon="-1.76052">
        <ele>79</ele>
        <time>2021-04-05T09:23:45.000Z</time>
      </trkpt>
      <trkpt lat="47.06181" lon="-1.76037">
        <ele>79</ele>
        <time>2021-04-05T09:23:47.000Z</time>
      </trkpt>
      <trkpt lat="47.06169" lon="-1.76022">
        <ele>78</ele>
        <time>2021-04-05T09:23:49.000Z</time>
      </trkpt>
      <trkpt lat="47.06156" lon="-1.76007">
        <ele>77</ele>
        <time>2021-04-05T09:23:51.000Z</time>
      </trkpt>
      <trkpt lat="47.06143" lon="-1.75992">
        <ele>76</ele>
        <time>2021-04-05T09:23:53.000Z</time>
      </trkpt>
      <trkpt lat="47.06131" lon="-1.75978">
        <ele>76</ele>
        <time>2021-04-05T09:23:55.000Z</time>
      </trkpt>
      <trkpt lat="47.06119" lon="-1.75964">
        <ele>75</ele>
        <time>2021-04-05T09:23:57.000Z</time>
      </trkpt>
      <trkpt lat="47.06106" lon="-1.75949">
        <ele>75</ele>
        <time>2021-04-05T09:23:59.000Z</time>
      </trkpt>
      <trkpt lat="47.06094" lon="-1.75934">
        <ele>75</ele>
        <time>2021-04-05T09:24:01.000Z</time>
      </trkpt>
      <trkpt lat="47.06082" lon="-1.7592">
        <ele>75</ele>
        <time>2021-04-05T09:24:03.000Z</time>
      </trkpt>
      <trkpt lat="47.0607" lon="-1.75905">
        <ele>75</ele>
        <time>2021-04-05T09:24:05.000Z</time>
      </trkpt>
      <trkpt lat="47.06058" lon="-1.75892">
        <ele>75</ele>
        <time>2021-04-05T09:24:07.000Z</time>
      </trkpt>
      <trkpt lat="47.06047" lon="-1.75878">
        <ele>74</ele>
        <time>2021-04-05T09:24:09.000Z</time>
      </trkpt>
      <trkpt lat="47.06036" lon="-1.75864">
        <ele>75</ele>
        <time>2021-04-05T09:24:11.000Z</time>
      </trkpt>
      <trkpt lat="47.06024" lon="-1.7585">
        <ele>75</ele>
        <time>2021-04-05T09:24:13.000Z</time>
      </trkpt>
      <trkpt lat="47.06013" lon="-1.75836">
        <ele>75</ele>
        <time>2021-04-05T09:24:15.000Z</time>
      </trkpt>
      <trkpt lat="47.06001" lon="-1.75822">
        <ele>75</ele>
        <time>2021-04-05T09:24:17.000Z</time>
      </trkpt>
      <trkpt lat="47.05988" lon="-1.75807">
        <ele>74</ele>
        <time>2021-04-05T09:24:19.000Z</time>
      </trkpt>
      <trkpt lat="47.05976" lon="-1.75791">
        <ele>74</ele>
        <time>2021-04-05T09:24:21.000Z</time>
      </trkpt>
      <trkpt lat="47.05965" lon="-1.75774">
        <ele>74</ele>
        <time>2021-04-05T09:24:23.000Z</time>
      </trkpt>
      <trkpt lat="47.05955" lon="-1.75758">
        <ele>73</ele>
        <time>2021-04-05T09:24:25.000Z</time>
      </trkpt>
      <trkpt lat="47.05946" lon="-1.75739">
        <ele>73</ele>
        <time>2021-04-05T09:24:27.000Z</time>
      </trkpt>
      <trkpt lat="47.05938" lon="-1.7572">
        <ele>73</ele>
        <time>2021-04-05T09:24:29.000Z</time>
      </trkpt>
      <trkpt lat="47.05931" lon="-1.757">
        <ele>72</ele>
        <time>2021-04-05T09:24:31.000Z</time>
      </trkpt>
      <trkpt lat="47.05924" lon="-1.7568">
        <ele>71</ele>
        <time>2021-04-05T09:24:33.000Z</time>
      </trkpt>
      <trkpt lat="47.05917" lon="-1.7566">
        <ele>71</ele>
        <time>2021-04-05T09:24:35.000Z</time>
      </trkpt>
      <trkpt lat="47.0591" lon="-1.75639">
        <ele>71</ele>
        <time>2021-04-05T09:24:37.000Z</time>
      </trkpt>
      <trkpt lat="47.05903" lon="-1.7562">
        <ele>70</ele>
        <time>2021-04-05T09:24:39.000Z</time>
      </trkpt>
      <trkpt lat="47.05897" lon="-1.75601">
        <ele>70</ele>
        <time>2021-04-05T09:24:41.000Z</time>
      </trkpt>
      <trkpt lat="47.05891" lon="-1.75583">
        <ele>70</ele>
        <time>2021-04-05T09:24:43.000Z</time>
      </trkpt>
      <trkpt lat="47.05884" lon="-1.75564">
        <ele>70</ele>
        <time>2021-04-05T09:24:45.000Z</time>
      </trkpt>
      <trkpt lat="47.05878" lon="-1.75545">
        <ele>70</ele>
        <time>2021-04-05T09:24:47.000Z</time>
      </trkpt>
      <trkpt lat="47.05871" lon="-1.75526">
        <ele>70</ele>
        <time>2021-04-05T09:24:49.000Z</time>
      </trkpt>
      <trkpt lat="47.05865" lon="-1.75507">
        <ele>69</ele>
        <time>2021-04-05T09:24:51.000Z</time>
      </trkpt>
      <trkpt lat="47.05858" lon="-1.75489">
        <ele>69</ele>
        <time>2021-04-05T09:24:53.000Z</time>
      </trkpt>
      <trkpt lat="47.05852" lon="-1.7547">
        <ele>68</ele>
        <time>2021-04-05T09:24:55.000Z</time>
      </trkpt>
      <trkpt lat="47.05845" lon="-1.75452">
        <ele>69</ele>
        <time>2021-04-05T09:24:57.000Z</time>
      </trkpt>
      <trkpt lat="47.05839" lon="-1.75434">
        <ele>69</ele>
        <time>2021-04-05T09:24:59.000Z</time>
      </trkpt>
      <trkpt lat="47.05832" lon="-1.75417">
        <ele>69</ele>
        <time>2021-04-05T09:25:01.000Z</time>
      </trkpt>
      <trkpt lat="47.05825" lon="-1.75399">
        <ele>69</ele>
        <time>2021-04-05T09:25:03.000Z</time>
      </trkpt>
      <trkpt lat="47.05818" lon="-1.75381">
        <ele>69</ele>
        <time>2021-04-05T09:25:05.000Z</time>
      </trkpt>
      <trkpt lat="47.0581" lon="-1.75363">
        <ele>68</ele>
        <time>2021-04-05T09:25:07.000Z</time>
      </trkpt>
      <trkpt lat="47.05803" lon="-1.75345">
        <ele>68</ele>
        <time>2021-04-05T09:25:09.000Z</time>
      </trkpt>
      <trkpt lat="47.05795" lon="-1.75327">
        <ele>68</ele>
        <time>2021-04-05T09:25:11.000Z</time>
      </trkpt>
      <trkpt lat="47.05787" lon="-1.7531">
        <ele>68</ele>
        <time>2021-04-05T09:25:13.000Z</time>
      </trkpt>
      <trkpt lat="47.05778" lon="-1.75293">
        <ele>69</ele>
        <time>2021-04-05T09:25:15.000Z</time>
      </trkpt>
      <trkpt lat="47.0577" lon="-1.75275">
        <ele>69</ele>
        <time>2021-04-05T09:25:17.000Z</time>
      </trkpt>
      <trkpt lat="47.05763" lon="-1.75258">
        <ele>69</ele>
        <time>2021-04-05T09:25:19.000Z</time>
      </trkpt>
      <trkpt lat="47.05754" lon="-1.7524">
        <ele>69</ele>
        <time>2021-04-05T09:25:21.000Z</time>
      </trkpt>
      <trkpt lat="47.05747" lon="-1.75222">
        <ele>69</ele>
        <time>2021-04-05T09:25:23.000Z</time>
      </trkpt>
      <trkpt lat="47.05738" lon="-1.75204">
        <ele>68</ele>
        <time>2021-04-05T09:25:25.000Z</time>
      </trkpt>
      <trkpt lat="47.0573" lon="-1.75185">
        <ele>68</ele>
        <time>2021-04-05T09:25:27.000Z</time>
      </trkpt>
      <trkpt lat="47.05722" lon="-1.75166">
        <ele>68</ele>
        <time>2021-04-05T09:25:29.000Z</time>
      </trkpt>
      <trkpt lat="47.05713" lon="-1.75147">
        <ele>67</ele>
        <time>2021-04-05T09:25:31.000Z</time>
      </trkpt>
      <trkpt lat="47.05704" lon="-1.75127">
        <ele>67</ele>
        <time>2021-04-05T09:25:33.000Z</time>
      </trkpt>
      <trkpt lat="47.05694" lon="-1.75106">
        <ele>66</ele>
        <time>2021-04-05T09:25:35.000Z</time>
      </trkpt>
      <trkpt lat="47.05682" lon="-1.75085">
        <ele>65</ele>
        <time>2021-04-05T09:25:37.000Z</time>
      </trkpt>
      <trkpt lat="47.05676" lon="-1.75075">
        <ele>65</ele>
        <time>2021-04-05T09:25:38.000Z</time>
      </trkpt>
      <trkpt lat="47.05669" lon="-1.75067">
        <ele>64</ele>
        <time>2021-04-05T09:25:39.000Z</time>
      </trkpt>
      <trkpt lat="47.05662" lon="-1.75058">
        <ele>64</ele>
        <time>2021-04-05T09:25:40.000Z</time>
      </trkpt>
      <trkpt lat="47.05654" lon="-1.7505">
        <ele>64</ele>
        <time>2021-04-05T09:25:41.000Z</time>
      </trkpt>
      <trkpt lat="47.05647" lon="-1.75042">
        <ele>63</ele>
        <time>2021-04-05T09:25:42.000Z</time>
      </trkpt>
      <trkpt lat="47.05639" lon="-1.75034">
        <ele>62</ele>
        <time>2021-04-05T09:25:43.000Z</time>
      </trkpt>
      <trkpt lat="47.05631" lon="-1.75026">
        <ele>62</ele>
        <time>2021-04-05T09:25:44.000Z</time>
      </trkpt>
      <trkpt lat="47.05624" lon="-1.75018">
        <ele>62</ele>
        <time>2021-04-05T09:25:45.000Z</time>
      </trkpt>
      <trkpt lat="47.05616" lon="-1.75009">
        <ele>61</ele>
        <time>2021-04-05T09:25:46.000Z</time>
      </trkpt>
      <trkpt lat="47.05608" lon="-1.75001">
        <ele>60</ele>
        <time>2021-04-05T09:25:47.000Z</time>
      </trkpt>
      <trkpt lat="47.05599" lon="-1.74993">
        <ele>60</ele>
        <time>2021-04-05T09:25:48.000Z</time>
      </trkpt>
      <trkpt lat="47.05591" lon="-1.74985">
        <ele>59</ele>
        <time>2021-04-05T09:25:49.000Z</time>
      </trkpt>
      <trkpt lat="47.05583" lon="-1.74977">
        <ele>59</ele>
        <time>2021-04-05T09:25:50.000Z</time>
      </trkpt>
      <trkpt lat="47.05575" lon="-1.74969">
        <ele>58</ele>
        <time>2021-04-05T09:25:51.000Z</time>
      </trkpt>
      <trkpt lat="47.05566" lon="-1.74961">
        <ele>58</ele>
        <time>2021-04-05T09:25:52.000Z</time>
      </trkpt>
      <trkpt lat="47.05558" lon="-1.74952">
        <ele>58</ele>
        <time>2021-04-05T09:25:53.000Z</time>
      </trkpt>
      <trkpt lat="47.0555" lon="-1.74944">
        <ele>58</ele>
        <time>2021-04-05T09:25:54.000Z</time>
      </trkpt>
      <trkpt lat="47.05542" lon="-1.74935">
        <ele>58</ele>
        <time>2021-04-05T09:25:55.000Z</time>
      </trkpt>
      <trkpt lat="47.05534" lon="-1.74928">
        <ele>58</ele>
        <time>2021-04-05T09:25:56.000Z</time>
      </trkpt>
      <trkpt lat="47.05525" lon="-1.7492">
        <ele>58</ele>
        <time>2021-04-05T09:25:57.000Z</time>
      </trkpt>
      <trkpt lat="47.05517" lon="-1.74912">
        <ele>59</ele>
        <time>2021-04-05T09:25:58.000Z</time>
      </trkpt>
      <trkpt lat="47.05508" lon="-1.74905">
        <ele>59</ele>
        <time>2021-04-05T09:25:59.000Z</time>
      </trkpt>
      <trkpt lat="47.055" lon="-1.74897">
        <ele>59</ele>
        <time>2021-04-05T09:26:00.000Z</time>
      </trkpt>
      <trkpt lat="47.05492" lon="-1.74889">
        <ele>59</ele>
        <time>2021-04-05T09:26:01.000Z</time>
      </trkpt>
      <trkpt lat="47.05484" lon="-1.74882">
        <ele>58</ele>
        <time>2021-04-05T09:26:02.000Z</time>
      </trkpt>
      <trkpt lat="47.05469" lon="-1.74868">
        <ele>58</ele>
        <time>2021-04-05T09:26:04.000Z</time>
      </trkpt>
      <trkpt lat="47.05461" lon="-1.74861">
        <ele>57</ele>
        <time>2021-04-05T09:26:05.000Z</time>
      </trkpt>
      <trkpt lat="47.05454" lon="-1.74854">
        <ele>57</ele>
        <time>2021-04-05T09:26:06.000Z</time>
      </trkpt>
      <trkpt lat="47.05437" lon="-1.74842">
        <ele>57</ele>
        <time>2021-04-05T09:26:08.000Z</time>
      </trkpt>
      <trkpt lat="47.05423" lon="-1.7483">
        <ele>58</ele>
        <time>2021-04-05T09:26:10.000Z</time>
      </trkpt>
      <trkpt lat="47.05408" lon="-1.74819">
        <ele>58</ele>
        <time>2021-04-05T09:26:12.000Z</time>
      </trkpt>
      <trkpt lat="47.05394" lon="-1.74807">
        <ele>58</ele>
        <time>2021-04-05T09:26:14.000Z</time>
      </trkpt>
      <trkpt lat="47.0538" lon="-1.74796">
        <ele>58</ele>
        <time>2021-04-05T09:26:16.000Z</time>
      </trkpt>
      <trkpt lat="47.05367" lon="-1.74783">
        <ele>57</ele>
        <time>2021-04-05T09:26:18.000Z</time>
      </trkpt>
      <trkpt lat="47.05355" lon="-1.74769">
        <ele>57</ele>
        <time>2021-04-05T09:26:20.000Z</time>
      </trkpt>
      <trkpt lat="47.05345" lon="-1.74753">
        <ele>57</ele>
        <time>2021-04-05T09:26:22.000Z</time>
      </trkpt>
      <trkpt lat="47.05336" lon="-1.74736">
        <ele>57</ele>
        <time>2021-04-05T09:26:24.000Z</time>
      </trkpt>
      <trkpt lat="47.05328" lon="-1.74719">
        <ele>57</ele>
        <time>2021-04-05T09:26:26.000Z</time>
      </trkpt>
      <trkpt lat="47.05319" lon="-1.74703">
        <ele>57</ele>
        <time>2021-04-05T09:26:28.000Z</time>
      </trkpt>
      <trkpt lat="47.05311" lon="-1.74687">
        <ele>58</ele>
        <time>2021-04-05T09:26:30.000Z</time>
      </trkpt>
      <trkpt lat="47.05304" lon="-1.74672">
        <ele>57</ele>
        <time>2021-04-05T09:26:32.000Z</time>
      </trkpt>
      <trkpt lat="47.05296" lon="-1.74656">
        <ele>58</ele>
        <time>2021-04-05T09:26:34.000Z</time>
      </trkpt>
      <trkpt lat="47.05288" lon="-1.7464">
        <ele>57</ele>
        <time>2021-04-05T09:26:36.000Z</time>
      </trkpt>
      <trkpt lat="47.05281" lon="-1.74625">
        <ele>57</ele>
        <time>2021-04-05T09:26:38.000Z</time>
      </trkpt>
      <trkpt lat="47.05275" lon="-1.74609">
        <ele>57</ele>
        <time>2021-04-05T09:26:40.000Z</time>
      </trkpt>
      <trkpt lat="47.05268" lon="-1.74594">
        <ele>57</ele>
        <time>2021-04-05T09:26:42.000Z</time>
      </trkpt>
      <trkpt lat="47.05261" lon="-1.74579">
        <ele>57</ele>
        <time>2021-04-05T09:26:44.000Z</time>
      </trkpt>
      <trkpt lat="47.05254" lon="-1.74565">
        <ele>58</ele>
        <time>2021-04-05T09:26:46.000Z</time>
      </trkpt>
      <trkpt lat="47.05248" lon="-1.7455">
        <ele>58</ele>
        <time>2021-04-05T09:26:48.000Z</time>
      </trkpt>
      <trkpt lat="47.05242" lon="-1.74536">
        <ele>58</ele>
        <time>2021-04-05T09:26:50.000Z</time>
      </trkpt>
      <trkpt lat="47.05238" lon="-1.7452">
        <ele>58</ele>
        <time>2021-04-05T09:26:52.000Z</time>
      </trkpt>
      <trkpt lat="47.05233" lon="-1.74506">
        <ele>59</ele>
        <time>2021-04-05T09:26:54.000Z</time>
      </trkpt>
      <trkpt lat="47.0523" lon="-1.74491">
        <ele>59</ele>
        <time>2021-04-05T09:26:56.000Z</time>
      </trkpt>
      <trkpt lat="47.05226" lon="-1.74476">
        <ele>59</ele>
        <time>2021-04-05T09:26:58.000Z</time>
      </trkpt>
      <trkpt lat="47.05224" lon="-1.7446">
        <ele>58</ele>
        <time>2021-04-05T09:27:00.000Z</time>
      </trkpt>
      <trkpt lat="47.05222" lon="-1.74445">
        <ele>58</ele>
        <time>2021-04-05T09:27:02.000Z</time>
      </trkpt>
      <trkpt lat="47.05222" lon="-1.74428">
        <ele>58</ele>
        <time>2021-04-05T09:27:04.000Z</time>
      </trkpt>
      <trkpt lat="47.05224" lon="-1.74412">
        <ele>58</ele>
        <time>2021-04-05T09:27:06.000Z</time>
      </trkpt>
      <trkpt lat="47.05224" lon="-1.74397">
        <ele>58</ele>
        <time>2021-04-05T09:27:08.000Z</time>
      </trkpt>
      <trkpt lat="47.05224" lon="-1.74383">
        <ele>59</ele>
        <time>2021-04-05T09:27:10.000Z</time>
      </trkpt>
      <trkpt lat="47.05225" lon="-1.74368">
        <ele>59</ele>
        <time>2021-04-05T09:27:12.000Z</time>
      </trkpt>
      <trkpt lat="47.05225" lon="-1.74354">
        <ele>59</ele>
        <time>2021-04-05T09:27:14.000Z</time>
      </trkpt>
      <trkpt lat="47.05226" lon="-1.74339">
        <ele>60</ele>
        <time>2021-04-05T09:27:16.000Z</time>
      </trkpt>
      <trkpt lat="47.05226" lon="-1.74325">
        <ele>60</ele>
        <time>2021-04-05T09:27:18.000Z</time>
      </trkpt>
      <trkpt lat="47.05227" lon="-1.74311">
        <ele>60</ele>
        <time>2021-04-05T09:27:20.000Z</time>
      </trkpt>
      <trkpt lat="47.05227" lon="-1.74296">
        <ele>60</ele>
        <time>2021-04-05T09:27:22.000Z</time>
      </trkpt>
      <trkpt lat="47.05227" lon="-1.74282">
        <ele>60</ele>
        <time>2021-04-05T09:27:24.000Z</time>
      </trkpt>
      <trkpt lat="47.05227" lon="-1.74268">
        <ele>60</ele>
        <time>2021-04-05T09:27:26.000Z</time>
      </trkpt>
      <trkpt lat="47.05227" lon="-1.74254">
        <ele>61</ele>
        <time>2021-04-05T09:27:28.000Z</time>
      </trkpt>
      <trkpt lat="47.05227" lon="-1.7424">
        <ele>61</ele>
        <time>2021-04-05T09:27:30.000Z</time>
      </trkpt>
      <trkpt lat="47.05227" lon="-1.74226">
        <ele>62</ele>
        <time>2021-04-05T09:27:32.000Z</time>
      </trkpt>
      <trkpt lat="47.05227" lon="-1.74211">
        <ele>62</ele>
        <time>2021-04-05T09:27:34.000Z</time>
      </trkpt>
      <trkpt lat="47.05227" lon="-1.74197">
        <ele>63</ele>
        <time>2021-04-05T09:27:36.000Z</time>
      </trkpt>
      <trkpt lat="47.05227" lon="-1.74181">
        <ele>63</ele>
        <time>2021-04-05T09:27:38.000Z</time>
      </trkpt>
      <trkpt lat="47.05227" lon="-1.74166">
        <ele>63</ele>
        <time>2021-04-05T09:27:40.000Z</time>
      </trkpt>
      <trkpt lat="47.05227" lon="-1.74151">
        <ele>64</ele>
        <time>2021-04-05T09:27:42.000Z</time>
      </trkpt>
      <trkpt lat="47.05227" lon="-1.74135">
        <ele>64</ele>
        <time>2021-04-05T09:27:44.000Z</time>
      </trkpt>
      <trkpt lat="47.05228" lon="-1.74119">
        <ele>64</ele>
        <time>2021-04-05T09:27:46.000Z</time>
      </trkpt>
      <trkpt lat="47.05228" lon="-1.74102">
        <ele>64</ele>
        <time>2021-04-05T09:27:48.000Z</time>
      </trkpt>
      <trkpt lat="47.05229" lon="-1.74086">
        <ele>64</ele>
        <time>2021-04-05T09:27:50.000Z</time>
      </trkpt>
      <trkpt lat="47.05229" lon="-1.74069">
        <ele>64</ele>
        <time>2021-04-05T09:27:52.000Z</time>
      </trkpt>
      <trkpt lat="47.0523" lon="-1.74053">
        <ele>65</ele>
        <time>2021-04-05T09:27:54.000Z</time>
      </trkpt>
      <trkpt lat="47.05231" lon="-1.74037">
        <ele>65</ele>
        <time>2021-04-05T09:27:56.000Z</time>
      </trkpt>
      <trkpt lat="47.05231" lon="-1.74021">
        <ele>65</ele>
        <time>2021-04-05T09:27:58.000Z</time>
      </trkpt>
      <trkpt lat="47.05232" lon="-1.74005">
        <ele>66</ele>
        <time>2021-04-05T09:28:00.000Z</time>
      </trkpt>
      <trkpt lat="47.05232" lon="-1.73989">
        <ele>66</ele>
        <time>2021-04-05T09:28:02.000Z</time>
      </trkpt>
      <trkpt lat="47.05232" lon="-1.73973">
        <ele>66</ele>
        <time>2021-04-05T09:28:04.000Z</time>
      </trkpt>
      <trkpt lat="47.05232" lon="-1.73957">
        <ele>66</ele>
        <time>2021-04-05T09:28:06.000Z</time>
      </trkpt>
      <trkpt lat="47.05232" lon="-1.73941">
        <ele>66</ele>
        <time>2021-04-05T09:28:08.000Z</time>
      </trkpt>
      <trkpt lat="47.05233" lon="-1.73925">
        <ele>66</ele>
        <time>2021-04-05T09:28:10.000Z</time>
      </trkpt>
      <trkpt lat="47.05233" lon="-1.73908">
        <ele>66</ele>
        <time>2021-04-05T09:28:12.000Z</time>
      </trkpt>
      <trkpt lat="47.05234" lon="-1.73892">
        <ele>66</ele>
        <time>2021-04-05T09:28:14.000Z</time>
      </trkpt>
      <trkpt lat="47.05234" lon="-1.73875">
        <ele>66</ele>
        <time>2021-04-05T09:28:16.000Z</time>
      </trkpt>
      <trkpt lat="47.05234" lon="-1.73858">
        <ele>66</ele>
        <time>2021-04-05T09:28:18.000Z</time>
      </trkpt>
      <trkpt lat="47.05234" lon="-1.73842">
        <ele>66</ele>
        <time>2021-04-05T09:28:20.000Z</time>
      </trkpt>
      <trkpt lat="47.05234" lon="-1.73826">
        <ele>67</ele>
        <time>2021-04-05T09:28:22.000Z</time>
      </trkpt>
      <trkpt lat="47.05234" lon="-1.73811">
        <ele>67</ele>
        <time>2021-04-05T09:28:24.000Z</time>
      </trkpt>
      <trkpt lat="47.05235" lon="-1.73794">
        <ele>67</ele>
        <time>2021-04-05T09:28:26.000Z</time>
      </trkpt>
      <trkpt lat="47.05235" lon="-1.73777">
        <ele>67</ele>
        <time>2021-04-05T09:28:28.000Z</time>
      </trkpt>
      <trkpt lat="47.05236" lon="-1.7376">
        <ele>67</ele>
        <time>2021-04-05T09:28:30.000Z</time>
      </trkpt>
      <trkpt lat="47.05236" lon="-1.73743">
        <ele>67</ele>
        <time>2021-04-05T09:28:32.000Z</time>
      </trkpt>
      <trkpt lat="47.05236" lon="-1.73727">
        <ele>67</ele>
        <time>2021-04-05T09:28:34.000Z</time>
      </trkpt>
      <trkpt lat="47.05237" lon="-1.73712">
        <ele>67</ele>
        <time>2021-04-05T09:28:36.000Z</time>
      </trkpt>
      <trkpt lat="47.05238" lon="-1.73696">
        <ele>67</ele>
        <time>2021-04-05T09:28:38.000Z</time>
      </trkpt>
      <trkpt lat="47.05239" lon="-1.73679">
        <ele>67</ele>
        <time>2021-04-05T09:28:40.000Z</time>
      </trkpt>
      <trkpt lat="47.05242" lon="-1.73662">
        <ele>67</ele>
        <time>2021-04-05T09:28:42.000Z</time>
      </trkpt>
      <trkpt lat="47.05245" lon="-1.73645">
        <ele>67</ele>
        <time>2021-04-05T09:28:44.000Z</time>
      </trkpt>
      <trkpt lat="47.05249" lon="-1.73629">
        <ele>66</ele>
        <time>2021-04-05T09:28:46.000Z</time>
      </trkpt>
      <trkpt lat="47.05254" lon="-1.73613">
        <ele>66</ele>
        <time>2021-04-05T09:28:48.000Z</time>
      </trkpt>
      <trkpt lat="47.05258" lon="-1.73598">
        <ele>66</ele>
        <time>2021-04-05T09:28:50.000Z</time>
      </trkpt>
      <trkpt lat="47.05264" lon="-1.73582">
        <ele>65</ele>
        <time>2021-04-05T09:28:52.000Z</time>
      </trkpt>
      <trkpt lat="47.05269" lon="-1.73566">
        <ele>65</ele>
        <time>2021-04-05T09:28:54.000Z</time>
      </trkpt>
      <trkpt lat="47.05274" lon="-1.7355">
        <ele>65</ele>
        <time>2021-04-05T09:28:56.000Z</time>
      </trkpt>
      <trkpt lat="47.0528" lon="-1.73533">
        <ele>65</ele>
        <time>2021-04-05T09:28:58.000Z</time>
      </trkpt>
      <trkpt lat="47.05286" lon="-1.73517">
        <ele>64</ele>
        <time>2021-04-05T09:29:00.000Z</time>
      </trkpt>
      <trkpt lat="47.05291" lon="-1.73499">
        <ele>64</ele>
        <time>2021-04-05T09:29:02.000Z</time>
      </trkpt>
      <trkpt lat="47.05296" lon="-1.73481">
        <ele>64</ele>
        <time>2021-04-05T09:29:04.000Z</time>
      </trkpt>
      <trkpt lat="47.053" lon="-1.73464">
        <ele>64</ele>
        <time>2021-04-05T09:29:06.000Z</time>
      </trkpt>
      <trkpt lat="47.05305" lon="-1.73446">
        <ele>64</ele>
        <time>2021-04-05T09:29:08.000Z</time>
      </trkpt>
      <trkpt lat="47.05308" lon="-1.73428">
        <ele>64</ele>
        <time>2021-04-05T09:29:10.000Z</time>
      </trkpt>
      <trkpt lat="47.0531" lon="-1.73409">
        <ele>65</ele>
        <time>2021-04-05T09:29:12.000Z</time>
      </trkpt>
      <trkpt lat="47.05313" lon="-1.7339">
        <ele>66</ele>
        <time>2021-04-05T09:29:14.000Z</time>
      </trkpt>
      <trkpt lat="47.05316" lon="-1.73372">
        <ele>66</ele>
        <time>2021-04-05T09:29:16.000Z</time>
      </trkpt>
      <trkpt lat="47.05318" lon="-1.73353">
        <ele>66</ele>
        <time>2021-04-05T09:29:18.000Z</time>
      </trkpt>
      <trkpt lat="47.0532" lon="-1.73333">
        <ele>66</ele>
        <time>2021-04-05T09:29:20.000Z</time>
      </trkpt>
      <trkpt lat="47.05321" lon="-1.73314">
        <ele>65</ele>
        <time>2021-04-05T09:29:22.000Z</time>
      </trkpt>
      <trkpt lat="47.05323" lon="-1.73295">
        <ele>65</ele>
        <time>2021-04-05T09:29:24.000Z</time>
      </trkpt>
      <trkpt lat="47.05324" lon="-1.73277">
        <ele>65</ele>
        <time>2021-04-05T09:29:26.000Z</time>
      </trkpt>
      <trkpt lat="47.05324" lon="-1.7326">
        <ele>65</ele>
        <time>2021-04-05T09:29:28.000Z</time>
      </trkpt>
      <trkpt lat="47.05322" lon="-1.73243">
        <ele>65</ele>
        <time>2021-04-05T09:29:30.000Z</time>
      </trkpt>
      <trkpt lat="47.0532" lon="-1.73225">
        <ele>65</ele>
        <time>2021-04-05T09:29:32.000Z</time>
      </trkpt>
      <trkpt lat="47.05318" lon="-1.73208">
        <ele>65</ele>
        <time>2021-04-05T09:29:34.000Z</time>
      </trkpt>
      <trkpt lat="47.05315" lon="-1.73191">
        <ele>65</ele>
        <time>2021-04-05T09:29:36.000Z</time>
      </trkpt>
      <trkpt lat="47.05312" lon="-1.73173">
        <ele>66</ele>
        <time>2021-04-05T09:29:38.000Z</time>
      </trkpt>
      <trkpt lat="47.0531" lon="-1.73156">
        <ele>67</ele>
        <time>2021-04-05T09:29:40.000Z</time>
      </trkpt>
      <trkpt lat="47.05306" lon="-1.73142">
        <ele>67</ele>
        <time>2021-04-05T09:29:42.000Z</time>
      </trkpt>
      <trkpt lat="47.05314" lon="-1.73125">
        <ele>68</ele>
        <time>2021-04-05T09:29:45.000Z</time>
      </trkpt>
      <trkpt lat="47.05323" lon="-1.73115">
        <ele>69</ele>
        <time>2021-04-05T09:29:47.000Z</time>
      </trkpt>
      <trkpt lat="47.05332" lon="-1.73101">
        <ele>69</ele>
        <time>2021-04-05T09:29:49.000Z</time>
      </trkpt>
      <trkpt lat="47.0534" lon="-1.73087">
        <ele>70</ele>
        <time>2021-04-05T09:29:51.000Z</time>
      </trkpt>
      <trkpt lat="47.05348" lon="-1.73074">
        <ele>70</ele>
        <time>2021-04-05T09:29:53.000Z</time>
      </trkpt>
      <trkpt lat="47.05356" lon="-1.7306">
        <ele>70</ele>
        <time>2021-04-05T09:29:55.000Z</time>
      </trkpt>
      <trkpt lat="47.05364" lon="-1.73046">
        <ele>70</ele>
        <time>2021-04-05T09:29:57.000Z</time>
      </trkpt>
      <trkpt lat="47.05372" lon="-1.73032">
        <ele>69</ele>
        <time>2021-04-05T09:29:59.000Z</time>
      </trkpt>
      <trkpt lat="47.0538" lon="-1.7302">
        <ele>69</ele>
        <time>2021-04-05T09:30:01.000Z</time>
      </trkpt>
      <trkpt lat="47.05388" lon="-1.73007">
        <ele>70</ele>
        <time>2021-04-05T09:30:03.000Z</time>
      </trkpt>
      <trkpt lat="47.05395" lon="-1.72994">
        <ele>70</ele>
        <time>2021-04-05T09:30:05.000Z</time>
      </trkpt>
      <trkpt lat="47.05401" lon="-1.72979">
        <ele>70</ele>
        <time>2021-04-05T09:30:07.000Z</time>
      </trkpt>
      <trkpt lat="47.05408" lon="-1.72965">
        <ele>70</ele>
        <time>2021-04-05T09:30:09.000Z</time>
      </trkpt>
      <trkpt lat="47.05415" lon="-1.72951">
        <ele>69</ele>
        <time>2021-04-05T09:30:11.000Z</time>
      </trkpt>
      <trkpt lat="47.05421" lon="-1.72937">
        <ele>69</ele>
        <time>2021-04-05T09:30:13.000Z</time>
      </trkpt>
      <trkpt lat="47.05427" lon="-1.72922">
        <ele>69</ele>
        <time>2021-04-05T09:30:15.000Z</time>
      </trkpt>
      <trkpt lat="47.05433" lon="-1.72907">
        <ele>69</ele>
        <time>2021-04-05T09:30:17.000Z</time>
      </trkpt>
      <trkpt lat="47.05441" lon="-1.72893">
        <ele>69</ele>
        <time>2021-04-05T09:30:19.000Z</time>
      </trkpt>
      <trkpt lat="47.0545" lon="-1.72882">
        <ele>69</ele>
        <time>2021-04-05T09:30:21.000Z</time>
      </trkpt>
      <trkpt lat="47.05459" lon="-1.72871">
        <ele>69</ele>
        <time>2021-04-05T09:30:23.000Z</time>
      </trkpt>
      <trkpt lat="47.05467" lon="-1.7286">
        <ele>69</ele>
        <time>2021-04-05T09:30:25.000Z</time>
      </trkpt>
      <trkpt lat="47.05476" lon="-1.72848">
        <ele>69</ele>
        <time>2021-04-05T09:30:27.000Z</time>
      </trkpt>
      <trkpt lat="47.05485" lon="-1.72836">
        <ele>69</ele>
        <time>2021-04-05T09:30:29.000Z</time>
      </trkpt>
      <trkpt lat="47.05494" lon="-1.72824">
        <ele>69</ele>
        <time>2021-04-05T09:30:31.000Z</time>
      </trkpt>
      <trkpt lat="47.05503" lon="-1.72811">
        <ele>69</ele>
        <time>2021-04-05T09:30:33.000Z</time>
      </trkpt>
      <trkpt lat="47.05511" lon="-1.72796">
        <ele>69</ele>
        <time>2021-04-05T09:30:35.000Z</time>
      </trkpt>
      <trkpt lat="47.05517" lon="-1.72781">
        <ele>68</ele>
        <time>2021-04-05T09:30:37.000Z</time>
      </trkpt>
      <trkpt lat="47.05519" lon="-1.72763">
        <ele>68</ele>
        <time>2021-04-05T09:30:39.000Z</time>
      </trkpt>
      <trkpt lat="47.0552" lon="-1.72746">
        <ele>68</ele>
        <time>2021-04-05T09:30:41.000Z</time>
      </trkpt>
      <trkpt lat="47.0552" lon="-1.72729">
        <ele>68</ele>
        <time>2021-04-05T09:30:43.000Z</time>
      </trkpt>
      <trkpt lat="47.05522" lon="-1.72712">
        <ele>67</ele>
        <time>2021-04-05T09:30:45.000Z</time>
      </trkpt>
      <trkpt lat="47.05525" lon="-1.72695">
        <ele>67</ele>
        <time>2021-04-05T09:30:47.000Z</time>
      </trkpt>
      <trkpt lat="47.05528" lon="-1.72682">
        <ele>67</ele>
        <time>2021-04-05T09:30:49.000Z</time>
      </trkpt>
      <trkpt lat="47.05531" lon="-1.72664">
        <ele>67</ele>
        <time>2021-04-05T09:30:52.000Z</time>
      </trkpt>
      <trkpt lat="47.05541" lon="-1.72656">
        <ele>67</ele>
        <time>2021-04-05T09:30:56.000Z</time>
      </trkpt>
      <trkpt lat="47.05551" lon="-1.72653">
        <ele>68</ele>
        <time>2021-04-05T09:30:58.000Z</time>
      </trkpt>
      <trkpt lat="47.05562" lon="-1.72651">
        <ele>69</ele>
        <time>2021-04-05T09:31:00.000Z</time>
      </trkpt>
      <trkpt lat="47.05573" lon="-1.72647">
        <ele>70</ele>
        <time>2021-04-05T09:31:02.000Z</time>
      </trkpt>
      <trkpt lat="47.05578" lon="-1.72637">
        <ele>69</ele>
        <time>2021-04-05T09:31:04.000Z</time>
      </trkpt>
      <trkpt lat="47.05575" lon="-1.72619">
        <ele>68</ele>
        <time>2021-04-05T09:31:06.000Z</time>
      </trkpt>
      <trkpt lat="47.05571" lon="-1.72601">
        <ele>68</ele>
        <time>2021-04-05T09:31:08.000Z</time>
      </trkpt>
      <trkpt lat="47.05566" lon="-1.72581">
        <ele>68</ele>
        <time>2021-04-05T09:31:10.000Z</time>
      </trkpt>
      <trkpt lat="47.05561" lon="-1.72562">
        <ele>68</ele>
        <time>2021-04-05T09:31:12.000Z</time>
      </trkpt>
      <trkpt lat="47.05557" lon="-1.72544">
        <ele>67</ele>
        <time>2021-04-05T09:31:14.000Z</time>
      </trkpt>
      <trkpt lat="47.05553" lon="-1.72524">
        <ele>67</ele>
        <time>2021-04-05T09:31:16.000Z</time>
      </trkpt>
      <trkpt lat="47.0555" lon="-1.72507">
        <ele>67</ele>
        <time>2021-04-05T09:31:18.000Z</time>
      </trkpt>
      <trkpt lat="47.05546" lon="-1.72489">
        <ele>67</ele>
        <time>2021-04-05T09:31:20.000Z</time>
      </trkpt>
      <trkpt lat="47.05541" lon="-1.72473">
        <ele>68</ele>
        <time>2021-04-05T09:31:22.000Z</time>
      </trkpt>
      <trkpt lat="47.05536" lon="-1.72457">
        <ele>68</ele>
        <time>2021-04-05T09:31:24.000Z</time>
      </trkpt>
      <trkpt lat="47.05531" lon="-1.7244">
        <ele>68</ele>
        <time>2021-04-05T09:31:26.000Z</time>
      </trkpt>
      <trkpt lat="47.05527" lon="-1.72424">
        <ele>68</ele>
        <time>2021-04-05T09:31:28.000Z</time>
      </trkpt>
      <trkpt lat="47.05522" lon="-1.72407">
        <ele>68</ele>
        <time>2021-04-05T09:31:30.000Z</time>
      </trkpt>
      <trkpt lat="47.05517" lon="-1.7239">
        <ele>68</ele>
        <time>2021-04-05T09:31:32.000Z</time>
      </trkpt>
      <trkpt lat="47.05514" lon="-1.72373">
        <ele>68</ele>
        <time>2021-04-05T09:31:34.000Z</time>
      </trkpt>
      <trkpt lat="47.05509" lon="-1.72356">
        <ele>67</ele>
        <time>2021-04-05T09:31:36.000Z</time>
      </trkpt>
      <trkpt lat="47.05504" lon="-1.72339">
        <ele>67</ele>
        <time>2021-04-05T09:31:38.000Z</time>
      </trkpt>
      <trkpt lat="47.055" lon="-1.72321">
        <ele>68</ele>
        <time>2021-04-05T09:31:40.000Z</time>
      </trkpt>
      <trkpt lat="47.05496" lon="-1.72304">
        <ele>68</ele>
        <time>2021-04-05T09:31:42.000Z</time>
      </trkpt>
      <trkpt lat="47.05491" lon="-1.72287">
        <ele>67</ele>
        <time>2021-04-05T09:31:44.000Z</time>
      </trkpt>
      <trkpt lat="47.05487" lon="-1.72269">
        <ele>67</ele>
        <time>2021-04-05T09:31:46.000Z</time>
      </trkpt>
      <trkpt lat="47.05483" lon="-1.72251">
        <ele>66</ele>
        <time>2021-04-05T09:31:48.000Z</time>
      </trkpt>
      <trkpt lat="47.0548" lon="-1.72232">
        <ele>66</ele>
        <time>2021-04-05T09:31:50.000Z</time>
      </trkpt>
      <trkpt lat="47.05476" lon="-1.72213">
        <ele>65</ele>
        <time>2021-04-05T09:31:52.000Z</time>
      </trkpt>
      <trkpt lat="47.05472" lon="-1.72192">
        <ele>64</ele>
        <time>2021-04-05T09:31:54.000Z</time>
      </trkpt>
      <trkpt lat="47.05467" lon="-1.72171">
        <ele>63</ele>
        <time>2021-04-05T09:31:56.000Z</time>
      </trkpt>
      <trkpt lat="47.05462" lon="-1.72149">
        <ele>63</ele>
        <time>2021-04-05T09:31:58.000Z</time>
      </trkpt>
      <trkpt lat="47.05457" lon="-1.72127">
        <ele>62</ele>
        <time>2021-04-05T09:32:00.000Z</time>
      </trkpt>
      <trkpt lat="47.05453" lon="-1.72105">
        <ele>61</ele>
        <time>2021-04-05T09:32:02.000Z</time>
      </trkpt>
      <trkpt lat="47.05448" lon="-1.72082">
        <ele>60</ele>
        <time>2021-04-05T09:32:04.000Z</time>
      </trkpt>
      <trkpt lat="47.05443" lon="-1.72059">
        <ele>60</ele>
        <time>2021-04-05T09:32:06.000Z</time>
      </trkpt>
      <trkpt lat="47.05438" lon="-1.72037">
        <ele>59</ele>
        <time>2021-04-05T09:32:08.000Z</time>
      </trkpt>
      <trkpt lat="47.05432" lon="-1.72015">
        <ele>59</ele>
        <time>2021-04-05T09:32:10.000Z</time>
      </trkpt>
      <trkpt lat="47.05427" lon="-1.71991">
        <ele>59</ele>
        <time>2021-04-05T09:32:12.000Z</time>
      </trkpt>
      <trkpt lat="47.05422" lon="-1.71969">
        <ele>59</ele>
        <time>2021-04-05T09:32:14.000Z</time>
      </trkpt>
      <trkpt lat="47.05418" lon="-1.7195">
        <ele>59</ele>
        <time>2021-04-05T09:32:16.000Z</time>
      </trkpt>
      <trkpt lat="47.05414" lon="-1.7193">
        <ele>59</ele>
        <time>2021-04-05T09:32:18.000Z</time>
      </trkpt>
      <trkpt lat="47.0541" lon="-1.71911">
        <ele>59</ele>
        <time>2021-04-05T09:32:20.000Z</time>
      </trkpt>
      <trkpt lat="47.05404" lon="-1.71892">
        <ele>58</ele>
        <time>2021-04-05T09:32:22.000Z</time>
      </trkpt>
      <trkpt lat="47.05398" lon="-1.71873">
        <ele>58</ele>
        <time>2021-04-05T09:32:24.000Z</time>
      </trkpt>
      <trkpt lat="47.05394" lon="-1.7185">
        <ele>58</ele>
        <time>2021-04-05T09:32:26.000Z</time>
      </trkpt>
      <trkpt lat="47.05389" lon="-1.71829">
        <ele>58</ele>
        <time>2021-04-05T09:32:28.000Z</time>
      </trkpt>
      <trkpt lat="47.05386" lon="-1.71806">
        <ele>57</ele>
        <time>2021-04-05T09:32:30.000Z</time>
      </trkpt>
      <trkpt lat="47.05384" lon="-1.71785">
        <ele>57</ele>
        <time>2021-04-05T09:32:32.000Z</time>
      </trkpt>
      <trkpt lat="47.05383" lon="-1.71763">
        <ele>57</ele>
        <time>2021-04-05T09:32:34.000Z</time>
      </trkpt>
      <trkpt lat="47.05383" lon="-1.71742">
        <ele>58</ele>
        <time>2021-04-05T09:32:36.000Z</time>
      </trkpt>
      <trkpt lat="47.05384" lon="-1.7172">
        <ele>58</ele>
        <time>2021-04-05T09:32:38.000Z</time>
      </trkpt>
      <trkpt lat="47.05387" lon="-1.71699">
        <ele>57</ele>
        <time>2021-04-05T09:32:40.000Z</time>
      </trkpt>
      <trkpt lat="47.05389" lon="-1.71677">
        <ele>57</ele>
        <time>2021-04-05T09:32:42.000Z</time>
      </trkpt>
      <trkpt lat="47.05391" lon="-1.71656">
        <ele>57</ele>
        <time>2021-04-05T09:32:44.000Z</time>
      </trkpt>
      <trkpt lat="47.05393" lon="-1.71636">
        <ele>56</ele>
        <time>2021-04-05T09:32:46.000Z</time>
      </trkpt>
      <trkpt lat="47.05396" lon="-1.71615">
        <ele>56</ele>
        <time>2021-04-05T09:32:48.000Z</time>
      </trkpt>
      <trkpt lat="47.05398" lon="-1.71594">
        <ele>56</ele>
        <time>2021-04-05T09:32:50.000Z</time>
      </trkpt>
      <trkpt lat="47.05399" lon="-1.71573">
        <ele>55</ele>
        <time>2021-04-05T09:32:52.000Z</time>
      </trkpt>
      <trkpt lat="47.05401" lon="-1.71553">
        <ele>55</ele>
        <time>2021-04-05T09:32:54.000Z</time>
      </trkpt>
      <trkpt lat="47.05402" lon="-1.71532">
        <ele>56</ele>
        <time>2021-04-05T09:32:56.000Z</time>
      </trkpt>
      <trkpt lat="47.05404" lon="-1.71513">
        <ele>56</ele>
        <time>2021-04-05T09:32:58.000Z</time>
      </trkpt>
      <trkpt lat="47.05405" lon="-1.71493">
        <ele>56</ele>
        <time>2021-04-05T09:33:00.000Z</time>
      </trkpt>
      <trkpt lat="47.05407" lon="-1.71474">
        <ele>56</ele>
        <time>2021-04-05T09:33:02.000Z</time>
      </trkpt>
      <trkpt lat="47.05408" lon="-1.71455">
        <ele>56</ele>
        <time>2021-04-05T09:33:04.000Z</time>
      </trkpt>
      <trkpt lat="47.05409" lon="-1.71437">
        <ele>58</ele>
        <time>2021-04-05T09:33:06.000Z</time>
      </trkpt>
      <trkpt lat="47.05409" lon="-1.71417">
        <ele>58</ele>
        <time>2021-04-05T09:33:08.000Z</time>
      </trkpt>
      <trkpt lat="47.05408" lon="-1.71397">
        <ele>58</ele>
        <time>2021-04-05T09:33:10.000Z</time>
      </trkpt>
      <trkpt lat="47.05406" lon="-1.71379">
        <ele>58</ele>
        <time>2021-04-05T09:33:12.000Z</time>
      </trkpt>
      <trkpt lat="47.05403" lon="-1.7136">
        <ele>58</ele>
        <time>2021-04-05T09:33:14.000Z</time>
      </trkpt>
      <trkpt lat="47.05401" lon="-1.71342">
        <ele>58</ele>
        <time>2021-04-05T09:33:16.000Z</time>
      </trkpt>
      <trkpt lat="47.05398" lon="-1.71323">
        <ele>58</ele>
        <time>2021-04-05T09:33:18.000Z</time>
      </trkpt>
      <trkpt lat="47.05395" lon="-1.71304">
        <ele>58</ele>
        <time>2021-04-05T09:33:20.000Z</time>
      </trkpt>
      <trkpt lat="47.05393" lon="-1.71285">
        <ele>58</ele>
        <time>2021-04-05T09:33:22.000Z</time>
      </trkpt>
      <trkpt lat="47.05391" lon="-1.71267">
        <ele>58</ele>
        <time>2021-04-05T09:33:24.000Z</time>
      </trkpt>
      <trkpt lat="47.0539" lon="-1.71247">
        <ele>58</ele>
        <time>2021-04-05T09:33:26.000Z</time>
      </trkpt>
      <trkpt lat="47.0539" lon="-1.71227">
        <ele>58</ele>
        <time>2021-04-05T09:33:28.000Z</time>
      </trkpt>
      <trkpt lat="47.0539" lon="-1.71207">
        <ele>58</ele>
        <time>2021-04-05T09:33:30.000Z</time>
      </trkpt>
      <trkpt lat="47.05392" lon="-1.71187">
        <ele>57</ele>
        <time>2021-04-05T09:33:32.000Z</time>
      </trkpt>
      <trkpt lat="47.05393" lon="-1.71168">
        <ele>57</ele>
        <time>2021-04-05T09:33:34.000Z</time>
      </trkpt>
      <trkpt lat="47.05395" lon="-1.71148">
        <ele>58</ele>
        <time>2021-04-05T09:33:36.000Z</time>
      </trkpt>
      <trkpt lat="47.05397" lon="-1.71129">
        <ele>57</ele>
        <time>2021-04-05T09:33:38.000Z</time>
      </trkpt>
      <trkpt lat="47.05399" lon="-1.7111">
        <ele>57</ele>
        <time>2021-04-05T09:33:40.000Z</time>
      </trkpt>
      <trkpt lat="47.05402" lon="-1.71091">
        <ele>57</ele>
        <time>2021-04-05T09:33:42.000Z</time>
      </trkpt>
      <trkpt lat="47.05403" lon="-1.71073">
        <ele>57</ele>
        <time>2021-04-05T09:33:44.000Z</time>
      </trkpt>
      <trkpt lat="47.05405" lon="-1.71055">
        <ele>57</ele>
        <time>2021-04-05T09:33:46.000Z</time>
      </trkpt>
      <trkpt lat="47.05407" lon="-1.71036">
        <ele>57</ele>
        <time>2021-04-05T09:33:48.000Z</time>
      </trkpt>
      <trkpt lat="47.05408" lon="-1.71017">
        <ele>57</ele>
        <time>2021-04-05T09:33:50.000Z</time>
      </trkpt>
      <trkpt lat="47.05411" lon="-1.70998">
        <ele>57</ele>
        <time>2021-04-05T09:33:52.000Z</time>
      </trkpt>
      <trkpt lat="47.05413" lon="-1.70979">
        <ele>56</ele>
        <time>2021-04-05T09:33:54.000Z</time>
      </trkpt>
      <trkpt lat="47.05415" lon="-1.70958">
        <ele>56</ele>
        <time>2021-04-05T09:33:56.000Z</time>
      </trkpt>
      <trkpt lat="47.05417" lon="-1.70939">
        <ele>56</ele>
        <time>2021-04-05T09:33:58.000Z</time>
      </trkpt>
      <trkpt lat="47.05418" lon="-1.70919">
        <ele>56</ele>
        <time>2021-04-05T09:34:00.000Z</time>
      </trkpt>
      <trkpt lat="47.0542" lon="-1.70897">
        <ele>56</ele>
        <time>2021-04-05T09:34:02.000Z</time>
      </trkpt>
      <trkpt lat="47.05419" lon="-1.70876">
        <ele>57</ele>
        <time>2021-04-05T09:34:04.000Z</time>
      </trkpt>
      <trkpt lat="47.05416" lon="-1.70855">
        <ele>57</ele>
        <time>2021-04-05T09:34:06.000Z</time>
      </trkpt>
      <trkpt lat="47.05413" lon="-1.70833">
        <ele>56</ele>
        <time>2021-04-05T09:34:08.000Z</time>
      </trkpt>
      <trkpt lat="47.0541" lon="-1.70813">
        <ele>56</ele>
        <time>2021-04-05T09:34:10.000Z</time>
      </trkpt>
      <trkpt lat="47.05407" lon="-1.70793">
        <ele>55</ele>
        <time>2021-04-05T09:34:12.000Z</time>
      </trkpt>
      <trkpt lat="47.05404" lon="-1.70774">
        <ele>56</ele>
        <time>2021-04-05T09:34:14.000Z</time>
      </trkpt>
      <trkpt lat="47.054" lon="-1.70754">
        <ele>56</ele>
        <time>2021-04-05T09:34:16.000Z</time>
      </trkpt>
      <trkpt lat="47.05396" lon="-1.70734">
        <ele>56</ele>
        <time>2021-04-05T09:34:18.000Z</time>
      </trkpt>
      <trkpt lat="47.05394" lon="-1.70715">
        <ele>56</ele>
        <time>2021-04-05T09:34:20.000Z</time>
      </trkpt>
      <trkpt lat="47.05391" lon="-1.70697">
        <ele>55</ele>
        <time>2021-04-05T09:34:22.000Z</time>
      </trkpt>
      <trkpt lat="47.05389" lon="-1.70678">
        <ele>55</ele>
        <time>2021-04-05T09:34:24.000Z</time>
      </trkpt>
      <trkpt lat="47.05385" lon="-1.7066">
        <ele>55</ele>
        <time>2021-04-05T09:34:26.000Z</time>
      </trkpt>
      <trkpt lat="47.05382" lon="-1.7064">
        <ele>55</ele>
        <time>2021-04-05T09:34:28.000Z</time>
      </trkpt>
      <trkpt lat="47.05379" lon="-1.70621">
        <ele>55</ele>
        <time>2021-04-05T09:34:30.000Z</time>
      </trkpt>
      <trkpt lat="47.05375" lon="-1.70602">
        <ele>55</ele>
        <time>2021-04-05T09:34:32.000Z</time>
      </trkpt>
      <trkpt lat="47.05372" lon="-1.70584">
        <ele>55</ele>
        <time>2021-04-05T09:34:34.000Z</time>
      </trkpt>
      <trkpt lat="47.05369" lon="-1.70564">
        <ele>55</ele>
        <time>2021-04-05T09:34:36.000Z</time>
      </trkpt>
      <trkpt lat="47.05366" lon="-1.70545">
        <ele>56</ele>
        <time>2021-04-05T09:34:38.000Z</time>
      </trkpt>
      <trkpt lat="47.05363" lon="-1.70526">
        <ele>56</ele>
        <time>2021-04-05T09:34:40.000Z</time>
      </trkpt>
      <trkpt lat="47.05359" lon="-1.70506">
        <ele>56</ele>
        <time>2021-04-05T09:34:42.000Z</time>
      </trkpt>
      <trkpt lat="47.05356" lon="-1.70486">
        <ele>56</ele>
        <time>2021-04-05T09:34:44.000Z</time>
      </trkpt>
      <trkpt lat="47.05353" lon="-1.70467">
        <ele>56</ele>
        <time>2021-04-05T09:34:46.000Z</time>
      </trkpt>
      <trkpt lat="47.0535" lon="-1.70448">
        <ele>55</ele>
        <time>2021-04-05T09:34:48.000Z</time>
      </trkpt>
      <trkpt lat="47.05346" lon="-1.70429">
        <ele>55</ele>
        <time>2021-04-05T09:34:50.000Z</time>
      </trkpt>
      <trkpt lat="47.05341" lon="-1.7041">
        <ele>55</ele>
        <time>2021-04-05T09:34:52.000Z</time>
      </trkpt>
      <trkpt lat="47.05336" lon="-1.70391">
        <ele>55</ele>
        <time>2021-04-05T09:34:54.000Z</time>
      </trkpt>
      <trkpt lat="47.05331" lon="-1.70373">
        <ele>56</ele>
        <time>2021-04-05T09:34:56.000Z</time>
      </trkpt>
      <trkpt lat="47.05324" lon="-1.70356">
        <ele>56</ele>
        <time>2021-04-05T09:34:58.000Z</time>
      </trkpt>
      <trkpt lat="47.05317" lon="-1.70338">
        <ele>56</ele>
        <time>2021-04-05T09:35:00.000Z</time>
      </trkpt>
      <trkpt lat="47.05311" lon="-1.70321">
        <ele>56</ele>
        <time>2021-04-05T09:35:02.000Z</time>
      </trkpt>
      <trkpt lat="47.05304" lon="-1.70304">
        <ele>55</ele>
        <time>2021-04-05T09:35:04.000Z</time>
      </trkpt>
      <trkpt lat="47.05297" lon="-1.70286">
        <ele>55</ele>
        <time>2021-04-05T09:35:06.000Z</time>
      </trkpt>
      <trkpt lat="47.0529" lon="-1.70269">
        <ele>55</ele>
        <time>2021-04-05T09:35:08.000Z</time>
      </trkpt>
      <trkpt lat="47.05283" lon="-1.7025">
        <ele>55</ele>
        <time>2021-04-05T09:35:10.000Z</time>
      </trkpt>
      <trkpt lat="47.05276" lon="-1.70232">
        <ele>55</ele>
        <time>2021-04-05T09:35:12.000Z</time>
      </trkpt>
      <trkpt lat="47.05269" lon="-1.70212">
        <ele>55</ele>
        <time>2021-04-05T09:35:14.000Z</time>
      </trkpt>
      <trkpt lat="47.05262" lon="-1.70194">
        <ele>54</ele>
        <time>2021-04-05T09:35:16.000Z</time>
      </trkpt>
      <trkpt lat="47.05255" lon="-1.70176">
        <ele>54</ele>
        <time>2021-04-05T09:35:18.000Z</time>
      </trkpt>
      <trkpt lat="47.05248" lon="-1.70157">
        <ele>54</ele>
        <time>2021-04-05T09:35:20.000Z</time>
      </trkpt>
      <trkpt lat="47.05241" lon="-1.70138">
        <ele>53</ele>
        <time>2021-04-05T09:35:22.000Z</time>
      </trkpt>
      <trkpt lat="47.05234" lon="-1.70118">
        <ele>53</ele>
        <time>2021-04-05T09:35:24.000Z</time>
      </trkpt>
      <trkpt lat="47.05227" lon="-1.70099">
        <ele>53</ele>
        <time>2021-04-05T09:35:26.000Z</time>
      </trkpt>
      <trkpt lat="47.05219" lon="-1.70079">
        <ele>52</ele>
        <time>2021-04-05T09:35:28.000Z</time>
      </trkpt>
      <trkpt lat="47.05212" lon="-1.7006">
        <ele>52</ele>
        <time>2021-04-05T09:35:30.000Z</time>
      </trkpt>
      <trkpt lat="47.05206" lon="-1.70041">
        <ele>52</ele>
        <time>2021-04-05T09:35:32.000Z</time>
      </trkpt>
      <trkpt lat="47.05198" lon="-1.70022">
        <ele>51</ele>
        <time>2021-04-05T09:35:34.000Z</time>
      </trkpt>
      <trkpt lat="47.05192" lon="-1.70004">
        <ele>52</ele>
        <time>2021-04-05T09:35:36.000Z</time>
      </trkpt>
      <trkpt lat="47.05185" lon="-1.69985">
        <ele>51</ele>
        <time>2021-04-05T09:35:38.000Z</time>
      </trkpt>
      <trkpt lat="47.05178" lon="-1.69968">
        <ele>51</ele>
        <time>2021-04-05T09:35:40.000Z</time>
      </trkpt>
      <trkpt lat="47.05171" lon="-1.6995">
        <ele>52</ele>
        <time>2021-04-05T09:35:42.000Z</time>
      </trkpt>
      <trkpt lat="47.05165" lon="-1.69933">
        <ele>51</ele>
        <time>2021-04-05T09:35:44.000Z</time>
      </trkpt>
      <trkpt lat="47.0516" lon="-1.69915">
        <ele>51</ele>
        <time>2021-04-05T09:35:46.000Z</time>
      </trkpt>
      <trkpt lat="47.05158" lon="-1.69895">
        <ele>51</ele>
        <time>2021-04-05T09:35:48.000Z</time>
      </trkpt>
      <trkpt lat="47.05156" lon="-1.69875">
        <ele>50</ele>
        <time>2021-04-05T09:35:50.000Z</time>
      </trkpt>
      <trkpt lat="47.05154" lon="-1.69856">
        <ele>50</ele>
        <time>2021-04-05T09:35:52.000Z</time>
      </trkpt>
      <trkpt lat="47.05148" lon="-1.69838">
        <ele>50</ele>
        <time>2021-04-05T09:35:54.000Z</time>
      </trkpt>
      <trkpt lat="47.05141" lon="-1.69821">
        <ele>50</ele>
        <time>2021-04-05T09:35:56.000Z</time>
      </trkpt>
      <trkpt lat="47.05133" lon="-1.69806">
        <ele>50</ele>
        <time>2021-04-05T09:35:58.000Z</time>
      </trkpt>
      <trkpt lat="47.05124" lon="-1.69793">
        <ele>51</ele>
        <time>2021-04-05T09:36:00.000Z</time>
      </trkpt>
      <trkpt lat="47.05114" lon="-1.69781">
        <ele>51</ele>
        <time>2021-04-05T09:36:02.000Z</time>
      </trkpt>
      <trkpt lat="47.05105" lon="-1.69769">
        <ele>51</ele>
        <time>2021-04-05T09:36:04.000Z</time>
      </trkpt>
      <trkpt lat="47.05095" lon="-1.69757">
        <ele>51</ele>
        <time>2021-04-05T09:36:06.000Z</time>
      </trkpt>
      <trkpt lat="47.05085" lon="-1.69745">
        <ele>51</ele>
        <time>2021-04-05T09:36:08.000Z</time>
      </trkpt>
      <trkpt lat="47.05075" lon="-1.69734">
        <ele>52</ele>
        <time>2021-04-05T09:36:10.000Z</time>
      </trkpt>
      <trkpt lat="47.05065" lon="-1.69722">
        <ele>52</ele>
        <time>2021-04-05T09:36:12.000Z</time>
      </trkpt>
      <trkpt lat="47.05055" lon="-1.6971">
        <ele>52</ele>
        <time>2021-04-05T09:36:14.000Z</time>
      </trkpt>
      <trkpt lat="47.05046" lon="-1.69698">
        <ele>52</ele>
        <time>2021-04-05T09:36:16.000Z</time>
      </trkpt>
      <trkpt lat="47.05037" lon="-1.69686">
        <ele>53</ele>
        <time>2021-04-05T09:36:18.000Z</time>
      </trkpt>
      <trkpt lat="47.05028" lon="-1.69674">
        <ele>53</ele>
        <time>2021-04-05T09:36:20.000Z</time>
      </trkpt>
      <trkpt lat="47.05019" lon="-1.69661">
        <ele>53</ele>
        <time>2021-04-05T09:36:22.000Z</time>
      </trkpt>
      <trkpt lat="47.05009" lon="-1.69648">
        <ele>53</ele>
        <time>2021-04-05T09:36:24.000Z</time>
      </trkpt>
      <trkpt lat="47.05001" lon="-1.69633">
        <ele>53</ele>
        <time>2021-04-05T09:36:26.000Z</time>
      </trkpt>
      <trkpt lat="47.04994" lon="-1.69617">
        <ele>53</ele>
        <time>2021-04-05T09:36:28.000Z</time>
      </trkpt>
      <trkpt lat="47.04988" lon="-1.69597">
        <ele>52</ele>
        <time>2021-04-05T09:36:30.000Z</time>
      </trkpt>
      <trkpt lat="47.04983" lon="-1.69577">
        <ele>52</ele>
        <time>2021-04-05T09:36:32.000Z</time>
      </trkpt>
      <trkpt lat="47.04976" lon="-1.69557">
        <ele>52</ele>
        <time>2021-04-05T09:36:34.000Z</time>
      </trkpt>
      <trkpt lat="47.0497" lon="-1.69537">
        <ele>52</ele>
        <time>2021-04-05T09:36:36.000Z</time>
      </trkpt>
      <trkpt lat="47.04966" lon="-1.69517">
        <ele>51</ele>
        <time>2021-04-05T09:36:38.000Z</time>
      </trkpt>
      <trkpt lat="47.04961" lon="-1.69498">
        <ele>51</ele>
        <time>2021-04-05T09:36:40.000Z</time>
      </trkpt>
      <trkpt lat="47.04956" lon="-1.69479">
        <ele>51</ele>
        <time>2021-04-05T09:36:42.000Z</time>
      </trkpt>
      <trkpt lat="47.04952" lon="-1.6946">
        <ele>50</ele>
        <time>2021-04-05T09:36:44.000Z</time>
      </trkpt>
      <trkpt lat="47.04947" lon="-1.69441">
        <ele>50</ele>
        <time>2021-04-05T09:36:46.000Z</time>
      </trkpt>
      <trkpt lat="47.04942" lon="-1.69422">
        <ele>50</ele>
        <time>2021-04-05T09:36:48.000Z</time>
      </trkpt>
      <trkpt lat="47.04937" lon="-1.69403">
        <ele>50</ele>
        <time>2021-04-05T09:36:50.000Z</time>
      </trkpt>
      <trkpt lat="47.04933" lon="-1.69385">
        <ele>50</ele>
        <time>2021-04-05T09:36:52.000Z</time>
      </trkpt>
      <trkpt lat="47.04928" lon="-1.69367">
        <ele>49</ele>
        <time>2021-04-05T09:36:54.000Z</time>
      </trkpt>
      <trkpt lat="47.04923" lon="-1.69349">
        <ele>49</ele>
        <time>2021-04-05T09:36:56.000Z</time>
      </trkpt>
      <trkpt lat="47.04918" lon="-1.69331">
        <ele>50</ele>
        <time>2021-04-05T09:36:58.000Z</time>
      </trkpt>
      <trkpt lat="47.04913" lon="-1.69313">
        <ele>50</ele>
        <time>2021-04-05T09:37:00.000Z</time>
      </trkpt>
      <trkpt lat="47.04908" lon="-1.69294">
        <ele>50</ele>
        <time>2021-04-05T09:37:02.000Z</time>
      </trkpt>
      <trkpt lat="47.04903" lon="-1.69275">
        <ele>50</ele>
        <time>2021-04-05T09:37:04.000Z</time>
      </trkpt>
      <trkpt lat="47.04899" lon="-1.69257">
        <ele>50</ele>
        <time>2021-04-05T09:37:06.000Z</time>
      </trkpt>
      <trkpt lat="47.04894" lon="-1.6924">
        <ele>51</ele>
        <time>2021-04-05T09:37:08.000Z</time>
      </trkpt>
      <trkpt lat="47.0489" lon="-1.69223">
        <ele>51</ele>
        <time>2021-04-05T09:37:10.000Z</time>
      </trkpt>
      <trkpt lat="47.04886" lon="-1.69205">
        <ele>51</ele>
        <time>2021-04-05T09:37:12.000Z</time>
      </trkpt>
      <trkpt lat="47.04881" lon="-1.69187">
        <ele>51</ele>
        <time>2021-04-05T09:37:14.000Z</time>
      </trkpt>
      <trkpt lat="47.04877" lon="-1.6917">
        <ele>51</ele>
        <time>2021-04-05T09:37:16.000Z</time>
      </trkpt>
      <trkpt lat="47.04872" lon="-1.69153">
        <ele>51</ele>
        <time>2021-04-05T09:37:18.000Z</time>
      </trkpt>
      <trkpt lat="47.04868" lon="-1.69135">
        <ele>51</ele>
        <time>2021-04-05T09:37:20.000Z</time>
      </trkpt>
      <trkpt lat="47.04864" lon="-1.69118">
        <ele>51</ele>
        <time>2021-04-05T09:37:22.000Z</time>
      </trkpt>
      <trkpt lat="47.04859" lon="-1.69101">
        <ele>51</ele>
        <time>2021-04-05T09:37:24.000Z</time>
      </trkpt>
      <trkpt lat="47.04854" lon="-1.69084">
        <ele>51</ele>
        <time>2021-04-05T09:37:26.000Z</time>
      </trkpt>
      <trkpt lat="47.0485" lon="-1.69067">
        <ele>51</ele>
        <time>2021-04-05T09:37:28.000Z</time>
      </trkpt>
      <trkpt lat="47.04846" lon="-1.6905">
        <ele>52</ele>
        <time>2021-04-05T09:37:30.000Z</time>
      </trkpt>
      <trkpt lat="47.04842" lon="-1.69033">
        <ele>51</ele>
        <time>2021-04-05T09:37:32.000Z</time>
      </trkpt>
      <trkpt lat="47.04837" lon="-1.69016">
        <ele>52</ele>
        <time>2021-04-05T09:37:34.000Z</time>
      </trkpt>
      <trkpt lat="47.04832" lon="-1.68999">
        <ele>52</ele>
        <time>2021-04-05T09:37:36.000Z</time>
      </trkpt>
      <trkpt lat="47.04828" lon="-1.68982">
        <ele>51</ele>
        <time>2021-04-05T09:37:38.000Z</time>
      </trkpt>
      <trkpt lat="47.04823" lon="-1.68965">
        <ele>52</ele>
        <time>2021-04-05T09:37:40.000Z</time>
      </trkpt>
      <trkpt lat="47.04819" lon="-1.68948">
        <ele>52</ele>
        <time>2021-04-05T09:37:42.000Z</time>
      </trkpt>
      <trkpt lat="47.04814" lon="-1.68931">
        <ele>52</ele>
        <time>2021-04-05T09:37:44.000Z</time>
      </trkpt>
      <trkpt lat="47.04809" lon="-1.68915">
        <ele>52</ele>
        <time>2021-04-05T09:37:46.000Z</time>
      </trkpt>
      <trkpt lat="47.04805" lon="-1.68898">
        <ele>52</ele>
        <time>2021-04-05T09:37:48.000Z</time>
      </trkpt>
      <trkpt lat="47.04801" lon="-1.6888">
        <ele>52</ele>
        <time>2021-04-05T09:37:50.000Z</time>
      </trkpt>
      <trkpt lat="47.04797" lon="-1.68862">
        <ele>52</ele>
        <time>2021-04-05T09:37:52.000Z</time>
      </trkpt>
      <trkpt lat="47.04792" lon="-1.68845">
        <ele>52</ele>
        <time>2021-04-05T09:37:54.000Z</time>
      </trkpt>
      <trkpt lat="47.04787" lon="-1.68828">
        <ele>53</ele>
        <time>2021-04-05T09:37:56.000Z</time>
      </trkpt>
      <trkpt lat="47.04783" lon="-1.68812">
        <ele>53</ele>
        <time>2021-04-05T09:37:58.000Z</time>
      </trkpt>
      <trkpt lat="47.04779" lon="-1.68795">
        <ele>53</ele>
        <time>2021-04-05T09:38:00.000Z</time>
      </trkpt>
      <trkpt lat="47.04775" lon="-1.68779">
        <ele>53</ele>
        <time>2021-04-05T09:38:02.000Z</time>
      </trkpt>
      <trkpt lat="47.04771" lon="-1.68763">
        <ele>53</ele>
        <time>2021-04-05T09:38:04.000Z</time>
      </trkpt>
      <trkpt lat="47.04766" lon="-1.68747">
        <ele>53</ele>
        <time>2021-04-05T09:38:06.000Z</time>
      </trkpt>
      <trkpt lat="47.04762" lon="-1.6873">
        <ele>53</ele>
        <time>2021-04-05T09:38:08.000Z</time>
      </trkpt>
      <trkpt lat="47.04758" lon="-1.68713">
        <ele>52</ele>
        <time>2021-04-05T09:38:10.000Z</time>
      </trkpt>
      <trkpt lat="47.04753" lon="-1.68696">
        <ele>53</ele>
        <time>2021-04-05T09:38:12.000Z</time>
      </trkpt>
      <trkpt lat="47.04748" lon="-1.68678">
        <ele>53</ele>
        <time>2021-04-05T09:38:14.000Z</time>
      </trkpt>
      <trkpt lat="47.04744" lon="-1.6866">
        <ele>53</ele>
        <time>2021-04-05T09:38:16.000Z</time>
      </trkpt>
      <trkpt lat="47.04739" lon="-1.68641">
        <ele>53</ele>
        <time>2021-04-05T09:38:18.000Z</time>
      </trkpt>
      <trkpt lat="47.04734" lon="-1.68624">
        <ele>54</ele>
        <time>2021-04-05T09:38:20.000Z</time>
      </trkpt>
      <trkpt lat="47.0473" lon="-1.68606">
        <ele>54</ele>
        <time>2021-04-05T09:38:22.000Z</time>
      </trkpt>
      <trkpt lat="47.04726" lon="-1.68588">
        <ele>54</ele>
        <time>2021-04-05T09:38:24.000Z</time>
      </trkpt>
      <trkpt lat="47.04721" lon="-1.68571">
        <ele>54</ele>
        <time>2021-04-05T09:38:26.000Z</time>
      </trkpt>
      <trkpt lat="47.04716" lon="-1.68553">
        <ele>54</ele>
        <time>2021-04-05T09:38:28.000Z</time>
      </trkpt>
      <trkpt lat="47.04711" lon="-1.68535">
        <ele>55</ele>
        <time>2021-04-05T09:38:30.000Z</time>
      </trkpt>
      <trkpt lat="47.04707" lon="-1.68518">
        <ele>55</ele>
        <time>2021-04-05T09:38:32.000Z</time>
      </trkpt>
      <trkpt lat="47.04702" lon="-1.68501">
        <ele>55</ele>
        <time>2021-04-05T09:38:34.000Z</time>
      </trkpt>
      <trkpt lat="47.04698" lon="-1.68484">
        <ele>55</ele>
        <time>2021-04-05T09:38:36.000Z</time>
      </trkpt>
      <trkpt lat="47.04694" lon="-1.68468">
        <ele>55</ele>
        <time>2021-04-05T09:38:38.000Z</time>
      </trkpt>
      <trkpt lat="47.0469" lon="-1.6845">
        <ele>55</ele>
        <time>2021-04-05T09:38:40.000Z</time>
      </trkpt>
      <trkpt lat="47.04685" lon="-1.68434">
        <ele>55</ele>
        <time>2021-04-05T09:38:42.000Z</time>
      </trkpt>
      <trkpt lat="47.04681" lon="-1.68416">
        <ele>54</ele>
        <time>2021-04-05T09:38:44.000Z</time>
      </trkpt>
      <trkpt lat="47.04676" lon="-1.68397">
        <ele>54</ele>
        <time>2021-04-05T09:38:46.000Z</time>
      </trkpt>
      <trkpt lat="47.04671" lon="-1.68379">
        <ele>54</ele>
        <time>2021-04-05T09:38:48.000Z</time>
      </trkpt>
      <trkpt lat="47.04666" lon="-1.68361">
        <ele>55</ele>
        <time>2021-04-05T09:38:50.000Z</time>
      </trkpt>
      <trkpt lat="47.04661" lon="-1.68344">
        <ele>55</ele>
        <time>2021-04-05T09:38:52.000Z</time>
      </trkpt>
      <trkpt lat="47.04657" lon="-1.68326">
        <ele>54</ele>
        <time>2021-04-05T09:38:54.000Z</time>
      </trkpt>
      <trkpt lat="47.04652" lon="-1.68307">
        <ele>55</ele>
        <time>2021-04-05T09:38:56.000Z</time>
      </trkpt>
      <trkpt lat="47.04647" lon="-1.68289">
        <ele>55</ele>
        <time>2021-04-05T09:38:58.000Z</time>
      </trkpt>
      <trkpt lat="47.04642" lon="-1.6827">
        <ele>55</ele>
        <time>2021-04-05T09:39:00.000Z</time>
      </trkpt>
      <trkpt lat="47.04637" lon="-1.68251">
        <ele>55</ele>
        <time>2021-04-05T09:39:02.000Z</time>
      </trkpt>
      <trkpt lat="47.04632" lon="-1.68232">
        <ele>54</ele>
        <time>2021-04-05T09:39:04.000Z</time>
      </trkpt>
      <trkpt lat="47.04627" lon="-1.68213">
        <ele>53</ele>
        <time>2021-04-05T09:39:06.000Z</time>
      </trkpt>
      <trkpt lat="47.04623" lon="-1.68194">
        <ele>53</ele>
        <time>2021-04-05T09:39:08.000Z</time>
      </trkpt>
      <trkpt lat="47.04618" lon="-1.68175">
        <ele>52</ele>
        <time>2021-04-05T09:39:10.000Z</time>
      </trkpt>
      <trkpt lat="47.04614" lon="-1.68156">
        <ele>52</ele>
        <time>2021-04-05T09:39:12.000Z</time>
      </trkpt>
      <trkpt lat="47.04609" lon="-1.68137">
        <ele>52</ele>
        <time>2021-04-05T09:39:14.000Z</time>
      </trkpt>
      <trkpt lat="47.04604" lon="-1.68119">
        <ele>52</ele>
        <time>2021-04-05T09:39:16.000Z</time>
      </trkpt>
      <trkpt lat="47.046" lon="-1.68101">
        <ele>52</ele>
        <time>2021-04-05T09:39:18.000Z</time>
      </trkpt>
      <trkpt lat="47.04595" lon="-1.68084">
        <ele>52</ele>
        <time>2021-04-05T09:39:20.000Z</time>
      </trkpt>
      <trkpt lat="47.04591" lon="-1.68067">
        <ele>51</ele>
        <time>2021-04-05T09:39:22.000Z</time>
      </trkpt>
      <trkpt lat="47.04587" lon="-1.68049">
        <ele>51</ele>
        <time>2021-04-05T09:39:24.000Z</time>
      </trkpt>
      <trkpt lat="47.04582" lon="-1.68032">
        <ele>51</ele>
        <time>2021-04-05T09:39:26.000Z</time>
      </trkpt>
      <trkpt lat="47.04578" lon="-1.68014">
        <ele>51</ele>
        <time>2021-04-05T09:39:28.000Z</time>
      </trkpt>
      <trkpt lat="47.04573" lon="-1.67996">
        <ele>52</ele>
        <time>2021-04-05T09:39:30.000Z</time>
      </trkpt>
      <trkpt lat="47.04569" lon="-1.67978">
        <ele>52</ele>
        <time>2021-04-05T09:39:32.000Z</time>
      </trkpt>
      <trkpt lat="47.04563" lon="-1.67959">
        <ele>53</ele>
        <time>2021-04-05T09:39:34.000Z</time>
      </trkpt>
      <trkpt lat="47.04559" lon="-1.67941">
        <ele>53</ele>
        <time>2021-04-05T09:39:36.000Z</time>
      </trkpt>
      <trkpt lat="47.04555" lon="-1.67924">
        <ele>53</ele>
        <time>2021-04-05T09:39:38.000Z</time>
      </trkpt>
      <trkpt lat="47.0455" lon="-1.67908">
        <ele>54</ele>
        <time>2021-04-05T09:39:40.000Z</time>
      </trkpt>
      <trkpt lat="47.04546" lon="-1.67891">
        <ele>54</ele>
        <time>2021-04-05T09:39:42.000Z</time>
      </trkpt>
      <trkpt lat="47.04542" lon="-1.67873">
        <ele>54</ele>
        <time>2021-04-05T09:39:44.000Z</time>
      </trkpt>
      <trkpt lat="47.04537" lon="-1.67856">
        <ele>54</ele>
        <time>2021-04-05T09:39:46.000Z</time>
      </trkpt>
      <trkpt lat="47.04532" lon="-1.67839">
        <ele>55</ele>
        <time>2021-04-05T09:39:48.000Z</time>
      </trkpt>
      <trkpt lat="47.04528" lon="-1.67822">
        <ele>54</ele>
        <time>2021-04-05T09:39:50.000Z</time>
      </trkpt>
      <trkpt lat="47.04523" lon="-1.67804">
        <ele>55</ele>
        <time>2021-04-05T09:39:52.000Z</time>
      </trkpt>
      <trkpt lat="47.04519" lon="-1.67786">
        <ele>55</ele>
        <time>2021-04-05T09:39:54.000Z</time>
      </trkpt>
      <trkpt lat="47.04514" lon="-1.67769">
        <ele>54</ele>
        <time>2021-04-05T09:39:56.000Z</time>
      </trkpt>
      <trkpt lat="47.04509" lon="-1.67752">
        <ele>54</ele>
        <time>2021-04-05T09:39:58.000Z</time>
      </trkpt>
      <trkpt lat="47.04505" lon="-1.67734">
        <ele>54</ele>
        <time>2021-04-05T09:40:00.000Z</time>
      </trkpt>
      <trkpt lat="47.04501" lon="-1.67716">
        <ele>54</ele>
        <time>2021-04-05T09:40:02.000Z</time>
      </trkpt>
      <trkpt lat="47.04496" lon="-1.67699">
        <ele>53</ele>
        <time>2021-04-05T09:40:04.000Z</time>
      </trkpt>
      <trkpt lat="47.04491" lon="-1.6768">
        <ele>53</ele>
        <time>2021-04-05T09:40:06.000Z</time>
      </trkpt>
      <trkpt lat="47.04486" lon="-1.67662">
        <ele>54</ele>
        <time>2021-04-05T09:40:08.000Z</time>
      </trkpt>
      <trkpt lat="47.04481" lon="-1.67644">
        <ele>53</ele>
        <time>2021-04-05T09:40:10.000Z</time>
      </trkpt>
      <trkpt lat="47.04476" lon="-1.67626">
        <ele>53</ele>
        <time>2021-04-05T09:40:12.000Z</time>
      </trkpt>
      <trkpt lat="47.04471" lon="-1.67607">
        <ele>53</ele>
        <time>2021-04-05T09:40:14.000Z</time>
      </trkpt>
      <trkpt lat="47.04467" lon="-1.67587">
        <ele>54</ele>
        <time>2021-04-05T09:40:16.000Z</time>
      </trkpt>
      <trkpt lat="47.04462" lon="-1.67567">
        <ele>53</ele>
        <time>2021-04-05T09:40:18.000Z</time>
      </trkpt>
      <trkpt lat="47.04457" lon="-1.67548">
        <ele>53</ele>
        <time>2021-04-05T09:40:20.000Z</time>
      </trkpt>
      <trkpt lat="47.04452" lon="-1.67527">
        <ele>53</ele>
        <time>2021-04-05T09:40:22.000Z</time>
      </trkpt>
      <trkpt lat="47.04446" lon="-1.67507">
        <ele>52</ele>
        <time>2021-04-05T09:40:24.000Z</time>
      </trkpt>
      <trkpt lat="47.04442" lon="-1.67487">
        <ele>52</ele>
        <time>2021-04-05T09:40:26.000Z</time>
      </trkpt>
      <trkpt lat="47.04436" lon="-1.67467">
        <ele>52</ele>
        <time>2021-04-05T09:40:28.000Z</time>
      </trkpt>
      <trkpt lat="47.04431" lon="-1.67447">
        <ele>51</ele>
        <time>2021-04-05T09:40:30.000Z</time>
      </trkpt>
      <trkpt lat="47.04426" lon="-1.67427">
        <ele>51</ele>
        <time>2021-04-05T09:40:32.000Z</time>
      </trkpt>
      <trkpt lat="47.04421" lon="-1.67407">
        <ele>50</ele>
        <time>2021-04-05T09:40:34.000Z</time>
      </trkpt>
      <trkpt lat="47.04416" lon="-1.67387">
        <ele>50</ele>
        <time>2021-04-05T09:40:36.000Z</time>
      </trkpt>
      <trkpt lat="47.04411" lon="-1.67368">
        <ele>50</ele>
        <time>2021-04-05T09:40:38.000Z</time>
      </trkpt>
      <trkpt lat="47.04405" lon="-1.6735">
        <ele>50</ele>
        <time>2021-04-05T09:40:40.000Z</time>
      </trkpt>
      <trkpt lat="47.044" lon="-1.67332">
        <ele>50</ele>
        <time>2021-04-05T09:40:42.000Z</time>
      </trkpt>
      <trkpt lat="47.04395" lon="-1.67313">
        <ele>50</ele>
        <time>2021-04-05T09:40:44.000Z</time>
      </trkpt>
      <trkpt lat="47.0439" lon="-1.67295">
        <ele>50</ele>
        <time>2021-04-05T09:40:46.000Z</time>
      </trkpt>
      <trkpt lat="47.04386" lon="-1.67276">
        <ele>49</ele>
        <time>2021-04-05T09:40:48.000Z</time>
      </trkpt>
      <trkpt lat="47.04382" lon="-1.67257">
        <ele>49</ele>
        <time>2021-04-05T09:40:50.000Z</time>
      </trkpt>
      <trkpt lat="47.04377" lon="-1.67238">
        <ele>48</ele>
        <time>2021-04-05T09:40:52.000Z</time>
      </trkpt>
      <trkpt lat="47.04372" lon="-1.6722">
        <ele>48</ele>
        <time>2021-04-05T09:40:54.000Z</time>
      </trkpt>
      <trkpt lat="47.04367" lon="-1.67201">
        <ele>49</ele>
        <time>2021-04-05T09:40:56.000Z</time>
      </trkpt>
      <trkpt lat="47.04362" lon="-1.67182">
        <ele>50</ele>
        <time>2021-04-05T09:40:58.000Z</time>
      </trkpt>
      <trkpt lat="47.04357" lon="-1.67163">
        <ele>50</ele>
        <time>2021-04-05T09:41:00.000Z</time>
      </trkpt>
      <trkpt lat="47.04353" lon="-1.67145">
        <ele>50</ele>
        <time>2021-04-05T09:41:02.000Z</time>
      </trkpt>
      <trkpt lat="47.04348" lon="-1.67127">
        <ele>50</ele>
        <time>2021-04-05T09:41:04.000Z</time>
      </trkpt>
      <trkpt lat="47.04343" lon="-1.67109">
        <ele>49</ele>
        <time>2021-04-05T09:41:06.000Z</time>
      </trkpt>
      <trkpt lat="47.04338" lon="-1.67089">
        <ele>49</ele>
        <time>2021-04-05T09:41:08.000Z</time>
      </trkpt>
      <trkpt lat="47.04333" lon="-1.6707">
        <ele>49</ele>
        <time>2021-04-05T09:41:10.000Z</time>
      </trkpt>
      <trkpt lat="47.04328" lon="-1.67051">
        <ele>49</ele>
        <time>2021-04-05T09:41:12.000Z</time>
      </trkpt>
      <trkpt lat="47.04323" lon="-1.67032">
        <ele>49</ele>
        <time>2021-04-05T09:41:14.000Z</time>
      </trkpt>
      <trkpt lat="47.04319" lon="-1.67013">
        <ele>48</ele>
        <time>2021-04-05T09:41:16.000Z</time>
      </trkpt>
      <trkpt lat="47.04314" lon="-1.66995">
        <ele>48</ele>
        <time>2021-04-05T09:41:18.000Z</time>
      </trkpt>
      <trkpt lat="47.04309" lon="-1.66976">
        <ele>48</ele>
        <time>2021-04-05T09:41:20.000Z</time>
      </trkpt>
      <trkpt lat="47.04304" lon="-1.66958">
        <ele>48</ele>
        <time>2021-04-05T09:41:22.000Z</time>
      </trkpt>
      <trkpt lat="47.04299" lon="-1.66939">
        <ele>48</ele>
        <time>2021-04-05T09:41:24.000Z</time>
      </trkpt>
      <trkpt lat="47.04295" lon="-1.6692">
        <ele>48</ele>
        <time>2021-04-05T09:41:26.000Z</time>
      </trkpt>
      <trkpt lat="47.0429" lon="-1.66902">
        <ele>48</ele>
        <time>2021-04-05T09:41:28.000Z</time>
      </trkpt>
      <trkpt lat="47.04286" lon="-1.66883">
        <ele>48</ele>
        <time>2021-04-05T09:41:30.000Z</time>
      </trkpt>
      <trkpt lat="47.04281" lon="-1.66865">
        <ele>48</ele>
        <time>2021-04-05T09:41:32.000Z</time>
      </trkpt>
      <trkpt lat="47.04276" lon="-1.66845">
        <ele>48</ele>
        <time>2021-04-05T09:41:34.000Z</time>
      </trkpt>
      <trkpt lat="47.04271" lon="-1.66826">
        <ele>47</ele>
        <time>2021-04-05T09:41:36.000Z</time>
      </trkpt>
      <trkpt lat="47.04265" lon="-1.66807">
        <ele>47</ele>
        <time>2021-04-05T09:41:38.000Z</time>
      </trkpt>
      <trkpt lat="47.04259" lon="-1.66788">
        <ele>47</ele>
        <time>2021-04-05T09:41:40.000Z</time>
      </trkpt>
      <trkpt lat="47.04255" lon="-1.66768">
        <ele>46</ele>
        <time>2021-04-05T09:41:42.000Z</time>
      </trkpt>
      <trkpt lat="47.04251" lon="-1.66749">
        <ele>46</ele>
        <time>2021-04-05T09:41:44.000Z</time>
      </trkpt>
      <trkpt lat="47.04246" lon="-1.66731">
        <ele>46</ele>
        <time>2021-04-05T09:41:46.000Z</time>
      </trkpt>
      <trkpt lat="47.04242" lon="-1.66713">
        <ele>45</ele>
        <time>2021-04-05T09:41:48.000Z</time>
      </trkpt>
      <trkpt lat="47.04238" lon="-1.66695">
        <ele>45</ele>
        <time>2021-04-05T09:41:50.000Z</time>
      </trkpt>
      <trkpt lat="47.04233" lon="-1.66678">
        <ele>45</ele>
        <time>2021-04-05T09:41:52.000Z</time>
      </trkpt>
      <trkpt lat="47.04228" lon="-1.6666">
        <ele>45</ele>
        <time>2021-04-05T09:41:54.000Z</time>
      </trkpt>
      <trkpt lat="47.04224" lon="-1.66641">
        <ele>45</ele>
        <time>2021-04-05T09:41:56.000Z</time>
      </trkpt>
      <trkpt lat="47.0422" lon="-1.66622">
        <ele>44</ele>
        <time>2021-04-05T09:41:58.000Z</time>
      </trkpt>
      <trkpt lat="47.04215" lon="-1.66602">
        <ele>44</ele>
        <time>2021-04-05T09:42:00.000Z</time>
      </trkpt>
      <trkpt lat="47.0421" lon="-1.66583">
        <ele>44</ele>
        <time>2021-04-05T09:42:02.000Z</time>
      </trkpt>
      <trkpt lat="47.04204" lon="-1.66565">
        <ele>45</ele>
        <time>2021-04-05T09:42:04.000Z</time>
      </trkpt>
      <trkpt lat="47.04199" lon="-1.66546">
        <ele>46</ele>
        <time>2021-04-05T09:42:06.000Z</time>
      </trkpt>
      <trkpt lat="47.04195" lon="-1.66527">
        <ele>46</ele>
        <time>2021-04-05T09:42:08.000Z</time>
      </trkpt>
      <trkpt lat="47.0419" lon="-1.66509">
        <ele>46</ele>
        <time>2021-04-05T09:42:10.000Z</time>
      </trkpt>
      <trkpt lat="47.04186" lon="-1.6649">
        <ele>45</ele>
        <time>2021-04-05T09:42:12.000Z</time>
      </trkpt>
      <trkpt lat="47.04181" lon="-1.66471">
        <ele>45</ele>
        <time>2021-04-05T09:42:14.000Z</time>
      </trkpt>
      <trkpt lat="47.04176" lon="-1.66453">
        <ele>46</ele>
        <time>2021-04-05T09:42:16.000Z</time>
      </trkpt>
      <trkpt lat="47.04171" lon="-1.66435">
        <ele>47</ele>
        <time>2021-04-05T09:42:18.000Z</time>
      </trkpt>
      <trkpt lat="47.04166" lon="-1.66417">
        <ele>47</ele>
        <time>2021-04-05T09:42:20.000Z</time>
      </trkpt>
      <trkpt lat="47.0416" lon="-1.66399">
        <ele>48</ele>
        <time>2021-04-05T09:42:22.000Z</time>
      </trkpt>
      <trkpt lat="47.04156" lon="-1.6638">
        <ele>48</ele>
        <time>2021-04-05T09:42:24.000Z</time>
      </trkpt>
      <trkpt lat="47.04151" lon="-1.66362">
        <ele>48</ele>
        <time>2021-04-05T09:42:26.000Z</time>
      </trkpt>
      <trkpt lat="47.04146" lon="-1.66344">
        <ele>48</ele>
        <time>2021-04-05T09:42:28.000Z</time>
      </trkpt>
      <trkpt lat="47.04142" lon="-1.66325">
        <ele>48</ele>
        <time>2021-04-05T09:42:30.000Z</time>
      </trkpt>
      <trkpt lat="47.04137" lon="-1.66307">
        <ele>47</ele>
        <time>2021-04-05T09:42:32.000Z</time>
      </trkpt>
      <trkpt lat="47.04133" lon="-1.66288">
        <ele>47</ele>
        <time>2021-04-05T09:42:34.000Z</time>
      </trkpt>
      <trkpt lat="47.04128" lon="-1.6627">
        <ele>47</ele>
        <time>2021-04-05T09:42:36.000Z</time>
      </trkpt>
      <trkpt lat="47.04123" lon="-1.66252">
        <ele>48</ele>
        <time>2021-04-05T09:42:38.000Z</time>
      </trkpt>
      <trkpt lat="47.04118" lon="-1.66234">
        <ele>48</ele>
        <time>2021-04-05T09:42:40.000Z</time>
      </trkpt>
      <trkpt lat="47.04114" lon="-1.66217">
        <ele>48</ele>
        <time>2021-04-05T09:42:42.000Z</time>
      </trkpt>
      <trkpt lat="47.04109" lon="-1.662">
        <ele>48</ele>
        <time>2021-04-05T09:42:44.000Z</time>
      </trkpt>
      <trkpt lat="47.04105" lon="-1.66183">
        <ele>48</ele>
        <time>2021-04-05T09:42:46.000Z</time>
      </trkpt>
      <trkpt lat="47.041" lon="-1.66165">
        <ele>48</ele>
        <time>2021-04-05T09:42:48.000Z</time>
      </trkpt>
      <trkpt lat="47.04095" lon="-1.66148">
        <ele>49</ele>
        <time>2021-04-05T09:42:50.000Z</time>
      </trkpt>
      <trkpt lat="47.04091" lon="-1.66131">
        <ele>48</ele>
        <time>2021-04-05T09:42:52.000Z</time>
      </trkpt>
      <trkpt lat="47.04087" lon="-1.66113">
        <ele>48</ele>
        <time>2021-04-05T09:42:54.000Z</time>
      </trkpt>
      <trkpt lat="47.04082" lon="-1.66095">
        <ele>48</ele>
        <time>2021-04-05T09:42:56.000Z</time>
      </trkpt>
      <trkpt lat="47.04078" lon="-1.66078">
        <ele>48</ele>
        <time>2021-04-05T09:42:58.000Z</time>
      </trkpt>
      <trkpt lat="47.04074" lon="-1.66059">
        <ele>48</ele>
        <time>2021-04-05T09:43:00.000Z</time>
      </trkpt>
      <trkpt lat="47.04069" lon="-1.66041">
        <ele>49</ele>
        <time>2021-04-05T09:43:02.000Z</time>
      </trkpt>
      <trkpt lat="47.04065" lon="-1.66023">
        <ele>48</ele>
        <time>2021-04-05T09:43:04.000Z</time>
      </trkpt>
      <trkpt lat="47.04059" lon="-1.66007">
        <ele>49</ele>
        <time>2021-04-05T09:43:06.000Z</time>
      </trkpt>
      <trkpt lat="47.04054" lon="-1.6599">
        <ele>49</ele>
        <time>2021-04-05T09:43:08.000Z</time>
      </trkpt>
      <trkpt lat="47.04049" lon="-1.65972">
        <ele>50</ele>
        <time>2021-04-05T09:43:10.000Z</time>
      </trkpt>
      <trkpt lat="47.04043" lon="-1.65955">
        <ele>50</ele>
        <time>2021-04-05T09:43:12.000Z</time>
      </trkpt>
      <trkpt lat="47.04038" lon="-1.65937">
        <ele>50</ele>
        <time>2021-04-05T09:43:14.000Z</time>
      </trkpt>
      <trkpt lat="47.04034" lon="-1.65918">
        <ele>49</ele>
        <time>2021-04-05T09:43:16.000Z</time>
      </trkpt>
      <trkpt lat="47.04028" lon="-1.659">
        <ele>49</ele>
        <time>2021-04-05T09:43:18.000Z</time>
      </trkpt>
      <trkpt lat="47.04023" lon="-1.65882">
        <ele>50</ele>
        <time>2021-04-05T09:43:20.000Z</time>
      </trkpt>
      <trkpt lat="47.04018" lon="-1.65863">
        <ele>50</ele>
        <time>2021-04-05T09:43:22.000Z</time>
      </trkpt>
      <trkpt lat="47.04012" lon="-1.65844">
        <ele>50</ele>
        <time>2021-04-05T09:43:24.000Z</time>
      </trkpt>
      <trkpt lat="47.04008" lon="-1.65826">
        <ele>49</ele>
        <time>2021-04-05T09:43:26.000Z</time>
      </trkpt>
      <trkpt lat="47.04003" lon="-1.65807">
        <ele>48</ele>
        <time>2021-04-05T09:43:28.000Z</time>
      </trkpt>
      <trkpt lat="47.03998" lon="-1.65789">
        <ele>49</ele>
        <time>2021-04-05T09:43:30.000Z</time>
      </trkpt>
      <trkpt lat="47.03992" lon="-1.65771">
        <ele>50</ele>
        <time>2021-04-05T09:43:32.000Z</time>
      </trkpt>
      <trkpt lat="47.03987" lon="-1.65752">
        <ele>50</ele>
        <time>2021-04-05T09:43:34.000Z</time>
      </trkpt>
      <trkpt lat="47.03982" lon="-1.65734">
        <ele>50</ele>
        <time>2021-04-05T09:43:36.000Z</time>
      </trkpt>
      <trkpt lat="47.03977" lon="-1.65715">
        <ele>49</ele>
        <time>2021-04-05T09:43:38.000Z</time>
      </trkpt>
      <trkpt lat="47.03972" lon="-1.65697">
        <ele>50</ele>
        <time>2021-04-05T09:43:40.000Z</time>
      </trkpt>
      <trkpt lat="47.03966" lon="-1.65679">
        <ele>49</ele>
        <time>2021-04-05T09:43:42.000Z</time>
      </trkpt>
      <trkpt lat="47.03961" lon="-1.65661">
        <ele>50</ele>
        <time>2021-04-05T09:43:44.000Z</time>
      </trkpt>
      <trkpt lat="47.03957" lon="-1.65643">
        <ele>50</ele>
        <time>2021-04-05T09:43:46.000Z</time>
      </trkpt>
      <trkpt lat="47.03952" lon="-1.65625">
        <ele>50</ele>
        <time>2021-04-05T09:43:48.000Z</time>
      </trkpt>
      <trkpt lat="47.03947" lon="-1.65607">
        <ele>50</ele>
        <time>2021-04-05T09:43:50.000Z</time>
      </trkpt>
      <trkpt lat="47.03942" lon="-1.65589">
        <ele>49</ele>
        <time>2021-04-05T09:43:52.000Z</time>
      </trkpt>
      <trkpt lat="47.03937" lon="-1.65572">
        <ele>49</ele>
        <time>2021-04-05T09:43:54.000Z</time>
      </trkpt>
      <trkpt lat="47.03932" lon="-1.65554">
        <ele>49</ele>
        <time>2021-04-05T09:43:56.000Z</time>
      </trkpt>
      <trkpt lat="47.03928" lon="-1.65536">
        <ele>49</ele>
        <time>2021-04-05T09:43:58.000Z</time>
      </trkpt>
      <trkpt lat="47.03923" lon="-1.65519">
        <ele>50</ele>
        <time>2021-04-05T09:44:00.000Z</time>
      </trkpt>
      <trkpt lat="47.03918" lon="-1.65501">
        <ele>50</ele>
        <time>2021-04-05T09:44:02.000Z</time>
      </trkpt>
      <trkpt lat="47.03912" lon="-1.65484">
        <ele>50</ele>
        <time>2021-04-05T09:44:04.000Z</time>
      </trkpt>
      <trkpt lat="47.03907" lon="-1.65466">
        <ele>50</ele>
        <time>2021-04-05T09:44:06.000Z</time>
      </trkpt>
      <trkpt lat="47.03903" lon="-1.65449">
        <ele>51</ele>
        <time>2021-04-05T09:44:08.000Z</time>
      </trkpt>
      <trkpt lat="47.03898" lon="-1.65431">
        <ele>50</ele>
        <time>2021-04-05T09:44:10.000Z</time>
      </trkpt>
      <trkpt lat="47.03892" lon="-1.65414">
        <ele>51</ele>
        <time>2021-04-05T09:44:12.000Z</time>
      </trkpt>
      <trkpt lat="47.03887" lon="-1.65396">
        <ele>51</ele>
        <time>2021-04-05T09:44:14.000Z</time>
      </trkpt>
      <trkpt lat="47.03882" lon="-1.65379">
        <ele>51</ele>
        <time>2021-04-05T09:44:16.000Z</time>
      </trkpt>
      <trkpt lat="47.03876" lon="-1.65363">
        <ele>52</ele>
        <time>2021-04-05T09:44:18.000Z</time>
      </trkpt>
      <trkpt lat="47.03868" lon="-1.65349">
        <ele>52</ele>
        <time>2021-04-05T09:44:20.000Z</time>
      </trkpt>
      <trkpt lat="47.0386" lon="-1.65336">
        <ele>51</ele>
        <time>2021-04-05T09:44:22.000Z</time>
      </trkpt>
      <trkpt lat="47.03855" lon="-1.65322">
        <ele>52</ele>
        <time>2021-04-05T09:44:24.000Z</time>
      </trkpt>
      <trkpt lat="47.03859" lon="-1.65305">
        <ele>52</ele>
        <time>2021-04-05T09:44:26.000Z</time>
      </trkpt>
      <trkpt lat="47.03866" lon="-1.65291">
        <ele>52</ele>
        <time>2021-04-05T09:44:28.000Z</time>
      </trkpt>
      <trkpt lat="47.03877" lon="-1.65279">
        <ele>52</ele>
        <time>2021-04-05T09:44:30.000Z</time>
      </trkpt>
      <trkpt lat="47.03889" lon="-1.65271">
        <ele>53</ele>
        <time>2021-04-05T09:44:32.000Z</time>
      </trkpt>
      <trkpt lat="47.039" lon="-1.65264">
        <ele>53</ele>
        <time>2021-04-05T09:44:34.000Z</time>
      </trkpt>
      <trkpt lat="47.03911" lon="-1.65256">
        <ele>53</ele>
        <time>2021-04-05T09:44:36.000Z</time>
      </trkpt>
      <trkpt lat="47.03922" lon="-1.65249">
        <ele>53</ele>
        <time>2021-04-05T09:44:38.000Z</time>
      </trkpt>
      <trkpt lat="47.03934" lon="-1.65241">
        <ele>54</ele>
        <time>2021-04-05T09:44:40.000Z</time>
      </trkpt>
      <trkpt lat="47.03946" lon="-1.65233">
        <ele>54</ele>
        <time>2021-04-05T09:44:42.000Z</time>
      </trkpt>
      <trkpt lat="47.03958" lon="-1.65224">
        <ele>54</ele>
        <time>2021-04-05T09:44:44.000Z</time>
      </trkpt>
      <trkpt lat="47.0397" lon="-1.65216">
        <ele>53</ele>
        <time>2021-04-05T09:44:46.000Z</time>
      </trkpt>
      <trkpt lat="47.03982" lon="-1.65208">
        <ele>54</ele>
        <time>2021-04-05T09:44:48.000Z</time>
      </trkpt>
      <trkpt lat="47.03993" lon="-1.652">
        <ele>53</ele>
        <time>2021-04-05T09:44:50.000Z</time>
      </trkpt>
      <trkpt lat="47.04005" lon="-1.65192">
        <ele>54</ele>
        <time>2021-04-05T09:44:52.000Z</time>
      </trkpt>
      <trkpt lat="47.04016" lon="-1.65183">
        <ele>53</ele>
        <time>2021-04-05T09:44:54.000Z</time>
      </trkpt>
      <trkpt lat="47.04029" lon="-1.65175">
        <ele>53</ele>
        <time>2021-04-05T09:44:56.000Z</time>
      </trkpt>
      <trkpt lat="47.0404" lon="-1.65166">
        <ele>53</ele>
        <time>2021-04-05T09:44:58.000Z</time>
      </trkpt>
      <trkpt lat="47.04052" lon="-1.65158">
        <ele>53</ele>
        <time>2021-04-05T09:45:00.000Z</time>
      </trkpt>
      <trkpt lat="47.04064" lon="-1.6515">
        <ele>52</ele>
        <time>2021-04-05T09:45:02.000Z</time>
      </trkpt>
      <trkpt lat="47.04076" lon="-1.65142">
        <ele>52</ele>
        <time>2021-04-05T09:45:04.000Z</time>
      </trkpt>
      <trkpt lat="47.04088" lon="-1.65134">
        <ele>52</ele>
        <time>2021-04-05T09:45:06.000Z</time>
      </trkpt>
      <trkpt lat="47.04099" lon="-1.65126">
        <ele>52</ele>
        <time>2021-04-05T09:45:08.000Z</time>
      </trkpt>
      <trkpt lat="47.04111" lon="-1.65118">
        <ele>52</ele>
        <time>2021-04-05T09:45:10.000Z</time>
      </trkpt>
      <trkpt lat="47.04123" lon="-1.65109">
        <ele>52</ele>
        <time>2021-04-05T09:45:12.000Z</time>
      </trkpt>
      <trkpt lat="47.04134" lon="-1.65101">
        <ele>52</ele>
        <time>2021-04-05T09:45:14.000Z</time>
      </trkpt>
      <trkpt lat="47.04145" lon="-1.65094">
        <ele>51</ele>
        <time>2021-04-05T09:45:16.000Z</time>
      </trkpt>
      <trkpt lat="47.04157" lon="-1.65086">
        <ele>51</ele>
        <time>2021-04-05T09:45:18.000Z</time>
      </trkpt>
      <trkpt lat="47.04168" lon="-1.65079">
        <ele>51</ele>
        <time>2021-04-05T09:45:20.000Z</time>
      </trkpt>
      <trkpt lat="47.0418" lon="-1.65071">
        <ele>51</ele>
        <time>2021-04-05T09:45:22.000Z</time>
      </trkpt>
      <trkpt lat="47.04191" lon="-1.65063">
        <ele>51</ele>
        <time>2021-04-05T09:45:24.000Z</time>
      </trkpt>
      <trkpt lat="47.04203" lon="-1.65054">
        <ele>51</ele>
        <time>2021-04-05T09:45:26.000Z</time>
      </trkpt>
      <trkpt lat="47.04214" lon="-1.65046">
        <ele>51</ele>
        <time>2021-04-05T09:45:28.000Z</time>
      </trkpt>
      <trkpt lat="47.04226" lon="-1.65039">
        <ele>51</ele>
        <time>2021-04-05T09:45:30.000Z</time>
      </trkpt>
      <trkpt lat="47.04237" lon="-1.65031">
        <ele>51</ele>
        <time>2021-04-05T09:45:32.000Z</time>
      </trkpt>
      <trkpt lat="47.04249" lon="-1.65022">
        <ele>51</ele>
        <time>2021-04-05T09:45:34.000Z</time>
      </trkpt>
      <trkpt lat="47.04261" lon="-1.65014">
        <ele>50</ele>
        <time>2021-04-05T09:45:36.000Z</time>
      </trkpt>
      <trkpt lat="47.04273" lon="-1.65006">
        <ele>50</ele>
        <time>2021-04-05T09:45:38.000Z</time>
      </trkpt>
      <trkpt lat="47.04284" lon="-1.64997">
        <ele>50</ele>
        <time>2021-04-05T09:45:40.000Z</time>
      </trkpt>
      <trkpt lat="47.04296" lon="-1.64988">
        <ele>50</ele>
        <time>2021-04-05T09:45:42.000Z</time>
      </trkpt>
      <trkpt lat="47.04307" lon="-1.64979">
        <ele>50</ele>
        <time>2021-04-05T09:45:44.000Z</time>
      </trkpt>
      <trkpt lat="47.04318" lon="-1.6497">
        <ele>50</ele>
        <time>2021-04-05T09:45:46.000Z</time>
      </trkpt>
      <trkpt lat="47.04329" lon="-1.64961">
        <ele>51</ele>
        <time>2021-04-05T09:45:48.000Z</time>
      </trkpt>
      <trkpt lat="47.04339" lon="-1.64953">
        <ele>51</ele>
        <time>2021-04-05T09:45:50.000Z</time>
      </trkpt>
      <trkpt lat="47.04349" lon="-1.64944">
        <ele>51</ele>
        <time>2021-04-05T09:45:52.000Z</time>
      </trkpt>
      <trkpt lat="47.0436" lon="-1.64935">
        <ele>51</ele>
        <time>2021-04-05T09:45:54.000Z</time>
      </trkpt>
      <trkpt lat="47.04371" lon="-1.64926">
        <ele>51</ele>
        <time>2021-04-05T09:45:56.000Z</time>
      </trkpt>
      <trkpt lat="47.04382" lon="-1.64916">
        <ele>51</ele>
        <time>2021-04-05T09:45:58.000Z</time>
      </trkpt>
      <trkpt lat="47.04393" lon="-1.64908">
        <ele>51</ele>
        <time>2021-04-05T09:46:00.000Z</time>
      </trkpt>
      <trkpt lat="47.04403" lon="-1.64899">
        <ele>51</ele>
        <time>2021-04-05T09:46:02.000Z</time>
      </trkpt>
      <trkpt lat="47.04414" lon="-1.64892">
        <ele>51</ele>
        <time>2021-04-05T09:46:04.000Z</time>
      </trkpt>
      <trkpt lat="47.04425" lon="-1.64891">
        <ele>51</ele>
        <time>2021-04-05T09:46:06.000Z</time>
      </trkpt>
      <trkpt lat="47.04436" lon="-1.64893">
        <ele>51</ele>
        <time>2021-04-05T09:46:08.000Z</time>
      </trkpt>
      <trkpt lat="47.04447" lon="-1.64897">
        <ele>51</ele>
        <time>2021-04-05T09:46:10.000Z</time>
      </trkpt>
      <trkpt lat="47.04457" lon="-1.64904">
        <ele>51</ele>
        <time>2021-04-05T09:46:12.000Z</time>
      </trkpt>
      <trkpt lat="47.04469" lon="-1.64907">
        <ele>51</ele>
        <time>2021-04-05T09:46:15.000Z</time>
      </trkpt>
      <trkpt lat="47.04474" lon="-1.64893">
        <ele>50</ele>
        <time>2021-04-05T09:46:18.000Z</time>
      </trkpt>
      <trkpt lat="47.04468" lon="-1.64878">
        <ele>50</ele>
        <time>2021-04-05T09:46:22.000Z</time>
      </trkpt>
      <trkpt lat="47.0446" lon="-1.64868">
        <ele>50</ele>
        <time>2021-04-05T09:46:25.000Z</time>
      </trkpt>
      <trkpt lat="47.04461" lon="-1.64852">
        <ele>50</ele>
        <time>2021-04-05T09:46:29.000Z</time>
      </trkpt>
      <trkpt lat="47.04471" lon="-1.6484">
        <ele>50</ele>
        <time>2021-04-05T09:46:32.000Z</time>
      </trkpt>
      <trkpt lat="47.04481" lon="-1.64826">
        <ele>51</ele>
        <time>2021-04-05T09:46:35.000Z</time>
      </trkpt>
      <trkpt lat="47.04488" lon="-1.64817">
        <ele>51</ele>
        <time>2021-04-05T09:46:37.000Z</time>
      </trkpt>
      <trkpt lat="47.04496" lon="-1.64807">
        <ele>51</ele>
        <time>2021-04-05T09:46:39.000Z</time>
      </trkpt>
      <trkpt lat="47.04503" lon="-1.64795">
        <ele>51</ele>
        <time>2021-04-05T09:46:41.000Z</time>
      </trkpt>
      <trkpt lat="47.04508" lon="-1.64784">
        <ele>50</ele>
        <time>2021-04-05T09:46:43.000Z</time>
      </trkpt>
      <trkpt lat="47.04514" lon="-1.64768">
        <ele>50</ele>
        <time>2021-04-05T09:46:46.000Z</time>
      </trkpt>
      <trkpt lat="47.04519" lon="-1.64751">
        <ele>50</ele>
        <time>2021-04-05T09:46:49.000Z</time>
      </trkpt>
      <trkpt lat="47.04528" lon="-1.64738">
        <ele>50</ele>
        <time>2021-04-05T09:46:52.000Z</time>
      </trkpt>
      <trkpt lat="47.04535" lon="-1.64727">
        <ele>50</ele>
        <time>2021-04-05T09:46:54.000Z</time>
      </trkpt>
      <trkpt lat="47.04542" lon="-1.64717">
        <ele>51</ele>
        <time>2021-04-05T09:46:56.000Z</time>
      </trkpt>
      <trkpt lat="47.04549" lon="-1.64707">
        <ele>51</ele>
        <time>2021-04-05T09:46:58.000Z</time>
      </trkpt>
      <trkpt lat="47.04556" lon="-1.64697">
        <ele>51</ele>
        <time>2021-04-05T09:47:00.000Z</time>
      </trkpt>
      <trkpt lat="47.04564" lon="-1.64692">
        <ele>50</ele>
        <time>2021-04-05T09:47:02.000Z</time>
      </trkpt>
      <trkpt lat="47.04573" lon="-1.64684">
        <ele>51</ele>
        <time>2021-04-05T09:47:04.000Z</time>
      </trkpt>
      <trkpt lat="47.0458" lon="-1.6467">
        <ele>51</ele>
        <time>2021-04-05T09:47:06.000Z</time>
      </trkpt>
      <trkpt lat="47.04588" lon="-1.64657">
        <ele>50</ele>
        <time>2021-04-05T09:47:08.000Z</time>
      </trkpt>
      <trkpt lat="47.04595" lon="-1.64645">
        <ele>50</ele>
        <time>2021-04-05T09:47:10.000Z</time>
      </trkpt>
      <trkpt lat="47.04602" lon="-1.64632">
        <ele>49</ele>
        <time>2021-04-05T09:47:12.000Z</time>
      </trkpt>
      <trkpt lat="47.04608" lon="-1.64618">
        <ele>49</ele>
        <time>2021-04-05T09:47:14.000Z</time>
      </trkpt>
      <trkpt lat="47.04614" lon="-1.64604">
        <ele>49</ele>
        <time>2021-04-05T09:47:16.000Z</time>
      </trkpt>
      <trkpt lat="47.04621" lon="-1.6459">
        <ele>49</ele>
        <time>2021-04-05T09:47:18.000Z</time>
      </trkpt>
      <trkpt lat="47.04628" lon="-1.64576">
        <ele>49</ele>
        <time>2021-04-05T09:47:20.000Z</time>
      </trkpt>
      <trkpt lat="47.04635" lon="-1.64562">
        <ele>49</ele>
        <time>2021-04-05T09:47:22.000Z</time>
      </trkpt>
      <trkpt lat="47.04642" lon="-1.64548">
        <ele>48</ele>
        <time>2021-04-05T09:47:24.000Z</time>
      </trkpt>
      <trkpt lat="47.04649" lon="-1.64533">
        <ele>47</ele>
        <time>2021-04-05T09:47:26.000Z</time>
      </trkpt>
      <trkpt lat="47.04655" lon="-1.64517">
        <ele>48</ele>
        <time>2021-04-05T09:47:28.000Z</time>
      </trkpt>
      <trkpt lat="47.04661" lon="-1.64503">
        <ele>48</ele>
        <time>2021-04-05T09:47:30.000Z</time>
      </trkpt>
      <trkpt lat="47.04667" lon="-1.6449">
        <ele>48</ele>
        <time>2021-04-05T09:47:32.000Z</time>
      </trkpt>
      <trkpt lat="47.04674" lon="-1.64475">
        <ele>48</ele>
        <time>2021-04-05T09:47:34.000Z</time>
      </trkpt>
      <trkpt lat="47.04681" lon="-1.64461">
        <ele>48</ele>
        <time>2021-04-05T09:47:36.000Z</time>
      </trkpt>
      <trkpt lat="47.04688" lon="-1.64448">
        <ele>49</ele>
        <time>2021-04-05T09:47:38.000Z</time>
      </trkpt>
      <trkpt lat="47.04696" lon="-1.64435">
        <ele>49</ele>
        <time>2021-04-05T09:47:40.000Z</time>
      </trkpt>
      <trkpt lat="47.04704" lon="-1.64423">
        <ele>49</ele>
        <time>2021-04-05T09:47:42.000Z</time>
      </trkpt>
      <trkpt lat="47.04712" lon="-1.64409">
        <ele>49</ele>
        <time>2021-04-05T09:47:44.000Z</time>
      </trkpt>
      <trkpt lat="47.04719" lon="-1.64395">
        <ele>49</ele>
        <time>2021-04-05T09:47:46.000Z</time>
      </trkpt>
      <trkpt lat="47.04725" lon="-1.6438">
        <ele>49</ele>
        <time>2021-04-05T09:47:48.000Z</time>
      </trkpt>
      <trkpt lat="47.04731" lon="-1.64367">
        <ele>48</ele>
        <time>2021-04-05T09:47:50.000Z</time>
      </trkpt>
      <trkpt lat="47.04733" lon="-1.64351">
        <ele>48</ele>
        <time>2021-04-05T09:47:52.000Z</time>
      </trkpt>
      <trkpt lat="47.04731" lon="-1.64337">
        <ele>49</ele>
        <time>2021-04-05T09:47:54.000Z</time>
      </trkpt>
      <trkpt lat="47.04731" lon="-1.64321">
        <ele>48</ele>
        <time>2021-04-05T09:47:56.000Z</time>
      </trkpt>
      <trkpt lat="47.04735" lon="-1.64304">
        <ele>48</ele>
        <time>2021-04-05T09:47:58.000Z</time>
      </trkpt>
      <trkpt lat="47.04738" lon="-1.64288">
        <ele>48</ele>
        <time>2021-04-05T09:48:00.000Z</time>
      </trkpt>
      <trkpt lat="47.0474" lon="-1.64272">
        <ele>48</ele>
        <time>2021-04-05T09:48:02.000Z</time>
      </trkpt>
      <trkpt lat="47.04744" lon="-1.64256">
        <ele>48</ele>
        <time>2021-04-05T09:48:04.000Z</time>
      </trkpt>
      <trkpt lat="47.04748" lon="-1.6424">
        <ele>47</ele>
        <time>2021-04-05T09:48:06.000Z</time>
      </trkpt>
      <trkpt lat="47.04751" lon="-1.64224">
        <ele>47</ele>
        <time>2021-04-05T09:48:08.000Z</time>
      </trkpt>
      <trkpt lat="47.04754" lon="-1.64208">
        <ele>47</ele>
        <time>2021-04-05T09:48:10.000Z</time>
      </trkpt>
      <trkpt lat="47.04759" lon="-1.6419">
        <ele>47</ele>
        <time>2021-04-05T09:48:12.000Z</time>
      </trkpt>
      <trkpt lat="47.04763" lon="-1.64174">
        <ele>47</ele>
        <time>2021-04-05T09:48:14.000Z</time>
      </trkpt>
      <trkpt lat="47.04766" lon="-1.64158">
        <ele>47</ele>
        <time>2021-04-05T09:48:16.000Z</time>
      </trkpt>
      <trkpt lat="47.0477" lon="-1.64142">
        <ele>47</ele>
        <time>2021-04-05T09:48:18.000Z</time>
      </trkpt>
      <trkpt lat="47.04774" lon="-1.64126">
        <ele>46</ele>
        <time>2021-04-05T09:48:20.000Z</time>
      </trkpt>
      <trkpt lat="47.04778" lon="-1.64109">
        <ele>46</ele>
        <time>2021-04-05T09:48:22.000Z</time>
      </trkpt>
      <trkpt lat="47.04782" lon="-1.64092">
        <ele>46</ele>
        <time>2021-04-05T09:48:24.000Z</time>
      </trkpt>
      <trkpt lat="47.04786" lon="-1.64076">
        <ele>47</ele>
        <time>2021-04-05T09:48:26.000Z</time>
      </trkpt>
      <trkpt lat="47.04791" lon="-1.6406">
        <ele>46</ele>
        <time>2021-04-05T09:48:28.000Z</time>
      </trkpt>
      <trkpt lat="47.04795" lon="-1.64043">
        <ele>46</ele>
        <time>2021-04-05T09:48:30.000Z</time>
      </trkpt>
      <trkpt lat="47.04799" lon="-1.64027">
        <ele>46</ele>
        <time>2021-04-05T09:48:32.000Z</time>
      </trkpt>
      <trkpt lat="47.04803" lon="-1.64011">
        <ele>46</ele>
        <time>2021-04-05T09:48:34.000Z</time>
      </trkpt>
      <trkpt lat="47.04809" lon="-1.63995">
        <ele>46</ele>
        <time>2021-04-05T09:48:36.000Z</time>
      </trkpt>
      <trkpt lat="47.04815" lon="-1.6398">
        <ele>46</ele>
        <time>2021-04-05T09:48:38.000Z</time>
      </trkpt>
      <trkpt lat="47.04824" lon="-1.63968">
        <ele>46</ele>
        <time>2021-04-05T09:48:40.000Z</time>
      </trkpt>
      <trkpt lat="47.04838" lon="-1.63956">
        <ele>47</ele>
        <time>2021-04-05T09:48:43.000Z</time>
      </trkpt>
      <trkpt lat="47.04849" lon="-1.63946">
        <ele>48</ele>
        <time>2021-04-05T09:48:45.000Z</time>
      </trkpt>
      <trkpt lat="47.04859" lon="-1.63937">
        <ele>49</ele>
        <time>2021-04-05T09:48:47.000Z</time>
      </trkpt>
      <trkpt lat="47.04869" lon="-1.63928">
        <ele>49</ele>
        <time>2021-04-05T09:48:49.000Z</time>
      </trkpt>
      <trkpt lat="47.04879" lon="-1.63919">
        <ele>49</ele>
        <time>2021-04-05T09:48:51.000Z</time>
      </trkpt>
      <trkpt lat="47.04889" lon="-1.6391">
        <ele>50</ele>
        <time>2021-04-05T09:48:53.000Z</time>
      </trkpt>
      <trkpt lat="47.04904" lon="-1.63898">
        <ele>50</ele>
        <time>2021-04-05T09:48:56.000Z</time>
      </trkpt>
      <trkpt lat="47.04913" lon="-1.63888">
        <ele>51</ele>
        <time>2021-04-05T09:48:58.000Z</time>
      </trkpt>
      <trkpt lat="47.04923" lon="-1.63878">
        <ele>50</ele>
        <time>2021-04-05T09:49:00.000Z</time>
      </trkpt>
      <trkpt lat="47.04933" lon="-1.63869">
        <ele>51</ele>
        <time>2021-04-05T09:49:02.000Z</time>
      </trkpt>
      <trkpt lat="47.04943" lon="-1.6386">
        <ele>51</ele>
        <time>2021-04-05T09:49:04.000Z</time>
      </trkpt>
      <trkpt lat="47.04952" lon="-1.63851">
        <ele>51</ele>
        <time>2021-04-05T09:49:06.000Z</time>
      </trkpt>
      <trkpt lat="47.04967" lon="-1.63836">
        <ele>51</ele>
        <time>2021-04-05T09:49:09.000Z</time>
      </trkpt>
      <trkpt lat="47.04977" lon="-1.63826">
        <ele>51</ele>
        <time>2021-04-05T09:49:11.000Z</time>
      </trkpt>
      <trkpt lat="47.04986" lon="-1.63817">
        <ele>51</ele>
        <time>2021-04-05T09:49:13.000Z</time>
      </trkpt>
      <trkpt lat="47.04998" lon="-1.63802">
        <ele>51</ele>
        <time>2021-04-05T09:49:16.000Z</time>
      </trkpt>
      <trkpt lat="47.05005" lon="-1.63781">
        <ele>51</ele>
        <time>2021-04-05T09:49:19.000Z</time>
      </trkpt>
      <trkpt lat="47.05003" lon="-1.63768">
        <ele>52</ele>
        <time>2021-04-05T09:49:21.000Z</time>
      </trkpt>
      <trkpt lat="47.05007" lon="-1.63749">
        <ele>51</ele>
        <time>2021-04-05T09:49:24.000Z</time>
      </trkpt>
      <trkpt lat="47.05008" lon="-1.63731">
        <ele>50</ele>
        <time>2021-04-05T09:49:26.000Z</time>
      </trkpt>
      <trkpt lat="47.05005" lon="-1.6371">
        <ele>50</ele>
        <time>2021-04-05T09:49:28.000Z</time>
      </trkpt>
      <trkpt lat="47.05" lon="-1.63691">
        <ele>50</ele>
        <time>2021-04-05T09:49:30.000Z</time>
      </trkpt>
      <trkpt lat="47.04995" lon="-1.63673">
        <ele>50</ele>
        <time>2021-04-05T09:49:32.000Z</time>
      </trkpt>
      <trkpt lat="47.04989" lon="-1.63646">
        <ele>49</ele>
        <time>2021-04-05T09:49:35.000Z</time>
      </trkpt>
      <trkpt lat="47.04985" lon="-1.63629">
        <ele>49</ele>
        <time>2021-04-05T09:49:37.000Z</time>
      </trkpt>
      <trkpt lat="47.04982" lon="-1.63612">
        <ele>49</ele>
        <time>2021-04-05T09:49:39.000Z</time>
      </trkpt>
      <trkpt lat="47.04983" lon="-1.63591">
        <ele>49</ele>
        <time>2021-04-05T09:49:42.000Z</time>
      </trkpt>
      <trkpt lat="47.04991" lon="-1.63582">
        <ele>49</ele>
        <time>2021-04-05T09:49:44.000Z</time>
      </trkpt>
      <trkpt lat="47.04999" lon="-1.63574">
        <ele>50</ele>
        <time>2021-04-05T09:49:46.000Z</time>
      </trkpt>
      <trkpt lat="47.05009" lon="-1.63566">
        <ele>50</ele>
        <time>2021-04-05T09:49:48.000Z</time>
      </trkpt>
      <trkpt lat="47.05019" lon="-1.63558">
        <ele>51</ele>
        <time>2021-04-05T09:49:50.000Z</time>
      </trkpt>
      <trkpt lat="47.05029" lon="-1.63553">
        <ele>51</ele>
        <time>2021-04-05T09:49:52.000Z</time>
      </trkpt>
      <trkpt lat="47.0504" lon="-1.63548">
        <ele>52</ele>
        <time>2021-04-05T09:49:54.000Z</time>
      </trkpt>
      <trkpt lat="47.0505" lon="-1.63544">
        <ele>52</ele>
        <time>2021-04-05T09:49:56.000Z</time>
      </trkpt>
      <trkpt lat="47.0506" lon="-1.63539">
        <ele>52</ele>
        <time>2021-04-05T09:49:58.000Z</time>
      </trkpt>
      <trkpt lat="47.05069" lon="-1.63534">
        <ele>52</ele>
        <time>2021-04-05T09:50:00.000Z</time>
      </trkpt>
      <trkpt lat="47.05077" lon="-1.63524">
        <ele>52</ele>
        <time>2021-04-05T09:50:02.000Z</time>
      </trkpt>
      <trkpt lat="47.05088" lon="-1.63516">
        <ele>52</ele>
        <time>2021-04-05T09:50:04.000Z</time>
      </trkpt>
      <trkpt lat="47.051" lon="-1.63511">
        <ele>52</ele>
        <time>2021-04-05T09:50:06.000Z</time>
      </trkpt>
      <trkpt lat="47.05111" lon="-1.63507">
        <ele>52</ele>
        <time>2021-04-05T09:50:08.000Z</time>
      </trkpt>
      <trkpt lat="47.05122" lon="-1.63502">
        <ele>52</ele>
        <time>2021-04-05T09:50:10.000Z</time>
      </trkpt>
      <trkpt lat="47.05134" lon="-1.63497">
        <ele>53</ele>
        <time>2021-04-05T09:50:12.000Z</time>
      </trkpt>
      <trkpt lat="47.05146" lon="-1.63492">
        <ele>53</ele>
        <time>2021-04-05T09:50:14.000Z</time>
      </trkpt>
      <trkpt lat="47.05158" lon="-1.63488">
        <ele>52</ele>
        <time>2021-04-05T09:50:16.000Z</time>
      </trkpt>
      <trkpt lat="47.0517" lon="-1.63483">
        <ele>52</ele>
        <time>2021-04-05T09:50:18.000Z</time>
      </trkpt>
      <trkpt lat="47.05181" lon="-1.63479">
        <ele>52</ele>
        <time>2021-04-05T09:50:20.000Z</time>
      </trkpt>
      <trkpt lat="47.05193" lon="-1.63474">
        <ele>52</ele>
        <time>2021-04-05T09:50:22.000Z</time>
      </trkpt>
      <trkpt lat="47.05206" lon="-1.6347">
        <ele>52</ele>
        <time>2021-04-05T09:50:24.000Z</time>
      </trkpt>
      <trkpt lat="47.05218" lon="-1.63465">
        <ele>51</ele>
        <time>2021-04-05T09:50:26.000Z</time>
      </trkpt>
      <trkpt lat="47.0523" lon="-1.63462">
        <ele>51</ele>
        <time>2021-04-05T09:50:28.000Z</time>
      </trkpt>
      <trkpt lat="47.05242" lon="-1.63458">
        <ele>51</ele>
        <time>2021-04-05T09:50:30.000Z</time>
      </trkpt>
      <trkpt lat="47.05254" lon="-1.63455">
        <ele>51</ele>
        <time>2021-04-05T09:50:32.000Z</time>
      </trkpt>
      <trkpt lat="47.05266" lon="-1.63451">
        <ele>51</ele>
        <time>2021-04-05T09:50:34.000Z</time>
      </trkpt>
      <trkpt lat="47.05278" lon="-1.63449">
        <ele>51</ele>
        <time>2021-04-05T09:50:36.000Z</time>
      </trkpt>
      <trkpt lat="47.0529" lon="-1.63447">
        <ele>51</ele>
        <time>2021-04-05T09:50:38.000Z</time>
      </trkpt>
      <trkpt lat="47.05302" lon="-1.63444">
        <ele>51</ele>
        <time>2021-04-05T09:50:40.000Z</time>
      </trkpt>
      <trkpt lat="47.05313" lon="-1.63443">
        <ele>52</ele>
        <time>2021-04-05T09:50:42.000Z</time>
      </trkpt>
      <trkpt lat="47.05325" lon="-1.63442">
        <ele>52</ele>
        <time>2021-04-05T09:50:44.000Z</time>
      </trkpt>
      <trkpt lat="47.05343" lon="-1.63441">
        <ele>51</ele>
        <time>2021-04-05T09:50:47.000Z</time>
      </trkpt>
      <trkpt lat="47.05354" lon="-1.63438">
        <ele>52</ele>
        <time>2021-04-05T09:50:49.000Z</time>
      </trkpt>
      <trkpt lat="47.05365" lon="-1.63431">
        <ele>52</ele>
        <time>2021-04-05T09:50:51.000Z</time>
      </trkpt>
      <trkpt lat="47.05377" lon="-1.63427">
        <ele>51</ele>
        <time>2021-04-05T09:50:53.000Z</time>
      </trkpt>
      <trkpt lat="47.05389" lon="-1.63429">
        <ele>51</ele>
        <time>2021-04-05T09:50:55.000Z</time>
      </trkpt>
      <trkpt lat="47.05401" lon="-1.63431">
        <ele>51</ele>
        <time>2021-04-05T09:50:57.000Z</time>
      </trkpt>
      <trkpt lat="47.05412" lon="-1.63429">
        <ele>51</ele>
        <time>2021-04-05T09:50:59.000Z</time>
      </trkpt>
      <trkpt lat="47.05424" lon="-1.63426">
        <ele>51</ele>
        <time>2021-04-05T09:51:01.000Z</time>
      </trkpt>
      <trkpt lat="47.05435" lon="-1.63424">
        <ele>51</ele>
        <time>2021-04-05T09:51:03.000Z</time>
      </trkpt>
      <trkpt lat="47.05447" lon="-1.63422">
        <ele>51</ele>
        <time>2021-04-05T09:51:05.000Z</time>
      </trkpt>
      <trkpt lat="47.05458" lon="-1.6342">
        <ele>51</ele>
        <time>2021-04-05T09:51:07.000Z</time>
      </trkpt>
      <trkpt lat="47.0547" lon="-1.63418">
        <ele>51</ele>
        <time>2021-04-05T09:51:09.000Z</time>
      </trkpt>
      <trkpt lat="47.05482" lon="-1.63416">
        <ele>51</ele>
        <time>2021-04-05T09:51:11.000Z</time>
      </trkpt>
      <trkpt lat="47.05494" lon="-1.63415">
        <ele>51</ele>
        <time>2021-04-05T09:51:13.000Z</time>
      </trkpt>
      <trkpt lat="47.05506" lon="-1.63413">
        <ele>51</ele>
        <time>2021-04-05T09:51:15.000Z</time>
      </trkpt>
      <trkpt lat="47.05518" lon="-1.63411">
        <ele>52</ele>
        <time>2021-04-05T09:51:17.000Z</time>
      </trkpt>
      <trkpt lat="47.0553" lon="-1.63408">
        <ele>52</ele>
        <time>2021-04-05T09:51:19.000Z</time>
      </trkpt>
      <trkpt lat="47.05542" lon="-1.63404">
        <ele>51</ele>
        <time>2021-04-05T09:51:21.000Z</time>
      </trkpt>
      <trkpt lat="47.05554" lon="-1.63399">
        <ele>50</ele>
        <time>2021-04-05T09:51:23.000Z</time>
      </trkpt>
      <trkpt lat="47.05566" lon="-1.63395">
        <ele>50</ele>
        <time>2021-04-05T09:51:25.000Z</time>
      </trkpt>
      <trkpt lat="47.05578" lon="-1.6339">
        <ele>50</ele>
        <time>2021-04-05T09:51:27.000Z</time>
      </trkpt>
      <trkpt lat="47.05589" lon="-1.63384">
        <ele>50</ele>
        <time>2021-04-05T09:51:29.000Z</time>
      </trkpt>
      <trkpt lat="47.056" lon="-1.6338">
        <ele>50</ele>
        <time>2021-04-05T09:51:31.000Z</time>
      </trkpt>
      <trkpt lat="47.05612" lon="-1.63374">
        <ele>50</ele>
        <time>2021-04-05T09:51:33.000Z</time>
      </trkpt>
      <trkpt lat="47.05622" lon="-1.63369">
        <ele>51</ele>
        <time>2021-04-05T09:51:35.000Z</time>
      </trkpt>
      <trkpt lat="47.05633" lon="-1.63364">
        <ele>51</ele>
        <time>2021-04-05T09:51:37.000Z</time>
      </trkpt>
      <trkpt lat="47.05645" lon="-1.63359">
        <ele>51</ele>
        <time>2021-04-05T09:51:39.000Z</time>
      </trkpt>
      <trkpt lat="47.05656" lon="-1.63355">
        <ele>51</ele>
        <time>2021-04-05T09:51:41.000Z</time>
      </trkpt>
      <trkpt lat="47.05667" lon="-1.63349">
        <ele>51</ele>
        <time>2021-04-05T09:51:43.000Z</time>
      </trkpt>
      <trkpt lat="47.05678" lon="-1.63345">
        <ele>51</ele>
        <time>2021-04-05T09:51:45.000Z</time>
      </trkpt>
      <trkpt lat="47.05689" lon="-1.63339">
        <ele>51</ele>
        <time>2021-04-05T09:51:47.000Z</time>
      </trkpt>
      <trkpt lat="47.057" lon="-1.63334">
        <ele>51</ele>
        <time>2021-04-05T09:51:49.000Z</time>
      </trkpt>
      <trkpt lat="47.05711" lon="-1.63328">
        <ele>50</ele>
        <time>2021-04-05T09:51:51.000Z</time>
      </trkpt>
      <trkpt lat="47.05723" lon="-1.63323">
        <ele>50</ele>
        <time>2021-04-05T09:51:53.000Z</time>
      </trkpt>
      <trkpt lat="47.05733" lon="-1.63318">
        <ele>50</ele>
        <time>2021-04-05T09:51:55.000Z</time>
      </trkpt>
      <trkpt lat="47.05744" lon="-1.63313">
        <ele>50</ele>
        <time>2021-04-05T09:51:57.000Z</time>
      </trkpt>
      <trkpt lat="47.05755" lon="-1.63309">
        <ele>50</ele>
        <time>2021-04-05T09:51:59.000Z</time>
      </trkpt>
      <trkpt lat="47.05772" lon="-1.63301">
        <ele>50</ele>
        <time>2021-04-05T09:52:02.000Z</time>
      </trkpt>
      <trkpt lat="47.05783" lon="-1.63296">
        <ele>50</ele>
        <time>2021-04-05T09:52:04.000Z</time>
      </trkpt>
      <trkpt lat="47.05794" lon="-1.6329">
        <ele>49</ele>
        <time>2021-04-05T09:52:06.000Z</time>
      </trkpt>
      <trkpt lat="47.05805" lon="-1.63285">
        <ele>50</ele>
        <time>2021-04-05T09:52:08.000Z</time>
      </trkpt>
      <trkpt lat="47.05816" lon="-1.63281">
        <ele>50</ele>
        <time>2021-04-05T09:52:10.000Z</time>
      </trkpt>
      <trkpt lat="47.05828" lon="-1.63275">
        <ele>50</ele>
        <time>2021-04-05T09:52:12.000Z</time>
      </trkpt>
      <trkpt lat="47.05839" lon="-1.63269">
        <ele>50</ele>
        <time>2021-04-05T09:52:14.000Z</time>
      </trkpt>
      <trkpt lat="47.0585" lon="-1.63265">
        <ele>50</ele>
        <time>2021-04-05T09:52:16.000Z</time>
      </trkpt>
      <trkpt lat="47.0586" lon="-1.6326">
        <ele>50</ele>
        <time>2021-04-05T09:52:18.000Z</time>
      </trkpt>
      <trkpt lat="47.05871" lon="-1.63254">
        <ele>49</ele>
        <time>2021-04-05T09:52:20.000Z</time>
      </trkpt>
      <trkpt lat="47.0588" lon="-1.63249">
        <ele>49</ele>
        <time>2021-04-05T09:52:22.000Z</time>
      </trkpt>
      <trkpt lat="47.05891" lon="-1.63244">
        <ele>49</ele>
        <time>2021-04-05T09:52:24.000Z</time>
      </trkpt>
      <trkpt lat="47.05902" lon="-1.63239">
        <ele>49</ele>
        <time>2021-04-05T09:52:26.000Z</time>
      </trkpt>
      <trkpt lat="47.05913" lon="-1.63234">
        <ele>49</ele>
        <time>2021-04-05T09:52:28.000Z</time>
      </trkpt>
      <trkpt lat="47.05925" lon="-1.63229">
        <ele>49</ele>
        <time>2021-04-05T09:52:30.000Z</time>
      </trkpt>
      <trkpt lat="47.05936" lon="-1.63224">
        <ele>50</ele>
        <time>2021-04-05T09:52:32.000Z</time>
      </trkpt>
      <trkpt lat="47.05947" lon="-1.63219">
        <ele>50</ele>
        <time>2021-04-05T09:52:34.000Z</time>
      </trkpt>
      <trkpt lat="47.05957" lon="-1.63213">
        <ele>50</ele>
        <time>2021-04-05T09:52:36.000Z</time>
      </trkpt>
      <trkpt lat="47.05968" lon="-1.63208">
        <ele>49</ele>
        <time>2021-04-05T09:52:38.000Z</time>
      </trkpt>
      <trkpt lat="47.05978" lon="-1.63203">
        <ele>49</ele>
        <time>2021-04-05T09:52:40.000Z</time>
      </trkpt>
      <trkpt lat="47.05989" lon="-1.63198">
        <ele>49</ele>
        <time>2021-04-05T09:52:42.000Z</time>
      </trkpt>
      <trkpt lat="47.05999" lon="-1.63192">
        <ele>49</ele>
        <time>2021-04-05T09:52:44.000Z</time>
      </trkpt>
      <trkpt lat="47.0601" lon="-1.63188">
        <ele>50</ele>
        <time>2021-04-05T09:52:46.000Z</time>
      </trkpt>
      <trkpt lat="47.0602" lon="-1.63184">
        <ele>50</ele>
        <time>2021-04-05T09:52:48.000Z</time>
      </trkpt>
      <trkpt lat="47.06031" lon="-1.63179">
        <ele>50</ele>
        <time>2021-04-05T09:52:50.000Z</time>
      </trkpt>
      <trkpt lat="47.06041" lon="-1.63175">
        <ele>51</ele>
        <time>2021-04-05T09:52:52.000Z</time>
      </trkpt>
      <trkpt lat="47.06051" lon="-1.63174">
        <ele>52</ele>
        <time>2021-04-05T09:52:54.000Z</time>
      </trkpt>
      <trkpt lat="47.06058" lon="-1.63185">
        <ele>51</ele>
        <time>2021-04-05T09:52:56.000Z</time>
      </trkpt>
      <trkpt lat="47.06056" lon="-1.63203">
        <ele>51</ele>
        <time>2021-04-05T09:52:58.000Z</time>
      </trkpt>
      <trkpt lat="47.06054" lon="-1.63219">
        <ele>51</ele>
        <time>2021-04-05T09:53:00.000Z</time>
      </trkpt>
      <trkpt lat="47.06051" lon="-1.63236">
        <ele>51</ele>
        <time>2021-04-05T09:53:02.000Z</time>
      </trkpt>
      <trkpt lat="47.06049" lon="-1.63254">
        <ele>51</ele>
        <time>2021-04-05T09:53:04.000Z</time>
      </trkpt>
      <trkpt lat="47.06047" lon="-1.63271">
        <ele>50</ele>
        <time>2021-04-05T09:53:06.000Z</time>
      </trkpt>
      <trkpt lat="47.06044" lon="-1.63289">
        <ele>50</ele>
        <time>2021-04-05T09:53:08.000Z</time>
      </trkpt>
      <trkpt lat="47.06043" lon="-1.63305">
        <ele>50</ele>
        <time>2021-04-05T09:53:10.000Z</time>
      </trkpt>
      <trkpt lat="47.06048" lon="-1.6332">
        <ele>50</ele>
        <time>2021-04-05T09:53:12.000Z</time>
      </trkpt>
      <trkpt lat="47.06059" lon="-1.63325">
        <ele>50</ele>
        <time>2021-04-05T09:53:14.000Z</time>
      </trkpt>
      <trkpt lat="47.06071" lon="-1.63329">
        <ele>51</ele>
        <time>2021-04-05T09:53:16.000Z</time>
      </trkpt>
      <trkpt lat="47.06082" lon="-1.63332">
        <ele>52</ele>
        <time>2021-04-05T09:53:18.000Z</time>
      </trkpt>
      <trkpt lat="47.06093" lon="-1.63336">
        <ele>52</ele>
        <time>2021-04-05T09:53:20.000Z</time>
      </trkpt>
      <trkpt lat="47.06104" lon="-1.6334">
        <ele>52</ele>
        <time>2021-04-05T09:53:22.000Z</time>
      </trkpt>
      <trkpt lat="47.06114" lon="-1.63343">
        <ele>51</ele>
        <time>2021-04-05T09:53:24.000Z</time>
      </trkpt>
      <trkpt lat="47.06125" lon="-1.63347">
        <ele>51</ele>
        <time>2021-04-05T09:53:26.000Z</time>
      </trkpt>
      <trkpt lat="47.06137" lon="-1.63351">
        <ele>51</ele>
        <time>2021-04-05T09:53:28.000Z</time>
      </trkpt>
      <trkpt lat="47.06149" lon="-1.63356">
        <ele>51</ele>
        <time>2021-04-05T09:53:30.000Z</time>
      </trkpt>
      <trkpt lat="47.0616" lon="-1.6336">
        <ele>50</ele>
        <time>2021-04-05T09:53:32.000Z</time>
      </trkpt>
      <trkpt lat="47.06171" lon="-1.63365">
        <ele>49</ele>
        <time>2021-04-05T09:53:34.000Z</time>
      </trkpt>
      <trkpt lat="47.06182" lon="-1.6337">
        <ele>49</ele>
        <time>2021-04-05T09:53:36.000Z</time>
      </trkpt>
      <trkpt lat="47.06192" lon="-1.63374">
        <ele>49</ele>
        <time>2021-04-05T09:53:38.000Z</time>
      </trkpt>
      <trkpt lat="47.06203" lon="-1.63379">
        <ele>50</ele>
        <time>2021-04-05T09:53:40.000Z</time>
      </trkpt>
      <trkpt lat="47.06214" lon="-1.63382">
        <ele>50</ele>
        <time>2021-04-05T09:53:42.000Z</time>
      </trkpt>
      <trkpt lat="47.06225" lon="-1.63386">
        <ele>50</ele>
        <time>2021-04-05T09:53:44.000Z</time>
      </trkpt>
      <trkpt lat="47.06236" lon="-1.6339">
        <ele>50</ele>
        <time>2021-04-05T09:53:46.000Z</time>
      </trkpt>
      <trkpt lat="47.06247" lon="-1.63394">
        <ele>50</ele>
        <time>2021-04-05T09:53:48.000Z</time>
      </trkpt>
      <trkpt lat="47.06256" lon="-1.63397">
        <ele>50</ele>
        <time>2021-04-05T09:53:50.000Z</time>
      </trkpt>
      <trkpt lat="47.06268" lon="-1.63401">
        <ele>50</ele>
        <time>2021-04-05T09:53:52.000Z</time>
      </trkpt>
      <trkpt lat="47.06279" lon="-1.63405">
        <ele>50</ele>
        <time>2021-04-05T09:53:54.000Z</time>
      </trkpt>
      <trkpt lat="47.0629" lon="-1.63409">
        <ele>50</ele>
        <time>2021-04-05T09:53:56.000Z</time>
      </trkpt>
      <trkpt lat="47.063" lon="-1.63413">
        <ele>50</ele>
        <time>2021-04-05T09:53:58.000Z</time>
      </trkpt>
      <trkpt lat="47.0631" lon="-1.63418">
        <ele>50</ele>
        <time>2021-04-05T09:54:00.000Z</time>
      </trkpt>
      <trkpt lat="47.06321" lon="-1.63424">
        <ele>50</ele>
        <time>2021-04-05T09:54:02.000Z</time>
      </trkpt>
      <trkpt lat="47.06332" lon="-1.63433">
        <ele>51</ele>
        <time>2021-04-05T09:54:04.000Z</time>
      </trkpt>
      <trkpt lat="47.06341" lon="-1.63442">
        <ele>50</ele>
        <time>2021-04-05T09:54:06.000Z</time>
      </trkpt>
      <trkpt lat="47.06352" lon="-1.63451">
        <ele>51</ele>
        <time>2021-04-05T09:54:08.000Z</time>
      </trkpt>
      <trkpt lat="47.06361" lon="-1.63462">
        <ele>51</ele>
        <time>2021-04-05T09:54:10.000Z</time>
      </trkpt>
      <trkpt lat="47.06369" lon="-1.63475">
        <ele>51</ele>
        <time>2021-04-05T09:54:12.000Z</time>
      </trkpt>
      <trkpt lat="47.06375" lon="-1.6349">
        <ele>51</ele>
        <time>2021-04-05T09:54:14.000Z</time>
      </trkpt>
      <trkpt lat="47.06382" lon="-1.63505">
        <ele>51</ele>
        <time>2021-04-05T09:54:16.000Z</time>
      </trkpt>
      <trkpt lat="47.0639" lon="-1.63519">
        <ele>51</ele>
        <time>2021-04-05T09:54:18.000Z</time>
      </trkpt>
      <trkpt lat="47.06399" lon="-1.63529">
        <ele>52</ele>
        <time>2021-04-05T09:54:20.000Z</time>
      </trkpt>
      <trkpt lat="47.06408" lon="-1.63538">
        <ele>52</ele>
        <time>2021-04-05T09:54:22.000Z</time>
      </trkpt>
      <trkpt lat="47.06417" lon="-1.63546">
        <ele>52</ele>
        <time>2021-04-05T09:54:24.000Z</time>
      </trkpt>
      <trkpt lat="47.06426" lon="-1.63555">
        <ele>51</ele>
        <time>2021-04-05T09:54:26.000Z</time>
      </trkpt>
      <trkpt lat="47.06436" lon="-1.63563">
        <ele>51</ele>
        <time>2021-04-05T09:54:28.000Z</time>
      </trkpt>
      <trkpt lat="47.06445" lon="-1.63573">
        <ele>51</ele>
        <time>2021-04-05T09:54:30.000Z</time>
      </trkpt>
      <trkpt lat="47.06454" lon="-1.6358">
        <ele>51</ele>
        <time>2021-04-05T09:54:32.000Z</time>
      </trkpt>
      <trkpt lat="47.06464" lon="-1.63589">
        <ele>51</ele>
        <time>2021-04-05T09:54:34.000Z</time>
      </trkpt>
      <trkpt lat="47.06473" lon="-1.63597">
        <ele>51</ele>
        <time>2021-04-05T09:54:36.000Z</time>
      </trkpt>
      <trkpt lat="47.06482" lon="-1.63605">
        <ele>51</ele>
        <time>2021-04-05T09:54:38.000Z</time>
      </trkpt>
      <trkpt lat="47.06493" lon="-1.63612">
        <ele>51</ele>
        <time>2021-04-05T09:54:40.000Z</time>
      </trkpt>
      <trkpt lat="47.06503" lon="-1.6362">
        <ele>51</ele>
        <time>2021-04-05T09:54:42.000Z</time>
      </trkpt>
      <trkpt lat="47.06514" lon="-1.63627">
        <ele>51</ele>
        <time>2021-04-05T09:54:44.000Z</time>
      </trkpt>
      <trkpt lat="47.06524" lon="-1.63635">
        <ele>52</ele>
        <time>2021-04-05T09:54:46.000Z</time>
      </trkpt>
      <trkpt lat="47.06534" lon="-1.63642">
        <ele>52</ele>
        <time>2021-04-05T09:54:48.000Z</time>
      </trkpt>
      <trkpt lat="47.06545" lon="-1.6365">
        <ele>52</ele>
        <time>2021-04-05T09:54:50.000Z</time>
      </trkpt>
      <trkpt lat="47.06555" lon="-1.63658">
        <ele>52</ele>
        <time>2021-04-05T09:54:52.000Z</time>
      </trkpt>
      <trkpt lat="47.06567" lon="-1.63666">
        <ele>52</ele>
        <time>2021-04-05T09:54:54.000Z</time>
      </trkpt>
      <trkpt lat="47.06578" lon="-1.63675">
        <ele>53</ele>
        <time>2021-04-05T09:54:56.000Z</time>
      </trkpt>
      <trkpt lat="47.06587" lon="-1.63685">
        <ele>53</ele>
        <time>2021-04-05T09:54:58.000Z</time>
      </trkpt>
      <trkpt lat="47.06597" lon="-1.63696">
        <ele>53</ele>
        <time>2021-04-05T09:55:00.000Z</time>
      </trkpt>
      <trkpt lat="47.06606" lon="-1.63707">
        <ele>53</ele>
        <time>2021-04-05T09:55:02.000Z</time>
      </trkpt>
      <trkpt lat="47.06615" lon="-1.63718">
        <ele>52</ele>
        <time>2021-04-05T09:55:04.000Z</time>
      </trkpt>
      <trkpt lat="47.06624" lon="-1.63729">
        <ele>52</ele>
        <time>2021-04-05T09:55:06.000Z</time>
      </trkpt>
      <trkpt lat="47.06633" lon="-1.63739">
        <ele>52</ele>
        <time>2021-04-05T09:55:08.000Z</time>
      </trkpt>
      <trkpt lat="47.06641" lon="-1.6375">
        <ele>51</ele>
        <time>2021-04-05T09:55:10.000Z</time>
      </trkpt>
      <trkpt lat="47.0665" lon="-1.63761">
        <ele>51</ele>
        <time>2021-04-05T09:55:12.000Z</time>
      </trkpt>
      <trkpt lat="47.06659" lon="-1.63773">
        <ele>51</ele>
        <time>2021-04-05T09:55:14.000Z</time>
      </trkpt>
      <trkpt lat="47.06668" lon="-1.63784">
        <ele>51</ele>
        <time>2021-04-05T09:55:16.000Z</time>
      </trkpt>
      <trkpt lat="47.06676" lon="-1.63794">
        <ele>51</ele>
        <time>2021-04-05T09:55:18.000Z</time>
      </trkpt>
      <trkpt lat="47.06684" lon="-1.63805">
        <ele>51</ele>
        <time>2021-04-05T09:55:20.000Z</time>
      </trkpt>
      <trkpt lat="47.06692" lon="-1.63816">
        <ele>51</ele>
        <time>2021-04-05T09:55:22.000Z</time>
      </trkpt>
      <trkpt lat="47.06701" lon="-1.63826">
        <ele>51</ele>
        <time>2021-04-05T09:55:24.000Z</time>
      </trkpt>
      <trkpt lat="47.06711" lon="-1.63834">
        <ele>50</ele>
        <time>2021-04-05T09:55:26.000Z</time>
      </trkpt>
      <trkpt lat="47.06722" lon="-1.63836">
        <ele>51</ele>
        <time>2021-04-05T09:55:28.000Z</time>
      </trkpt>
      <trkpt lat="47.06732" lon="-1.63831">
        <ele>50</ele>
        <time>2021-04-05T09:55:30.000Z</time>
      </trkpt>
      <trkpt lat="47.06742" lon="-1.6382">
        <ele>50</ele>
        <time>2021-04-05T09:55:32.000Z</time>
      </trkpt>
      <trkpt lat="47.06752" lon="-1.6381">
        <ele>50</ele>
        <time>2021-04-05T09:55:34.000Z</time>
      </trkpt>
      <trkpt lat="47.06762" lon="-1.638">
        <ele>50</ele>
        <time>2021-04-05T09:55:36.000Z</time>
      </trkpt>
      <trkpt lat="47.06771" lon="-1.6379">
        <ele>51</ele>
        <time>2021-04-05T09:55:38.000Z</time>
      </trkpt>
      <trkpt lat="47.06781" lon="-1.63781">
        <ele>51</ele>
        <time>2021-04-05T09:55:40.000Z</time>
      </trkpt>
      <trkpt lat="47.06791" lon="-1.63772">
        <ele>51</ele>
        <time>2021-04-05T09:55:42.000Z</time>
      </trkpt>
      <trkpt lat="47.06801" lon="-1.63763">
        <ele>51</ele>
        <time>2021-04-05T09:55:44.000Z</time>
      </trkpt>
      <trkpt lat="47.06811" lon="-1.63753">
        <ele>51</ele>
        <time>2021-04-05T09:55:46.000Z</time>
      </trkpt>
      <trkpt lat="47.0682" lon="-1.63744">
        <ele>51</ele>
        <time>2021-04-05T09:55:48.000Z</time>
      </trkpt>
      <trkpt lat="47.06828" lon="-1.63733">
        <ele>51</ele>
        <time>2021-04-05T09:55:50.000Z</time>
      </trkpt>
      <trkpt lat="47.06836" lon="-1.63721">
        <ele>50</ele>
        <time>2021-04-05T09:55:52.000Z</time>
      </trkpt>
      <trkpt lat="47.06842" lon="-1.63708">
        <ele>50</ele>
        <time>2021-04-05T09:55:54.000Z</time>
      </trkpt>
      <trkpt lat="47.06846" lon="-1.63691">
        <ele>50</ele>
        <time>2021-04-05T09:55:56.000Z</time>
      </trkpt>
      <trkpt lat="47.0685" lon="-1.63675">
        <ele>50</ele>
        <time>2021-04-05T09:55:58.000Z</time>
      </trkpt>
      <trkpt lat="47.06852" lon="-1.63658">
        <ele>49</ele>
        <time>2021-04-05T09:56:00.000Z</time>
      </trkpt>
      <trkpt lat="47.06854" lon="-1.6364">
        <ele>49</ele>
        <time>2021-04-05T09:56:02.000Z</time>
      </trkpt>
      <trkpt lat="47.06856" lon="-1.63623">
        <ele>49</ele>
        <time>2021-04-05T09:56:04.000Z</time>
      </trkpt>
      <trkpt lat="47.06857" lon="-1.63605">
        <ele>49</ele>
        <time>2021-04-05T09:56:06.000Z</time>
      </trkpt>
      <trkpt lat="47.06859" lon="-1.63588">
        <ele>49</ele>
        <time>2021-04-05T09:56:08.000Z</time>
      </trkpt>
      <trkpt lat="47.06861" lon="-1.63571">
        <ele>49</ele>
        <time>2021-04-05T09:56:10.000Z</time>
      </trkpt>
      <trkpt lat="47.06863" lon="-1.63553">
        <ele>49</ele>
        <time>2021-04-05T09:56:12.000Z</time>
      </trkpt>
      <trkpt lat="47.06867" lon="-1.63537">
        <ele>49</ele>
        <time>2021-04-05T09:56:14.000Z</time>
      </trkpt>
      <trkpt lat="47.06871" lon="-1.6352">
        <ele>49</ele>
        <time>2021-04-05T09:56:16.000Z</time>
      </trkpt>
      <trkpt lat="47.06875" lon="-1.63504">
        <ele>48</ele>
        <time>2021-04-05T09:56:18.000Z</time>
      </trkpt>
      <trkpt lat="47.06881" lon="-1.63489">
        <ele>48</ele>
        <time>2021-04-05T09:56:20.000Z</time>
      </trkpt>
      <trkpt lat="47.06888" lon="-1.63476">
        <ele>49</ele>
        <time>2021-04-05T09:56:22.000Z</time>
      </trkpt>
      <trkpt lat="47.06898" lon="-1.63465">
        <ele>49</ele>
        <time>2021-04-05T09:56:24.000Z</time>
      </trkpt>
      <trkpt lat="47.06908" lon="-1.63457">
        <ele>49</ele>
        <time>2021-04-05T09:56:26.000Z</time>
      </trkpt>
      <trkpt lat="47.06918" lon="-1.6345">
        <ele>50</ele>
        <time>2021-04-05T09:56:28.000Z</time>
      </trkpt>
      <trkpt lat="47.06929" lon="-1.63444">
        <ele>50</ele>
        <time>2021-04-05T09:56:30.000Z</time>
      </trkpt>
      <trkpt lat="47.0694" lon="-1.63437">
        <ele>50</ele>
        <time>2021-04-05T09:56:32.000Z</time>
      </trkpt>
      <trkpt lat="47.06951" lon="-1.6343">
        <ele>49</ele>
        <time>2021-04-05T09:56:34.000Z</time>
      </trkpt>
      <trkpt lat="47.06962" lon="-1.6342">
        <ele>49</ele>
        <time>2021-04-05T09:56:36.000Z</time>
      </trkpt>
      <trkpt lat="47.06972" lon="-1.6341">
        <ele>49</ele>
        <time>2021-04-05T09:56:38.000Z</time>
      </trkpt>
      <trkpt lat="47.06982" lon="-1.634">
        <ele>50</ele>
        <time>2021-04-05T09:56:40.000Z</time>
      </trkpt>
      <trkpt lat="47.06992" lon="-1.6339">
        <ele>50</ele>
        <time>2021-04-05T09:56:42.000Z</time>
      </trkpt>
      <trkpt lat="47.07002" lon="-1.63381">
        <ele>50</ele>
        <time>2021-04-05T09:56:44.000Z</time>
      </trkpt>
      <trkpt lat="47.07011" lon="-1.63372">
        <ele>50</ele>
        <time>2021-04-05T09:56:46.000Z</time>
      </trkpt>
      <trkpt lat="47.0702" lon="-1.63363">
        <ele>50</ele>
        <time>2021-04-05T09:56:48.000Z</time>
      </trkpt>
      <trkpt lat="47.07031" lon="-1.63352">
        <ele>50</ele>
        <time>2021-04-05T09:56:50.000Z</time>
      </trkpt>
      <trkpt lat="47.07041" lon="-1.63343">
        <ele>50</ele>
        <time>2021-04-05T09:56:52.000Z</time>
      </trkpt>
      <trkpt lat="47.0705" lon="-1.63333">
        <ele>49</ele>
        <time>2021-04-05T09:56:54.000Z</time>
      </trkpt>
      <trkpt lat="47.07059" lon="-1.6332">
        <ele>49</ele>
        <time>2021-04-05T09:56:56.000Z</time>
      </trkpt>
      <trkpt lat="47.07067" lon="-1.63307">
        <ele>49</ele>
        <time>2021-04-05T09:56:58.000Z</time>
      </trkpt>
      <trkpt lat="47.07073" lon="-1.63291">
        <ele>48</ele>
        <time>2021-04-05T09:57:00.000Z</time>
      </trkpt>
      <trkpt lat="47.07078" lon="-1.63275">
        <ele>48</ele>
        <time>2021-04-05T09:57:02.000Z</time>
      </trkpt>
      <trkpt lat="47.07083" lon="-1.63258">
        <ele>48</ele>
        <time>2021-04-05T09:57:04.000Z</time>
      </trkpt>
      <trkpt lat="47.07086" lon="-1.63241">
        <ele>48</ele>
        <time>2021-04-05T09:57:06.000Z</time>
      </trkpt>
      <trkpt lat="47.07088" lon="-1.63224">
        <ele>48</ele>
        <time>2021-04-05T09:57:08.000Z</time>
      </trkpt>
      <trkpt lat="47.0709" lon="-1.63206">
        <ele>48</ele>
        <time>2021-04-05T09:57:10.000Z</time>
      </trkpt>
      <trkpt lat="47.07093" lon="-1.63189">
        <ele>48</ele>
        <time>2021-04-05T09:57:12.000Z</time>
      </trkpt>
      <trkpt lat="47.07096" lon="-1.63173">
        <ele>49</ele>
        <time>2021-04-05T09:57:14.000Z</time>
      </trkpt>
      <trkpt lat="47.07102" lon="-1.63159">
        <ele>49</ele>
        <time>2021-04-05T09:57:16.000Z</time>
      </trkpt>
      <trkpt lat="47.0711" lon="-1.63148">
        <ele>49</ele>
        <time>2021-04-05T09:57:18.000Z</time>
      </trkpt>
      <trkpt lat="47.07118" lon="-1.63139">
        <ele>49</ele>
        <time>2021-04-05T09:57:20.000Z</time>
      </trkpt>
      <trkpt lat="47.07126" lon="-1.6313">
        <ele>49</ele>
        <time>2021-04-05T09:57:22.000Z</time>
      </trkpt>
      <trkpt lat="47.07135" lon="-1.63124">
        <ele>50</ele>
        <time>2021-04-05T09:57:24.000Z</time>
      </trkpt>
      <trkpt lat="47.07144" lon="-1.6312">
        <ele>50</ele>
        <time>2021-04-05T09:57:26.000Z</time>
      </trkpt>
      <trkpt lat="47.07155" lon="-1.63119">
        <ele>51</ele>
        <time>2021-04-05T09:57:28.000Z</time>
      </trkpt>
      <trkpt lat="47.07167" lon="-1.63119">
        <ele>52</ele>
        <time>2021-04-05T09:57:30.000Z</time>
      </trkpt>
      <trkpt lat="47.0718" lon="-1.6312">
        <ele>51</ele>
        <time>2021-04-05T09:57:32.000Z</time>
      </trkpt>
      <trkpt lat="47.07193" lon="-1.63122">
        <ele>51</ele>
        <time>2021-04-05T09:57:34.000Z</time>
      </trkpt>
      <trkpt lat="47.07204" lon="-1.63128">
        <ele>51</ele>
        <time>2021-04-05T09:57:36.000Z</time>
      </trkpt>
      <trkpt lat="47.07214" lon="-1.63136">
        <ele>51</ele>
        <time>2021-04-05T09:57:38.000Z</time>
      </trkpt>
      <trkpt lat="47.07225" lon="-1.63145">
        <ele>51</ele>
        <time>2021-04-05T09:57:40.000Z</time>
      </trkpt>
      <trkpt lat="47.07237" lon="-1.63154">
        <ele>52</ele>
        <time>2021-04-05T09:57:42.000Z</time>
      </trkpt>
      <trkpt lat="47.07247" lon="-1.63163">
        <ele>52</ele>
        <time>2021-04-05T09:57:44.000Z</time>
      </trkpt>
      <trkpt lat="47.07258" lon="-1.63171">
        <ele>53</ele>
        <time>2021-04-05T09:57:46.000Z</time>
      </trkpt>
      <trkpt lat="47.07267" lon="-1.6318">
        <ele>53</ele>
        <time>2021-04-05T09:57:48.000Z</time>
      </trkpt>
      <trkpt lat="47.07277" lon="-1.63191">
        <ele>53</ele>
        <time>2021-04-05T09:57:50.000Z</time>
      </trkpt>
      <trkpt lat="47.07286" lon="-1.63203">
        <ele>52</ele>
        <time>2021-04-05T09:57:52.000Z</time>
      </trkpt>
      <trkpt lat="47.07294" lon="-1.63215">
        <ele>52</ele>
        <time>2021-04-05T09:57:54.000Z</time>
      </trkpt>
      <trkpt lat="47.07303" lon="-1.63227">
        <ele>52</ele>
        <time>2021-04-05T09:57:56.000Z</time>
      </trkpt>
      <trkpt lat="47.07312" lon="-1.63238">
        <ele>51</ele>
        <time>2021-04-05T09:57:58.000Z</time>
      </trkpt>
      <trkpt lat="47.0732" lon="-1.63249">
        <ele>51</ele>
        <time>2021-04-05T09:58:00.000Z</time>
      </trkpt>
      <trkpt lat="47.07328" lon="-1.6326">
        <ele>51</ele>
        <time>2021-04-05T09:58:02.000Z</time>
      </trkpt>
      <trkpt lat="47.07336" lon="-1.6327">
        <ele>51</ele>
        <time>2021-04-05T09:58:04.000Z</time>
      </trkpt>
      <trkpt lat="47.07345" lon="-1.63279">
        <ele>51</ele>
        <time>2021-04-05T09:58:06.000Z</time>
      </trkpt>
      <trkpt lat="47.07354" lon="-1.63287">
        <ele>52</ele>
        <time>2021-04-05T09:58:08.000Z</time>
      </trkpt>
      <trkpt lat="47.07364" lon="-1.63295">
        <ele>52</ele>
        <time>2021-04-05T09:58:10.000Z</time>
      </trkpt>
      <trkpt lat="47.07373" lon="-1.63303">
        <ele>52</ele>
        <time>2021-04-05T09:58:12.000Z</time>
      </trkpt>
      <trkpt lat="47.07383" lon="-1.6331">
        <ele>52</ele>
        <time>2021-04-05T09:58:14.000Z</time>
      </trkpt>
      <trkpt lat="47.07393" lon="-1.63317">
        <ele>52</ele>
        <time>2021-04-05T09:58:16.000Z</time>
      </trkpt>
      <trkpt lat="47.07402" lon="-1.63325">
        <ele>52</ele>
        <time>2021-04-05T09:58:18.000Z</time>
      </trkpt>
      <trkpt lat="47.07412" lon="-1.63332">
        <ele>52</ele>
        <time>2021-04-05T09:58:20.000Z</time>
      </trkpt>
      <trkpt lat="47.07422" lon="-1.63338">
        <ele>52</ele>
        <time>2021-04-05T09:58:22.000Z</time>
      </trkpt>
      <trkpt lat="47.07433" lon="-1.63344">
        <ele>52</ele>
        <time>2021-04-05T09:58:24.000Z</time>
      </trkpt>
      <trkpt lat="47.07443" lon="-1.63351">
        <ele>52</ele>
        <time>2021-04-05T09:58:26.000Z</time>
      </trkpt>
      <trkpt lat="47.07454" lon="-1.63357">
        <ele>52</ele>
        <time>2021-04-05T09:58:28.000Z</time>
      </trkpt>
      <trkpt lat="47.07465" lon="-1.63363">
        <ele>52</ele>
        <time>2021-04-05T09:58:30.000Z</time>
      </trkpt>
      <trkpt lat="47.07475" lon="-1.6337">
        <ele>52</ele>
        <time>2021-04-05T09:58:32.000Z</time>
      </trkpt>
      <trkpt lat="47.07485" lon="-1.63377">
        <ele>53</ele>
        <time>2021-04-05T09:58:34.000Z</time>
      </trkpt>
      <trkpt lat="47.07495" lon="-1.63383">
        <ele>53</ele>
        <time>2021-04-05T09:58:36.000Z</time>
      </trkpt>
      <trkpt lat="47.07506" lon="-1.63389">
        <ele>53</ele>
        <time>2021-04-05T09:58:38.000Z</time>
      </trkpt>
      <trkpt lat="47.07517" lon="-1.63396">
        <ele>53</ele>
        <time>2021-04-05T09:58:40.000Z</time>
      </trkpt>
      <trkpt lat="47.07527" lon="-1.63402">
        <ele>53</ele>
        <time>2021-04-05T09:58:42.000Z</time>
      </trkpt>
      <trkpt lat="47.07537" lon="-1.63409">
        <ele>53</ele>
        <time>2021-04-05T09:58:44.000Z</time>
      </trkpt>
      <trkpt lat="47.07547" lon="-1.63415">
        <ele>53</ele>
        <time>2021-04-05T09:58:46.000Z</time>
      </trkpt>
      <trkpt lat="47.07558" lon="-1.63421">
        <ele>52</ele>
        <time>2021-04-05T09:58:48.000Z</time>
      </trkpt>
      <trkpt lat="47.07568" lon="-1.63426">
        <ele>52</ele>
        <time>2021-04-05T09:58:50.000Z</time>
      </trkpt>
      <trkpt lat="47.07578" lon="-1.6343">
        <ele>52</ele>
        <time>2021-04-05T09:58:52.000Z</time>
      </trkpt>
      <trkpt lat="47.07589" lon="-1.63433">
        <ele>52</ele>
        <time>2021-04-05T09:58:54.000Z</time>
      </trkpt>
      <trkpt lat="47.076" lon="-1.63433">
        <ele>52</ele>
        <time>2021-04-05T09:58:56.000Z</time>
      </trkpt>
      <trkpt lat="47.07611" lon="-1.63431">
        <ele>52</ele>
        <time>2021-04-05T09:58:58.000Z</time>
      </trkpt>
      <trkpt lat="47.07622" lon="-1.63427">
        <ele>52</ele>
        <time>2021-04-05T09:59:00.000Z</time>
      </trkpt>
      <trkpt lat="47.07633" lon="-1.63423">
        <ele>52</ele>
        <time>2021-04-05T09:59:02.000Z</time>
      </trkpt>
      <trkpt lat="47.07644" lon="-1.6342">
        <ele>51</ele>
        <time>2021-04-05T09:59:04.000Z</time>
      </trkpt>
      <trkpt lat="47.07655" lon="-1.63416">
        <ele>51</ele>
        <time>2021-04-05T09:59:06.000Z</time>
      </trkpt>
      <trkpt lat="47.07667" lon="-1.63412">
        <ele>50</ele>
        <time>2021-04-05T09:59:08.000Z</time>
      </trkpt>
      <trkpt lat="47.07678" lon="-1.6341">
        <ele>50</ele>
        <time>2021-04-05T09:59:10.000Z</time>
      </trkpt>
      <trkpt lat="47.07688" lon="-1.63408">
        <ele>50</ele>
        <time>2021-04-05T09:59:12.000Z</time>
      </trkpt>
      <trkpt lat="47.07698" lon="-1.63403">
        <ele>50</ele>
        <time>2021-04-05T09:59:14.000Z</time>
      </trkpt>
      <trkpt lat="47.07708" lon="-1.63393">
        <ele>50</ele>
        <time>2021-04-05T09:59:16.000Z</time>
      </trkpt>
      <trkpt lat="47.07719" lon="-1.63381">
        <ele>50</ele>
        <time>2021-04-05T09:59:18.000Z</time>
      </trkpt>
      <trkpt lat="47.07729" lon="-1.63369">
        <ele>50</ele>
        <time>2021-04-05T09:59:20.000Z</time>
      </trkpt>
      <trkpt lat="47.07738" lon="-1.63358">
        <ele>51</ele>
        <time>2021-04-05T09:59:22.000Z</time>
      </trkpt>
      <trkpt lat="47.07748" lon="-1.63347">
        <ele>51</ele>
        <time>2021-04-05T09:59:24.000Z</time>
      </trkpt>
      <trkpt lat="47.07757" lon="-1.63335">
        <ele>51</ele>
        <time>2021-04-05T09:59:26.000Z</time>
      </trkpt>
      <trkpt lat="47.07767" lon="-1.63324">
        <ele>51</ele>
        <time>2021-04-05T09:59:28.000Z</time>
      </trkpt>
      <trkpt lat="47.07776" lon="-1.63313">
        <ele>51</ele>
        <time>2021-04-05T09:59:30.000Z</time>
      </trkpt>
      <trkpt lat="47.07785" lon="-1.63302">
        <ele>50</ele>
        <time>2021-04-05T09:59:32.000Z</time>
      </trkpt>
      <trkpt lat="47.07795" lon="-1.6329">
        <ele>50</ele>
        <time>2021-04-05T09:59:34.000Z</time>
      </trkpt>
      <trkpt lat="47.07803" lon="-1.63278">
        <ele>50</ele>
        <time>2021-04-05T09:59:36.000Z</time>
      </trkpt>
      <trkpt lat="47.07812" lon="-1.63266">
        <ele>50</ele>
        <time>2021-04-05T09:59:38.000Z</time>
      </trkpt>
      <trkpt lat="47.07821" lon="-1.63253">
        <ele>50</ele>
        <time>2021-04-05T09:59:40.000Z</time>
      </trkpt>
      <trkpt lat="47.07826" lon="-1.63237">
        <ele>50</ele>
        <time>2021-04-05T09:59:42.000Z</time>
      </trkpt>
      <trkpt lat="47.07827" lon="-1.63219">
        <ele>50</ele>
        <time>2021-04-05T09:59:44.000Z</time>
      </trkpt>
      <trkpt lat="47.07824" lon="-1.63203">
        <ele>50</ele>
        <time>2021-04-05T09:59:46.000Z</time>
      </trkpt>
      <trkpt lat="47.07818" lon="-1.63188">
        <ele>49</ele>
        <time>2021-04-05T09:59:48.000Z</time>
      </trkpt>
      <trkpt lat="47.07811" lon="-1.63174">
        <ele>49</ele>
        <time>2021-04-05T09:59:50.000Z</time>
      </trkpt>
      <trkpt lat="47.07805" lon="-1.63161">
        <ele>49</ele>
        <time>2021-04-05T09:59:52.000Z</time>
      </trkpt>
      <trkpt lat="47.078" lon="-1.6315">
        <ele>49</ele>
        <time>2021-04-05T09:59:54.000Z</time>
      </trkpt>
      <trkpt lat="47.07796" lon="-1.63135">
        <ele>49</ele>
        <time>2021-04-05T09:59:58.000Z</time>
      </trkpt>
      <trkpt lat="47.07802" lon="-1.63124">
        <ele>50</ele>
        <time>2021-04-05T10:00:01.000Z</time>
      </trkpt>
      <trkpt lat="47.07811" lon="-1.63124">
        <ele>51</ele>
        <time>2021-04-05T10:00:03.000Z</time>
      </trkpt>
      <trkpt lat="47.07823" lon="-1.63124">
        <ele>51</ele>
        <time>2021-04-05T10:00:05.000Z</time>
      </trkpt>
      <trkpt lat="47.07836" lon="-1.63122">
        <ele>52</ele>
        <time>2021-04-05T10:00:07.000Z</time>
      </trkpt>
      <trkpt lat="47.07849" lon="-1.63121">
        <ele>52</ele>
        <time>2021-04-05T10:00:09.000Z</time>
      </trkpt>
      <trkpt lat="47.07861" lon="-1.6312">
        <ele>51</ele>
        <time>2021-04-05T10:00:11.000Z</time>
      </trkpt>
      <trkpt lat="47.07873" lon="-1.6312">
        <ele>51</ele>
        <time>2021-04-05T10:00:13.000Z</time>
      </trkpt>
      <trkpt lat="47.07885" lon="-1.6312">
        <ele>52</ele>
        <time>2021-04-05T10:00:15.000Z</time>
      </trkpt>
      <trkpt lat="47.07896" lon="-1.63118">
        <ele>52</ele>
        <time>2021-04-05T10:00:17.000Z</time>
      </trkpt>
      <trkpt lat="47.07908" lon="-1.63117">
        <ele>52</ele>
        <time>2021-04-05T10:00:19.000Z</time>
      </trkpt>
      <trkpt lat="47.0792" lon="-1.63116">
        <ele>52</ele>
        <time>2021-04-05T10:00:21.000Z</time>
      </trkpt>
      <trkpt lat="47.07932" lon="-1.63114">
        <ele>52</ele>
        <time>2021-04-05T10:00:23.000Z</time>
      </trkpt>
      <trkpt lat="47.07944" lon="-1.63113">
        <ele>53</ele>
        <time>2021-04-05T10:00:25.000Z</time>
      </trkpt>
      <trkpt lat="47.07956" lon="-1.63112">
        <ele>54</ele>
        <time>2021-04-05T10:00:27.000Z</time>
      </trkpt>
      <trkpt lat="47.07968" lon="-1.63111">
        <ele>54</ele>
        <time>2021-04-05T10:00:29.000Z</time>
      </trkpt>
      <trkpt lat="47.0798" lon="-1.6311">
        <ele>54</ele>
        <time>2021-04-05T10:00:31.000Z</time>
      </trkpt>
      <trkpt lat="47.07991" lon="-1.63108">
        <ele>53</ele>
        <time>2021-04-05T10:00:33.000Z</time>
      </trkpt>
      <trkpt lat="47.08003" lon="-1.63107">
        <ele>53</ele>
        <time>2021-04-05T10:00:35.000Z</time>
      </trkpt>
      <trkpt lat="47.08016" lon="-1.63105">
        <ele>53</ele>
        <time>2021-04-05T10:00:37.000Z</time>
      </trkpt>
      <trkpt lat="47.08028" lon="-1.63105">
        <ele>53</ele>
        <time>2021-04-05T10:00:39.000Z</time>
      </trkpt>
      <trkpt lat="47.08041" lon="-1.63103">
        <ele>52</ele>
        <time>2021-04-05T10:00:41.000Z</time>
      </trkpt>
      <trkpt lat="47.08053" lon="-1.63103">
        <ele>52</ele>
        <time>2021-04-05T10:00:43.000Z</time>
      </trkpt>
      <trkpt lat="47.08065" lon="-1.63102">
        <ele>52</ele>
        <time>2021-04-05T10:00:45.000Z</time>
      </trkpt>
      <trkpt lat="47.08077" lon="-1.63101">
        <ele>51</ele>
        <time>2021-04-05T10:00:47.000Z</time>
      </trkpt>
      <trkpt lat="47.08089" lon="-1.631">
        <ele>51</ele>
        <time>2021-04-05T10:00:49.000Z</time>
      </trkpt>
      <trkpt lat="47.081" lon="-1.63099">
        <ele>51</ele>
        <time>2021-04-05T10:00:51.000Z</time>
      </trkpt>
      <trkpt lat="47.08112" lon="-1.63097">
        <ele>51</ele>
        <time>2021-04-05T10:00:53.000Z</time>
      </trkpt>
      <trkpt lat="47.08124" lon="-1.63096">
        <ele>51</ele>
        <time>2021-04-05T10:00:55.000Z</time>
      </trkpt>
      <trkpt lat="47.08136" lon="-1.63095">
        <ele>50</ele>
        <time>2021-04-05T10:00:57.000Z</time>
      </trkpt>
      <trkpt lat="47.08148" lon="-1.63094">
        <ele>50</ele>
        <time>2021-04-05T10:00:59.000Z</time>
      </trkpt>
      <trkpt lat="47.0816" lon="-1.63093">
        <ele>50</ele>
        <time>2021-04-05T10:01:01.000Z</time>
      </trkpt>
      <trkpt lat="47.08172" lon="-1.63092">
        <ele>50</ele>
        <time>2021-04-05T10:01:03.000Z</time>
      </trkpt>
      <trkpt lat="47.08183" lon="-1.63091">
        <ele>50</ele>
        <time>2021-04-05T10:01:05.000Z</time>
      </trkpt>
      <trkpt lat="47.08195" lon="-1.63089">
        <ele>50</ele>
        <time>2021-04-05T10:01:07.000Z</time>
      </trkpt>
      <trkpt lat="47.08207" lon="-1.63088">
        <ele>50</ele>
        <time>2021-04-05T10:01:09.000Z</time>
      </trkpt>
      <trkpt lat="47.08219" lon="-1.63087">
        <ele>50</ele>
        <time>2021-04-05T10:01:11.000Z</time>
      </trkpt>
      <trkpt lat="47.08231" lon="-1.63085">
        <ele>50</ele>
        <time>2021-04-05T10:01:13.000Z</time>
      </trkpt>
      <trkpt lat="47.08244" lon="-1.63085">
        <ele>50</ele>
        <time>2021-04-05T10:01:15.000Z</time>
      </trkpt>
      <trkpt lat="47.08256" lon="-1.63084">
        <ele>50</ele>
        <time>2021-04-05T10:01:17.000Z</time>
      </trkpt>
      <trkpt lat="47.08266" lon="-1.63082">
        <ele>51</ele>
        <time>2021-04-05T10:01:19.000Z</time>
      </trkpt>
      <trkpt lat="47.08278" lon="-1.63082">
        <ele>50</ele>
        <time>2021-04-05T10:01:21.000Z</time>
      </trkpt>
      <trkpt lat="47.08288" lon="-1.6308">
        <ele>50</ele>
        <time>2021-04-05T10:01:23.000Z</time>
      </trkpt>
      <trkpt lat="47.08299" lon="-1.63078">
        <ele>49</ele>
        <time>2021-04-05T10:01:25.000Z</time>
      </trkpt>
      <trkpt lat="47.08311" lon="-1.63078">
        <ele>49</ele>
        <time>2021-04-05T10:01:27.000Z</time>
      </trkpt>
      <trkpt lat="47.08322" lon="-1.63077">
        <ele>49</ele>
        <time>2021-04-05T10:01:29.000Z</time>
      </trkpt>
      <trkpt lat="47.08334" lon="-1.63077">
        <ele>49</ele>
        <time>2021-04-05T10:01:31.000Z</time>
      </trkpt>
      <trkpt lat="47.08347" lon="-1.63075">
        <ele>49</ele>
        <time>2021-04-05T10:01:33.000Z</time>
      </trkpt>
      <trkpt lat="47.08358" lon="-1.63073">
        <ele>49</ele>
        <time>2021-04-05T10:01:35.000Z</time>
      </trkpt>
      <trkpt lat="47.0837" lon="-1.63071">
        <ele>49</ele>
        <time>2021-04-05T10:01:37.000Z</time>
      </trkpt>
      <trkpt lat="47.08382" lon="-1.63069">
        <ele>50</ele>
        <time>2021-04-05T10:01:39.000Z</time>
      </trkpt>
      <trkpt lat="47.08394" lon="-1.63064">
        <ele>50</ele>
        <time>2021-04-05T10:01:41.000Z</time>
      </trkpt>
      <trkpt lat="47.08405" lon="-1.63055">
        <ele>50</ele>
        <time>2021-04-05T10:01:43.000Z</time>
      </trkpt>
      <trkpt lat="47.08415" lon="-1.63044">
        <ele>49</ele>
        <time>2021-04-05T10:01:45.000Z</time>
      </trkpt>
      <trkpt lat="47.08425" lon="-1.63032">
        <ele>49</ele>
        <time>2021-04-05T10:01:47.000Z</time>
      </trkpt>
      <trkpt lat="47.08433" lon="-1.63018">
        <ele>49</ele>
        <time>2021-04-05T10:01:49.000Z</time>
      </trkpt>
      <trkpt lat="47.08441" lon="-1.63005">
        <ele>49</ele>
        <time>2021-04-05T10:01:51.000Z</time>
      </trkpt>
      <trkpt lat="47.08449" lon="-1.62993">
        <ele>48</ele>
        <time>2021-04-05T10:01:53.000Z</time>
      </trkpt>
      <trkpt lat="47.08458" lon="-1.6298">
        <ele>48</ele>
        <time>2021-04-05T10:01:55.000Z</time>
      </trkpt>
      <trkpt lat="47.08466" lon="-1.62967">
        <ele>48</ele>
        <time>2021-04-05T10:01:57.000Z</time>
      </trkpt>
      <trkpt lat="47.08474" lon="-1.62954">
        <ele>48</ele>
        <time>2021-04-05T10:01:59.000Z</time>
      </trkpt>
      <trkpt lat="47.08482" lon="-1.62941">
        <ele>47</ele>
        <time>2021-04-05T10:02:01.000Z</time>
      </trkpt>
      <trkpt lat="47.0849" lon="-1.62928">
        <ele>47</ele>
        <time>2021-04-05T10:02:03.000Z</time>
      </trkpt>
      <trkpt lat="47.08498" lon="-1.62915">
        <ele>47</ele>
        <time>2021-04-05T10:02:05.000Z</time>
      </trkpt>
      <trkpt lat="47.08506" lon="-1.62903">
        <ele>47</ele>
        <time>2021-04-05T10:02:07.000Z</time>
      </trkpt>
      <trkpt lat="47.08515" lon="-1.6289">
        <ele>47</ele>
        <time>2021-04-05T10:02:09.000Z</time>
      </trkpt>
      <trkpt lat="47.08523" lon="-1.62877">
        <ele>48</ele>
        <time>2021-04-05T10:02:11.000Z</time>
      </trkpt>
      <trkpt lat="47.08531" lon="-1.62864">
        <ele>48</ele>
        <time>2021-04-05T10:02:13.000Z</time>
      </trkpt>
      <trkpt lat="47.08539" lon="-1.62851">
        <ele>47</ele>
        <time>2021-04-05T10:02:15.000Z</time>
      </trkpt>
      <trkpt lat="47.08547" lon="-1.62839">
        <ele>47</ele>
        <time>2021-04-05T10:02:17.000Z</time>
      </trkpt>
      <trkpt lat="47.08556" lon="-1.62828">
        <ele>46</ele>
        <time>2021-04-05T10:02:19.000Z</time>
      </trkpt>
      <trkpt lat="47.08567" lon="-1.6282">
        <ele>46</ele>
        <time>2021-04-05T10:02:21.000Z</time>
      </trkpt>
      <trkpt lat="47.08577" lon="-1.62812">
        <ele>46</ele>
        <time>2021-04-05T10:02:23.000Z</time>
      </trkpt>
      <trkpt lat="47.08581" lon="-1.62797">
        <ele>46</ele>
        <time>2021-04-05T10:02:25.000Z</time>
      </trkpt>
      <trkpt lat="47.08581" lon="-1.62779">
        <ele>45</ele>
        <time>2021-04-05T10:02:27.000Z</time>
      </trkpt>
      <trkpt lat="47.0858" lon="-1.62763">
        <ele>45</ele>
        <time>2021-04-05T10:02:29.000Z</time>
      </trkpt>
      <trkpt lat="47.0858" lon="-1.62746">
        <ele>45</ele>
        <time>2021-04-05T10:02:31.000Z</time>
      </trkpt>
      <trkpt lat="47.08579" lon="-1.62728">
        <ele>46</ele>
        <time>2021-04-05T10:02:33.000Z</time>
      </trkpt>
      <trkpt lat="47.0858" lon="-1.62711">
        <ele>46</ele>
        <time>2021-04-05T10:02:35.000Z</time>
      </trkpt>
      <trkpt lat="47.08581" lon="-1.62694">
        <ele>46</ele>
        <time>2021-04-05T10:02:37.000Z</time>
      </trkpt>
      <trkpt lat="47.08582" lon="-1.62677">
        <ele>46</ele>
        <time>2021-04-05T10:02:39.000Z</time>
      </trkpt>
      <trkpt lat="47.08584" lon="-1.6266">
        <ele>47</ele>
        <time>2021-04-05T10:02:41.000Z</time>
      </trkpt>
      <trkpt lat="47.08584" lon="-1.62645">
        <ele>46</ele>
        <time>2021-04-05T10:02:43.000Z</time>
      </trkpt>
      <trkpt lat="47.08585" lon="-1.62628">
        <ele>45</ele>
        <time>2021-04-05T10:02:45.000Z</time>
      </trkpt>
      <trkpt lat="47.08586" lon="-1.62611">
        <ele>46</ele>
        <time>2021-04-05T10:02:47.000Z</time>
      </trkpt>
      <trkpt lat="47.08587" lon="-1.62593">
        <ele>46</ele>
        <time>2021-04-05T10:02:49.000Z</time>
      </trkpt>
      <trkpt lat="47.08589" lon="-1.62576">
        <ele>46</ele>
        <time>2021-04-05T10:02:51.000Z</time>
      </trkpt>
      <trkpt lat="47.0859" lon="-1.62558">
        <ele>47</ele>
        <time>2021-04-05T10:02:53.000Z</time>
      </trkpt>
      <trkpt lat="47.08591" lon="-1.6254">
        <ele>46</ele>
        <time>2021-04-05T10:02:55.000Z</time>
      </trkpt>
      <trkpt lat="47.08592" lon="-1.62523">
        <ele>46</ele>
        <time>2021-04-05T10:02:57.000Z</time>
      </trkpt>
      <trkpt lat="47.08593" lon="-1.62504">
        <ele>46</ele>
        <time>2021-04-05T10:02:59.000Z</time>
      </trkpt>
      <trkpt lat="47.08594" lon="-1.62487">
        <ele>47</ele>
        <time>2021-04-05T10:03:01.000Z</time>
      </trkpt>
      <trkpt lat="47.08595" lon="-1.62469">
        <ele>47</ele>
        <time>2021-04-05T10:03:03.000Z</time>
      </trkpt>
      <trkpt lat="47.08597" lon="-1.62452">
        <ele>47</ele>
        <time>2021-04-05T10:03:05.000Z</time>
      </trkpt>
      <trkpt lat="47.08598" lon="-1.62434">
        <ele>46</ele>
        <time>2021-04-05T10:03:07.000Z</time>
      </trkpt>
      <trkpt lat="47.08598" lon="-1.62418">
        <ele>46</ele>
        <time>2021-04-05T10:03:09.000Z</time>
      </trkpt>
      <trkpt lat="47.08598" lon="-1.624">
        <ele>46</ele>
        <time>2021-04-05T10:03:11.000Z</time>
      </trkpt>
      <trkpt lat="47.08598" lon="-1.62382">
        <ele>45</ele>
        <time>2021-04-05T10:03:13.000Z</time>
      </trkpt>
      <trkpt lat="47.08599" lon="-1.62366">
        <ele>46</ele>
        <time>2021-04-05T10:03:15.000Z</time>
      </trkpt>
      <trkpt lat="47.08605" lon="-1.62353">
        <ele>46</ele>
        <time>2021-04-05T10:03:17.000Z</time>
      </trkpt>
      <trkpt lat="47.08616" lon="-1.62345">
        <ele>47</ele>
        <time>2021-04-05T10:03:19.000Z</time>
      </trkpt>
      <trkpt lat="47.08628" lon="-1.6234">
        <ele>49</ele>
        <time>2021-04-05T10:03:21.000Z</time>
      </trkpt>
      <trkpt lat="47.0864" lon="-1.62335">
        <ele>49</ele>
        <time>2021-04-05T10:03:23.000Z</time>
      </trkpt>
      <trkpt lat="47.08652" lon="-1.6233">
        <ele>50</ele>
        <time>2021-04-05T10:03:25.000Z</time>
      </trkpt>
      <trkpt lat="47.08663" lon="-1.62325">
        <ele>50</ele>
        <time>2021-04-05T10:03:27.000Z</time>
      </trkpt>
      <trkpt lat="47.08675" lon="-1.62321">
        <ele>50</ele>
        <time>2021-04-05T10:03:29.000Z</time>
      </trkpt>
      <trkpt lat="47.08687" lon="-1.62317">
        <ele>50</ele>
        <time>2021-04-05T10:03:31.000Z</time>
      </trkpt>
      <trkpt lat="47.08698" lon="-1.62312">
        <ele>50</ele>
        <time>2021-04-05T10:03:33.000Z</time>
      </trkpt>
      <trkpt lat="47.0871" lon="-1.62308">
        <ele>50</ele>
        <time>2021-04-05T10:03:35.000Z</time>
      </trkpt>
      <trkpt lat="47.0872" lon="-1.62302">
        <ele>50</ele>
        <time>2021-04-05T10:03:37.000Z</time>
      </trkpt>
      <trkpt lat="47.08732" lon="-1.62297">
        <ele>50</ele>
        <time>2021-04-05T10:03:39.000Z</time>
      </trkpt>
      <trkpt lat="47.08744" lon="-1.62292">
        <ele>50</ele>
        <time>2021-04-05T10:03:41.000Z</time>
      </trkpt>
      <trkpt lat="47.08755" lon="-1.62287">
        <ele>51</ele>
        <time>2021-04-05T10:03:43.000Z</time>
      </trkpt>
      <trkpt lat="47.08766" lon="-1.62282">
        <ele>51</ele>
        <time>2021-04-05T10:03:45.000Z</time>
      </trkpt>
      <trkpt lat="47.08778" lon="-1.62277">
        <ele>51</ele>
        <time>2021-04-05T10:03:47.000Z</time>
      </trkpt>
      <trkpt lat="47.08788" lon="-1.62274">
        <ele>52</ele>
        <time>2021-04-05T10:03:49.000Z</time>
      </trkpt>
      <trkpt lat="47.08798" lon="-1.62268">
        <ele>52</ele>
        <time>2021-04-05T10:03:51.000Z</time>
      </trkpt>
      <trkpt lat="47.0881" lon="-1.62264">
        <ele>52</ele>
        <time>2021-04-05T10:03:53.000Z</time>
      </trkpt>
      <trkpt lat="47.08821" lon="-1.62259">
        <ele>52</ele>
        <time>2021-04-05T10:03:55.000Z</time>
      </trkpt>
      <trkpt lat="47.08832" lon="-1.62254">
        <ele>52</ele>
        <time>2021-04-05T10:03:57.000Z</time>
      </trkpt>
      <trkpt lat="47.08843" lon="-1.62249">
        <ele>52</ele>
        <time>2021-04-05T10:03:59.000Z</time>
      </trkpt>
      <trkpt lat="47.08854" lon="-1.62245">
        <ele>51</ele>
        <time>2021-04-05T10:04:01.000Z</time>
      </trkpt>
      <trkpt lat="47.08866" lon="-1.6224">
        <ele>51</ele>
        <time>2021-04-05T10:04:03.000Z</time>
      </trkpt>
      <trkpt lat="47.08878" lon="-1.62236">
        <ele>51</ele>
        <time>2021-04-05T10:04:05.000Z</time>
      </trkpt>
      <trkpt lat="47.08889" lon="-1.62231">
        <ele>51</ele>
        <time>2021-04-05T10:04:07.000Z</time>
      </trkpt>
      <trkpt lat="47.08901" lon="-1.62226">
        <ele>51</ele>
        <time>2021-04-05T10:04:09.000Z</time>
      </trkpt>
      <trkpt lat="47.08912" lon="-1.62221">
        <ele>51</ele>
        <time>2021-04-05T10:04:11.000Z</time>
      </trkpt>
      <trkpt lat="47.08923" lon="-1.62217">
        <ele>52</ele>
        <time>2021-04-05T10:04:13.000Z</time>
      </trkpt>
      <trkpt lat="47.08935" lon="-1.62212">
        <ele>52</ele>
        <time>2021-04-05T10:04:15.000Z</time>
      </trkpt>
      <trkpt lat="47.08945" lon="-1.62208">
        <ele>52</ele>
        <time>2021-04-05T10:04:17.000Z</time>
      </trkpt>
      <trkpt lat="47.08956" lon="-1.62203">
        <ele>52</ele>
        <time>2021-04-05T10:04:19.000Z</time>
      </trkpt>
      <trkpt lat="47.08968" lon="-1.62198">
        <ele>52</ele>
        <time>2021-04-05T10:04:21.000Z</time>
      </trkpt>
      <trkpt lat="47.0898" lon="-1.62194">
        <ele>52</ele>
        <time>2021-04-05T10:04:23.000Z</time>
      </trkpt>
      <trkpt lat="47.08991" lon="-1.62189">
        <ele>52</ele>
        <time>2021-04-05T10:04:25.000Z</time>
      </trkpt>
      <trkpt lat="47.09002" lon="-1.62184">
        <ele>52</ele>
        <time>2021-04-05T10:04:27.000Z</time>
      </trkpt>
      <trkpt lat="47.09013" lon="-1.62179">
        <ele>52</ele>
        <time>2021-04-05T10:04:29.000Z</time>
      </trkpt>
      <trkpt lat="47.09024" lon="-1.62175">
        <ele>52</ele>
        <time>2021-04-05T10:04:31.000Z</time>
      </trkpt>
      <trkpt lat="47.09035" lon="-1.6217">
        <ele>52</ele>
        <time>2021-04-05T10:04:33.000Z</time>
      </trkpt>
      <trkpt lat="47.09045" lon="-1.62166">
        <ele>53</ele>
        <time>2021-04-05T10:04:35.000Z</time>
      </trkpt>
      <trkpt lat="47.09055" lon="-1.62161">
        <ele>53</ele>
        <time>2021-04-05T10:04:37.000Z</time>
      </trkpt>
      <trkpt lat="47.09066" lon="-1.62157">
        <ele>54</ele>
        <time>2021-04-05T10:04:39.000Z</time>
      </trkpt>
      <trkpt lat="47.09077" lon="-1.62152">
        <ele>53</ele>
        <time>2021-04-05T10:04:41.000Z</time>
      </trkpt>
      <trkpt lat="47.09088" lon="-1.62148">
        <ele>53</ele>
        <time>2021-04-05T10:04:43.000Z</time>
      </trkpt>
      <trkpt lat="47.09099" lon="-1.62143">
        <ele>54</ele>
        <time>2021-04-05T10:04:45.000Z</time>
      </trkpt>
      <trkpt lat="47.09109" lon="-1.62139">
        <ele>54</ele>
        <time>2021-04-05T10:04:47.000Z</time>
      </trkpt>
      <trkpt lat="47.09121" lon="-1.62134">
        <ele>54</ele>
        <time>2021-04-05T10:04:49.000Z</time>
      </trkpt>
      <trkpt lat="47.09131" lon="-1.62129">
        <ele>54</ele>
        <time>2021-04-05T10:04:51.000Z</time>
      </trkpt>
      <trkpt lat="47.09142" lon="-1.62125">
        <ele>54</ele>
        <time>2021-04-05T10:04:53.000Z</time>
      </trkpt>
      <trkpt lat="47.09153" lon="-1.6212">
        <ele>54</ele>
        <time>2021-04-05T10:04:55.000Z</time>
      </trkpt>
      <trkpt lat="47.09164" lon="-1.62116">
        <ele>54</ele>
        <time>2021-04-05T10:04:57.000Z</time>
      </trkpt>
      <trkpt lat="47.09175" lon="-1.62109">
        <ele>54</ele>
        <time>2021-04-05T10:04:59.000Z</time>
      </trkpt>
      <trkpt lat="47.09182" lon="-1.62099">
        <ele>54</ele>
        <time>2021-04-05T10:05:01.000Z</time>
      </trkpt>
      <trkpt lat="47.09182" lon="-1.62083">
        <ele>53</ele>
        <time>2021-04-05T10:05:03.000Z</time>
      </trkpt>
      <trkpt lat="47.09174" lon="-1.62067">
        <ele>53</ele>
        <time>2021-04-05T10:05:05.000Z</time>
      </trkpt>
      <trkpt lat="47.09167" lon="-1.62051">
        <ele>52</ele>
        <time>2021-04-05T10:05:07.000Z</time>
      </trkpt>
      <trkpt lat="47.09162" lon="-1.62034">
        <ele>52</ele>
        <time>2021-04-05T10:05:09.000Z</time>
      </trkpt>
      <trkpt lat="47.09155" lon="-1.62016">
        <ele>51</ele>
        <time>2021-04-05T10:05:11.000Z</time>
      </trkpt>
      <trkpt lat="47.0915" lon="-1.61999">
        <ele>51</ele>
        <time>2021-04-05T10:05:13.000Z</time>
      </trkpt>
      <trkpt lat="47.09143" lon="-1.61982">
        <ele>51</ele>
        <time>2021-04-05T10:05:15.000Z</time>
      </trkpt>
      <trkpt lat="47.09137" lon="-1.61966">
        <ele>51</ele>
        <time>2021-04-05T10:05:17.000Z</time>
      </trkpt>
      <trkpt lat="47.09131" lon="-1.61949">
        <ele>51</ele>
        <time>2021-04-05T10:05:19.000Z</time>
      </trkpt>
      <trkpt lat="47.09125" lon="-1.61932">
        <ele>50</ele>
        <time>2021-04-05T10:05:21.000Z</time>
      </trkpt>
      <trkpt lat="47.09119" lon="-1.61915">
        <ele>51</ele>
        <time>2021-04-05T10:05:23.000Z</time>
      </trkpt>
      <trkpt lat="47.09111" lon="-1.61896">
        <ele>51</ele>
        <time>2021-04-05T10:05:25.000Z</time>
      </trkpt>
      <trkpt lat="47.09105" lon="-1.6188">
        <ele>51</ele>
        <time>2021-04-05T10:05:27.000Z</time>
      </trkpt>
      <trkpt lat="47.09098" lon="-1.61863">
        <ele>52</ele>
        <time>2021-04-05T10:05:29.000Z</time>
      </trkpt>
      <trkpt lat="47.09092" lon="-1.61846">
        <ele>52</ele>
        <time>2021-04-05T10:05:31.000Z</time>
      </trkpt>
      <trkpt lat="47.09086" lon="-1.61829">
        <ele>52</ele>
        <time>2021-04-05T10:05:33.000Z</time>
      </trkpt>
      <trkpt lat="47.0908" lon="-1.61812">
        <ele>52</ele>
        <time>2021-04-05T10:05:35.000Z</time>
      </trkpt>
      <trkpt lat="47.09074" lon="-1.61795">
        <ele>52</ele>
        <time>2021-04-05T10:05:37.000Z</time>
      </trkpt>
      <trkpt lat="47.09068" lon="-1.61778">
        <ele>52</ele>
        <time>2021-04-05T10:05:39.000Z</time>
      </trkpt>
      <trkpt lat="47.09062" lon="-1.61762">
        <ele>52</ele>
        <time>2021-04-05T10:05:41.000Z</time>
      </trkpt>
      <trkpt lat="47.09057" lon="-1.61745">
        <ele>52</ele>
        <time>2021-04-05T10:05:43.000Z</time>
      </trkpt>
      <trkpt lat="47.09051" lon="-1.61728">
        <ele>52</ele>
        <time>2021-04-05T10:05:45.000Z</time>
      </trkpt>
      <trkpt lat="47.09045" lon="-1.61711">
        <ele>51</ele>
        <time>2021-04-05T10:05:47.000Z</time>
      </trkpt>
      <trkpt lat="47.09038" lon="-1.61694">
        <ele>51</ele>
        <time>2021-04-05T10:05:49.000Z</time>
      </trkpt>
      <trkpt lat="47.09032" lon="-1.61677">
        <ele>51</ele>
        <time>2021-04-05T10:05:51.000Z</time>
      </trkpt>
      <trkpt lat="47.09027" lon="-1.61659">
        <ele>51</ele>
        <time>2021-04-05T10:05:53.000Z</time>
      </trkpt>
      <trkpt lat="47.09021" lon="-1.61642">
        <ele>51</ele>
        <time>2021-04-05T10:05:55.000Z</time>
      </trkpt>
      <trkpt lat="47.09016" lon="-1.61626">
        <ele>50</ele>
        <time>2021-04-05T10:05:57.000Z</time>
      </trkpt>
      <trkpt lat="47.09011" lon="-1.61611">
        <ele>50</ele>
        <time>2021-04-05T10:05:59.000Z</time>
      </trkpt>
      <trkpt lat="47.09004" lon="-1.61596">
        <ele>50</ele>
        <time>2021-04-05T10:06:01.000Z</time>
      </trkpt>
      <trkpt lat="47.09001" lon="-1.61581">
        <ele>51</ele>
        <time>2021-04-05T10:06:03.000Z</time>
      </trkpt>
      <trkpt lat="47.09012" lon="-1.61574">
        <ele>51</ele>
        <time>2021-04-05T10:06:05.000Z</time>
      </trkpt>
      <trkpt lat="47.09024" lon="-1.61568">
        <ele>52</ele>
        <time>2021-04-05T10:06:07.000Z</time>
      </trkpt>
      <trkpt lat="47.09035" lon="-1.61561">
        <ele>53</ele>
        <time>2021-04-05T10:06:09.000Z</time>
      </trkpt>
      <trkpt lat="47.09046" lon="-1.61553">
        <ele>54</ele>
        <time>2021-04-05T10:06:11.000Z</time>
      </trkpt>
      <trkpt lat="47.09058" lon="-1.61547">
        <ele>54</ele>
        <time>2021-04-05T10:06:13.000Z</time>
      </trkpt>
      <trkpt lat="47.09069" lon="-1.61541">
        <ele>54</ele>
        <time>2021-04-05T10:06:15.000Z</time>
      </trkpt>
      <trkpt lat="47.09081" lon="-1.61535">
        <ele>54</ele>
        <time>2021-04-05T10:06:17.000Z</time>
      </trkpt>
      <trkpt lat="47.09092" lon="-1.61529">
        <ele>54</ele>
        <time>2021-04-05T10:06:19.000Z</time>
      </trkpt>
      <trkpt lat="47.09103" lon="-1.61522">
        <ele>54</ele>
        <time>2021-04-05T10:06:21.000Z</time>
      </trkpt>
      <trkpt lat="47.09115" lon="-1.61516">
        <ele>53</ele>
        <time>2021-04-05T10:06:23.000Z</time>
      </trkpt>
      <trkpt lat="47.09126" lon="-1.61509">
        <ele>53</ele>
        <time>2021-04-05T10:06:25.000Z</time>
      </trkpt>
      <trkpt lat="47.09137" lon="-1.61503">
        <ele>53</ele>
        <time>2021-04-05T10:06:27.000Z</time>
      </trkpt>
      <trkpt lat="47.09148" lon="-1.61496">
        <ele>53</ele>
        <time>2021-04-05T10:06:29.000Z</time>
      </trkpt>
      <trkpt lat="47.09158" lon="-1.61489">
        <ele>54</ele>
        <time>2021-04-05T10:06:31.000Z</time>
      </trkpt>
      <trkpt lat="47.09169" lon="-1.61483">
        <ele>54</ele>
        <time>2021-04-05T10:06:33.000Z</time>
      </trkpt>
      <trkpt lat="47.09179" lon="-1.61476">
        <ele>55</ele>
        <time>2021-04-05T10:06:35.000Z</time>
      </trkpt>
      <trkpt lat="47.0919" lon="-1.6147">
        <ele>55</ele>
        <time>2021-04-05T10:06:37.000Z</time>
      </trkpt>
      <trkpt lat="47.09201" lon="-1.61464">
        <ele>54</ele>
        <time>2021-04-05T10:06:39.000Z</time>
      </trkpt>
      <trkpt lat="47.09213" lon="-1.61457">
        <ele>54</ele>
        <time>2021-04-05T10:06:41.000Z</time>
      </trkpt>
      <trkpt lat="47.09224" lon="-1.61451">
        <ele>54</ele>
        <time>2021-04-05T10:06:43.000Z</time>
      </trkpt>
      <trkpt lat="47.09235" lon="-1.61444">
        <ele>54</ele>
        <time>2021-04-05T10:06:45.000Z</time>
      </trkpt>
      <trkpt lat="47.09246" lon="-1.61438">
        <ele>55</ele>
        <time>2021-04-05T10:06:47.000Z</time>
      </trkpt>
      <trkpt lat="47.09257" lon="-1.61432">
        <ele>55</ele>
        <time>2021-04-05T10:06:49.000Z</time>
      </trkpt>
      <trkpt lat="47.09268" lon="-1.61426">
        <ele>55</ele>
        <time>2021-04-05T10:06:51.000Z</time>
      </trkpt>
      <trkpt lat="47.09278" lon="-1.61419">
        <ele>56</ele>
        <time>2021-04-05T10:06:53.000Z</time>
      </trkpt>
      <trkpt lat="47.09284" lon="-1.61407">
        <ele>56</ele>
        <time>2021-04-05T10:06:55.000Z</time>
      </trkpt>
      <trkpt lat="47.09283" lon="-1.61391">
        <ele>56</ele>
        <time>2021-04-05T10:06:57.000Z</time>
      </trkpt>
      <trkpt lat="47.0928" lon="-1.61375">
        <ele>56</ele>
        <time>2021-04-05T10:06:59.000Z</time>
      </trkpt>
      <trkpt lat="47.09277" lon="-1.61357">
        <ele>55</ele>
        <time>2021-04-05T10:07:01.000Z</time>
      </trkpt>
      <trkpt lat="47.09274" lon="-1.6134">
        <ele>55</ele>
        <time>2021-04-05T10:07:03.000Z</time>
      </trkpt>
      <trkpt lat="47.09271" lon="-1.61323">
        <ele>55</ele>
        <time>2021-04-05T10:07:05.000Z</time>
      </trkpt>
      <trkpt lat="47.09268" lon="-1.61305">
        <ele>54</ele>
        <time>2021-04-05T10:07:07.000Z</time>
      </trkpt>
      <trkpt lat="47.09264" lon="-1.61289">
        <ele>54</ele>
        <time>2021-04-05T10:07:09.000Z</time>
      </trkpt>
      <trkpt lat="47.0926" lon="-1.61272">
        <ele>54</ele>
        <time>2021-04-05T10:07:11.000Z</time>
      </trkpt>
      <trkpt lat="47.09256" lon="-1.61255">
        <ele>54</ele>
        <time>2021-04-05T10:07:13.000Z</time>
      </trkpt>
      <trkpt lat="47.09253" lon="-1.61238">
        <ele>53</ele>
        <time>2021-04-05T10:07:15.000Z</time>
      </trkpt>
      <trkpt lat="47.0925" lon="-1.61223">
        <ele>52</ele>
        <time>2021-04-05T10:07:17.000Z</time>
      </trkpt>
      <trkpt lat="47.09244" lon="-1.61208">
        <ele>53</ele>
        <time>2021-04-05T10:07:20.000Z</time>
      </trkpt>
      <trkpt lat="47.0924" lon="-1.61195">
        <ele>53</ele>
        <time>2021-04-05T10:07:23.000Z</time>
      </trkpt>
      <trkpt lat="47.09241" lon="-1.61182">
        <ele>53</ele>
        <time>2021-04-05T10:07:29.000Z</time>
      </trkpt>
      <trkpt lat="47.09252" lon="-1.61182">
        <ele>53</ele>
        <time>2021-04-05T10:07:36.000Z</time>
      </trkpt>
      <trkpt lat="47.09262" lon="-1.61184">
        <ele>54</ele>
        <time>2021-04-05T10:07:38.000Z</time>
      </trkpt>
      <trkpt lat="47.09273" lon="-1.61183">
        <ele>55</ele>
        <time>2021-04-05T10:07:40.000Z</time>
      </trkpt>
      <trkpt lat="47.09286" lon="-1.61188">
        <ele>55</ele>
        <time>2021-04-05T10:07:42.000Z</time>
      </trkpt>
      <trkpt lat="47.09299" lon="-1.61192">
        <ele>56</ele>
        <time>2021-04-05T10:07:44.000Z</time>
      </trkpt>
      <trkpt lat="47.09311" lon="-1.61195">
        <ele>56</ele>
        <time>2021-04-05T10:07:46.000Z</time>
      </trkpt>
      <trkpt lat="47.09323" lon="-1.61199">
        <ele>57</ele>
        <time>2021-04-05T10:07:48.000Z</time>
      </trkpt>
      <trkpt lat="47.09334" lon="-1.61202">
        <ele>56</ele>
        <time>2021-04-05T10:07:50.000Z</time>
      </trkpt>
      <trkpt lat="47.09346" lon="-1.61204">
        <ele>56</ele>
        <time>2021-04-05T10:07:52.000Z</time>
      </trkpt>
      <trkpt lat="47.09358" lon="-1.61207">
        <ele>56</ele>
        <time>2021-04-05T10:07:54.000Z</time>
      </trkpt>
      <trkpt lat="47.0937" lon="-1.61211">
        <ele>56</ele>
        <time>2021-04-05T10:07:56.000Z</time>
      </trkpt>
      <trkpt lat="47.09382" lon="-1.61217">
        <ele>57</ele>
        <time>2021-04-05T10:07:58.000Z</time>
      </trkpt>
      <trkpt lat="47.09393" lon="-1.61222">
        <ele>56</ele>
        <time>2021-04-05T10:08:00.000Z</time>
      </trkpt>
      <trkpt lat="47.09405" lon="-1.61228">
        <ele>56</ele>
        <time>2021-04-05T10:08:02.000Z</time>
      </trkpt>
      <trkpt lat="47.09417" lon="-1.61231">
        <ele>55</ele>
        <time>2021-04-05T10:08:04.000Z</time>
      </trkpt>
      <trkpt lat="47.09428" lon="-1.61219">
        <ele>55</ele>
        <time>2021-04-05T10:08:06.000Z</time>
      </trkpt>
      <trkpt lat="47.09439" lon="-1.61207">
        <ele>55</ele>
        <time>2021-04-05T10:08:08.000Z</time>
      </trkpt>
      <trkpt lat="47.09449" lon="-1.61195">
        <ele>55</ele>
        <time>2021-04-05T10:08:10.000Z</time>
      </trkpt>
      <trkpt lat="47.09459" lon="-1.61183">
        <ele>55</ele>
        <time>2021-04-05T10:08:12.000Z</time>
      </trkpt>
      <trkpt lat="47.09471" lon="-1.61172">
        <ele>54</ele>
        <time>2021-04-05T10:08:14.000Z</time>
      </trkpt>
      <trkpt lat="47.09481" lon="-1.61161">
        <ele>54</ele>
        <time>2021-04-05T10:08:16.000Z</time>
      </trkpt>
      <trkpt lat="47.09492" lon="-1.61151">
        <ele>54</ele>
        <time>2021-04-05T10:08:18.000Z</time>
      </trkpt>
      <trkpt lat="47.09503" lon="-1.61143">
        <ele>53</ele>
        <time>2021-04-05T10:08:20.000Z</time>
      </trkpt>
      <trkpt lat="47.09514" lon="-1.61138">
        <ele>53</ele>
        <time>2021-04-05T10:08:22.000Z</time>
      </trkpt>
      <trkpt lat="47.09526" lon="-1.61136">
        <ele>54</ele>
        <time>2021-04-05T10:08:24.000Z</time>
      </trkpt>
      <trkpt lat="47.09539" lon="-1.61135">
        <ele>53</ele>
        <time>2021-04-05T10:08:26.000Z</time>
      </trkpt>
      <trkpt lat="47.09553" lon="-1.61133">
        <ele>52</ele>
        <time>2021-04-05T10:08:28.000Z</time>
      </trkpt>
      <trkpt lat="47.09566" lon="-1.61132">
        <ele>52</ele>
        <time>2021-04-05T10:08:30.000Z</time>
      </trkpt>
      <trkpt lat="47.09578" lon="-1.6113">
        <ele>52</ele>
        <time>2021-04-05T10:08:32.000Z</time>
      </trkpt>
      <trkpt lat="47.09591" lon="-1.61129">
        <ele>52</ele>
        <time>2021-04-05T10:08:34.000Z</time>
      </trkpt>
      <trkpt lat="47.09604" lon="-1.61127">
        <ele>51</ele>
        <time>2021-04-05T10:08:36.000Z</time>
      </trkpt>
      <trkpt lat="47.09617" lon="-1.61126">
        <ele>51</ele>
        <time>2021-04-05T10:08:38.000Z</time>
      </trkpt>
      <trkpt lat="47.09629" lon="-1.61124">
        <ele>51</ele>
        <time>2021-04-05T10:08:40.000Z</time>
      </trkpt>
      <trkpt lat="47.09642" lon="-1.61122">
        <ele>50</ele>
        <time>2021-04-05T10:08:42.000Z</time>
      </trkpt>
      <trkpt lat="47.09655" lon="-1.61121">
        <ele>50</ele>
        <time>2021-04-05T10:08:44.000Z</time>
      </trkpt>
      <trkpt lat="47.09667" lon="-1.6112">
        <ele>50</ele>
        <time>2021-04-05T10:08:46.000Z</time>
      </trkpt>
      <trkpt lat="47.0968" lon="-1.61118">
        <ele>49</ele>
        <time>2021-04-05T10:08:48.000Z</time>
      </trkpt>
      <trkpt lat="47.09692" lon="-1.61117">
        <ele>49</ele>
        <time>2021-04-05T10:08:50.000Z</time>
      </trkpt>
      <trkpt lat="47.09705" lon="-1.61114">
        <ele>49</ele>
        <time>2021-04-05T10:08:52.000Z</time>
      </trkpt>
      <trkpt lat="47.09718" lon="-1.61112">
        <ele>49</ele>
        <time>2021-04-05T10:08:54.000Z</time>
      </trkpt>
      <trkpt lat="47.0973" lon="-1.61109">
        <ele>49</ele>
        <time>2021-04-05T10:08:56.000Z</time>
      </trkpt>
      <trkpt lat="47.09742" lon="-1.61107">
        <ele>49</ele>
        <time>2021-04-05T10:08:58.000Z</time>
      </trkpt>
      <trkpt lat="47.09754" lon="-1.61106">
        <ele>49</ele>
        <time>2021-04-05T10:09:00.000Z</time>
      </trkpt>
      <trkpt lat="47.09766" lon="-1.61105">
        <ele>49</ele>
        <time>2021-04-05T10:09:02.000Z</time>
      </trkpt>
      <trkpt lat="47.09778" lon="-1.61104">
        <ele>49</ele>
        <time>2021-04-05T10:09:04.000Z</time>
      </trkpt>
      <trkpt lat="47.0979" lon="-1.61101">
        <ele>49</ele>
        <time>2021-04-05T10:09:06.000Z</time>
      </trkpt>
      <trkpt lat="47.09802" lon="-1.61095">
        <ele>48</ele>
        <time>2021-04-05T10:09:08.000Z</time>
      </trkpt>
      <trkpt lat="47.09813" lon="-1.61089">
        <ele>49</ele>
        <time>2021-04-05T10:09:10.000Z</time>
      </trkpt>
      <trkpt lat="47.09824" lon="-1.6108">
        <ele>49</ele>
        <time>2021-04-05T10:09:12.000Z</time>
      </trkpt>
      <trkpt lat="47.09835" lon="-1.61071">
        <ele>49</ele>
        <time>2021-04-05T10:09:14.000Z</time>
      </trkpt>
      <trkpt lat="47.09844" lon="-1.61061">
        <ele>50</ele>
        <time>2021-04-05T10:09:16.000Z</time>
      </trkpt>
      <trkpt lat="47.09854" lon="-1.61049">
        <ele>50</ele>
        <time>2021-04-05T10:09:18.000Z</time>
      </trkpt>
      <trkpt lat="47.09862" lon="-1.61036">
        <ele>51</ele>
        <time>2021-04-05T10:09:20.000Z</time>
      </trkpt>
      <trkpt lat="47.09869" lon="-1.61022">
        <ele>51</ele>
        <time>2021-04-05T10:09:22.000Z</time>
      </trkpt>
      <trkpt lat="47.09876" lon="-1.61008">
        <ele>51</ele>
        <time>2021-04-05T10:09:24.000Z</time>
      </trkpt>
      <trkpt lat="47.09883" lon="-1.60993">
        <ele>51</ele>
        <time>2021-04-05T10:09:26.000Z</time>
      </trkpt>
      <trkpt lat="47.09888" lon="-1.60978">
        <ele>51</ele>
        <time>2021-04-05T10:09:28.000Z</time>
      </trkpt>
      <trkpt lat="47.09895" lon="-1.60962">
        <ele>51</ele>
        <time>2021-04-05T10:09:30.000Z</time>
      </trkpt>
      <trkpt lat="47.09901" lon="-1.60947">
        <ele>51</ele>
        <time>2021-04-05T10:09:32.000Z</time>
      </trkpt>
      <trkpt lat="47.09907" lon="-1.60932">
        <ele>51</ele>
        <time>2021-04-05T10:09:34.000Z</time>
      </trkpt>
      <trkpt lat="47.09913" lon="-1.60917">
        <ele>52</ele>
        <time>2021-04-05T10:09:36.000Z</time>
      </trkpt>
      <trkpt lat="47.09919" lon="-1.60903">
        <ele>52</ele>
        <time>2021-04-05T10:09:38.000Z</time>
      </trkpt>
      <trkpt lat="47.09924" lon="-1.60888">
        <ele>52</ele>
        <time>2021-04-05T10:09:40.000Z</time>
      </trkpt>
      <trkpt lat="47.0993" lon="-1.60873">
        <ele>52</ele>
        <time>2021-04-05T10:09:42.000Z</time>
      </trkpt>
      <trkpt lat="47.09936" lon="-1.60858">
        <ele>51</ele>
        <time>2021-04-05T10:09:44.000Z</time>
      </trkpt>
      <trkpt lat="47.09942" lon="-1.60843">
        <ele>51</ele>
        <time>2021-04-05T10:09:46.000Z</time>
      </trkpt>
      <trkpt lat="47.09948" lon="-1.60827">
        <ele>52</ele>
        <time>2021-04-05T10:09:48.000Z</time>
      </trkpt>
      <trkpt lat="47.09953" lon="-1.60811">
        <ele>52</ele>
        <time>2021-04-05T10:09:50.000Z</time>
      </trkpt>
      <trkpt lat="47.09959" lon="-1.60795">
        <ele>53</ele>
        <time>2021-04-05T10:09:52.000Z</time>
      </trkpt>
      <trkpt lat="47.09964" lon="-1.60778">
        <ele>53</ele>
        <time>2021-04-05T10:09:54.000Z</time>
      </trkpt>
      <trkpt lat="47.09969" lon="-1.60762">
        <ele>53</ele>
        <time>2021-04-05T10:09:56.000Z</time>
      </trkpt>
      <trkpt lat="47.09974" lon="-1.60745">
        <ele>54</ele>
        <time>2021-04-05T10:09:58.000Z</time>
      </trkpt>
      <trkpt lat="47.09979" lon="-1.60729">
        <ele>54</ele>
        <time>2021-04-05T10:10:00.000Z</time>
      </trkpt>
      <trkpt lat="47.09984" lon="-1.60713">
        <ele>54</ele>
        <time>2021-04-05T10:10:02.000Z</time>
      </trkpt>
      <trkpt lat="47.09989" lon="-1.60696">
        <ele>54</ele>
        <time>2021-04-05T10:10:04.000Z</time>
      </trkpt>
      <trkpt lat="47.09994" lon="-1.60679">
        <ele>54</ele>
        <time>2021-04-05T10:10:06.000Z</time>
      </trkpt>
      <trkpt lat="47.09999" lon="-1.60663">
        <ele>54</ele>
        <time>2021-04-05T10:10:08.000Z</time>
      </trkpt>
      <trkpt lat="47.10004" lon="-1.60647">
        <ele>54</ele>
        <time>2021-04-05T10:10:10.000Z</time>
      </trkpt>
      <trkpt lat="47.10009" lon="-1.6063">
        <ele>54</ele>
        <time>2021-04-05T10:10:12.000Z</time>
      </trkpt>
      <trkpt lat="47.10014" lon="-1.60614">
        <ele>54</ele>
        <time>2021-04-05T10:10:14.000Z</time>
      </trkpt>
      <trkpt lat="47.10018" lon="-1.60597">
        <ele>54</ele>
        <time>2021-04-05T10:10:16.000Z</time>
      </trkpt>
      <trkpt lat="47.10022" lon="-1.6058">
        <ele>54</ele>
        <time>2021-04-05T10:10:18.000Z</time>
      </trkpt>
      <trkpt lat="47.10027" lon="-1.60563">
        <ele>54</ele>
        <time>2021-04-05T10:10:20.000Z</time>
      </trkpt>
      <trkpt lat="47.10032" lon="-1.60547">
        <ele>54</ele>
        <time>2021-04-05T10:10:22.000Z</time>
      </trkpt>
      <trkpt lat="47.10037" lon="-1.6053">
        <ele>54</ele>
        <time>2021-04-05T10:10:24.000Z</time>
      </trkpt>
      <trkpt lat="47.10042" lon="-1.60513">
        <ele>54</ele>
        <time>2021-04-05T10:10:26.000Z</time>
      </trkpt>
      <trkpt lat="47.10047" lon="-1.60496">
        <ele>54</ele>
        <time>2021-04-05T10:10:28.000Z</time>
      </trkpt>
      <trkpt lat="47.10051" lon="-1.60478">
        <ele>55</ele>
        <time>2021-04-05T10:10:30.000Z</time>
      </trkpt>
      <trkpt lat="47.10054" lon="-1.60459">
        <ele>54</ele>
        <time>2021-04-05T10:10:32.000Z</time>
      </trkpt>
      <trkpt lat="47.10058" lon="-1.60441">
        <ele>54</ele>
        <time>2021-04-05T10:10:34.000Z</time>
      </trkpt>
      <trkpt lat="47.10061" lon="-1.60423">
        <ele>54</ele>
        <time>2021-04-05T10:10:36.000Z</time>
      </trkpt>
      <trkpt lat="47.10063" lon="-1.60405">
        <ele>53</ele>
        <time>2021-04-05T10:10:38.000Z</time>
      </trkpt>
      <trkpt lat="47.10066" lon="-1.60387">
        <ele>54</ele>
        <time>2021-04-05T10:10:40.000Z</time>
      </trkpt>
      <trkpt lat="47.10068" lon="-1.6037">
        <ele>54</ele>
        <time>2021-04-05T10:10:42.000Z</time>
      </trkpt>
      <trkpt lat="47.1007" lon="-1.60352">
        <ele>53</ele>
        <time>2021-04-05T10:10:44.000Z</time>
      </trkpt>
      <trkpt lat="47.10071" lon="-1.60334">
        <ele>53</ele>
        <time>2021-04-05T10:10:46.000Z</time>
      </trkpt>
      <trkpt lat="47.10073" lon="-1.60316">
        <ele>53</ele>
        <time>2021-04-05T10:10:48.000Z</time>
      </trkpt>
      <trkpt lat="47.10075" lon="-1.60298">
        <ele>52</ele>
        <time>2021-04-05T10:10:50.000Z</time>
      </trkpt>
      <trkpt lat="47.10076" lon="-1.60281">
        <ele>52</ele>
        <time>2021-04-05T10:10:52.000Z</time>
      </trkpt>
      <trkpt lat="47.10078" lon="-1.60264">
        <ele>52</ele>
        <time>2021-04-05T10:10:54.000Z</time>
      </trkpt>
      <trkpt lat="47.10079" lon="-1.60246">
        <ele>52</ele>
        <time>2021-04-05T10:10:56.000Z</time>
      </trkpt>
      <trkpt lat="47.1008" lon="-1.60228">
        <ele>52</ele>
        <time>2021-04-05T10:10:58.000Z</time>
      </trkpt>
      <trkpt lat="47.10082" lon="-1.6021">
        <ele>52</ele>
        <time>2021-04-05T10:11:00.000Z</time>
      </trkpt>
      <trkpt lat="47.10083" lon="-1.60191">
        <ele>52</ele>
        <time>2021-04-05T10:11:02.000Z</time>
      </trkpt>
      <trkpt lat="47.10082" lon="-1.60173">
        <ele>51</ele>
        <time>2021-04-05T10:11:04.000Z</time>
      </trkpt>
      <trkpt lat="47.10078" lon="-1.60156">
        <ele>51</ele>
        <time>2021-04-05T10:11:06.000Z</time>
      </trkpt>
      <trkpt lat="47.10071" lon="-1.60142">
        <ele>51</ele>
        <time>2021-04-05T10:11:08.000Z</time>
      </trkpt>
      <trkpt lat="47.10068" lon="-1.60125">
        <ele>51</ele>
        <time>2021-04-05T10:11:10.000Z</time>
      </trkpt>
      <trkpt lat="47.10076" lon="-1.60108">
        <ele>52</ele>
        <time>2021-04-05T10:11:12.000Z</time>
      </trkpt>
      <trkpt lat="47.10088" lon="-1.60101">
        <ele>53</ele>
        <time>2021-04-05T10:11:14.000Z</time>
      </trkpt>
      <trkpt lat="47.101" lon="-1.60097">
        <ele>54</ele>
        <time>2021-04-05T10:11:16.000Z</time>
      </trkpt>
      <trkpt lat="47.10109" lon="-1.60085">
        <ele>54</ele>
        <time>2021-04-05T10:11:18.000Z</time>
      </trkpt>
      <trkpt lat="47.10118" lon="-1.60073">
        <ele>55</ele>
        <time>2021-04-05T10:11:20.000Z</time>
      </trkpt>
      <trkpt lat="47.10126" lon="-1.60059">
        <ele>55</ele>
        <time>2021-04-05T10:11:22.000Z</time>
      </trkpt>
      <trkpt lat="47.10135" lon="-1.60046">
        <ele>55</ele>
        <time>2021-04-05T10:11:24.000Z</time>
      </trkpt>
      <trkpt lat="47.10144" lon="-1.60033">
        <ele>56</ele>
        <time>2021-04-05T10:11:26.000Z</time>
      </trkpt>
      <trkpt lat="47.10153" lon="-1.60019">
        <ele>56</ele>
        <time>2021-04-05T10:11:28.000Z</time>
      </trkpt>
      <trkpt lat="47.10161" lon="-1.60006">
        <ele>56</ele>
        <time>2021-04-05T10:11:30.000Z</time>
      </trkpt>
      <trkpt lat="47.10169" lon="-1.59992">
        <ele>56</ele>
        <time>2021-04-05T10:11:32.000Z</time>
      </trkpt>
      <trkpt lat="47.10177" lon="-1.59978">
        <ele>55</ele>
        <time>2021-04-05T10:11:34.000Z</time>
      </trkpt>
      <trkpt lat="47.10184" lon="-1.59965">
        <ele>55</ele>
        <time>2021-04-05T10:11:36.000Z</time>
      </trkpt>
      <trkpt lat="47.10193" lon="-1.59951">
        <ele>55</ele>
        <time>2021-04-05T10:11:38.000Z</time>
      </trkpt>
      <trkpt lat="47.10201" lon="-1.59937">
        <ele>55</ele>
        <time>2021-04-05T10:11:40.000Z</time>
      </trkpt>
      <trkpt lat="47.10209" lon="-1.59924">
        <ele>55</ele>
        <time>2021-04-05T10:11:42.000Z</time>
      </trkpt>
      <trkpt lat="47.10217" lon="-1.59911">
        <ele>55</ele>
        <time>2021-04-05T10:11:44.000Z</time>
      </trkpt>
      <trkpt lat="47.10225" lon="-1.59898">
        <ele>55</ele>
        <time>2021-04-05T10:11:46.000Z</time>
      </trkpt>
      <trkpt lat="47.10234" lon="-1.59884">
        <ele>55</ele>
        <time>2021-04-05T10:11:48.000Z</time>
      </trkpt>
      <trkpt lat="47.10242" lon="-1.59871">
        <ele>55</ele>
        <time>2021-04-05T10:11:50.000Z</time>
      </trkpt>
      <trkpt lat="47.1025" lon="-1.59857">
        <ele>55</ele>
        <time>2021-04-05T10:11:52.000Z</time>
      </trkpt>
      <trkpt lat="47.10258" lon="-1.59844">
        <ele>55</ele>
        <time>2021-04-05T10:11:54.000Z</time>
      </trkpt>
      <trkpt lat="47.10267" lon="-1.5983">
        <ele>54</ele>
        <time>2021-04-05T10:11:56.000Z</time>
      </trkpt>
      <trkpt lat="47.10275" lon="-1.59817">
        <ele>55</ele>
        <time>2021-04-05T10:11:58.000Z</time>
      </trkpt>
      <trkpt lat="47.10283" lon="-1.59803">
        <ele>54</ele>
        <time>2021-04-05T10:12:00.000Z</time>
      </trkpt>
      <trkpt lat="47.10291" lon="-1.59789">
        <ele>54</ele>
        <time>2021-04-05T10:12:02.000Z</time>
      </trkpt>
      <trkpt lat="47.10299" lon="-1.59775">
        <ele>54</ele>
        <time>2021-04-05T10:12:04.000Z</time>
      </trkpt>
      <trkpt lat="47.10307" lon="-1.59762">
        <ele>54</ele>
        <time>2021-04-05T10:12:06.000Z</time>
      </trkpt>
      <trkpt lat="47.10315" lon="-1.59748">
        <ele>54</ele>
        <time>2021-04-05T10:12:08.000Z</time>
      </trkpt>
      <trkpt lat="47.10323" lon="-1.59734">
        <ele>53</ele>
        <time>2021-04-05T10:12:10.000Z</time>
      </trkpt>
      <trkpt lat="47.10331" lon="-1.5972">
        <ele>53</ele>
        <time>2021-04-05T10:12:12.000Z</time>
      </trkpt>
      <trkpt lat="47.10339" lon="-1.59706">
        <ele>53</ele>
        <time>2021-04-05T10:12:14.000Z</time>
      </trkpt>
      <trkpt lat="47.10347" lon="-1.59692">
        <ele>53</ele>
        <time>2021-04-05T10:12:16.000Z</time>
      </trkpt>
      <trkpt lat="47.10355" lon="-1.59677">
        <ele>54</ele>
        <time>2021-04-05T10:12:18.000Z</time>
      </trkpt>
      <trkpt lat="47.10364" lon="-1.59663">
        <ele>55</ele>
        <time>2021-04-05T10:12:20.000Z</time>
      </trkpt>
      <trkpt lat="47.10372" lon="-1.5965">
        <ele>55</ele>
        <time>2021-04-05T10:12:22.000Z</time>
      </trkpt>
      <trkpt lat="47.10381" lon="-1.59637">
        <ele>55</ele>
        <time>2021-04-05T10:12:24.000Z</time>
      </trkpt>
      <trkpt lat="47.1039" lon="-1.59623">
        <ele>55</ele>
        <time>2021-04-05T10:12:26.000Z</time>
      </trkpt>
      <trkpt lat="47.10398" lon="-1.59609">
        <ele>55</ele>
        <time>2021-04-05T10:12:28.000Z</time>
      </trkpt>
      <trkpt lat="47.10407" lon="-1.59594">
        <ele>55</ele>
        <time>2021-04-05T10:12:30.000Z</time>
      </trkpt>
      <trkpt lat="47.10416" lon="-1.59581">
        <ele>56</ele>
        <time>2021-04-05T10:12:32.000Z</time>
      </trkpt>
      <trkpt lat="47.10424" lon="-1.59567">
        <ele>56</ele>
        <time>2021-04-05T10:12:34.000Z</time>
      </trkpt>
      <trkpt lat="47.10432" lon="-1.59553">
        <ele>56</ele>
        <time>2021-04-05T10:12:36.000Z</time>
      </trkpt>
      <trkpt lat="47.1044" lon="-1.59539">
        <ele>56</ele>
        <time>2021-04-05T10:12:38.000Z</time>
      </trkpt>
      <trkpt lat="47.10448" lon="-1.59526">
        <ele>56</ele>
        <time>2021-04-05T10:12:40.000Z</time>
      </trkpt>
      <trkpt lat="47.10457" lon="-1.59512">
        <ele>56</ele>
        <time>2021-04-05T10:12:42.000Z</time>
      </trkpt>
      <trkpt lat="47.10464" lon="-1.59499">
        <ele>56</ele>
        <time>2021-04-05T10:12:44.000Z</time>
      </trkpt>
      <trkpt lat="47.10473" lon="-1.59485">
        <ele>56</ele>
        <time>2021-04-05T10:12:46.000Z</time>
      </trkpt>
      <trkpt lat="47.10481" lon="-1.59472">
        <ele>55</ele>
        <time>2021-04-05T10:12:48.000Z</time>
      </trkpt>
      <trkpt lat="47.10489" lon="-1.59459">
        <ele>55</ele>
        <time>2021-04-05T10:12:50.000Z</time>
      </trkpt>
      <trkpt lat="47.10497" lon="-1.59446">
        <ele>55</ele>
        <time>2021-04-05T10:12:52.000Z</time>
      </trkpt>
      <trkpt lat="47.10505" lon="-1.59432">
        <ele>55</ele>
        <time>2021-04-05T10:12:54.000Z</time>
      </trkpt>
      <trkpt lat="47.10513" lon="-1.59419">
        <ele>55</ele>
        <time>2021-04-05T10:12:56.000Z</time>
      </trkpt>
      <trkpt lat="47.10521" lon="-1.59405">
        <ele>55</ele>
        <time>2021-04-05T10:12:58.000Z</time>
      </trkpt>
      <trkpt lat="47.10529" lon="-1.59392">
        <ele>55</ele>
        <time>2021-04-05T10:13:00.000Z</time>
      </trkpt>
      <trkpt lat="47.10537" lon="-1.59379">
        <ele>55</ele>
        <time>2021-04-05T10:13:02.000Z</time>
      </trkpt>
      <trkpt lat="47.10545" lon="-1.59365">
        <ele>56</ele>
        <time>2021-04-05T10:13:04.000Z</time>
      </trkpt>
      <trkpt lat="47.10552" lon="-1.59352">
        <ele>56</ele>
        <time>2021-04-05T10:13:06.000Z</time>
      </trkpt>
      <trkpt lat="47.1056" lon="-1.59338">
        <ele>56</ele>
        <time>2021-04-05T10:13:08.000Z</time>
      </trkpt>
      <trkpt lat="47.10568" lon="-1.59324">
        <ele>56</ele>
        <time>2021-04-05T10:13:10.000Z</time>
      </trkpt>
      <trkpt lat="47.10575" lon="-1.5931">
        <ele>57</ele>
        <time>2021-04-05T10:13:12.000Z</time>
      </trkpt>
      <trkpt lat="47.10583" lon="-1.59297">
        <ele>57</ele>
        <time>2021-04-05T10:13:14.000Z</time>
      </trkpt>
      <trkpt lat="47.1059" lon="-1.59284">
        <ele>57</ele>
        <time>2021-04-05T10:13:16.000Z</time>
      </trkpt>
      <trkpt lat="47.10597" lon="-1.5927">
        <ele>57</ele>
        <time>2021-04-05T10:13:18.000Z</time>
      </trkpt>
      <trkpt lat="47.10605" lon="-1.59257">
        <ele>58</ele>
        <time>2021-04-05T10:13:20.000Z</time>
      </trkpt>
      <trkpt lat="47.10611" lon="-1.59243">
        <ele>58</ele>
        <time>2021-04-05T10:13:22.000Z</time>
      </trkpt>
      <trkpt lat="47.10618" lon="-1.59229">
        <ele>59</ele>
        <time>2021-04-05T10:13:24.000Z</time>
      </trkpt>
      <trkpt lat="47.10627" lon="-1.59216">
        <ele>59</ele>
        <time>2021-04-05T10:13:26.000Z</time>
      </trkpt>
      <trkpt lat="47.10634" lon="-1.59203">
        <ele>59</ele>
        <time>2021-04-05T10:13:28.000Z</time>
      </trkpt>
      <trkpt lat="47.10641" lon="-1.59189">
        <ele>59</ele>
        <time>2021-04-05T10:13:30.000Z</time>
      </trkpt>
      <trkpt lat="47.10648" lon="-1.59175">
        <ele>59</ele>
        <time>2021-04-05T10:13:32.000Z</time>
      </trkpt>
      <trkpt lat="47.10655" lon="-1.5916">
        <ele>59</ele>
        <time>2021-04-05T10:13:34.000Z</time>
      </trkpt>
      <trkpt lat="47.10661" lon="-1.59145">
        <ele>59</ele>
        <time>2021-04-05T10:13:36.000Z</time>
      </trkpt>
      <trkpt lat="47.10666" lon="-1.5913">
        <ele>59</ele>
        <time>2021-04-05T10:13:38.000Z</time>
      </trkpt>
      <trkpt lat="47.10672" lon="-1.59115">
        <ele>58</ele>
        <time>2021-04-05T10:13:40.000Z</time>
      </trkpt>
      <trkpt lat="47.10677" lon="-1.591">
        <ele>58</ele>
        <time>2021-04-05T10:13:42.000Z</time>
      </trkpt>
      <trkpt lat="47.10683" lon="-1.59085">
        <ele>59</ele>
        <time>2021-04-05T10:13:44.000Z</time>
      </trkpt>
      <trkpt lat="47.10688" lon="-1.59071">
        <ele>60</ele>
        <time>2021-04-05T10:13:46.000Z</time>
      </trkpt>
      <trkpt lat="47.10693" lon="-1.59056">
        <ele>61</ele>
        <time>2021-04-05T10:13:48.000Z</time>
      </trkpt>
      <trkpt lat="47.10698" lon="-1.59042">
        <ele>61</ele>
        <time>2021-04-05T10:13:50.000Z</time>
      </trkpt>
      <trkpt lat="47.10704" lon="-1.59028">
        <ele>61</ele>
        <time>2021-04-05T10:13:52.000Z</time>
      </trkpt>
      <trkpt lat="47.1071" lon="-1.59013">
        <ele>61</ele>
        <time>2021-04-05T10:13:54.000Z</time>
      </trkpt>
      <trkpt lat="47.10715" lon="-1.58998">
        <ele>62</ele>
        <time>2021-04-05T10:13:56.000Z</time>
      </trkpt>
      <trkpt lat="47.10722" lon="-1.58984">
        <ele>62</ele>
        <time>2021-04-05T10:13:58.000Z</time>
      </trkpt>
      <trkpt lat="47.10728" lon="-1.58969">
        <ele>62</ele>
        <time>2021-04-05T10:14:00.000Z</time>
      </trkpt>
      <trkpt lat="47.10733" lon="-1.58954">
        <ele>62</ele>
        <time>2021-04-05T10:14:02.000Z</time>
      </trkpt>
      <trkpt lat="47.10738" lon="-1.5894">
        <ele>62</ele>
        <time>2021-04-05T10:14:04.000Z</time>
      </trkpt>
      <trkpt lat="47.10744" lon="-1.58926">
        <ele>62</ele>
        <time>2021-04-05T10:14:06.000Z</time>
      </trkpt>
      <trkpt lat="47.10751" lon="-1.58912">
        <ele>63</ele>
        <time>2021-04-05T10:14:08.000Z</time>
      </trkpt>
      <trkpt lat="47.10759" lon="-1.58898">
        <ele>62</ele>
        <time>2021-04-05T10:14:10.000Z</time>
      </trkpt>
      <trkpt lat="47.10768" lon="-1.58886">
        <ele>62</ele>
        <time>2021-04-05T10:14:12.000Z</time>
      </trkpt>
      <trkpt lat="47.10776" lon="-1.58873">
        <ele>62</ele>
        <time>2021-04-05T10:14:14.000Z</time>
      </trkpt>
      <trkpt lat="47.10784" lon="-1.58858">
        <ele>62</ele>
        <time>2021-04-05T10:14:16.000Z</time>
      </trkpt>
      <trkpt lat="47.10792" lon="-1.58845">
        <ele>62</ele>
        <time>2021-04-05T10:14:18.000Z</time>
      </trkpt>
      <trkpt lat="47.108" lon="-1.58832">
        <ele>62</ele>
        <time>2021-04-05T10:14:20.000Z</time>
      </trkpt>
      <trkpt lat="47.10808" lon="-1.58819">
        <ele>62</ele>
        <time>2021-04-05T10:14:22.000Z</time>
      </trkpt>
      <trkpt lat="47.10817" lon="-1.58805">
        <ele>61</ele>
        <time>2021-04-05T10:14:24.000Z</time>
      </trkpt>
      <trkpt lat="47.10826" lon="-1.58792">
        <ele>61</ele>
        <time>2021-04-05T10:14:26.000Z</time>
      </trkpt>
      <trkpt lat="47.10836" lon="-1.58778">
        <ele>61</ele>
        <time>2021-04-05T10:14:28.000Z</time>
      </trkpt>
      <trkpt lat="47.10845" lon="-1.58764">
        <ele>61</ele>
        <time>2021-04-05T10:14:30.000Z</time>
      </trkpt>
      <trkpt lat="47.10855" lon="-1.5875">
        <ele>60</ele>
        <time>2021-04-05T10:14:32.000Z</time>
      </trkpt>
      <trkpt lat="47.10864" lon="-1.58735">
        <ele>60</ele>
        <time>2021-04-05T10:14:34.000Z</time>
      </trkpt>
      <trkpt lat="47.10874" lon="-1.58721">
        <ele>60</ele>
        <time>2021-04-05T10:14:36.000Z</time>
      </trkpt>
      <trkpt lat="47.10884" lon="-1.58706">
        <ele>60</ele>
        <time>2021-04-05T10:14:38.000Z</time>
      </trkpt>
      <trkpt lat="47.10894" lon="-1.58691">
        <ele>60</ele>
        <time>2021-04-05T10:14:40.000Z</time>
      </trkpt>
      <trkpt lat="47.10904" lon="-1.58675">
        <ele>59</ele>
        <time>2021-04-05T10:14:42.000Z</time>
      </trkpt>
      <trkpt lat="47.10914" lon="-1.58662">
        <ele>60</ele>
        <time>2021-04-05T10:14:44.000Z</time>
      </trkpt>
      <trkpt lat="47.10924" lon="-1.58648">
        <ele>59</ele>
        <time>2021-04-05T10:14:46.000Z</time>
      </trkpt>
      <trkpt lat="47.10935" lon="-1.58632">
        <ele>59</ele>
        <time>2021-04-05T10:14:48.000Z</time>
      </trkpt>
      <trkpt lat="47.10944" lon="-1.58617">
        <ele>58</ele>
        <time>2021-04-05T10:14:50.000Z</time>
      </trkpt>
      <trkpt lat="47.10954" lon="-1.58602">
        <ele>58</ele>
        <time>2021-04-05T10:14:52.000Z</time>
      </trkpt>
      <trkpt lat="47.10964" lon="-1.58586">
        <ele>58</ele>
        <time>2021-04-05T10:14:54.000Z</time>
      </trkpt>
      <trkpt lat="47.10973" lon="-1.58572">
        <ele>58</ele>
        <time>2021-04-05T10:14:56.000Z</time>
      </trkpt>
      <trkpt lat="47.10983" lon="-1.58557">
        <ele>58</ele>
        <time>2021-04-05T10:14:58.000Z</time>
      </trkpt>
      <trkpt lat="47.10993" lon="-1.58542">
        <ele>58</ele>
        <time>2021-04-05T10:15:00.000Z</time>
      </trkpt>
      <trkpt lat="47.11002" lon="-1.58527">
        <ele>58</ele>
        <time>2021-04-05T10:15:02.000Z</time>
      </trkpt>
      <trkpt lat="47.11012" lon="-1.58513">
        <ele>58</ele>
        <time>2021-04-05T10:15:04.000Z</time>
      </trkpt>
      <trkpt lat="47.11021" lon="-1.58498">
        <ele>58</ele>
        <time>2021-04-05T10:15:06.000Z</time>
      </trkpt>
      <trkpt lat="47.11031" lon="-1.58484">
        <ele>58</ele>
        <time>2021-04-05T10:15:08.000Z</time>
      </trkpt>
      <trkpt lat="47.1104" lon="-1.5847">
        <ele>57</ele>
        <time>2021-04-05T10:15:10.000Z</time>
      </trkpt>
      <trkpt lat="47.1105" lon="-1.58456">
        <ele>57</ele>
        <time>2021-04-05T10:15:12.000Z</time>
      </trkpt>
      <trkpt lat="47.11059" lon="-1.58442">
        <ele>56</ele>
        <time>2021-04-05T10:15:14.000Z</time>
      </trkpt>
      <trkpt lat="47.11069" lon="-1.58428">
        <ele>56</ele>
        <time>2021-04-05T10:15:16.000Z</time>
      </trkpt>
      <trkpt lat="47.11078" lon="-1.58413">
        <ele>56</ele>
        <time>2021-04-05T10:15:18.000Z</time>
      </trkpt>
      <trkpt lat="47.11088" lon="-1.58398">
        <ele>56</ele>
        <time>2021-04-05T10:15:20.000Z</time>
      </trkpt>
      <trkpt lat="47.11097" lon="-1.58384">
        <ele>55</ele>
        <time>2021-04-05T10:15:22.000Z</time>
      </trkpt>
      <trkpt lat="47.11107" lon="-1.5837">
        <ele>55</ele>
        <time>2021-04-05T10:15:24.000Z</time>
      </trkpt>
      <trkpt lat="47.11116" lon="-1.58356">
        <ele>54</ele>
        <time>2021-04-05T10:15:26.000Z</time>
      </trkpt>
      <trkpt lat="47.11125" lon="-1.58342">
        <ele>54</ele>
        <time>2021-04-05T10:15:28.000Z</time>
      </trkpt>
      <trkpt lat="47.11134" lon="-1.58327">
        <ele>53</ele>
        <time>2021-04-05T10:15:30.000Z</time>
      </trkpt>
      <trkpt lat="47.11143" lon="-1.58314">
        <ele>53</ele>
        <time>2021-04-05T10:15:32.000Z</time>
      </trkpt>
      <trkpt lat="47.11153" lon="-1.583">
        <ele>53</ele>
        <time>2021-04-05T10:15:34.000Z</time>
      </trkpt>
      <trkpt lat="47.11161" lon="-1.58286">
        <ele>53</ele>
        <time>2021-04-05T10:15:36.000Z</time>
      </trkpt>
      <trkpt lat="47.1117" lon="-1.58273">
        <ele>53</ele>
        <time>2021-04-05T10:15:38.000Z</time>
      </trkpt>
      <trkpt lat="47.11179" lon="-1.58259">
        <ele>53</ele>
        <time>2021-04-05T10:15:40.000Z</time>
      </trkpt>
      <trkpt lat="47.11188" lon="-1.58246">
        <ele>53</ele>
        <time>2021-04-05T10:15:42.000Z</time>
      </trkpt>
      <trkpt lat="47.11198" lon="-1.58232">
        <ele>54</ele>
        <time>2021-04-05T10:15:44.000Z</time>
      </trkpt>
      <trkpt lat="47.11207" lon="-1.58219">
        <ele>54</ele>
        <time>2021-04-05T10:15:46.000Z</time>
      </trkpt>
      <trkpt lat="47.11216" lon="-1.58206">
        <ele>54</ele>
        <time>2021-04-05T10:15:48.000Z</time>
      </trkpt>
      <trkpt lat="47.11226" lon="-1.58194">
        <ele>53</ele>
        <time>2021-04-05T10:15:50.000Z</time>
      </trkpt>
      <trkpt lat="47.11236" lon="-1.58182">
        <ele>54</ele>
        <time>2021-04-05T10:15:52.000Z</time>
      </trkpt>
      <trkpt lat="47.11246" lon="-1.58171">
        <ele>54</ele>
        <time>2021-04-05T10:15:54.000Z</time>
      </trkpt>
      <trkpt lat="47.11257" lon="-1.5816">
        <ele>54</ele>
        <time>2021-04-05T10:15:56.000Z</time>
      </trkpt>
      <trkpt lat="47.11267" lon="-1.5815">
        <ele>54</ele>
        <time>2021-04-05T10:15:58.000Z</time>
      </trkpt>
      <trkpt lat="47.11278" lon="-1.5814">
        <ele>54</ele>
        <time>2021-04-05T10:16:00.000Z</time>
      </trkpt>
      <trkpt lat="47.11289" lon="-1.58131">
        <ele>54</ele>
        <time>2021-04-05T10:16:02.000Z</time>
      </trkpt>
      <trkpt lat="47.113" lon="-1.58123">
        <ele>53</ele>
        <time>2021-04-05T10:16:04.000Z</time>
      </trkpt>
      <trkpt lat="47.11311" lon="-1.58115">
        <ele>53</ele>
        <time>2021-04-05T10:16:06.000Z</time>
      </trkpt>
      <trkpt lat="47.11322" lon="-1.58108">
        <ele>53</ele>
        <time>2021-04-05T10:16:08.000Z</time>
      </trkpt>
      <trkpt lat="47.11333" lon="-1.58101">
        <ele>53</ele>
        <time>2021-04-05T10:16:10.000Z</time>
      </trkpt>
      <trkpt lat="47.11343" lon="-1.58094">
        <ele>53</ele>
        <time>2021-04-05T10:16:12.000Z</time>
      </trkpt>
      <trkpt lat="47.11354" lon="-1.58087">
        <ele>54</ele>
        <time>2021-04-05T10:16:14.000Z</time>
      </trkpt>
      <trkpt lat="47.11365" lon="-1.5808">
        <ele>54</ele>
        <time>2021-04-05T10:16:16.000Z</time>
      </trkpt>
      <trkpt lat="47.11375" lon="-1.58074">
        <ele>53</ele>
        <time>2021-04-05T10:16:18.000Z</time>
      </trkpt>
      <trkpt lat="47.11386" lon="-1.58067">
        <ele>54</ele>
        <time>2021-04-05T10:16:20.000Z</time>
      </trkpt>
      <trkpt lat="47.11397" lon="-1.58059">
        <ele>54</ele>
        <time>2021-04-05T10:16:22.000Z</time>
      </trkpt>
      <trkpt lat="47.11409" lon="-1.58053">
        <ele>54</ele>
        <time>2021-04-05T10:16:24.000Z</time>
      </trkpt>
      <trkpt lat="47.1142" lon="-1.58047">
        <ele>55</ele>
        <time>2021-04-05T10:16:26.000Z</time>
      </trkpt>
      <trkpt lat="47.11431" lon="-1.58041">
        <ele>55</ele>
        <time>2021-04-05T10:16:28.000Z</time>
      </trkpt>
      <trkpt lat="47.11442" lon="-1.58035">
        <ele>55</ele>
        <time>2021-04-05T10:16:30.000Z</time>
      </trkpt>
      <trkpt lat="47.11453" lon="-1.5803">
        <ele>55</ele>
        <time>2021-04-05T10:16:32.000Z</time>
      </trkpt>
      <trkpt lat="47.11464" lon="-1.58026">
        <ele>55</ele>
        <time>2021-04-05T10:16:34.000Z</time>
      </trkpt>
      <trkpt lat="47.11475" lon="-1.58023">
        <ele>55</ele>
        <time>2021-04-05T10:16:36.000Z</time>
      </trkpt>
      <trkpt lat="47.11486" lon="-1.5802">
        <ele>56</ele>
        <time>2021-04-05T10:16:38.000Z</time>
      </trkpt>
      <trkpt lat="47.11498" lon="-1.58019">
        <ele>55</ele>
        <time>2021-04-05T10:16:40.000Z</time>
      </trkpt>
      <trkpt lat="47.11509" lon="-1.58018">
        <ele>55</ele>
        <time>2021-04-05T10:16:42.000Z</time>
      </trkpt>
      <trkpt lat="47.1152" lon="-1.58018">
        <ele>55</ele>
        <time>2021-04-05T10:16:44.000Z</time>
      </trkpt>
      <trkpt lat="47.1153" lon="-1.58018">
        <ele>55</ele>
        <time>2021-04-05T10:16:46.000Z</time>
      </trkpt>
      <trkpt lat="47.11541" lon="-1.58019">
        <ele>54</ele>
        <time>2021-04-05T10:16:48.000Z</time>
      </trkpt>
      <trkpt lat="47.11552" lon="-1.58019">
        <ele>54</ele>
        <time>2021-04-05T10:16:50.000Z</time>
      </trkpt>
      <trkpt lat="47.11563" lon="-1.58019">
        <ele>53</ele>
        <time>2021-04-05T10:16:52.000Z</time>
      </trkpt>
      <trkpt lat="47.11574" lon="-1.5802">
        <ele>53</ele>
        <time>2021-04-05T10:16:54.000Z</time>
      </trkpt>
      <trkpt lat="47.11586" lon="-1.58021">
        <ele>53</ele>
        <time>2021-04-05T10:16:56.000Z</time>
      </trkpt>
      <trkpt lat="47.11597" lon="-1.58023">
        <ele>53</ele>
        <time>2021-04-05T10:16:58.000Z</time>
      </trkpt>
      <trkpt lat="47.11608" lon="-1.58024">
        <ele>54</ele>
        <time>2021-04-05T10:17:00.000Z</time>
      </trkpt>
      <trkpt lat="47.11619" lon="-1.58027">
        <ele>54</ele>
        <time>2021-04-05T10:17:02.000Z</time>
      </trkpt>
      <trkpt lat="47.11629" lon="-1.58026">
        <ele>54</ele>
        <time>2021-04-05T10:17:04.000Z</time>
      </trkpt>
      <trkpt lat="47.1164" lon="-1.58023">
        <ele>54</ele>
        <time>2021-04-05T10:17:06.000Z</time>
      </trkpt>
      <trkpt lat="47.11652" lon="-1.58025">
        <ele>54</ele>
        <time>2021-04-05T10:17:08.000Z</time>
      </trkpt>
      <trkpt lat="47.11663" lon="-1.58027">
        <ele>55</ele>
        <time>2021-04-05T10:17:10.000Z</time>
      </trkpt>
      <trkpt lat="47.11675" lon="-1.58028">
        <ele>55</ele>
        <time>2021-04-05T10:17:12.000Z</time>
      </trkpt>
      <trkpt lat="47.11686" lon="-1.58028">
        <ele>55</ele>
        <time>2021-04-05T10:17:14.000Z</time>
      </trkpt>
      <trkpt lat="47.11698" lon="-1.58028">
        <ele>55</ele>
        <time>2021-04-05T10:17:16.000Z</time>
      </trkpt>
      <trkpt lat="47.11709" lon="-1.58029">
        <ele>55</ele>
        <time>2021-04-05T10:17:18.000Z</time>
      </trkpt>
      <trkpt lat="47.11721" lon="-1.5803">
        <ele>55</ele>
        <time>2021-04-05T10:17:20.000Z</time>
      </trkpt>
      <trkpt lat="47.11731" lon="-1.58031">
        <ele>56</ele>
        <time>2021-04-05T10:17:22.000Z</time>
      </trkpt>
      <trkpt lat="47.11743" lon="-1.58033">
        <ele>56</ele>
        <time>2021-04-05T10:17:24.000Z</time>
      </trkpt>
      <trkpt lat="47.11754" lon="-1.58035">
        <ele>56</ele>
        <time>2021-04-05T10:17:26.000Z</time>
      </trkpt>
      <trkpt lat="47.11764" lon="-1.58037">
        <ele>57</ele>
        <time>2021-04-05T10:17:28.000Z</time>
      </trkpt>
      <trkpt lat="47.11775" lon="-1.5804">
        <ele>57</ele>
        <time>2021-04-05T10:17:30.000Z</time>
      </trkpt>
      <trkpt lat="47.11786" lon="-1.58042">
        <ele>57</ele>
        <time>2021-04-05T10:17:32.000Z</time>
      </trkpt>
      <trkpt lat="47.11797" lon="-1.58045">
        <ele>57</ele>
        <time>2021-04-05T10:17:34.000Z</time>
      </trkpt>
      <trkpt lat="47.11807" lon="-1.58047">
        <ele>57</ele>
        <time>2021-04-05T10:17:36.000Z</time>
      </trkpt>
      <trkpt lat="47.11817" lon="-1.5805">
        <ele>57</ele>
        <time>2021-04-05T10:17:38.000Z</time>
      </trkpt>
      <trkpt lat="47.11827" lon="-1.58053">
        <ele>57</ele>
        <time>2021-04-05T10:17:40.000Z</time>
      </trkpt>
      <trkpt lat="47.11839" lon="-1.58056">
        <ele>57</ele>
        <time>2021-04-05T10:17:42.000Z</time>
      </trkpt>
      <trkpt lat="47.11851" lon="-1.58059">
        <ele>57</ele>
        <time>2021-04-05T10:17:44.000Z</time>
      </trkpt>
      <trkpt lat="47.11863" lon="-1.58062">
        <ele>57</ele>
        <time>2021-04-05T10:17:46.000Z</time>
      </trkpt>
      <trkpt lat="47.11874" lon="-1.58065">
        <ele>57</ele>
        <time>2021-04-05T10:17:48.000Z</time>
      </trkpt>
      <trkpt lat="47.11885" lon="-1.58068">
        <ele>57</ele>
        <time>2021-04-05T10:17:50.000Z</time>
      </trkpt>
      <trkpt lat="47.11896" lon="-1.5807">
        <ele>58</ele>
        <time>2021-04-05T10:17:52.000Z</time>
      </trkpt>
      <trkpt lat="47.11907" lon="-1.58072">
        <ele>58</ele>
        <time>2021-04-05T10:17:54.000Z</time>
      </trkpt>
      <trkpt lat="47.11917" lon="-1.58074">
        <ele>58</ele>
        <time>2021-04-05T10:17:56.000Z</time>
      </trkpt>
      <trkpt lat="47.11928" lon="-1.58077">
        <ele>58</ele>
        <time>2021-04-05T10:17:58.000Z</time>
      </trkpt>
      <trkpt lat="47.11939" lon="-1.5808">
        <ele>58</ele>
        <time>2021-04-05T10:18:00.000Z</time>
      </trkpt>
      <trkpt lat="47.1195" lon="-1.58082">
        <ele>58</ele>
        <time>2021-04-05T10:18:02.000Z</time>
      </trkpt>
      <trkpt lat="47.11961" lon="-1.58085">
        <ele>59</ele>
        <time>2021-04-05T10:18:04.000Z</time>
      </trkpt>
      <trkpt lat="47.11971" lon="-1.58087">
        <ele>59</ele>
        <time>2021-04-05T10:18:06.000Z</time>
      </trkpt>
      <trkpt lat="47.1198" lon="-1.5809">
        <ele>59</ele>
        <time>2021-04-05T10:18:08.000Z</time>
      </trkpt>
      <trkpt lat="47.11991" lon="-1.58093">
        <ele>59</ele>
        <time>2021-04-05T10:18:10.000Z</time>
      </trkpt>
      <trkpt lat="47.12" lon="-1.58096">
        <ele>60</ele>
        <time>2021-04-05T10:18:12.000Z</time>
      </trkpt>
      <trkpt lat="47.12011" lon="-1.58096">
        <ele>60</ele>
        <time>2021-04-05T10:18:15.000Z</time>
      </trkpt>
      <trkpt lat="47.12025" lon="-1.58096">
        <ele>60</ele>
        <time>2021-04-05T10:18:18.000Z</time>
      </trkpt>
      <trkpt lat="47.12033" lon="-1.58105">
        <ele>60</ele>
        <time>2021-04-05T10:18:20.000Z</time>
      </trkpt>
      <trkpt lat="47.12041" lon="-1.58115">
        <ele>60</ele>
        <time>2021-04-05T10:18:22.000Z</time>
      </trkpt>
      <trkpt lat="47.12049" lon="-1.58122">
        <ele>60</ele>
        <time>2021-04-05T10:18:24.000Z</time>
      </trkpt>
      <trkpt lat="47.12059" lon="-1.58129">
        <ele>60</ele>
        <time>2021-04-05T10:18:26.000Z</time>
      </trkpt>
      <trkpt lat="47.12069" lon="-1.58135">
        <ele>58</ele>
        <time>2021-04-05T10:18:28.000Z</time>
      </trkpt>
      <trkpt lat="47.12079" lon="-1.58141">
        <ele>58</ele>
        <time>2021-04-05T10:18:30.000Z</time>
      </trkpt>
      <trkpt lat="47.1209" lon="-1.58148">
        <ele>57</ele>
        <time>2021-04-05T10:18:32.000Z</time>
      </trkpt>
      <trkpt lat="47.12102" lon="-1.58155">
        <ele>56</ele>
        <time>2021-04-05T10:18:34.000Z</time>
      </trkpt>
      <trkpt lat="47.12114" lon="-1.58164">
        <ele>56</ele>
        <time>2021-04-05T10:18:36.000Z</time>
      </trkpt>
      <trkpt lat="47.12126" lon="-1.58173">
        <ele>55</ele>
        <time>2021-04-05T10:18:38.000Z</time>
      </trkpt>
      <trkpt lat="47.12137" lon="-1.58184">
        <ele>53</ele>
        <time>2021-04-05T10:18:40.000Z</time>
      </trkpt>
      <trkpt lat="47.12149" lon="-1.58195">
        <ele>53</ele>
        <time>2021-04-05T10:18:42.000Z</time>
      </trkpt>
      <trkpt lat="47.1216" lon="-1.58206">
        <ele>52</ele>
        <time>2021-04-05T10:18:44.000Z</time>
      </trkpt>
      <trkpt lat="47.12171" lon="-1.58217">
        <ele>52</ele>
        <time>2021-04-05T10:18:46.000Z</time>
      </trkpt>
      <trkpt lat="47.12182" lon="-1.58226">
        <ele>51</ele>
        <time>2021-04-05T10:18:48.000Z</time>
      </trkpt>
      <trkpt lat="47.12192" lon="-1.58237">
        <ele>52</ele>
        <time>2021-04-05T10:18:50.000Z</time>
      </trkpt>
      <trkpt lat="47.12202" lon="-1.58246">
        <ele>53</ele>
        <time>2021-04-05T10:18:52.000Z</time>
      </trkpt>
      <trkpt lat="47.12213" lon="-1.58256">
        <ele>53</ele>
        <time>2021-04-05T10:18:54.000Z</time>
      </trkpt>
      <trkpt lat="47.12223" lon="-1.58266">
        <ele>52</ele>
        <time>2021-04-05T10:18:56.000Z</time>
      </trkpt>
      <trkpt lat="47.12233" lon="-1.58276">
        <ele>51</ele>
        <time>2021-04-05T10:18:58.000Z</time>
      </trkpt>
      <trkpt lat="47.12243" lon="-1.58286">
        <ele>51</ele>
        <time>2021-04-05T10:19:00.000Z</time>
      </trkpt>
      <trkpt lat="47.12253" lon="-1.58296">
        <ele>50</ele>
        <time>2021-04-05T10:19:02.000Z</time>
      </trkpt>
      <trkpt lat="47.12262" lon="-1.58306">
        <ele>50</ele>
        <time>2021-04-05T10:19:04.000Z</time>
      </trkpt>
      <trkpt lat="47.12273" lon="-1.58316">
        <ele>50</ele>
        <time>2021-04-05T10:19:06.000Z</time>
      </trkpt>
      <trkpt lat="47.12283" lon="-1.58326">
        <ele>49</ele>
        <time>2021-04-05T10:19:08.000Z</time>
      </trkpt>
      <trkpt lat="47.12293" lon="-1.58336">
        <ele>49</ele>
        <time>2021-04-05T10:19:10.000Z</time>
      </trkpt>
      <trkpt lat="47.123" lon="-1.58345">
        <ele>49</ele>
        <time>2021-04-05T10:19:12.000Z</time>
      </trkpt>
      <trkpt lat="47.12304" lon="-1.58363">
        <ele>49</ele>
        <time>2021-04-05T10:19:14.000Z</time>
      </trkpt>
      <trkpt lat="47.12307" lon="-1.5838">
        <ele>49</ele>
        <time>2021-04-05T10:19:16.000Z</time>
      </trkpt>
      <trkpt lat="47.12311" lon="-1.58395">
        <ele>49</ele>
        <time>2021-04-05T10:19:18.000Z</time>
      </trkpt>
      <trkpt lat="47.12316" lon="-1.58409">
        <ele>50</ele>
        <time>2021-04-05T10:19:20.000Z</time>
      </trkpt>
      <trkpt lat="47.12322" lon="-1.58422">
        <ele>51</ele>
        <time>2021-04-05T10:19:22.000Z</time>
      </trkpt>
      <trkpt lat="47.1233" lon="-1.58429">
        <ele>51</ele>
        <time>2021-04-05T10:19:24.000Z</time>
      </trkpt>
      <trkpt lat="47.12337" lon="-1.58443">
        <ele>50</ele>
        <time>2021-04-05T10:19:26.000Z</time>
      </trkpt>
      <trkpt lat="47.1234" lon="-1.58461">
        <ele>50</ele>
        <time>2021-04-05T10:19:28.000Z</time>
      </trkpt>
      <trkpt lat="47.12344" lon="-1.58477">
        <ele>49</ele>
        <time>2021-04-05T10:19:30.000Z</time>
      </trkpt>
      <trkpt lat="47.12348" lon="-1.58493">
        <ele>50</ele>
        <time>2021-04-05T10:19:32.000Z</time>
      </trkpt>
      <trkpt lat="47.12352" lon="-1.58509">
        <ele>49</ele>
        <time>2021-04-05T10:19:34.000Z</time>
      </trkpt>
      <trkpt lat="47.12357" lon="-1.58524">
        <ele>48</ele>
        <time>2021-04-05T10:19:36.000Z</time>
      </trkpt>
      <trkpt lat="47.12361" lon="-1.58539">
        <ele>48</ele>
        <time>2021-04-05T10:19:38.000Z</time>
      </trkpt>
      <trkpt lat="47.12364" lon="-1.58552">
        <ele>49</ele>
        <time>2021-04-05T10:19:40.000Z</time>
      </trkpt>
      <trkpt lat="47.12368" lon="-1.58565">
        <ele>49</ele>
        <time>2021-04-05T10:19:42.000Z</time>
      </trkpt>
      <trkpt lat="47.12371" lon="-1.58579">
        <ele>49</ele>
        <time>2021-04-05T10:19:44.000Z</time>
      </trkpt>
      <trkpt lat="47.12373" lon="-1.58596">
        <ele>50</ele>
        <time>2021-04-05T10:19:46.000Z</time>
      </trkpt>
      <trkpt lat="47.12376" lon="-1.58613">
        <ele>50</ele>
        <time>2021-04-05T10:19:48.000Z</time>
      </trkpt>
      <trkpt lat="47.12378" lon="-1.5863">
        <ele>51</ele>
        <time>2021-04-05T10:19:50.000Z</time>
      </trkpt>
      <trkpt lat="47.12381" lon="-1.58645">
        <ele>50</ele>
        <time>2021-04-05T10:19:52.000Z</time>
      </trkpt>
      <trkpt lat="47.12385" lon="-1.5866">
        <ele>50</ele>
        <time>2021-04-05T10:19:54.000Z</time>
      </trkpt>
      <trkpt lat="47.12388" lon="-1.58675">
        <ele>50</ele>
        <time>2021-04-05T10:19:56.000Z</time>
      </trkpt>
      <trkpt lat="47.1239" lon="-1.58691">
        <ele>52</ele>
        <time>2021-04-05T10:19:58.000Z</time>
      </trkpt>
      <trkpt lat="47.12394" lon="-1.58706">
        <ele>52</ele>
        <time>2021-04-05T10:20:00.000Z</time>
      </trkpt>
      <trkpt lat="47.12398" lon="-1.58721">
        <ele>52</ele>
        <time>2021-04-05T10:20:02.000Z</time>
      </trkpt>
      <trkpt lat="47.12402" lon="-1.58736">
        <ele>52</ele>
        <time>2021-04-05T10:20:04.000Z</time>
      </trkpt>
      <trkpt lat="47.12405" lon="-1.58751">
        <ele>52</ele>
        <time>2021-04-05T10:20:06.000Z</time>
      </trkpt>
      <trkpt lat="47.12409" lon="-1.58767">
        <ele>51</ele>
        <time>2021-04-05T10:20:08.000Z</time>
      </trkpt>
      <trkpt lat="47.12412" lon="-1.58782">
        <ele>51</ele>
        <time>2021-04-05T10:20:10.000Z</time>
      </trkpt>
      <trkpt lat="47.12415" lon="-1.58797">
        <ele>51</ele>
        <time>2021-04-05T10:20:12.000Z</time>
      </trkpt>
      <trkpt lat="47.12417" lon="-1.58811">
        <ele>50</ele>
        <time>2021-04-05T10:20:14.000Z</time>
      </trkpt>
      <trkpt lat="47.12418" lon="-1.58827">
        <ele>51</ele>
        <time>2021-04-05T10:20:16.000Z</time>
      </trkpt>
      <trkpt lat="47.12418" lon="-1.58842">
        <ele>52</ele>
        <time>2021-04-05T10:20:18.000Z</time>
      </trkpt>
      <trkpt lat="47.1242" lon="-1.58858">
        <ele>53</ele>
        <time>2021-04-05T10:20:20.000Z</time>
      </trkpt>
      <trkpt lat="47.1242" lon="-1.58873">
        <ele>54</ele>
        <time>2021-04-05T10:20:22.000Z</time>
      </trkpt>
      <trkpt lat="47.12422" lon="-1.58887">
        <ele>54</ele>
        <time>2021-04-05T10:20:24.000Z</time>
      </trkpt>
      <trkpt lat="47.12425" lon="-1.58902">
        <ele>53</ele>
        <time>2021-04-05T10:20:26.000Z</time>
      </trkpt>
      <trkpt lat="47.12426" lon="-1.58917">
        <ele>52</ele>
        <time>2021-04-05T10:20:28.000Z</time>
      </trkpt>
      <trkpt lat="47.12428" lon="-1.58933">
        <ele>52</ele>
        <time>2021-04-05T10:20:30.000Z</time>
      </trkpt>
      <trkpt lat="47.12428" lon="-1.5895">
        <ele>52</ele>
        <time>2021-04-05T10:20:32.000Z</time>
      </trkpt>
      <trkpt lat="47.12429" lon="-1.58967">
        <ele>51</ele>
        <time>2021-04-05T10:20:34.000Z</time>
      </trkpt>
      <trkpt lat="47.12431" lon="-1.58985">
        <ele>50</ele>
        <time>2021-04-05T10:20:36.000Z</time>
      </trkpt>
      <trkpt lat="47.12432" lon="-1.59003">
        <ele>50</ele>
        <time>2021-04-05T10:20:38.000Z</time>
      </trkpt>
      <trkpt lat="47.12433" lon="-1.59022">
        <ele>49</ele>
        <time>2021-04-05T10:20:40.000Z</time>
      </trkpt>
      <trkpt lat="47.12435" lon="-1.5904">
        <ele>49</ele>
        <time>2021-04-05T10:20:42.000Z</time>
      </trkpt>
      <trkpt lat="47.12436" lon="-1.59059">
        <ele>48</ele>
        <time>2021-04-05T10:20:44.000Z</time>
      </trkpt>
      <trkpt lat="47.12437" lon="-1.59077">
        <ele>48</ele>
        <time>2021-04-05T10:20:46.000Z</time>
      </trkpt>
      <trkpt lat="47.12439" lon="-1.59094">
        <ele>48</ele>
        <time>2021-04-05T10:20:48.000Z</time>
      </trkpt>
      <trkpt lat="47.1244" lon="-1.5911">
        <ele>47</ele>
        <time>2021-04-05T10:20:50.000Z</time>
      </trkpt>
      <trkpt lat="47.12439" lon="-1.59128">
        <ele>46</ele>
        <time>2021-04-05T10:20:52.000Z</time>
      </trkpt>
      <trkpt lat="47.12439" lon="-1.59145">
        <ele>46</ele>
        <time>2021-04-05T10:20:54.000Z</time>
      </trkpt>
      <trkpt lat="47.12441" lon="-1.59162">
        <ele>46</ele>
        <time>2021-04-05T10:20:56.000Z</time>
      </trkpt>
      <trkpt lat="47.12446" lon="-1.59178">
        <ele>46</ele>
        <time>2021-04-05T10:20:58.000Z</time>
      </trkpt>
      <trkpt lat="47.12445" lon="-1.59195">
        <ele>47</ele>
        <time>2021-04-05T10:21:00.000Z</time>
      </trkpt>
      <trkpt lat="47.12443" lon="-1.59212">
        <ele>47</ele>
        <time>2021-04-05T10:21:02.000Z</time>
      </trkpt>
      <trkpt lat="47.12441" lon="-1.5923">
        <ele>47</ele>
        <time>2021-04-05T10:21:04.000Z</time>
      </trkpt>
      <trkpt lat="47.12441" lon="-1.59248">
        <ele>48</ele>
        <time>2021-04-05T10:21:06.000Z</time>
      </trkpt>
      <trkpt lat="47.12441" lon="-1.59265">
        <ele>48</ele>
        <time>2021-04-05T10:21:08.000Z</time>
      </trkpt>
      <trkpt lat="47.12441" lon="-1.59282">
        <ele>49</ele>
        <time>2021-04-05T10:21:10.000Z</time>
      </trkpt>
      <trkpt lat="47.12442" lon="-1.59299">
        <ele>49</ele>
        <time>2021-04-05T10:21:12.000Z</time>
      </trkpt>
      <trkpt lat="47.12443" lon="-1.59316">
        <ele>49</ele>
        <time>2021-04-05T10:21:14.000Z</time>
      </trkpt>
      <trkpt lat="47.12443" lon="-1.59333">
        <ele>49</ele>
        <time>2021-04-05T10:21:16.000Z</time>
      </trkpt>
      <trkpt lat="47.12444" lon="-1.5935">
        <ele>50</ele>
        <time>2021-04-05T10:21:18.000Z</time>
      </trkpt>
      <trkpt lat="47.12445" lon="-1.59368">
        <ele>50</ele>
        <time>2021-04-05T10:21:20.000Z</time>
      </trkpt>
      <trkpt lat="47.12446" lon="-1.59385">
        <ele>51</ele>
        <time>2021-04-05T10:21:22.000Z</time>
      </trkpt>
      <trkpt lat="47.12447" lon="-1.59402">
        <ele>51</ele>
        <time>2021-04-05T10:21:24.000Z</time>
      </trkpt>
      <trkpt lat="47.12448" lon="-1.59419">
        <ele>51</ele>
        <time>2021-04-05T10:21:26.000Z</time>
      </trkpt>
      <trkpt lat="47.12449" lon="-1.59435">
        <ele>50</ele>
        <time>2021-04-05T10:21:28.000Z</time>
      </trkpt>
      <trkpt lat="47.1245" lon="-1.59452">
        <ele>50</ele>
        <time>2021-04-05T10:21:30.000Z</time>
      </trkpt>
      <trkpt lat="47.12451" lon="-1.59468">
        <ele>50</ele>
        <time>2021-04-05T10:21:32.000Z</time>
      </trkpt>
      <trkpt lat="47.12452" lon="-1.59484">
        <ele>50</ele>
        <time>2021-04-05T10:21:34.000Z</time>
      </trkpt>
      <trkpt lat="47.12453" lon="-1.59501">
        <ele>50</ele>
        <time>2021-04-05T10:21:36.000Z</time>
      </trkpt>
      <trkpt lat="47.12453" lon="-1.59518">
        <ele>51</ele>
        <time>2021-04-05T10:21:38.000Z</time>
      </trkpt>
      <trkpt lat="47.12454" lon="-1.59535">
        <ele>51</ele>
        <time>2021-04-05T10:21:40.000Z</time>
      </trkpt>
      <trkpt lat="47.12455" lon="-1.59552">
        <ele>51</ele>
        <time>2021-04-05T10:21:42.000Z</time>
      </trkpt>
      <trkpt lat="47.12456" lon="-1.59568">
        <ele>51</ele>
        <time>2021-04-05T10:21:44.000Z</time>
      </trkpt>
      <trkpt lat="47.12456" lon="-1.59584">
        <ele>51</ele>
        <time>2021-04-05T10:21:46.000Z</time>
      </trkpt>
      <trkpt lat="47.12457" lon="-1.59601">
        <ele>52</ele>
        <time>2021-04-05T10:21:48.000Z</time>
      </trkpt>
      <trkpt lat="47.12458" lon="-1.59618">
        <ele>52</ele>
        <time>2021-04-05T10:21:50.000Z</time>
      </trkpt>
      <trkpt lat="47.12458" lon="-1.59634">
        <ele>53</ele>
        <time>2021-04-05T10:21:52.000Z</time>
      </trkpt>
      <trkpt lat="47.12459" lon="-1.59651">
        <ele>53</ele>
        <time>2021-04-05T10:21:54.000Z</time>
      </trkpt>
      <trkpt lat="47.1246" lon="-1.59667">
        <ele>52</ele>
        <time>2021-04-05T10:21:56.000Z</time>
      </trkpt>
      <trkpt lat="47.12461" lon="-1.59684">
        <ele>53</ele>
        <time>2021-04-05T10:21:58.000Z</time>
      </trkpt>
      <trkpt lat="47.12461" lon="-1.597">
        <ele>54</ele>
        <time>2021-04-05T10:22:00.000Z</time>
      </trkpt>
      <trkpt lat="47.12461" lon="-1.59717">
        <ele>53</ele>
        <time>2021-04-05T10:22:02.000Z</time>
      </trkpt>
      <trkpt lat="47.12462" lon="-1.59734">
        <ele>54</ele>
        <time>2021-04-05T10:22:04.000Z</time>
      </trkpt>
      <trkpt lat="47.12463" lon="-1.59751">
        <ele>54</ele>
        <time>2021-04-05T10:22:06.000Z</time>
      </trkpt>
      <trkpt lat="47.12464" lon="-1.59768">
        <ele>54</ele>
        <time>2021-04-05T10:22:08.000Z</time>
      </trkpt>
      <trkpt lat="47.12465" lon="-1.59784">
        <ele>53</ele>
        <time>2021-04-05T10:22:10.000Z</time>
      </trkpt>
      <trkpt lat="47.12466" lon="-1.598">
        <ele>53</ele>
        <time>2021-04-05T10:22:12.000Z</time>
      </trkpt>
      <trkpt lat="47.12467" lon="-1.59816">
        <ele>53</ele>
        <time>2021-04-05T10:22:14.000Z</time>
      </trkpt>
      <trkpt lat="47.12469" lon="-1.59832">
        <ele>53</ele>
        <time>2021-04-05T10:22:16.000Z</time>
      </trkpt>
      <trkpt lat="47.12471" lon="-1.59849">
        <ele>52</ele>
        <time>2021-04-05T10:22:18.000Z</time>
      </trkpt>
      <trkpt lat="47.12474" lon="-1.59866">
        <ele>52</ele>
        <time>2021-04-05T10:22:20.000Z</time>
      </trkpt>
      <trkpt lat="47.12476" lon="-1.59882">
        <ele>52</ele>
        <time>2021-04-05T10:22:22.000Z</time>
      </trkpt>
      <trkpt lat="47.12478" lon="-1.59898">
        <ele>52</ele>
        <time>2021-04-05T10:22:24.000Z</time>
      </trkpt>
      <trkpt lat="47.1248" lon="-1.59916">
        <ele>52</ele>
        <time>2021-04-05T10:22:26.000Z</time>
      </trkpt>
      <trkpt lat="47.12482" lon="-1.59934">
        <ele>51</ele>
        <time>2021-04-05T10:22:28.000Z</time>
      </trkpt>
      <trkpt lat="47.12482" lon="-1.59952">
        <ele>50</ele>
        <time>2021-04-05T10:22:30.000Z</time>
      </trkpt>
      <trkpt lat="47.12481" lon="-1.59971">
        <ele>50</ele>
        <time>2021-04-05T10:22:32.000Z</time>
      </trkpt>
      <trkpt lat="47.1248" lon="-1.5999">
        <ele>50</ele>
        <time>2021-04-05T10:22:34.000Z</time>
      </trkpt>
      <trkpt lat="47.12478" lon="-1.60009">
        <ele>51</ele>
        <time>2021-04-05T10:22:36.000Z</time>
      </trkpt>
      <trkpt lat="47.12479" lon="-1.60026">
        <ele>51</ele>
        <time>2021-04-05T10:22:38.000Z</time>
      </trkpt>
      <trkpt lat="47.1248" lon="-1.60044">
        <ele>51</ele>
        <time>2021-04-05T10:22:40.000Z</time>
      </trkpt>
      <trkpt lat="47.12481" lon="-1.60062">
        <ele>50</ele>
        <time>2021-04-05T10:22:42.000Z</time>
      </trkpt>
      <trkpt lat="47.12482" lon="-1.60079">
        <ele>50</ele>
        <time>2021-04-05T10:22:44.000Z</time>
      </trkpt>
      <trkpt lat="47.12483" lon="-1.60096">
        <ele>49</ele>
        <time>2021-04-05T10:22:46.000Z</time>
      </trkpt>
      <trkpt lat="47.12484" lon="-1.60113">
        <ele>50</ele>
        <time>2021-04-05T10:22:48.000Z</time>
      </trkpt>
      <trkpt lat="47.12485" lon="-1.60131">
        <ele>50</ele>
        <time>2021-04-05T10:22:50.000Z</time>
      </trkpt>
      <trkpt lat="47.12486" lon="-1.60149">
        <ele>49</ele>
        <time>2021-04-05T10:22:52.000Z</time>
      </trkpt>
      <trkpt lat="47.12489" lon="-1.60168">
        <ele>48</ele>
        <time>2021-04-05T10:22:54.000Z</time>
      </trkpt>
      <trkpt lat="47.12491" lon="-1.60187">
        <ele>48</ele>
        <time>2021-04-05T10:22:56.000Z</time>
      </trkpt>
      <trkpt lat="47.12492" lon="-1.60207">
        <ele>48</ele>
        <time>2021-04-05T10:22:58.000Z</time>
      </trkpt>
      <trkpt lat="47.12492" lon="-1.60226">
        <ele>49</ele>
        <time>2021-04-05T10:23:00.000Z</time>
      </trkpt>
      <trkpt lat="47.12496" lon="-1.60245">
        <ele>49</ele>
        <time>2021-04-05T10:23:02.000Z</time>
      </trkpt>
      <trkpt lat="47.12498" lon="-1.60262">
        <ele>50</ele>
        <time>2021-04-05T10:23:04.000Z</time>
      </trkpt>
      <trkpt lat="47.12501" lon="-1.60279">
        <ele>50</ele>
        <time>2021-04-05T10:23:06.000Z</time>
      </trkpt>
      <trkpt lat="47.12505" lon="-1.60296">
        <ele>50</ele>
        <time>2021-04-05T10:23:08.000Z</time>
      </trkpt>
      <trkpt lat="47.12508" lon="-1.60313">
        <ele>50</ele>
        <time>2021-04-05T10:23:10.000Z</time>
      </trkpt>
      <trkpt lat="47.12511" lon="-1.60329">
        <ele>50</ele>
        <time>2021-04-05T10:23:12.000Z</time>
      </trkpt>
      <trkpt lat="47.12514" lon="-1.60345">
        <ele>50</ele>
        <time>2021-04-05T10:23:14.000Z</time>
      </trkpt>
      <trkpt lat="47.12517" lon="-1.60361">
        <ele>51</ele>
        <time>2021-04-05T10:23:16.000Z</time>
      </trkpt>
      <trkpt lat="47.1252" lon="-1.60378">
        <ele>51</ele>
        <time>2021-04-05T10:23:18.000Z</time>
      </trkpt>
      <trkpt lat="47.12523" lon="-1.60395">
        <ele>51</ele>
        <time>2021-04-05T10:23:20.000Z</time>
      </trkpt>
      <trkpt lat="47.12526" lon="-1.60412">
        <ele>52</ele>
        <time>2021-04-05T10:23:22.000Z</time>
      </trkpt>
      <trkpt lat="47.12529" lon="-1.60428">
        <ele>52</ele>
        <time>2021-04-05T10:23:24.000Z</time>
      </trkpt>
      <trkpt lat="47.12532" lon="-1.60444">
        <ele>52</ele>
        <time>2021-04-05T10:23:26.000Z</time>
      </trkpt>
      <trkpt lat="47.12535" lon="-1.60461">
        <ele>52</ele>
        <time>2021-04-05T10:23:28.000Z</time>
      </trkpt>
      <trkpt lat="47.12538" lon="-1.60478">
        <ele>53</ele>
        <time>2021-04-05T10:23:30.000Z</time>
      </trkpt>
      <trkpt lat="47.12541" lon="-1.60502">
        <ele>53</ele>
        <time>2021-04-05T10:23:33.000Z</time>
      </trkpt>
      <trkpt lat="47.12543" lon="-1.60519">
        <ele>53</ele>
        <time>2021-04-05T10:23:35.000Z</time>
      </trkpt>
      <trkpt lat="47.12544" lon="-1.60535">
        <ele>53</ele>
        <time>2021-04-05T10:23:37.000Z</time>
      </trkpt>
      <trkpt lat="47.12545" lon="-1.60552">
        <ele>53</ele>
        <time>2021-04-05T10:23:39.000Z</time>
      </trkpt>
      <trkpt lat="47.12545" lon="-1.60569">
        <ele>53</ele>
        <time>2021-04-05T10:23:41.000Z</time>
      </trkpt>
      <trkpt lat="47.12546" lon="-1.60585">
        <ele>53</ele>
        <time>2021-04-05T10:23:43.000Z</time>
      </trkpt>
      <trkpt lat="47.12546" lon="-1.6061">
        <ele>54</ele>
        <time>2021-04-05T10:23:46.000Z</time>
      </trkpt>
      <trkpt lat="47.12546" lon="-1.60628">
        <ele>54</ele>
        <time>2021-04-05T10:23:48.000Z</time>
      </trkpt>
      <trkpt lat="47.12546" lon="-1.60645">
        <ele>54</ele>
        <time>2021-04-05T10:23:50.000Z</time>
      </trkpt>
      <trkpt lat="47.12546" lon="-1.60663">
        <ele>55</ele>
        <time>2021-04-05T10:23:52.000Z</time>
      </trkpt>
      <trkpt lat="47.12547" lon="-1.6068">
        <ele>54</ele>
        <time>2021-04-05T10:23:54.000Z</time>
      </trkpt>
      <trkpt lat="47.12548" lon="-1.60697">
        <ele>54</ele>
        <time>2021-04-05T10:23:56.000Z</time>
      </trkpt>
      <trkpt lat="47.12548" lon="-1.60714">
        <ele>54</ele>
        <time>2021-04-05T10:23:58.000Z</time>
      </trkpt>
      <trkpt lat="47.12548" lon="-1.60731">
        <ele>54</ele>
        <time>2021-04-05T10:24:00.000Z</time>
      </trkpt>
      <trkpt lat="47.12547" lon="-1.60748">
        <ele>54</ele>
        <time>2021-04-05T10:24:02.000Z</time>
      </trkpt>
      <trkpt lat="47.12546" lon="-1.60765">
        <ele>54</ele>
        <time>2021-04-05T10:24:04.000Z</time>
      </trkpt>
      <trkpt lat="47.12546" lon="-1.60782">
        <ele>54</ele>
        <time>2021-04-05T10:24:06.000Z</time>
      </trkpt>
      <trkpt lat="47.12544" lon="-1.60798">
        <ele>54</ele>
        <time>2021-04-05T10:24:08.000Z</time>
      </trkpt>
      <trkpt lat="47.12543" lon="-1.60814">
        <ele>54</ele>
        <time>2021-04-05T10:24:10.000Z</time>
      </trkpt>
      <trkpt lat="47.12541" lon="-1.60829">
        <ele>54</ele>
        <time>2021-04-05T10:24:12.000Z</time>
      </trkpt>
      <trkpt lat="47.12541" lon="-1.60843">
        <ele>54</ele>
        <time>2021-04-05T10:24:14.000Z</time>
      </trkpt>
      <trkpt lat="47.12553" lon="-1.60844">
        <ele>54</ele>
        <time>2021-04-05T10:24:17.000Z</time>
      </trkpt>
      <trkpt lat="47.12563" lon="-1.6084">
        <ele>55</ele>
        <time>2021-04-05T10:24:19.000Z</time>
      </trkpt>
      <trkpt lat="47.12579" lon="-1.60833">
        <ele>55</ele>
        <time>2021-04-05T10:24:22.000Z</time>
      </trkpt>
      <trkpt lat="47.1259" lon="-1.6083">
        <ele>56</ele>
        <time>2021-04-05T10:24:24.000Z</time>
      </trkpt>
      <trkpt lat="47.12607" lon="-1.60826">
        <ele>56</ele>
        <time>2021-04-05T10:24:27.000Z</time>
      </trkpt>
      <trkpt lat="47.12619" lon="-1.60822">
        <ele>56</ele>
        <time>2021-04-05T10:24:29.000Z</time>
      </trkpt>
      <trkpt lat="47.1263" lon="-1.60818">
        <ele>56</ele>
        <time>2021-04-05T10:24:31.000Z</time>
      </trkpt>
      <trkpt lat="47.12641" lon="-1.60814">
        <ele>56</ele>
        <time>2021-04-05T10:24:33.000Z</time>
      </trkpt>
      <trkpt lat="47.12652" lon="-1.60811">
        <ele>56</ele>
        <time>2021-04-05T10:24:35.000Z</time>
      </trkpt>
      <trkpt lat="47.12663" lon="-1.60807">
        <ele>57</ele>
        <time>2021-04-05T10:24:37.000Z</time>
      </trkpt>
      <trkpt lat="47.12673" lon="-1.60803">
        <ele>57</ele>
        <time>2021-04-05T10:24:39.000Z</time>
      </trkpt>
      <trkpt lat="47.12683" lon="-1.608">
        <ele>57</ele>
        <time>2021-04-05T10:24:41.000Z</time>
      </trkpt>
      <trkpt lat="47.12693" lon="-1.60796">
        <ele>57</ele>
        <time>2021-04-05T10:24:43.000Z</time>
      </trkpt>
      <trkpt lat="47.12704" lon="-1.60791">
        <ele>58</ele>
        <time>2021-04-05T10:24:45.000Z</time>
      </trkpt>
      <trkpt lat="47.12714" lon="-1.60787">
        <ele>58</ele>
        <time>2021-04-05T10:24:47.000Z</time>
      </trkpt>
      <trkpt lat="47.12724" lon="-1.60787">
        <ele>59</ele>
        <time>2021-04-05T10:24:49.000Z</time>
      </trkpt>
      <trkpt lat="47.12728" lon="-1.60799">
        <ele>58</ele>
        <time>2021-04-05T10:24:51.000Z</time>
      </trkpt>
      <trkpt lat="47.12727" lon="-1.60815">
        <ele>58</ele>
        <time>2021-04-05T10:24:53.000Z</time>
      </trkpt>
      <trkpt lat="47.12723" lon="-1.6083">
        <ele>57</ele>
        <time>2021-04-05T10:24:55.000Z</time>
      </trkpt>
      <trkpt lat="47.12719" lon="-1.60846">
        <ele>57</ele>
        <time>2021-04-05T10:24:57.000Z</time>
      </trkpt>
      <trkpt lat="47.12715" lon="-1.6086">
        <ele>57</ele>
        <time>2021-04-05T10:24:59.000Z</time>
      </trkpt>
      <trkpt lat="47.12711" lon="-1.60875">
        <ele>56</ele>
        <time>2021-04-05T10:25:01.000Z</time>
      </trkpt>
      <trkpt lat="47.12707" lon="-1.60891">
        <ele>55</ele>
        <time>2021-04-05T10:25:03.000Z</time>
      </trkpt>
      <trkpt lat="47.12705" lon="-1.60907">
        <ele>55</ele>
        <time>2021-04-05T10:25:05.000Z</time>
      </trkpt>
      <trkpt lat="47.12702" lon="-1.60922">
        <ele>55</ele>
        <time>2021-04-05T10:25:07.000Z</time>
      </trkpt>
      <trkpt lat="47.12701" lon="-1.60938">
        <ele>55</ele>
        <time>2021-04-05T10:25:09.000Z</time>
      </trkpt>
      <trkpt lat="47.127" lon="-1.60955">
        <ele>55</ele>
        <time>2021-04-05T10:25:11.000Z</time>
      </trkpt>
      <trkpt lat="47.127" lon="-1.60971">
        <ele>54</ele>
        <time>2021-04-05T10:25:13.000Z</time>
      </trkpt>
      <trkpt lat="47.127" lon="-1.60987">
        <ele>54</ele>
        <time>2021-04-05T10:25:15.000Z</time>
      </trkpt>
      <trkpt lat="47.127" lon="-1.61002">
        <ele>53</ele>
        <time>2021-04-05T10:25:17.000Z</time>
      </trkpt>
      <trkpt lat="47.12699" lon="-1.61019">
        <ele>53</ele>
        <time>2021-04-05T10:25:19.000Z</time>
      </trkpt>
      <trkpt lat="47.12699" lon="-1.61035">
        <ele>52</ele>
        <time>2021-04-05T10:25:21.000Z</time>
      </trkpt>
      <trkpt lat="47.12698" lon="-1.61051">
        <ele>52</ele>
        <time>2021-04-05T10:25:23.000Z</time>
      </trkpt>
      <trkpt lat="47.12698" lon="-1.61067">
        <ele>52</ele>
        <time>2021-04-05T10:25:25.000Z</time>
      </trkpt>
      <trkpt lat="47.12697" lon="-1.61083">
        <ele>51</ele>
        <time>2021-04-05T10:25:27.000Z</time>
      </trkpt>
      <trkpt lat="47.12697" lon="-1.61099">
        <ele>51</ele>
        <time>2021-04-05T10:25:29.000Z</time>
      </trkpt>
      <trkpt lat="47.12695" lon="-1.61116">
        <ele>51</ele>
        <time>2021-04-05T10:25:31.000Z</time>
      </trkpt>
      <trkpt lat="47.12692" lon="-1.6114">
        <ele>51</ele>
        <time>2021-04-05T10:25:34.000Z</time>
      </trkpt>
      <trkpt lat="47.1269" lon="-1.61155">
        <ele>52</ele>
        <time>2021-04-05T10:25:36.000Z</time>
      </trkpt>
      <trkpt lat="47.12687" lon="-1.61171">
        <ele>51</ele>
        <time>2021-04-05T10:25:38.000Z</time>
      </trkpt>
      <trkpt lat="47.12684" lon="-1.61186">
        <ele>51</ele>
        <time>2021-04-05T10:25:40.000Z</time>
      </trkpt>
      <trkpt lat="47.12681" lon="-1.61202">
        <ele>51</ele>
        <time>2021-04-05T10:25:42.000Z</time>
      </trkpt>
      <trkpt lat="47.12679" lon="-1.61227">
        <ele>51</ele>
        <time>2021-04-05T10:25:45.000Z</time>
      </trkpt>
      <trkpt lat="47.12678" lon="-1.61242">
        <ele>51</ele>
        <time>2021-04-05T10:25:47.000Z</time>
      </trkpt>
      <trkpt lat="47.12679" lon="-1.61258">
        <ele>52</ele>
        <time>2021-04-05T10:25:49.000Z</time>
      </trkpt>
      <trkpt lat="47.12682" lon="-1.61273">
        <ele>53</ele>
        <time>2021-04-05T10:25:51.000Z</time>
      </trkpt>
      <trkpt lat="47.12686" lon="-1.61288">
        <ele>53</ele>
        <time>2021-04-05T10:25:53.000Z</time>
      </trkpt>
      <trkpt lat="47.12691" lon="-1.61303">
        <ele>53</ele>
        <time>2021-04-05T10:25:55.000Z</time>
      </trkpt>
      <trkpt lat="47.12695" lon="-1.61319">
        <ele>53</ele>
        <time>2021-04-05T10:25:57.000Z</time>
      </trkpt>
      <trkpt lat="47.12699" lon="-1.61334">
        <ele>53</ele>
        <time>2021-04-05T10:25:59.000Z</time>
      </trkpt>
      <trkpt lat="47.12704" lon="-1.61348">
        <ele>53</ele>
        <time>2021-04-05T10:26:01.000Z</time>
      </trkpt>
      <trkpt lat="47.12708" lon="-1.61362">
        <ele>54</ele>
        <time>2021-04-05T10:26:03.000Z</time>
      </trkpt>
      <trkpt lat="47.12713" lon="-1.61376">
        <ele>54</ele>
        <time>2021-04-05T10:26:05.000Z</time>
      </trkpt>
      <trkpt lat="47.12718" lon="-1.6139">
        <ele>54</ele>
        <time>2021-04-05T10:26:07.000Z</time>
      </trkpt>
      <trkpt lat="47.12722" lon="-1.61405">
        <ele>55</ele>
        <time>2021-04-05T10:26:09.000Z</time>
      </trkpt>
      <trkpt lat="47.12728" lon="-1.6142">
        <ele>55</ele>
        <time>2021-04-05T10:26:11.000Z</time>
      </trkpt>
      <trkpt lat="47.12734" lon="-1.61435">
        <ele>55</ele>
        <time>2021-04-05T10:26:13.000Z</time>
      </trkpt>
      <trkpt lat="47.12739" lon="-1.61451">
        <ele>54</ele>
        <time>2021-04-05T10:26:15.000Z</time>
      </trkpt>
      <trkpt lat="47.12746" lon="-1.61465">
        <ele>54</ele>
        <time>2021-04-05T10:26:17.000Z</time>
      </trkpt>
      <trkpt lat="47.12752" lon="-1.61479">
        <ele>54</ele>
        <time>2021-04-05T10:26:19.000Z</time>
      </trkpt>
      <trkpt lat="47.12757" lon="-1.61493">
        <ele>55</ele>
        <time>2021-04-05T10:26:21.000Z</time>
      </trkpt>
      <trkpt lat="47.12762" lon="-1.61507">
        <ele>55</ele>
        <time>2021-04-05T10:26:23.000Z</time>
      </trkpt>
      <trkpt lat="47.12768" lon="-1.61521">
        <ele>55</ele>
        <time>2021-04-05T10:26:25.000Z</time>
      </trkpt>
      <trkpt lat="47.12774" lon="-1.61536">
        <ele>54</ele>
        <time>2021-04-05T10:26:27.000Z</time>
      </trkpt>
      <trkpt lat="47.1278" lon="-1.61551">
        <ele>54</ele>
        <time>2021-04-05T10:26:29.000Z</time>
      </trkpt>
      <trkpt lat="47.12786" lon="-1.61567">
        <ele>54</ele>
        <time>2021-04-05T10:26:31.000Z</time>
      </trkpt>
      <trkpt lat="47.12792" lon="-1.6158">
        <ele>53</ele>
        <time>2021-04-05T10:26:33.000Z</time>
      </trkpt>
      <trkpt lat="47.12798" lon="-1.61595">
        <ele>53</ele>
        <time>2021-04-05T10:26:35.000Z</time>
      </trkpt>
      <trkpt lat="47.12806" lon="-1.61618">
        <ele>53</ele>
        <time>2021-04-05T10:26:38.000Z</time>
      </trkpt>
      <trkpt lat="47.12812" lon="-1.61632">
        <ele>52</ele>
        <time>2021-04-05T10:26:40.000Z</time>
      </trkpt>
      <trkpt lat="47.12818" lon="-1.61646">
        <ele>53</ele>
        <time>2021-04-05T10:26:43.000Z</time>
      </trkpt>
      <trkpt lat="47.12823" lon="-1.6166">
        <ele>54</ele>
        <time>2021-04-05T10:26:46.000Z</time>
      </trkpt>
      <trkpt lat="47.12829" lon="-1.61673">
        <ele>54</ele>
        <time>2021-04-05T10:26:48.000Z</time>
      </trkpt>
      <trkpt lat="47.12835" lon="-1.61686">
        <ele>54</ele>
        <time>2021-04-05T10:26:50.000Z</time>
      </trkpt>
      <trkpt lat="47.12842" lon="-1.61699">
        <ele>53</ele>
        <time>2021-04-05T10:26:52.000Z</time>
      </trkpt>
      <trkpt lat="47.12848" lon="-1.61713">
        <ele>54</ele>
        <time>2021-04-05T10:26:54.000Z</time>
      </trkpt>
      <trkpt lat="47.12854" lon="-1.61728">
        <ele>53</ele>
        <time>2021-04-05T10:26:56.000Z</time>
      </trkpt>
      <trkpt lat="47.12861" lon="-1.61743">
        <ele>53</ele>
        <time>2021-04-05T10:26:58.000Z</time>
      </trkpt>
      <trkpt lat="47.12869" lon="-1.61757">
        <ele>53</ele>
        <time>2021-04-05T10:27:00.000Z</time>
      </trkpt>
      <trkpt lat="47.12876" lon="-1.61773">
        <ele>52</ele>
        <time>2021-04-05T10:27:02.000Z</time>
      </trkpt>
      <trkpt lat="47.12882" lon="-1.6179">
        <ele>52</ele>
        <time>2021-04-05T10:27:04.000Z</time>
      </trkpt>
      <trkpt lat="47.12888" lon="-1.61807">
        <ele>50</ele>
        <time>2021-04-05T10:27:06.000Z</time>
      </trkpt>
      <trkpt lat="47.12893" lon="-1.61823">
        <ele>50</ele>
        <time>2021-04-05T10:27:08.000Z</time>
      </trkpt>
      <trkpt lat="47.12899" lon="-1.61841">
        <ele>50</ele>
        <time>2021-04-05T10:27:10.000Z</time>
      </trkpt>
      <trkpt lat="47.12904" lon="-1.61859">
        <ele>51</ele>
        <time>2021-04-05T10:27:12.000Z</time>
      </trkpt>
      <trkpt lat="47.12907" lon="-1.61876">
        <ele>51</ele>
        <time>2021-04-05T10:27:14.000Z</time>
      </trkpt>
      <trkpt lat="47.1291" lon="-1.61896">
        <ele>50</ele>
        <time>2021-04-05T10:27:16.000Z</time>
      </trkpt>
      <trkpt lat="47.12912" lon="-1.61915">
        <ele>51</ele>
        <time>2021-04-05T10:27:18.000Z</time>
      </trkpt>
      <trkpt lat="47.12914" lon="-1.61934">
        <ele>51</ele>
        <time>2021-04-05T10:27:20.000Z</time>
      </trkpt>
      <trkpt lat="47.12916" lon="-1.61951">
        <ele>51</ele>
        <time>2021-04-05T10:27:22.000Z</time>
      </trkpt>
      <trkpt lat="47.12919" lon="-1.61966">
        <ele>50</ele>
        <time>2021-04-05T10:27:24.000Z</time>
      </trkpt>
      <trkpt lat="47.12923" lon="-1.6198">
        <ele>50</ele>
        <time>2021-04-05T10:27:26.000Z</time>
      </trkpt>
      <trkpt lat="47.12926" lon="-1.61994">
        <ele>49</ele>
        <time>2021-04-05T10:27:28.000Z</time>
      </trkpt>
      <trkpt lat="47.12931" lon="-1.62009">
        <ele>49</ele>
        <time>2021-04-05T10:27:30.000Z</time>
      </trkpt>
      <trkpt lat="47.12936" lon="-1.62026">
        <ele>49</ele>
        <time>2021-04-05T10:27:32.000Z</time>
      </trkpt>
      <trkpt lat="47.12942" lon="-1.62042">
        <ele>49</ele>
        <time>2021-04-05T10:27:34.000Z</time>
      </trkpt>
      <trkpt lat="47.12948" lon="-1.62056">
        <ele>49</ele>
        <time>2021-04-05T10:27:36.000Z</time>
      </trkpt>
      <trkpt lat="47.12953" lon="-1.62069">
        <ele>50</ele>
        <time>2021-04-05T10:27:38.000Z</time>
      </trkpt>
      <trkpt lat="47.12959" lon="-1.62081">
        <ele>51</ele>
        <time>2021-04-05T10:27:40.000Z</time>
      </trkpt>
      <trkpt lat="47.12963" lon="-1.62094">
        <ele>50</ele>
        <time>2021-04-05T10:27:42.000Z</time>
      </trkpt>
      <trkpt lat="47.12969" lon="-1.62105">
        <ele>51</ele>
        <time>2021-04-05T10:27:44.000Z</time>
      </trkpt>
      <trkpt lat="47.12975" lon="-1.62116">
        <ele>50</ele>
        <time>2021-04-05T10:27:46.000Z</time>
      </trkpt>
      <trkpt lat="47.12982" lon="-1.62127">
        <ele>50</ele>
        <time>2021-04-05T10:27:48.000Z</time>
      </trkpt>
      <trkpt lat="47.12989" lon="-1.62137">
        <ele>50</ele>
        <time>2021-04-05T10:27:50.000Z</time>
      </trkpt>
      <trkpt lat="47.12996" lon="-1.62149">
        <ele>50</ele>
        <time>2021-04-05T10:27:52.000Z</time>
      </trkpt>
      <trkpt lat="47.13003" lon="-1.6216">
        <ele>51</ele>
        <time>2021-04-05T10:27:54.000Z</time>
      </trkpt>
      <trkpt lat="47.1301" lon="-1.62171">
        <ele>51</ele>
        <time>2021-04-05T10:27:56.000Z</time>
      </trkpt>
      <trkpt lat="47.13017" lon="-1.62181">
        <ele>51</ele>
        <time>2021-04-05T10:27:58.000Z</time>
      </trkpt>
      <trkpt lat="47.13024" lon="-1.62192">
        <ele>52</ele>
        <time>2021-04-05T10:28:00.000Z</time>
      </trkpt>
      <trkpt lat="47.13031" lon="-1.62204">
        <ele>52</ele>
        <time>2021-04-05T10:28:02.000Z</time>
      </trkpt>
      <trkpt lat="47.13038" lon="-1.62216">
        <ele>52</ele>
        <time>2021-04-05T10:28:04.000Z</time>
      </trkpt>
      <trkpt lat="47.13045" lon="-1.62228">
        <ele>51</ele>
        <time>2021-04-05T10:28:06.000Z</time>
      </trkpt>
      <trkpt lat="47.13052" lon="-1.6224">
        <ele>51</ele>
        <time>2021-04-05T10:28:08.000Z</time>
      </trkpt>
      <trkpt lat="47.13059" lon="-1.6225">
        <ele>51</ele>
        <time>2021-04-05T10:28:10.000Z</time>
      </trkpt>
      <trkpt lat="47.13066" lon="-1.6226">
        <ele>51</ele>
        <time>2021-04-05T10:28:12.000Z</time>
      </trkpt>
      <trkpt lat="47.13073" lon="-1.62271">
        <ele>51</ele>
        <time>2021-04-05T10:28:14.000Z</time>
      </trkpt>
      <trkpt lat="47.13081" lon="-1.62281">
        <ele>51</ele>
        <time>2021-04-05T10:28:16.000Z</time>
      </trkpt>
      <trkpt lat="47.13087" lon="-1.62291">
        <ele>51</ele>
        <time>2021-04-05T10:28:18.000Z</time>
      </trkpt>
      <trkpt lat="47.13094" lon="-1.62301">
        <ele>51</ele>
        <time>2021-04-05T10:28:20.000Z</time>
      </trkpt>
      <trkpt lat="47.13103" lon="-1.62302">
        <ele>51</ele>
        <time>2021-04-05T10:28:22.000Z</time>
      </trkpt>
      <trkpt lat="47.13112" lon="-1.6229">
        <ele>53</ele>
        <time>2021-04-05T10:28:24.000Z</time>
      </trkpt>
      <trkpt lat="47.13119" lon="-1.62277">
        <ele>53</ele>
        <time>2021-04-05T10:28:26.000Z</time>
      </trkpt>
      <trkpt lat="47.13126" lon="-1.62265">
        <ele>54</ele>
        <time>2021-04-05T10:28:28.000Z</time>
      </trkpt>
      <trkpt lat="47.13133" lon="-1.62253">
        <ele>54</ele>
        <time>2021-04-05T10:28:30.000Z</time>
      </trkpt>
      <trkpt lat="47.1314" lon="-1.6224">
        <ele>55</ele>
        <time>2021-04-05T10:28:32.000Z</time>
      </trkpt>
      <trkpt lat="47.13146" lon="-1.62227">
        <ele>55</ele>
        <time>2021-04-05T10:28:34.000Z</time>
      </trkpt>
      <trkpt lat="47.13152" lon="-1.62215">
        <ele>55</ele>
        <time>2021-04-05T10:28:36.000Z</time>
      </trkpt>
      <trkpt lat="47.13159" lon="-1.62203">
        <ele>56</ele>
        <time>2021-04-05T10:28:38.000Z</time>
      </trkpt>
      <trkpt lat="47.13165" lon="-1.62192">
        <ele>55</ele>
        <time>2021-04-05T10:28:40.000Z</time>
      </trkpt>
      <trkpt lat="47.13171" lon="-1.6218">
        <ele>56</ele>
        <time>2021-04-05T10:28:42.000Z</time>
      </trkpt>
      <trkpt lat="47.13177" lon="-1.62166">
        <ele>56</ele>
        <time>2021-04-05T10:28:44.000Z</time>
      </trkpt>
      <trkpt lat="47.13183" lon="-1.62153">
        <ele>56</ele>
        <time>2021-04-05T10:28:46.000Z</time>
      </trkpt>
      <trkpt lat="47.13189" lon="-1.62141">
        <ele>57</ele>
        <time>2021-04-05T10:28:48.000Z</time>
      </trkpt>
      <trkpt lat="47.13196" lon="-1.62129">
        <ele>57</ele>
        <time>2021-04-05T10:28:50.000Z</time>
      </trkpt>
      <trkpt lat="47.13203" lon="-1.62118">
        <ele>57</ele>
        <time>2021-04-05T10:28:52.000Z</time>
      </trkpt>
      <trkpt lat="47.13209" lon="-1.62106">
        <ele>58</ele>
        <time>2021-04-05T10:28:54.000Z</time>
      </trkpt>
      <trkpt lat="47.13216" lon="-1.62094">
        <ele>58</ele>
        <time>2021-04-05T10:28:56.000Z</time>
      </trkpt>
      <trkpt lat="47.13222" lon="-1.62082">
        <ele>59</ele>
        <time>2021-04-05T10:28:58.000Z</time>
      </trkpt>
      <trkpt lat="47.13229" lon="-1.6207">
        <ele>58</ele>
        <time>2021-04-05T10:29:00.000Z</time>
      </trkpt>
      <trkpt lat="47.13237" lon="-1.62059">
        <ele>58</ele>
        <time>2021-04-05T10:29:02.000Z</time>
      </trkpt>
      <trkpt lat="47.13245" lon="-1.62047">
        <ele>58</ele>
        <time>2021-04-05T10:29:04.000Z</time>
      </trkpt>
      <trkpt lat="47.13253" lon="-1.62036">
        <ele>59</ele>
        <time>2021-04-05T10:29:06.000Z</time>
      </trkpt>
      <trkpt lat="47.13261" lon="-1.62026">
        <ele>59</ele>
        <time>2021-04-05T10:29:08.000Z</time>
      </trkpt>
      <trkpt lat="47.13269" lon="-1.62017">
        <ele>60</ele>
        <time>2021-04-05T10:29:10.000Z</time>
      </trkpt>
      <trkpt lat="47.13278" lon="-1.62008">
        <ele>60</ele>
        <time>2021-04-05T10:29:12.000Z</time>
      </trkpt>
      <trkpt lat="47.13287" lon="-1.62001">
        <ele>60</ele>
        <time>2021-04-05T10:29:14.000Z</time>
      </trkpt>
      <trkpt lat="47.13297" lon="-1.61995">
        <ele>60</ele>
        <time>2021-04-05T10:29:16.000Z</time>
      </trkpt>
      <trkpt lat="47.13306" lon="-1.61988">
        <ele>61</ele>
        <time>2021-04-05T10:29:18.000Z</time>
      </trkpt>
      <trkpt lat="47.13316" lon="-1.61981">
        <ele>61</ele>
        <time>2021-04-05T10:29:20.000Z</time>
      </trkpt>
      <trkpt lat="47.13326" lon="-1.61975">
        <ele>61</ele>
        <time>2021-04-05T10:29:22.000Z</time>
      </trkpt>
      <trkpt lat="47.13335" lon="-1.61968">
        <ele>61</ele>
        <time>2021-04-05T10:29:24.000Z</time>
      </trkpt>
      <trkpt lat="47.13344" lon="-1.61961">
        <ele>61</ele>
        <time>2021-04-05T10:29:26.000Z</time>
      </trkpt>
      <trkpt lat="47.13353" lon="-1.61953">
        <ele>61</ele>
        <time>2021-04-05T10:29:28.000Z</time>
      </trkpt>
      <trkpt lat="47.13362" lon="-1.61946">
        <ele>61</ele>
        <time>2021-04-05T10:29:30.000Z</time>
      </trkpt>
      <trkpt lat="47.13371" lon="-1.61938">
        <ele>61</ele>
        <time>2021-04-05T10:29:32.000Z</time>
      </trkpt>
      <trkpt lat="47.1338" lon="-1.6193">
        <ele>61</ele>
        <time>2021-04-05T10:29:34.000Z</time>
      </trkpt>
      <trkpt lat="47.1339" lon="-1.61923">
        <ele>61</ele>
        <time>2021-04-05T10:29:36.000Z</time>
      </trkpt>
      <trkpt lat="47.134" lon="-1.61916">
        <ele>62</ele>
        <time>2021-04-05T10:29:38.000Z</time>
      </trkpt>
      <trkpt lat="47.1341" lon="-1.61909">
        <ele>62</ele>
        <time>2021-04-05T10:29:40.000Z</time>
      </trkpt>
      <trkpt lat="47.1342" lon="-1.61901">
        <ele>62</ele>
        <time>2021-04-05T10:29:42.000Z</time>
      </trkpt>
      <trkpt lat="47.1343" lon="-1.61894">
        <ele>61</ele>
        <time>2021-04-05T10:29:44.000Z</time>
      </trkpt>
      <trkpt lat="47.13439" lon="-1.61886">
        <ele>62</ele>
        <time>2021-04-05T10:29:46.000Z</time>
      </trkpt>
      <trkpt lat="47.13449" lon="-1.61879">
        <ele>61</ele>
        <time>2021-04-05T10:29:48.000Z</time>
      </trkpt>
      <trkpt lat="47.13459" lon="-1.61872">
        <ele>61</ele>
        <time>2021-04-05T10:29:50.000Z</time>
      </trkpt>
      <trkpt lat="47.13468" lon="-1.61865">
        <ele>61</ele>
        <time>2021-04-05T10:29:52.000Z</time>
      </trkpt>
      <trkpt lat="47.13478" lon="-1.61857">
        <ele>61</ele>
        <time>2021-04-05T10:29:54.000Z</time>
      </trkpt>
      <trkpt lat="47.13489" lon="-1.61851">
        <ele>61</ele>
        <time>2021-04-05T10:29:56.000Z</time>
      </trkpt>
      <trkpt lat="47.135" lon="-1.61845">
        <ele>61</ele>
        <time>2021-04-05T10:29:58.000Z</time>
      </trkpt>
      <trkpt lat="47.1351" lon="-1.6184">
        <ele>60</ele>
        <time>2021-04-05T10:30:00.000Z</time>
      </trkpt>
      <trkpt lat="47.1352" lon="-1.61835">
        <ele>60</ele>
        <time>2021-04-05T10:30:02.000Z</time>
      </trkpt>
      <trkpt lat="47.13531" lon="-1.6183">
        <ele>60</ele>
        <time>2021-04-05T10:30:04.000Z</time>
      </trkpt>
      <trkpt lat="47.13542" lon="-1.61825">
        <ele>59</ele>
        <time>2021-04-05T10:30:06.000Z</time>
      </trkpt>
      <trkpt lat="47.13552" lon="-1.61822">
        <ele>59</ele>
        <time>2021-04-05T10:30:08.000Z</time>
      </trkpt>
      <trkpt lat="47.13561" lon="-1.61817">
        <ele>59</ele>
        <time>2021-04-05T10:30:10.000Z</time>
      </trkpt>
      <trkpt lat="47.1357" lon="-1.6181">
        <ele>59</ele>
        <time>2021-04-05T10:30:12.000Z</time>
      </trkpt>
      <trkpt lat="47.13581" lon="-1.61804">
        <ele>59</ele>
        <time>2021-04-05T10:30:14.000Z</time>
      </trkpt>
      <trkpt lat="47.13593" lon="-1.61803">
        <ele>60</ele>
        <time>2021-04-05T10:30:16.000Z</time>
      </trkpt>
      <trkpt lat="47.13605" lon="-1.61799">
        <ele>60</ele>
        <time>2021-04-05T10:30:18.000Z</time>
      </trkpt>
      <trkpt lat="47.13616" lon="-1.61795">
        <ele>59</ele>
        <time>2021-04-05T10:30:20.000Z</time>
      </trkpt>
      <trkpt lat="47.13627" lon="-1.6179">
        <ele>59</ele>
        <time>2021-04-05T10:30:22.000Z</time>
      </trkpt>
      <trkpt lat="47.13637" lon="-1.61785">
        <ele>60</ele>
        <time>2021-04-05T10:30:24.000Z</time>
      </trkpt>
      <trkpt lat="47.13648" lon="-1.6178">
        <ele>61</ele>
        <time>2021-04-05T10:30:26.000Z</time>
      </trkpt>
      <trkpt lat="47.13659" lon="-1.61774">
        <ele>61</ele>
        <time>2021-04-05T10:30:28.000Z</time>
      </trkpt>
      <trkpt lat="47.1367" lon="-1.61769">
        <ele>60</ele>
        <time>2021-04-05T10:30:30.000Z</time>
      </trkpt>
      <trkpt lat="47.1368" lon="-1.61763">
        <ele>61</ele>
        <time>2021-04-05T10:30:32.000Z</time>
      </trkpt>
      <trkpt lat="47.13691" lon="-1.61757">
        <ele>61</ele>
        <time>2021-04-05T10:30:34.000Z</time>
      </trkpt>
      <trkpt lat="47.13701" lon="-1.61749">
        <ele>62</ele>
        <time>2021-04-05T10:30:36.000Z</time>
      </trkpt>
      <trkpt lat="47.1371" lon="-1.61741">
        <ele>62</ele>
        <time>2021-04-05T10:30:38.000Z</time>
      </trkpt>
      <trkpt lat="47.13719" lon="-1.61733">
        <ele>63</ele>
        <time>2021-04-05T10:30:40.000Z</time>
      </trkpt>
      <trkpt lat="47.13728" lon="-1.61727">
        <ele>63</ele>
        <time>2021-04-05T10:30:42.000Z</time>
      </trkpt>
      <trkpt lat="47.13737" lon="-1.61721">
        <ele>63</ele>
        <time>2021-04-05T10:30:44.000Z</time>
      </trkpt>
      <trkpt lat="47.13746" lon="-1.61733">
        <ele>63</ele>
        <time>2021-04-05T10:30:47.000Z</time>
      </trkpt>
      <trkpt lat="47.13742" lon="-1.6175">
        <ele>63</ele>
        <time>2021-04-05T10:30:49.000Z</time>
      </trkpt>
      <trkpt lat="47.13739" lon="-1.61765">
        <ele>62</ele>
        <time>2021-04-05T10:30:51.000Z</time>
      </trkpt>
      <trkpt lat="47.13735" lon="-1.61781">
        <ele>61</ele>
        <time>2021-04-05T10:30:53.000Z</time>
      </trkpt>
      <trkpt lat="47.13733" lon="-1.61797">
        <ele>61</ele>
        <time>2021-04-05T10:30:55.000Z</time>
      </trkpt>
      <trkpt lat="47.1373" lon="-1.61814">
        <ele>60</ele>
        <time>2021-04-05T10:30:57.000Z</time>
      </trkpt>
      <trkpt lat="47.13728" lon="-1.6183">
        <ele>60</ele>
        <time>2021-04-05T10:30:59.000Z</time>
      </trkpt>
      <trkpt lat="47.13727" lon="-1.61846">
        <ele>60</ele>
        <time>2021-04-05T10:31:01.000Z</time>
      </trkpt>
      <trkpt lat="47.13726" lon="-1.61862">
        <ele>60</ele>
        <time>2021-04-05T10:31:03.000Z</time>
      </trkpt>
      <trkpt lat="47.13725" lon="-1.61878">
        <ele>60</ele>
        <time>2021-04-05T10:31:05.000Z</time>
      </trkpt>
      <trkpt lat="47.13724" lon="-1.61894">
        <ele>60</ele>
        <time>2021-04-05T10:31:07.000Z</time>
      </trkpt>
      <trkpt lat="47.13724" lon="-1.61908">
        <ele>60</ele>
        <time>2021-04-05T10:31:09.000Z</time>
      </trkpt>
      <trkpt lat="47.13723" lon="-1.61924">
        <ele>59</ele>
        <time>2021-04-05T10:31:11.000Z</time>
      </trkpt>
      <trkpt lat="47.13723" lon="-1.6194">
        <ele>60</ele>
        <time>2021-04-05T10:31:13.000Z</time>
      </trkpt>
      <trkpt lat="47.13726" lon="-1.61955">
        <ele>59</ele>
        <time>2021-04-05T10:31:15.000Z</time>
      </trkpt>
      <trkpt lat="47.13728" lon="-1.61971">
        <ele>58</ele>
        <time>2021-04-05T10:31:17.000Z</time>
      </trkpt>
      <trkpt lat="47.13731" lon="-1.61986">
        <ele>59</ele>
        <time>2021-04-05T10:31:19.000Z</time>
      </trkpt>
      <trkpt lat="47.13734" lon="-1.62001">
        <ele>59</ele>
        <time>2021-04-05T10:31:21.000Z</time>
      </trkpt>
      <trkpt lat="47.13737" lon="-1.62016">
        <ele>59</ele>
        <time>2021-04-05T10:31:23.000Z</time>
      </trkpt>
      <trkpt lat="47.13739" lon="-1.62031">
        <ele>59</ele>
        <time>2021-04-05T10:31:25.000Z</time>
      </trkpt>
      <trkpt lat="47.1374" lon="-1.62046">
        <ele>59</ele>
        <time>2021-04-05T10:31:27.000Z</time>
      </trkpt>
      <trkpt lat="47.13741" lon="-1.62063">
        <ele>58</ele>
        <time>2021-04-05T10:31:29.000Z</time>
      </trkpt>
      <trkpt lat="47.13743" lon="-1.62079">
        <ele>58</ele>
        <time>2021-04-05T10:31:31.000Z</time>
      </trkpt>
      <trkpt lat="47.13745" lon="-1.62095">
        <ele>57</ele>
        <time>2021-04-05T10:31:33.000Z</time>
      </trkpt>
      <trkpt lat="47.13746" lon="-1.62112">
        <ele>58</ele>
        <time>2021-04-05T10:31:35.000Z</time>
      </trkpt>
      <trkpt lat="47.13747" lon="-1.62129">
        <ele>59</ele>
        <time>2021-04-05T10:31:37.000Z</time>
      </trkpt>
      <trkpt lat="47.13748" lon="-1.62146">
        <ele>60</ele>
        <time>2021-04-05T10:31:39.000Z</time>
      </trkpt>
      <trkpt lat="47.1375" lon="-1.62162">
        <ele>60</ele>
        <time>2021-04-05T10:31:41.000Z</time>
      </trkpt>
      <trkpt lat="47.13752" lon="-1.62178">
        <ele>60</ele>
        <time>2021-04-05T10:31:43.000Z</time>
      </trkpt>
      <trkpt lat="47.13754" lon="-1.62194">
        <ele>61</ele>
        <time>2021-04-05T10:31:45.000Z</time>
      </trkpt>
      <trkpt lat="47.13756" lon="-1.6221">
        <ele>60</ele>
        <time>2021-04-05T10:31:47.000Z</time>
      </trkpt>
      <trkpt lat="47.13758" lon="-1.62225">
        <ele>60</ele>
        <time>2021-04-05T10:31:49.000Z</time>
      </trkpt>
      <trkpt lat="47.13759" lon="-1.6224">
        <ele>60</ele>
        <time>2021-04-05T10:31:51.000Z</time>
      </trkpt>
      <trkpt lat="47.13761" lon="-1.62256">
        <ele>60</ele>
        <time>2021-04-05T10:31:53.000Z</time>
      </trkpt>
      <trkpt lat="47.13763" lon="-1.62272">
        <ele>60</ele>
        <time>2021-04-05T10:31:55.000Z</time>
      </trkpt>
      <trkpt lat="47.13765" lon="-1.62288">
        <ele>60</ele>
        <time>2021-04-05T10:31:57.000Z</time>
      </trkpt>
      <trkpt lat="47.13766" lon="-1.62304">
        <ele>61</ele>
        <time>2021-04-05T10:31:59.000Z</time>
      </trkpt>
      <trkpt lat="47.13767" lon="-1.6232">
        <ele>61</ele>
        <time>2021-04-05T10:32:01.000Z</time>
      </trkpt>
      <trkpt lat="47.13766" lon="-1.62337">
        <ele>60</ele>
        <time>2021-04-05T10:32:03.000Z</time>
      </trkpt>
      <trkpt lat="47.13765" lon="-1.62353">
        <ele>60</ele>
        <time>2021-04-05T10:32:05.000Z</time>
      </trkpt>
      <trkpt lat="47.13764" lon="-1.6237">
        <ele>60</ele>
        <time>2021-04-05T10:32:07.000Z</time>
      </trkpt>
      <trkpt lat="47.13765" lon="-1.62387">
        <ele>60</ele>
        <time>2021-04-05T10:32:09.000Z</time>
      </trkpt>
      <trkpt lat="47.13766" lon="-1.62406">
        <ele>59</ele>
        <time>2021-04-05T10:32:11.000Z</time>
      </trkpt>
      <trkpt lat="47.13768" lon="-1.62425">
        <ele>58</ele>
        <time>2021-04-05T10:32:13.000Z</time>
      </trkpt>
      <trkpt lat="47.13771" lon="-1.62444">
        <ele>58</ele>
        <time>2021-04-05T10:32:15.000Z</time>
      </trkpt>
      <trkpt lat="47.13775" lon="-1.62465">
        <ele>56</ele>
        <time>2021-04-05T10:32:17.000Z</time>
      </trkpt>
      <trkpt lat="47.13778" lon="-1.62485">
        <ele>55</ele>
        <time>2021-04-05T10:32:19.000Z</time>
      </trkpt>
      <trkpt lat="47.13781" lon="-1.62502">
        <ele>55</ele>
        <time>2021-04-05T10:32:21.000Z</time>
      </trkpt>
      <trkpt lat="47.13781" lon="-1.62521">
        <ele>55</ele>
        <time>2021-04-05T10:32:23.000Z</time>
      </trkpt>
      <trkpt lat="47.13781" lon="-1.62538">
        <ele>55</ele>
        <time>2021-04-05T10:32:25.000Z</time>
      </trkpt>
      <trkpt lat="47.13781" lon="-1.62555">
        <ele>55</ele>
        <time>2021-04-05T10:32:27.000Z</time>
      </trkpt>
      <trkpt lat="47.13781" lon="-1.62572">
        <ele>55</ele>
        <time>2021-04-05T10:32:29.000Z</time>
      </trkpt>
      <trkpt lat="47.13782" lon="-1.62588">
        <ele>55</ele>
        <time>2021-04-05T10:32:31.000Z</time>
      </trkpt>
      <trkpt lat="47.13783" lon="-1.62604">
        <ele>55</ele>
        <time>2021-04-05T10:32:33.000Z</time>
      </trkpt>
      <trkpt lat="47.13785" lon="-1.6262">
        <ele>55</ele>
        <time>2021-04-05T10:32:35.000Z</time>
      </trkpt>
      <trkpt lat="47.13786" lon="-1.62635">
        <ele>55</ele>
        <time>2021-04-05T10:32:37.000Z</time>
      </trkpt>
      <trkpt lat="47.13787" lon="-1.62649">
        <ele>55</ele>
        <time>2021-04-05T10:32:39.000Z</time>
      </trkpt>
      <trkpt lat="47.13788" lon="-1.62664">
        <ele>54</ele>
        <time>2021-04-05T10:32:41.000Z</time>
      </trkpt>
      <trkpt lat="47.13788" lon="-1.62679">
        <ele>54</ele>
        <time>2021-04-05T10:32:43.000Z</time>
      </trkpt>
      <trkpt lat="47.13788" lon="-1.62693">
        <ele>54</ele>
        <time>2021-04-05T10:32:45.000Z</time>
      </trkpt>
      <trkpt lat="47.13786" lon="-1.62708">
        <ele>54</ele>
        <time>2021-04-05T10:32:47.000Z</time>
      </trkpt>
      <trkpt lat="47.13784" lon="-1.62724">
        <ele>55</ele>
        <time>2021-04-05T10:32:49.000Z</time>
      </trkpt>
      <trkpt lat="47.13783" lon="-1.62739">
        <ele>56</ele>
        <time>2021-04-05T10:32:51.000Z</time>
      </trkpt>
      <trkpt lat="47.13784" lon="-1.62753">
        <ele>57</ele>
        <time>2021-04-05T10:32:53.000Z</time>
      </trkpt>
      <trkpt lat="47.13785" lon="-1.62768">
        <ele>57</ele>
        <time>2021-04-05T10:32:55.000Z</time>
      </trkpt>
      <trkpt lat="47.13787" lon="-1.62783">
        <ele>57</ele>
        <time>2021-04-05T10:32:57.000Z</time>
      </trkpt>
      <trkpt lat="47.13791" lon="-1.62797">
        <ele>58</ele>
        <time>2021-04-05T10:32:59.000Z</time>
      </trkpt>
      <trkpt lat="47.13796" lon="-1.62812">
        <ele>59</ele>
        <time>2021-04-05T10:33:01.000Z</time>
      </trkpt>
      <trkpt lat="47.138" lon="-1.62824">
        <ele>59</ele>
        <time>2021-04-05T10:33:03.000Z</time>
      </trkpt>
      <trkpt lat="47.13806" lon="-1.62836">
        <ele>61</ele>
        <time>2021-04-05T10:33:05.000Z</time>
      </trkpt>
      <trkpt lat="47.1381" lon="-1.62849">
        <ele>61</ele>
        <time>2021-04-05T10:33:07.000Z</time>
      </trkpt>
      <trkpt lat="47.13815" lon="-1.62861">
        <ele>61</ele>
        <time>2021-04-05T10:33:09.000Z</time>
      </trkpt>
      <trkpt lat="47.13819" lon="-1.62874">
        <ele>62</ele>
        <time>2021-04-05T10:33:11.000Z</time>
      </trkpt>
      <trkpt lat="47.13823" lon="-1.62887">
        <ele>62</ele>
        <time>2021-04-05T10:33:13.000Z</time>
      </trkpt>
      <trkpt lat="47.13825" lon="-1.62901">
        <ele>62</ele>
        <time>2021-04-05T10:33:15.000Z</time>
      </trkpt>
      <trkpt lat="47.13825" lon="-1.62915">
        <ele>61</ele>
        <time>2021-04-05T10:33:17.000Z</time>
      </trkpt>
      <trkpt lat="47.13824" lon="-1.62929">
        <ele>61</ele>
        <time>2021-04-05T10:33:19.000Z</time>
      </trkpt>
      <trkpt lat="47.13822" lon="-1.62943">
        <ele>60</ele>
        <time>2021-04-05T10:33:21.000Z</time>
      </trkpt>
      <trkpt lat="47.13821" lon="-1.62958">
        <ele>60</ele>
        <time>2021-04-05T10:33:23.000Z</time>
      </trkpt>
      <trkpt lat="47.13819" lon="-1.62973">
        <ele>59</ele>
        <time>2021-04-05T10:33:25.000Z</time>
      </trkpt>
      <trkpt lat="47.13818" lon="-1.62987">
        <ele>58</ele>
        <time>2021-04-05T10:33:27.000Z</time>
      </trkpt>
      <trkpt lat="47.13817" lon="-1.63003">
        <ele>57</ele>
        <time>2021-04-05T10:33:29.000Z</time>
      </trkpt>
      <trkpt lat="47.13818" lon="-1.6302">
        <ele>56</ele>
        <time>2021-04-05T10:33:31.000Z</time>
      </trkpt>
      <trkpt lat="47.13818" lon="-1.63037">
        <ele>56</ele>
        <time>2021-04-05T10:33:33.000Z</time>
      </trkpt>
      <trkpt lat="47.13821" lon="-1.63053">
        <ele>56</ele>
        <time>2021-04-05T10:33:35.000Z</time>
      </trkpt>
      <trkpt lat="47.1383" lon="-1.6306">
        <ele>56</ele>
        <time>2021-04-05T10:33:37.000Z</time>
      </trkpt>
      <trkpt lat="47.13842" lon="-1.63058">
        <ele>56</ele>
        <time>2021-04-05T10:33:39.000Z</time>
      </trkpt>
      <trkpt lat="47.13853" lon="-1.63056">
        <ele>58</ele>
        <time>2021-04-05T10:33:41.000Z</time>
      </trkpt>
      <trkpt lat="47.13865" lon="-1.63054">
        <ele>59</ele>
        <time>2021-04-05T10:33:43.000Z</time>
      </trkpt>
      <trkpt lat="47.13877" lon="-1.63052">
        <ele>60</ele>
        <time>2021-04-05T10:33:45.000Z</time>
      </trkpt>
      <trkpt lat="47.13889" lon="-1.63049">
        <ele>60</ele>
        <time>2021-04-05T10:33:47.000Z</time>
      </trkpt>
      <trkpt lat="47.139" lon="-1.63047">
        <ele>60</ele>
        <time>2021-04-05T10:33:49.000Z</time>
      </trkpt>
      <trkpt lat="47.13911" lon="-1.63043">
        <ele>60</ele>
        <time>2021-04-05T10:33:51.000Z</time>
      </trkpt>
      <trkpt lat="47.13922" lon="-1.63039">
        <ele>61</ele>
        <time>2021-04-05T10:33:53.000Z</time>
      </trkpt>
      <trkpt lat="47.13933" lon="-1.63034">
        <ele>61</ele>
        <time>2021-04-05T10:33:55.000Z</time>
      </trkpt>
      <trkpt lat="47.13943" lon="-1.63028">
        <ele>61</ele>
        <time>2021-04-05T10:33:57.000Z</time>
      </trkpt>
      <trkpt lat="47.13953" lon="-1.63023">
        <ele>61</ele>
        <time>2021-04-05T10:33:59.000Z</time>
      </trkpt>
      <trkpt lat="47.13963" lon="-1.63017">
        <ele>61</ele>
        <time>2021-04-05T10:34:01.000Z</time>
      </trkpt>
      <trkpt lat="47.13974" lon="-1.63012">
        <ele>61</ele>
        <time>2021-04-05T10:34:03.000Z</time>
      </trkpt>
      <trkpt lat="47.13984" lon="-1.63005">
        <ele>61</ele>
        <time>2021-04-05T10:34:05.000Z</time>
      </trkpt>
      <trkpt lat="47.13994" lon="-1.62999">
        <ele>61</ele>
        <time>2021-04-05T10:34:07.000Z</time>
      </trkpt>
      <trkpt lat="47.14004" lon="-1.62993">
        <ele>62</ele>
        <time>2021-04-05T10:34:09.000Z</time>
      </trkpt>
      <trkpt lat="47.14014" lon="-1.62988">
        <ele>62</ele>
        <time>2021-04-05T10:34:11.000Z</time>
      </trkpt>
      <trkpt lat="47.14024" lon="-1.62984">
        <ele>63</ele>
        <time>2021-04-05T10:34:13.000Z</time>
      </trkpt>
      <trkpt lat="47.14034" lon="-1.62981">
        <ele>64</ele>
        <time>2021-04-05T10:34:15.000Z</time>
      </trkpt>
      <trkpt lat="47.14045" lon="-1.62978">
        <ele>64</ele>
        <time>2021-04-05T10:34:17.000Z</time>
      </trkpt>
      <trkpt lat="47.14055" lon="-1.62976">
        <ele>64</ele>
        <time>2021-04-05T10:34:19.000Z</time>
      </trkpt>
      <trkpt lat="47.14065" lon="-1.62975">
        <ele>64</ele>
        <time>2021-04-05T10:34:21.000Z</time>
      </trkpt>
      <trkpt lat="47.14075" lon="-1.62974">
        <ele>64</ele>
        <time>2021-04-05T10:34:23.000Z</time>
      </trkpt>
      <trkpt lat="47.14085" lon="-1.62975">
        <ele>64</ele>
        <time>2021-04-05T10:34:25.000Z</time>
      </trkpt>
      <trkpt lat="47.14095" lon="-1.62976">
        <ele>65</ele>
        <time>2021-04-05T10:34:27.000Z</time>
      </trkpt>
      <trkpt lat="47.14105" lon="-1.62978">
        <ele>65</ele>
        <time>2021-04-05T10:34:29.000Z</time>
      </trkpt>
      <trkpt lat="47.14116" lon="-1.62981">
        <ele>65</ele>
        <time>2021-04-05T10:34:31.000Z</time>
      </trkpt>
      <trkpt lat="47.14126" lon="-1.62984">
        <ele>66</ele>
        <time>2021-04-05T10:34:33.000Z</time>
      </trkpt>
      <trkpt lat="47.14136" lon="-1.62988">
        <ele>66</ele>
        <time>2021-04-05T10:34:35.000Z</time>
      </trkpt>
      <trkpt lat="47.14146" lon="-1.62992">
        <ele>66</ele>
        <time>2021-04-05T10:34:37.000Z</time>
      </trkpt>
      <trkpt lat="47.14156" lon="-1.62996">
        <ele>66</ele>
        <time>2021-04-05T10:34:39.000Z</time>
      </trkpt>
      <trkpt lat="47.14166" lon="-1.63001">
        <ele>66</ele>
        <time>2021-04-05T10:34:41.000Z</time>
      </trkpt>
      <trkpt lat="47.14175" lon="-1.63005">
        <ele>66</ele>
        <time>2021-04-05T10:34:43.000Z</time>
      </trkpt>
      <trkpt lat="47.14185" lon="-1.63009">
        <ele>66</ele>
        <time>2021-04-05T10:34:45.000Z</time>
      </trkpt>
      <trkpt lat="47.14195" lon="-1.63014">
        <ele>66</ele>
        <time>2021-04-05T10:34:47.000Z</time>
      </trkpt>
      <trkpt lat="47.14204" lon="-1.63018">
        <ele>67</ele>
        <time>2021-04-05T10:34:49.000Z</time>
      </trkpt>
      <trkpt lat="47.14214" lon="-1.63024">
        <ele>67</ele>
        <time>2021-04-05T10:34:51.000Z</time>
      </trkpt>
      <trkpt lat="47.14224" lon="-1.63027">
        <ele>66</ele>
        <time>2021-04-05T10:34:53.000Z</time>
      </trkpt>
      <trkpt lat="47.14235" lon="-1.63033">
        <ele>66</ele>
        <time>2021-04-05T10:34:55.000Z</time>
      </trkpt>
      <trkpt lat="47.14245" lon="-1.63039">
        <ele>65</ele>
        <time>2021-04-05T10:34:57.000Z</time>
      </trkpt>
      <trkpt lat="47.14255" lon="-1.63043">
        <ele>65</ele>
        <time>2021-04-05T10:34:59.000Z</time>
      </trkpt>
      <trkpt lat="47.14264" lon="-1.63048">
        <ele>66</ele>
        <time>2021-04-05T10:35:01.000Z</time>
      </trkpt>
      <trkpt lat="47.14273" lon="-1.63053">
        <ele>66</ele>
        <time>2021-04-05T10:35:03.000Z</time>
      </trkpt>
      <trkpt lat="47.14286" lon="-1.63059">
        <ele>66</ele>
        <time>2021-04-05T10:35:06.000Z</time>
      </trkpt>
      <trkpt lat="47.14298" lon="-1.63066">
        <ele>68</ele>
        <time>2021-04-05T10:35:09.000Z</time>
      </trkpt>
      <trkpt lat="47.14308" lon="-1.63071">
        <ele>68</ele>
        <time>2021-04-05T10:35:11.000Z</time>
      </trkpt>
      <trkpt lat="47.14317" lon="-1.63076">
        <ele>67</ele>
        <time>2021-04-05T10:35:13.000Z</time>
      </trkpt>
      <trkpt lat="47.14327" lon="-1.63081">
        <ele>67</ele>
        <time>2021-04-05T10:35:15.000Z</time>
      </trkpt>
      <trkpt lat="47.1434" lon="-1.63089">
        <ele>68</ele>
        <time>2021-04-05T10:35:18.000Z</time>
      </trkpt>
      <trkpt lat="47.1435" lon="-1.63094">
        <ele>68</ele>
        <time>2021-04-05T10:35:20.000Z</time>
      </trkpt>
      <trkpt lat="47.14361" lon="-1.63098">
        <ele>68</ele>
        <time>2021-04-05T10:35:22.000Z</time>
      </trkpt>
      <trkpt lat="47.14371" lon="-1.63103">
        <ele>68</ele>
        <time>2021-04-05T10:35:24.000Z</time>
      </trkpt>
      <trkpt lat="47.14382" lon="-1.63108">
        <ele>68</ele>
        <time>2021-04-05T10:35:26.000Z</time>
      </trkpt>
      <trkpt lat="47.14393" lon="-1.63114">
        <ele>67</ele>
        <time>2021-04-05T10:35:28.000Z</time>
      </trkpt>
      <trkpt lat="47.14404" lon="-1.6312">
        <ele>67</ele>
        <time>2021-04-05T10:35:30.000Z</time>
      </trkpt>
      <trkpt lat="47.14415" lon="-1.63126">
        <ele>67</ele>
        <time>2021-04-05T10:35:32.000Z</time>
      </trkpt>
      <trkpt lat="47.14426" lon="-1.63132">
        <ele>67</ele>
        <time>2021-04-05T10:35:34.000Z</time>
      </trkpt>
      <trkpt lat="47.14436" lon="-1.63138">
        <ele>67</ele>
        <time>2021-04-05T10:35:36.000Z</time>
      </trkpt>
      <trkpt lat="47.14447" lon="-1.63143">
        <ele>67</ele>
        <time>2021-04-05T10:35:38.000Z</time>
      </trkpt>
      <trkpt lat="47.14457" lon="-1.63145">
        <ele>68</ele>
        <time>2021-04-05T10:35:40.000Z</time>
      </trkpt>
      <trkpt lat="47.14468" lon="-1.63146">
        <ele>68</ele>
        <time>2021-04-05T10:35:42.000Z</time>
      </trkpt>
      <trkpt lat="47.14478" lon="-1.63146">
        <ele>68</ele>
        <time>2021-04-05T10:35:44.000Z</time>
      </trkpt>
      <trkpt lat="47.14489" lon="-1.63146">
        <ele>68</ele>
        <time>2021-04-05T10:35:46.000Z</time>
      </trkpt>
      <trkpt lat="47.145" lon="-1.63146">
        <ele>68</ele>
        <time>2021-04-05T10:35:48.000Z</time>
      </trkpt>
      <trkpt lat="47.14512" lon="-1.63147">
        <ele>68</ele>
        <time>2021-04-05T10:35:50.000Z</time>
      </trkpt>
      <trkpt lat="47.14523" lon="-1.63147">
        <ele>68</ele>
        <time>2021-04-05T10:35:52.000Z</time>
      </trkpt>
      <trkpt lat="47.14533" lon="-1.63146">
        <ele>68</ele>
        <time>2021-04-05T10:35:54.000Z</time>
      </trkpt>
      <trkpt lat="47.14543" lon="-1.63146">
        <ele>68</ele>
        <time>2021-04-05T10:35:56.000Z</time>
      </trkpt>
      <trkpt lat="47.14553" lon="-1.63144">
        <ele>68</ele>
        <time>2021-04-05T10:35:58.000Z</time>
      </trkpt>
      <trkpt lat="47.14564" lon="-1.6314">
        <ele>68</ele>
        <time>2021-04-05T10:36:00.000Z</time>
      </trkpt>
      <trkpt lat="47.14574" lon="-1.63136">
        <ele>69</ele>
        <time>2021-04-05T10:36:02.000Z</time>
      </trkpt>
      <trkpt lat="47.14584" lon="-1.6313">
        <ele>68</ele>
        <time>2021-04-05T10:36:04.000Z</time>
      </trkpt>
      <trkpt lat="47.14593" lon="-1.63124">
        <ele>69</ele>
        <time>2021-04-05T10:36:06.000Z</time>
      </trkpt>
      <trkpt lat="47.14603" lon="-1.63118">
        <ele>69</ele>
        <time>2021-04-05T10:36:08.000Z</time>
      </trkpt>
      <trkpt lat="47.14612" lon="-1.63112">
        <ele>69</ele>
        <time>2021-04-05T10:36:10.000Z</time>
      </trkpt>
      <trkpt lat="47.14621" lon="-1.63106">
        <ele>70</ele>
        <time>2021-04-05T10:36:12.000Z</time>
      </trkpt>
      <trkpt lat="47.1463" lon="-1.63101">
        <ele>70</ele>
        <time>2021-04-05T10:36:14.000Z</time>
      </trkpt>
      <trkpt lat="47.14639" lon="-1.63095">
        <ele>70</ele>
        <time>2021-04-05T10:36:16.000Z</time>
      </trkpt>
      <trkpt lat="47.14649" lon="-1.63089">
        <ele>70</ele>
        <time>2021-04-05T10:36:18.000Z</time>
      </trkpt>
      <trkpt lat="47.14659" lon="-1.63084">
        <ele>70</ele>
        <time>2021-04-05T10:36:20.000Z</time>
      </trkpt>
      <trkpt lat="47.14668" lon="-1.63079">
        <ele>70</ele>
        <time>2021-04-05T10:36:22.000Z</time>
      </trkpt>
      <trkpt lat="47.14678" lon="-1.63076">
        <ele>70</ele>
        <time>2021-04-05T10:36:24.000Z</time>
      </trkpt>
      <trkpt lat="47.14688" lon="-1.63073">
        <ele>70</ele>
        <time>2021-04-05T10:36:26.000Z</time>
      </trkpt>
      <trkpt lat="47.14698" lon="-1.63071">
        <ele>70</ele>
        <time>2021-04-05T10:36:28.000Z</time>
      </trkpt>
      <trkpt lat="47.14708" lon="-1.6307">
        <ele>70</ele>
        <time>2021-04-05T10:36:30.000Z</time>
      </trkpt>
      <trkpt lat="47.14718" lon="-1.63069">
        <ele>70</ele>
        <time>2021-04-05T10:36:32.000Z</time>
      </trkpt>
      <trkpt lat="47.14728" lon="-1.63069">
        <ele>70</ele>
        <time>2021-04-05T10:36:34.000Z</time>
      </trkpt>
      <trkpt lat="47.14737" lon="-1.63069">
        <ele>71</ele>
        <time>2021-04-05T10:36:36.000Z</time>
      </trkpt>
      <trkpt lat="47.14747" lon="-1.63069">
        <ele>70</ele>
        <time>2021-04-05T10:36:38.000Z</time>
      </trkpt>
      <trkpt lat="47.14758" lon="-1.63068">
        <ele>70</ele>
        <time>2021-04-05T10:36:40.000Z</time>
      </trkpt>
      <trkpt lat="47.14768" lon="-1.63067">
        <ele>70</ele>
        <time>2021-04-05T10:36:42.000Z</time>
      </trkpt>
      <trkpt lat="47.14779" lon="-1.63066">
        <ele>70</ele>
        <time>2021-04-05T10:36:44.000Z</time>
      </trkpt>
      <trkpt lat="47.1479" lon="-1.63065">
        <ele>71</ele>
        <time>2021-04-05T10:36:46.000Z</time>
      </trkpt>
      <trkpt lat="47.148" lon="-1.63064">
        <ele>71</ele>
        <time>2021-04-05T10:36:48.000Z</time>
      </trkpt>
      <trkpt lat="47.1481" lon="-1.63062">
        <ele>72</ele>
        <time>2021-04-05T10:36:50.000Z</time>
      </trkpt>
      <trkpt lat="47.1482" lon="-1.63061">
        <ele>72</ele>
        <time>2021-04-05T10:36:52.000Z</time>
      </trkpt>
      <trkpt lat="47.1483" lon="-1.6306">
        <ele>73</ele>
        <time>2021-04-05T10:36:54.000Z</time>
      </trkpt>
      <trkpt lat="47.14841" lon="-1.6306">
        <ele>74</ele>
        <time>2021-04-05T10:36:56.000Z</time>
      </trkpt>
      <trkpt lat="47.14851" lon="-1.63059">
        <ele>74</ele>
        <time>2021-04-05T10:36:58.000Z</time>
      </trkpt>
      <trkpt lat="47.14861" lon="-1.63059">
        <ele>74</ele>
        <time>2021-04-05T10:37:00.000Z</time>
      </trkpt>
      <trkpt lat="47.14873" lon="-1.63059">
        <ele>74</ele>
        <time>2021-04-05T10:37:03.000Z</time>
      </trkpt>
      <trkpt lat="47.14884" lon="-1.63063">
        <ele>74</ele>
        <time>2021-04-05T10:37:06.000Z</time>
      </trkpt>
      <trkpt lat="47.14888" lon="-1.63081">
        <ele>72</ele>
        <time>2021-04-05T10:37:09.000Z</time>
      </trkpt>
      <trkpt lat="47.14889" lon="-1.63098">
        <ele>71</ele>
        <time>2021-04-05T10:37:11.000Z</time>
      </trkpt>
      <trkpt lat="47.14887" lon="-1.63114">
        <ele>70</ele>
        <time>2021-04-05T10:37:13.000Z</time>
      </trkpt>
      <trkpt lat="47.14885" lon="-1.63132">
        <ele>69</ele>
        <time>2021-04-05T10:37:15.000Z</time>
      </trkpt>
      <trkpt lat="47.14882" lon="-1.63149">
        <ele>68</ele>
        <time>2021-04-05T10:37:17.000Z</time>
      </trkpt>
      <trkpt lat="47.14881" lon="-1.63165">
        <ele>67</ele>
        <time>2021-04-05T10:37:19.000Z</time>
      </trkpt>
      <trkpt lat="47.1488" lon="-1.63181">
        <ele>66</ele>
        <time>2021-04-05T10:37:21.000Z</time>
      </trkpt>
      <trkpt lat="47.14879" lon="-1.63197">
        <ele>66</ele>
        <time>2021-04-05T10:37:23.000Z</time>
      </trkpt>
      <trkpt lat="47.14879" lon="-1.63213">
        <ele>66</ele>
        <time>2021-04-05T10:37:25.000Z</time>
      </trkpt>
      <trkpt lat="47.1488" lon="-1.63229">
        <ele>66</ele>
        <time>2021-04-05T10:37:27.000Z</time>
      </trkpt>
      <trkpt lat="47.1488" lon="-1.63244">
        <ele>67</ele>
        <time>2021-04-05T10:37:29.000Z</time>
      </trkpt>
      <trkpt lat="47.1488" lon="-1.63259">
        <ele>66</ele>
        <time>2021-04-05T10:37:31.000Z</time>
      </trkpt>
      <trkpt lat="47.1488" lon="-1.63275">
        <ele>67</ele>
        <time>2021-04-05T10:37:33.000Z</time>
      </trkpt>
      <trkpt lat="47.1488" lon="-1.6329">
        <ele>66</ele>
        <time>2021-04-05T10:37:35.000Z</time>
      </trkpt>
      <trkpt lat="47.14881" lon="-1.63306">
        <ele>66</ele>
        <time>2021-04-05T10:37:37.000Z</time>
      </trkpt>
      <trkpt lat="47.14884" lon="-1.63322">
        <ele>67</ele>
        <time>2021-04-05T10:37:39.000Z</time>
      </trkpt>
      <trkpt lat="47.14885" lon="-1.63337">
        <ele>67</ele>
        <time>2021-04-05T10:37:41.000Z</time>
      </trkpt>
      <trkpt lat="47.14885" lon="-1.63352">
        <ele>66</ele>
        <time>2021-04-05T10:37:43.000Z</time>
      </trkpt>
      <trkpt lat="47.14884" lon="-1.63367">
        <ele>67</ele>
        <time>2021-04-05T10:37:45.000Z</time>
      </trkpt>
      <trkpt lat="47.14882" lon="-1.63384">
        <ele>68</ele>
        <time>2021-04-05T10:37:47.000Z</time>
      </trkpt>
      <trkpt lat="47.14881" lon="-1.63399">
        <ele>68</ele>
        <time>2021-04-05T10:37:49.000Z</time>
      </trkpt>
      <trkpt lat="47.14879" lon="-1.63414">
        <ele>68</ele>
        <time>2021-04-05T10:37:51.000Z</time>
      </trkpt>
      <trkpt lat="47.14878" lon="-1.63429">
        <ele>68</ele>
        <time>2021-04-05T10:37:53.000Z</time>
      </trkpt>
      <trkpt lat="47.14878" lon="-1.63444">
        <ele>68</ele>
        <time>2021-04-05T10:37:55.000Z</time>
      </trkpt>
      <trkpt lat="47.14877" lon="-1.6346">
        <ele>68</ele>
        <time>2021-04-05T10:37:57.000Z</time>
      </trkpt>
      <trkpt lat="47.14877" lon="-1.63476">
        <ele>68</ele>
        <time>2021-04-05T10:37:59.000Z</time>
      </trkpt>
      <trkpt lat="47.14877" lon="-1.63491">
        <ele>67</ele>
        <time>2021-04-05T10:38:01.000Z</time>
      </trkpt>
      <trkpt lat="47.14876" lon="-1.63506">
        <ele>68</ele>
        <time>2021-04-05T10:38:03.000Z</time>
      </trkpt>
      <trkpt lat="47.14876" lon="-1.63522">
        <ele>68</ele>
        <time>2021-04-05T10:38:05.000Z</time>
      </trkpt>
      <trkpt lat="47.14875" lon="-1.63538">
        <ele>68</ele>
        <time>2021-04-05T10:38:07.000Z</time>
      </trkpt>
      <trkpt lat="47.14874" lon="-1.63553">
        <ele>68</ele>
        <time>2021-04-05T10:38:09.000Z</time>
      </trkpt>
      <trkpt lat="47.14874" lon="-1.63568">
        <ele>68</ele>
        <time>2021-04-05T10:38:11.000Z</time>
      </trkpt>
      <trkpt lat="47.14875" lon="-1.63583">
        <ele>68</ele>
        <time>2021-04-05T10:38:13.000Z</time>
      </trkpt>
      <trkpt lat="47.14876" lon="-1.63598">
        <ele>68</ele>
        <time>2021-04-05T10:38:15.000Z</time>
      </trkpt>
      <trkpt lat="47.14877" lon="-1.63614">
        <ele>67</ele>
        <time>2021-04-05T10:38:17.000Z</time>
      </trkpt>
      <trkpt lat="47.14876" lon="-1.63629">
        <ele>67</ele>
        <time>2021-04-05T10:38:19.000Z</time>
      </trkpt>
      <trkpt lat="47.14876" lon="-1.63644">
        <ele>67</ele>
        <time>2021-04-05T10:38:21.000Z</time>
      </trkpt>
      <trkpt lat="47.14876" lon="-1.63659">
        <ele>67</ele>
        <time>2021-04-05T10:38:23.000Z</time>
      </trkpt>
      <trkpt lat="47.14875" lon="-1.63675">
        <ele>68</ele>
        <time>2021-04-05T10:38:25.000Z</time>
      </trkpt>
      <trkpt lat="47.14874" lon="-1.63691">
        <ele>69</ele>
        <time>2021-04-05T10:38:27.000Z</time>
      </trkpt>
      <trkpt lat="47.14874" lon="-1.63707">
        <ele>68</ele>
        <time>2021-04-05T10:38:29.000Z</time>
      </trkpt>
      <trkpt lat="47.14873" lon="-1.63723">
        <ele>68</ele>
        <time>2021-04-05T10:38:31.000Z</time>
      </trkpt>
      <trkpt lat="47.14873" lon="-1.63739">
        <ele>68</ele>
        <time>2021-04-05T10:38:33.000Z</time>
      </trkpt>
      <trkpt lat="47.14873" lon="-1.63754">
        <ele>68</ele>
        <time>2021-04-05T10:38:35.000Z</time>
      </trkpt>
      <trkpt lat="47.14874" lon="-1.63769">
        <ele>68</ele>
        <time>2021-04-05T10:38:37.000Z</time>
      </trkpt>
      <trkpt lat="47.14875" lon="-1.63784">
        <ele>67</ele>
        <time>2021-04-05T10:38:39.000Z</time>
      </trkpt>
      <trkpt lat="47.14876" lon="-1.63799">
        <ele>67</ele>
        <time>2021-04-05T10:38:41.000Z</time>
      </trkpt>
      <trkpt lat="47.14876" lon="-1.63814">
        <ele>67</ele>
        <time>2021-04-05T10:38:43.000Z</time>
      </trkpt>
      <trkpt lat="47.14875" lon="-1.63829">
        <ele>67</ele>
        <time>2021-04-05T10:38:45.000Z</time>
      </trkpt>
      <trkpt lat="47.14873" lon="-1.63846">
        <ele>67</ele>
        <time>2021-04-05T10:38:47.000Z</time>
      </trkpt>
      <trkpt lat="47.14871" lon="-1.63861">
        <ele>67</ele>
        <time>2021-04-05T10:38:49.000Z</time>
      </trkpt>
      <trkpt lat="47.1487" lon="-1.63875">
        <ele>67</ele>
        <time>2021-04-05T10:38:51.000Z</time>
      </trkpt>
      <trkpt lat="47.14868" lon="-1.6389">
        <ele>67</ele>
        <time>2021-04-05T10:38:53.000Z</time>
      </trkpt>
      <trkpt lat="47.14866" lon="-1.63905">
        <ele>68</ele>
        <time>2021-04-05T10:38:55.000Z</time>
      </trkpt>
      <trkpt lat="47.14864" lon="-1.6392">
        <ele>69</ele>
        <time>2021-04-05T10:38:57.000Z</time>
      </trkpt>
      <trkpt lat="47.14862" lon="-1.63935">
        <ele>69</ele>
        <time>2021-04-05T10:38:59.000Z</time>
      </trkpt>
      <trkpt lat="47.1486" lon="-1.63949">
        <ele>69</ele>
        <time>2021-04-05T10:39:01.000Z</time>
      </trkpt>
      <trkpt lat="47.14859" lon="-1.63962">
        <ele>69</ele>
        <time>2021-04-05T10:39:03.000Z</time>
      </trkpt>
      <trkpt lat="47.14861" lon="-1.63975">
        <ele>69</ele>
        <time>2021-04-05T10:39:05.000Z</time>
      </trkpt>
      <trkpt lat="47.1487" lon="-1.63992">
        <ele>70</ele>
        <time>2021-04-05T10:39:08.000Z</time>
      </trkpt>
      <trkpt lat="47.14877" lon="-1.64002">
        <ele>71</ele>
        <time>2021-04-05T10:39:10.000Z</time>
      </trkpt>
      <trkpt lat="47.14885" lon="-1.64011">
        <ele>72</ele>
        <time>2021-04-05T10:39:12.000Z</time>
      </trkpt>
      <trkpt lat="47.14894" lon="-1.64017">
        <ele>72</ele>
        <time>2021-04-05T10:39:14.000Z</time>
      </trkpt>
      <trkpt lat="47.14908" lon="-1.64013">
        <ele>71</ele>
        <time>2021-04-05T10:39:17.000Z</time>
      </trkpt>
      <trkpt lat="47.14915" lon="-1.64002">
        <ele>71</ele>
        <time>2021-04-05T10:39:19.000Z</time>
      </trkpt>
      <trkpt lat="47.14921" lon="-1.6399">
        <ele>72</ele>
        <time>2021-04-05T10:39:21.000Z</time>
      </trkpt>
      <trkpt lat="47.14929" lon="-1.63978">
        <ele>72</ele>
        <time>2021-04-05T10:39:23.000Z</time>
      </trkpt>
      <trkpt lat="47.14936" lon="-1.63966">
        <ele>72</ele>
        <time>2021-04-05T10:39:25.000Z</time>
      </trkpt>
      <trkpt lat="47.14943" lon="-1.63954">
        <ele>72</ele>
        <time>2021-04-05T10:39:27.000Z</time>
      </trkpt>
      <trkpt lat="47.14949" lon="-1.63942">
        <ele>72</ele>
        <time>2021-04-05T10:39:29.000Z</time>
      </trkpt>
      <trkpt lat="47.14956" lon="-1.6393">
        <ele>72</ele>
        <time>2021-04-05T10:39:31.000Z</time>
      </trkpt>
      <trkpt lat="47.14964" lon="-1.63918">
        <ele>72</ele>
        <time>2021-04-05T10:39:33.000Z</time>
      </trkpt>
      <trkpt lat="47.14972" lon="-1.63907">
        <ele>72</ele>
        <time>2021-04-05T10:39:35.000Z</time>
      </trkpt>
      <trkpt lat="47.1498" lon="-1.63896">
        <ele>72</ele>
        <time>2021-04-05T10:39:37.000Z</time>
      </trkpt>
      <trkpt lat="47.14988" lon="-1.63884">
        <ele>72</ele>
        <time>2021-04-05T10:39:39.000Z</time>
      </trkpt>
      <trkpt lat="47.14996" lon="-1.63873">
        <ele>72</ele>
        <time>2021-04-05T10:39:41.000Z</time>
      </trkpt>
      <trkpt lat="47.15003" lon="-1.63862">
        <ele>72</ele>
        <time>2021-04-05T10:39:43.000Z</time>
      </trkpt>
      <trkpt lat="47.15011" lon="-1.6385">
        <ele>72</ele>
        <time>2021-04-05T10:39:45.000Z</time>
      </trkpt>
      <trkpt lat="47.15019" lon="-1.63839">
        <ele>72</ele>
        <time>2021-04-05T10:39:47.000Z</time>
      </trkpt>
      <trkpt lat="47.15028" lon="-1.63828">
        <ele>72</ele>
        <time>2021-04-05T10:39:49.000Z</time>
      </trkpt>
      <trkpt lat="47.15036" lon="-1.63817">
        <ele>72</ele>
        <time>2021-04-05T10:39:51.000Z</time>
      </trkpt>
      <trkpt lat="47.15044" lon="-1.63806">
        <ele>72</ele>
        <time>2021-04-05T10:39:53.000Z</time>
      </trkpt>
      <trkpt lat="47.15053" lon="-1.63796">
        <ele>72</ele>
        <time>2021-04-05T10:39:55.000Z</time>
      </trkpt>
      <trkpt lat="47.15062" lon="-1.63786">
        <ele>72</ele>
        <time>2021-04-05T10:39:57.000Z</time>
      </trkpt>
      <trkpt lat="47.15071" lon="-1.63774">
        <ele>72</ele>
        <time>2021-04-05T10:39:59.000Z</time>
      </trkpt>
      <trkpt lat="47.1508" lon="-1.63763">
        <ele>72</ele>
        <time>2021-04-05T10:40:01.000Z</time>
      </trkpt>
      <trkpt lat="47.1509" lon="-1.63752">
        <ele>72</ele>
        <time>2021-04-05T10:40:03.000Z</time>
      </trkpt>
      <trkpt lat="47.15099" lon="-1.63741">
        <ele>72</ele>
        <time>2021-04-05T10:40:05.000Z</time>
      </trkpt>
      <trkpt lat="47.15108" lon="-1.63731">
        <ele>72</ele>
        <time>2021-04-05T10:40:07.000Z</time>
      </trkpt>
      <trkpt lat="47.15117" lon="-1.63721">
        <ele>72</ele>
        <time>2021-04-05T10:40:09.000Z</time>
      </trkpt>
      <trkpt lat="47.15126" lon="-1.6371">
        <ele>73</ele>
        <time>2021-04-05T10:40:11.000Z</time>
      </trkpt>
      <trkpt lat="47.15136" lon="-1.63701">
        <ele>73</ele>
        <time>2021-04-05T10:40:13.000Z</time>
      </trkpt>
      <trkpt lat="47.15146" lon="-1.63692">
        <ele>72</ele>
        <time>2021-04-05T10:40:15.000Z</time>
      </trkpt>
      <trkpt lat="47.15156" lon="-1.63682">
        <ele>72</ele>
        <time>2021-04-05T10:40:17.000Z</time>
      </trkpt>
      <trkpt lat="47.15166" lon="-1.63673">
        <ele>72</ele>
        <time>2021-04-05T10:40:19.000Z</time>
      </trkpt>
      <trkpt lat="47.15175" lon="-1.63664">
        <ele>72</ele>
        <time>2021-04-05T10:40:21.000Z</time>
      </trkpt>
      <trkpt lat="47.15185" lon="-1.63656">
        <ele>72</ele>
        <time>2021-04-05T10:40:23.000Z</time>
      </trkpt>
      <trkpt lat="47.15195" lon="-1.63647">
        <ele>72</ele>
        <time>2021-04-05T10:40:25.000Z</time>
      </trkpt>
      <trkpt lat="47.15205" lon="-1.63638">
        <ele>72</ele>
        <time>2021-04-05T10:40:27.000Z</time>
      </trkpt>
      <trkpt lat="47.15215" lon="-1.63629">
        <ele>72</ele>
        <time>2021-04-05T10:40:29.000Z</time>
      </trkpt>
      <trkpt lat="47.15225" lon="-1.63621">
        <ele>73</ele>
        <time>2021-04-05T10:40:31.000Z</time>
      </trkpt>
      <trkpt lat="47.15235" lon="-1.63612">
        <ele>73</ele>
        <time>2021-04-05T10:40:33.000Z</time>
      </trkpt>
      <trkpt lat="47.15244" lon="-1.63602">
        <ele>73</ele>
        <time>2021-04-05T10:40:35.000Z</time>
      </trkpt>
      <trkpt lat="47.15255" lon="-1.63593">
        <ele>73</ele>
        <time>2021-04-05T10:40:37.000Z</time>
      </trkpt>
      <trkpt lat="47.15265" lon="-1.63584">
        <ele>73</ele>
        <time>2021-04-05T10:40:39.000Z</time>
      </trkpt>
      <trkpt lat="47.15276" lon="-1.63574">
        <ele>73</ele>
        <time>2021-04-05T10:40:41.000Z</time>
      </trkpt>
      <trkpt lat="47.15286" lon="-1.63565">
        <ele>74</ele>
        <time>2021-04-05T10:40:43.000Z</time>
      </trkpt>
      <trkpt lat="47.15295" lon="-1.63556">
        <ele>74</ele>
        <time>2021-04-05T10:40:45.000Z</time>
      </trkpt>
      <trkpt lat="47.15305" lon="-1.63547">
        <ele>74</ele>
        <time>2021-04-05T10:40:47.000Z</time>
      </trkpt>
      <trkpt lat="47.15314" lon="-1.63538">
        <ele>74</ele>
        <time>2021-04-05T10:40:49.000Z</time>
      </trkpt>
      <trkpt lat="47.15324" lon="-1.63529">
        <ele>74</ele>
        <time>2021-04-05T10:40:51.000Z</time>
      </trkpt>
      <trkpt lat="47.15333" lon="-1.63521">
        <ele>74</ele>
        <time>2021-04-05T10:40:53.000Z</time>
      </trkpt>
      <trkpt lat="47.15343" lon="-1.63512">
        <ele>74</ele>
        <time>2021-04-05T10:40:55.000Z</time>
      </trkpt>
      <trkpt lat="47.15353" lon="-1.63503">
        <ele>74</ele>
        <time>2021-04-05T10:40:57.000Z</time>
      </trkpt>
      <trkpt lat="47.15363" lon="-1.63494">
        <ele>73</ele>
        <time>2021-04-05T10:40:59.000Z</time>
      </trkpt>
      <trkpt lat="47.15373" lon="-1.63486">
        <ele>74</ele>
        <time>2021-04-05T10:41:01.000Z</time>
      </trkpt>
      <trkpt lat="47.15384" lon="-1.63477">
        <ele>74</ele>
        <time>2021-04-05T10:41:03.000Z</time>
      </trkpt>
      <trkpt lat="47.15394" lon="-1.63468">
        <ele>74</ele>
        <time>2021-04-05T10:41:05.000Z</time>
      </trkpt>
      <trkpt lat="47.15404" lon="-1.63459">
        <ele>74</ele>
        <time>2021-04-05T10:41:07.000Z</time>
      </trkpt>
      <trkpt lat="47.15414" lon="-1.63451">
        <ele>74</ele>
        <time>2021-04-05T10:41:09.000Z</time>
      </trkpt>
      <trkpt lat="47.15424" lon="-1.63442">
        <ele>74</ele>
        <time>2021-04-05T10:41:11.000Z</time>
      </trkpt>
      <trkpt lat="47.15434" lon="-1.63433">
        <ele>74</ele>
        <time>2021-04-05T10:41:13.000Z</time>
      </trkpt>
      <trkpt lat="47.15444" lon="-1.63423">
        <ele>73</ele>
        <time>2021-04-05T10:41:15.000Z</time>
      </trkpt>
      <trkpt lat="47.15454" lon="-1.63412">
        <ele>73</ele>
        <time>2021-04-05T10:41:17.000Z</time>
      </trkpt>
      <trkpt lat="47.15464" lon="-1.63403">
        <ele>72</ele>
        <time>2021-04-05T10:41:19.000Z</time>
      </trkpt>
      <trkpt lat="47.15474" lon="-1.63394">
        <ele>72</ele>
        <time>2021-04-05T10:41:21.000Z</time>
      </trkpt>
      <trkpt lat="47.15485" lon="-1.63388">
        <ele>72</ele>
        <time>2021-04-05T10:41:23.000Z</time>
      </trkpt>
      <trkpt lat="47.15496" lon="-1.63381">
        <ele>71</ele>
        <time>2021-04-05T10:41:25.000Z</time>
      </trkpt>
      <trkpt lat="47.15506" lon="-1.63371">
        <ele>71</ele>
        <time>2021-04-05T10:41:27.000Z</time>
      </trkpt>
      <trkpt lat="47.15517" lon="-1.63362">
        <ele>70</ele>
        <time>2021-04-05T10:41:29.000Z</time>
      </trkpt>
      <trkpt lat="47.15528" lon="-1.63353">
        <ele>70</ele>
        <time>2021-04-05T10:41:31.000Z</time>
      </trkpt>
      <trkpt lat="47.1554" lon="-1.63342">
        <ele>70</ele>
        <time>2021-04-05T10:41:33.000Z</time>
      </trkpt>
      <trkpt lat="47.15551" lon="-1.63332">
        <ele>70</ele>
        <time>2021-04-05T10:41:35.000Z</time>
      </trkpt>
      <trkpt lat="47.15563" lon="-1.63322">
        <ele>70</ele>
        <time>2021-04-05T10:41:37.000Z</time>
      </trkpt>
      <trkpt lat="47.15574" lon="-1.63312">
        <ele>69</ele>
        <time>2021-04-05T10:41:39.000Z</time>
      </trkpt>
      <trkpt lat="47.15586" lon="-1.63301">
        <ele>69</ele>
        <time>2021-04-05T10:41:41.000Z</time>
      </trkpt>
      <trkpt lat="47.15598" lon="-1.6329">
        <ele>68</ele>
        <time>2021-04-05T10:41:43.000Z</time>
      </trkpt>
      <trkpt lat="47.1561" lon="-1.6328">
        <ele>68</ele>
        <time>2021-04-05T10:41:45.000Z</time>
      </trkpt>
      <trkpt lat="47.15622" lon="-1.63269">
        <ele>68</ele>
        <time>2021-04-05T10:41:47.000Z</time>
      </trkpt>
      <trkpt lat="47.15633" lon="-1.63259">
        <ele>68</ele>
        <time>2021-04-05T10:41:49.000Z</time>
      </trkpt>
      <trkpt lat="47.15644" lon="-1.6325">
        <ele>68</ele>
        <time>2021-04-05T10:41:51.000Z</time>
      </trkpt>
      <trkpt lat="47.15654" lon="-1.6324">
        <ele>68</ele>
        <time>2021-04-05T10:41:53.000Z</time>
      </trkpt>
      <trkpt lat="47.15666" lon="-1.63231">
        <ele>68</ele>
        <time>2021-04-05T10:41:55.000Z</time>
      </trkpt>
      <trkpt lat="47.15676" lon="-1.63222">
        <ele>68</ele>
        <time>2021-04-05T10:41:57.000Z</time>
      </trkpt>
      <trkpt lat="47.15686" lon="-1.63213">
        <ele>68</ele>
        <time>2021-04-05T10:41:59.000Z</time>
      </trkpt>
      <trkpt lat="47.15696" lon="-1.63203">
        <ele>68</ele>
        <time>2021-04-05T10:42:01.000Z</time>
      </trkpt>
      <trkpt lat="47.15706" lon="-1.63194">
        <ele>68</ele>
        <time>2021-04-05T10:42:03.000Z</time>
      </trkpt>
      <trkpt lat="47.15717" lon="-1.63185">
        <ele>68</ele>
        <time>2021-04-05T10:42:05.000Z</time>
      </trkpt>
      <trkpt lat="47.15727" lon="-1.63176">
        <ele>68</ele>
        <time>2021-04-05T10:42:07.000Z</time>
      </trkpt>
      <trkpt lat="47.15737" lon="-1.63167">
        <ele>67</ele>
        <time>2021-04-05T10:42:09.000Z</time>
      </trkpt>
      <trkpt lat="47.15746" lon="-1.63157">
        <ele>67</ele>
        <time>2021-04-05T10:42:11.000Z</time>
      </trkpt>
      <trkpt lat="47.15754" lon="-1.63146">
        <ele>67</ele>
        <time>2021-04-05T10:42:13.000Z</time>
      </trkpt>
      <trkpt lat="47.15766" lon="-1.63142">
        <ele>67</ele>
        <time>2021-04-05T10:42:15.000Z</time>
      </trkpt>
      <trkpt lat="47.15776" lon="-1.63134">
        <ele>67</ele>
        <time>2021-04-05T10:42:17.000Z</time>
      </trkpt>
      <trkpt lat="47.15786" lon="-1.63125">
        <ele>67</ele>
        <time>2021-04-05T10:42:19.000Z</time>
      </trkpt>
      <trkpt lat="47.15797" lon="-1.63115">
        <ele>67</ele>
        <time>2021-04-05T10:42:21.000Z</time>
      </trkpt>
      <trkpt lat="47.15808" lon="-1.63105">
        <ele>67</ele>
        <time>2021-04-05T10:42:23.000Z</time>
      </trkpt>
      <trkpt lat="47.15819" lon="-1.63095">
        <ele>67</ele>
        <time>2021-04-05T10:42:25.000Z</time>
      </trkpt>
      <trkpt lat="47.1583" lon="-1.63085">
        <ele>66</ele>
        <time>2021-04-05T10:42:27.000Z</time>
      </trkpt>
      <trkpt lat="47.15842" lon="-1.63075">
        <ele>65</ele>
        <time>2021-04-05T10:42:29.000Z</time>
      </trkpt>
      <trkpt lat="47.15855" lon="-1.63064">
        <ele>65</ele>
        <time>2021-04-05T10:42:31.000Z</time>
      </trkpt>
      <trkpt lat="47.15867" lon="-1.63053">
        <ele>64</ele>
        <time>2021-04-05T10:42:33.000Z</time>
      </trkpt>
      <trkpt lat="47.15879" lon="-1.63043">
        <ele>64</ele>
        <time>2021-04-05T10:42:35.000Z</time>
      </trkpt>
      <trkpt lat="47.1589" lon="-1.63033">
        <ele>64</ele>
        <time>2021-04-05T10:42:37.000Z</time>
      </trkpt>
      <trkpt lat="47.15902" lon="-1.63022">
        <ele>63</ele>
        <time>2021-04-05T10:42:39.000Z</time>
      </trkpt>
      <trkpt lat="47.15913" lon="-1.63013">
        <ele>63</ele>
        <time>2021-04-05T10:42:41.000Z</time>
      </trkpt>
      <trkpt lat="47.15923" lon="-1.63003">
        <ele>63</ele>
        <time>2021-04-05T10:42:43.000Z</time>
      </trkpt>
      <trkpt lat="47.15933" lon="-1.62994">
        <ele>63</ele>
        <time>2021-04-05T10:42:45.000Z</time>
      </trkpt>
      <trkpt lat="47.15941" lon="-1.62985">
        <ele>64</ele>
        <time>2021-04-05T10:42:47.000Z</time>
      </trkpt>
      <trkpt lat="47.1595" lon="-1.62976">
        <ele>64</ele>
        <time>2021-04-05T10:42:49.000Z</time>
      </trkpt>
      <trkpt lat="47.15961" lon="-1.62965">
        <ele>64</ele>
        <time>2021-04-05T10:42:51.000Z</time>
      </trkpt>
      <trkpt lat="47.15972" lon="-1.62956">
        <ele>65</ele>
        <time>2021-04-05T10:42:53.000Z</time>
      </trkpt>
      <trkpt lat="47.15982" lon="-1.62946">
        <ele>65</ele>
        <time>2021-04-05T10:42:55.000Z</time>
      </trkpt>
      <trkpt lat="47.15993" lon="-1.62936">
        <ele>66</ele>
        <time>2021-04-05T10:42:57.000Z</time>
      </trkpt>
      <trkpt lat="47.16003" lon="-1.62925">
        <ele>66</ele>
        <time>2021-04-05T10:42:59.000Z</time>
      </trkpt>
      <trkpt lat="47.16015" lon="-1.62916">
        <ele>66</ele>
        <time>2021-04-05T10:43:01.000Z</time>
      </trkpt>
      <trkpt lat="47.16026" lon="-1.62906">
        <ele>65</ele>
        <time>2021-04-05T10:43:03.000Z</time>
      </trkpt>
      <trkpt lat="47.16036" lon="-1.62898">
        <ele>65</ele>
        <time>2021-04-05T10:43:05.000Z</time>
      </trkpt>
      <trkpt lat="47.16046" lon="-1.6289">
        <ele>65</ele>
        <time>2021-04-05T10:43:07.000Z</time>
      </trkpt>
      <trkpt lat="47.16057" lon="-1.6288">
        <ele>65</ele>
        <time>2021-04-05T10:43:09.000Z</time>
      </trkpt>
      <trkpt lat="47.16067" lon="-1.62871">
        <ele>65</ele>
        <time>2021-04-05T10:43:11.000Z</time>
      </trkpt>
      <trkpt lat="47.16076" lon="-1.62862">
        <ele>65</ele>
        <time>2021-04-05T10:43:13.000Z</time>
      </trkpt>
      <trkpt lat="47.16086" lon="-1.62854">
        <ele>65</ele>
        <time>2021-04-05T10:43:15.000Z</time>
      </trkpt>
      <trkpt lat="47.16096" lon="-1.62846">
        <ele>66</ele>
        <time>2021-04-05T10:43:17.000Z</time>
      </trkpt>
      <trkpt lat="47.16107" lon="-1.62837">
        <ele>66</ele>
        <time>2021-04-05T10:43:19.000Z</time>
      </trkpt>
      <trkpt lat="47.16116" lon="-1.62829">
        <ele>66</ele>
        <time>2021-04-05T10:43:21.000Z</time>
      </trkpt>
      <trkpt lat="47.16126" lon="-1.6282">
        <ele>65</ele>
        <time>2021-04-05T10:43:23.000Z</time>
      </trkpt>
      <trkpt lat="47.16136" lon="-1.62813">
        <ele>66</ele>
        <time>2021-04-05T10:43:25.000Z</time>
      </trkpt>
      <trkpt lat="47.16145" lon="-1.62805">
        <ele>67</ele>
        <time>2021-04-05T10:43:27.000Z</time>
      </trkpt>
      <trkpt lat="47.16154" lon="-1.62797">
        <ele>67</ele>
        <time>2021-04-05T10:43:29.000Z</time>
      </trkpt>
      <trkpt lat="47.16164" lon="-1.62788">
        <ele>68</ele>
        <time>2021-04-05T10:43:31.000Z</time>
      </trkpt>
      <trkpt lat="47.16173" lon="-1.6278">
        <ele>68</ele>
        <time>2021-04-05T10:43:33.000Z</time>
      </trkpt>
      <trkpt lat="47.16181" lon="-1.62771">
        <ele>69</ele>
        <time>2021-04-05T10:43:35.000Z</time>
      </trkpt>
      <trkpt lat="47.1619" lon="-1.62763">
        <ele>70</ele>
        <time>2021-04-05T10:43:37.000Z</time>
      </trkpt>
      <trkpt lat="47.16198" lon="-1.62754">
        <ele>70</ele>
        <time>2021-04-05T10:43:39.000Z</time>
      </trkpt>
      <trkpt lat="47.16208" lon="-1.62747">
        <ele>70</ele>
        <time>2021-04-05T10:43:41.000Z</time>
      </trkpt>
      <trkpt lat="47.16216" lon="-1.6274">
        <ele>70</ele>
        <time>2021-04-05T10:43:43.000Z</time>
      </trkpt>
      <trkpt lat="47.16225" lon="-1.62732">
        <ele>71</ele>
        <time>2021-04-05T10:43:45.000Z</time>
      </trkpt>
      <trkpt lat="47.16233" lon="-1.62725">
        <ele>71</ele>
        <time>2021-04-05T10:43:47.000Z</time>
      </trkpt>
      <trkpt lat="47.16242" lon="-1.62718">
        <ele>72</ele>
        <time>2021-04-05T10:43:49.000Z</time>
      </trkpt>
      <trkpt lat="47.16251" lon="-1.62711">
        <ele>72</ele>
        <time>2021-04-05T10:43:51.000Z</time>
      </trkpt>
      <trkpt lat="47.1626" lon="-1.62703">
        <ele>72</ele>
        <time>2021-04-05T10:43:53.000Z</time>
      </trkpt>
      <trkpt lat="47.16269" lon="-1.62696">
        <ele>72</ele>
        <time>2021-04-05T10:43:55.000Z</time>
      </trkpt>
      <trkpt lat="47.16279" lon="-1.62684">
        <ele>72</ele>
        <time>2021-04-05T10:43:58.000Z</time>
      </trkpt>
      <trkpt lat="47.16278" lon="-1.6267">
        <ele>72</ele>
        <time>2021-04-05T10:44:00.000Z</time>
      </trkpt>
      <trkpt lat="47.16278" lon="-1.62655">
        <ele>72</ele>
        <time>2021-04-05T10:44:02.000Z</time>
      </trkpt>
      <trkpt lat="47.1628" lon="-1.62639">
        <ele>72</ele>
        <time>2021-04-05T10:44:04.000Z</time>
      </trkpt>
      <trkpt lat="47.16282" lon="-1.62624">
        <ele>73</ele>
        <time>2021-04-05T10:44:06.000Z</time>
      </trkpt>
      <trkpt lat="47.16285" lon="-1.6261">
        <ele>73</ele>
        <time>2021-04-05T10:44:08.000Z</time>
      </trkpt>
      <trkpt lat="47.16289" lon="-1.62597">
        <ele>74</ele>
        <time>2021-04-05T10:44:10.000Z</time>
      </trkpt>
      <trkpt lat="47.16295" lon="-1.62584">
        <ele>74</ele>
        <time>2021-04-05T10:44:12.000Z</time>
      </trkpt>
      <trkpt lat="47.16302" lon="-1.62576">
        <ele>74</ele>
        <time>2021-04-05T10:44:14.000Z</time>
      </trkpt>
      <trkpt lat="47.16311" lon="-1.6257">
        <ele>74</ele>
        <time>2021-04-05T10:44:16.000Z</time>
      </trkpt>
      <trkpt lat="47.16321" lon="-1.62567">
        <ele>74</ele>
        <time>2021-04-05T10:44:18.000Z</time>
      </trkpt>
      <trkpt lat="47.16331" lon="-1.62569">
        <ele>74</ele>
        <time>2021-04-05T10:44:20.000Z</time>
      </trkpt>
      <trkpt lat="47.16341" lon="-1.62573">
        <ele>73</ele>
        <time>2021-04-05T10:44:22.000Z</time>
      </trkpt>
      <trkpt lat="47.1635" lon="-1.62577">
        <ele>73</ele>
        <time>2021-04-05T10:44:24.000Z</time>
      </trkpt>
      <trkpt lat="47.1636" lon="-1.62579">
        <ele>73</ele>
        <time>2021-04-05T10:44:26.000Z</time>
      </trkpt>
      <trkpt lat="47.1637" lon="-1.6258">
        <ele>73</ele>
        <time>2021-04-05T10:44:28.000Z</time>
      </trkpt>
      <trkpt lat="47.1638" lon="-1.6258">
        <ele>73</ele>
        <time>2021-04-05T10:44:30.000Z</time>
      </trkpt>
      <trkpt lat="47.16391" lon="-1.62577">
        <ele>73</ele>
        <time>2021-04-05T10:44:32.000Z</time>
      </trkpt>
      <trkpt lat="47.164" lon="-1.62571">
        <ele>74</ele>
        <time>2021-04-05T10:44:34.000Z</time>
      </trkpt>
      <trkpt lat="47.16409" lon="-1.62563">
        <ele>74</ele>
        <time>2021-04-05T10:44:36.000Z</time>
      </trkpt>
      <trkpt lat="47.16417" lon="-1.62555">
        <ele>74</ele>
        <time>2021-04-05T10:44:38.000Z</time>
      </trkpt>
      <trkpt lat="47.16426" lon="-1.62547">
        <ele>74</ele>
        <time>2021-04-05T10:44:40.000Z</time>
      </trkpt>
      <trkpt lat="47.16435" lon="-1.6254">
        <ele>75</ele>
        <time>2021-04-05T10:44:42.000Z</time>
      </trkpt>
      <trkpt lat="47.16445" lon="-1.62539">
        <ele>75</ele>
        <time>2021-04-05T10:44:44.000Z</time>
      </trkpt>
      <trkpt lat="47.16455" lon="-1.62542">
        <ele>75</ele>
        <time>2021-04-05T10:44:46.000Z</time>
      </trkpt>
      <trkpt lat="47.16465" lon="-1.62544">
        <ele>75</ele>
        <time>2021-04-05T10:44:48.000Z</time>
      </trkpt>
      <trkpt lat="47.16474" lon="-1.62548">
        <ele>75</ele>
        <time>2021-04-05T10:44:50.000Z</time>
      </trkpt>
      <trkpt lat="47.16484" lon="-1.6255">
        <ele>76</ele>
        <time>2021-04-05T10:44:52.000Z</time>
      </trkpt>
      <trkpt lat="47.16493" lon="-1.62552">
        <ele>76</ele>
        <time>2021-04-05T10:44:54.000Z</time>
      </trkpt>
      <trkpt lat="47.16503" lon="-1.62556">
        <ele>75</ele>
        <time>2021-04-05T10:44:56.000Z</time>
      </trkpt>
      <trkpt lat="47.16514" lon="-1.62559">
        <ele>75</ele>
        <time>2021-04-05T10:44:58.000Z</time>
      </trkpt>
      <trkpt lat="47.16525" lon="-1.62562">
        <ele>75</ele>
        <time>2021-04-05T10:45:00.000Z</time>
      </trkpt>
      <trkpt lat="47.16535" lon="-1.6256">
        <ele>75</ele>
        <time>2021-04-05T10:45:02.000Z</time>
      </trkpt>
      <trkpt lat="47.16544" lon="-1.62552">
        <ele>75</ele>
        <time>2021-04-05T10:45:04.000Z</time>
      </trkpt>
      <trkpt lat="47.16554" lon="-1.62542">
        <ele>75</ele>
        <time>2021-04-05T10:45:06.000Z</time>
      </trkpt>
      <trkpt lat="47.16562" lon="-1.6253">
        <ele>75</ele>
        <time>2021-04-05T10:45:08.000Z</time>
      </trkpt>
      <trkpt lat="47.16569" lon="-1.62517">
        <ele>74</ele>
        <time>2021-04-05T10:45:10.000Z</time>
      </trkpt>
      <trkpt lat="47.16576" lon="-1.62501">
        <ele>74</ele>
        <time>2021-04-05T10:45:12.000Z</time>
      </trkpt>
      <trkpt lat="47.16582" lon="-1.62485">
        <ele>74</ele>
        <time>2021-04-05T10:45:14.000Z</time>
      </trkpt>
      <trkpt lat="47.16588" lon="-1.62469">
        <ele>74</ele>
        <time>2021-04-05T10:45:16.000Z</time>
      </trkpt>
      <trkpt lat="47.16595" lon="-1.62453">
        <ele>73</ele>
        <time>2021-04-05T10:45:18.000Z</time>
      </trkpt>
      <trkpt lat="47.16603" lon="-1.62437">
        <ele>72</ele>
        <time>2021-04-05T10:45:20.000Z</time>
      </trkpt>
      <trkpt lat="47.1661" lon="-1.62421">
        <ele>72</ele>
        <time>2021-04-05T10:45:22.000Z</time>
      </trkpt>
      <trkpt lat="47.16619" lon="-1.62407">
        <ele>71</ele>
        <time>2021-04-05T10:45:24.000Z</time>
      </trkpt>
      <trkpt lat="47.16627" lon="-1.62392">
        <ele>71</ele>
        <time>2021-04-05T10:45:26.000Z</time>
      </trkpt>
      <trkpt lat="47.16637" lon="-1.62379">
        <ele>71</ele>
        <time>2021-04-05T10:45:28.000Z</time>
      </trkpt>
      <trkpt lat="47.16647" lon="-1.62369">
        <ele>70</ele>
        <time>2021-04-05T10:45:30.000Z</time>
      </trkpt>
      <trkpt lat="47.16659" lon="-1.62361">
        <ele>70</ele>
        <time>2021-04-05T10:45:32.000Z</time>
      </trkpt>
      <trkpt lat="47.1667" lon="-1.62355">
        <ele>70</ele>
        <time>2021-04-05T10:45:34.000Z</time>
      </trkpt>
      <trkpt lat="47.16683" lon="-1.62357">
        <ele>70</ele>
        <time>2021-04-05T10:45:36.000Z</time>
      </trkpt>
      <trkpt lat="47.16694" lon="-1.62363">
        <ele>70</ele>
        <time>2021-04-05T10:45:38.000Z</time>
      </trkpt>
      <trkpt lat="47.16704" lon="-1.62375">
        <ele>69</ele>
        <time>2021-04-05T10:45:40.000Z</time>
      </trkpt>
      <trkpt lat="47.16711" lon="-1.62387">
        <ele>69</ele>
        <time>2021-04-05T10:45:42.000Z</time>
      </trkpt>
      <trkpt lat="47.16717" lon="-1.624">
        <ele>69</ele>
        <time>2021-04-05T10:45:44.000Z</time>
      </trkpt>
      <trkpt lat="47.16726" lon="-1.62413">
        <ele>68</ele>
        <time>2021-04-05T10:45:47.000Z</time>
      </trkpt>
      <trkpt lat="47.16727" lon="-1.62429">
        <ele>67</ele>
        <time>2021-04-05T10:45:49.000Z</time>
      </trkpt>
      <trkpt lat="47.16725" lon="-1.62444">
        <ele>68</ele>
        <time>2021-04-05T10:45:51.000Z</time>
      </trkpt>
      <trkpt lat="47.16721" lon="-1.6246">
        <ele>68</ele>
        <time>2021-04-05T10:45:53.000Z</time>
      </trkpt>
      <trkpt lat="47.16718" lon="-1.62476">
        <ele>67</ele>
        <time>2021-04-05T10:45:55.000Z</time>
      </trkpt>
      <trkpt lat="47.16717" lon="-1.6249">
        <ele>68</ele>
        <time>2021-04-05T10:45:57.000Z</time>
      </trkpt>
      <trkpt lat="47.16727" lon="-1.62501">
        <ele>70</ele>
        <time>2021-04-05T10:46:00.000Z</time>
      </trkpt>
      <trkpt lat="47.16737" lon="-1.62504">
        <ele>70</ele>
        <time>2021-04-05T10:46:02.000Z</time>
      </trkpt>
      <trkpt lat="47.16748" lon="-1.62506">
        <ele>70</ele>
        <time>2021-04-05T10:46:04.000Z</time>
      </trkpt>
      <trkpt lat="47.16758" lon="-1.62511">
        <ele>71</ele>
        <time>2021-04-05T10:46:06.000Z</time>
      </trkpt>
      <trkpt lat="47.16768" lon="-1.62516">
        <ele>71</ele>
        <time>2021-04-05T10:46:08.000Z</time>
      </trkpt>
      <trkpt lat="47.16777" lon="-1.62521">
        <ele>71</ele>
        <time>2021-04-05T10:46:10.000Z</time>
      </trkpt>
      <trkpt lat="47.16787" lon="-1.62527">
        <ele>71</ele>
        <time>2021-04-05T10:46:12.000Z</time>
      </trkpt>
      <trkpt lat="47.16796" lon="-1.62533">
        <ele>71</ele>
        <time>2021-04-05T10:46:14.000Z</time>
      </trkpt>
      <trkpt lat="47.16805" lon="-1.62539">
        <ele>70</ele>
        <time>2021-04-05T10:46:16.000Z</time>
      </trkpt>
      <trkpt lat="47.16813" lon="-1.62547">
        <ele>70</ele>
        <time>2021-04-05T10:46:18.000Z</time>
      </trkpt>
      <trkpt lat="47.16822" lon="-1.62556">
        <ele>70</ele>
        <time>2021-04-05T10:46:20.000Z</time>
      </trkpt>
      <trkpt lat="47.16829" lon="-1.62567">
        <ele>70</ele>
        <time>2021-04-05T10:46:22.000Z</time>
      </trkpt>
      <trkpt lat="47.16833" lon="-1.62584">
        <ele>69</ele>
        <time>2021-04-05T10:46:24.000Z</time>
      </trkpt>
      <trkpt lat="47.16828" lon="-1.62598">
        <ele>68</ele>
        <time>2021-04-05T10:46:26.000Z</time>
      </trkpt>
      <trkpt lat="47.16821" lon="-1.6261">
        <ele>68</ele>
        <time>2021-04-05T10:46:28.000Z</time>
      </trkpt>
      <trkpt lat="47.16813" lon="-1.62623">
        <ele>68</ele>
        <time>2021-04-05T10:46:30.000Z</time>
      </trkpt>
      <trkpt lat="47.16806" lon="-1.62633">
        <ele>68</ele>
        <time>2021-04-05T10:46:32.000Z</time>
      </trkpt>
      <trkpt lat="47.16799" lon="-1.62644">
        <ele>68</ele>
        <time>2021-04-05T10:46:34.000Z</time>
      </trkpt>
      <trkpt lat="47.16794" lon="-1.62654">
        <ele>68</ele>
        <time>2021-04-05T10:46:36.000Z</time>
      </trkpt>
      <trkpt lat="47.16786" lon="-1.62662">
        <ele>67</ele>
        <time>2021-04-05T10:46:39.000Z</time>
      </trkpt>
    </trkseg>
  </trk>
</gpx>